<?xml version="1.0" encoding="UTF-8" standalone="no" ?>
<gpx xmlns="http://www.topografix.com/GPX/1/1" xmlns:xsi="http://www.w3.org/2001/XMLSchema-instance" xsi:schemaLocation="http://www.topografix.com/GPX/1/1 http://www.topografix.com/GPX/1/1/gpx.xsd" version="1.1" creator="VisuGPX - https://www.visugpx.com">
  <metadata>
    <name>2018-01-31 Bike ride-Ambérieux-Rancé O 36km</name>
    <desc><![CDATA[2018-01-31 Bike ride-Ambérieux-Rancé O 36km]]></desc>
  </metadata>
  <wpt lat="45.92456" lon="4.73731">
    <ele>174</ele>
    <name><![CDATA[2018-01-31 10:32 (Start)]]></name>
  </wpt>
  <wpt lat="45.92465" lon="4.73712">
    <ele>174</ele>
    <name><![CDATA[2018-01-31 10:32 (End)]]></name>
  </wpt>
  <trk>
    <name><![CDATA[2018-01-31 10:32]]></name>
    <trkseg>
      <trkpt lat="45.92456" lon="4.73731">
        <ele>174</ele>
        <time>2018-01-31T09:32:18.609Z</time>
      </trkpt>
      <trkpt lat="45.92459" lon="4.73727">
        <ele>174</ele>
        <time>2018-01-31T09:32:19.557Z</time>
      </trkpt>
      <trkpt lat="45.92457" lon="4.73714">
        <ele>174</ele>
        <time>2018-01-31T09:32:20Z</time>
      </trkpt>
      <trkpt lat="45.92456" lon="4.73712">
        <ele>174</ele>
        <time>2018-01-31T09:32:31Z</time>
      </trkpt>
      <trkpt lat="45.92455" lon="4.73713">
        <ele>174</ele>
        <time>2018-01-31T09:32:32Z</time>
      </trkpt>
      <trkpt lat="45.92455" lon="4.73715">
        <ele>174</ele>
        <time>2018-01-31T09:32:33Z</time>
      </trkpt>
      <trkpt lat="45.92462" lon="4.73708">
        <ele>174</ele>
        <time>2018-01-31T09:32:41Z</time>
      </trkpt>
      <trkpt lat="45.92463" lon="4.73706">
        <ele>174</ele>
        <time>2018-01-31T09:32:42Z</time>
      </trkpt>
      <trkpt lat="45.92463" lon="4.73697">
        <ele>174</ele>
        <time>2018-01-31T09:32:45Z</time>
      </trkpt>
      <trkpt lat="45.92464" lon="4.73693">
        <ele>174</ele>
        <time>2018-01-31T09:32:46Z</time>
      </trkpt>
      <trkpt lat="45.92465" lon="4.73684">
        <ele>174</ele>
        <time>2018-01-31T09:32:48Z</time>
      </trkpt>
      <trkpt lat="45.92465" lon="4.73679">
        <ele>174</ele>
        <time>2018-01-31T09:32:49Z</time>
      </trkpt>
      <trkpt lat="45.92467" lon="4.73669">
        <ele>174</ele>
        <time>2018-01-31T09:32:51Z</time>
      </trkpt>
      <trkpt lat="45.92468" lon="4.73664">
        <ele>174</ele>
        <time>2018-01-31T09:32:52Z</time>
      </trkpt>
      <trkpt lat="45.92469" lon="4.73653">
        <ele>174</ele>
        <time>2018-01-31T09:32:54Z</time>
      </trkpt>
      <trkpt lat="45.92471" lon="4.73648">
        <ele>174</ele>
        <time>2018-01-31T09:32:55Z</time>
      </trkpt>
      <trkpt lat="45.92478" lon="4.73642">
        <ele>174</ele>
        <time>2018-01-31T09:32:58Z</time>
      </trkpt>
      <trkpt lat="45.92481" lon="4.73641">
        <ele>174</ele>
        <time>2018-01-31T09:32:59Z</time>
      </trkpt>
      <trkpt lat="45.92489" lon="4.73642">
        <ele>174</ele>
        <time>2018-01-31T09:33:01Z</time>
      </trkpt>
      <trkpt lat="45.92493" lon="4.73643">
        <ele>174</ele>
        <time>2018-01-31T09:33:02Z</time>
      </trkpt>
      <trkpt lat="45.92501" lon="4.73644">
        <ele>174</ele>
        <time>2018-01-31T09:33:04Z</time>
      </trkpt>
      <trkpt lat="45.92505" lon="4.73644">
        <ele>174</ele>
        <time>2018-01-31T09:33:05Z</time>
      </trkpt>
      <trkpt lat="45.92513" lon="4.73644">
        <ele>174</ele>
        <time>2018-01-31T09:33:07Z</time>
      </trkpt>
      <trkpt lat="45.92518" lon="4.73644">
        <ele>174</ele>
        <time>2018-01-31T09:33:08Z</time>
      </trkpt>
      <trkpt lat="45.92523" lon="4.73643">
        <ele>173</ele>
        <time>2018-01-31T09:33:09Z</time>
      </trkpt>
      <trkpt lat="45.92528" lon="4.73643">
        <ele>173</ele>
        <time>2018-01-31T09:33:10Z</time>
      </trkpt>
      <trkpt lat="45.92536" lon="4.73644">
        <ele>173</ele>
        <time>2018-01-31T09:33:12Z</time>
      </trkpt>
      <trkpt lat="45.9254" lon="4.73642">
        <ele>173</ele>
        <time>2018-01-31T09:33:13Z</time>
      </trkpt>
      <trkpt lat="45.92545" lon="4.7364">
        <ele>173</ele>
        <time>2018-01-31T09:33:14Z</time>
      </trkpt>
      <trkpt lat="45.9255" lon="4.73637">
        <ele>173</ele>
        <time>2018-01-31T09:33:15Z</time>
      </trkpt>
      <trkpt lat="45.92554" lon="4.73636">
        <ele>173</ele>
        <time>2018-01-31T09:33:16Z</time>
      </trkpt>
      <trkpt lat="45.92559" lon="4.73635">
        <ele>173</ele>
        <time>2018-01-31T09:33:17Z</time>
      </trkpt>
      <trkpt lat="45.92563" lon="4.73633">
        <ele>173</ele>
        <time>2018-01-31T09:33:18Z</time>
      </trkpt>
      <trkpt lat="45.92568" lon="4.7363">
        <ele>173</ele>
        <time>2018-01-31T09:33:19Z</time>
      </trkpt>
      <trkpt lat="45.92573" lon="4.73628">
        <ele>173</ele>
        <time>2018-01-31T09:33:20Z</time>
      </trkpt>
      <trkpt lat="45.92578" lon="4.73626">
        <ele>173</ele>
        <time>2018-01-31T09:33:21Z</time>
      </trkpt>
      <trkpt lat="45.92583" lon="4.73624">
        <ele>173</ele>
        <time>2018-01-31T09:33:22Z</time>
      </trkpt>
      <trkpt lat="45.92588" lon="4.73624">
        <ele>172</ele>
        <time>2018-01-31T09:33:23Z</time>
      </trkpt>
      <trkpt lat="45.92594" lon="4.73624">
        <ele>173</ele>
        <time>2018-01-31T09:33:24Z</time>
      </trkpt>
      <trkpt lat="45.92597" lon="4.73628">
        <ele>172</ele>
        <time>2018-01-31T09:33:25Z</time>
      </trkpt>
      <trkpt lat="45.92604" lon="4.73627">
        <ele>173</ele>
        <time>2018-01-31T09:33:26Z</time>
      </trkpt>
      <trkpt lat="45.92609" lon="4.73628">
        <ele>173</ele>
        <time>2018-01-31T09:33:27Z</time>
      </trkpt>
      <trkpt lat="45.92616" lon="4.7363">
        <ele>173</ele>
        <time>2018-01-31T09:33:28Z</time>
      </trkpt>
      <trkpt lat="45.9262" lon="4.73636">
        <ele>173</ele>
        <time>2018-01-31T09:33:29Z</time>
      </trkpt>
      <trkpt lat="45.92625" lon="4.73639">
        <ele>173</ele>
        <time>2018-01-31T09:33:30Z</time>
      </trkpt>
      <trkpt lat="45.92629" lon="4.73643">
        <ele>173</ele>
        <time>2018-01-31T09:33:31Z</time>
      </trkpt>
      <trkpt lat="45.92631" lon="4.73649">
        <ele>173</ele>
        <time>2018-01-31T09:33:32Z</time>
      </trkpt>
      <trkpt lat="45.92633" lon="4.73655">
        <ele>173</ele>
        <time>2018-01-31T09:33:33Z</time>
      </trkpt>
      <trkpt lat="45.92636" lon="4.73661">
        <ele>173</ele>
        <time>2018-01-31T09:33:34Z</time>
      </trkpt>
      <trkpt lat="45.92639" lon="4.73669">
        <ele>173</ele>
        <time>2018-01-31T09:33:35Z</time>
      </trkpt>
      <trkpt lat="45.92642" lon="4.73676">
        <ele>173</ele>
        <time>2018-01-31T09:33:36Z</time>
      </trkpt>
      <trkpt lat="45.92645" lon="4.73682">
        <ele>173</ele>
        <time>2018-01-31T09:33:37Z</time>
      </trkpt>
      <trkpt lat="45.92649" lon="4.73688">
        <ele>173</ele>
        <time>2018-01-31T09:33:38Z</time>
      </trkpt>
      <trkpt lat="45.92654" lon="4.73693">
        <ele>173</ele>
        <time>2018-01-31T09:33:39Z</time>
      </trkpt>
      <trkpt lat="45.92658" lon="4.73698">
        <ele>173</ele>
        <time>2018-01-31T09:33:40Z</time>
      </trkpt>
      <trkpt lat="45.92663" lon="4.73703">
        <ele>173</ele>
        <time>2018-01-31T09:33:41Z</time>
      </trkpt>
      <trkpt lat="45.92667" lon="4.73706">
        <ele>174</ele>
        <time>2018-01-31T09:33:42Z</time>
      </trkpt>
      <trkpt lat="45.92673" lon="4.73709">
        <ele>174</ele>
        <time>2018-01-31T09:33:43Z</time>
      </trkpt>
      <trkpt lat="45.92678" lon="4.73712">
        <ele>173</ele>
        <time>2018-01-31T09:33:44Z</time>
      </trkpt>
      <trkpt lat="45.92684" lon="4.73714">
        <ele>173</ele>
        <time>2018-01-31T09:33:45Z</time>
      </trkpt>
      <trkpt lat="45.92689" lon="4.73715">
        <ele>173</ele>
        <time>2018-01-31T09:33:46Z</time>
      </trkpt>
      <trkpt lat="45.92695" lon="4.73716">
        <ele>173</ele>
        <time>2018-01-31T09:33:47Z</time>
      </trkpt>
      <trkpt lat="45.92701" lon="4.73717">
        <ele>173</ele>
        <time>2018-01-31T09:33:48Z</time>
      </trkpt>
      <trkpt lat="45.92706" lon="4.73717">
        <ele>173</ele>
        <time>2018-01-31T09:33:49Z</time>
      </trkpt>
      <trkpt lat="45.92711" lon="4.73719">
        <ele>173</ele>
        <time>2018-01-31T09:33:50Z</time>
      </trkpt>
      <trkpt lat="45.92716" lon="4.7372">
        <ele>173</ele>
        <time>2018-01-31T09:33:51Z</time>
      </trkpt>
      <trkpt lat="45.92722" lon="4.73721">
        <ele>173</ele>
        <time>2018-01-31T09:33:52Z</time>
      </trkpt>
      <trkpt lat="45.92728" lon="4.73723">
        <ele>173</ele>
        <time>2018-01-31T09:33:53Z</time>
      </trkpt>
      <trkpt lat="45.92733" lon="4.73725">
        <ele>173</ele>
        <time>2018-01-31T09:33:54Z</time>
      </trkpt>
      <trkpt lat="45.9274" lon="4.73725">
        <ele>173</ele>
        <time>2018-01-31T09:33:55Z</time>
      </trkpt>
      <trkpt lat="45.92746" lon="4.73726">
        <ele>173</ele>
        <time>2018-01-31T09:33:56Z</time>
      </trkpt>
      <trkpt lat="45.92752" lon="4.73727">
        <ele>172</ele>
        <time>2018-01-31T09:33:57Z</time>
      </trkpt>
      <trkpt lat="45.92758" lon="4.73729">
        <ele>172</ele>
        <time>2018-01-31T09:33:58Z</time>
      </trkpt>
      <trkpt lat="45.92763" lon="4.73731">
        <ele>172</ele>
        <time>2018-01-31T09:33:59Z</time>
      </trkpt>
      <trkpt lat="45.92768" lon="4.73734">
        <ele>172</ele>
        <time>2018-01-31T09:34:00Z</time>
      </trkpt>
      <trkpt lat="45.92772" lon="4.73736">
        <ele>172</ele>
        <time>2018-01-31T09:34:01Z</time>
      </trkpt>
      <trkpt lat="45.92778" lon="4.73737">
        <ele>172</ele>
        <time>2018-01-31T09:34:03Z</time>
      </trkpt>
      <trkpt lat="45.92781" lon="4.73739">
        <ele>172</ele>
        <time>2018-01-31T09:34:04Z</time>
      </trkpt>
      <trkpt lat="45.92784" lon="4.7375">
        <ele>173</ele>
        <time>2018-01-31T09:34:06Z</time>
      </trkpt>
      <trkpt lat="45.92787" lon="4.73755">
        <ele>173</ele>
        <time>2018-01-31T09:34:07Z</time>
      </trkpt>
      <trkpt lat="45.92794" lon="4.73761">
        <ele>173</ele>
        <time>2018-01-31T09:34:09Z</time>
      </trkpt>
      <trkpt lat="45.92798" lon="4.73763">
        <ele>173</ele>
        <time>2018-01-31T09:34:10Z</time>
      </trkpt>
      <trkpt lat="45.92806" lon="4.73767">
        <ele>173</ele>
        <time>2018-01-31T09:34:12Z</time>
      </trkpt>
      <trkpt lat="45.9281" lon="4.7377">
        <ele>173</ele>
        <time>2018-01-31T09:34:13Z</time>
      </trkpt>
      <trkpt lat="45.92816" lon="4.73773">
        <ele>173</ele>
        <time>2018-01-31T09:34:14Z</time>
      </trkpt>
      <trkpt lat="45.92821" lon="4.73777">
        <ele>173</ele>
        <time>2018-01-31T09:34:15Z</time>
      </trkpt>
      <trkpt lat="45.92826" lon="4.73781">
        <ele>173</ele>
        <time>2018-01-31T09:34:16Z</time>
      </trkpt>
      <trkpt lat="45.92831" lon="4.73785">
        <ele>173</ele>
        <time>2018-01-31T09:34:17Z</time>
      </trkpt>
      <trkpt lat="45.92836" lon="4.73788">
        <ele>173</ele>
        <time>2018-01-31T09:34:18Z</time>
      </trkpt>
      <trkpt lat="45.92842" lon="4.73793">
        <ele>173</ele>
        <time>2018-01-31T09:34:19Z</time>
      </trkpt>
      <trkpt lat="45.92847" lon="4.73797">
        <ele>173</ele>
        <time>2018-01-31T09:34:20Z</time>
      </trkpt>
      <trkpt lat="45.92851" lon="4.73802">
        <ele>173</ele>
        <time>2018-01-31T09:34:21Z</time>
      </trkpt>
      <trkpt lat="45.92855" lon="4.73808">
        <ele>173</ele>
        <time>2018-01-31T09:34:22Z</time>
      </trkpt>
      <trkpt lat="45.92857" lon="4.73816">
        <ele>173</ele>
        <time>2018-01-31T09:34:23Z</time>
      </trkpt>
      <trkpt lat="45.92859" lon="4.73825">
        <ele>173</ele>
        <time>2018-01-31T09:34:24Z</time>
      </trkpt>
      <trkpt lat="45.92861" lon="4.73833">
        <ele>173</ele>
        <time>2018-01-31T09:34:25Z</time>
      </trkpt>
      <trkpt lat="45.92862" lon="4.73841">
        <ele>173</ele>
        <time>2018-01-31T09:34:26Z</time>
      </trkpt>
      <trkpt lat="45.92864" lon="4.73849">
        <ele>173</ele>
        <time>2018-01-31T09:34:27Z</time>
      </trkpt>
      <trkpt lat="45.92866" lon="4.73857">
        <ele>173</ele>
        <time>2018-01-31T09:34:28Z</time>
      </trkpt>
      <trkpt lat="45.92868" lon="4.73863">
        <ele>173</ele>
        <time>2018-01-31T09:34:29Z</time>
      </trkpt>
      <trkpt lat="45.9287" lon="4.73869">
        <ele>173</ele>
        <time>2018-01-31T09:34:30Z</time>
      </trkpt>
      <trkpt lat="45.92872" lon="4.73875">
        <ele>173</ele>
        <time>2018-01-31T09:34:31Z</time>
      </trkpt>
      <trkpt lat="45.92873" lon="4.73883">
        <ele>173</ele>
        <time>2018-01-31T09:34:32Z</time>
      </trkpt>
      <trkpt lat="45.92878" lon="4.73887">
        <ele>173</ele>
        <time>2018-01-31T09:34:33Z</time>
      </trkpt>
      <trkpt lat="45.92879" lon="4.73895">
        <ele>173</ele>
        <time>2018-01-31T09:34:34Z</time>
      </trkpt>
      <trkpt lat="45.9288" lon="4.73902">
        <ele>173</ele>
        <time>2018-01-31T09:34:35Z</time>
      </trkpt>
      <trkpt lat="45.92881" lon="4.7391">
        <ele>173</ele>
        <time>2018-01-31T09:34:36Z</time>
      </trkpt>
      <trkpt lat="45.92882" lon="4.73917">
        <ele>172</ele>
        <time>2018-01-31T09:34:37Z</time>
      </trkpt>
      <trkpt lat="45.92882" lon="4.73925">
        <ele>172</ele>
        <time>2018-01-31T09:34:38Z</time>
      </trkpt>
      <trkpt lat="45.92882" lon="4.73932">
        <ele>172</ele>
        <time>2018-01-31T09:34:39Z</time>
      </trkpt>
      <trkpt lat="45.92882" lon="4.7394">
        <ele>172</ele>
        <time>2018-01-31T09:34:40Z</time>
      </trkpt>
      <trkpt lat="45.92883" lon="4.73948">
        <ele>172</ele>
        <time>2018-01-31T09:34:41Z</time>
      </trkpt>
      <trkpt lat="45.92883" lon="4.73955">
        <ele>172</ele>
        <time>2018-01-31T09:34:42Z</time>
      </trkpt>
      <trkpt lat="45.92882" lon="4.73962">
        <ele>172</ele>
        <time>2018-01-31T09:34:43Z</time>
      </trkpt>
      <trkpt lat="45.92882" lon="4.73969">
        <ele>172</ele>
        <time>2018-01-31T09:34:44Z</time>
      </trkpt>
      <trkpt lat="45.92882" lon="4.73977">
        <ele>172</ele>
        <time>2018-01-31T09:34:45Z</time>
      </trkpt>
      <trkpt lat="45.9288" lon="4.73984">
        <ele>172</ele>
        <time>2018-01-31T09:34:46Z</time>
      </trkpt>
      <trkpt lat="45.92879" lon="4.73992">
        <ele>172</ele>
        <time>2018-01-31T09:34:47Z</time>
      </trkpt>
      <trkpt lat="45.92878" lon="4.73998">
        <ele>172</ele>
        <time>2018-01-31T09:34:48Z</time>
      </trkpt>
      <trkpt lat="45.92878" lon="4.74006">
        <ele>172</ele>
        <time>2018-01-31T09:34:49Z</time>
      </trkpt>
      <trkpt lat="45.92877" lon="4.74013">
        <ele>172</ele>
        <time>2018-01-31T09:34:50Z</time>
      </trkpt>
      <trkpt lat="45.92876" lon="4.7402">
        <ele>172</ele>
        <time>2018-01-31T09:34:51Z</time>
      </trkpt>
      <trkpt lat="45.92874" lon="4.74028">
        <ele>172</ele>
        <time>2018-01-31T09:34:52Z</time>
      </trkpt>
      <trkpt lat="45.92873" lon="4.74035">
        <ele>172</ele>
        <time>2018-01-31T09:34:53Z</time>
      </trkpt>
      <trkpt lat="45.92871" lon="4.74042">
        <ele>172</ele>
        <time>2018-01-31T09:34:54Z</time>
      </trkpt>
      <trkpt lat="45.92868" lon="4.74049">
        <ele>172</ele>
        <time>2018-01-31T09:34:55Z</time>
      </trkpt>
      <trkpt lat="45.92864" lon="4.74055">
        <ele>172</ele>
        <time>2018-01-31T09:34:56Z</time>
      </trkpt>
      <trkpt lat="45.92859" lon="4.7406">
        <ele>172</ele>
        <time>2018-01-31T09:34:57Z</time>
      </trkpt>
      <trkpt lat="45.92855" lon="4.74066">
        <ele>172</ele>
        <time>2018-01-31T09:34:58Z</time>
      </trkpt>
      <trkpt lat="45.92851" lon="4.74071">
        <ele>172</ele>
        <time>2018-01-31T09:34:59Z</time>
      </trkpt>
      <trkpt lat="45.92846" lon="4.74076">
        <ele>172</ele>
        <time>2018-01-31T09:35:00Z</time>
      </trkpt>
      <trkpt lat="45.92841" lon="4.74081">
        <ele>171</ele>
        <time>2018-01-31T09:35:01Z</time>
      </trkpt>
      <trkpt lat="45.92838" lon="4.74087">
        <ele>171</ele>
        <time>2018-01-31T09:35:02Z</time>
      </trkpt>
      <trkpt lat="45.92834" lon="4.74092">
        <ele>171</ele>
        <time>2018-01-31T09:35:03Z</time>
      </trkpt>
      <trkpt lat="45.92829" lon="4.74095">
        <ele>171</ele>
        <time>2018-01-31T09:35:04Z</time>
      </trkpt>
      <trkpt lat="45.92825" lon="4.74099">
        <ele>171</ele>
        <time>2018-01-31T09:35:05Z</time>
      </trkpt>
      <trkpt lat="45.92821" lon="4.74103">
        <ele>171</ele>
        <time>2018-01-31T09:35:06Z</time>
      </trkpt>
      <trkpt lat="45.92817" lon="4.74108">
        <ele>172</ele>
        <time>2018-01-31T09:35:07Z</time>
      </trkpt>
      <trkpt lat="45.92813" lon="4.74113">
        <ele>172</ele>
        <time>2018-01-31T09:35:08Z</time>
      </trkpt>
      <trkpt lat="45.92808" lon="4.74119">
        <ele>172</ele>
        <time>2018-01-31T09:35:09Z</time>
      </trkpt>
      <trkpt lat="45.92803" lon="4.74123">
        <ele>172</ele>
        <time>2018-01-31T09:35:10Z</time>
      </trkpt>
      <trkpt lat="45.92799" lon="4.74126">
        <ele>172</ele>
        <time>2018-01-31T09:35:11Z</time>
      </trkpt>
      <trkpt lat="45.92795" lon="4.74131">
        <ele>172</ele>
        <time>2018-01-31T09:35:12Z</time>
      </trkpt>
      <trkpt lat="45.9279" lon="4.74135">
        <ele>172</ele>
        <time>2018-01-31T09:35:13Z</time>
      </trkpt>
      <trkpt lat="45.92786" lon="4.7414">
        <ele>172</ele>
        <time>2018-01-31T09:35:14Z</time>
      </trkpt>
      <trkpt lat="45.92781" lon="4.74145">
        <ele>172</ele>
        <time>2018-01-31T09:35:15Z</time>
      </trkpt>
      <trkpt lat="45.92776" lon="4.74149">
        <ele>172</ele>
        <time>2018-01-31T09:35:16Z</time>
      </trkpt>
      <trkpt lat="45.92771" lon="4.74153">
        <ele>172</ele>
        <time>2018-01-31T09:35:17Z</time>
      </trkpt>
      <trkpt lat="45.92766" lon="4.74158">
        <ele>172</ele>
        <time>2018-01-31T09:35:18Z</time>
      </trkpt>
      <trkpt lat="45.92762" lon="4.74163">
        <ele>172</ele>
        <time>2018-01-31T09:35:19Z</time>
      </trkpt>
      <trkpt lat="45.92758" lon="4.74169">
        <ele>172</ele>
        <time>2018-01-31T09:35:20Z</time>
      </trkpt>
      <trkpt lat="45.92755" lon="4.74173">
        <ele>172</ele>
        <time>2018-01-31T09:35:21Z</time>
      </trkpt>
      <trkpt lat="45.9275" lon="4.74178">
        <ele>172</ele>
        <time>2018-01-31T09:35:22Z</time>
      </trkpt>
      <trkpt lat="45.92745" lon="4.74181">
        <ele>172</ele>
        <time>2018-01-31T09:35:23Z</time>
      </trkpt>
      <trkpt lat="45.92741" lon="4.74187">
        <ele>172</ele>
        <time>2018-01-31T09:35:24Z</time>
      </trkpt>
      <trkpt lat="45.92737" lon="4.74191">
        <ele>171</ele>
        <time>2018-01-31T09:35:25Z</time>
      </trkpt>
      <trkpt lat="45.92734" lon="4.74197">
        <ele>171</ele>
        <time>2018-01-31T09:35:26Z</time>
      </trkpt>
      <trkpt lat="45.92731" lon="4.74201">
        <ele>171</ele>
        <time>2018-01-31T09:35:27Z</time>
      </trkpt>
      <trkpt lat="45.92727" lon="4.74206">
        <ele>171</ele>
        <time>2018-01-31T09:35:28Z</time>
      </trkpt>
      <trkpt lat="45.92724" lon="4.74211">
        <ele>171</ele>
        <time>2018-01-31T09:35:29Z</time>
      </trkpt>
      <trkpt lat="45.9272" lon="4.74216">
        <ele>171</ele>
        <time>2018-01-31T09:35:30Z</time>
      </trkpt>
      <trkpt lat="45.92718" lon="4.74222">
        <ele>171</ele>
        <time>2018-01-31T09:35:31Z</time>
      </trkpt>
      <trkpt lat="45.92714" lon="4.74227">
        <ele>171</ele>
        <time>2018-01-31T09:35:32Z</time>
      </trkpt>
      <trkpt lat="45.92711" lon="4.74232">
        <ele>171</ele>
        <time>2018-01-31T09:35:33Z</time>
      </trkpt>
      <trkpt lat="45.92708" lon="4.74238">
        <ele>171</ele>
        <time>2018-01-31T09:35:34Z</time>
      </trkpt>
      <trkpt lat="45.92703" lon="4.74243">
        <ele>171</ele>
        <time>2018-01-31T09:35:35Z</time>
      </trkpt>
      <trkpt lat="45.927" lon="4.74248">
        <ele>171</ele>
        <time>2018-01-31T09:35:36Z</time>
      </trkpt>
      <trkpt lat="45.92696" lon="4.74255">
        <ele>171</ele>
        <time>2018-01-31T09:35:37Z</time>
      </trkpt>
      <trkpt lat="45.92694" lon="4.74261">
        <ele>171</ele>
        <time>2018-01-31T09:35:38Z</time>
      </trkpt>
      <trkpt lat="45.9269" lon="4.74267">
        <ele>171</ele>
        <time>2018-01-31T09:35:39Z</time>
      </trkpt>
      <trkpt lat="45.92687" lon="4.74273">
        <ele>171</ele>
        <time>2018-01-31T09:35:40Z</time>
      </trkpt>
      <trkpt lat="45.92683" lon="4.74278">
        <ele>171</ele>
        <time>2018-01-31T09:35:41Z</time>
      </trkpt>
      <trkpt lat="45.92679" lon="4.74283">
        <ele>171</ele>
        <time>2018-01-31T09:35:42Z</time>
      </trkpt>
      <trkpt lat="45.92676" lon="4.74291">
        <ele>171</ele>
        <time>2018-01-31T09:35:43Z</time>
      </trkpt>
      <trkpt lat="45.92673" lon="4.74297">
        <ele>171</ele>
        <time>2018-01-31T09:35:44Z</time>
      </trkpt>
      <trkpt lat="45.9267" lon="4.74303">
        <ele>171</ele>
        <time>2018-01-31T09:35:45Z</time>
      </trkpt>
      <trkpt lat="45.92666" lon="4.74309">
        <ele>171</ele>
        <time>2018-01-31T09:35:46Z</time>
      </trkpt>
      <trkpt lat="45.92663" lon="4.74315">
        <ele>171</ele>
        <time>2018-01-31T09:35:47Z</time>
      </trkpt>
      <trkpt lat="45.9266" lon="4.74321">
        <ele>171</ele>
        <time>2018-01-31T09:35:48Z</time>
      </trkpt>
      <trkpt lat="45.92657" lon="4.74327">
        <ele>171</ele>
        <time>2018-01-31T09:35:49Z</time>
      </trkpt>
      <trkpt lat="45.92654" lon="4.74335">
        <ele>171</ele>
        <time>2018-01-31T09:35:50Z</time>
      </trkpt>
      <trkpt lat="45.92651" lon="4.74341">
        <ele>171</ele>
        <time>2018-01-31T09:35:51Z</time>
      </trkpt>
      <trkpt lat="45.92648" lon="4.74347">
        <ele>171</ele>
        <time>2018-01-31T09:35:52Z</time>
      </trkpt>
      <trkpt lat="45.92644" lon="4.74353">
        <ele>171</ele>
        <time>2018-01-31T09:35:53Z</time>
      </trkpt>
      <trkpt lat="45.92641" lon="4.7436">
        <ele>171</ele>
        <time>2018-01-31T09:35:54Z</time>
      </trkpt>
      <trkpt lat="45.92637" lon="4.74366">
        <ele>171</ele>
        <time>2018-01-31T09:35:55Z</time>
      </trkpt>
      <trkpt lat="45.92633" lon="4.74372">
        <ele>171</ele>
        <time>2018-01-31T09:35:56Z</time>
      </trkpt>
      <trkpt lat="45.9263" lon="4.74378">
        <ele>170</ele>
        <time>2018-01-31T09:35:57Z</time>
      </trkpt>
      <trkpt lat="45.92626" lon="4.74384">
        <ele>170</ele>
        <time>2018-01-31T09:35:58Z</time>
      </trkpt>
      <trkpt lat="45.92623" lon="4.74392">
        <ele>170</ele>
        <time>2018-01-31T09:35:59Z</time>
      </trkpt>
      <trkpt lat="45.92619" lon="4.74399">
        <ele>170</ele>
        <time>2018-01-31T09:36:00Z</time>
      </trkpt>
      <trkpt lat="45.92615" lon="4.74406">
        <ele>170</ele>
        <time>2018-01-31T09:36:01Z</time>
      </trkpt>
      <trkpt lat="45.92612" lon="4.74413">
        <ele>170</ele>
        <time>2018-01-31T09:36:02Z</time>
      </trkpt>
      <trkpt lat="45.92608" lon="4.74419">
        <ele>170</ele>
        <time>2018-01-31T09:36:03Z</time>
      </trkpt>
      <trkpt lat="45.92605" lon="4.74425">
        <ele>170</ele>
        <time>2018-01-31T09:36:04Z</time>
      </trkpt>
      <trkpt lat="45.92601" lon="4.74431">
        <ele>170</ele>
        <time>2018-01-31T09:36:05Z</time>
      </trkpt>
      <trkpt lat="45.92597" lon="4.74438">
        <ele>170</ele>
        <time>2018-01-31T09:36:06Z</time>
      </trkpt>
      <trkpt lat="45.92595" lon="4.74445">
        <ele>170</ele>
        <time>2018-01-31T09:36:07Z</time>
      </trkpt>
      <trkpt lat="45.92591" lon="4.74451">
        <ele>170</ele>
        <time>2018-01-31T09:36:08Z</time>
      </trkpt>
      <trkpt lat="45.92587" lon="4.74458">
        <ele>170</ele>
        <time>2018-01-31T09:36:09Z</time>
      </trkpt>
      <trkpt lat="45.92584" lon="4.74464">
        <ele>170</ele>
        <time>2018-01-31T09:36:10Z</time>
      </trkpt>
      <trkpt lat="45.92581" lon="4.7447">
        <ele>170</ele>
        <time>2018-01-31T09:36:11Z</time>
      </trkpt>
      <trkpt lat="45.92577" lon="4.74476">
        <ele>170</ele>
        <time>2018-01-31T09:36:12Z</time>
      </trkpt>
      <trkpt lat="45.92572" lon="4.74482">
        <ele>170</ele>
        <time>2018-01-31T09:36:13Z</time>
      </trkpt>
      <trkpt lat="45.92568" lon="4.74489">
        <ele>170</ele>
        <time>2018-01-31T09:36:14Z</time>
      </trkpt>
      <trkpt lat="45.92564" lon="4.74495">
        <ele>170</ele>
        <time>2018-01-31T09:36:15Z</time>
      </trkpt>
      <trkpt lat="45.92561" lon="4.74502">
        <ele>170</ele>
        <time>2018-01-31T09:36:16Z</time>
      </trkpt>
      <trkpt lat="45.92558" lon="4.74508">
        <ele>170</ele>
        <time>2018-01-31T09:36:17Z</time>
      </trkpt>
      <trkpt lat="45.92554" lon="4.74515">
        <ele>170</ele>
        <time>2018-01-31T09:36:18Z</time>
      </trkpt>
      <trkpt lat="45.92551" lon="4.74521">
        <ele>170</ele>
        <time>2018-01-31T09:36:19Z</time>
      </trkpt>
      <trkpt lat="45.92547" lon="4.74529">
        <ele>170</ele>
        <time>2018-01-31T09:36:20Z</time>
      </trkpt>
      <trkpt lat="45.92543" lon="4.74535">
        <ele>170</ele>
        <time>2018-01-31T09:36:21Z</time>
      </trkpt>
      <trkpt lat="45.9254" lon="4.74541">
        <ele>171</ele>
        <time>2018-01-31T09:36:22Z</time>
      </trkpt>
      <trkpt lat="45.92536" lon="4.74548">
        <ele>171</ele>
        <time>2018-01-31T09:36:23Z</time>
      </trkpt>
      <trkpt lat="45.92533" lon="4.74554">
        <ele>171</ele>
        <time>2018-01-31T09:36:24Z</time>
      </trkpt>
      <trkpt lat="45.92529" lon="4.74561">
        <ele>171</ele>
        <time>2018-01-31T09:36:25Z</time>
      </trkpt>
      <trkpt lat="45.92524" lon="4.74566">
        <ele>171</ele>
        <time>2018-01-31T09:36:26Z</time>
      </trkpt>
      <trkpt lat="45.92519" lon="4.74571">
        <ele>171</ele>
        <time>2018-01-31T09:36:27Z</time>
      </trkpt>
      <trkpt lat="45.92515" lon="4.74577">
        <ele>171</ele>
        <time>2018-01-31T09:36:28Z</time>
      </trkpt>
      <trkpt lat="45.92511" lon="4.74582">
        <ele>171</ele>
        <time>2018-01-31T09:36:29Z</time>
      </trkpt>
      <trkpt lat="45.92507" lon="4.74587">
        <ele>171</ele>
        <time>2018-01-31T09:36:30Z</time>
      </trkpt>
      <trkpt lat="45.92503" lon="4.74592">
        <ele>171</ele>
        <time>2018-01-31T09:36:31Z</time>
      </trkpt>
      <trkpt lat="45.92499" lon="4.74597">
        <ele>171</ele>
        <time>2018-01-31T09:36:32Z</time>
      </trkpt>
      <trkpt lat="45.92495" lon="4.74601">
        <ele>171</ele>
        <time>2018-01-31T09:36:33Z</time>
      </trkpt>
      <trkpt lat="45.92491" lon="4.74606">
        <ele>171</ele>
        <time>2018-01-31T09:36:34Z</time>
      </trkpt>
      <trkpt lat="45.92487" lon="4.74612">
        <ele>171</ele>
        <time>2018-01-31T09:36:35Z</time>
      </trkpt>
      <trkpt lat="45.92482" lon="4.74618">
        <ele>171</ele>
        <time>2018-01-31T09:36:36Z</time>
      </trkpt>
      <trkpt lat="45.92478" lon="4.74623">
        <ele>171</ele>
        <time>2018-01-31T09:36:37Z</time>
      </trkpt>
      <trkpt lat="45.92474" lon="4.74629">
        <ele>171</ele>
        <time>2018-01-31T09:36:38Z</time>
      </trkpt>
      <trkpt lat="45.9247" lon="4.74635">
        <ele>171</ele>
        <time>2018-01-31T09:36:39Z</time>
      </trkpt>
      <trkpt lat="45.92466" lon="4.7464">
        <ele>171</ele>
        <time>2018-01-31T09:36:40Z</time>
      </trkpt>
      <trkpt lat="45.92462" lon="4.74646">
        <ele>171</ele>
        <time>2018-01-31T09:36:41Z</time>
      </trkpt>
      <trkpt lat="45.92458" lon="4.74652">
        <ele>171</ele>
        <time>2018-01-31T09:36:42Z</time>
      </trkpt>
      <trkpt lat="45.92455" lon="4.74658">
        <ele>171</ele>
        <time>2018-01-31T09:36:43Z</time>
      </trkpt>
      <trkpt lat="45.92452" lon="4.74667">
        <ele>171</ele>
        <time>2018-01-31T09:36:44Z</time>
      </trkpt>
      <trkpt lat="45.92449" lon="4.74672">
        <ele>171</ele>
        <time>2018-01-31T09:36:45Z</time>
      </trkpt>
      <trkpt lat="45.92445" lon="4.74676">
        <ele>171</ele>
        <time>2018-01-31T09:36:46Z</time>
      </trkpt>
      <trkpt lat="45.92441" lon="4.74682">
        <ele>171</ele>
        <time>2018-01-31T09:36:47Z</time>
      </trkpt>
      <trkpt lat="45.92439" lon="4.7469">
        <ele>171</ele>
        <time>2018-01-31T09:36:48Z</time>
      </trkpt>
      <trkpt lat="45.92435" lon="4.74697">
        <ele>171</ele>
        <time>2018-01-31T09:36:49Z</time>
      </trkpt>
      <trkpt lat="45.92432" lon="4.74704">
        <ele>171</ele>
        <time>2018-01-31T09:36:50Z</time>
      </trkpt>
      <trkpt lat="45.92428" lon="4.74711">
        <ele>171</ele>
        <time>2018-01-31T09:36:51Z</time>
      </trkpt>
      <trkpt lat="45.92425" lon="4.74718">
        <ele>171</ele>
        <time>2018-01-31T09:36:52Z</time>
      </trkpt>
      <trkpt lat="45.92423" lon="4.74726">
        <ele>171</ele>
        <time>2018-01-31T09:36:53Z</time>
      </trkpt>
      <trkpt lat="45.9242" lon="4.74733">
        <ele>171</ele>
        <time>2018-01-31T09:36:54Z</time>
      </trkpt>
      <trkpt lat="45.92417" lon="4.74741">
        <ele>172</ele>
        <time>2018-01-31T09:36:55Z</time>
      </trkpt>
      <trkpt lat="45.92415" lon="4.74749">
        <ele>172</ele>
        <time>2018-01-31T09:36:56Z</time>
      </trkpt>
      <trkpt lat="45.92412" lon="4.74757">
        <ele>172</ele>
        <time>2018-01-31T09:36:57Z</time>
      </trkpt>
      <trkpt lat="45.92411" lon="4.74766">
        <ele>172</ele>
        <time>2018-01-31T09:36:58Z</time>
      </trkpt>
      <trkpt lat="45.92409" lon="4.74775">
        <ele>171</ele>
        <time>2018-01-31T09:36:59Z</time>
      </trkpt>
      <trkpt lat="45.92407" lon="4.74784">
        <ele>171</ele>
        <time>2018-01-31T09:37:00Z</time>
      </trkpt>
      <trkpt lat="45.92405" lon="4.74793">
        <ele>171</ele>
        <time>2018-01-31T09:37:01Z</time>
      </trkpt>
      <trkpt lat="45.92403" lon="4.74802">
        <ele>171</ele>
        <time>2018-01-31T09:37:02Z</time>
      </trkpt>
      <trkpt lat="45.92402" lon="4.74811">
        <ele>171</ele>
        <time>2018-01-31T09:37:03Z</time>
      </trkpt>
      <trkpt lat="45.924" lon="4.74822">
        <ele>171</ele>
        <time>2018-01-31T09:37:04Z</time>
      </trkpt>
      <trkpt lat="45.92398" lon="4.74831">
        <ele>171</ele>
        <time>2018-01-31T09:37:05Z</time>
      </trkpt>
      <trkpt lat="45.92396" lon="4.7484">
        <ele>171</ele>
        <time>2018-01-31T09:37:06Z</time>
      </trkpt>
      <trkpt lat="45.92393" lon="4.74849">
        <ele>171</ele>
        <time>2018-01-31T09:37:07Z</time>
      </trkpt>
      <trkpt lat="45.9239" lon="4.74858">
        <ele>171</ele>
        <time>2018-01-31T09:37:08Z</time>
      </trkpt>
      <trkpt lat="45.92387" lon="4.74866">
        <ele>171</ele>
        <time>2018-01-31T09:37:09Z</time>
      </trkpt>
      <trkpt lat="45.92385" lon="4.74874">
        <ele>171</ele>
        <time>2018-01-31T09:37:10Z</time>
      </trkpt>
      <trkpt lat="45.92381" lon="4.74882">
        <ele>171</ele>
        <time>2018-01-31T09:37:11Z</time>
      </trkpt>
      <trkpt lat="45.92378" lon="4.7489">
        <ele>171</ele>
        <time>2018-01-31T09:37:12Z</time>
      </trkpt>
      <trkpt lat="45.92375" lon="4.74899">
        <ele>171</ele>
        <time>2018-01-31T09:37:13Z</time>
      </trkpt>
      <trkpt lat="45.92372" lon="4.74907">
        <ele>171</ele>
        <time>2018-01-31T09:37:14Z</time>
      </trkpt>
      <trkpt lat="45.92369" lon="4.74915">
        <ele>171</ele>
        <time>2018-01-31T09:37:15Z</time>
      </trkpt>
      <trkpt lat="45.92367" lon="4.74922">
        <ele>170</ele>
        <time>2018-01-31T09:37:16Z</time>
      </trkpt>
      <trkpt lat="45.92363" lon="4.7493">
        <ele>170</ele>
        <time>2018-01-31T09:37:17Z</time>
      </trkpt>
      <trkpt lat="45.9236" lon="4.74939">
        <ele>170</ele>
        <time>2018-01-31T09:37:18Z</time>
      </trkpt>
      <trkpt lat="45.92358" lon="4.74947">
        <ele>170</ele>
        <time>2018-01-31T09:37:19Z</time>
      </trkpt>
      <trkpt lat="45.92355" lon="4.74954">
        <ele>170</ele>
        <time>2018-01-31T09:37:20Z</time>
      </trkpt>
      <trkpt lat="45.92352" lon="4.74962">
        <ele>170</ele>
        <time>2018-01-31T09:37:21Z</time>
      </trkpt>
      <trkpt lat="45.92349" lon="4.7497">
        <ele>170</ele>
        <time>2018-01-31T09:37:22Z</time>
      </trkpt>
      <trkpt lat="45.92346" lon="4.74977">
        <ele>170</ele>
        <time>2018-01-31T09:37:23Z</time>
      </trkpt>
      <trkpt lat="45.92344" lon="4.74984">
        <ele>170</ele>
        <time>2018-01-31T09:37:24Z</time>
      </trkpt>
      <trkpt lat="45.9234" lon="4.74991">
        <ele>170</ele>
        <time>2018-01-31T09:37:25Z</time>
      </trkpt>
      <trkpt lat="45.92338" lon="4.74999">
        <ele>170</ele>
        <time>2018-01-31T09:37:26Z</time>
      </trkpt>
      <trkpt lat="45.92335" lon="4.75007">
        <ele>170</ele>
        <time>2018-01-31T09:37:27Z</time>
      </trkpt>
      <trkpt lat="45.92332" lon="4.75014">
        <ele>171</ele>
        <time>2018-01-31T09:37:28Z</time>
      </trkpt>
      <trkpt lat="45.92329" lon="4.75021">
        <ele>171</ele>
        <time>2018-01-31T09:37:29Z</time>
      </trkpt>
      <trkpt lat="45.92325" lon="4.75027">
        <ele>171</ele>
        <time>2018-01-31T09:37:30Z</time>
      </trkpt>
      <trkpt lat="45.92321" lon="4.75034">
        <ele>171</ele>
        <time>2018-01-31T09:37:31Z</time>
      </trkpt>
      <trkpt lat="45.92317" lon="4.75041">
        <ele>172</ele>
        <time>2018-01-31T09:37:32Z</time>
      </trkpt>
      <trkpt lat="45.92314" lon="4.75047">
        <ele>172</ele>
        <time>2018-01-31T09:37:33Z</time>
      </trkpt>
      <trkpt lat="45.9231" lon="4.75052">
        <ele>172</ele>
        <time>2018-01-31T09:37:34Z</time>
      </trkpt>
      <trkpt lat="45.92306" lon="4.75058">
        <ele>172</ele>
        <time>2018-01-31T09:37:35Z</time>
      </trkpt>
      <trkpt lat="45.92302" lon="4.75064">
        <ele>172</ele>
        <time>2018-01-31T09:37:36Z</time>
      </trkpt>
      <trkpt lat="45.92298" lon="4.7507">
        <ele>172</ele>
        <time>2018-01-31T09:37:37Z</time>
      </trkpt>
      <trkpt lat="45.92294" lon="4.75075">
        <ele>172</ele>
        <time>2018-01-31T09:37:38Z</time>
      </trkpt>
      <trkpt lat="45.92289" lon="4.75081">
        <ele>172</ele>
        <time>2018-01-31T09:37:39Z</time>
      </trkpt>
      <trkpt lat="45.92285" lon="4.75085">
        <ele>173</ele>
        <time>2018-01-31T09:37:40Z</time>
      </trkpt>
      <trkpt lat="45.92281" lon="4.75089">
        <ele>173</ele>
        <time>2018-01-31T09:37:41Z</time>
      </trkpt>
      <trkpt lat="45.92277" lon="4.75094">
        <ele>173</ele>
        <time>2018-01-31T09:37:42Z</time>
      </trkpt>
      <trkpt lat="45.92273" lon="4.75099">
        <ele>173</ele>
        <time>2018-01-31T09:37:43Z</time>
      </trkpt>
      <trkpt lat="45.92268" lon="4.75103">
        <ele>173</ele>
        <time>2018-01-31T09:37:44Z</time>
      </trkpt>
      <trkpt lat="45.92264" lon="4.75109">
        <ele>174</ele>
        <time>2018-01-31T09:37:45Z</time>
      </trkpt>
      <trkpt lat="45.92259" lon="4.75113">
        <ele>174</ele>
        <time>2018-01-31T09:37:46Z</time>
      </trkpt>
      <trkpt lat="45.92255" lon="4.75118">
        <ele>174</ele>
        <time>2018-01-31T09:37:47Z</time>
      </trkpt>
      <trkpt lat="45.92251" lon="4.75124">
        <ele>174</ele>
        <time>2018-01-31T09:37:48Z</time>
      </trkpt>
      <trkpt lat="45.92246" lon="4.75129">
        <ele>174</ele>
        <time>2018-01-31T09:37:49Z</time>
      </trkpt>
      <trkpt lat="45.92242" lon="4.75134">
        <ele>174</ele>
        <time>2018-01-31T09:37:50Z</time>
      </trkpt>
      <trkpt lat="45.92239" lon="4.7514">
        <ele>174</ele>
        <time>2018-01-31T09:37:51Z</time>
      </trkpt>
      <trkpt lat="45.92235" lon="4.75145">
        <ele>174</ele>
        <time>2018-01-31T09:37:52Z</time>
      </trkpt>
      <trkpt lat="45.92232" lon="4.75151">
        <ele>174</ele>
        <time>2018-01-31T09:37:53Z</time>
      </trkpt>
      <trkpt lat="45.92229" lon="4.75157">
        <ele>174</ele>
        <time>2018-01-31T09:37:54Z</time>
      </trkpt>
      <trkpt lat="45.92226" lon="4.75163">
        <ele>174</ele>
        <time>2018-01-31T09:37:55Z</time>
      </trkpt>
      <trkpt lat="45.92223" lon="4.75169">
        <ele>175</ele>
        <time>2018-01-31T09:37:56Z</time>
      </trkpt>
      <trkpt lat="45.92221" lon="4.75176">
        <ele>175</ele>
        <time>2018-01-31T09:37:57Z</time>
      </trkpt>
      <trkpt lat="45.92218" lon="4.75182">
        <ele>175</ele>
        <time>2018-01-31T09:37:58Z</time>
      </trkpt>
      <trkpt lat="45.92217" lon="4.75189">
        <ele>175</ele>
        <time>2018-01-31T09:37:59Z</time>
      </trkpt>
      <trkpt lat="45.92215" lon="4.75196">
        <ele>175</ele>
        <time>2018-01-31T09:38:00Z</time>
      </trkpt>
      <trkpt lat="45.92213" lon="4.75203">
        <ele>175</ele>
        <time>2018-01-31T09:38:01Z</time>
      </trkpt>
      <trkpt lat="45.92211" lon="4.75209">
        <ele>175</ele>
        <time>2018-01-31T09:38:02Z</time>
      </trkpt>
      <trkpt lat="45.9221" lon="4.75215">
        <ele>175</ele>
        <time>2018-01-31T09:38:03Z</time>
      </trkpt>
      <trkpt lat="45.9221" lon="4.75223">
        <ele>175</ele>
        <time>2018-01-31T09:38:04Z</time>
      </trkpt>
      <trkpt lat="45.9221" lon="4.7523">
        <ele>175</ele>
        <time>2018-01-31T09:38:05Z</time>
      </trkpt>
      <trkpt lat="45.92209" lon="4.75237">
        <ele>175</ele>
        <time>2018-01-31T09:38:06Z</time>
      </trkpt>
      <trkpt lat="45.92209" lon="4.75245">
        <ele>175</ele>
        <time>2018-01-31T09:38:07Z</time>
      </trkpt>
      <trkpt lat="45.92209" lon="4.75252">
        <ele>175</ele>
        <time>2018-01-31T09:38:08Z</time>
      </trkpt>
      <trkpt lat="45.9221" lon="4.75259">
        <ele>176</ele>
        <time>2018-01-31T09:38:09Z</time>
      </trkpt>
      <trkpt lat="45.9221" lon="4.75266">
        <ele>176</ele>
        <time>2018-01-31T09:38:10Z</time>
      </trkpt>
      <trkpt lat="45.92209" lon="4.75273">
        <ele>176</ele>
        <time>2018-01-31T09:38:11Z</time>
      </trkpt>
      <trkpt lat="45.9221" lon="4.75282">
        <ele>176</ele>
        <time>2018-01-31T09:38:12Z</time>
      </trkpt>
      <trkpt lat="45.9221" lon="4.7529">
        <ele>176</ele>
        <time>2018-01-31T09:38:13Z</time>
      </trkpt>
      <trkpt lat="45.9221" lon="4.75298">
        <ele>176</ele>
        <time>2018-01-31T09:38:14Z</time>
      </trkpt>
      <trkpt lat="45.9221" lon="4.75305">
        <ele>176</ele>
        <time>2018-01-31T09:38:15Z</time>
      </trkpt>
      <trkpt lat="45.92209" lon="4.75312">
        <ele>176</ele>
        <time>2018-01-31T09:38:16Z</time>
      </trkpt>
      <trkpt lat="45.92208" lon="4.7532">
        <ele>176</ele>
        <time>2018-01-31T09:38:17Z</time>
      </trkpt>
      <trkpt lat="45.92208" lon="4.75326">
        <ele>176</ele>
        <time>2018-01-31T09:38:18Z</time>
      </trkpt>
      <trkpt lat="45.92206" lon="4.75333">
        <ele>176</ele>
        <time>2018-01-31T09:38:19Z</time>
      </trkpt>
      <trkpt lat="45.92204" lon="4.7534">
        <ele>177</ele>
        <time>2018-01-31T09:38:20Z</time>
      </trkpt>
      <trkpt lat="45.92203" lon="4.75346">
        <ele>177</ele>
        <time>2018-01-31T09:38:21Z</time>
      </trkpt>
      <trkpt lat="45.92202" lon="4.75354">
        <ele>177</ele>
        <time>2018-01-31T09:38:22Z</time>
      </trkpt>
      <trkpt lat="45.92201" lon="4.75361">
        <ele>177</ele>
        <time>2018-01-31T09:38:23Z</time>
      </trkpt>
      <trkpt lat="45.92198" lon="4.75366">
        <ele>177</ele>
        <time>2018-01-31T09:38:24Z</time>
      </trkpt>
      <trkpt lat="45.92195" lon="4.75372">
        <ele>177</ele>
        <time>2018-01-31T09:38:25Z</time>
      </trkpt>
      <trkpt lat="45.92193" lon="4.75378">
        <ele>177</ele>
        <time>2018-01-31T09:38:26Z</time>
      </trkpt>
      <trkpt lat="45.92191" lon="4.75386">
        <ele>177</ele>
        <time>2018-01-31T09:38:27Z</time>
      </trkpt>
      <trkpt lat="45.92188" lon="4.75393">
        <ele>177</ele>
        <time>2018-01-31T09:38:28Z</time>
      </trkpt>
      <trkpt lat="45.92185" lon="4.754">
        <ele>177</ele>
        <time>2018-01-31T09:38:29Z</time>
      </trkpt>
      <trkpt lat="45.92182" lon="4.75407">
        <ele>177</ele>
        <time>2018-01-31T09:38:30Z</time>
      </trkpt>
      <trkpt lat="45.92179" lon="4.75414">
        <ele>177</ele>
        <time>2018-01-31T09:38:31Z</time>
      </trkpt>
      <trkpt lat="45.92176" lon="4.75421">
        <ele>177</ele>
        <time>2018-01-31T09:38:32Z</time>
      </trkpt>
      <trkpt lat="45.92173" lon="4.75428">
        <ele>177</ele>
        <time>2018-01-31T09:38:33Z</time>
      </trkpt>
      <trkpt lat="45.92171" lon="4.75436">
        <ele>177</ele>
        <time>2018-01-31T09:38:34Z</time>
      </trkpt>
      <trkpt lat="45.92168" lon="4.75443">
        <ele>176</ele>
        <time>2018-01-31T09:38:35Z</time>
      </trkpt>
      <trkpt lat="45.92166" lon="4.75451">
        <ele>176</ele>
        <time>2018-01-31T09:38:36Z</time>
      </trkpt>
      <trkpt lat="45.92163" lon="4.75459">
        <ele>176</ele>
        <time>2018-01-31T09:38:37Z</time>
      </trkpt>
      <trkpt lat="45.92159" lon="4.75466">
        <ele>176</ele>
        <time>2018-01-31T09:38:38Z</time>
      </trkpt>
      <trkpt lat="45.92156" lon="4.75473">
        <ele>176</ele>
        <time>2018-01-31T09:38:39Z</time>
      </trkpt>
      <trkpt lat="45.92153" lon="4.75481">
        <ele>176</ele>
        <time>2018-01-31T09:38:40Z</time>
      </trkpt>
      <trkpt lat="45.92149" lon="4.75488">
        <ele>176</ele>
        <time>2018-01-31T09:38:41Z</time>
      </trkpt>
      <trkpt lat="45.92147" lon="4.75496">
        <ele>175</ele>
        <time>2018-01-31T09:38:42Z</time>
      </trkpt>
      <trkpt lat="45.92144" lon="4.75503">
        <ele>175</ele>
        <time>2018-01-31T09:38:43Z</time>
      </trkpt>
      <trkpt lat="45.9214" lon="4.75511">
        <ele>174</ele>
        <time>2018-01-31T09:38:44Z</time>
      </trkpt>
      <trkpt lat="45.92136" lon="4.75516">
        <ele>174</ele>
        <time>2018-01-31T09:38:45Z</time>
      </trkpt>
      <trkpt lat="45.92133" lon="4.75523">
        <ele>174</ele>
        <time>2018-01-31T09:38:46Z</time>
      </trkpt>
      <trkpt lat="45.92129" lon="4.75529">
        <ele>174</ele>
        <time>2018-01-31T09:38:47Z</time>
      </trkpt>
      <trkpt lat="45.92126" lon="4.75536">
        <ele>174</ele>
        <time>2018-01-31T09:38:48Z</time>
      </trkpt>
      <trkpt lat="45.92123" lon="4.75543">
        <ele>174</ele>
        <time>2018-01-31T09:38:49Z</time>
      </trkpt>
      <trkpt lat="45.9212" lon="4.75549">
        <ele>174</ele>
        <time>2018-01-31T09:38:50Z</time>
      </trkpt>
      <trkpt lat="45.92117" lon="4.75554">
        <ele>174</ele>
        <time>2018-01-31T09:38:51Z</time>
      </trkpt>
      <trkpt lat="45.92114" lon="4.7556">
        <ele>174</ele>
        <time>2018-01-31T09:38:52Z</time>
      </trkpt>
      <trkpt lat="45.92111" lon="4.75565">
        <ele>174</ele>
        <time>2018-01-31T09:38:53Z</time>
      </trkpt>
      <trkpt lat="45.92108" lon="4.75571">
        <ele>174</ele>
        <time>2018-01-31T09:38:54Z</time>
      </trkpt>
      <trkpt lat="45.92108" lon="4.75579">
        <ele>174</ele>
        <time>2018-01-31T09:38:55Z</time>
      </trkpt>
      <trkpt lat="45.9211" lon="4.75586">
        <ele>174</ele>
        <time>2018-01-31T09:38:56Z</time>
      </trkpt>
      <trkpt lat="45.92113" lon="4.75592">
        <ele>174</ele>
        <time>2018-01-31T09:38:57Z</time>
      </trkpt>
      <trkpt lat="45.92118" lon="4.75598">
        <ele>174</ele>
        <time>2018-01-31T09:38:58Z</time>
      </trkpt>
      <trkpt lat="45.92122" lon="4.75602">
        <ele>174</ele>
        <time>2018-01-31T09:38:59Z</time>
      </trkpt>
      <trkpt lat="45.92127" lon="4.75606">
        <ele>174</ele>
        <time>2018-01-31T09:39:00Z</time>
      </trkpt>
      <trkpt lat="45.92132" lon="4.75612">
        <ele>174</ele>
        <time>2018-01-31T09:39:01Z</time>
      </trkpt>
      <trkpt lat="45.92137" lon="4.75617">
        <ele>174</ele>
        <time>2018-01-31T09:39:02Z</time>
      </trkpt>
      <trkpt lat="45.92142" lon="4.75622">
        <ele>174</ele>
        <time>2018-01-31T09:39:03Z</time>
      </trkpt>
      <trkpt lat="45.92146" lon="4.75626">
        <ele>174</ele>
        <time>2018-01-31T09:39:04Z</time>
      </trkpt>
      <trkpt lat="45.92151" lon="4.75631">
        <ele>174</ele>
        <time>2018-01-31T09:39:05Z</time>
      </trkpt>
      <trkpt lat="45.92155" lon="4.75635">
        <ele>174</ele>
        <time>2018-01-31T09:39:06Z</time>
      </trkpt>
      <trkpt lat="45.9216" lon="4.75638">
        <ele>174</ele>
        <time>2018-01-31T09:39:07Z</time>
      </trkpt>
      <trkpt lat="45.92164" lon="4.75643">
        <ele>174</ele>
        <time>2018-01-31T09:39:08Z</time>
      </trkpt>
      <trkpt lat="45.92169" lon="4.75649">
        <ele>174</ele>
        <time>2018-01-31T09:39:09Z</time>
      </trkpt>
      <trkpt lat="45.92174" lon="4.75655">
        <ele>174</ele>
        <time>2018-01-31T09:39:10Z</time>
      </trkpt>
      <trkpt lat="45.92179" lon="4.75659">
        <ele>174</ele>
        <time>2018-01-31T09:39:11Z</time>
      </trkpt>
      <trkpt lat="45.92183" lon="4.75664">
        <ele>174</ele>
        <time>2018-01-31T09:39:12Z</time>
      </trkpt>
      <trkpt lat="45.92188" lon="4.75668">
        <ele>174</ele>
        <time>2018-01-31T09:39:13Z</time>
      </trkpt>
      <trkpt lat="45.92192" lon="4.75672">
        <ele>174</ele>
        <time>2018-01-31T09:39:14Z</time>
      </trkpt>
      <trkpt lat="45.92197" lon="4.75676">
        <ele>174</ele>
        <time>2018-01-31T09:39:15Z</time>
      </trkpt>
      <trkpt lat="45.92202" lon="4.75681">
        <ele>174</ele>
        <time>2018-01-31T09:39:16Z</time>
      </trkpt>
      <trkpt lat="45.92206" lon="4.75685">
        <ele>174</ele>
        <time>2018-01-31T09:39:17Z</time>
      </trkpt>
      <trkpt lat="45.92212" lon="4.75689">
        <ele>174</ele>
        <time>2018-01-31T09:39:18Z</time>
      </trkpt>
      <trkpt lat="45.92216" lon="4.75694">
        <ele>174</ele>
        <time>2018-01-31T09:39:19Z</time>
      </trkpt>
      <trkpt lat="45.9222" lon="4.75699">
        <ele>174</ele>
        <time>2018-01-31T09:39:20Z</time>
      </trkpt>
      <trkpt lat="45.92224" lon="4.75703">
        <ele>174</ele>
        <time>2018-01-31T09:39:21Z</time>
      </trkpt>
      <trkpt lat="45.92228" lon="4.75709">
        <ele>174</ele>
        <time>2018-01-31T09:39:22Z</time>
      </trkpt>
      <trkpt lat="45.92231" lon="4.75715">
        <ele>174</ele>
        <time>2018-01-31T09:39:23Z</time>
      </trkpt>
      <trkpt lat="45.92236" lon="4.7572">
        <ele>174</ele>
        <time>2018-01-31T09:39:24Z</time>
      </trkpt>
      <trkpt lat="45.92239" lon="4.75727">
        <ele>174</ele>
        <time>2018-01-31T09:39:25Z</time>
      </trkpt>
      <trkpt lat="45.92242" lon="4.75734">
        <ele>174</ele>
        <time>2018-01-31T09:39:26Z</time>
      </trkpt>
      <trkpt lat="45.92244" lon="4.7574">
        <ele>174</ele>
        <time>2018-01-31T09:39:27Z</time>
      </trkpt>
      <trkpt lat="45.92246" lon="4.75747">
        <ele>174</ele>
        <time>2018-01-31T09:39:28Z</time>
      </trkpt>
      <trkpt lat="45.92248" lon="4.75754">
        <ele>174</ele>
        <time>2018-01-31T09:39:29Z</time>
      </trkpt>
      <trkpt lat="45.92249" lon="4.75762">
        <ele>174</ele>
        <time>2018-01-31T09:39:30Z</time>
      </trkpt>
      <trkpt lat="45.9225" lon="4.75769">
        <ele>174</ele>
        <time>2018-01-31T09:39:31Z</time>
      </trkpt>
      <trkpt lat="45.92252" lon="4.75781">
        <ele>174</ele>
        <time>2018-01-31T09:39:33Z</time>
      </trkpt>
      <trkpt lat="45.92254" lon="4.75787">
        <ele>174</ele>
        <time>2018-01-31T09:39:34Z</time>
      </trkpt>
      <trkpt lat="45.92255" lon="4.75794">
        <ele>174</ele>
        <time>2018-01-31T09:39:35Z</time>
      </trkpt>
      <trkpt lat="45.92257" lon="4.75802">
        <ele>174</ele>
        <time>2018-01-31T09:39:36Z</time>
      </trkpt>
      <trkpt lat="45.92259" lon="4.75808">
        <ele>174</ele>
        <time>2018-01-31T09:39:37Z</time>
      </trkpt>
      <trkpt lat="45.92262" lon="4.75815">
        <ele>174</ele>
        <time>2018-01-31T09:39:38Z</time>
      </trkpt>
      <trkpt lat="45.92265" lon="4.75821">
        <ele>174</ele>
        <time>2018-01-31T09:39:39Z</time>
      </trkpt>
      <trkpt lat="45.92269" lon="4.75827">
        <ele>174</ele>
        <time>2018-01-31T09:39:40Z</time>
      </trkpt>
      <trkpt lat="45.92274" lon="4.75832">
        <ele>174</ele>
        <time>2018-01-31T09:39:41Z</time>
      </trkpt>
      <trkpt lat="45.92279" lon="4.75837">
        <ele>173</ele>
        <time>2018-01-31T09:39:42Z</time>
      </trkpt>
      <trkpt lat="45.92284" lon="4.75841">
        <ele>173</ele>
        <time>2018-01-31T09:39:43Z</time>
      </trkpt>
      <trkpt lat="45.9229" lon="4.75845">
        <ele>173</ele>
        <time>2018-01-31T09:39:44Z</time>
      </trkpt>
      <trkpt lat="45.92296" lon="4.75847">
        <ele>173</ele>
        <time>2018-01-31T09:39:45Z</time>
      </trkpt>
      <trkpt lat="45.92301" lon="4.7585">
        <ele>173</ele>
        <time>2018-01-31T09:39:46Z</time>
      </trkpt>
      <trkpt lat="45.92307" lon="4.75854">
        <ele>173</ele>
        <time>2018-01-31T09:39:47Z</time>
      </trkpt>
      <trkpt lat="45.92313" lon="4.75859">
        <ele>173</ele>
        <time>2018-01-31T09:39:48Z</time>
      </trkpt>
      <trkpt lat="45.92319" lon="4.75862">
        <ele>173</ele>
        <time>2018-01-31T09:39:49Z</time>
      </trkpt>
      <trkpt lat="45.92325" lon="4.75866">
        <ele>173</ele>
        <time>2018-01-31T09:39:50Z</time>
      </trkpt>
      <trkpt lat="45.92331" lon="4.75869">
        <ele>173</ele>
        <time>2018-01-31T09:39:51Z</time>
      </trkpt>
      <trkpt lat="45.92338" lon="4.75873">
        <ele>173</ele>
        <time>2018-01-31T09:39:52Z</time>
      </trkpt>
      <trkpt lat="45.92344" lon="4.75876">
        <ele>173</ele>
        <time>2018-01-31T09:39:53Z</time>
      </trkpt>
      <trkpt lat="45.9235" lon="4.75881">
        <ele>173</ele>
        <time>2018-01-31T09:39:54Z</time>
      </trkpt>
      <trkpt lat="45.92356" lon="4.75884">
        <ele>173</ele>
        <time>2018-01-31T09:39:55Z</time>
      </trkpt>
      <trkpt lat="45.92362" lon="4.75888">
        <ele>173</ele>
        <time>2018-01-31T09:39:56Z</time>
      </trkpt>
      <trkpt lat="45.92368" lon="4.75892">
        <ele>173</ele>
        <time>2018-01-31T09:39:57Z</time>
      </trkpt>
      <trkpt lat="45.92373" lon="4.75895">
        <ele>173</ele>
        <time>2018-01-31T09:39:58Z</time>
      </trkpt>
      <trkpt lat="45.92378" lon="4.75899">
        <ele>173</ele>
        <time>2018-01-31T09:39:59Z</time>
      </trkpt>
      <trkpt lat="45.92383" lon="4.75902">
        <ele>173</ele>
        <time>2018-01-31T09:40:00Z</time>
      </trkpt>
      <trkpt lat="45.92388" lon="4.75906">
        <ele>173</ele>
        <time>2018-01-31T09:40:01Z</time>
      </trkpt>
      <trkpt lat="45.92393" lon="4.75909">
        <ele>173</ele>
        <time>2018-01-31T09:40:02Z</time>
      </trkpt>
      <trkpt lat="45.92397" lon="4.75913">
        <ele>173</ele>
        <time>2018-01-31T09:40:03Z</time>
      </trkpt>
      <trkpt lat="45.92402" lon="4.75916">
        <ele>172</ele>
        <time>2018-01-31T09:40:04Z</time>
      </trkpt>
      <trkpt lat="45.92407" lon="4.7592">
        <ele>172</ele>
        <time>2018-01-31T09:40:05Z</time>
      </trkpt>
      <trkpt lat="45.92412" lon="4.75924">
        <ele>172</ele>
        <time>2018-01-31T09:40:06Z</time>
      </trkpt>
      <trkpt lat="45.92417" lon="4.75927">
        <ele>172</ele>
        <time>2018-01-31T09:40:07Z</time>
      </trkpt>
      <trkpt lat="45.92422" lon="4.75931">
        <ele>172</ele>
        <time>2018-01-31T09:40:08Z</time>
      </trkpt>
      <trkpt lat="45.92426" lon="4.75935">
        <ele>172</ele>
        <time>2018-01-31T09:40:09Z</time>
      </trkpt>
      <trkpt lat="45.92432" lon="4.75937">
        <ele>172</ele>
        <time>2018-01-31T09:40:10Z</time>
      </trkpt>
      <trkpt lat="45.92437" lon="4.7594">
        <ele>172</ele>
        <time>2018-01-31T09:40:11Z</time>
      </trkpt>
      <trkpt lat="45.92442" lon="4.75945">
        <ele>172</ele>
        <time>2018-01-31T09:40:12Z</time>
      </trkpt>
      <trkpt lat="45.92446" lon="4.75948">
        <ele>172</ele>
        <time>2018-01-31T09:40:13Z</time>
      </trkpt>
      <trkpt lat="45.9245" lon="4.75952">
        <ele>172</ele>
        <time>2018-01-31T09:40:14Z</time>
      </trkpt>
      <trkpt lat="45.92454" lon="4.75956">
        <ele>172</ele>
        <time>2018-01-31T09:40:15Z</time>
      </trkpt>
      <trkpt lat="45.92458" lon="4.75959">
        <ele>172</ele>
        <time>2018-01-31T09:40:16Z</time>
      </trkpt>
      <trkpt lat="45.92462" lon="4.75963">
        <ele>172</ele>
        <time>2018-01-31T09:40:17Z</time>
      </trkpt>
      <trkpt lat="45.92467" lon="4.75966">
        <ele>172</ele>
        <time>2018-01-31T09:40:18Z</time>
      </trkpt>
      <trkpt lat="45.92471" lon="4.7597">
        <ele>172</ele>
        <time>2018-01-31T09:40:19Z</time>
      </trkpt>
      <trkpt lat="45.92475" lon="4.75973">
        <ele>172</ele>
        <time>2018-01-31T09:40:20Z</time>
      </trkpt>
      <trkpt lat="45.92479" lon="4.75976">
        <ele>172</ele>
        <time>2018-01-31T09:40:21Z</time>
      </trkpt>
      <trkpt lat="45.92483" lon="4.75979">
        <ele>172</ele>
        <time>2018-01-31T09:40:22Z</time>
      </trkpt>
      <trkpt lat="45.92487" lon="4.75983">
        <ele>172</ele>
        <time>2018-01-31T09:40:23Z</time>
      </trkpt>
      <trkpt lat="45.92491" lon="4.75986">
        <ele>172</ele>
        <time>2018-01-31T09:40:24Z</time>
      </trkpt>
      <trkpt lat="45.92499" lon="4.75993">
        <ele>172</ele>
        <time>2018-01-31T09:40:26Z</time>
      </trkpt>
      <trkpt lat="45.92503" lon="4.75996">
        <ele>172</ele>
        <time>2018-01-31T09:40:27Z</time>
      </trkpt>
      <trkpt lat="45.92511" lon="4.76002">
        <ele>172</ele>
        <time>2018-01-31T09:40:29Z</time>
      </trkpt>
      <trkpt lat="45.92516" lon="4.76005">
        <ele>172</ele>
        <time>2018-01-31T09:40:30Z</time>
      </trkpt>
      <trkpt lat="45.92524" lon="4.76009">
        <ele>172</ele>
        <time>2018-01-31T09:40:32Z</time>
      </trkpt>
      <trkpt lat="45.92529" lon="4.76012">
        <ele>172</ele>
        <time>2018-01-31T09:40:33Z</time>
      </trkpt>
      <trkpt lat="45.92534" lon="4.76017">
        <ele>172</ele>
        <time>2018-01-31T09:40:34Z</time>
      </trkpt>
      <trkpt lat="45.92538" lon="4.7602">
        <ele>172</ele>
        <time>2018-01-31T09:40:35Z</time>
      </trkpt>
      <trkpt lat="45.92542" lon="4.76022">
        <ele>172</ele>
        <time>2018-01-31T09:40:36Z</time>
      </trkpt>
      <trkpt lat="45.92547" lon="4.76026">
        <ele>172</ele>
        <time>2018-01-31T09:40:37Z</time>
      </trkpt>
      <trkpt lat="45.92551" lon="4.76029">
        <ele>172</ele>
        <time>2018-01-31T09:40:38Z</time>
      </trkpt>
      <trkpt lat="45.92556" lon="4.76033">
        <ele>172</ele>
        <time>2018-01-31T09:40:39Z</time>
      </trkpt>
      <trkpt lat="45.92562" lon="4.76037">
        <ele>172</ele>
        <time>2018-01-31T09:40:40Z</time>
      </trkpt>
      <trkpt lat="45.92567" lon="4.76041">
        <ele>172</ele>
        <time>2018-01-31T09:40:41Z</time>
      </trkpt>
      <trkpt lat="45.92573" lon="4.76045">
        <ele>171</ele>
        <time>2018-01-31T09:40:42Z</time>
      </trkpt>
      <trkpt lat="45.92578" lon="4.76049">
        <ele>171</ele>
        <time>2018-01-31T09:40:43Z</time>
      </trkpt>
      <trkpt lat="45.92583" lon="4.76053">
        <ele>171</ele>
        <time>2018-01-31T09:40:44Z</time>
      </trkpt>
      <trkpt lat="45.92588" lon="4.76056">
        <ele>171</ele>
        <time>2018-01-31T09:40:45Z</time>
      </trkpt>
      <trkpt lat="45.92593" lon="4.7606">
        <ele>171</ele>
        <time>2018-01-31T09:40:46Z</time>
      </trkpt>
      <trkpt lat="45.92599" lon="4.76065">
        <ele>171</ele>
        <time>2018-01-31T09:40:47Z</time>
      </trkpt>
      <trkpt lat="45.92605" lon="4.76069">
        <ele>171</ele>
        <time>2018-01-31T09:40:48Z</time>
      </trkpt>
      <trkpt lat="45.92611" lon="4.76071">
        <ele>171</ele>
        <time>2018-01-31T09:40:49Z</time>
      </trkpt>
      <trkpt lat="45.92616" lon="4.76076">
        <ele>171</ele>
        <time>2018-01-31T09:40:50Z</time>
      </trkpt>
      <trkpt lat="45.92622" lon="4.7608">
        <ele>171</ele>
        <time>2018-01-31T09:40:51Z</time>
      </trkpt>
      <trkpt lat="45.92627" lon="4.76084">
        <ele>170</ele>
        <time>2018-01-31T09:40:52Z</time>
      </trkpt>
      <trkpt lat="45.92633" lon="4.76089">
        <ele>170</ele>
        <time>2018-01-31T09:40:53Z</time>
      </trkpt>
      <trkpt lat="45.92639" lon="4.76093">
        <ele>170</ele>
        <time>2018-01-31T09:40:54Z</time>
      </trkpt>
      <trkpt lat="45.92645" lon="4.76097">
        <ele>170</ele>
        <time>2018-01-31T09:40:55Z</time>
      </trkpt>
      <trkpt lat="45.92652" lon="4.76102">
        <ele>170</ele>
        <time>2018-01-31T09:40:56Z</time>
      </trkpt>
      <trkpt lat="45.92659" lon="4.76106">
        <ele>170</ele>
        <time>2018-01-31T09:40:57Z</time>
      </trkpt>
      <trkpt lat="45.92665" lon="4.76111">
        <ele>170</ele>
        <time>2018-01-31T09:40:58Z</time>
      </trkpt>
      <trkpt lat="45.92671" lon="4.76115">
        <ele>169</ele>
        <time>2018-01-31T09:40:59Z</time>
      </trkpt>
      <trkpt lat="45.92678" lon="4.76119">
        <ele>169</ele>
        <time>2018-01-31T09:41:00Z</time>
      </trkpt>
      <trkpt lat="45.92685" lon="4.76124">
        <ele>169</ele>
        <time>2018-01-31T09:41:01Z</time>
      </trkpt>
      <trkpt lat="45.92692" lon="4.76128">
        <ele>169</ele>
        <time>2018-01-31T09:41:02Z</time>
      </trkpt>
      <trkpt lat="45.927" lon="4.76133">
        <ele>169</ele>
        <time>2018-01-31T09:41:03Z</time>
      </trkpt>
      <trkpt lat="45.92707" lon="4.76138">
        <ele>169</ele>
        <time>2018-01-31T09:41:04Z</time>
      </trkpt>
      <trkpt lat="45.92713" lon="4.76142">
        <ele>168</ele>
        <time>2018-01-31T09:41:05Z</time>
      </trkpt>
      <trkpt lat="45.9272" lon="4.76148">
        <ele>168</ele>
        <time>2018-01-31T09:41:06Z</time>
      </trkpt>
      <trkpt lat="45.92728" lon="4.76154">
        <ele>168</ele>
        <time>2018-01-31T09:41:07Z</time>
      </trkpt>
      <trkpt lat="45.92734" lon="4.76158">
        <ele>168</ele>
        <time>2018-01-31T09:41:08Z</time>
      </trkpt>
      <trkpt lat="45.92741" lon="4.76163">
        <ele>167</ele>
        <time>2018-01-31T09:41:09Z</time>
      </trkpt>
      <trkpt lat="45.92748" lon="4.76168">
        <ele>167</ele>
        <time>2018-01-31T09:41:10Z</time>
      </trkpt>
      <trkpt lat="45.92754" lon="4.76173">
        <ele>167</ele>
        <time>2018-01-31T09:41:11Z</time>
      </trkpt>
      <trkpt lat="45.9276" lon="4.76179">
        <ele>167</ele>
        <time>2018-01-31T09:41:12Z</time>
      </trkpt>
      <trkpt lat="45.92766" lon="4.76182">
        <ele>167</ele>
        <time>2018-01-31T09:41:13Z</time>
      </trkpt>
      <trkpt lat="45.92772" lon="4.76188">
        <ele>168</ele>
        <time>2018-01-31T09:41:14Z</time>
      </trkpt>
      <trkpt lat="45.92777" lon="4.76194">
        <ele>168</ele>
        <time>2018-01-31T09:41:15Z</time>
      </trkpt>
      <trkpt lat="45.92783" lon="4.76199">
        <ele>168</ele>
        <time>2018-01-31T09:41:16Z</time>
      </trkpt>
      <trkpt lat="45.92788" lon="4.76204">
        <ele>168</ele>
        <time>2018-01-31T09:41:17Z</time>
      </trkpt>
      <trkpt lat="45.92794" lon="4.76208">
        <ele>168</ele>
        <time>2018-01-31T09:41:18Z</time>
      </trkpt>
      <trkpt lat="45.92799" lon="4.76213">
        <ele>168</ele>
        <time>2018-01-31T09:41:19Z</time>
      </trkpt>
      <trkpt lat="45.92804" lon="4.76218">
        <ele>168</ele>
        <time>2018-01-31T09:41:20Z</time>
      </trkpt>
      <trkpt lat="45.92809" lon="4.76223">
        <ele>168</ele>
        <time>2018-01-31T09:41:21Z</time>
      </trkpt>
      <trkpt lat="45.92814" lon="4.76229">
        <ele>168</ele>
        <time>2018-01-31T09:41:22Z</time>
      </trkpt>
      <trkpt lat="45.92819" lon="4.76235">
        <ele>168</ele>
        <time>2018-01-31T09:41:23Z</time>
      </trkpt>
      <trkpt lat="45.92824" lon="4.7624">
        <ele>168</ele>
        <time>2018-01-31T09:41:24Z</time>
      </trkpt>
      <trkpt lat="45.9283" lon="4.76245">
        <ele>169</ele>
        <time>2018-01-31T09:41:25Z</time>
      </trkpt>
      <trkpt lat="45.92835" lon="4.76251">
        <ele>169</ele>
        <time>2018-01-31T09:41:26Z</time>
      </trkpt>
      <trkpt lat="45.9284" lon="4.76257">
        <ele>169</ele>
        <time>2018-01-31T09:41:27Z</time>
      </trkpt>
      <trkpt lat="45.92846" lon="4.76262">
        <ele>169</ele>
        <time>2018-01-31T09:41:28Z</time>
      </trkpt>
      <trkpt lat="45.92852" lon="4.76267">
        <ele>169</ele>
        <time>2018-01-31T09:41:29Z</time>
      </trkpt>
      <trkpt lat="45.92857" lon="4.76272">
        <ele>169</ele>
        <time>2018-01-31T09:41:30Z</time>
      </trkpt>
      <trkpt lat="45.92863" lon="4.76277">
        <ele>169</ele>
        <time>2018-01-31T09:41:31Z</time>
      </trkpt>
      <trkpt lat="45.92868" lon="4.76282">
        <ele>169</ele>
        <time>2018-01-31T09:41:32Z</time>
      </trkpt>
      <trkpt lat="45.92872" lon="4.76288">
        <ele>169</ele>
        <time>2018-01-31T09:41:33Z</time>
      </trkpt>
      <trkpt lat="45.92878" lon="4.76293">
        <ele>169</ele>
        <time>2018-01-31T09:41:34Z</time>
      </trkpt>
      <trkpt lat="45.92882" lon="4.763">
        <ele>169</ele>
        <time>2018-01-31T09:41:35Z</time>
      </trkpt>
      <trkpt lat="45.92888" lon="4.76303">
        <ele>169</ele>
        <time>2018-01-31T09:41:36Z</time>
      </trkpt>
      <trkpt lat="45.92893" lon="4.76309">
        <ele>169</ele>
        <time>2018-01-31T09:41:37Z</time>
      </trkpt>
      <trkpt lat="45.92898" lon="4.76312">
        <ele>169</ele>
        <time>2018-01-31T09:41:38Z</time>
      </trkpt>
      <trkpt lat="45.92903" lon="4.76317">
        <ele>169</ele>
        <time>2018-01-31T09:41:39Z</time>
      </trkpt>
      <trkpt lat="45.92908" lon="4.76319">
        <ele>169</ele>
        <time>2018-01-31T09:41:40Z</time>
      </trkpt>
      <trkpt lat="45.92912" lon="4.76327">
        <ele>169</ele>
        <time>2018-01-31T09:41:41Z</time>
      </trkpt>
      <trkpt lat="45.92916" lon="4.76331">
        <ele>169</ele>
        <time>2018-01-31T09:41:42Z</time>
      </trkpt>
      <trkpt lat="45.9292" lon="4.76336">
        <ele>169</ele>
        <time>2018-01-31T09:41:43Z</time>
      </trkpt>
      <trkpt lat="45.92925" lon="4.7634">
        <ele>169</ele>
        <time>2018-01-31T09:41:44Z</time>
      </trkpt>
      <trkpt lat="45.92929" lon="4.76344">
        <ele>169</ele>
        <time>2018-01-31T09:41:45Z</time>
      </trkpt>
      <trkpt lat="45.92934" lon="4.76349">
        <ele>169</ele>
        <time>2018-01-31T09:41:46Z</time>
      </trkpt>
      <trkpt lat="45.92939" lon="4.76353">
        <ele>169</ele>
        <time>2018-01-31T09:41:47Z</time>
      </trkpt>
      <trkpt lat="45.92944" lon="4.76357">
        <ele>169</ele>
        <time>2018-01-31T09:41:48Z</time>
      </trkpt>
      <trkpt lat="45.92949" lon="4.76363">
        <ele>169</ele>
        <time>2018-01-31T09:41:49Z</time>
      </trkpt>
      <trkpt lat="45.92954" lon="4.76371">
        <ele>169</ele>
        <time>2018-01-31T09:41:50Z</time>
      </trkpt>
      <trkpt lat="45.92959" lon="4.76376">
        <ele>169</ele>
        <time>2018-01-31T09:41:51Z</time>
      </trkpt>
      <trkpt lat="45.92963" lon="4.76381">
        <ele>169</ele>
        <time>2018-01-31T09:41:52Z</time>
      </trkpt>
      <trkpt lat="45.92969" lon="4.76385">
        <ele>169</ele>
        <time>2018-01-31T09:41:53Z</time>
      </trkpt>
      <trkpt lat="45.92974" lon="4.76389">
        <ele>169</ele>
        <time>2018-01-31T09:41:54Z</time>
      </trkpt>
      <trkpt lat="45.92979" lon="4.76394">
        <ele>169</ele>
        <time>2018-01-31T09:41:55Z</time>
      </trkpt>
      <trkpt lat="45.92983" lon="4.76399">
        <ele>169</ele>
        <time>2018-01-31T09:41:56Z</time>
      </trkpt>
      <trkpt lat="45.92988" lon="4.76404">
        <ele>169</ele>
        <time>2018-01-31T09:41:57Z</time>
      </trkpt>
      <trkpt lat="45.92993" lon="4.76409">
        <ele>169</ele>
        <time>2018-01-31T09:41:58Z</time>
      </trkpt>
      <trkpt lat="45.92997" lon="4.76414">
        <ele>169</ele>
        <time>2018-01-31T09:41:59Z</time>
      </trkpt>
      <trkpt lat="45.93002" lon="4.76419">
        <ele>169</ele>
        <time>2018-01-31T09:42:00Z</time>
      </trkpt>
      <trkpt lat="45.93006" lon="4.76424">
        <ele>169</ele>
        <time>2018-01-31T09:42:01Z</time>
      </trkpt>
      <trkpt lat="45.93011" lon="4.76428">
        <ele>169</ele>
        <time>2018-01-31T09:42:02Z</time>
      </trkpt>
      <trkpt lat="45.93016" lon="4.76432">
        <ele>169</ele>
        <time>2018-01-31T09:42:03Z</time>
      </trkpt>
      <trkpt lat="45.93021" lon="4.76436">
        <ele>169</ele>
        <time>2018-01-31T09:42:04Z</time>
      </trkpt>
      <trkpt lat="45.93026" lon="4.76442">
        <ele>169</ele>
        <time>2018-01-31T09:42:05Z</time>
      </trkpt>
      <trkpt lat="45.93031" lon="4.76447">
        <ele>169</ele>
        <time>2018-01-31T09:42:06Z</time>
      </trkpt>
      <trkpt lat="45.93036" lon="4.76453">
        <ele>169</ele>
        <time>2018-01-31T09:42:07Z</time>
      </trkpt>
      <trkpt lat="45.93041" lon="4.76458">
        <ele>169</ele>
        <time>2018-01-31T09:42:08Z</time>
      </trkpt>
      <trkpt lat="45.93047" lon="4.76464">
        <ele>169</ele>
        <time>2018-01-31T09:42:09Z</time>
      </trkpt>
      <trkpt lat="45.93052" lon="4.76468">
        <ele>169</ele>
        <time>2018-01-31T09:42:10Z</time>
      </trkpt>
      <trkpt lat="45.93057" lon="4.76471">
        <ele>169</ele>
        <time>2018-01-31T09:42:11Z</time>
      </trkpt>
      <trkpt lat="45.93062" lon="4.76476">
        <ele>169</ele>
        <time>2018-01-31T09:42:12Z</time>
      </trkpt>
      <trkpt lat="45.93066" lon="4.7648">
        <ele>169</ele>
        <time>2018-01-31T09:42:13Z</time>
      </trkpt>
      <trkpt lat="45.93071" lon="4.76484">
        <ele>169</ele>
        <time>2018-01-31T09:42:14Z</time>
      </trkpt>
      <trkpt lat="45.93076" lon="4.76488">
        <ele>170</ele>
        <time>2018-01-31T09:42:15Z</time>
      </trkpt>
      <trkpt lat="45.93081" lon="4.76492">
        <ele>170</ele>
        <time>2018-01-31T09:42:16Z</time>
      </trkpt>
      <trkpt lat="45.93086" lon="4.76498">
        <ele>170</ele>
        <time>2018-01-31T09:42:17Z</time>
      </trkpt>
      <trkpt lat="45.9309" lon="4.76503">
        <ele>170</ele>
        <time>2018-01-31T09:42:18Z</time>
      </trkpt>
      <trkpt lat="45.93095" lon="4.76508">
        <ele>170</ele>
        <time>2018-01-31T09:42:19Z</time>
      </trkpt>
      <trkpt lat="45.931" lon="4.76513">
        <ele>170</ele>
        <time>2018-01-31T09:42:20Z</time>
      </trkpt>
      <trkpt lat="45.93104" lon="4.76518">
        <ele>170</ele>
        <time>2018-01-31T09:42:21Z</time>
      </trkpt>
      <trkpt lat="45.93109" lon="4.76523">
        <ele>170</ele>
        <time>2018-01-31T09:42:22Z</time>
      </trkpt>
      <trkpt lat="45.93114" lon="4.76527">
        <ele>170</ele>
        <time>2018-01-31T09:42:23Z</time>
      </trkpt>
      <trkpt lat="45.93119" lon="4.76532">
        <ele>170</ele>
        <time>2018-01-31T09:42:24Z</time>
      </trkpt>
      <trkpt lat="45.93125" lon="4.76535">
        <ele>170</ele>
        <time>2018-01-31T09:42:25Z</time>
      </trkpt>
      <trkpt lat="45.9313" lon="4.76541">
        <ele>170</ele>
        <time>2018-01-31T09:42:26Z</time>
      </trkpt>
      <trkpt lat="45.93135" lon="4.76547">
        <ele>170</ele>
        <time>2018-01-31T09:42:27Z</time>
      </trkpt>
      <trkpt lat="45.9314" lon="4.76553">
        <ele>170</ele>
        <time>2018-01-31T09:42:28Z</time>
      </trkpt>
      <trkpt lat="45.93144" lon="4.76557">
        <ele>170</ele>
        <time>2018-01-31T09:42:29Z</time>
      </trkpt>
      <trkpt lat="45.93146" lon="4.76562">
        <ele>170</ele>
        <time>2018-01-31T09:42:30Z</time>
      </trkpt>
      <trkpt lat="45.93154" lon="4.76569">
        <ele>170</ele>
        <time>2018-01-31T09:42:31Z</time>
      </trkpt>
      <trkpt lat="45.93159" lon="4.76576">
        <ele>171</ele>
        <time>2018-01-31T09:42:32Z</time>
      </trkpt>
      <trkpt lat="45.93165" lon="4.76584">
        <ele>171</ele>
        <time>2018-01-31T09:42:33Z</time>
      </trkpt>
      <trkpt lat="45.9317" lon="4.76589">
        <ele>171</ele>
        <time>2018-01-31T09:42:34Z</time>
      </trkpt>
      <trkpt lat="45.93175" lon="4.76592">
        <ele>171</ele>
        <time>2018-01-31T09:42:35Z</time>
      </trkpt>
      <trkpt lat="45.93181" lon="4.76597">
        <ele>171</ele>
        <time>2018-01-31T09:42:36Z</time>
      </trkpt>
      <trkpt lat="45.93186" lon="4.76602">
        <ele>171</ele>
        <time>2018-01-31T09:42:37Z</time>
      </trkpt>
      <trkpt lat="45.93191" lon="4.76606">
        <ele>171</ele>
        <time>2018-01-31T09:42:38Z</time>
      </trkpt>
      <trkpt lat="45.93195" lon="4.76613">
        <ele>171</ele>
        <time>2018-01-31T09:42:39Z</time>
      </trkpt>
      <trkpt lat="45.93199" lon="4.76617">
        <ele>171</ele>
        <time>2018-01-31T09:42:40Z</time>
      </trkpt>
      <trkpt lat="45.93204" lon="4.7662">
        <ele>170</ele>
        <time>2018-01-31T09:42:41Z</time>
      </trkpt>
      <trkpt lat="45.9321" lon="4.76624">
        <ele>170</ele>
        <time>2018-01-31T09:42:42Z</time>
      </trkpt>
      <trkpt lat="45.93214" lon="4.76629">
        <ele>171</ele>
        <time>2018-01-31T09:42:43Z</time>
      </trkpt>
      <trkpt lat="45.93219" lon="4.76633">
        <ele>171</ele>
        <time>2018-01-31T09:42:44Z</time>
      </trkpt>
      <trkpt lat="45.93225" lon="4.76637">
        <ele>171</ele>
        <time>2018-01-31T09:42:45Z</time>
      </trkpt>
      <trkpt lat="45.93229" lon="4.76642">
        <ele>171</ele>
        <time>2018-01-31T09:42:46Z</time>
      </trkpt>
      <trkpt lat="45.93235" lon="4.76646">
        <ele>171</ele>
        <time>2018-01-31T09:42:47Z</time>
      </trkpt>
      <trkpt lat="45.93238" lon="4.76651">
        <ele>171</ele>
        <time>2018-01-31T09:42:48Z</time>
      </trkpt>
      <trkpt lat="45.93243" lon="4.76657">
        <ele>171</ele>
        <time>2018-01-31T09:42:49Z</time>
      </trkpt>
      <trkpt lat="45.93248" lon="4.76661">
        <ele>172</ele>
        <time>2018-01-31T09:42:50Z</time>
      </trkpt>
      <trkpt lat="45.93253" lon="4.76664">
        <ele>172</ele>
        <time>2018-01-31T09:42:51Z</time>
      </trkpt>
      <trkpt lat="45.93257" lon="4.76669">
        <ele>172</ele>
        <time>2018-01-31T09:42:52Z</time>
      </trkpt>
      <trkpt lat="45.93262" lon="4.76674">
        <ele>172</ele>
        <time>2018-01-31T09:42:53Z</time>
      </trkpt>
      <trkpt lat="45.93266" lon="4.76678">
        <ele>172</ele>
        <time>2018-01-31T09:42:54Z</time>
      </trkpt>
      <trkpt lat="45.9327" lon="4.76682">
        <ele>172</ele>
        <time>2018-01-31T09:42:55Z</time>
      </trkpt>
      <trkpt lat="45.93275" lon="4.76687">
        <ele>172</ele>
        <time>2018-01-31T09:42:56Z</time>
      </trkpt>
      <trkpt lat="45.93278" lon="4.76693">
        <ele>172</ele>
        <time>2018-01-31T09:42:57Z</time>
      </trkpt>
      <trkpt lat="45.93284" lon="4.76698">
        <ele>172</ele>
        <time>2018-01-31T09:42:58Z</time>
      </trkpt>
      <trkpt lat="45.93289" lon="4.76702">
        <ele>172</ele>
        <time>2018-01-31T09:42:59Z</time>
      </trkpt>
      <trkpt lat="45.93292" lon="4.76708">
        <ele>172</ele>
        <time>2018-01-31T09:43:00Z</time>
      </trkpt>
      <trkpt lat="45.93297" lon="4.76713">
        <ele>172</ele>
        <time>2018-01-31T09:43:01Z</time>
      </trkpt>
      <trkpt lat="45.93301" lon="4.76718">
        <ele>172</ele>
        <time>2018-01-31T09:43:02Z</time>
      </trkpt>
      <trkpt lat="45.93306" lon="4.76722">
        <ele>172</ele>
        <time>2018-01-31T09:43:03Z</time>
      </trkpt>
      <trkpt lat="45.93311" lon="4.76727">
        <ele>172</ele>
        <time>2018-01-31T09:43:04Z</time>
      </trkpt>
      <trkpt lat="45.93316" lon="4.76732">
        <ele>172</ele>
        <time>2018-01-31T09:43:05Z</time>
      </trkpt>
      <trkpt lat="45.93321" lon="4.76735">
        <ele>172</ele>
        <time>2018-01-31T09:43:06Z</time>
      </trkpt>
      <trkpt lat="45.93325" lon="4.7674">
        <ele>172</ele>
        <time>2018-01-31T09:43:07Z</time>
      </trkpt>
      <trkpt lat="45.93329" lon="4.76745">
        <ele>173</ele>
        <time>2018-01-31T09:43:08Z</time>
      </trkpt>
      <trkpt lat="45.93335" lon="4.76749">
        <ele>173</ele>
        <time>2018-01-31T09:43:09Z</time>
      </trkpt>
      <trkpt lat="45.93341" lon="4.76754">
        <ele>173</ele>
        <time>2018-01-31T09:43:10Z</time>
      </trkpt>
      <trkpt lat="45.93346" lon="4.76758">
        <ele>172</ele>
        <time>2018-01-31T09:43:11Z</time>
      </trkpt>
      <trkpt lat="45.9335" lon="4.76763">
        <ele>172</ele>
        <time>2018-01-31T09:43:12Z</time>
      </trkpt>
      <trkpt lat="45.93355" lon="4.76768">
        <ele>172</ele>
        <time>2018-01-31T09:43:13Z</time>
      </trkpt>
      <trkpt lat="45.9336" lon="4.76773">
        <ele>172</ele>
        <time>2018-01-31T09:43:14Z</time>
      </trkpt>
      <trkpt lat="45.93365" lon="4.76777">
        <ele>172</ele>
        <time>2018-01-31T09:43:15Z</time>
      </trkpt>
      <trkpt lat="45.9337" lon="4.76782">
        <ele>172</ele>
        <time>2018-01-31T09:43:16Z</time>
      </trkpt>
      <trkpt lat="45.93375" lon="4.76787">
        <ele>172</ele>
        <time>2018-01-31T09:43:17Z</time>
      </trkpt>
      <trkpt lat="45.93379" lon="4.76792">
        <ele>172</ele>
        <time>2018-01-31T09:43:18Z</time>
      </trkpt>
      <trkpt lat="45.93384" lon="4.76798">
        <ele>172</ele>
        <time>2018-01-31T09:43:19Z</time>
      </trkpt>
      <trkpt lat="45.93388" lon="4.76804">
        <ele>172</ele>
        <time>2018-01-31T09:43:20Z</time>
      </trkpt>
      <trkpt lat="45.93392" lon="4.7681">
        <ele>172</ele>
        <time>2018-01-31T09:43:21Z</time>
      </trkpt>
      <trkpt lat="45.93397" lon="4.76816">
        <ele>172</ele>
        <time>2018-01-31T09:43:22Z</time>
      </trkpt>
      <trkpt lat="45.93401" lon="4.76822">
        <ele>172</ele>
        <time>2018-01-31T09:43:23Z</time>
      </trkpt>
      <trkpt lat="45.93406" lon="4.76828">
        <ele>172</ele>
        <time>2018-01-31T09:43:24Z</time>
      </trkpt>
      <trkpt lat="45.9341" lon="4.76835">
        <ele>172</ele>
        <time>2018-01-31T09:43:25Z</time>
      </trkpt>
      <trkpt lat="45.93413" lon="4.76841">
        <ele>172</ele>
        <time>2018-01-31T09:43:26Z</time>
      </trkpt>
      <trkpt lat="45.93417" lon="4.76848">
        <ele>171</ele>
        <time>2018-01-31T09:43:27Z</time>
      </trkpt>
      <trkpt lat="45.93421" lon="4.76856">
        <ele>171</ele>
        <time>2018-01-31T09:43:28Z</time>
      </trkpt>
      <trkpt lat="45.93424" lon="4.76864">
        <ele>171</ele>
        <time>2018-01-31T09:43:29Z</time>
      </trkpt>
      <trkpt lat="45.93428" lon="4.76871">
        <ele>171</ele>
        <time>2018-01-31T09:43:30Z</time>
      </trkpt>
      <trkpt lat="45.93431" lon="4.76879">
        <ele>171</ele>
        <time>2018-01-31T09:43:31Z</time>
      </trkpt>
      <trkpt lat="45.93433" lon="4.76886">
        <ele>171</ele>
        <time>2018-01-31T09:43:32Z</time>
      </trkpt>
      <trkpt lat="45.93436" lon="4.76895">
        <ele>171</ele>
        <time>2018-01-31T09:43:33Z</time>
      </trkpt>
      <trkpt lat="45.93439" lon="4.76903">
        <ele>171</ele>
        <time>2018-01-31T09:43:34Z</time>
      </trkpt>
      <trkpt lat="45.93441" lon="4.76912">
        <ele>170</ele>
        <time>2018-01-31T09:43:35Z</time>
      </trkpt>
      <trkpt lat="45.93443" lon="4.76921">
        <ele>170</ele>
        <time>2018-01-31T09:43:36Z</time>
      </trkpt>
      <trkpt lat="45.93445" lon="4.76929">
        <ele>170</ele>
        <time>2018-01-31T09:43:37Z</time>
      </trkpt>
      <trkpt lat="45.93446" lon="4.76937">
        <ele>170</ele>
        <time>2018-01-31T09:43:38Z</time>
      </trkpt>
      <trkpt lat="45.93447" lon="4.76946">
        <ele>170</ele>
        <time>2018-01-31T09:43:39Z</time>
      </trkpt>
      <trkpt lat="45.93449" lon="4.76954">
        <ele>170</ele>
        <time>2018-01-31T09:43:40Z</time>
      </trkpt>
      <trkpt lat="45.9345" lon="4.76963">
        <ele>170</ele>
        <time>2018-01-31T09:43:41Z</time>
      </trkpt>
      <trkpt lat="45.93452" lon="4.76971">
        <ele>170</ele>
        <time>2018-01-31T09:43:42Z</time>
      </trkpt>
      <trkpt lat="45.93453" lon="4.76978">
        <ele>170</ele>
        <time>2018-01-31T09:43:43Z</time>
      </trkpt>
      <trkpt lat="45.93454" lon="4.76987">
        <ele>170</ele>
        <time>2018-01-31T09:43:44Z</time>
      </trkpt>
      <trkpt lat="45.93455" lon="4.76994">
        <ele>170</ele>
        <time>2018-01-31T09:43:45Z</time>
      </trkpt>
      <trkpt lat="45.93456" lon="4.77003">
        <ele>170</ele>
        <time>2018-01-31T09:43:46Z</time>
      </trkpt>
      <trkpt lat="45.93457" lon="4.77011">
        <ele>170</ele>
        <time>2018-01-31T09:43:47Z</time>
      </trkpt>
      <trkpt lat="45.93459" lon="4.77019">
        <ele>170</ele>
        <time>2018-01-31T09:43:48Z</time>
      </trkpt>
      <trkpt lat="45.9346" lon="4.77028">
        <ele>170</ele>
        <time>2018-01-31T09:43:49Z</time>
      </trkpt>
      <trkpt lat="45.93462" lon="4.77037">
        <ele>170</ele>
        <time>2018-01-31T09:43:50Z</time>
      </trkpt>
      <trkpt lat="45.93463" lon="4.77046">
        <ele>170</ele>
        <time>2018-01-31T09:43:51Z</time>
      </trkpt>
      <trkpt lat="45.93464" lon="4.77055">
        <ele>170</ele>
        <time>2018-01-31T09:43:52Z</time>
      </trkpt>
      <trkpt lat="45.93466" lon="4.77063">
        <ele>170</ele>
        <time>2018-01-31T09:43:53Z</time>
      </trkpt>
      <trkpt lat="45.93467" lon="4.77071">
        <ele>170</ele>
        <time>2018-01-31T09:43:54Z</time>
      </trkpt>
      <trkpt lat="45.93469" lon="4.77079">
        <ele>170</ele>
        <time>2018-01-31T09:43:55Z</time>
      </trkpt>
      <trkpt lat="45.93471" lon="4.77086">
        <ele>170</ele>
        <time>2018-01-31T09:43:56Z</time>
      </trkpt>
      <trkpt lat="45.93472" lon="4.77094">
        <ele>169</ele>
        <time>2018-01-31T09:43:57Z</time>
      </trkpt>
      <trkpt lat="45.93473" lon="4.77102">
        <ele>169</ele>
        <time>2018-01-31T09:43:58Z</time>
      </trkpt>
      <trkpt lat="45.93475" lon="4.77111">
        <ele>169</ele>
        <time>2018-01-31T09:43:59Z</time>
      </trkpt>
      <trkpt lat="45.93478" lon="4.77119">
        <ele>169</ele>
        <time>2018-01-31T09:44:00Z</time>
      </trkpt>
      <trkpt lat="45.93479" lon="4.77127">
        <ele>169</ele>
        <time>2018-01-31T09:44:01Z</time>
      </trkpt>
      <trkpt lat="45.93481" lon="4.77135">
        <ele>169</ele>
        <time>2018-01-31T09:44:02Z</time>
      </trkpt>
      <trkpt lat="45.93483" lon="4.77143">
        <ele>169</ele>
        <time>2018-01-31T09:44:03Z</time>
      </trkpt>
      <trkpt lat="45.93484" lon="4.77152">
        <ele>169</ele>
        <time>2018-01-31T09:44:04Z</time>
      </trkpt>
      <trkpt lat="45.93485" lon="4.77159">
        <ele>169</ele>
        <time>2018-01-31T09:44:05Z</time>
      </trkpt>
      <trkpt lat="45.93487" lon="4.77167">
        <ele>169</ele>
        <time>2018-01-31T09:44:06Z</time>
      </trkpt>
      <trkpt lat="45.93488" lon="4.77175">
        <ele>169</ele>
        <time>2018-01-31T09:44:07Z</time>
      </trkpt>
      <trkpt lat="45.9349" lon="4.77183">
        <ele>169</ele>
        <time>2018-01-31T09:44:08Z</time>
      </trkpt>
      <trkpt lat="45.93492" lon="4.7719">
        <ele>169</ele>
        <time>2018-01-31T09:44:09Z</time>
      </trkpt>
      <trkpt lat="45.93493" lon="4.77197">
        <ele>169</ele>
        <time>2018-01-31T09:44:10Z</time>
      </trkpt>
      <trkpt lat="45.93495" lon="4.77204">
        <ele>169</ele>
        <time>2018-01-31T09:44:11Z</time>
      </trkpt>
      <trkpt lat="45.93497" lon="4.77212">
        <ele>169</ele>
        <time>2018-01-31T09:44:12Z</time>
      </trkpt>
      <trkpt lat="45.93499" lon="4.77219">
        <ele>169</ele>
        <time>2018-01-31T09:44:13Z</time>
      </trkpt>
      <trkpt lat="45.93501" lon="4.77227">
        <ele>169</ele>
        <time>2018-01-31T09:44:14Z</time>
      </trkpt>
      <trkpt lat="45.93503" lon="4.77234">
        <ele>169</ele>
        <time>2018-01-31T09:44:15Z</time>
      </trkpt>
      <trkpt lat="45.93504" lon="4.77241">
        <ele>170</ele>
        <time>2018-01-31T09:44:16Z</time>
      </trkpt>
      <trkpt lat="45.93506" lon="4.77249">
        <ele>170</ele>
        <time>2018-01-31T09:44:17Z</time>
      </trkpt>
      <trkpt lat="45.93508" lon="4.77256">
        <ele>170</ele>
        <time>2018-01-31T09:44:18Z</time>
      </trkpt>
      <trkpt lat="45.9351" lon="4.77263">
        <ele>170</ele>
        <time>2018-01-31T09:44:19Z</time>
      </trkpt>
      <trkpt lat="45.93512" lon="4.77272">
        <ele>170</ele>
        <time>2018-01-31T09:44:20Z</time>
      </trkpt>
      <trkpt lat="45.93513" lon="4.77279">
        <ele>170</ele>
        <time>2018-01-31T09:44:21Z</time>
      </trkpt>
      <trkpt lat="45.93515" lon="4.77286">
        <ele>170</ele>
        <time>2018-01-31T09:44:22Z</time>
      </trkpt>
      <trkpt lat="45.93516" lon="4.77294">
        <ele>170</ele>
        <time>2018-01-31T09:44:23Z</time>
      </trkpt>
      <trkpt lat="45.93518" lon="4.773">
        <ele>170</ele>
        <time>2018-01-31T09:44:24Z</time>
      </trkpt>
      <trkpt lat="45.93519" lon="4.77308">
        <ele>170</ele>
        <time>2018-01-31T09:44:25Z</time>
      </trkpt>
      <trkpt lat="45.9352" lon="4.77317">
        <ele>170</ele>
        <time>2018-01-31T09:44:26Z</time>
      </trkpt>
      <trkpt lat="45.93522" lon="4.77325">
        <ele>170</ele>
        <time>2018-01-31T09:44:27Z</time>
      </trkpt>
      <trkpt lat="45.93523" lon="4.77332">
        <ele>170</ele>
        <time>2018-01-31T09:44:28Z</time>
      </trkpt>
      <trkpt lat="45.93525" lon="4.7734">
        <ele>170</ele>
        <time>2018-01-31T09:44:29Z</time>
      </trkpt>
      <trkpt lat="45.93527" lon="4.7735">
        <ele>170</ele>
        <time>2018-01-31T09:44:30Z</time>
      </trkpt>
      <trkpt lat="45.93529" lon="4.77358">
        <ele>170</ele>
        <time>2018-01-31T09:44:31Z</time>
      </trkpt>
      <trkpt lat="45.93531" lon="4.77365">
        <ele>170</ele>
        <time>2018-01-31T09:44:32Z</time>
      </trkpt>
      <trkpt lat="45.93532" lon="4.77373">
        <ele>170</ele>
        <time>2018-01-31T09:44:33Z</time>
      </trkpt>
      <trkpt lat="45.93534" lon="4.7738">
        <ele>170</ele>
        <time>2018-01-31T09:44:34Z</time>
      </trkpt>
      <trkpt lat="45.93536" lon="4.77387">
        <ele>170</ele>
        <time>2018-01-31T09:44:35Z</time>
      </trkpt>
      <trkpt lat="45.93537" lon="4.77394">
        <ele>170</ele>
        <time>2018-01-31T09:44:36Z</time>
      </trkpt>
      <trkpt lat="45.93538" lon="4.774">
        <ele>170</ele>
        <time>2018-01-31T09:44:37Z</time>
      </trkpt>
      <trkpt lat="45.93541" lon="4.77407">
        <ele>170</ele>
        <time>2018-01-31T09:44:38Z</time>
      </trkpt>
      <trkpt lat="45.93544" lon="4.77413">
        <ele>170</ele>
        <time>2018-01-31T09:44:39Z</time>
      </trkpt>
      <trkpt lat="45.93546" lon="4.7742">
        <ele>170</ele>
        <time>2018-01-31T09:44:40Z</time>
      </trkpt>
      <trkpt lat="45.93547" lon="4.77426">
        <ele>170</ele>
        <time>2018-01-31T09:44:41Z</time>
      </trkpt>
      <trkpt lat="45.93548" lon="4.77433">
        <ele>169</ele>
        <time>2018-01-31T09:44:42Z</time>
      </trkpt>
      <trkpt lat="45.9355" lon="4.7744">
        <ele>169</ele>
        <time>2018-01-31T09:44:43Z</time>
      </trkpt>
      <trkpt lat="45.93551" lon="4.77447">
        <ele>169</ele>
        <time>2018-01-31T09:44:44Z</time>
      </trkpt>
      <trkpt lat="45.93552" lon="4.77453">
        <ele>169</ele>
        <time>2018-01-31T09:44:45Z</time>
      </trkpt>
      <trkpt lat="45.93554" lon="4.77463">
        <ele>169</ele>
        <time>2018-01-31T09:44:46Z</time>
      </trkpt>
      <trkpt lat="45.93555" lon="4.77468">
        <ele>169</ele>
        <time>2018-01-31T09:44:47Z</time>
      </trkpt>
      <trkpt lat="45.93557" lon="4.77475">
        <ele>169</ele>
        <time>2018-01-31T09:44:48Z</time>
      </trkpt>
      <trkpt lat="45.93558" lon="4.77483">
        <ele>169</ele>
        <time>2018-01-31T09:44:49Z</time>
      </trkpt>
      <trkpt lat="45.9356" lon="4.77491">
        <ele>169</ele>
        <time>2018-01-31T09:44:50Z</time>
      </trkpt>
      <trkpt lat="45.93562" lon="4.77499">
        <ele>169</ele>
        <time>2018-01-31T09:44:51Z</time>
      </trkpt>
      <trkpt lat="45.93563" lon="4.77508">
        <ele>169</ele>
        <time>2018-01-31T09:44:52Z</time>
      </trkpt>
      <trkpt lat="45.93564" lon="4.77516">
        <ele>169</ele>
        <time>2018-01-31T09:44:53Z</time>
      </trkpt>
      <trkpt lat="45.93566" lon="4.77526">
        <ele>169</ele>
        <time>2018-01-31T09:44:54Z</time>
      </trkpt>
      <trkpt lat="45.93568" lon="4.77532">
        <ele>169</ele>
        <time>2018-01-31T09:44:55Z</time>
      </trkpt>
      <trkpt lat="45.93569" lon="4.77538">
        <ele>169</ele>
        <time>2018-01-31T09:44:56Z</time>
      </trkpt>
      <trkpt lat="45.93571" lon="4.77546">
        <ele>169</ele>
        <time>2018-01-31T09:44:57Z</time>
      </trkpt>
      <trkpt lat="45.93573" lon="4.77553">
        <ele>169</ele>
        <time>2018-01-31T09:44:58Z</time>
      </trkpt>
      <trkpt lat="45.93576" lon="4.77562">
        <ele>169</ele>
        <time>2018-01-31T09:44:59Z</time>
      </trkpt>
      <trkpt lat="45.93578" lon="4.7757">
        <ele>170</ele>
        <time>2018-01-31T09:45:00Z</time>
      </trkpt>
      <trkpt lat="45.93579" lon="4.77577">
        <ele>170</ele>
        <time>2018-01-31T09:45:01Z</time>
      </trkpt>
      <trkpt lat="45.93582" lon="4.77584">
        <ele>170</ele>
        <time>2018-01-31T09:45:02Z</time>
      </trkpt>
      <trkpt lat="45.93585" lon="4.77591">
        <ele>170</ele>
        <time>2018-01-31T09:45:03Z</time>
      </trkpt>
      <trkpt lat="45.93587" lon="4.77598">
        <ele>170</ele>
        <time>2018-01-31T09:45:04Z</time>
      </trkpt>
      <trkpt lat="45.9359" lon="4.77606">
        <ele>170</ele>
        <time>2018-01-31T09:45:05Z</time>
      </trkpt>
      <trkpt lat="45.93592" lon="4.77613">
        <ele>170</ele>
        <time>2018-01-31T09:45:06Z</time>
      </trkpt>
      <trkpt lat="45.93595" lon="4.7762">
        <ele>170</ele>
        <time>2018-01-31T09:45:07Z</time>
      </trkpt>
      <trkpt lat="45.93597" lon="4.77627">
        <ele>169</ele>
        <time>2018-01-31T09:45:08Z</time>
      </trkpt>
      <trkpt lat="45.93599" lon="4.77635">
        <ele>169</ele>
        <time>2018-01-31T09:45:09Z</time>
      </trkpt>
      <trkpt lat="45.93602" lon="4.77643">
        <ele>169</ele>
        <time>2018-01-31T09:45:10Z</time>
      </trkpt>
      <trkpt lat="45.93604" lon="4.77649">
        <ele>169</ele>
        <time>2018-01-31T09:45:11Z</time>
      </trkpt>
      <trkpt lat="45.93607" lon="4.77657">
        <ele>169</ele>
        <time>2018-01-31T09:45:12Z</time>
      </trkpt>
      <trkpt lat="45.9361" lon="4.77663">
        <ele>169</ele>
        <time>2018-01-31T09:45:13Z</time>
      </trkpt>
      <trkpt lat="45.93614" lon="4.7767">
        <ele>169</ele>
        <time>2018-01-31T09:45:14Z</time>
      </trkpt>
      <trkpt lat="45.93617" lon="4.77678">
        <ele>169</ele>
        <time>2018-01-31T09:45:15Z</time>
      </trkpt>
      <trkpt lat="45.9362" lon="4.77685">
        <ele>169</ele>
        <time>2018-01-31T09:45:16Z</time>
      </trkpt>
      <trkpt lat="45.93622" lon="4.77691">
        <ele>169</ele>
        <time>2018-01-31T09:45:17Z</time>
      </trkpt>
      <trkpt lat="45.93625" lon="4.77696">
        <ele>169</ele>
        <time>2018-01-31T09:45:18Z</time>
      </trkpt>
      <trkpt lat="45.93628" lon="4.77702">
        <ele>169</ele>
        <time>2018-01-31T09:45:19Z</time>
      </trkpt>
      <trkpt lat="45.93631" lon="4.77708">
        <ele>170</ele>
        <time>2018-01-31T09:45:20Z</time>
      </trkpt>
      <trkpt lat="45.93634" lon="4.77712">
        <ele>170</ele>
        <time>2018-01-31T09:45:21Z</time>
      </trkpt>
      <trkpt lat="45.93637" lon="4.77718">
        <ele>170</ele>
        <time>2018-01-31T09:45:22Z</time>
      </trkpt>
      <trkpt lat="45.9364" lon="4.77724">
        <ele>170</ele>
        <time>2018-01-31T09:45:23Z</time>
      </trkpt>
      <trkpt lat="45.93643" lon="4.77729">
        <ele>170</ele>
        <time>2018-01-31T09:45:24Z</time>
      </trkpt>
      <trkpt lat="45.93645" lon="4.77736">
        <ele>170</ele>
        <time>2018-01-31T09:45:25Z</time>
      </trkpt>
      <trkpt lat="45.93651" lon="4.77744">
        <ele>170</ele>
        <time>2018-01-31T09:45:27Z</time>
      </trkpt>
      <trkpt lat="45.93653" lon="4.77748">
        <ele>170</ele>
        <time>2018-01-31T09:45:28Z</time>
      </trkpt>
      <trkpt lat="45.93658" lon="4.77755">
        <ele>171</ele>
        <time>2018-01-31T09:45:30Z</time>
      </trkpt>
      <trkpt lat="45.93661" lon="4.77759">
        <ele>171</ele>
        <time>2018-01-31T09:45:31Z</time>
      </trkpt>
      <trkpt lat="45.93667" lon="4.77766">
        <ele>170</ele>
        <time>2018-01-31T09:45:33Z</time>
      </trkpt>
      <trkpt lat="45.93669" lon="4.77769">
        <ele>170</ele>
        <time>2018-01-31T09:45:34Z</time>
      </trkpt>
      <trkpt lat="45.93674" lon="4.77776">
        <ele>170</ele>
        <time>2018-01-31T09:45:36Z</time>
      </trkpt>
      <trkpt lat="45.93676" lon="4.7778">
        <ele>170</ele>
        <time>2018-01-31T09:45:37Z</time>
      </trkpt>
      <trkpt lat="45.93681" lon="4.77787">
        <ele>170</ele>
        <time>2018-01-31T09:45:39Z</time>
      </trkpt>
      <trkpt lat="45.93683" lon="4.77791">
        <ele>170</ele>
        <time>2018-01-31T09:45:40Z</time>
      </trkpt>
      <trkpt lat="45.93688" lon="4.77798">
        <ele>169</ele>
        <time>2018-01-31T09:45:42Z</time>
      </trkpt>
      <trkpt lat="45.93691" lon="4.77802">
        <ele>169</ele>
        <time>2018-01-31T09:45:43Z</time>
      </trkpt>
      <trkpt lat="45.93696" lon="4.77809">
        <ele>169</ele>
        <time>2018-01-31T09:45:45Z</time>
      </trkpt>
      <trkpt lat="45.93698" lon="4.77813">
        <ele>169</ele>
        <time>2018-01-31T09:45:46Z</time>
      </trkpt>
      <trkpt lat="45.93704" lon="4.7782">
        <ele>169</ele>
        <time>2018-01-31T09:45:48Z</time>
      </trkpt>
      <trkpt lat="45.93706" lon="4.77824">
        <ele>169</ele>
        <time>2018-01-31T09:45:49Z</time>
      </trkpt>
      <trkpt lat="45.93711" lon="4.77831">
        <ele>169</ele>
        <time>2018-01-31T09:45:51Z</time>
      </trkpt>
      <trkpt lat="45.93714" lon="4.77834">
        <ele>167</ele>
        <time>2018-01-31T09:45:52Z</time>
      </trkpt>
      <trkpt lat="45.93719" lon="4.77841">
        <ele>167</ele>
        <time>2018-01-31T09:45:54Z</time>
      </trkpt>
      <trkpt lat="45.93722" lon="4.77845">
        <ele>167</ele>
        <time>2018-01-31T09:45:55Z</time>
      </trkpt>
      <trkpt lat="45.93727" lon="4.77851">
        <ele>167</ele>
        <time>2018-01-31T09:45:57Z</time>
      </trkpt>
      <trkpt lat="45.9373" lon="4.77855">
        <ele>167</ele>
        <time>2018-01-31T09:45:58Z</time>
      </trkpt>
      <trkpt lat="45.93735" lon="4.77861">
        <ele>167</ele>
        <time>2018-01-31T09:46:00Z</time>
      </trkpt>
      <trkpt lat="45.93738" lon="4.77865">
        <ele>167</ele>
        <time>2018-01-31T09:46:01Z</time>
      </trkpt>
      <trkpt lat="45.93745" lon="4.77873">
        <ele>167</ele>
        <time>2018-01-31T09:46:03Z</time>
      </trkpt>
      <trkpt lat="45.93748" lon="4.77877">
        <ele>167</ele>
        <time>2018-01-31T09:46:04Z</time>
      </trkpt>
      <trkpt lat="45.93754" lon="4.77885">
        <ele>166</ele>
        <time>2018-01-31T09:46:06Z</time>
      </trkpt>
      <trkpt lat="45.93757" lon="4.7789">
        <ele>166</ele>
        <time>2018-01-31T09:46:07Z</time>
      </trkpt>
      <trkpt lat="45.9376" lon="4.77895">
        <ele>166</ele>
        <time>2018-01-31T09:46:08Z</time>
      </trkpt>
      <trkpt lat="45.93764" lon="4.77899">
        <ele>166</ele>
        <time>2018-01-31T09:46:09Z</time>
      </trkpt>
      <trkpt lat="45.93767" lon="4.77904">
        <ele>166</ele>
        <time>2018-01-31T09:46:10Z</time>
      </trkpt>
      <trkpt lat="45.9377" lon="4.77909">
        <ele>166</ele>
        <time>2018-01-31T09:46:11Z</time>
      </trkpt>
      <trkpt lat="45.93773" lon="4.77913">
        <ele>166</ele>
        <time>2018-01-31T09:46:12Z</time>
      </trkpt>
      <trkpt lat="45.93777" lon="4.77918">
        <ele>168</ele>
        <time>2018-01-31T09:46:13Z</time>
      </trkpt>
      <trkpt lat="45.9378" lon="4.77922">
        <ele>168</ele>
        <time>2018-01-31T09:46:14Z</time>
      </trkpt>
      <trkpt lat="45.93784" lon="4.77927">
        <ele>168</ele>
        <time>2018-01-31T09:46:15Z</time>
      </trkpt>
      <trkpt lat="45.93787" lon="4.77931">
        <ele>168</ele>
        <time>2018-01-31T09:46:16Z</time>
      </trkpt>
      <trkpt lat="45.93791" lon="4.77936">
        <ele>168</ele>
        <time>2018-01-31T09:46:17Z</time>
      </trkpt>
      <trkpt lat="45.93794" lon="4.7794">
        <ele>169</ele>
        <time>2018-01-31T09:46:18Z</time>
      </trkpt>
      <trkpt lat="45.93798" lon="4.77944">
        <ele>169</ele>
        <time>2018-01-31T09:46:19Z</time>
      </trkpt>
      <trkpt lat="45.93802" lon="4.77949">
        <ele>169</ele>
        <time>2018-01-31T09:46:20Z</time>
      </trkpt>
      <trkpt lat="45.93806" lon="4.77954">
        <ele>170</ele>
        <time>2018-01-31T09:46:21Z</time>
      </trkpt>
      <trkpt lat="45.9381" lon="4.77959">
        <ele>170</ele>
        <time>2018-01-31T09:46:22Z</time>
      </trkpt>
      <trkpt lat="45.93814" lon="4.77964">
        <ele>171</ele>
        <time>2018-01-31T09:46:23Z</time>
      </trkpt>
      <trkpt lat="45.93819" lon="4.77969">
        <ele>171</ele>
        <time>2018-01-31T09:46:24Z</time>
      </trkpt>
      <trkpt lat="45.93824" lon="4.77975">
        <ele>172</ele>
        <time>2018-01-31T09:46:25Z</time>
      </trkpt>
      <trkpt lat="45.93827" lon="4.77981">
        <ele>173</ele>
        <time>2018-01-31T09:46:26Z</time>
      </trkpt>
      <trkpt lat="45.93831" lon="4.77985">
        <ele>174</ele>
        <time>2018-01-31T09:46:27Z</time>
      </trkpt>
      <trkpt lat="45.93836" lon="4.77994">
        <ele>179</ele>
        <time>2018-01-31T09:46:29Z</time>
      </trkpt>
      <trkpt lat="45.93838" lon="4.78">
        <ele>179</ele>
        <time>2018-01-31T09:46:30Z</time>
      </trkpt>
      <trkpt lat="45.93839" lon="4.78012">
        <ele>181</ele>
        <time>2018-01-31T09:46:32Z</time>
      </trkpt>
      <trkpt lat="45.93839" lon="4.78019">
        <ele>181</ele>
        <time>2018-01-31T09:46:33Z</time>
      </trkpt>
      <trkpt lat="45.93839" lon="4.78025">
        <ele>182</ele>
        <time>2018-01-31T09:46:34Z</time>
      </trkpt>
      <trkpt lat="45.93841" lon="4.78032">
        <ele>182</ele>
        <time>2018-01-31T09:46:35Z</time>
      </trkpt>
      <trkpt lat="45.93843" lon="4.78039">
        <ele>182</ele>
        <time>2018-01-31T09:46:36Z</time>
      </trkpt>
      <trkpt lat="45.93844" lon="4.78045">
        <ele>182</ele>
        <time>2018-01-31T09:46:37Z</time>
      </trkpt>
      <trkpt lat="45.93844" lon="4.78057">
        <ele>182</ele>
        <time>2018-01-31T09:46:39Z</time>
      </trkpt>
      <trkpt lat="45.93844" lon="4.78063">
        <ele>182</ele>
        <time>2018-01-31T09:46:40Z</time>
      </trkpt>
      <trkpt lat="45.93843" lon="4.7807">
        <ele>182</ele>
        <time>2018-01-31T09:46:41Z</time>
      </trkpt>
      <trkpt lat="45.93842" lon="4.78076">
        <ele>181</ele>
        <time>2018-01-31T09:46:42Z</time>
      </trkpt>
      <trkpt lat="45.93841" lon="4.78083">
        <ele>181</ele>
        <time>2018-01-31T09:46:43Z</time>
      </trkpt>
      <trkpt lat="45.9384" lon="4.78089">
        <ele>182</ele>
        <time>2018-01-31T09:46:44Z</time>
      </trkpt>
      <trkpt lat="45.93838" lon="4.781">
        <ele>183</ele>
        <time>2018-01-31T09:46:46Z</time>
      </trkpt>
      <trkpt lat="45.93836" lon="4.78108">
        <ele>184</ele>
        <time>2018-01-31T09:46:47Z</time>
      </trkpt>
      <trkpt lat="45.93833" lon="4.78119">
        <ele>180</ele>
        <time>2018-01-31T09:46:49Z</time>
      </trkpt>
      <trkpt lat="45.93831" lon="4.78125">
        <ele>180</ele>
        <time>2018-01-31T09:46:50Z</time>
      </trkpt>
      <trkpt lat="45.93828" lon="4.78137">
        <ele>180</ele>
        <time>2018-01-31T09:46:52Z</time>
      </trkpt>
      <trkpt lat="45.93826" lon="4.78143">
        <ele>180</ele>
        <time>2018-01-31T09:46:53Z</time>
      </trkpt>
      <trkpt lat="45.93825" lon="4.7815">
        <ele>180</ele>
        <time>2018-01-31T09:46:54Z</time>
      </trkpt>
      <trkpt lat="45.93825" lon="4.78156">
        <ele>181</ele>
        <time>2018-01-31T09:46:55Z</time>
      </trkpt>
      <trkpt lat="45.93822" lon="4.78162">
        <ele>181</ele>
        <time>2018-01-31T09:46:56Z</time>
      </trkpt>
      <trkpt lat="45.93821" lon="4.78168">
        <ele>182</ele>
        <time>2018-01-31T09:46:57Z</time>
      </trkpt>
      <trkpt lat="45.93819" lon="4.7818">
        <ele>182</ele>
        <time>2018-01-31T09:46:59Z</time>
      </trkpt>
      <trkpt lat="45.93818" lon="4.78186">
        <ele>182</ele>
        <time>2018-01-31T09:47:00Z</time>
      </trkpt>
      <trkpt lat="45.93815" lon="4.78198">
        <ele>182</ele>
        <time>2018-01-31T09:47:02Z</time>
      </trkpt>
      <trkpt lat="45.93814" lon="4.78204">
        <ele>182</ele>
        <time>2018-01-31T09:47:03Z</time>
      </trkpt>
      <trkpt lat="45.93812" lon="4.78216">
        <ele>182</ele>
        <time>2018-01-31T09:47:05Z</time>
      </trkpt>
      <trkpt lat="45.93809" lon="4.78221">
        <ele>182</ele>
        <time>2018-01-31T09:47:06Z</time>
      </trkpt>
      <trkpt lat="45.93805" lon="4.78231">
        <ele>182</ele>
        <time>2018-01-31T09:47:08Z</time>
      </trkpt>
      <trkpt lat="45.93802" lon="4.78235">
        <ele>182</ele>
        <time>2018-01-31T09:47:09Z</time>
      </trkpt>
      <trkpt lat="45.93799" lon="4.78241">
        <ele>182</ele>
        <time>2018-01-31T09:47:10Z</time>
      </trkpt>
      <trkpt lat="45.93796" lon="4.78246">
        <ele>182</ele>
        <time>2018-01-31T09:47:11Z</time>
      </trkpt>
      <trkpt lat="45.93792" lon="4.78257">
        <ele>183</ele>
        <time>2018-01-31T09:47:13Z</time>
      </trkpt>
      <trkpt lat="45.93791" lon="4.78263">
        <ele>183</ele>
        <time>2018-01-31T09:47:14Z</time>
      </trkpt>
      <trkpt lat="45.9379" lon="4.7827">
        <ele>183</ele>
        <time>2018-01-31T09:47:15Z</time>
      </trkpt>
      <trkpt lat="45.9379" lon="4.78277">
        <ele>183</ele>
        <time>2018-01-31T09:47:16Z</time>
      </trkpt>
      <trkpt lat="45.93788" lon="4.78283">
        <ele>183</ele>
        <time>2018-01-31T09:47:17Z</time>
      </trkpt>
      <trkpt lat="45.93786" lon="4.7829">
        <ele>183</ele>
        <time>2018-01-31T09:47:18Z</time>
      </trkpt>
      <trkpt lat="45.93783" lon="4.78296">
        <ele>183</ele>
        <time>2018-01-31T09:47:19Z</time>
      </trkpt>
      <trkpt lat="45.93781" lon="4.78303">
        <ele>183</ele>
        <time>2018-01-31T09:47:20Z</time>
      </trkpt>
      <trkpt lat="45.93779" lon="4.7831">
        <ele>183</ele>
        <time>2018-01-31T09:47:21Z</time>
      </trkpt>
      <trkpt lat="45.93778" lon="4.78316">
        <ele>183</ele>
        <time>2018-01-31T09:47:22Z</time>
      </trkpt>
      <trkpt lat="45.93776" lon="4.78323">
        <ele>183</ele>
        <time>2018-01-31T09:47:23Z</time>
      </trkpt>
      <trkpt lat="45.93775" lon="4.78329">
        <ele>183</ele>
        <time>2018-01-31T09:47:24Z</time>
      </trkpt>
      <trkpt lat="45.93772" lon="4.78335">
        <ele>183</ele>
        <time>2018-01-31T09:47:25Z</time>
      </trkpt>
      <trkpt lat="45.9377" lon="4.78342">
        <ele>183</ele>
        <time>2018-01-31T09:47:26Z</time>
      </trkpt>
      <trkpt lat="45.93768" lon="4.78348">
        <ele>183</ele>
        <time>2018-01-31T09:47:27Z</time>
      </trkpt>
      <trkpt lat="45.93766" lon="4.78354">
        <ele>183</ele>
        <time>2018-01-31T09:47:28Z</time>
      </trkpt>
      <trkpt lat="45.93764" lon="4.78361">
        <ele>183</ele>
        <time>2018-01-31T09:47:29Z</time>
      </trkpt>
      <trkpt lat="45.93763" lon="4.78367">
        <ele>183</ele>
        <time>2018-01-31T09:47:30Z</time>
      </trkpt>
      <trkpt lat="45.93761" lon="4.78374">
        <ele>183</ele>
        <time>2018-01-31T09:47:31Z</time>
      </trkpt>
      <trkpt lat="45.93759" lon="4.78382">
        <ele>183</ele>
        <time>2018-01-31T09:47:32Z</time>
      </trkpt>
      <trkpt lat="45.93757" lon="4.78389">
        <ele>183</ele>
        <time>2018-01-31T09:47:33Z</time>
      </trkpt>
      <trkpt lat="45.93756" lon="4.78396">
        <ele>183</ele>
        <time>2018-01-31T09:47:34Z</time>
      </trkpt>
      <trkpt lat="45.93754" lon="4.78403">
        <ele>182</ele>
        <time>2018-01-31T09:47:35Z</time>
      </trkpt>
      <trkpt lat="45.93752" lon="4.78411">
        <ele>182</ele>
        <time>2018-01-31T09:47:36Z</time>
      </trkpt>
      <trkpt lat="45.93751" lon="4.78418">
        <ele>181</ele>
        <time>2018-01-31T09:47:37Z</time>
      </trkpt>
      <trkpt lat="45.93749" lon="4.78425">
        <ele>181</ele>
        <time>2018-01-31T09:47:38Z</time>
      </trkpt>
      <trkpt lat="45.93747" lon="4.78432">
        <ele>180</ele>
        <time>2018-01-31T09:47:39Z</time>
      </trkpt>
      <trkpt lat="45.93745" lon="4.7844">
        <ele>180</ele>
        <time>2018-01-31T09:47:40Z</time>
      </trkpt>
      <trkpt lat="45.93744" lon="4.78448">
        <ele>180</ele>
        <time>2018-01-31T09:47:41Z</time>
      </trkpt>
      <trkpt lat="45.93742" lon="4.78456">
        <ele>180</ele>
        <time>2018-01-31T09:47:42Z</time>
      </trkpt>
      <trkpt lat="45.9374" lon="4.78465">
        <ele>180</ele>
        <time>2018-01-31T09:47:43Z</time>
      </trkpt>
      <trkpt lat="45.93737" lon="4.78471">
        <ele>180</ele>
        <time>2018-01-31T09:47:44Z</time>
      </trkpt>
      <trkpt lat="45.93735" lon="4.78478">
        <ele>180</ele>
        <time>2018-01-31T09:47:45Z</time>
      </trkpt>
      <trkpt lat="45.93733" lon="4.78486">
        <ele>180</ele>
        <time>2018-01-31T09:47:46Z</time>
      </trkpt>
      <trkpt lat="45.93732" lon="4.78494">
        <ele>180</ele>
        <time>2018-01-31T09:47:47Z</time>
      </trkpt>
      <trkpt lat="45.93729" lon="4.78501">
        <ele>179</ele>
        <time>2018-01-31T09:47:48Z</time>
      </trkpt>
      <trkpt lat="45.93727" lon="4.78509">
        <ele>179</ele>
        <time>2018-01-31T09:47:49Z</time>
      </trkpt>
      <trkpt lat="45.93725" lon="4.78516">
        <ele>179</ele>
        <time>2018-01-31T09:47:50Z</time>
      </trkpt>
      <trkpt lat="45.93723" lon="4.78524">
        <ele>178</ele>
        <time>2018-01-31T09:47:51Z</time>
      </trkpt>
      <trkpt lat="45.93721" lon="4.78531">
        <ele>178</ele>
        <time>2018-01-31T09:47:52Z</time>
      </trkpt>
      <trkpt lat="45.93719" lon="4.78539">
        <ele>178</ele>
        <time>2018-01-31T09:47:53Z</time>
      </trkpt>
      <trkpt lat="45.93717" lon="4.78546">
        <ele>178</ele>
        <time>2018-01-31T09:47:54Z</time>
      </trkpt>
      <trkpt lat="45.93716" lon="4.78554">
        <ele>178</ele>
        <time>2018-01-31T09:47:55Z</time>
      </trkpt>
      <trkpt lat="45.93714" lon="4.78561">
        <ele>178</ele>
        <time>2018-01-31T09:47:56Z</time>
      </trkpt>
      <trkpt lat="45.93712" lon="4.7857">
        <ele>178</ele>
        <time>2018-01-31T09:47:57Z</time>
      </trkpt>
      <trkpt lat="45.93711" lon="4.78579">
        <ele>177</ele>
        <time>2018-01-31T09:47:58Z</time>
      </trkpt>
      <trkpt lat="45.93709" lon="4.78587">
        <ele>176</ele>
        <time>2018-01-31T09:47:59Z</time>
      </trkpt>
      <trkpt lat="45.93708" lon="4.78595">
        <ele>176</ele>
        <time>2018-01-31T09:48:00Z</time>
      </trkpt>
      <trkpt lat="45.93704" lon="4.78606">
        <ele>176</ele>
        <time>2018-01-31T09:48:02Z</time>
      </trkpt>
      <trkpt lat="45.93702" lon="4.78612">
        <ele>176</ele>
        <time>2018-01-31T09:48:03Z</time>
      </trkpt>
      <trkpt lat="45.93701" lon="4.78618">
        <ele>176</ele>
        <time>2018-01-31T09:48:04Z</time>
      </trkpt>
      <trkpt lat="45.93701" lon="4.78624">
        <ele>176</ele>
        <time>2018-01-31T09:48:05Z</time>
      </trkpt>
      <trkpt lat="45.93703" lon="4.7863">
        <ele>176</ele>
        <time>2018-01-31T09:48:06Z</time>
      </trkpt>
      <trkpt lat="45.93707" lon="4.78634">
        <ele>176</ele>
        <time>2018-01-31T09:48:07Z</time>
      </trkpt>
      <trkpt lat="45.93715" lon="4.78634">
        <ele>176</ele>
        <time>2018-01-31T09:48:09Z</time>
      </trkpt>
      <trkpt lat="45.93719" lon="4.78633">
        <ele>177</ele>
        <time>2018-01-31T09:48:10Z</time>
      </trkpt>
      <trkpt lat="45.93727" lon="4.7863">
        <ele>177</ele>
        <time>2018-01-31T09:48:12Z</time>
      </trkpt>
      <trkpt lat="45.93731" lon="4.78629">
        <ele>177</ele>
        <time>2018-01-31T09:48:13Z</time>
      </trkpt>
      <trkpt lat="45.93738" lon="4.78626">
        <ele>177</ele>
        <time>2018-01-31T09:48:15Z</time>
      </trkpt>
      <trkpt lat="45.93742" lon="4.78626">
        <ele>177</ele>
        <time>2018-01-31T09:48:16Z</time>
      </trkpt>
      <trkpt lat="45.9375" lon="4.78625">
        <ele>181</ele>
        <time>2018-01-31T09:48:19Z</time>
      </trkpt>
      <trkpt lat="45.93753" lon="4.78624">
        <ele>181</ele>
        <time>2018-01-31T09:48:20Z</time>
      </trkpt>
      <trkpt lat="45.93761" lon="4.78621">
        <ele>181</ele>
        <time>2018-01-31T09:48:23Z</time>
      </trkpt>
      <trkpt lat="45.93763" lon="4.7862">
        <ele>181</ele>
        <time>2018-01-31T09:48:24Z</time>
      </trkpt>
      <trkpt lat="45.93772" lon="4.78618">
        <ele>181</ele>
        <time>2018-01-31T09:48:29Z</time>
      </trkpt>
      <trkpt lat="45.93774" lon="4.78618">
        <ele>181</ele>
        <time>2018-01-31T09:48:30Z</time>
      </trkpt>
      <trkpt lat="45.9378" lon="4.78616">
        <ele>181</ele>
        <time>2018-01-31T09:48:33Z</time>
      </trkpt>
      <trkpt lat="45.93783" lon="4.78616">
        <ele>182</ele>
        <time>2018-01-31T09:48:34Z</time>
      </trkpt>
      <trkpt lat="45.93792" lon="4.78614">
        <ele>182</ele>
        <time>2018-01-31T09:48:37Z</time>
      </trkpt>
      <trkpt lat="45.93795" lon="4.78613">
        <ele>182</ele>
        <time>2018-01-31T09:48:38Z</time>
      </trkpt>
      <trkpt lat="45.93802" lon="4.78612">
        <ele>182</ele>
        <time>2018-01-31T09:48:40Z</time>
      </trkpt>
      <trkpt lat="45.93805" lon="4.78612">
        <ele>183</ele>
        <time>2018-01-31T09:48:41Z</time>
      </trkpt>
      <trkpt lat="45.93812" lon="4.7861">
        <ele>183</ele>
        <time>2018-01-31T09:48:43Z</time>
      </trkpt>
      <trkpt lat="45.93815" lon="4.78609">
        <ele>183</ele>
        <time>2018-01-31T09:48:44Z</time>
      </trkpt>
      <trkpt lat="45.93823" lon="4.78607">
        <ele>184</ele>
        <time>2018-01-31T09:48:47Z</time>
      </trkpt>
      <trkpt lat="45.93826" lon="4.78606">
        <ele>184</ele>
        <time>2018-01-31T09:48:48Z</time>
      </trkpt>
      <trkpt lat="45.93835" lon="4.78604">
        <ele>187</ele>
        <time>2018-01-31T09:48:51Z</time>
      </trkpt>
      <trkpt lat="45.93838" lon="4.78603">
        <ele>187</ele>
        <time>2018-01-31T09:48:52Z</time>
      </trkpt>
      <trkpt lat="45.93845" lon="4.78602">
        <ele>188</ele>
        <time>2018-01-31T09:48:55Z</time>
      </trkpt>
      <trkpt lat="45.93848" lon="4.78602">
        <ele>188</ele>
        <time>2018-01-31T09:48:56Z</time>
      </trkpt>
      <trkpt lat="45.93856" lon="4.78599">
        <ele>188</ele>
        <time>2018-01-31T09:48:59Z</time>
      </trkpt>
      <trkpt lat="45.93858" lon="4.78599">
        <ele>188</ele>
        <time>2018-01-31T09:49:00Z</time>
      </trkpt>
      <trkpt lat="45.93866" lon="4.786">
        <ele>188</ele>
        <time>2018-01-31T09:49:03Z</time>
      </trkpt>
      <trkpt lat="45.93868" lon="4.786">
        <ele>188</ele>
        <time>2018-01-31T09:49:04Z</time>
      </trkpt>
      <trkpt lat="45.93876" lon="4.78596">
        <ele>189</ele>
        <time>2018-01-31T09:49:07Z</time>
      </trkpt>
      <trkpt lat="45.93878" lon="4.78596">
        <ele>189</ele>
        <time>2018-01-31T09:49:08Z</time>
      </trkpt>
      <trkpt lat="45.93886" lon="4.78593">
        <ele>189</ele>
        <time>2018-01-31T09:49:11Z</time>
      </trkpt>
      <trkpt lat="45.93889" lon="4.78592">
        <ele>190</ele>
        <time>2018-01-31T09:49:12Z</time>
      </trkpt>
      <trkpt lat="45.93897" lon="4.78589">
        <ele>190</ele>
        <time>2018-01-31T09:49:16Z</time>
      </trkpt>
      <trkpt lat="45.93899" lon="4.78587">
        <ele>191</ele>
        <time>2018-01-31T09:49:17Z</time>
      </trkpt>
      <trkpt lat="45.93907" lon="4.78585">
        <ele>191</ele>
        <time>2018-01-31T09:49:21Z</time>
      </trkpt>
      <trkpt lat="45.93909" lon="4.78585">
        <ele>192</ele>
        <time>2018-01-31T09:49:22Z</time>
      </trkpt>
      <trkpt lat="45.93916" lon="4.78582">
        <ele>193</ele>
        <time>2018-01-31T09:49:25Z</time>
      </trkpt>
      <trkpt lat="45.93919" lon="4.7858">
        <ele>194</ele>
        <time>2018-01-31T09:49:26Z</time>
      </trkpt>
      <trkpt lat="45.93925" lon="4.78573">
        <ele>195</ele>
        <time>2018-01-31T09:49:29Z</time>
      </trkpt>
      <trkpt lat="45.93926" lon="4.78571">
        <ele>195</ele>
        <time>2018-01-31T09:49:30Z</time>
      </trkpt>
      <trkpt lat="45.93934" lon="4.78575">
        <ele>196</ele>
        <time>2018-01-31T09:49:35Z</time>
      </trkpt>
      <trkpt lat="45.93934" lon="4.78579">
        <ele>196</ele>
        <time>2018-01-31T09:49:36Z</time>
      </trkpt>
      <trkpt lat="45.93934" lon="4.7859">
        <ele>195</ele>
        <time>2018-01-31T09:49:38Z</time>
      </trkpt>
      <trkpt lat="45.93934" lon="4.78596">
        <ele>195</ele>
        <time>2018-01-31T09:49:39Z</time>
      </trkpt>
      <trkpt lat="45.93934" lon="4.78606">
        <ele>195</ele>
        <time>2018-01-31T09:49:41Z</time>
      </trkpt>
      <trkpt lat="45.93934" lon="4.78611">
        <ele>195</ele>
        <time>2018-01-31T09:49:42Z</time>
      </trkpt>
      <trkpt lat="45.93934" lon="4.7862">
        <ele>195</ele>
        <time>2018-01-31T09:49:44Z</time>
      </trkpt>
      <trkpt lat="45.93934" lon="4.78625">
        <ele>195</ele>
        <time>2018-01-31T09:49:45Z</time>
      </trkpt>
      <trkpt lat="45.93934" lon="4.78635">
        <ele>195</ele>
        <time>2018-01-31T09:49:47Z</time>
      </trkpt>
      <trkpt lat="45.93933" lon="4.78641">
        <ele>195</ele>
        <time>2018-01-31T09:49:48Z</time>
      </trkpt>
      <trkpt lat="45.93933" lon="4.78653">
        <ele>194</ele>
        <time>2018-01-31T09:49:50Z</time>
      </trkpt>
      <trkpt lat="45.93933" lon="4.78659">
        <ele>194</ele>
        <time>2018-01-31T09:49:51Z</time>
      </trkpt>
      <trkpt lat="45.93933" lon="4.78671">
        <ele>193</ele>
        <time>2018-01-31T09:49:53Z</time>
      </trkpt>
      <trkpt lat="45.93933" lon="4.78677">
        <ele>193</ele>
        <time>2018-01-31T09:49:54Z</time>
      </trkpt>
      <trkpt lat="45.93933" lon="4.78684">
        <ele>193</ele>
        <time>2018-01-31T09:49:55Z</time>
      </trkpt>
      <trkpt lat="45.93933" lon="4.7869">
        <ele>194</ele>
        <time>2018-01-31T09:49:56Z</time>
      </trkpt>
      <trkpt lat="45.93934" lon="4.78703">
        <ele>194</ele>
        <time>2018-01-31T09:49:58Z</time>
      </trkpt>
      <trkpt lat="45.93934" lon="4.78709">
        <ele>194</ele>
        <time>2018-01-31T09:49:59Z</time>
      </trkpt>
      <trkpt lat="45.93933" lon="4.78721">
        <ele>194</ele>
        <time>2018-01-31T09:50:01Z</time>
      </trkpt>
      <trkpt lat="45.93934" lon="4.78727">
        <ele>193</ele>
        <time>2018-01-31T09:50:02Z</time>
      </trkpt>
      <trkpt lat="45.93934" lon="4.7874">
        <ele>193</ele>
        <time>2018-01-31T09:50:04Z</time>
      </trkpt>
      <trkpt lat="45.93934" lon="4.78746">
        <ele>193</ele>
        <time>2018-01-31T09:50:05Z</time>
      </trkpt>
      <trkpt lat="45.93934" lon="4.78752">
        <ele>193</ele>
        <time>2018-01-31T09:50:06Z</time>
      </trkpt>
      <trkpt lat="45.93933" lon="4.78759">
        <ele>193</ele>
        <time>2018-01-31T09:50:07Z</time>
      </trkpt>
      <trkpt lat="45.93933" lon="4.78772">
        <ele>193</ele>
        <time>2018-01-31T09:50:09Z</time>
      </trkpt>
      <trkpt lat="45.93933" lon="4.78778">
        <ele>194</ele>
        <time>2018-01-31T09:50:10Z</time>
      </trkpt>
      <trkpt lat="45.93933" lon="4.78789">
        <ele>194</ele>
        <time>2018-01-31T09:50:12Z</time>
      </trkpt>
      <trkpt lat="45.93934" lon="4.78795">
        <ele>194</ele>
        <time>2018-01-31T09:50:13Z</time>
      </trkpt>
      <trkpt lat="45.93935" lon="4.78802">
        <ele>194</ele>
        <time>2018-01-31T09:50:15Z</time>
      </trkpt>
      <trkpt lat="45.93935" lon="4.78808">
        <ele>194</ele>
        <time>2018-01-31T09:50:16Z</time>
      </trkpt>
      <trkpt lat="45.93935" lon="4.78814">
        <ele>194</ele>
        <time>2018-01-31T09:50:17Z</time>
      </trkpt>
      <trkpt lat="45.93936" lon="4.78821">
        <ele>193</ele>
        <time>2018-01-31T09:50:18Z</time>
      </trkpt>
      <trkpt lat="45.93937" lon="4.78834">
        <ele>193</ele>
        <time>2018-01-31T09:50:20Z</time>
      </trkpt>
      <trkpt lat="45.93937" lon="4.78839">
        <ele>193</ele>
        <time>2018-01-31T09:50:21Z</time>
      </trkpt>
      <trkpt lat="45.93937" lon="4.78851">
        <ele>193</ele>
        <time>2018-01-31T09:50:23Z</time>
      </trkpt>
      <trkpt lat="45.93938" lon="4.78857">
        <ele>194</ele>
        <time>2018-01-31T09:50:24Z</time>
      </trkpt>
      <trkpt lat="45.93938" lon="4.78869">
        <ele>194</ele>
        <time>2018-01-31T09:50:26Z</time>
      </trkpt>
      <trkpt lat="45.93938" lon="4.78875">
        <ele>194</ele>
        <time>2018-01-31T09:50:27Z</time>
      </trkpt>
      <trkpt lat="45.93938" lon="4.78887">
        <ele>193</ele>
        <time>2018-01-31T09:50:29Z</time>
      </trkpt>
      <trkpt lat="45.93938" lon="4.78893">
        <ele>193</ele>
        <time>2018-01-31T09:50:30Z</time>
      </trkpt>
      <trkpt lat="45.93939" lon="4.78904">
        <ele>193</ele>
        <time>2018-01-31T09:50:32Z</time>
      </trkpt>
      <trkpt lat="45.93939" lon="4.7891">
        <ele>193</ele>
        <time>2018-01-31T09:50:33Z</time>
      </trkpt>
      <trkpt lat="45.9394" lon="4.78922">
        <ele>193</ele>
        <time>2018-01-31T09:50:35Z</time>
      </trkpt>
      <trkpt lat="45.9394" lon="4.78928">
        <ele>193</ele>
        <time>2018-01-31T09:50:36Z</time>
      </trkpt>
      <trkpt lat="45.9394" lon="4.78934">
        <ele>193</ele>
        <time>2018-01-31T09:50:37Z</time>
      </trkpt>
      <trkpt lat="45.9394" lon="4.78941">
        <ele>193</ele>
        <time>2018-01-31T09:50:38Z</time>
      </trkpt>
      <trkpt lat="45.93941" lon="4.78953">
        <ele>194</ele>
        <time>2018-01-31T09:50:40Z</time>
      </trkpt>
      <trkpt lat="45.93941" lon="4.7896">
        <ele>194</ele>
        <time>2018-01-31T09:50:41Z</time>
      </trkpt>
      <trkpt lat="45.93941" lon="4.78966">
        <ele>194</ele>
        <time>2018-01-31T09:50:42Z</time>
      </trkpt>
      <trkpt lat="45.93941" lon="4.78972">
        <ele>194</ele>
        <time>2018-01-31T09:50:43Z</time>
      </trkpt>
      <trkpt lat="45.93941" lon="4.78979">
        <ele>194</ele>
        <time>2018-01-31T09:50:44Z</time>
      </trkpt>
      <trkpt lat="45.93942" lon="4.78986">
        <ele>194</ele>
        <time>2018-01-31T09:50:45Z</time>
      </trkpt>
      <trkpt lat="45.93942" lon="4.78998">
        <ele>193</ele>
        <time>2018-01-31T09:50:47Z</time>
      </trkpt>
      <trkpt lat="45.93942" lon="4.79004">
        <ele>194</ele>
        <time>2018-01-31T09:50:48Z</time>
      </trkpt>
      <trkpt lat="45.93943" lon="4.79011">
        <ele>195</ele>
        <time>2018-01-31T09:50:49Z</time>
      </trkpt>
      <trkpt lat="45.93944" lon="4.79017">
        <ele>195</ele>
        <time>2018-01-31T09:50:50Z</time>
      </trkpt>
      <trkpt lat="45.93945" lon="4.79024">
        <ele>195</ele>
        <time>2018-01-31T09:50:51Z</time>
      </trkpt>
      <trkpt lat="45.93945" lon="4.7903">
        <ele>195</ele>
        <time>2018-01-31T09:50:52Z</time>
      </trkpt>
      <trkpt lat="45.93945" lon="4.79037">
        <ele>195</ele>
        <time>2018-01-31T09:50:53Z</time>
      </trkpt>
      <trkpt lat="45.93945" lon="4.79043">
        <ele>195</ele>
        <time>2018-01-31T09:50:54Z</time>
      </trkpt>
      <trkpt lat="45.93945" lon="4.79055">
        <ele>196</ele>
        <time>2018-01-31T09:50:56Z</time>
      </trkpt>
      <trkpt lat="45.93947" lon="4.79061">
        <ele>196</ele>
        <time>2018-01-31T09:50:57Z</time>
      </trkpt>
      <trkpt lat="45.93948" lon="4.79073">
        <ele>196</ele>
        <time>2018-01-31T09:50:59Z</time>
      </trkpt>
      <trkpt lat="45.93948" lon="4.79079">
        <ele>196</ele>
        <time>2018-01-31T09:51:00Z</time>
      </trkpt>
      <trkpt lat="45.93947" lon="4.79091">
        <ele>196</ele>
        <time>2018-01-31T09:51:02Z</time>
      </trkpt>
      <trkpt lat="45.93948" lon="4.79098">
        <ele>196</ele>
        <time>2018-01-31T09:51:03Z</time>
      </trkpt>
      <trkpt lat="45.93949" lon="4.7911">
        <ele>197</ele>
        <time>2018-01-31T09:51:05Z</time>
      </trkpt>
      <trkpt lat="45.9395" lon="4.79117">
        <ele>197</ele>
        <time>2018-01-31T09:51:06Z</time>
      </trkpt>
      <trkpt lat="45.9395" lon="4.79129">
        <ele>197</ele>
        <time>2018-01-31T09:51:08Z</time>
      </trkpt>
      <trkpt lat="45.9395" lon="4.79135">
        <ele>197</ele>
        <time>2018-01-31T09:51:09Z</time>
      </trkpt>
      <trkpt lat="45.9395" lon="4.79147">
        <ele>197</ele>
        <time>2018-01-31T09:51:11Z</time>
      </trkpt>
      <trkpt lat="45.9395" lon="4.79153">
        <ele>197</ele>
        <time>2018-01-31T09:51:12Z</time>
      </trkpt>
      <trkpt lat="45.93949" lon="4.79164">
        <ele>196</ele>
        <time>2018-01-31T09:51:14Z</time>
      </trkpt>
      <trkpt lat="45.9395" lon="4.7917">
        <ele>197</ele>
        <time>2018-01-31T09:51:15Z</time>
      </trkpt>
      <trkpt lat="45.9395" lon="4.79182">
        <ele>197</ele>
        <time>2018-01-31T09:51:17Z</time>
      </trkpt>
      <trkpt lat="45.9395" lon="4.79187">
        <ele>197</ele>
        <time>2018-01-31T09:51:18Z</time>
      </trkpt>
      <trkpt lat="45.9395" lon="4.79198">
        <ele>197</ele>
        <time>2018-01-31T09:51:20Z</time>
      </trkpt>
      <trkpt lat="45.93949" lon="4.79204">
        <ele>197</ele>
        <time>2018-01-31T09:51:21Z</time>
      </trkpt>
      <trkpt lat="45.93949" lon="4.79216">
        <ele>197</ele>
        <time>2018-01-31T09:51:23Z</time>
      </trkpt>
      <trkpt lat="45.93949" lon="4.79222">
        <ele>197</ele>
        <time>2018-01-31T09:51:24Z</time>
      </trkpt>
      <trkpt lat="45.93949" lon="4.79233">
        <ele>197</ele>
        <time>2018-01-31T09:51:26Z</time>
      </trkpt>
      <trkpt lat="45.93949" lon="4.79239">
        <ele>197</ele>
        <time>2018-01-31T09:51:27Z</time>
      </trkpt>
      <trkpt lat="45.93949" lon="4.79251">
        <ele>197</ele>
        <time>2018-01-31T09:51:29Z</time>
      </trkpt>
      <trkpt lat="45.93949" lon="4.79257">
        <ele>197</ele>
        <time>2018-01-31T09:51:30Z</time>
      </trkpt>
      <trkpt lat="45.9395" lon="4.79269">
        <ele>198</ele>
        <time>2018-01-31T09:51:32Z</time>
      </trkpt>
      <trkpt lat="45.9395" lon="4.79274">
        <ele>198</ele>
        <time>2018-01-31T09:51:33Z</time>
      </trkpt>
      <trkpt lat="45.9395" lon="4.79285">
        <ele>198</ele>
        <time>2018-01-31T09:51:35Z</time>
      </trkpt>
      <trkpt lat="45.9395" lon="4.79291">
        <ele>198</ele>
        <time>2018-01-31T09:51:36Z</time>
      </trkpt>
      <trkpt lat="45.9395" lon="4.79301">
        <ele>198</ele>
        <time>2018-01-31T09:51:38Z</time>
      </trkpt>
      <trkpt lat="45.9395" lon="4.79306">
        <ele>198</ele>
        <time>2018-01-31T09:51:39Z</time>
      </trkpt>
      <trkpt lat="45.9395" lon="4.79317">
        <ele>198</ele>
        <time>2018-01-31T09:51:41Z</time>
      </trkpt>
      <trkpt lat="45.9395" lon="4.79321">
        <ele>198</ele>
        <time>2018-01-31T09:51:42Z</time>
      </trkpt>
      <trkpt lat="45.93951" lon="4.79332">
        <ele>198</ele>
        <time>2018-01-31T09:51:44Z</time>
      </trkpt>
      <trkpt lat="45.93951" lon="4.79338">
        <ele>200</ele>
        <time>2018-01-31T09:51:45Z</time>
      </trkpt>
      <trkpt lat="45.93951" lon="4.79348">
        <ele>200</ele>
        <time>2018-01-31T09:51:47Z</time>
      </trkpt>
      <trkpt lat="45.93951" lon="4.79353">
        <ele>200</ele>
        <time>2018-01-31T09:51:48Z</time>
      </trkpt>
      <trkpt lat="45.93951" lon="4.79364">
        <ele>200</ele>
        <time>2018-01-31T09:51:50Z</time>
      </trkpt>
      <trkpt lat="45.93951" lon="4.7937">
        <ele>201</ele>
        <time>2018-01-31T09:51:51Z</time>
      </trkpt>
      <trkpt lat="45.93951" lon="4.79381">
        <ele>201</ele>
        <time>2018-01-31T09:51:53Z</time>
      </trkpt>
      <trkpt lat="45.93951" lon="4.79386">
        <ele>201</ele>
        <time>2018-01-31T09:51:54Z</time>
      </trkpt>
      <trkpt lat="45.93951" lon="4.79397">
        <ele>201</ele>
        <time>2018-01-31T09:51:56Z</time>
      </trkpt>
      <trkpt lat="45.93951" lon="4.79402">
        <ele>201</ele>
        <time>2018-01-31T09:51:57Z</time>
      </trkpt>
      <trkpt lat="45.93951" lon="4.79411">
        <ele>201</ele>
        <time>2018-01-31T09:51:59Z</time>
      </trkpt>
      <trkpt lat="45.93951" lon="4.79416">
        <ele>201</ele>
        <time>2018-01-31T09:52:00Z</time>
      </trkpt>
      <trkpt lat="45.93949" lon="4.79425">
        <ele>202</ele>
        <time>2018-01-31T09:52:02Z</time>
      </trkpt>
      <trkpt lat="45.93948" lon="4.79429">
        <ele>202</ele>
        <time>2018-01-31T09:52:03Z</time>
      </trkpt>
      <trkpt lat="45.93947" lon="4.79439">
        <ele>202</ele>
        <time>2018-01-31T09:52:05Z</time>
      </trkpt>
      <trkpt lat="45.93947" lon="4.79444">
        <ele>202</ele>
        <time>2018-01-31T09:52:06Z</time>
      </trkpt>
      <trkpt lat="45.93946" lon="4.79454">
        <ele>202</ele>
        <time>2018-01-31T09:52:08Z</time>
      </trkpt>
      <trkpt lat="45.93946" lon="4.7946">
        <ele>202</ele>
        <time>2018-01-31T09:52:09Z</time>
      </trkpt>
      <trkpt lat="45.93946" lon="4.79471">
        <ele>202</ele>
        <time>2018-01-31T09:52:11Z</time>
      </trkpt>
      <trkpt lat="45.93946" lon="4.79477">
        <ele>202</ele>
        <time>2018-01-31T09:52:12Z</time>
      </trkpt>
      <trkpt lat="45.93946" lon="4.79488">
        <ele>202</ele>
        <time>2018-01-31T09:52:14Z</time>
      </trkpt>
      <trkpt lat="45.93946" lon="4.79493">
        <ele>202</ele>
        <time>2018-01-31T09:52:15Z</time>
      </trkpt>
      <trkpt lat="45.93947" lon="4.79504">
        <ele>203</ele>
        <time>2018-01-31T09:52:17Z</time>
      </trkpt>
      <trkpt lat="45.93948" lon="4.7951">
        <ele>203</ele>
        <time>2018-01-31T09:52:18Z</time>
      </trkpt>
      <trkpt lat="45.93949" lon="4.79521">
        <ele>204</ele>
        <time>2018-01-31T09:52:20Z</time>
      </trkpt>
      <trkpt lat="45.93949" lon="4.79527">
        <ele>204</ele>
        <time>2018-01-31T09:52:21Z</time>
      </trkpt>
      <trkpt lat="45.9395" lon="4.79538">
        <ele>204</ele>
        <time>2018-01-31T09:52:23Z</time>
      </trkpt>
      <trkpt lat="45.93951" lon="4.79544">
        <ele>205</ele>
        <time>2018-01-31T09:52:24Z</time>
      </trkpt>
      <trkpt lat="45.93952" lon="4.79555">
        <ele>205</ele>
        <time>2018-01-31T09:52:26Z</time>
      </trkpt>
      <trkpt lat="45.93953" lon="4.79561">
        <ele>205</ele>
        <time>2018-01-31T09:52:27Z</time>
      </trkpt>
      <trkpt lat="45.93954" lon="4.79572">
        <ele>205</ele>
        <time>2018-01-31T09:52:29Z</time>
      </trkpt>
      <trkpt lat="45.93954" lon="4.79578">
        <ele>205</ele>
        <time>2018-01-31T09:52:30Z</time>
      </trkpt>
      <trkpt lat="45.93955" lon="4.7959">
        <ele>206</ele>
        <time>2018-01-31T09:52:32Z</time>
      </trkpt>
      <trkpt lat="45.93956" lon="4.79595">
        <ele>206</ele>
        <time>2018-01-31T09:52:33Z</time>
      </trkpt>
      <trkpt lat="45.93957" lon="4.79607">
        <ele>207</ele>
        <time>2018-01-31T09:52:35Z</time>
      </trkpt>
      <trkpt lat="45.93958" lon="4.79613">
        <ele>207</ele>
        <time>2018-01-31T09:52:36Z</time>
      </trkpt>
      <trkpt lat="45.9396" lon="4.79624">
        <ele>207</ele>
        <time>2018-01-31T09:52:38Z</time>
      </trkpt>
      <trkpt lat="45.9396" lon="4.7963">
        <ele>207</ele>
        <time>2018-01-31T09:52:39Z</time>
      </trkpt>
      <trkpt lat="45.93961" lon="4.79637">
        <ele>207</ele>
        <time>2018-01-31T09:52:40Z</time>
      </trkpt>
      <trkpt lat="45.93961" lon="4.79643">
        <ele>207</ele>
        <time>2018-01-31T09:52:41Z</time>
      </trkpt>
      <trkpt lat="45.93962" lon="4.7965">
        <ele>207</ele>
        <time>2018-01-31T09:52:42Z</time>
      </trkpt>
      <trkpt lat="45.93963" lon="4.79656">
        <ele>207</ele>
        <time>2018-01-31T09:52:43Z</time>
      </trkpt>
      <trkpt lat="45.93963" lon="4.79668">
        <ele>207</ele>
        <time>2018-01-31T09:52:45Z</time>
      </trkpt>
      <trkpt lat="45.93964" lon="4.79673">
        <ele>207</ele>
        <time>2018-01-31T09:52:46Z</time>
      </trkpt>
      <trkpt lat="45.93964" lon="4.79684">
        <ele>207</ele>
        <time>2018-01-31T09:52:48Z</time>
      </trkpt>
      <trkpt lat="45.93965" lon="4.7969">
        <ele>207</ele>
        <time>2018-01-31T09:52:49Z</time>
      </trkpt>
      <trkpt lat="45.93966" lon="4.79702">
        <ele>207</ele>
        <time>2018-01-31T09:52:51Z</time>
      </trkpt>
      <trkpt lat="45.93966" lon="4.79708">
        <ele>207</ele>
        <time>2018-01-31T09:52:52Z</time>
      </trkpt>
      <trkpt lat="45.93967" lon="4.7972">
        <ele>207</ele>
        <time>2018-01-31T09:52:54Z</time>
      </trkpt>
      <trkpt lat="45.93968" lon="4.79726">
        <ele>206</ele>
        <time>2018-01-31T09:52:55Z</time>
      </trkpt>
      <trkpt lat="45.93969" lon="4.79738">
        <ele>206</ele>
        <time>2018-01-31T09:52:57Z</time>
      </trkpt>
      <trkpt lat="45.93969" lon="4.79744">
        <ele>206</ele>
        <time>2018-01-31T09:52:58Z</time>
      </trkpt>
      <trkpt lat="45.9397" lon="4.7975">
        <ele>206</ele>
        <time>2018-01-31T09:52:59Z</time>
      </trkpt>
      <trkpt lat="45.9397" lon="4.79757">
        <ele>206</ele>
        <time>2018-01-31T09:53:00Z</time>
      </trkpt>
      <trkpt lat="45.93972" lon="4.79764">
        <ele>206</ele>
        <time>2018-01-31T09:53:01Z</time>
      </trkpt>
      <trkpt lat="45.93972" lon="4.7977">
        <ele>206</ele>
        <time>2018-01-31T09:53:02Z</time>
      </trkpt>
      <trkpt lat="45.93972" lon="4.79778">
        <ele>206</ele>
        <time>2018-01-31T09:53:03Z</time>
      </trkpt>
      <trkpt lat="45.93972" lon="4.79785">
        <ele>206</ele>
        <time>2018-01-31T09:53:04Z</time>
      </trkpt>
      <trkpt lat="45.93971" lon="4.79797">
        <ele>206</ele>
        <time>2018-01-31T09:53:06Z</time>
      </trkpt>
      <trkpt lat="45.93971" lon="4.79802">
        <ele>206</ele>
        <time>2018-01-31T09:53:07Z</time>
      </trkpt>
      <trkpt lat="45.93969" lon="4.79813">
        <ele>207</ele>
        <time>2018-01-31T09:53:09Z</time>
      </trkpt>
      <trkpt lat="45.93968" lon="4.79819">
        <ele>207</ele>
        <time>2018-01-31T09:53:10Z</time>
      </trkpt>
      <trkpt lat="45.93967" lon="4.79831">
        <ele>207</ele>
        <time>2018-01-31T09:53:12Z</time>
      </trkpt>
      <trkpt lat="45.93966" lon="4.79838">
        <ele>206</ele>
        <time>2018-01-31T09:53:13Z</time>
      </trkpt>
      <trkpt lat="45.93965" lon="4.79845">
        <ele>206</ele>
        <time>2018-01-31T09:53:14Z</time>
      </trkpt>
      <trkpt lat="45.93964" lon="4.79851">
        <ele>206</ele>
        <time>2018-01-31T09:53:15Z</time>
      </trkpt>
      <trkpt lat="45.93963" lon="4.79858">
        <ele>206</ele>
        <time>2018-01-31T09:53:16Z</time>
      </trkpt>
      <trkpt lat="45.93961" lon="4.79865">
        <ele>206</ele>
        <time>2018-01-31T09:53:17Z</time>
      </trkpt>
      <trkpt lat="45.93959" lon="4.79873">
        <ele>206</ele>
        <time>2018-01-31T09:53:18Z</time>
      </trkpt>
      <trkpt lat="45.93957" lon="4.7988">
        <ele>206</ele>
        <time>2018-01-31T09:53:19Z</time>
      </trkpt>
      <trkpt lat="45.93956" lon="4.79887">
        <ele>206</ele>
        <time>2018-01-31T09:53:20Z</time>
      </trkpt>
      <trkpt lat="45.93954" lon="4.79893">
        <ele>205</ele>
        <time>2018-01-31T09:53:21Z</time>
      </trkpt>
      <trkpt lat="45.93953" lon="4.799">
        <ele>205</ele>
        <time>2018-01-31T09:53:22Z</time>
      </trkpt>
      <trkpt lat="45.93951" lon="4.79907">
        <ele>205</ele>
        <time>2018-01-31T09:53:23Z</time>
      </trkpt>
      <trkpt lat="45.9395" lon="4.79913">
        <ele>205</ele>
        <time>2018-01-31T09:53:24Z</time>
      </trkpt>
      <trkpt lat="45.93949" lon="4.7992">
        <ele>205</ele>
        <time>2018-01-31T09:53:25Z</time>
      </trkpt>
      <trkpt lat="45.93948" lon="4.79926">
        <ele>205</ele>
        <time>2018-01-31T09:53:26Z</time>
      </trkpt>
      <trkpt lat="45.93947" lon="4.79934">
        <ele>205</ele>
        <time>2018-01-31T09:53:27Z</time>
      </trkpt>
      <trkpt lat="45.93947" lon="4.79941">
        <ele>205</ele>
        <time>2018-01-31T09:53:28Z</time>
      </trkpt>
      <trkpt lat="45.93946" lon="4.79948">
        <ele>205</ele>
        <time>2018-01-31T09:53:29Z</time>
      </trkpt>
      <trkpt lat="45.93944" lon="4.7996">
        <ele>205</ele>
        <time>2018-01-31T09:53:31Z</time>
      </trkpt>
      <trkpt lat="45.93943" lon="4.79967">
        <ele>205</ele>
        <time>2018-01-31T09:53:32Z</time>
      </trkpt>
      <trkpt lat="45.93942" lon="4.79973">
        <ele>205</ele>
        <time>2018-01-31T09:53:33Z</time>
      </trkpt>
      <trkpt lat="45.9394" lon="4.7998">
        <ele>204</ele>
        <time>2018-01-31T09:53:34Z</time>
      </trkpt>
      <trkpt lat="45.93939" lon="4.79986">
        <ele>204</ele>
        <time>2018-01-31T09:53:35Z</time>
      </trkpt>
      <trkpt lat="45.93937" lon="4.79993">
        <ele>204</ele>
        <time>2018-01-31T09:53:36Z</time>
      </trkpt>
      <trkpt lat="45.93936" lon="4.80001">
        <ele>205</ele>
        <time>2018-01-31T09:53:37Z</time>
      </trkpt>
      <trkpt lat="45.93936" lon="4.80007">
        <ele>205</ele>
        <time>2018-01-31T09:53:38Z</time>
      </trkpt>
      <trkpt lat="45.93936" lon="4.80014">
        <ele>205</ele>
        <time>2018-01-31T09:53:39Z</time>
      </trkpt>
      <trkpt lat="45.93935" lon="4.8002">
        <ele>206</ele>
        <time>2018-01-31T09:53:40Z</time>
      </trkpt>
      <trkpt lat="45.93934" lon="4.80033">
        <ele>206</ele>
        <time>2018-01-31T09:53:42Z</time>
      </trkpt>
      <trkpt lat="45.93934" lon="4.80039">
        <ele>207</ele>
        <time>2018-01-31T09:53:43Z</time>
      </trkpt>
      <trkpt lat="45.93933" lon="4.80047">
        <ele>207</ele>
        <time>2018-01-31T09:53:44Z</time>
      </trkpt>
      <trkpt lat="45.93932" lon="4.80054">
        <ele>207</ele>
        <time>2018-01-31T09:53:45Z</time>
      </trkpt>
      <trkpt lat="45.93932" lon="4.80062">
        <ele>207</ele>
        <time>2018-01-31T09:53:46Z</time>
      </trkpt>
      <trkpt lat="45.93932" lon="4.8007">
        <ele>207</ele>
        <time>2018-01-31T09:53:47Z</time>
      </trkpt>
      <trkpt lat="45.93933" lon="4.80078">
        <ele>207</ele>
        <time>2018-01-31T09:53:48Z</time>
      </trkpt>
      <trkpt lat="45.93933" lon="4.80085">
        <ele>207</ele>
        <time>2018-01-31T09:53:49Z</time>
      </trkpt>
      <trkpt lat="45.93934" lon="4.80098">
        <ele>208</ele>
        <time>2018-01-31T09:53:51Z</time>
      </trkpt>
      <trkpt lat="45.93934" lon="4.80104">
        <ele>208</ele>
        <time>2018-01-31T09:53:52Z</time>
      </trkpt>
      <trkpt lat="45.93935" lon="4.80111">
        <ele>208</ele>
        <time>2018-01-31T09:53:53Z</time>
      </trkpt>
      <trkpt lat="45.93936" lon="4.80117">
        <ele>208</ele>
        <time>2018-01-31T09:53:54Z</time>
      </trkpt>
      <trkpt lat="45.93938" lon="4.80129">
        <ele>208</ele>
        <time>2018-01-31T09:53:56Z</time>
      </trkpt>
      <trkpt lat="45.93939" lon="4.80135">
        <ele>208</ele>
        <time>2018-01-31T09:53:57Z</time>
      </trkpt>
      <trkpt lat="45.9394" lon="4.80148">
        <ele>208</ele>
        <time>2018-01-31T09:53:59Z</time>
      </trkpt>
      <trkpt lat="45.9394" lon="4.80154">
        <ele>208</ele>
        <time>2018-01-31T09:54:00Z</time>
      </trkpt>
      <trkpt lat="45.93942" lon="4.8016">
        <ele>208</ele>
        <time>2018-01-31T09:54:01Z</time>
      </trkpt>
      <trkpt lat="45.93943" lon="4.80167">
        <ele>208</ele>
        <time>2018-01-31T09:54:02Z</time>
      </trkpt>
      <trkpt lat="45.93944" lon="4.80173">
        <ele>205</ele>
        <time>2018-01-31T09:54:03Z</time>
      </trkpt>
      <trkpt lat="45.93946" lon="4.8018">
        <ele>205</ele>
        <time>2018-01-31T09:54:04Z</time>
      </trkpt>
      <trkpt lat="45.93947" lon="4.80186">
        <ele>205</ele>
        <time>2018-01-31T09:54:05Z</time>
      </trkpt>
      <trkpt lat="45.93949" lon="4.80193">
        <ele>205</ele>
        <time>2018-01-31T09:54:06Z</time>
      </trkpt>
      <trkpt lat="45.9395" lon="4.802">
        <ele>205</ele>
        <time>2018-01-31T09:54:07Z</time>
      </trkpt>
      <trkpt lat="45.93952" lon="4.80206">
        <ele>205</ele>
        <time>2018-01-31T09:54:08Z</time>
      </trkpt>
      <trkpt lat="45.93953" lon="4.80212">
        <ele>205</ele>
        <time>2018-01-31T09:54:09Z</time>
      </trkpt>
      <trkpt lat="45.93955" lon="4.80219">
        <ele>205</ele>
        <time>2018-01-31T09:54:10Z</time>
      </trkpt>
      <trkpt lat="45.93957" lon="4.80226">
        <ele>205</ele>
        <time>2018-01-31T09:54:11Z</time>
      </trkpt>
      <trkpt lat="45.93959" lon="4.80233">
        <ele>204</ele>
        <time>2018-01-31T09:54:12Z</time>
      </trkpt>
      <trkpt lat="45.93961" lon="4.80238">
        <ele>204</ele>
        <time>2018-01-31T09:54:13Z</time>
      </trkpt>
      <trkpt lat="45.93963" lon="4.80245">
        <ele>204</ele>
        <time>2018-01-31T09:54:14Z</time>
      </trkpt>
      <trkpt lat="45.93964" lon="4.80253">
        <ele>202</ele>
        <time>2018-01-31T09:54:15Z</time>
      </trkpt>
      <trkpt lat="45.93966" lon="4.80259">
        <ele>202</ele>
        <time>2018-01-31T09:54:16Z</time>
      </trkpt>
      <trkpt lat="45.93967" lon="4.80266">
        <ele>202</ele>
        <time>2018-01-31T09:54:17Z</time>
      </trkpt>
      <trkpt lat="45.93969" lon="4.80273">
        <ele>202</ele>
        <time>2018-01-31T09:54:18Z</time>
      </trkpt>
      <trkpt lat="45.93971" lon="4.80279">
        <ele>202</ele>
        <time>2018-01-31T09:54:19Z</time>
      </trkpt>
      <trkpt lat="45.93973" lon="4.80286">
        <ele>202</ele>
        <time>2018-01-31T09:54:20Z</time>
      </trkpt>
      <trkpt lat="45.93976" lon="4.80297">
        <ele>203</ele>
        <time>2018-01-31T09:54:22Z</time>
      </trkpt>
      <trkpt lat="45.93977" lon="4.80303">
        <ele>203</ele>
        <time>2018-01-31T09:54:23Z</time>
      </trkpt>
      <trkpt lat="45.9398" lon="4.80312">
        <ele>203</ele>
        <time>2018-01-31T09:54:25Z</time>
      </trkpt>
      <trkpt lat="45.93982" lon="4.80318">
        <ele>203</ele>
        <time>2018-01-31T09:54:26Z</time>
      </trkpt>
      <trkpt lat="45.93984" lon="4.80328">
        <ele>204</ele>
        <time>2018-01-31T09:54:28Z</time>
      </trkpt>
      <trkpt lat="45.93985" lon="4.80333">
        <ele>204</ele>
        <time>2018-01-31T09:54:29Z</time>
      </trkpt>
      <trkpt lat="45.93988" lon="4.80341">
        <ele>206</ele>
        <time>2018-01-31T09:54:31Z</time>
      </trkpt>
      <trkpt lat="45.9399" lon="4.80344">
        <ele>206</ele>
        <time>2018-01-31T09:54:32Z</time>
      </trkpt>
      <trkpt lat="45.93993" lon="4.80354">
        <ele>206</ele>
        <time>2018-01-31T09:54:35Z</time>
      </trkpt>
      <trkpt lat="45.93994" lon="4.80358">
        <ele>206</ele>
        <time>2018-01-31T09:54:36Z</time>
      </trkpt>
      <trkpt lat="45.93996" lon="4.80369">
        <ele>207</ele>
        <time>2018-01-31T09:54:39Z</time>
      </trkpt>
      <trkpt lat="45.93997" lon="4.80373">
        <ele>207</ele>
        <time>2018-01-31T09:54:40Z</time>
      </trkpt>
      <trkpt lat="45.94" lon="4.80384">
        <ele>216</ele>
        <time>2018-01-31T09:54:43Z</time>
      </trkpt>
      <trkpt lat="45.94001" lon="4.80388">
        <ele>217</ele>
        <time>2018-01-31T09:54:44Z</time>
      </trkpt>
      <trkpt lat="45.94004" lon="4.80399">
        <ele>217</ele>
        <time>2018-01-31T09:54:47Z</time>
      </trkpt>
      <trkpt lat="45.94005" lon="4.80403">
        <ele>217</ele>
        <time>2018-01-31T09:54:48Z</time>
      </trkpt>
      <trkpt lat="45.94007" lon="4.80414">
        <ele>217</ele>
        <time>2018-01-31T09:54:51Z</time>
      </trkpt>
      <trkpt lat="45.94007" lon="4.80417">
        <ele>218</ele>
        <time>2018-01-31T09:54:52Z</time>
      </trkpt>
      <trkpt lat="45.94009" lon="4.80428">
        <ele>220</ele>
        <time>2018-01-31T09:54:55Z</time>
      </trkpt>
      <trkpt lat="45.9401" lon="4.80431">
        <ele>221</ele>
        <time>2018-01-31T09:54:56Z</time>
      </trkpt>
      <trkpt lat="45.94012" lon="4.80442">
        <ele>222</ele>
        <time>2018-01-31T09:54:59Z</time>
      </trkpt>
      <trkpt lat="45.94012" lon="4.80446">
        <ele>222</ele>
        <time>2018-01-31T09:55:00Z</time>
      </trkpt>
      <trkpt lat="45.94013" lon="4.80457">
        <ele>223</ele>
        <time>2018-01-31T09:55:03Z</time>
      </trkpt>
      <trkpt lat="45.94013" lon="4.80461">
        <ele>223</ele>
        <time>2018-01-31T09:55:04Z</time>
      </trkpt>
      <trkpt lat="45.94013" lon="4.80473">
        <ele>223</ele>
        <time>2018-01-31T09:55:07Z</time>
      </trkpt>
      <trkpt lat="45.94014" lon="4.80477">
        <ele>223</ele>
        <time>2018-01-31T09:55:08Z</time>
      </trkpt>
      <trkpt lat="45.94014" lon="4.80489">
        <ele>222</ele>
        <time>2018-01-31T09:55:11Z</time>
      </trkpt>
      <trkpt lat="45.94015" lon="4.80493">
        <ele>222</ele>
        <time>2018-01-31T09:55:12Z</time>
      </trkpt>
      <trkpt lat="45.94016" lon="4.80504">
        <ele>222</ele>
        <time>2018-01-31T09:55:15Z</time>
      </trkpt>
      <trkpt lat="45.94016" lon="4.80508">
        <ele>223</ele>
        <time>2018-01-31T09:55:16Z</time>
      </trkpt>
      <trkpt lat="45.94016" lon="4.80519">
        <ele>223</ele>
        <time>2018-01-31T09:55:19Z</time>
      </trkpt>
      <trkpt lat="45.94016" lon="4.80522">
        <ele>224</ele>
        <time>2018-01-31T09:55:20Z</time>
      </trkpt>
      <trkpt lat="45.94016" lon="4.80534">
        <ele>224</ele>
        <time>2018-01-31T09:55:24Z</time>
      </trkpt>
      <trkpt lat="45.94017" lon="4.80537">
        <ele>224</ele>
        <time>2018-01-31T09:55:25Z</time>
      </trkpt>
      <trkpt lat="45.94016" lon="4.80549">
        <ele>224</ele>
        <time>2018-01-31T09:55:29Z</time>
      </trkpt>
      <trkpt lat="45.94016" lon="4.80552">
        <ele>224</ele>
        <time>2018-01-31T09:55:30Z</time>
      </trkpt>
      <trkpt lat="45.94015" lon="4.80562">
        <ele>223</ele>
        <time>2018-01-31T09:55:33Z</time>
      </trkpt>
      <trkpt lat="45.94016" lon="4.80566">
        <ele>223</ele>
        <time>2018-01-31T09:55:34Z</time>
      </trkpt>
      <trkpt lat="45.94016" lon="4.80576">
        <ele>222</ele>
        <time>2018-01-31T09:55:37Z</time>
      </trkpt>
      <trkpt lat="45.94016" lon="4.80578">
        <ele>222</ele>
        <time>2018-01-31T09:55:38Z</time>
      </trkpt>
      <trkpt lat="45.94017" lon="4.80591">
        <ele>222</ele>
        <time>2018-01-31T09:55:42Z</time>
      </trkpt>
      <trkpt lat="45.94018" lon="4.80594">
        <ele>223</ele>
        <time>2018-01-31T09:55:43Z</time>
      </trkpt>
      <trkpt lat="45.94019" lon="4.80604">
        <ele>224</ele>
        <time>2018-01-31T09:55:46Z</time>
      </trkpt>
      <trkpt lat="45.9402" lon="4.80607">
        <ele>224</ele>
        <time>2018-01-31T09:55:47Z</time>
      </trkpt>
      <trkpt lat="45.94023" lon="4.80618">
        <ele>225</ele>
        <time>2018-01-31T09:55:50Z</time>
      </trkpt>
      <trkpt lat="45.94023" lon="4.80621">
        <ele>225</ele>
        <time>2018-01-31T09:55:51Z</time>
      </trkpt>
      <trkpt lat="45.94024" lon="4.80631">
        <ele>225</ele>
        <time>2018-01-31T09:55:54Z</time>
      </trkpt>
      <trkpt lat="45.94024" lon="4.80634">
        <ele>225</ele>
        <time>2018-01-31T09:55:55Z</time>
      </trkpt>
      <trkpt lat="45.94026" lon="4.80645">
        <ele>224</ele>
        <time>2018-01-31T09:55:58Z</time>
      </trkpt>
      <trkpt lat="45.94026" lon="4.80649">
        <ele>224</ele>
        <time>2018-01-31T09:55:59Z</time>
      </trkpt>
      <trkpt lat="45.94026" lon="4.80659">
        <ele>224</ele>
        <time>2018-01-31T09:56:02Z</time>
      </trkpt>
      <trkpt lat="45.94026" lon="4.80662">
        <ele>224</ele>
        <time>2018-01-31T09:56:03Z</time>
      </trkpt>
      <trkpt lat="45.94027" lon="4.80674">
        <ele>224</ele>
        <time>2018-01-31T09:56:06Z</time>
      </trkpt>
      <trkpt lat="45.94028" lon="4.80678">
        <ele>224</ele>
        <time>2018-01-31T09:56:07Z</time>
      </trkpt>
      <trkpt lat="45.94028" lon="4.80688">
        <ele>225</ele>
        <time>2018-01-31T09:56:10Z</time>
      </trkpt>
      <trkpt lat="45.94028" lon="4.80691">
        <ele>225</ele>
        <time>2018-01-31T09:56:11Z</time>
      </trkpt>
      <trkpt lat="45.94029" lon="4.80702">
        <ele>225</ele>
        <time>2018-01-31T09:56:14Z</time>
      </trkpt>
      <trkpt lat="45.9403" lon="4.80706">
        <ele>225</ele>
        <time>2018-01-31T09:56:15Z</time>
      </trkpt>
      <trkpt lat="45.94032" lon="4.80717">
        <ele>226</ele>
        <time>2018-01-31T09:56:18Z</time>
      </trkpt>
      <trkpt lat="45.94032" lon="4.8072">
        <ele>226</ele>
        <time>2018-01-31T09:56:19Z</time>
      </trkpt>
      <trkpt lat="45.94033" lon="4.80731">
        <ele>226</ele>
        <time>2018-01-31T09:56:22Z</time>
      </trkpt>
      <trkpt lat="45.94033" lon="4.80734">
        <ele>226</ele>
        <time>2018-01-31T09:56:23Z</time>
      </trkpt>
      <trkpt lat="45.94035" lon="4.80745">
        <ele>226</ele>
        <time>2018-01-31T09:56:26Z</time>
      </trkpt>
      <trkpt lat="45.94035" lon="4.80749">
        <ele>226</ele>
        <time>2018-01-31T09:56:27Z</time>
      </trkpt>
      <trkpt lat="45.94037" lon="4.80761">
        <ele>227</ele>
        <time>2018-01-31T09:56:31Z</time>
      </trkpt>
      <trkpt lat="45.94037" lon="4.80764">
        <ele>227</ele>
        <time>2018-01-31T09:56:32Z</time>
      </trkpt>
      <trkpt lat="45.94038" lon="4.80774">
        <ele>227</ele>
        <time>2018-01-31T09:56:35Z</time>
      </trkpt>
      <trkpt lat="45.94039" lon="4.80777">
        <ele>228</ele>
        <time>2018-01-31T09:56:36Z</time>
      </trkpt>
      <trkpt lat="45.94041" lon="4.80788">
        <ele>228</ele>
        <time>2018-01-31T09:56:39Z</time>
      </trkpt>
      <trkpt lat="45.94042" lon="4.80791">
        <ele>228</ele>
        <time>2018-01-31T09:56:40Z</time>
      </trkpt>
      <trkpt lat="45.94043" lon="4.80802">
        <ele>228</ele>
        <time>2018-01-31T09:56:43Z</time>
      </trkpt>
      <trkpt lat="45.94044" lon="4.80806">
        <ele>228</ele>
        <time>2018-01-31T09:56:44Z</time>
      </trkpt>
      <trkpt lat="45.94045" lon="4.80816">
        <ele>229</ele>
        <time>2018-01-31T09:56:47Z</time>
      </trkpt>
      <trkpt lat="45.94045" lon="4.8082">
        <ele>229</ele>
        <time>2018-01-31T09:56:48Z</time>
      </trkpt>
      <trkpt lat="45.94047" lon="4.80831">
        <ele>229</ele>
        <time>2018-01-31T09:56:51Z</time>
      </trkpt>
      <trkpt lat="45.94047" lon="4.80835">
        <ele>230</ele>
        <time>2018-01-31T09:56:52Z</time>
      </trkpt>
      <trkpt lat="45.94048" lon="4.80846">
        <ele>230</ele>
        <time>2018-01-31T09:56:55Z</time>
      </trkpt>
      <trkpt lat="45.94049" lon="4.80849">
        <ele>230</ele>
        <time>2018-01-31T09:56:56Z</time>
      </trkpt>
      <trkpt lat="45.94051" lon="4.80859">
        <ele>230</ele>
        <time>2018-01-31T09:56:59Z</time>
      </trkpt>
      <trkpt lat="45.94051" lon="4.80863">
        <ele>230</ele>
        <time>2018-01-31T09:57:00Z</time>
      </trkpt>
      <trkpt lat="45.94053" lon="4.80873">
        <ele>230</ele>
        <time>2018-01-31T09:57:03Z</time>
      </trkpt>
      <trkpt lat="45.94053" lon="4.80876">
        <ele>230</ele>
        <time>2018-01-31T09:57:04Z</time>
      </trkpt>
      <trkpt lat="45.94054" lon="4.80886">
        <ele>230</ele>
        <time>2018-01-31T09:57:07Z</time>
      </trkpt>
      <trkpt lat="45.94054" lon="4.80889">
        <ele>230</ele>
        <time>2018-01-31T09:57:08Z</time>
      </trkpt>
      <trkpt lat="45.94055" lon="4.80902">
        <ele>231</ele>
        <time>2018-01-31T09:57:12Z</time>
      </trkpt>
      <trkpt lat="45.94056" lon="4.80905">
        <ele>231</ele>
        <time>2018-01-31T09:57:13Z</time>
      </trkpt>
      <trkpt lat="45.94058" lon="4.80915">
        <ele>232</ele>
        <time>2018-01-31T09:57:16Z</time>
      </trkpt>
      <trkpt lat="45.94058" lon="4.80918">
        <ele>232</ele>
        <time>2018-01-31T09:57:17Z</time>
      </trkpt>
      <trkpt lat="45.9406" lon="4.80929">
        <ele>232</ele>
        <time>2018-01-31T09:57:20Z</time>
      </trkpt>
      <trkpt lat="45.9406" lon="4.80932">
        <ele>232</ele>
        <time>2018-01-31T09:57:21Z</time>
      </trkpt>
      <trkpt lat="45.94062" lon="4.80941">
        <ele>232</ele>
        <time>2018-01-31T09:57:24Z</time>
      </trkpt>
      <trkpt lat="45.94063" lon="4.80945">
        <ele>232</ele>
        <time>2018-01-31T09:57:25Z</time>
      </trkpt>
      <trkpt lat="45.94064" lon="4.80956">
        <ele>232</ele>
        <time>2018-01-31T09:57:28Z</time>
      </trkpt>
      <trkpt lat="45.94065" lon="4.8096">
        <ele>232</ele>
        <time>2018-01-31T09:57:29Z</time>
      </trkpt>
      <trkpt lat="45.94066" lon="4.80971">
        <ele>233</ele>
        <time>2018-01-31T09:57:32Z</time>
      </trkpt>
      <trkpt lat="45.94066" lon="4.80974">
        <ele>233</ele>
        <time>2018-01-31T09:57:33Z</time>
      </trkpt>
      <trkpt lat="45.94067" lon="4.80985">
        <ele>234</ele>
        <time>2018-01-31T09:57:36Z</time>
      </trkpt>
      <trkpt lat="45.94068" lon="4.80988">
        <ele>234</ele>
        <time>2018-01-31T09:57:37Z</time>
      </trkpt>
      <trkpt lat="45.94069" lon="4.80999">
        <ele>235</ele>
        <time>2018-01-31T09:57:40Z</time>
      </trkpt>
      <trkpt lat="45.9407" lon="4.81003">
        <ele>236</ele>
        <time>2018-01-31T09:57:41Z</time>
      </trkpt>
      <trkpt lat="45.94072" lon="4.81013">
        <ele>235</ele>
        <time>2018-01-31T09:57:44Z</time>
      </trkpt>
      <trkpt lat="45.94072" lon="4.81017">
        <ele>235</ele>
        <time>2018-01-31T09:57:45Z</time>
      </trkpt>
      <trkpt lat="45.94075" lon="4.81028">
        <ele>234</ele>
        <time>2018-01-31T09:57:48Z</time>
      </trkpt>
      <trkpt lat="45.94076" lon="4.81032">
        <ele>234</ele>
        <time>2018-01-31T09:57:49Z</time>
      </trkpt>
      <trkpt lat="45.94079" lon="4.81043">
        <ele>233</ele>
        <time>2018-01-31T09:57:52Z</time>
      </trkpt>
      <trkpt lat="45.94081" lon="4.81046">
        <ele>233</ele>
        <time>2018-01-31T09:57:53Z</time>
      </trkpt>
      <trkpt lat="45.94084" lon="4.81056">
        <ele>243</ele>
        <time>2018-01-31T09:57:56Z</time>
      </trkpt>
      <trkpt lat="45.94085" lon="4.81059">
        <ele>242</ele>
        <time>2018-01-31T09:57:57Z</time>
      </trkpt>
      <trkpt lat="45.94088" lon="4.81069">
        <ele>241</ele>
        <time>2018-01-31T09:58:00Z</time>
      </trkpt>
      <trkpt lat="45.9409" lon="4.81072">
        <ele>241</ele>
        <time>2018-01-31T09:58:01Z</time>
      </trkpt>
      <trkpt lat="45.94094" lon="4.81081">
        <ele>240</ele>
        <time>2018-01-31T09:58:04Z</time>
      </trkpt>
      <trkpt lat="45.94095" lon="4.81085">
        <ele>239</ele>
        <time>2018-01-31T09:58:05Z</time>
      </trkpt>
      <trkpt lat="45.94099" lon="4.81094">
        <ele>240</ele>
        <time>2018-01-31T09:58:08Z</time>
      </trkpt>
      <trkpt lat="45.94101" lon="4.81097">
        <ele>241</ele>
        <time>2018-01-31T09:58:09Z</time>
      </trkpt>
      <trkpt lat="45.94105" lon="4.81104">
        <ele>242</ele>
        <time>2018-01-31T09:58:12Z</time>
      </trkpt>
      <trkpt lat="45.94106" lon="4.81107">
        <ele>242</ele>
        <time>2018-01-31T09:58:13Z</time>
      </trkpt>
      <trkpt lat="45.94111" lon="4.81116">
        <ele>242</ele>
        <time>2018-01-31T09:58:16Z</time>
      </trkpt>
      <trkpt lat="45.94112" lon="4.81118">
        <ele>242</ele>
        <time>2018-01-31T09:58:17Z</time>
      </trkpt>
      <trkpt lat="45.94117" lon="4.81127">
        <ele>243</ele>
        <time>2018-01-31T09:58:20Z</time>
      </trkpt>
      <trkpt lat="45.94118" lon="4.8113">
        <ele>243</ele>
        <time>2018-01-31T09:58:21Z</time>
      </trkpt>
      <trkpt lat="45.94121" lon="4.81139">
        <ele>243</ele>
        <time>2018-01-31T09:58:24Z</time>
      </trkpt>
      <trkpt lat="45.94123" lon="4.81141">
        <ele>243</ele>
        <time>2018-01-31T09:58:25Z</time>
      </trkpt>
      <trkpt lat="45.94127" lon="4.81149">
        <ele>243</ele>
        <time>2018-01-31T09:58:28Z</time>
      </trkpt>
      <trkpt lat="45.94128" lon="4.81152">
        <ele>243</ele>
        <time>2018-01-31T09:58:29Z</time>
      </trkpt>
      <trkpt lat="45.94133" lon="4.81162">
        <ele>244</ele>
        <time>2018-01-31T09:58:32Z</time>
      </trkpt>
      <trkpt lat="45.94134" lon="4.81165">
        <ele>244</ele>
        <time>2018-01-31T09:58:33Z</time>
      </trkpt>
      <trkpt lat="45.94139" lon="4.81175">
        <ele>244</ele>
        <time>2018-01-31T09:58:36Z</time>
      </trkpt>
      <trkpt lat="45.9414" lon="4.81179">
        <ele>244</ele>
        <time>2018-01-31T09:58:37Z</time>
      </trkpt>
      <trkpt lat="45.94144" lon="4.81189">
        <ele>244</ele>
        <time>2018-01-31T09:58:40Z</time>
      </trkpt>
      <trkpt lat="45.94146" lon="4.81192">
        <ele>244</ele>
        <time>2018-01-31T09:58:41Z</time>
      </trkpt>
      <trkpt lat="45.94149" lon="4.81202">
        <ele>244</ele>
        <time>2018-01-31T09:58:44Z</time>
      </trkpt>
      <trkpt lat="45.9415" lon="4.81206">
        <ele>244</ele>
        <time>2018-01-31T09:58:45Z</time>
      </trkpt>
      <trkpt lat="45.94152" lon="4.81215">
        <ele>245</ele>
        <time>2018-01-31T09:58:48Z</time>
      </trkpt>
      <trkpt lat="45.94153" lon="4.81218">
        <ele>245</ele>
        <time>2018-01-31T09:58:49Z</time>
      </trkpt>
      <trkpt lat="45.94155" lon="4.81227">
        <ele>245</ele>
        <time>2018-01-31T09:58:53Z</time>
      </trkpt>
      <trkpt lat="45.94156" lon="4.8123">
        <ele>246</ele>
        <time>2018-01-31T09:58:54Z</time>
      </trkpt>
      <trkpt lat="45.94158" lon="4.81242">
        <ele>247</ele>
        <time>2018-01-31T09:58:58Z</time>
      </trkpt>
      <trkpt lat="45.94158" lon="4.81245">
        <ele>248</ele>
        <time>2018-01-31T09:58:59Z</time>
      </trkpt>
      <trkpt lat="45.9416" lon="4.81256">
        <ele>248</ele>
        <time>2018-01-31T09:59:03Z</time>
      </trkpt>
      <trkpt lat="45.9416" lon="4.8126">
        <ele>248</ele>
        <time>2018-01-31T09:59:04Z</time>
      </trkpt>
      <trkpt lat="45.94161" lon="4.81268">
        <ele>248</ele>
        <time>2018-01-31T09:59:06Z</time>
      </trkpt>
      <trkpt lat="45.94161" lon="4.81272">
        <ele>247</ele>
        <time>2018-01-31T09:59:07Z</time>
      </trkpt>
      <trkpt lat="45.94163" lon="4.81285">
        <ele>247</ele>
        <time>2018-01-31T09:59:10Z</time>
      </trkpt>
      <trkpt lat="45.94163" lon="4.81288">
        <ele>247</ele>
        <time>2018-01-31T09:59:11Z</time>
      </trkpt>
      <trkpt lat="45.94164" lon="4.81299">
        <ele>247</ele>
        <time>2018-01-31T09:59:14Z</time>
      </trkpt>
      <trkpt lat="45.94164" lon="4.81302">
        <ele>248</ele>
        <time>2018-01-31T09:59:15Z</time>
      </trkpt>
      <trkpt lat="45.94163" lon="4.81314">
        <ele>248</ele>
        <time>2018-01-31T09:59:19Z</time>
      </trkpt>
      <trkpt lat="45.94163" lon="4.81318">
        <ele>249</ele>
        <time>2018-01-31T09:59:20Z</time>
      </trkpt>
      <trkpt lat="45.94164" lon="4.81329">
        <ele>251</ele>
        <time>2018-01-31T09:59:23Z</time>
      </trkpt>
      <trkpt lat="45.94164" lon="4.81332">
        <ele>251</ele>
        <time>2018-01-31T09:59:24Z</time>
      </trkpt>
      <trkpt lat="45.94164" lon="4.81342">
        <ele>251</ele>
        <time>2018-01-31T09:59:28Z</time>
      </trkpt>
      <trkpt lat="45.94163" lon="4.81346">
        <ele>251</ele>
        <time>2018-01-31T09:59:29Z</time>
      </trkpt>
      <trkpt lat="45.94159" lon="4.81355">
        <ele>250</ele>
        <time>2018-01-31T09:59:32Z</time>
      </trkpt>
      <trkpt lat="45.94158" lon="4.81359">
        <ele>250</ele>
        <time>2018-01-31T09:59:33Z</time>
      </trkpt>
      <trkpt lat="45.94157" lon="4.81371">
        <ele>251</ele>
        <time>2018-01-31T09:59:36Z</time>
      </trkpt>
      <trkpt lat="45.94157" lon="4.81375">
        <ele>251</ele>
        <time>2018-01-31T09:59:37Z</time>
      </trkpt>
      <trkpt lat="45.94156" lon="4.81386">
        <ele>251</ele>
        <time>2018-01-31T09:59:40Z</time>
      </trkpt>
      <trkpt lat="45.94156" lon="4.81389">
        <ele>251</ele>
        <time>2018-01-31T09:59:41Z</time>
      </trkpt>
      <trkpt lat="45.94155" lon="4.814">
        <ele>252</ele>
        <time>2018-01-31T09:59:45Z</time>
      </trkpt>
      <trkpt lat="45.94154" lon="4.81403">
        <ele>252</ele>
        <time>2018-01-31T09:59:46Z</time>
      </trkpt>
      <trkpt lat="45.94154" lon="4.81413">
        <ele>253</ele>
        <time>2018-01-31T09:59:49Z</time>
      </trkpt>
      <trkpt lat="45.94154" lon="4.81417">
        <ele>256</ele>
        <time>2018-01-31T09:59:50Z</time>
      </trkpt>
      <trkpt lat="45.94154" lon="4.8143">
        <ele>256</ele>
        <time>2018-01-31T09:59:54Z</time>
      </trkpt>
      <trkpt lat="45.94154" lon="4.81433">
        <ele>256</ele>
        <time>2018-01-31T09:59:55Z</time>
      </trkpt>
      <trkpt lat="45.94152" lon="4.81443">
        <ele>256</ele>
        <time>2018-01-31T09:59:58Z</time>
      </trkpt>
      <trkpt lat="45.94151" lon="4.81446">
        <ele>256</ele>
        <time>2018-01-31T09:59:59Z</time>
      </trkpt>
      <trkpt lat="45.94151" lon="4.81459">
        <ele>257</ele>
        <time>2018-01-31T10:00:03Z</time>
      </trkpt>
      <trkpt lat="45.94151" lon="4.81462">
        <ele>257</ele>
        <time>2018-01-31T10:00:04Z</time>
      </trkpt>
      <trkpt lat="45.94152" lon="4.81473">
        <ele>258</ele>
        <time>2018-01-31T10:00:08Z</time>
      </trkpt>
      <trkpt lat="45.94153" lon="4.81477">
        <ele>258</ele>
        <time>2018-01-31T10:00:09Z</time>
      </trkpt>
      <trkpt lat="45.94152" lon="4.81488">
        <ele>259</ele>
        <time>2018-01-31T10:00:12Z</time>
      </trkpt>
      <trkpt lat="45.94151" lon="4.81491">
        <ele>260</ele>
        <time>2018-01-31T10:00:13Z</time>
      </trkpt>
      <trkpt lat="45.94149" lon="4.81503">
        <ele>263</ele>
        <time>2018-01-31T10:00:16Z</time>
      </trkpt>
      <trkpt lat="45.94149" lon="4.81507">
        <ele>263</ele>
        <time>2018-01-31T10:00:17Z</time>
      </trkpt>
      <trkpt lat="45.94146" lon="4.81517">
        <ele>263</ele>
        <time>2018-01-31T10:00:20Z</time>
      </trkpt>
      <trkpt lat="45.94146" lon="4.81521">
        <ele>263</ele>
        <time>2018-01-31T10:00:21Z</time>
      </trkpt>
      <trkpt lat="45.94147" lon="4.81532">
        <ele>264</ele>
        <time>2018-01-31T10:00:24Z</time>
      </trkpt>
      <trkpt lat="45.94147" lon="4.81536">
        <ele>264</ele>
        <time>2018-01-31T10:00:25Z</time>
      </trkpt>
      <trkpt lat="45.94149" lon="4.81544">
        <ele>264</ele>
        <time>2018-01-31T10:00:27Z</time>
      </trkpt>
      <trkpt lat="45.9415" lon="4.81548">
        <ele>264</ele>
        <time>2018-01-31T10:00:28Z</time>
      </trkpt>
      <trkpt lat="45.94152" lon="4.81561">
        <ele>265</ele>
        <time>2018-01-31T10:00:31Z</time>
      </trkpt>
      <trkpt lat="45.94152" lon="4.81565">
        <ele>265</ele>
        <time>2018-01-31T10:00:32Z</time>
      </trkpt>
      <trkpt lat="45.94152" lon="4.81573">
        <ele>265</ele>
        <time>2018-01-31T10:00:34Z</time>
      </trkpt>
      <trkpt lat="45.94151" lon="4.81578">
        <ele>265</ele>
        <time>2018-01-31T10:00:35Z</time>
      </trkpt>
      <trkpt lat="45.94152" lon="4.81587">
        <ele>267</ele>
        <time>2018-01-31T10:00:37Z</time>
      </trkpt>
      <trkpt lat="45.94152" lon="4.81592">
        <ele>267</ele>
        <time>2018-01-31T10:00:38Z</time>
      </trkpt>
      <trkpt lat="45.94154" lon="4.81601">
        <ele>267</ele>
        <time>2018-01-31T10:00:40Z</time>
      </trkpt>
      <trkpt lat="45.94156" lon="4.81605">
        <ele>267</ele>
        <time>2018-01-31T10:00:41Z</time>
      </trkpt>
      <trkpt lat="45.94158" lon="4.81614">
        <ele>267</ele>
        <time>2018-01-31T10:00:43Z</time>
      </trkpt>
      <trkpt lat="45.94159" lon="4.81618">
        <ele>268</ele>
        <time>2018-01-31T10:00:44Z</time>
      </trkpt>
      <trkpt lat="45.94161" lon="4.81627">
        <ele>268</ele>
        <time>2018-01-31T10:00:46Z</time>
      </trkpt>
      <trkpt lat="45.94162" lon="4.81632">
        <ele>268</ele>
        <time>2018-01-31T10:00:47Z</time>
      </trkpt>
      <trkpt lat="45.94164" lon="4.81642">
        <ele>268</ele>
        <time>2018-01-31T10:00:49Z</time>
      </trkpt>
      <trkpt lat="45.94164" lon="4.81646">
        <ele>268</ele>
        <time>2018-01-31T10:00:50Z</time>
      </trkpt>
      <trkpt lat="45.94166" lon="4.81655">
        <ele>268</ele>
        <time>2018-01-31T10:00:52Z</time>
      </trkpt>
      <trkpt lat="45.94167" lon="4.81659">
        <ele>268</ele>
        <time>2018-01-31T10:00:53Z</time>
      </trkpt>
      <trkpt lat="45.9417" lon="4.8167">
        <ele>269</ele>
        <time>2018-01-31T10:00:56Z</time>
      </trkpt>
      <trkpt lat="45.94171" lon="4.81674">
        <ele>268</ele>
        <time>2018-01-31T10:00:57Z</time>
      </trkpt>
      <trkpt lat="45.94173" lon="4.81684">
        <ele>268</ele>
        <time>2018-01-31T10:01:00Z</time>
      </trkpt>
      <trkpt lat="45.94174" lon="4.81687">
        <ele>268</ele>
        <time>2018-01-31T10:01:01Z</time>
      </trkpt>
      <trkpt lat="45.94177" lon="4.81697">
        <ele>267</ele>
        <time>2018-01-31T10:01:04Z</time>
      </trkpt>
      <trkpt lat="45.94178" lon="4.817">
        <ele>267</ele>
        <time>2018-01-31T10:01:05Z</time>
      </trkpt>
      <trkpt lat="45.94181" lon="4.81712">
        <ele>267</ele>
        <time>2018-01-31T10:01:08Z</time>
      </trkpt>
      <trkpt lat="45.94182" lon="4.81716">
        <ele>267</ele>
        <time>2018-01-31T10:01:09Z</time>
      </trkpt>
      <trkpt lat="45.94183" lon="4.81729">
        <ele>267</ele>
        <time>2018-01-31T10:01:12Z</time>
      </trkpt>
      <trkpt lat="45.94183" lon="4.81733">
        <ele>267</ele>
        <time>2018-01-31T10:01:13Z</time>
      </trkpt>
      <trkpt lat="45.94185" lon="4.81742">
        <ele>267</ele>
        <time>2018-01-31T10:01:15Z</time>
      </trkpt>
      <trkpt lat="45.94186" lon="4.81747">
        <ele>267</ele>
        <time>2018-01-31T10:01:16Z</time>
      </trkpt>
      <trkpt lat="45.9419" lon="4.81757">
        <ele>266</ele>
        <time>2018-01-31T10:01:18Z</time>
      </trkpt>
      <trkpt lat="45.94192" lon="4.81761">
        <ele>266</ele>
        <time>2018-01-31T10:01:19Z</time>
      </trkpt>
      <trkpt lat="45.94195" lon="4.81772">
        <ele>266</ele>
        <time>2018-01-31T10:01:21Z</time>
      </trkpt>
      <trkpt lat="45.94196" lon="4.81777">
        <ele>266</ele>
        <time>2018-01-31T10:01:22Z</time>
      </trkpt>
      <trkpt lat="45.94197" lon="4.81789">
        <ele>266</ele>
        <time>2018-01-31T10:01:24Z</time>
      </trkpt>
      <trkpt lat="45.94197" lon="4.81794">
        <ele>266</ele>
        <time>2018-01-31T10:01:25Z</time>
      </trkpt>
      <trkpt lat="45.94197" lon="4.81805">
        <ele>266</ele>
        <time>2018-01-31T10:01:27Z</time>
      </trkpt>
      <trkpt lat="45.94197" lon="4.8181">
        <ele>266</ele>
        <time>2018-01-31T10:01:28Z</time>
      </trkpt>
      <trkpt lat="45.94197" lon="4.81821">
        <ele>266</ele>
        <time>2018-01-31T10:01:30Z</time>
      </trkpt>
      <trkpt lat="45.94198" lon="4.81826">
        <ele>266</ele>
        <time>2018-01-31T10:01:31Z</time>
      </trkpt>
      <trkpt lat="45.942" lon="4.81836">
        <ele>266</ele>
        <time>2018-01-31T10:01:33Z</time>
      </trkpt>
      <trkpt lat="45.94201" lon="4.81841">
        <ele>266</ele>
        <time>2018-01-31T10:01:34Z</time>
      </trkpt>
      <trkpt lat="45.94204" lon="4.81852">
        <ele>266</ele>
        <time>2018-01-31T10:01:36Z</time>
      </trkpt>
      <trkpt lat="45.94205" lon="4.81858">
        <ele>266</ele>
        <time>2018-01-31T10:01:37Z</time>
      </trkpt>
      <trkpt lat="45.94208" lon="4.81869">
        <ele>265</ele>
        <time>2018-01-31T10:01:39Z</time>
      </trkpt>
      <trkpt lat="45.94208" lon="4.81875">
        <ele>265</ele>
        <time>2018-01-31T10:01:40Z</time>
      </trkpt>
      <trkpt lat="45.9421" lon="4.81886">
        <ele>265</ele>
        <time>2018-01-31T10:01:42Z</time>
      </trkpt>
      <trkpt lat="45.94211" lon="4.81891">
        <ele>265</ele>
        <time>2018-01-31T10:01:43Z</time>
      </trkpt>
      <trkpt lat="45.94213" lon="4.81903">
        <ele>265</ele>
        <time>2018-01-31T10:01:45Z</time>
      </trkpt>
      <trkpt lat="45.94214" lon="4.81911">
        <ele>265</ele>
        <time>2018-01-31T10:01:46Z</time>
      </trkpt>
      <trkpt lat="45.94216" lon="4.81917">
        <ele>264</ele>
        <time>2018-01-31T10:01:47Z</time>
      </trkpt>
      <trkpt lat="45.94217" lon="4.81924">
        <ele>264</ele>
        <time>2018-01-31T10:01:48Z</time>
      </trkpt>
      <trkpt lat="45.94219" lon="4.81931">
        <ele>264</ele>
        <time>2018-01-31T10:01:49Z</time>
      </trkpt>
      <trkpt lat="45.9422" lon="4.81937">
        <ele>264</ele>
        <time>2018-01-31T10:01:50Z</time>
      </trkpt>
      <trkpt lat="45.94222" lon="4.81949">
        <ele>264</ele>
        <time>2018-01-31T10:01:52Z</time>
      </trkpt>
      <trkpt lat="45.94223" lon="4.81956">
        <ele>264</ele>
        <time>2018-01-31T10:01:53Z</time>
      </trkpt>
      <trkpt lat="45.94225" lon="4.81966">
        <ele>264</ele>
        <time>2018-01-31T10:01:55Z</time>
      </trkpt>
      <trkpt lat="45.94227" lon="4.81972">
        <ele>264</ele>
        <time>2018-01-31T10:01:56Z</time>
      </trkpt>
      <trkpt lat="45.94229" lon="4.81984">
        <ele>263</ele>
        <time>2018-01-31T10:01:58Z</time>
      </trkpt>
      <trkpt lat="45.94231" lon="4.8199">
        <ele>263</ele>
        <time>2018-01-31T10:01:59Z</time>
      </trkpt>
      <trkpt lat="45.94234" lon="4.82002">
        <ele>263</ele>
        <time>2018-01-31T10:02:01Z</time>
      </trkpt>
      <trkpt lat="45.94235" lon="4.82008">
        <ele>263</ele>
        <time>2018-01-31T10:02:02Z</time>
      </trkpt>
      <trkpt lat="45.94236" lon="4.82014">
        <ele>263</ele>
        <time>2018-01-31T10:02:03Z</time>
      </trkpt>
      <trkpt lat="45.94238" lon="4.82021">
        <ele>263</ele>
        <time>2018-01-31T10:02:04Z</time>
      </trkpt>
      <trkpt lat="45.94239" lon="4.82028">
        <ele>263</ele>
        <time>2018-01-31T10:02:05Z</time>
      </trkpt>
      <trkpt lat="45.94241" lon="4.82035">
        <ele>263</ele>
        <time>2018-01-31T10:02:06Z</time>
      </trkpt>
      <trkpt lat="45.94243" lon="4.82046">
        <ele>263</ele>
        <time>2018-01-31T10:02:08Z</time>
      </trkpt>
      <trkpt lat="45.94245" lon="4.82052">
        <ele>263</ele>
        <time>2018-01-31T10:02:09Z</time>
      </trkpt>
      <trkpt lat="45.94246" lon="4.82058">
        <ele>263</ele>
        <time>2018-01-31T10:02:10Z</time>
      </trkpt>
      <trkpt lat="45.94248" lon="4.82066">
        <ele>263</ele>
        <time>2018-01-31T10:02:11Z</time>
      </trkpt>
      <trkpt lat="45.94249" lon="4.82077">
        <ele>262</ele>
        <time>2018-01-31T10:02:13Z</time>
      </trkpt>
      <trkpt lat="45.94251" lon="4.82082">
        <ele>262</ele>
        <time>2018-01-31T10:02:14Z</time>
      </trkpt>
      <trkpt lat="45.94254" lon="4.82094">
        <ele>262</ele>
        <time>2018-01-31T10:02:16Z</time>
      </trkpt>
      <trkpt lat="45.94255" lon="4.821">
        <ele>262</ele>
        <time>2018-01-31T10:02:17Z</time>
      </trkpt>
      <trkpt lat="45.94258" lon="4.82111">
        <ele>263</ele>
        <time>2018-01-31T10:02:19Z</time>
      </trkpt>
      <trkpt lat="45.94259" lon="4.82118">
        <ele>263</ele>
        <time>2018-01-31T10:02:20Z</time>
      </trkpt>
      <trkpt lat="45.94261" lon="4.8213">
        <ele>263</ele>
        <time>2018-01-31T10:02:22Z</time>
      </trkpt>
      <trkpt lat="45.94262" lon="4.82136">
        <ele>263</ele>
        <time>2018-01-31T10:02:23Z</time>
      </trkpt>
      <trkpt lat="45.94264" lon="4.82148">
        <ele>263</ele>
        <time>2018-01-31T10:02:25Z</time>
      </trkpt>
      <trkpt lat="45.94265" lon="4.82154">
        <ele>263</ele>
        <time>2018-01-31T10:02:26Z</time>
      </trkpt>
      <trkpt lat="45.94267" lon="4.82166">
        <ele>263</ele>
        <time>2018-01-31T10:02:28Z</time>
      </trkpt>
      <trkpt lat="45.94268" lon="4.82173">
        <ele>264</ele>
        <time>2018-01-31T10:02:29Z</time>
      </trkpt>
      <trkpt lat="45.9427" lon="4.82179">
        <ele>264</ele>
        <time>2018-01-31T10:02:30Z</time>
      </trkpt>
      <trkpt lat="45.94271" lon="4.82185">
        <ele>264</ele>
        <time>2018-01-31T10:02:31Z</time>
      </trkpt>
      <trkpt lat="45.94272" lon="4.82192">
        <ele>264</ele>
        <time>2018-01-31T10:02:32Z</time>
      </trkpt>
      <trkpt lat="45.94273" lon="4.82199">
        <ele>264</ele>
        <time>2018-01-31T10:02:33Z</time>
      </trkpt>
      <trkpt lat="45.94275" lon="4.82207">
        <ele>264</ele>
        <time>2018-01-31T10:02:34Z</time>
      </trkpt>
      <trkpt lat="45.94275" lon="4.82213">
        <ele>264</ele>
        <time>2018-01-31T10:02:35Z</time>
      </trkpt>
      <trkpt lat="45.94276" lon="4.8222">
        <ele>264</ele>
        <time>2018-01-31T10:02:36Z</time>
      </trkpt>
      <trkpt lat="45.94277" lon="4.82227">
        <ele>264</ele>
        <time>2018-01-31T10:02:37Z</time>
      </trkpt>
      <trkpt lat="45.94278" lon="4.82233">
        <ele>264</ele>
        <time>2018-01-31T10:02:38Z</time>
      </trkpt>
      <trkpt lat="45.94279" lon="4.82241">
        <ele>264</ele>
        <time>2018-01-31T10:02:39Z</time>
      </trkpt>
      <trkpt lat="45.94279" lon="4.82249">
        <ele>264</ele>
        <time>2018-01-31T10:02:40Z</time>
      </trkpt>
      <trkpt lat="45.9428" lon="4.82256">
        <ele>265</ele>
        <time>2018-01-31T10:02:41Z</time>
      </trkpt>
      <trkpt lat="45.9428" lon="4.82263">
        <ele>265</ele>
        <time>2018-01-31T10:02:42Z</time>
      </trkpt>
      <trkpt lat="45.94281" lon="4.8227">
        <ele>265</ele>
        <time>2018-01-31T10:02:43Z</time>
      </trkpt>
      <trkpt lat="45.94281" lon="4.82277">
        <ele>265</ele>
        <time>2018-01-31T10:02:44Z</time>
      </trkpt>
      <trkpt lat="45.94282" lon="4.82285">
        <ele>265</ele>
        <time>2018-01-31T10:02:45Z</time>
      </trkpt>
      <trkpt lat="45.94282" lon="4.82292">
        <ele>265</ele>
        <time>2018-01-31T10:02:46Z</time>
      </trkpt>
      <trkpt lat="45.94282" lon="4.82298">
        <ele>265</ele>
        <time>2018-01-31T10:02:47Z</time>
      </trkpt>
      <trkpt lat="45.94283" lon="4.82311">
        <ele>265</ele>
        <time>2018-01-31T10:02:49Z</time>
      </trkpt>
      <trkpt lat="45.94283" lon="4.82317">
        <ele>265</ele>
        <time>2018-01-31T10:02:50Z</time>
      </trkpt>
      <trkpt lat="45.94284" lon="4.82328">
        <ele>265</ele>
        <time>2018-01-31T10:02:52Z</time>
      </trkpt>
      <trkpt lat="45.94284" lon="4.82334">
        <ele>264</ele>
        <time>2018-01-31T10:02:53Z</time>
      </trkpt>
      <trkpt lat="45.94285" lon="4.82341">
        <ele>264</ele>
        <time>2018-01-31T10:02:54Z</time>
      </trkpt>
      <trkpt lat="45.94285" lon="4.82347">
        <ele>264</ele>
        <time>2018-01-31T10:02:55Z</time>
      </trkpt>
      <trkpt lat="45.94285" lon="4.82359">
        <ele>264</ele>
        <time>2018-01-31T10:02:57Z</time>
      </trkpt>
      <trkpt lat="45.94286" lon="4.82365">
        <ele>264</ele>
        <time>2018-01-31T10:02:58Z</time>
      </trkpt>
      <trkpt lat="45.94287" lon="4.82376">
        <ele>264</ele>
        <time>2018-01-31T10:03:00Z</time>
      </trkpt>
      <trkpt lat="45.94287" lon="4.82382">
        <ele>264</ele>
        <time>2018-01-31T10:03:01Z</time>
      </trkpt>
      <trkpt lat="45.94288" lon="4.82393">
        <ele>264</ele>
        <time>2018-01-31T10:03:03Z</time>
      </trkpt>
      <trkpt lat="45.94288" lon="4.82398">
        <ele>264</ele>
        <time>2018-01-31T10:03:04Z</time>
      </trkpt>
      <trkpt lat="45.94288" lon="4.82409">
        <ele>264</ele>
        <time>2018-01-31T10:03:06Z</time>
      </trkpt>
      <trkpt lat="45.94288" lon="4.82415">
        <ele>264</ele>
        <time>2018-01-31T10:03:07Z</time>
      </trkpt>
      <trkpt lat="45.94289" lon="4.82427">
        <ele>264</ele>
        <time>2018-01-31T10:03:09Z</time>
      </trkpt>
      <trkpt lat="45.94289" lon="4.82433">
        <ele>264</ele>
        <time>2018-01-31T10:03:10Z</time>
      </trkpt>
      <trkpt lat="45.9429" lon="4.82445">
        <ele>264</ele>
        <time>2018-01-31T10:03:12Z</time>
      </trkpt>
      <trkpt lat="45.94291" lon="4.82451">
        <ele>264</ele>
        <time>2018-01-31T10:03:13Z</time>
      </trkpt>
      <trkpt lat="45.94292" lon="4.82464">
        <ele>264</ele>
        <time>2018-01-31T10:03:15Z</time>
      </trkpt>
      <trkpt lat="45.94292" lon="4.8247">
        <ele>264</ele>
        <time>2018-01-31T10:03:16Z</time>
      </trkpt>
      <trkpt lat="45.94292" lon="4.82482">
        <ele>264</ele>
        <time>2018-01-31T10:03:18Z</time>
      </trkpt>
      <trkpt lat="45.94292" lon="4.82489">
        <ele>264</ele>
        <time>2018-01-31T10:03:19Z</time>
      </trkpt>
      <trkpt lat="45.94292" lon="4.82501">
        <ele>264</ele>
        <time>2018-01-31T10:03:21Z</time>
      </trkpt>
      <trkpt lat="45.94292" lon="4.82506">
        <ele>264</ele>
        <time>2018-01-31T10:03:22Z</time>
      </trkpt>
      <trkpt lat="45.94292" lon="4.82516">
        <ele>264</ele>
        <time>2018-01-31T10:03:24Z</time>
      </trkpt>
      <trkpt lat="45.94292" lon="4.82522">
        <ele>264</ele>
        <time>2018-01-31T10:03:25Z</time>
      </trkpt>
      <trkpt lat="45.94292" lon="4.82531">
        <ele>264</ele>
        <time>2018-01-31T10:03:27Z</time>
      </trkpt>
      <trkpt lat="45.94292" lon="4.82535">
        <ele>264</ele>
        <time>2018-01-31T10:03:28Z</time>
      </trkpt>
      <trkpt lat="45.94292" lon="4.82545">
        <ele>264</ele>
        <time>2018-01-31T10:03:30Z</time>
      </trkpt>
      <trkpt lat="45.94292" lon="4.8255">
        <ele>264</ele>
        <time>2018-01-31T10:03:31Z</time>
      </trkpt>
      <trkpt lat="45.94292" lon="4.82561">
        <ele>264</ele>
        <time>2018-01-31T10:03:33Z</time>
      </trkpt>
      <trkpt lat="45.94292" lon="4.82568">
        <ele>264</ele>
        <time>2018-01-31T10:03:34Z</time>
      </trkpt>
      <trkpt lat="45.94291" lon="4.82574">
        <ele>265</ele>
        <time>2018-01-31T10:03:35Z</time>
      </trkpt>
      <trkpt lat="45.94291" lon="4.8258">
        <ele>265</ele>
        <time>2018-01-31T10:03:36Z</time>
      </trkpt>
      <trkpt lat="45.94291" lon="4.82587">
        <ele>265</ele>
        <time>2018-01-31T10:03:37Z</time>
      </trkpt>
      <trkpt lat="45.94291" lon="4.82593">
        <ele>265</ele>
        <time>2018-01-31T10:03:38Z</time>
      </trkpt>
      <trkpt lat="45.94292" lon="4.82606">
        <ele>265</ele>
        <time>2018-01-31T10:03:40Z</time>
      </trkpt>
      <trkpt lat="45.94292" lon="4.82612">
        <ele>265</ele>
        <time>2018-01-31T10:03:41Z</time>
      </trkpt>
      <trkpt lat="45.94291" lon="4.82625">
        <ele>265</ele>
        <time>2018-01-31T10:03:43Z</time>
      </trkpt>
      <trkpt lat="45.94291" lon="4.8263">
        <ele>265</ele>
        <time>2018-01-31T10:03:44Z</time>
      </trkpt>
      <trkpt lat="45.94291" lon="4.82642">
        <ele>265</ele>
        <time>2018-01-31T10:03:46Z</time>
      </trkpt>
      <trkpt lat="45.94291" lon="4.82649">
        <ele>265</ele>
        <time>2018-01-31T10:03:47Z</time>
      </trkpt>
      <trkpt lat="45.94291" lon="4.82655">
        <ele>265</ele>
        <time>2018-01-31T10:03:48Z</time>
      </trkpt>
      <trkpt lat="45.94291" lon="4.82662">
        <ele>265</ele>
        <time>2018-01-31T10:03:49Z</time>
      </trkpt>
      <trkpt lat="45.9429" lon="4.82669">
        <ele>265</ele>
        <time>2018-01-31T10:03:50Z</time>
      </trkpt>
      <trkpt lat="45.9429" lon="4.82676">
        <ele>265</ele>
        <time>2018-01-31T10:03:51Z</time>
      </trkpt>
      <trkpt lat="45.9429" lon="4.82688">
        <ele>265</ele>
        <time>2018-01-31T10:03:53Z</time>
      </trkpt>
      <trkpt lat="45.9429" lon="4.82694">
        <ele>265</ele>
        <time>2018-01-31T10:03:54Z</time>
      </trkpt>
      <trkpt lat="45.94289" lon="4.82701">
        <ele>265</ele>
        <time>2018-01-31T10:03:55Z</time>
      </trkpt>
      <trkpt lat="45.94289" lon="4.82708">
        <ele>265</ele>
        <time>2018-01-31T10:03:56Z</time>
      </trkpt>
      <trkpt lat="45.94289" lon="4.82721">
        <ele>265</ele>
        <time>2018-01-31T10:03:58Z</time>
      </trkpt>
      <trkpt lat="45.94289" lon="4.82726">
        <ele>265</ele>
        <time>2018-01-31T10:03:59Z</time>
      </trkpt>
      <trkpt lat="45.94289" lon="4.82737">
        <ele>265</ele>
        <time>2018-01-31T10:04:01Z</time>
      </trkpt>
      <trkpt lat="45.94289" lon="4.82743">
        <ele>265</ele>
        <time>2018-01-31T10:04:02Z</time>
      </trkpt>
      <trkpt lat="45.94288" lon="4.82756">
        <ele>265</ele>
        <time>2018-01-31T10:04:04Z</time>
      </trkpt>
      <trkpt lat="45.94288" lon="4.82762">
        <ele>265</ele>
        <time>2018-01-31T10:04:05Z</time>
      </trkpt>
      <trkpt lat="45.94288" lon="4.82769">
        <ele>265</ele>
        <time>2018-01-31T10:04:06Z</time>
      </trkpt>
      <trkpt lat="45.94288" lon="4.82776">
        <ele>265</ele>
        <time>2018-01-31T10:04:07Z</time>
      </trkpt>
      <trkpt lat="45.94288" lon="4.82788">
        <ele>265</ele>
        <time>2018-01-31T10:04:09Z</time>
      </trkpt>
      <trkpt lat="45.94289" lon="4.82795">
        <ele>265</ele>
        <time>2018-01-31T10:04:10Z</time>
      </trkpt>
      <trkpt lat="45.94289" lon="4.82807">
        <ele>265</ele>
        <time>2018-01-31T10:04:12Z</time>
      </trkpt>
      <trkpt lat="45.94288" lon="4.82814">
        <ele>265</ele>
        <time>2018-01-31T10:04:13Z</time>
      </trkpt>
      <trkpt lat="45.94288" lon="4.82826">
        <ele>265</ele>
        <time>2018-01-31T10:04:15Z</time>
      </trkpt>
      <trkpt lat="45.94288" lon="4.82832">
        <ele>265</ele>
        <time>2018-01-31T10:04:16Z</time>
      </trkpt>
      <trkpt lat="45.94288" lon="4.82839">
        <ele>265</ele>
        <time>2018-01-31T10:04:17Z</time>
      </trkpt>
      <trkpt lat="45.94288" lon="4.82845">
        <ele>265</ele>
        <time>2018-01-31T10:04:18Z</time>
      </trkpt>
      <trkpt lat="45.94288" lon="4.82858">
        <ele>265</ele>
        <time>2018-01-31T10:04:20Z</time>
      </trkpt>
      <trkpt lat="45.94288" lon="4.82864">
        <ele>265</ele>
        <time>2018-01-31T10:04:21Z</time>
      </trkpt>
      <trkpt lat="45.94288" lon="4.82877">
        <ele>265</ele>
        <time>2018-01-31T10:04:23Z</time>
      </trkpt>
      <trkpt lat="45.94287" lon="4.82884">
        <ele>265</ele>
        <time>2018-01-31T10:04:24Z</time>
      </trkpt>
      <trkpt lat="45.94287" lon="4.8289">
        <ele>265</ele>
        <time>2018-01-31T10:04:25Z</time>
      </trkpt>
      <trkpt lat="45.94286" lon="4.82896">
        <ele>265</ele>
        <time>2018-01-31T10:04:26Z</time>
      </trkpt>
      <trkpt lat="45.94285" lon="4.82909">
        <ele>265</ele>
        <time>2018-01-31T10:04:28Z</time>
      </trkpt>
      <trkpt lat="45.94285" lon="4.82916">
        <ele>265</ele>
        <time>2018-01-31T10:04:29Z</time>
      </trkpt>
      <trkpt lat="45.94285" lon="4.82922">
        <ele>265</ele>
        <time>2018-01-31T10:04:30Z</time>
      </trkpt>
      <trkpt lat="45.94284" lon="4.82929">
        <ele>265</ele>
        <time>2018-01-31T10:04:31Z</time>
      </trkpt>
      <trkpt lat="45.94281" lon="4.82941">
        <ele>265</ele>
        <time>2018-01-31T10:04:33Z</time>
      </trkpt>
      <trkpt lat="45.9428" lon="4.82947">
        <ele>265</ele>
        <time>2018-01-31T10:04:34Z</time>
      </trkpt>
      <trkpt lat="45.94279" lon="4.82954">
        <ele>265</ele>
        <time>2018-01-31T10:04:35Z</time>
      </trkpt>
      <trkpt lat="45.94278" lon="4.82961">
        <ele>265</ele>
        <time>2018-01-31T10:04:36Z</time>
      </trkpt>
      <trkpt lat="45.9428" lon="4.82968">
        <ele>265</ele>
        <time>2018-01-31T10:04:37Z</time>
      </trkpt>
      <trkpt lat="45.94282" lon="4.82973">
        <ele>265</ele>
        <time>2018-01-31T10:04:38Z</time>
      </trkpt>
      <trkpt lat="45.94287" lon="4.82983">
        <ele>265</ele>
        <time>2018-01-31T10:04:40Z</time>
      </trkpt>
      <trkpt lat="45.94289" lon="4.82991">
        <ele>265</ele>
        <time>2018-01-31T10:04:41Z</time>
      </trkpt>
      <trkpt lat="45.9429" lon="4.82997">
        <ele>265</ele>
        <time>2018-01-31T10:04:42Z</time>
      </trkpt>
      <trkpt lat="45.94292" lon="4.83005">
        <ele>266</ele>
        <time>2018-01-31T10:04:43Z</time>
      </trkpt>
      <trkpt lat="45.94294" lon="4.83016">
        <ele>266</ele>
        <time>2018-01-31T10:04:45Z</time>
      </trkpt>
      <trkpt lat="45.94295" lon="4.83021">
        <ele>266</ele>
        <time>2018-01-31T10:04:46Z</time>
      </trkpt>
      <trkpt lat="45.94297" lon="4.83032">
        <ele>266</ele>
        <time>2018-01-31T10:04:48Z</time>
      </trkpt>
      <trkpt lat="45.94298" lon="4.83038">
        <ele>266</ele>
        <time>2018-01-31T10:04:49Z</time>
      </trkpt>
      <trkpt lat="45.94301" lon="4.83049">
        <ele>266</ele>
        <time>2018-01-31T10:04:51Z</time>
      </trkpt>
      <trkpt lat="45.94302" lon="4.83055">
        <ele>266</ele>
        <time>2018-01-31T10:04:52Z</time>
      </trkpt>
      <trkpt lat="45.94304" lon="4.83062">
        <ele>266</ele>
        <time>2018-01-31T10:04:53Z</time>
      </trkpt>
      <trkpt lat="45.94305" lon="4.83068">
        <ele>266</ele>
        <time>2018-01-31T10:04:54Z</time>
      </trkpt>
      <trkpt lat="45.94308" lon="4.8308">
        <ele>266</ele>
        <time>2018-01-31T10:04:56Z</time>
      </trkpt>
      <trkpt lat="45.9431" lon="4.83086">
        <ele>266</ele>
        <time>2018-01-31T10:04:57Z</time>
      </trkpt>
      <trkpt lat="45.94311" lon="4.83093">
        <ele>266</ele>
        <time>2018-01-31T10:04:58Z</time>
      </trkpt>
      <trkpt lat="45.94313" lon="4.83099">
        <ele>266</ele>
        <time>2018-01-31T10:04:59Z</time>
      </trkpt>
      <trkpt lat="45.94315" lon="4.83105">
        <ele>266</ele>
        <time>2018-01-31T10:05:00Z</time>
      </trkpt>
      <trkpt lat="45.94316" lon="4.83111">
        <ele>266</ele>
        <time>2018-01-31T10:05:01Z</time>
      </trkpt>
      <trkpt lat="45.94318" lon="4.83117">
        <ele>266</ele>
        <time>2018-01-31T10:05:02Z</time>
      </trkpt>
      <trkpt lat="45.94321" lon="4.83123">
        <ele>266</ele>
        <time>2018-01-31T10:05:03Z</time>
      </trkpt>
      <trkpt lat="45.94324" lon="4.83129">
        <ele>266</ele>
        <time>2018-01-31T10:05:04Z</time>
      </trkpt>
      <trkpt lat="45.94326" lon="4.83135">
        <ele>266</ele>
        <time>2018-01-31T10:05:05Z</time>
      </trkpt>
      <trkpt lat="45.94328" lon="4.83141">
        <ele>266</ele>
        <time>2018-01-31T10:05:06Z</time>
      </trkpt>
      <trkpt lat="45.9433" lon="4.83147">
        <ele>266</ele>
        <time>2018-01-31T10:05:07Z</time>
      </trkpt>
      <trkpt lat="45.94333" lon="4.83154">
        <ele>266</ele>
        <time>2018-01-31T10:05:08Z</time>
      </trkpt>
      <trkpt lat="45.94335" lon="4.8316">
        <ele>266</ele>
        <time>2018-01-31T10:05:09Z</time>
      </trkpt>
      <trkpt lat="45.94337" lon="4.83166">
        <ele>266</ele>
        <time>2018-01-31T10:05:10Z</time>
      </trkpt>
      <trkpt lat="45.94339" lon="4.83173">
        <ele>266</ele>
        <time>2018-01-31T10:05:11Z</time>
      </trkpt>
      <trkpt lat="45.94341" lon="4.83179">
        <ele>266</ele>
        <time>2018-01-31T10:05:12Z</time>
      </trkpt>
      <trkpt lat="45.94343" lon="4.83185">
        <ele>266</ele>
        <time>2018-01-31T10:05:13Z</time>
      </trkpt>
      <trkpt lat="45.94345" lon="4.83191">
        <ele>266</ele>
        <time>2018-01-31T10:05:14Z</time>
      </trkpt>
      <trkpt lat="45.94348" lon="4.83197">
        <ele>266</ele>
        <time>2018-01-31T10:05:15Z</time>
      </trkpt>
      <trkpt lat="45.9435" lon="4.83203">
        <ele>266</ele>
        <time>2018-01-31T10:05:16Z</time>
      </trkpt>
      <trkpt lat="45.94353" lon="4.83207">
        <ele>266</ele>
        <time>2018-01-31T10:05:17Z</time>
      </trkpt>
      <trkpt lat="45.94355" lon="4.83214">
        <ele>266</ele>
        <time>2018-01-31T10:05:18Z</time>
      </trkpt>
      <trkpt lat="45.94357" lon="4.83221">
        <ele>266</ele>
        <time>2018-01-31T10:05:19Z</time>
      </trkpt>
      <trkpt lat="45.94358" lon="4.83228">
        <ele>266</ele>
        <time>2018-01-31T10:05:20Z</time>
      </trkpt>
      <trkpt lat="45.9436" lon="4.83234">
        <ele>265</ele>
        <time>2018-01-31T10:05:21Z</time>
      </trkpt>
      <trkpt lat="45.94362" lon="4.83241">
        <ele>265</ele>
        <time>2018-01-31T10:05:22Z</time>
      </trkpt>
      <trkpt lat="45.94364" lon="4.83247">
        <ele>265</ele>
        <time>2018-01-31T10:05:23Z</time>
      </trkpt>
      <trkpt lat="45.94369" lon="4.83258">
        <ele>265</ele>
        <time>2018-01-31T10:05:25Z</time>
      </trkpt>
      <trkpt lat="45.94371" lon="4.83263">
        <ele>264</ele>
        <time>2018-01-31T10:05:26Z</time>
      </trkpt>
      <trkpt lat="45.94372" lon="4.83269">
        <ele>264</ele>
        <time>2018-01-31T10:05:27Z</time>
      </trkpt>
      <trkpt lat="45.94375" lon="4.83275">
        <ele>264</ele>
        <time>2018-01-31T10:05:28Z</time>
      </trkpt>
      <trkpt lat="45.94377" lon="4.83281">
        <ele>264</ele>
        <time>2018-01-31T10:05:29Z</time>
      </trkpt>
      <trkpt lat="45.94379" lon="4.83288">
        <ele>264</ele>
        <time>2018-01-31T10:05:30Z</time>
      </trkpt>
      <trkpt lat="45.94381" lon="4.83294">
        <ele>264</ele>
        <time>2018-01-31T10:05:31Z</time>
      </trkpt>
      <trkpt lat="45.94383" lon="4.83299">
        <ele>264</ele>
        <time>2018-01-31T10:05:32Z</time>
      </trkpt>
      <trkpt lat="45.94385" lon="4.83306">
        <ele>264</ele>
        <time>2018-01-31T10:05:33Z</time>
      </trkpt>
      <trkpt lat="45.94387" lon="4.83312">
        <ele>264</ele>
        <time>2018-01-31T10:05:34Z</time>
      </trkpt>
      <trkpt lat="45.9439" lon="4.83318">
        <ele>264</ele>
        <time>2018-01-31T10:05:35Z</time>
      </trkpt>
      <trkpt lat="45.94393" lon="4.83326">
        <ele>264</ele>
        <time>2018-01-31T10:05:36Z</time>
      </trkpt>
      <trkpt lat="45.94395" lon="4.83333">
        <ele>264</ele>
        <time>2018-01-31T10:05:37Z</time>
      </trkpt>
      <trkpt lat="45.94398" lon="4.8334">
        <ele>263</ele>
        <time>2018-01-31T10:05:38Z</time>
      </trkpt>
      <trkpt lat="45.94401" lon="4.83348">
        <ele>263</ele>
        <time>2018-01-31T10:05:39Z</time>
      </trkpt>
      <trkpt lat="45.94404" lon="4.83356">
        <ele>264</ele>
        <time>2018-01-31T10:05:40Z</time>
      </trkpt>
      <trkpt lat="45.94406" lon="4.83364">
        <ele>264</ele>
        <time>2018-01-31T10:05:41Z</time>
      </trkpt>
      <trkpt lat="45.94408" lon="4.83371">
        <ele>264</ele>
        <time>2018-01-31T10:05:42Z</time>
      </trkpt>
      <trkpt lat="45.94411" lon="4.83378">
        <ele>264</ele>
        <time>2018-01-31T10:05:43Z</time>
      </trkpt>
      <trkpt lat="45.94415" lon="4.83384">
        <ele>264</ele>
        <time>2018-01-31T10:05:44Z</time>
      </trkpt>
      <trkpt lat="45.94418" lon="4.83391">
        <ele>264</ele>
        <time>2018-01-31T10:05:45Z</time>
      </trkpt>
      <trkpt lat="45.94421" lon="4.83397">
        <ele>264</ele>
        <time>2018-01-31T10:05:46Z</time>
      </trkpt>
      <trkpt lat="45.94424" lon="4.83404">
        <ele>264</ele>
        <time>2018-01-31T10:05:47Z</time>
      </trkpt>
      <trkpt lat="45.94427" lon="4.83409">
        <ele>264</ele>
        <time>2018-01-31T10:05:48Z</time>
      </trkpt>
      <trkpt lat="45.94429" lon="4.83416">
        <ele>264</ele>
        <time>2018-01-31T10:05:49Z</time>
      </trkpt>
      <trkpt lat="45.94432" lon="4.83421">
        <ele>264</ele>
        <time>2018-01-31T10:05:50Z</time>
      </trkpt>
      <trkpt lat="45.94435" lon="4.83427">
        <ele>264</ele>
        <time>2018-01-31T10:05:51Z</time>
      </trkpt>
      <trkpt lat="45.94437" lon="4.83433">
        <ele>264</ele>
        <time>2018-01-31T10:05:52Z</time>
      </trkpt>
      <trkpt lat="45.9444" lon="4.83438">
        <ele>263</ele>
        <time>2018-01-31T10:05:53Z</time>
      </trkpt>
      <trkpt lat="45.94444" lon="4.83445">
        <ele>263</ele>
        <time>2018-01-31T10:05:54Z</time>
      </trkpt>
      <trkpt lat="45.94447" lon="4.83451">
        <ele>263</ele>
        <time>2018-01-31T10:05:55Z</time>
      </trkpt>
      <trkpt lat="45.94451" lon="4.83458">
        <ele>263</ele>
        <time>2018-01-31T10:05:56Z</time>
      </trkpt>
      <trkpt lat="45.94454" lon="4.83463">
        <ele>263</ele>
        <time>2018-01-31T10:05:57Z</time>
      </trkpt>
      <trkpt lat="45.94458" lon="4.83469">
        <ele>263</ele>
        <time>2018-01-31T10:05:58Z</time>
      </trkpt>
      <trkpt lat="45.94462" lon="4.83475">
        <ele>263</ele>
        <time>2018-01-31T10:05:59Z</time>
      </trkpt>
      <trkpt lat="45.94466" lon="4.83481">
        <ele>263</ele>
        <time>2018-01-31T10:06:00Z</time>
      </trkpt>
      <trkpt lat="45.9447" lon="4.83486">
        <ele>263</ele>
        <time>2018-01-31T10:06:01Z</time>
      </trkpt>
      <trkpt lat="45.94473" lon="4.83492">
        <ele>263</ele>
        <time>2018-01-31T10:06:02Z</time>
      </trkpt>
      <trkpt lat="45.94477" lon="4.83498">
        <ele>263</ele>
        <time>2018-01-31T10:06:03Z</time>
      </trkpt>
      <trkpt lat="45.94481" lon="4.83504">
        <ele>262</ele>
        <time>2018-01-31T10:06:04Z</time>
      </trkpt>
      <trkpt lat="45.94484" lon="4.83511">
        <ele>262</ele>
        <time>2018-01-31T10:06:05Z</time>
      </trkpt>
      <trkpt lat="45.94488" lon="4.83518">
        <ele>262</ele>
        <time>2018-01-31T10:06:06Z</time>
      </trkpt>
      <trkpt lat="45.94492" lon="4.83525">
        <ele>262</ele>
        <time>2018-01-31T10:06:07Z</time>
      </trkpt>
      <trkpt lat="45.94496" lon="4.83532">
        <ele>262</ele>
        <time>2018-01-31T10:06:08Z</time>
      </trkpt>
      <trkpt lat="45.945" lon="4.83539">
        <ele>262</ele>
        <time>2018-01-31T10:06:09Z</time>
      </trkpt>
      <trkpt lat="45.94503" lon="4.83545">
        <ele>261</ele>
        <time>2018-01-31T10:06:10Z</time>
      </trkpt>
      <trkpt lat="45.94507" lon="4.83551">
        <ele>261</ele>
        <time>2018-01-31T10:06:11Z</time>
      </trkpt>
      <trkpt lat="45.9451" lon="4.83557">
        <ele>261</ele>
        <time>2018-01-31T10:06:12Z</time>
      </trkpt>
      <trkpt lat="45.94513" lon="4.83564">
        <ele>261</ele>
        <time>2018-01-31T10:06:13Z</time>
      </trkpt>
      <trkpt lat="45.94516" lon="4.8357">
        <ele>261</ele>
        <time>2018-01-31T10:06:14Z</time>
      </trkpt>
      <trkpt lat="45.94518" lon="4.83577">
        <ele>261</ele>
        <time>2018-01-31T10:06:15Z</time>
      </trkpt>
      <trkpt lat="45.9452" lon="4.83582">
        <ele>261</ele>
        <time>2018-01-31T10:06:16Z</time>
      </trkpt>
      <trkpt lat="45.94522" lon="4.83589">
        <ele>261</ele>
        <time>2018-01-31T10:06:17Z</time>
      </trkpt>
      <trkpt lat="45.94524" lon="4.83595">
        <ele>261</ele>
        <time>2018-01-31T10:06:18Z</time>
      </trkpt>
      <trkpt lat="45.94526" lon="4.83602">
        <ele>261</ele>
        <time>2018-01-31T10:06:19Z</time>
      </trkpt>
      <trkpt lat="45.94528" lon="4.83608">
        <ele>261</ele>
        <time>2018-01-31T10:06:20Z</time>
      </trkpt>
      <trkpt lat="45.94529" lon="4.83615">
        <ele>261</ele>
        <time>2018-01-31T10:06:21Z</time>
      </trkpt>
      <trkpt lat="45.9453" lon="4.83623">
        <ele>261</ele>
        <time>2018-01-31T10:06:22Z</time>
      </trkpt>
      <trkpt lat="45.94532" lon="4.83629">
        <ele>261</ele>
        <time>2018-01-31T10:06:23Z</time>
      </trkpt>
      <trkpt lat="45.94533" lon="4.83636">
        <ele>261</ele>
        <time>2018-01-31T10:06:24Z</time>
      </trkpt>
      <trkpt lat="45.94534" lon="4.83644">
        <ele>261</ele>
        <time>2018-01-31T10:06:25Z</time>
      </trkpt>
      <trkpt lat="45.94535" lon="4.83652">
        <ele>261</ele>
        <time>2018-01-31T10:06:26Z</time>
      </trkpt>
      <trkpt lat="45.94536" lon="4.8366">
        <ele>261</ele>
        <time>2018-01-31T10:06:27Z</time>
      </trkpt>
      <trkpt lat="45.94537" lon="4.83668">
        <ele>262</ele>
        <time>2018-01-31T10:06:28Z</time>
      </trkpt>
      <trkpt lat="45.94539" lon="4.83676">
        <ele>262</ele>
        <time>2018-01-31T10:06:29Z</time>
      </trkpt>
      <trkpt lat="45.9454" lon="4.83683">
        <ele>262</ele>
        <time>2018-01-31T10:06:30Z</time>
      </trkpt>
      <trkpt lat="45.94541" lon="4.83691">
        <ele>262</ele>
        <time>2018-01-31T10:06:31Z</time>
      </trkpt>
      <trkpt lat="45.94541" lon="4.83699">
        <ele>262</ele>
        <time>2018-01-31T10:06:32Z</time>
      </trkpt>
      <trkpt lat="45.94543" lon="4.83706">
        <ele>262</ele>
        <time>2018-01-31T10:06:33Z</time>
      </trkpt>
      <trkpt lat="45.94545" lon="4.83715">
        <ele>262</ele>
        <time>2018-01-31T10:06:34Z</time>
      </trkpt>
      <trkpt lat="45.94546" lon="4.83722">
        <ele>262</ele>
        <time>2018-01-31T10:06:35Z</time>
      </trkpt>
      <trkpt lat="45.94547" lon="4.8373">
        <ele>262</ele>
        <time>2018-01-31T10:06:36Z</time>
      </trkpt>
      <trkpt lat="45.94549" lon="4.83738">
        <ele>262</ele>
        <time>2018-01-31T10:06:37Z</time>
      </trkpt>
      <trkpt lat="45.9455" lon="4.83746">
        <ele>262</ele>
        <time>2018-01-31T10:06:38Z</time>
      </trkpt>
      <trkpt lat="45.94552" lon="4.83753">
        <ele>263</ele>
        <time>2018-01-31T10:06:39Z</time>
      </trkpt>
      <trkpt lat="45.94554" lon="4.83761">
        <ele>263</ele>
        <time>2018-01-31T10:06:40Z</time>
      </trkpt>
      <trkpt lat="45.94554" lon="4.83769">
        <ele>263</ele>
        <time>2018-01-31T10:06:41Z</time>
      </trkpt>
      <trkpt lat="45.94555" lon="4.83776">
        <ele>264</ele>
        <time>2018-01-31T10:06:42Z</time>
      </trkpt>
      <trkpt lat="45.94556" lon="4.83784">
        <ele>264</ele>
        <time>2018-01-31T10:06:43Z</time>
      </trkpt>
      <trkpt lat="45.94558" lon="4.83792">
        <ele>264</ele>
        <time>2018-01-31T10:06:44Z</time>
      </trkpt>
      <trkpt lat="45.94559" lon="4.838">
        <ele>264</ele>
        <time>2018-01-31T10:06:45Z</time>
      </trkpt>
      <trkpt lat="45.9456" lon="4.83808">
        <ele>264</ele>
        <time>2018-01-31T10:06:46Z</time>
      </trkpt>
      <trkpt lat="45.94561" lon="4.83815">
        <ele>264</ele>
        <time>2018-01-31T10:06:47Z</time>
      </trkpt>
      <trkpt lat="45.94562" lon="4.83822">
        <ele>264</ele>
        <time>2018-01-31T10:06:48Z</time>
      </trkpt>
      <trkpt lat="45.94563" lon="4.83829">
        <ele>265</ele>
        <time>2018-01-31T10:06:49Z</time>
      </trkpt>
      <trkpt lat="45.94565" lon="4.83836">
        <ele>266</ele>
        <time>2018-01-31T10:06:50Z</time>
      </trkpt>
      <trkpt lat="45.94566" lon="4.83843">
        <ele>266</ele>
        <time>2018-01-31T10:06:51Z</time>
      </trkpt>
      <trkpt lat="45.94566" lon="4.8385">
        <ele>266</ele>
        <time>2018-01-31T10:06:52Z</time>
      </trkpt>
      <trkpt lat="45.94567" lon="4.83858">
        <ele>267</ele>
        <time>2018-01-31T10:06:53Z</time>
      </trkpt>
      <trkpt lat="45.94569" lon="4.83866">
        <ele>267</ele>
        <time>2018-01-31T10:06:54Z</time>
      </trkpt>
      <trkpt lat="45.94571" lon="4.83876">
        <ele>267</ele>
        <time>2018-01-31T10:06:56Z</time>
      </trkpt>
      <trkpt lat="45.94571" lon="4.83882">
        <ele>267</ele>
        <time>2018-01-31T10:06:57Z</time>
      </trkpt>
      <trkpt lat="45.94574" lon="4.83892">
        <ele>267</ele>
        <time>2018-01-31T10:06:59Z</time>
      </trkpt>
      <trkpt lat="45.94574" lon="4.83896">
        <ele>267</ele>
        <time>2018-01-31T10:07:00Z</time>
      </trkpt>
      <trkpt lat="45.94575" lon="4.83906">
        <ele>268</ele>
        <time>2018-01-31T10:07:02Z</time>
      </trkpt>
      <trkpt lat="45.94577" lon="4.8391">
        <ele>268</ele>
        <time>2018-01-31T10:07:03Z</time>
      </trkpt>
      <trkpt lat="45.94578" lon="4.83922">
        <ele>268</ele>
        <time>2018-01-31T10:07:07Z</time>
      </trkpt>
      <trkpt lat="45.94579" lon="4.83926">
        <ele>268</ele>
        <time>2018-01-31T10:07:08Z</time>
      </trkpt>
      <trkpt lat="45.9458" lon="4.83934">
        <ele>269</ele>
        <time>2018-01-31T10:07:10Z</time>
      </trkpt>
      <trkpt lat="45.94581" lon="4.83939">
        <ele>269</ele>
        <time>2018-01-31T10:07:11Z</time>
      </trkpt>
      <trkpt lat="45.94582" lon="4.83949">
        <ele>269</ele>
        <time>2018-01-31T10:07:13Z</time>
      </trkpt>
      <trkpt lat="45.94583" lon="4.83953">
        <ele>269</ele>
        <time>2018-01-31T10:07:14Z</time>
      </trkpt>
      <trkpt lat="45.94585" lon="4.83963">
        <ele>268</ele>
        <time>2018-01-31T10:07:16Z</time>
      </trkpt>
      <trkpt lat="45.94585" lon="4.83967">
        <ele>268</ele>
        <time>2018-01-31T10:07:17Z</time>
      </trkpt>
      <trkpt lat="45.94586" lon="4.83976">
        <ele>268</ele>
        <time>2018-01-31T10:07:19Z</time>
      </trkpt>
      <trkpt lat="45.94587" lon="4.83981">
        <ele>268</ele>
        <time>2018-01-31T10:07:20Z</time>
      </trkpt>
      <trkpt lat="45.94589" lon="4.83993">
        <ele>269</ele>
        <time>2018-01-31T10:07:23Z</time>
      </trkpt>
      <trkpt lat="45.94589" lon="4.83996">
        <ele>269</ele>
        <time>2018-01-31T10:07:24Z</time>
      </trkpt>
      <trkpt lat="45.94592" lon="4.84008">
        <ele>269</ele>
        <time>2018-01-31T10:07:27Z</time>
      </trkpt>
      <trkpt lat="45.94592" lon="4.84012">
        <ele>269</ele>
        <time>2018-01-31T10:07:28Z</time>
      </trkpt>
      <trkpt lat="45.94594" lon="4.84021">
        <ele>269</ele>
        <time>2018-01-31T10:07:30Z</time>
      </trkpt>
      <trkpt lat="45.94594" lon="4.84025">
        <ele>269</ele>
        <time>2018-01-31T10:07:31Z</time>
      </trkpt>
      <trkpt lat="45.94596" lon="4.84035">
        <ele>269</ele>
        <time>2018-01-31T10:07:33Z</time>
      </trkpt>
      <trkpt lat="45.94597" lon="4.8404">
        <ele>269</ele>
        <time>2018-01-31T10:07:34Z</time>
      </trkpt>
      <trkpt lat="45.94598" lon="4.84051">
        <ele>269</ele>
        <time>2018-01-31T10:07:36Z</time>
      </trkpt>
      <trkpt lat="45.94599" lon="4.84056">
        <ele>269</ele>
        <time>2018-01-31T10:07:37Z</time>
      </trkpt>
      <trkpt lat="45.94601" lon="4.84067">
        <ele>269</ele>
        <time>2018-01-31T10:07:39Z</time>
      </trkpt>
      <trkpt lat="45.94601" lon="4.84072">
        <ele>269</ele>
        <time>2018-01-31T10:07:40Z</time>
      </trkpt>
      <trkpt lat="45.94603" lon="4.84081">
        <ele>269</ele>
        <time>2018-01-31T10:07:42Z</time>
      </trkpt>
      <trkpt lat="45.94604" lon="4.84087">
        <ele>269</ele>
        <time>2018-01-31T10:07:43Z</time>
      </trkpt>
      <trkpt lat="45.94606" lon="4.84097">
        <ele>269</ele>
        <time>2018-01-31T10:07:45Z</time>
      </trkpt>
      <trkpt lat="45.94607" lon="4.84102">
        <ele>269</ele>
        <time>2018-01-31T10:07:46Z</time>
      </trkpt>
      <trkpt lat="45.94608" lon="4.84114">
        <ele>269</ele>
        <time>2018-01-31T10:07:48Z</time>
      </trkpt>
      <trkpt lat="45.94609" lon="4.84119">
        <ele>269</ele>
        <time>2018-01-31T10:07:49Z</time>
      </trkpt>
      <trkpt lat="45.94611" lon="4.84131">
        <ele>269</ele>
        <time>2018-01-31T10:07:51Z</time>
      </trkpt>
      <trkpt lat="45.94612" lon="4.84137">
        <ele>269</ele>
        <time>2018-01-31T10:07:52Z</time>
      </trkpt>
      <trkpt lat="45.94613" lon="4.84144">
        <ele>269</ele>
        <time>2018-01-31T10:07:53Z</time>
      </trkpt>
      <trkpt lat="45.94614" lon="4.8415">
        <ele>269</ele>
        <time>2018-01-31T10:07:54Z</time>
      </trkpt>
      <trkpt lat="45.94615" lon="4.84157">
        <ele>269</ele>
        <time>2018-01-31T10:07:55Z</time>
      </trkpt>
      <trkpt lat="45.94616" lon="4.84164">
        <ele>269</ele>
        <time>2018-01-31T10:07:56Z</time>
      </trkpt>
      <trkpt lat="45.94617" lon="4.8417">
        <ele>269</ele>
        <time>2018-01-31T10:07:57Z</time>
      </trkpt>
      <trkpt lat="45.94618" lon="4.84176">
        <ele>269</ele>
        <time>2018-01-31T10:07:58Z</time>
      </trkpt>
      <trkpt lat="45.9462" lon="4.84181">
        <ele>269</ele>
        <time>2018-01-31T10:07:59Z</time>
      </trkpt>
      <trkpt lat="45.94622" lon="4.84188">
        <ele>269</ele>
        <time>2018-01-31T10:08:00Z</time>
      </trkpt>
      <trkpt lat="45.94622" lon="4.84195">
        <ele>269</ele>
        <time>2018-01-31T10:08:01Z</time>
      </trkpt>
      <trkpt lat="45.94623" lon="4.84201">
        <ele>269</ele>
        <time>2018-01-31T10:08:02Z</time>
      </trkpt>
      <trkpt lat="45.94625" lon="4.84212">
        <ele>269</ele>
        <time>2018-01-31T10:08:04Z</time>
      </trkpt>
      <trkpt lat="45.94626" lon="4.84218">
        <ele>269</ele>
        <time>2018-01-31T10:08:05Z</time>
      </trkpt>
      <trkpt lat="45.94627" lon="4.8423">
        <ele>269</ele>
        <time>2018-01-31T10:08:07Z</time>
      </trkpt>
      <trkpt lat="45.94627" lon="4.84236">
        <ele>269</ele>
        <time>2018-01-31T10:08:08Z</time>
      </trkpt>
      <trkpt lat="45.94629" lon="4.84248">
        <ele>269</ele>
        <time>2018-01-31T10:08:10Z</time>
      </trkpt>
      <trkpt lat="45.9463" lon="4.84255">
        <ele>269</ele>
        <time>2018-01-31T10:08:11Z</time>
      </trkpt>
      <trkpt lat="45.94631" lon="4.84262">
        <ele>269</ele>
        <time>2018-01-31T10:08:12Z</time>
      </trkpt>
      <trkpt lat="45.94632" lon="4.84268">
        <ele>269</ele>
        <time>2018-01-31T10:08:13Z</time>
      </trkpt>
      <trkpt lat="45.94633" lon="4.8428">
        <ele>269</ele>
        <time>2018-01-31T10:08:15Z</time>
      </trkpt>
      <trkpt lat="45.94634" lon="4.84286">
        <ele>269</ele>
        <time>2018-01-31T10:08:16Z</time>
      </trkpt>
      <trkpt lat="45.94637" lon="4.84298">
        <ele>269</ele>
        <time>2018-01-31T10:08:18Z</time>
      </trkpt>
      <trkpt lat="45.94638" lon="4.84305">
        <ele>269</ele>
        <time>2018-01-31T10:08:19Z</time>
      </trkpt>
      <trkpt lat="45.94639" lon="4.84317">
        <ele>269</ele>
        <time>2018-01-31T10:08:21Z</time>
      </trkpt>
      <trkpt lat="45.9464" lon="4.84323">
        <ele>269</ele>
        <time>2018-01-31T10:08:22Z</time>
      </trkpt>
      <trkpt lat="45.94642" lon="4.84335">
        <ele>268</ele>
        <time>2018-01-31T10:08:24Z</time>
      </trkpt>
      <trkpt lat="45.94642" lon="4.84341">
        <ele>268</ele>
        <time>2018-01-31T10:08:25Z</time>
      </trkpt>
      <trkpt lat="45.94643" lon="4.84347">
        <ele>268</ele>
        <time>2018-01-31T10:08:26Z</time>
      </trkpt>
      <trkpt lat="45.94644" lon="4.84354">
        <ele>268</ele>
        <time>2018-01-31T10:08:27Z</time>
      </trkpt>
      <trkpt lat="45.94645" lon="4.84361">
        <ele>268</ele>
        <time>2018-01-31T10:08:28Z</time>
      </trkpt>
      <trkpt lat="45.94645" lon="4.84367">
        <ele>268</ele>
        <time>2018-01-31T10:08:29Z</time>
      </trkpt>
      <trkpt lat="45.94646" lon="4.84374">
        <ele>268</ele>
        <time>2018-01-31T10:08:30Z</time>
      </trkpt>
      <trkpt lat="45.94647" lon="4.8438">
        <ele>268</ele>
        <time>2018-01-31T10:08:31Z</time>
      </trkpt>
      <trkpt lat="45.94648" lon="4.84386">
        <ele>268</ele>
        <time>2018-01-31T10:08:32Z</time>
      </trkpt>
      <trkpt lat="45.94649" lon="4.84392">
        <ele>268</ele>
        <time>2018-01-31T10:08:33Z</time>
      </trkpt>
      <trkpt lat="45.9465" lon="4.84405">
        <ele>268</ele>
        <time>2018-01-31T10:08:35Z</time>
      </trkpt>
      <trkpt lat="45.9465" lon="4.84412">
        <ele>268</ele>
        <time>2018-01-31T10:08:36Z</time>
      </trkpt>
      <trkpt lat="45.94651" lon="4.84423">
        <ele>268</ele>
        <time>2018-01-31T10:08:38Z</time>
      </trkpt>
      <trkpt lat="45.94652" lon="4.84428">
        <ele>268</ele>
        <time>2018-01-31T10:08:39Z</time>
      </trkpt>
      <trkpt lat="45.94653" lon="4.8444">
        <ele>268</ele>
        <time>2018-01-31T10:08:41Z</time>
      </trkpt>
      <trkpt lat="45.94654" lon="4.84446">
        <ele>268</ele>
        <time>2018-01-31T10:08:42Z</time>
      </trkpt>
      <trkpt lat="45.94655" lon="4.84458">
        <ele>268</ele>
        <time>2018-01-31T10:08:44Z</time>
      </trkpt>
      <trkpt lat="45.94656" lon="4.84463">
        <ele>268</ele>
        <time>2018-01-31T10:08:45Z</time>
      </trkpt>
      <trkpt lat="45.94657" lon="4.84476">
        <ele>268</ele>
        <time>2018-01-31T10:08:47Z</time>
      </trkpt>
      <trkpt lat="45.94658" lon="4.84484">
        <ele>268</ele>
        <time>2018-01-31T10:08:48Z</time>
      </trkpt>
      <trkpt lat="45.9466" lon="4.84496">
        <ele>268</ele>
        <time>2018-01-31T10:08:50Z</time>
      </trkpt>
      <trkpt lat="45.9466" lon="4.84502">
        <ele>268</ele>
        <time>2018-01-31T10:08:51Z</time>
      </trkpt>
      <trkpt lat="45.94661" lon="4.84515">
        <ele>268</ele>
        <time>2018-01-31T10:08:53Z</time>
      </trkpt>
      <trkpt lat="45.94662" lon="4.84523">
        <ele>268</ele>
        <time>2018-01-31T10:08:54Z</time>
      </trkpt>
      <trkpt lat="45.94663" lon="4.84535">
        <ele>268</ele>
        <time>2018-01-31T10:08:56Z</time>
      </trkpt>
      <trkpt lat="45.94664" lon="4.84541">
        <ele>268</ele>
        <time>2018-01-31T10:08:57Z</time>
      </trkpt>
      <trkpt lat="45.94664" lon="4.84547">
        <ele>268</ele>
        <time>2018-01-31T10:08:58Z</time>
      </trkpt>
      <trkpt lat="45.94665" lon="4.84554">
        <ele>268</ele>
        <time>2018-01-31T10:08:59Z</time>
      </trkpt>
      <trkpt lat="45.94665" lon="4.84561">
        <ele>268</ele>
        <time>2018-01-31T10:09:00Z</time>
      </trkpt>
      <trkpt lat="45.94666" lon="4.84567">
        <ele>268</ele>
        <time>2018-01-31T10:09:01Z</time>
      </trkpt>
      <trkpt lat="45.94667" lon="4.84574">
        <ele>268</ele>
        <time>2018-01-31T10:09:02Z</time>
      </trkpt>
      <trkpt lat="45.94667" lon="4.84581">
        <ele>268</ele>
        <time>2018-01-31T10:09:03Z</time>
      </trkpt>
      <trkpt lat="45.94667" lon="4.84589">
        <ele>268</ele>
        <time>2018-01-31T10:09:04Z</time>
      </trkpt>
      <trkpt lat="45.94667" lon="4.84596">
        <ele>268</ele>
        <time>2018-01-31T10:09:05Z</time>
      </trkpt>
      <trkpt lat="45.94667" lon="4.84604">
        <ele>268</ele>
        <time>2018-01-31T10:09:06Z</time>
      </trkpt>
      <trkpt lat="45.94668" lon="4.84611">
        <ele>268</ele>
        <time>2018-01-31T10:09:07Z</time>
      </trkpt>
      <trkpt lat="45.94669" lon="4.84619">
        <ele>268</ele>
        <time>2018-01-31T10:09:08Z</time>
      </trkpt>
      <trkpt lat="45.94669" lon="4.84626">
        <ele>268</ele>
        <time>2018-01-31T10:09:09Z</time>
      </trkpt>
      <trkpt lat="45.94669" lon="4.84638">
        <ele>268</ele>
        <time>2018-01-31T10:09:11Z</time>
      </trkpt>
      <trkpt lat="45.9467" lon="4.84644">
        <ele>268</ele>
        <time>2018-01-31T10:09:12Z</time>
      </trkpt>
      <trkpt lat="45.94671" lon="4.84652">
        <ele>268</ele>
        <time>2018-01-31T10:09:13Z</time>
      </trkpt>
      <trkpt lat="45.94671" lon="4.84657">
        <ele>268</ele>
        <time>2018-01-31T10:09:14Z</time>
      </trkpt>
      <trkpt lat="45.94671" lon="4.84665">
        <ele>269</ele>
        <time>2018-01-31T10:09:15Z</time>
      </trkpt>
      <trkpt lat="45.94671" lon="4.84671">
        <ele>269</ele>
        <time>2018-01-31T10:09:16Z</time>
      </trkpt>
      <trkpt lat="45.94672" lon="4.84682">
        <ele>269</ele>
        <time>2018-01-31T10:09:18Z</time>
      </trkpt>
      <trkpt lat="45.94672" lon="4.84688">
        <ele>269</ele>
        <time>2018-01-31T10:09:19Z</time>
      </trkpt>
      <trkpt lat="45.94672" lon="4.847">
        <ele>269</ele>
        <time>2018-01-31T10:09:21Z</time>
      </trkpt>
      <trkpt lat="45.94672" lon="4.84706">
        <ele>269</ele>
        <time>2018-01-31T10:09:22Z</time>
      </trkpt>
      <trkpt lat="45.94673" lon="4.84719">
        <ele>269</ele>
        <time>2018-01-31T10:09:24Z</time>
      </trkpt>
      <trkpt lat="45.94673" lon="4.84724">
        <ele>269</ele>
        <time>2018-01-31T10:09:25Z</time>
      </trkpt>
      <trkpt lat="45.94672" lon="4.84737">
        <ele>269</ele>
        <time>2018-01-31T10:09:27Z</time>
      </trkpt>
      <trkpt lat="45.94673" lon="4.84743">
        <ele>269</ele>
        <time>2018-01-31T10:09:28Z</time>
      </trkpt>
      <trkpt lat="45.94673" lon="4.8475">
        <ele>269</ele>
        <time>2018-01-31T10:09:29Z</time>
      </trkpt>
      <trkpt lat="45.94674" lon="4.84758">
        <ele>269</ele>
        <time>2018-01-31T10:09:30Z</time>
      </trkpt>
      <trkpt lat="45.94674" lon="4.84765">
        <ele>269</ele>
        <time>2018-01-31T10:09:31Z</time>
      </trkpt>
      <trkpt lat="45.94674" lon="4.84772">
        <ele>269</ele>
        <time>2018-01-31T10:09:32Z</time>
      </trkpt>
      <trkpt lat="45.94675" lon="4.84784">
        <ele>269</ele>
        <time>2018-01-31T10:09:34Z</time>
      </trkpt>
      <trkpt lat="45.94676" lon="4.8479">
        <ele>269</ele>
        <time>2018-01-31T10:09:35Z</time>
      </trkpt>
      <trkpt lat="45.94676" lon="4.84796">
        <ele>268</ele>
        <time>2018-01-31T10:09:36Z</time>
      </trkpt>
      <trkpt lat="45.94676" lon="4.84803">
        <ele>268</ele>
        <time>2018-01-31T10:09:37Z</time>
      </trkpt>
      <trkpt lat="45.94676" lon="4.84809">
        <ele>268</ele>
        <time>2018-01-31T10:09:38Z</time>
      </trkpt>
      <trkpt lat="45.94677" lon="4.84816">
        <ele>268</ele>
        <time>2018-01-31T10:09:39Z</time>
      </trkpt>
      <trkpt lat="45.94678" lon="4.84823">
        <ele>268</ele>
        <time>2018-01-31T10:09:40Z</time>
      </trkpt>
      <trkpt lat="45.94679" lon="4.84831">
        <ele>268</ele>
        <time>2018-01-31T10:09:41Z</time>
      </trkpt>
      <trkpt lat="45.9468" lon="4.8484">
        <ele>268</ele>
        <time>2018-01-31T10:09:42Z</time>
      </trkpt>
      <trkpt lat="45.94681" lon="4.84847">
        <ele>268</ele>
        <time>2018-01-31T10:09:43Z</time>
      </trkpt>
      <trkpt lat="45.94681" lon="4.84855">
        <ele>268</ele>
        <time>2018-01-31T10:09:44Z</time>
      </trkpt>
      <trkpt lat="45.94682" lon="4.84862">
        <ele>268</ele>
        <time>2018-01-31T10:09:45Z</time>
      </trkpt>
      <trkpt lat="45.94683" lon="4.84874">
        <ele>268</ele>
        <time>2018-01-31T10:09:47Z</time>
      </trkpt>
      <trkpt lat="45.94683" lon="4.8488">
        <ele>268</ele>
        <time>2018-01-31T10:09:48Z</time>
      </trkpt>
      <trkpt lat="45.94684" lon="4.84887">
        <ele>268</ele>
        <time>2018-01-31T10:09:49Z</time>
      </trkpt>
      <trkpt lat="45.94684" lon="4.84893">
        <ele>268</ele>
        <time>2018-01-31T10:09:50Z</time>
      </trkpt>
      <trkpt lat="45.94685" lon="4.849">
        <ele>269</ele>
        <time>2018-01-31T10:09:51Z</time>
      </trkpt>
      <trkpt lat="45.94685" lon="4.84907">
        <ele>269</ele>
        <time>2018-01-31T10:09:52Z</time>
      </trkpt>
      <trkpt lat="45.94686" lon="4.84913">
        <ele>269</ele>
        <time>2018-01-31T10:09:53Z</time>
      </trkpt>
      <trkpt lat="45.94687" lon="4.8492">
        <ele>269</ele>
        <time>2018-01-31T10:09:54Z</time>
      </trkpt>
      <trkpt lat="45.94688" lon="4.84927">
        <ele>269</ele>
        <time>2018-01-31T10:09:55Z</time>
      </trkpt>
      <trkpt lat="45.94688" lon="4.84934">
        <ele>269</ele>
        <time>2018-01-31T10:09:56Z</time>
      </trkpt>
      <trkpt lat="45.94689" lon="4.8494">
        <ele>269</ele>
        <time>2018-01-31T10:09:57Z</time>
      </trkpt>
      <trkpt lat="45.94689" lon="4.84947">
        <ele>269</ele>
        <time>2018-01-31T10:09:58Z</time>
      </trkpt>
      <trkpt lat="45.9469" lon="4.84954">
        <ele>269</ele>
        <time>2018-01-31T10:09:59Z</time>
      </trkpt>
      <trkpt lat="45.94691" lon="4.8496">
        <ele>269</ele>
        <time>2018-01-31T10:10:00Z</time>
      </trkpt>
      <trkpt lat="45.94692" lon="4.84972">
        <ele>269</ele>
        <time>2018-01-31T10:10:02Z</time>
      </trkpt>
      <trkpt lat="45.94692" lon="4.84979">
        <ele>269</ele>
        <time>2018-01-31T10:10:03Z</time>
      </trkpt>
      <trkpt lat="45.94694" lon="4.84991">
        <ele>269</ele>
        <time>2018-01-31T10:10:05Z</time>
      </trkpt>
      <trkpt lat="45.94695" lon="4.84997">
        <ele>269</ele>
        <time>2018-01-31T10:10:06Z</time>
      </trkpt>
      <trkpt lat="45.94696" lon="4.85003">
        <ele>269</ele>
        <time>2018-01-31T10:10:07Z</time>
      </trkpt>
      <trkpt lat="45.94696" lon="4.8501">
        <ele>269</ele>
        <time>2018-01-31T10:10:08Z</time>
      </trkpt>
      <trkpt lat="45.94697" lon="4.85022">
        <ele>269</ele>
        <time>2018-01-31T10:10:10Z</time>
      </trkpt>
      <trkpt lat="45.94698" lon="4.85028">
        <ele>269</ele>
        <time>2018-01-31T10:10:11Z</time>
      </trkpt>
      <trkpt lat="45.947" lon="4.85035">
        <ele>269</ele>
        <time>2018-01-31T10:10:12Z</time>
      </trkpt>
      <trkpt lat="45.94701" lon="4.85042">
        <ele>269</ele>
        <time>2018-01-31T10:10:13Z</time>
      </trkpt>
      <trkpt lat="45.94701" lon="4.85049">
        <ele>269</ele>
        <time>2018-01-31T10:10:14Z</time>
      </trkpt>
      <trkpt lat="45.94702" lon="4.85055">
        <ele>269</ele>
        <time>2018-01-31T10:10:15Z</time>
      </trkpt>
      <trkpt lat="45.94702" lon="4.85062">
        <ele>269</ele>
        <time>2018-01-31T10:10:16Z</time>
      </trkpt>
      <trkpt lat="45.94703" lon="4.85069">
        <ele>269</ele>
        <time>2018-01-31T10:10:17Z</time>
      </trkpt>
      <trkpt lat="45.94703" lon="4.85076">
        <ele>269</ele>
        <time>2018-01-31T10:10:18Z</time>
      </trkpt>
      <trkpt lat="45.94703" lon="4.85083">
        <ele>269</ele>
        <time>2018-01-31T10:10:19Z</time>
      </trkpt>
      <trkpt lat="45.94705" lon="4.8509">
        <ele>269</ele>
        <time>2018-01-31T10:10:20Z</time>
      </trkpt>
      <trkpt lat="45.94705" lon="4.85097">
        <ele>269</ele>
        <time>2018-01-31T10:10:21Z</time>
      </trkpt>
      <trkpt lat="45.94706" lon="4.85103">
        <ele>269</ele>
        <time>2018-01-31T10:10:22Z</time>
      </trkpt>
      <trkpt lat="45.94708" lon="4.8511">
        <ele>269</ele>
        <time>2018-01-31T10:10:23Z</time>
      </trkpt>
      <trkpt lat="45.94709" lon="4.85122">
        <ele>269</ele>
        <time>2018-01-31T10:10:25Z</time>
      </trkpt>
      <trkpt lat="45.9471" lon="4.85129">
        <ele>269</ele>
        <time>2018-01-31T10:10:26Z</time>
      </trkpt>
      <trkpt lat="45.9471" lon="4.85135">
        <ele>269</ele>
        <time>2018-01-31T10:10:27Z</time>
      </trkpt>
      <trkpt lat="45.94711" lon="4.85143">
        <ele>269</ele>
        <time>2018-01-31T10:10:28Z</time>
      </trkpt>
      <trkpt lat="45.94714" lon="4.85154">
        <ele>269</ele>
        <time>2018-01-31T10:10:30Z</time>
      </trkpt>
      <trkpt lat="45.94715" lon="4.85161">
        <ele>269</ele>
        <time>2018-01-31T10:10:31Z</time>
      </trkpt>
      <trkpt lat="45.94715" lon="4.85168">
        <ele>269</ele>
        <time>2018-01-31T10:10:32Z</time>
      </trkpt>
      <trkpt lat="45.94716" lon="4.85175">
        <ele>269</ele>
        <time>2018-01-31T10:10:33Z</time>
      </trkpt>
      <trkpt lat="45.94718" lon="4.85188">
        <ele>269</ele>
        <time>2018-01-31T10:10:35Z</time>
      </trkpt>
      <trkpt lat="45.94719" lon="4.85193">
        <ele>269</ele>
        <time>2018-01-31T10:10:36Z</time>
      </trkpt>
      <trkpt lat="45.94721" lon="4.85206">
        <ele>269</ele>
        <time>2018-01-31T10:10:38Z</time>
      </trkpt>
      <trkpt lat="45.94722" lon="4.85212">
        <ele>269</ele>
        <time>2018-01-31T10:10:39Z</time>
      </trkpt>
      <trkpt lat="45.94722" lon="4.85225">
        <ele>269</ele>
        <time>2018-01-31T10:10:41Z</time>
      </trkpt>
      <trkpt lat="45.94724" lon="4.85231">
        <ele>269</ele>
        <time>2018-01-31T10:10:42Z</time>
      </trkpt>
      <trkpt lat="45.94726" lon="4.85243">
        <ele>269</ele>
        <time>2018-01-31T10:10:44Z</time>
      </trkpt>
      <trkpt lat="45.94726" lon="4.85249">
        <ele>269</ele>
        <time>2018-01-31T10:10:45Z</time>
      </trkpt>
      <trkpt lat="45.94726" lon="4.85261">
        <ele>269</ele>
        <time>2018-01-31T10:10:47Z</time>
      </trkpt>
      <trkpt lat="45.94727" lon="4.85268">
        <ele>269</ele>
        <time>2018-01-31T10:10:48Z</time>
      </trkpt>
      <trkpt lat="45.94729" lon="4.8528">
        <ele>269</ele>
        <time>2018-01-31T10:10:50Z</time>
      </trkpt>
      <trkpt lat="45.94729" lon="4.85286">
        <ele>269</ele>
        <time>2018-01-31T10:10:51Z</time>
      </trkpt>
      <trkpt lat="45.94731" lon="4.85298">
        <ele>270</ele>
        <time>2018-01-31T10:10:53Z</time>
      </trkpt>
      <trkpt lat="45.94732" lon="4.85306">
        <ele>270</ele>
        <time>2018-01-31T10:10:54Z</time>
      </trkpt>
      <trkpt lat="45.94732" lon="4.85319">
        <ele>270</ele>
        <time>2018-01-31T10:10:56Z</time>
      </trkpt>
      <trkpt lat="45.94733" lon="4.85326">
        <ele>270</ele>
        <time>2018-01-31T10:10:57Z</time>
      </trkpt>
      <trkpt lat="45.94734" lon="4.85338">
        <ele>271</ele>
        <time>2018-01-31T10:10:59Z</time>
      </trkpt>
      <trkpt lat="45.94735" lon="4.85346">
        <ele>271</ele>
        <time>2018-01-31T10:11:00Z</time>
      </trkpt>
      <trkpt lat="45.94737" lon="4.85358">
        <ele>271</ele>
        <time>2018-01-31T10:11:02Z</time>
      </trkpt>
      <trkpt lat="45.94737" lon="4.85365">
        <ele>271</ele>
        <time>2018-01-31T10:11:03Z</time>
      </trkpt>
      <trkpt lat="45.94738" lon="4.85371">
        <ele>271</ele>
        <time>2018-01-31T10:11:04Z</time>
      </trkpt>
      <trkpt lat="45.94739" lon="4.85378">
        <ele>271</ele>
        <time>2018-01-31T10:11:05Z</time>
      </trkpt>
      <trkpt lat="45.94739" lon="4.85384">
        <ele>272</ele>
        <time>2018-01-31T10:11:06Z</time>
      </trkpt>
      <trkpt lat="45.94739" lon="4.85391">
        <ele>272</ele>
        <time>2018-01-31T10:11:07Z</time>
      </trkpt>
      <trkpt lat="45.9474" lon="4.854">
        <ele>272</ele>
        <time>2018-01-31T10:11:08Z</time>
      </trkpt>
      <trkpt lat="45.9474" lon="4.85406">
        <ele>272</ele>
        <time>2018-01-31T10:11:09Z</time>
      </trkpt>
      <trkpt lat="45.94741" lon="4.85413">
        <ele>272</ele>
        <time>2018-01-31T10:11:10Z</time>
      </trkpt>
      <trkpt lat="45.94742" lon="4.85419">
        <ele>273</ele>
        <time>2018-01-31T10:11:11Z</time>
      </trkpt>
      <trkpt lat="45.94744" lon="4.85431">
        <ele>273</ele>
        <time>2018-01-31T10:11:13Z</time>
      </trkpt>
      <trkpt lat="45.94744" lon="4.85437">
        <ele>274</ele>
        <time>2018-01-31T10:11:14Z</time>
      </trkpt>
      <trkpt lat="45.94745" lon="4.85449">
        <ele>274</ele>
        <time>2018-01-31T10:11:16Z</time>
      </trkpt>
      <trkpt lat="45.94746" lon="4.85456">
        <ele>274</ele>
        <time>2018-01-31T10:11:17Z</time>
      </trkpt>
      <trkpt lat="45.94748" lon="4.85468">
        <ele>274</ele>
        <time>2018-01-31T10:11:19Z</time>
      </trkpt>
      <trkpt lat="45.94748" lon="4.85474">
        <ele>275</ele>
        <time>2018-01-31T10:11:20Z</time>
      </trkpt>
      <trkpt lat="45.94749" lon="4.85485">
        <ele>275</ele>
        <time>2018-01-31T10:11:22Z</time>
      </trkpt>
      <trkpt lat="45.9475" lon="4.8549">
        <ele>275</ele>
        <time>2018-01-31T10:11:23Z</time>
      </trkpt>
      <trkpt lat="45.94751" lon="4.855">
        <ele>276</ele>
        <time>2018-01-31T10:11:25Z</time>
      </trkpt>
      <trkpt lat="45.94752" lon="4.85505">
        <ele>276</ele>
        <time>2018-01-31T10:11:26Z</time>
      </trkpt>
      <trkpt lat="45.94753" lon="4.85515">
        <ele>277</ele>
        <time>2018-01-31T10:11:28Z</time>
      </trkpt>
      <trkpt lat="45.94753" lon="4.8552">
        <ele>277</ele>
        <time>2018-01-31T10:11:29Z</time>
      </trkpt>
      <trkpt lat="45.94755" lon="4.8553">
        <ele>278</ele>
        <time>2018-01-31T10:11:31Z</time>
      </trkpt>
      <trkpt lat="45.94756" lon="4.85536">
        <ele>278</ele>
        <time>2018-01-31T10:11:32Z</time>
      </trkpt>
      <trkpt lat="45.94757" lon="4.85546">
        <ele>278</ele>
        <time>2018-01-31T10:11:34Z</time>
      </trkpt>
      <trkpt lat="45.94758" lon="4.85551">
        <ele>278</ele>
        <time>2018-01-31T10:11:35Z</time>
      </trkpt>
      <trkpt lat="45.94761" lon="4.85561">
        <ele>278</ele>
        <time>2018-01-31T10:11:37Z</time>
      </trkpt>
      <trkpt lat="45.94762" lon="4.85566">
        <ele>279</ele>
        <time>2018-01-31T10:11:38Z</time>
      </trkpt>
      <trkpt lat="45.94762" lon="4.85576">
        <ele>279</ele>
        <time>2018-01-31T10:11:40Z</time>
      </trkpt>
      <trkpt lat="45.94763" lon="4.85581">
        <ele>279</ele>
        <time>2018-01-31T10:11:41Z</time>
      </trkpt>
      <trkpt lat="45.94765" lon="4.85591">
        <ele>280</ele>
        <time>2018-01-31T10:11:43Z</time>
      </trkpt>
      <trkpt lat="45.94766" lon="4.85596">
        <ele>280</ele>
        <time>2018-01-31T10:11:44Z</time>
      </trkpt>
      <trkpt lat="45.94768" lon="4.85605">
        <ele>280</ele>
        <time>2018-01-31T10:11:46Z</time>
      </trkpt>
      <trkpt lat="45.94769" lon="4.8561">
        <ele>280</ele>
        <time>2018-01-31T10:11:47Z</time>
      </trkpt>
      <trkpt lat="45.94771" lon="4.85619">
        <ele>280</ele>
        <time>2018-01-31T10:11:49Z</time>
      </trkpt>
      <trkpt lat="45.94771" lon="4.85623">
        <ele>280</ele>
        <time>2018-01-31T10:11:50Z</time>
      </trkpt>
      <trkpt lat="45.94773" lon="4.85632">
        <ele>280</ele>
        <time>2018-01-31T10:11:52Z</time>
      </trkpt>
      <trkpt lat="45.94774" lon="4.85636">
        <ele>281</ele>
        <time>2018-01-31T10:11:53Z</time>
      </trkpt>
      <trkpt lat="45.94776" lon="4.85644">
        <ele>281</ele>
        <time>2018-01-31T10:11:55Z</time>
      </trkpt>
      <trkpt lat="45.94777" lon="4.85648">
        <ele>281</ele>
        <time>2018-01-31T10:11:56Z</time>
      </trkpt>
      <trkpt lat="45.94779" lon="4.85657">
        <ele>281</ele>
        <time>2018-01-31T10:11:58Z</time>
      </trkpt>
      <trkpt lat="45.9478" lon="4.85661">
        <ele>281</ele>
        <time>2018-01-31T10:11:59Z</time>
      </trkpt>
      <trkpt lat="45.94783" lon="4.8567">
        <ele>280</ele>
        <time>2018-01-31T10:12:01Z</time>
      </trkpt>
      <trkpt lat="45.94784" lon="4.85674">
        <ele>280</ele>
        <time>2018-01-31T10:12:02Z</time>
      </trkpt>
      <trkpt lat="45.94786" lon="4.85683">
        <ele>280</ele>
        <time>2018-01-31T10:12:04Z</time>
      </trkpt>
      <trkpt lat="45.94787" lon="4.85687">
        <ele>280</ele>
        <time>2018-01-31T10:12:05Z</time>
      </trkpt>
      <trkpt lat="45.94789" lon="4.85696">
        <ele>280</ele>
        <time>2018-01-31T10:12:07Z</time>
      </trkpt>
      <trkpt lat="45.9479" lon="4.857">
        <ele>280</ele>
        <time>2018-01-31T10:12:08Z</time>
      </trkpt>
      <trkpt lat="45.94793" lon="4.85711">
        <ele>280</ele>
        <time>2018-01-31T10:12:10Z</time>
      </trkpt>
      <trkpt lat="45.94795" lon="4.85716">
        <ele>280</ele>
        <time>2018-01-31T10:12:11Z</time>
      </trkpt>
      <trkpt lat="45.94798" lon="4.85727">
        <ele>280</ele>
        <time>2018-01-31T10:12:13Z</time>
      </trkpt>
      <trkpt lat="45.948" lon="4.85734">
        <ele>280</ele>
        <time>2018-01-31T10:12:14Z</time>
      </trkpt>
      <trkpt lat="45.94801" lon="4.85741">
        <ele>280</ele>
        <time>2018-01-31T10:12:15Z</time>
      </trkpt>
      <trkpt lat="45.94803" lon="4.85747">
        <ele>279</ele>
        <time>2018-01-31T10:12:16Z</time>
      </trkpt>
      <trkpt lat="45.94805" lon="4.85753">
        <ele>278</ele>
        <time>2018-01-31T10:12:17Z</time>
      </trkpt>
      <trkpt lat="45.94807" lon="4.8576">
        <ele>278</ele>
        <time>2018-01-31T10:12:18Z</time>
      </trkpt>
      <trkpt lat="45.94809" lon="4.85767">
        <ele>278</ele>
        <time>2018-01-31T10:12:19Z</time>
      </trkpt>
      <trkpt lat="45.94811" lon="4.85774">
        <ele>278</ele>
        <time>2018-01-31T10:12:20Z</time>
      </trkpt>
      <trkpt lat="45.94812" lon="4.85783">
        <ele>278</ele>
        <time>2018-01-31T10:12:21Z</time>
      </trkpt>
      <trkpt lat="45.94813" lon="4.85791">
        <ele>278</ele>
        <time>2018-01-31T10:12:22Z</time>
      </trkpt>
      <trkpt lat="45.94815" lon="4.85798">
        <ele>278</ele>
        <time>2018-01-31T10:12:23Z</time>
      </trkpt>
      <trkpt lat="45.94818" lon="4.85807">
        <ele>278</ele>
        <time>2018-01-31T10:12:24Z</time>
      </trkpt>
      <trkpt lat="45.94819" lon="4.85813">
        <ele>278</ele>
        <time>2018-01-31T10:12:25Z</time>
      </trkpt>
      <trkpt lat="45.94821" lon="4.8582">
        <ele>278</ele>
        <time>2018-01-31T10:12:26Z</time>
      </trkpt>
      <trkpt lat="45.94823" lon="4.85829">
        <ele>277</ele>
        <time>2018-01-31T10:12:27Z</time>
      </trkpt>
      <trkpt lat="45.94825" lon="4.85836">
        <ele>277</ele>
        <time>2018-01-31T10:12:28Z</time>
      </trkpt>
      <trkpt lat="45.94827" lon="4.85844">
        <ele>277</ele>
        <time>2018-01-31T10:12:29Z</time>
      </trkpt>
      <trkpt lat="45.94829" lon="4.85851">
        <ele>277</ele>
        <time>2018-01-31T10:12:30Z</time>
      </trkpt>
      <trkpt lat="45.94831" lon="4.85859">
        <ele>277</ele>
        <time>2018-01-31T10:12:31Z</time>
      </trkpt>
      <trkpt lat="45.94833" lon="4.85866">
        <ele>277</ele>
        <time>2018-01-31T10:12:32Z</time>
      </trkpt>
      <trkpt lat="45.94837" lon="4.85877">
        <ele>276</ele>
        <time>2018-01-31T10:12:34Z</time>
      </trkpt>
      <trkpt lat="45.94839" lon="4.85882">
        <ele>276</ele>
        <time>2018-01-31T10:12:35Z</time>
      </trkpt>
      <trkpt lat="45.94841" lon="4.8589">
        <ele>276</ele>
        <time>2018-01-31T10:12:36Z</time>
      </trkpt>
      <trkpt lat="45.94843" lon="4.85896">
        <ele>276</ele>
        <time>2018-01-31T10:12:37Z</time>
      </trkpt>
      <trkpt lat="45.94845" lon="4.85903">
        <ele>276</ele>
        <time>2018-01-31T10:12:38Z</time>
      </trkpt>
      <trkpt lat="45.94847" lon="4.8591">
        <ele>275</ele>
        <time>2018-01-31T10:12:39Z</time>
      </trkpt>
      <trkpt lat="45.94849" lon="4.85916">
        <ele>275</ele>
        <time>2018-01-31T10:12:40Z</time>
      </trkpt>
      <trkpt lat="45.94851" lon="4.85924">
        <ele>275</ele>
        <time>2018-01-31T10:12:41Z</time>
      </trkpt>
      <trkpt lat="45.94853" lon="4.85931">
        <ele>275</ele>
        <time>2018-01-31T10:12:42Z</time>
      </trkpt>
      <trkpt lat="45.94855" lon="4.85937">
        <ele>275</ele>
        <time>2018-01-31T10:12:43Z</time>
      </trkpt>
      <trkpt lat="45.94856" lon="4.85943">
        <ele>275</ele>
        <time>2018-01-31T10:12:44Z</time>
      </trkpt>
      <trkpt lat="45.94858" lon="4.8595">
        <ele>275</ele>
        <time>2018-01-31T10:12:45Z</time>
      </trkpt>
      <trkpt lat="45.9486" lon="4.85956">
        <ele>275</ele>
        <time>2018-01-31T10:12:46Z</time>
      </trkpt>
      <trkpt lat="45.94861" lon="4.85963">
        <ele>275</ele>
        <time>2018-01-31T10:12:47Z</time>
      </trkpt>
      <trkpt lat="45.94863" lon="4.85971">
        <ele>275</ele>
        <time>2018-01-31T10:12:48Z</time>
      </trkpt>
      <trkpt lat="45.94865" lon="4.85979">
        <ele>275</ele>
        <time>2018-01-31T10:12:49Z</time>
      </trkpt>
      <trkpt lat="45.94867" lon="4.85986">
        <ele>275</ele>
        <time>2018-01-31T10:12:50Z</time>
      </trkpt>
      <trkpt lat="45.94869" lon="4.85994">
        <ele>275</ele>
        <time>2018-01-31T10:12:51Z</time>
      </trkpt>
      <trkpt lat="45.94871" lon="4.86001">
        <ele>274</ele>
        <time>2018-01-31T10:12:52Z</time>
      </trkpt>
      <trkpt lat="45.94873" lon="4.86008">
        <ele>274</ele>
        <time>2018-01-31T10:12:53Z</time>
      </trkpt>
      <trkpt lat="45.94876" lon="4.86015">
        <ele>274</ele>
        <time>2018-01-31T10:12:54Z</time>
      </trkpt>
      <trkpt lat="45.94877" lon="4.86022">
        <ele>274</ele>
        <time>2018-01-31T10:12:55Z</time>
      </trkpt>
      <trkpt lat="45.94879" lon="4.86029">
        <ele>274</ele>
        <time>2018-01-31T10:12:56Z</time>
      </trkpt>
      <trkpt lat="45.94881" lon="4.86036">
        <ele>274</ele>
        <time>2018-01-31T10:12:57Z</time>
      </trkpt>
      <trkpt lat="45.94883" lon="4.86043">
        <ele>274</ele>
        <time>2018-01-31T10:12:58Z</time>
      </trkpt>
      <trkpt lat="45.94884" lon="4.8605">
        <ele>274</ele>
        <time>2018-01-31T10:12:59Z</time>
      </trkpt>
      <trkpt lat="45.94886" lon="4.86056">
        <ele>274</ele>
        <time>2018-01-31T10:13:00Z</time>
      </trkpt>
      <trkpt lat="45.94887" lon="4.86063">
        <ele>274</ele>
        <time>2018-01-31T10:13:01Z</time>
      </trkpt>
      <trkpt lat="45.94889" lon="4.8607">
        <ele>274</ele>
        <time>2018-01-31T10:13:02Z</time>
      </trkpt>
      <trkpt lat="45.94891" lon="4.86077">
        <ele>274</ele>
        <time>2018-01-31T10:13:03Z</time>
      </trkpt>
      <trkpt lat="45.94893" lon="4.86085">
        <ele>274</ele>
        <time>2018-01-31T10:13:04Z</time>
      </trkpt>
      <trkpt lat="45.94895" lon="4.86092">
        <ele>274</ele>
        <time>2018-01-31T10:13:05Z</time>
      </trkpt>
      <trkpt lat="45.94898" lon="4.86101">
        <ele>274</ele>
        <time>2018-01-31T10:13:06Z</time>
      </trkpt>
      <trkpt lat="45.949" lon="4.86108">
        <ele>274</ele>
        <time>2018-01-31T10:13:07Z</time>
      </trkpt>
      <trkpt lat="45.94904" lon="4.86115">
        <ele>274</ele>
        <time>2018-01-31T10:13:08Z</time>
      </trkpt>
      <trkpt lat="45.94906" lon="4.86122">
        <ele>274</ele>
        <time>2018-01-31T10:13:09Z</time>
      </trkpt>
      <trkpt lat="45.9491" lon="4.86129">
        <ele>274</ele>
        <time>2018-01-31T10:13:10Z</time>
      </trkpt>
      <trkpt lat="45.94914" lon="4.86136">
        <ele>274</ele>
        <time>2018-01-31T10:13:11Z</time>
      </trkpt>
      <trkpt lat="45.94918" lon="4.86142">
        <ele>273</ele>
        <time>2018-01-31T10:13:12Z</time>
      </trkpt>
      <trkpt lat="45.94922" lon="4.86149">
        <ele>273</ele>
        <time>2018-01-31T10:13:13Z</time>
      </trkpt>
      <trkpt lat="45.94926" lon="4.86157">
        <ele>273</ele>
        <time>2018-01-31T10:13:14Z</time>
      </trkpt>
      <trkpt lat="45.9493" lon="4.86161">
        <ele>273</ele>
        <time>2018-01-31T10:13:15Z</time>
      </trkpt>
      <trkpt lat="45.94935" lon="4.86165">
        <ele>273</ele>
        <time>2018-01-31T10:13:16Z</time>
      </trkpt>
      <trkpt lat="45.9494" lon="4.8617">
        <ele>273</ele>
        <time>2018-01-31T10:13:17Z</time>
      </trkpt>
      <trkpt lat="45.94944" lon="4.86176">
        <ele>273</ele>
        <time>2018-01-31T10:13:18Z</time>
      </trkpt>
      <trkpt lat="45.94949" lon="4.86182">
        <ele>273</ele>
        <time>2018-01-31T10:13:19Z</time>
      </trkpt>
      <trkpt lat="45.94954" lon="4.86187">
        <ele>273</ele>
        <time>2018-01-31T10:13:20Z</time>
      </trkpt>
      <trkpt lat="45.94958" lon="4.86193">
        <ele>273</ele>
        <time>2018-01-31T10:13:21Z</time>
      </trkpt>
      <trkpt lat="45.94962" lon="4.86199">
        <ele>272</ele>
        <time>2018-01-31T10:13:22Z</time>
      </trkpt>
      <trkpt lat="45.94967" lon="4.86205">
        <ele>272</ele>
        <time>2018-01-31T10:13:23Z</time>
      </trkpt>
      <trkpt lat="45.94971" lon="4.8621">
        <ele>272</ele>
        <time>2018-01-31T10:13:24Z</time>
      </trkpt>
      <trkpt lat="45.94975" lon="4.86216">
        <ele>272</ele>
        <time>2018-01-31T10:13:25Z</time>
      </trkpt>
      <trkpt lat="45.94979" lon="4.86222">
        <ele>272</ele>
        <time>2018-01-31T10:13:26Z</time>
      </trkpt>
      <trkpt lat="45.94984" lon="4.86227">
        <ele>272</ele>
        <time>2018-01-31T10:13:27Z</time>
      </trkpt>
      <trkpt lat="45.94989" lon="4.86233">
        <ele>272</ele>
        <time>2018-01-31T10:13:28Z</time>
      </trkpt>
      <trkpt lat="45.94994" lon="4.8624">
        <ele>272</ele>
        <time>2018-01-31T10:13:29Z</time>
      </trkpt>
      <trkpt lat="45.94999" lon="4.86247">
        <ele>272</ele>
        <time>2018-01-31T10:13:30Z</time>
      </trkpt>
      <trkpt lat="45.95004" lon="4.86252">
        <ele>272</ele>
        <time>2018-01-31T10:13:31Z</time>
      </trkpt>
      <trkpt lat="45.95009" lon="4.86258">
        <ele>272</ele>
        <time>2018-01-31T10:13:32Z</time>
      </trkpt>
      <trkpt lat="45.95014" lon="4.86264">
        <ele>271</ele>
        <time>2018-01-31T10:13:33Z</time>
      </trkpt>
      <trkpt lat="45.95019" lon="4.86271">
        <ele>271</ele>
        <time>2018-01-31T10:13:34Z</time>
      </trkpt>
      <trkpt lat="45.95024" lon="4.86277">
        <ele>271</ele>
        <time>2018-01-31T10:13:35Z</time>
      </trkpt>
      <trkpt lat="45.9503" lon="4.86283">
        <ele>271</ele>
        <time>2018-01-31T10:13:36Z</time>
      </trkpt>
      <trkpt lat="45.95035" lon="4.8629">
        <ele>271</ele>
        <time>2018-01-31T10:13:37Z</time>
      </trkpt>
      <trkpt lat="45.9504" lon="4.86297">
        <ele>271</ele>
        <time>2018-01-31T10:13:38Z</time>
      </trkpt>
      <trkpt lat="45.95045" lon="4.86303">
        <ele>271</ele>
        <time>2018-01-31T10:13:39Z</time>
      </trkpt>
      <trkpt lat="45.9505" lon="4.8631">
        <ele>271</ele>
        <time>2018-01-31T10:13:40Z</time>
      </trkpt>
      <trkpt lat="45.95055" lon="4.86317">
        <ele>271</ele>
        <time>2018-01-31T10:13:41Z</time>
      </trkpt>
      <trkpt lat="45.9506" lon="4.86324">
        <ele>270</ele>
        <time>2018-01-31T10:13:42Z</time>
      </trkpt>
      <trkpt lat="45.95065" lon="4.86331">
        <ele>270</ele>
        <time>2018-01-31T10:13:43Z</time>
      </trkpt>
      <trkpt lat="45.9507" lon="4.86337">
        <ele>270</ele>
        <time>2018-01-31T10:13:44Z</time>
      </trkpt>
      <trkpt lat="45.95076" lon="4.86343">
        <ele>270</ele>
        <time>2018-01-31T10:13:45Z</time>
      </trkpt>
      <trkpt lat="45.95081" lon="4.8635">
        <ele>270</ele>
        <time>2018-01-31T10:13:46Z</time>
      </trkpt>
      <trkpt lat="45.95085" lon="4.86358">
        <ele>269</ele>
        <time>2018-01-31T10:13:47Z</time>
      </trkpt>
      <trkpt lat="45.95091" lon="4.86364">
        <ele>269</ele>
        <time>2018-01-31T10:13:48Z</time>
      </trkpt>
      <trkpt lat="45.95096" lon="4.8637">
        <ele>269</ele>
        <time>2018-01-31T10:13:49Z</time>
      </trkpt>
      <trkpt lat="45.95102" lon="4.86376">
        <ele>269</ele>
        <time>2018-01-31T10:13:50Z</time>
      </trkpt>
      <trkpt lat="45.95107" lon="4.8638">
        <ele>269</ele>
        <time>2018-01-31T10:13:51Z</time>
      </trkpt>
      <trkpt lat="45.95112" lon="4.86386">
        <ele>269</ele>
        <time>2018-01-31T10:13:52Z</time>
      </trkpt>
      <trkpt lat="45.95117" lon="4.86392">
        <ele>269</ele>
        <time>2018-01-31T10:13:53Z</time>
      </trkpt>
      <trkpt lat="45.95122" lon="4.86398">
        <ele>269</ele>
        <time>2018-01-31T10:13:54Z</time>
      </trkpt>
      <trkpt lat="45.95127" lon="4.86405">
        <ele>268</ele>
        <time>2018-01-31T10:13:55Z</time>
      </trkpt>
      <trkpt lat="45.95132" lon="4.8641">
        <ele>268</ele>
        <time>2018-01-31T10:13:56Z</time>
      </trkpt>
      <trkpt lat="45.95137" lon="4.86416">
        <ele>268</ele>
        <time>2018-01-31T10:13:57Z</time>
      </trkpt>
      <trkpt lat="45.95141" lon="4.86423">
        <ele>269</ele>
        <time>2018-01-31T10:13:58Z</time>
      </trkpt>
      <trkpt lat="45.95146" lon="4.86428">
        <ele>268</ele>
        <time>2018-01-31T10:13:59Z</time>
      </trkpt>
      <trkpt lat="45.9515" lon="4.86433">
        <ele>268</ele>
        <time>2018-01-31T10:14:00Z</time>
      </trkpt>
      <trkpt lat="45.95155" lon="4.86439">
        <ele>268</ele>
        <time>2018-01-31T10:14:01Z</time>
      </trkpt>
      <trkpt lat="45.95159" lon="4.86444">
        <ele>269</ele>
        <time>2018-01-31T10:14:02Z</time>
      </trkpt>
      <trkpt lat="45.95163" lon="4.8645">
        <ele>269</ele>
        <time>2018-01-31T10:14:03Z</time>
      </trkpt>
      <trkpt lat="45.95168" lon="4.86455">
        <ele>268</ele>
        <time>2018-01-31T10:14:04Z</time>
      </trkpt>
      <trkpt lat="45.95171" lon="4.86461">
        <ele>268</ele>
        <time>2018-01-31T10:14:05Z</time>
      </trkpt>
      <trkpt lat="45.95176" lon="4.86466">
        <ele>268</ele>
        <time>2018-01-31T10:14:06Z</time>
      </trkpt>
      <trkpt lat="45.95181" lon="4.86473">
        <ele>268</ele>
        <time>2018-01-31T10:14:07Z</time>
      </trkpt>
      <trkpt lat="45.95187" lon="4.86479">
        <ele>268</ele>
        <time>2018-01-31T10:14:08Z</time>
      </trkpt>
      <trkpt lat="45.95192" lon="4.86485">
        <ele>268</ele>
        <time>2018-01-31T10:14:09Z</time>
      </trkpt>
      <trkpt lat="45.95197" lon="4.86492">
        <ele>268</ele>
        <time>2018-01-31T10:14:10Z</time>
      </trkpt>
      <trkpt lat="45.95203" lon="4.86499">
        <ele>268</ele>
        <time>2018-01-31T10:14:11Z</time>
      </trkpt>
      <trkpt lat="45.95209" lon="4.86506">
        <ele>268</ele>
        <time>2018-01-31T10:14:12Z</time>
      </trkpt>
      <trkpt lat="45.95214" lon="4.86514">
        <ele>268</ele>
        <time>2018-01-31T10:14:13Z</time>
      </trkpt>
      <trkpt lat="45.95221" lon="4.86521">
        <ele>268</ele>
        <time>2018-01-31T10:14:14Z</time>
      </trkpt>
      <trkpt lat="45.95226" lon="4.86527">
        <ele>268</ele>
        <time>2018-01-31T10:14:15Z</time>
      </trkpt>
      <trkpt lat="45.95233" lon="4.86535">
        <ele>268</ele>
        <time>2018-01-31T10:14:16Z</time>
      </trkpt>
      <trkpt lat="45.95239" lon="4.86541">
        <ele>268</ele>
        <time>2018-01-31T10:14:17Z</time>
      </trkpt>
      <trkpt lat="45.95245" lon="4.86547">
        <ele>268</ele>
        <time>2018-01-31T10:14:18Z</time>
      </trkpt>
      <trkpt lat="45.9525" lon="4.86552">
        <ele>268</ele>
        <time>2018-01-31T10:14:19Z</time>
      </trkpt>
      <trkpt lat="45.95253" lon="4.86555">
        <ele>267</ele>
        <time>2018-01-31T10:14:20Z</time>
      </trkpt>
      <trkpt lat="45.95255" lon="4.86566">
        <ele>267</ele>
        <time>2018-01-31T10:14:21Z</time>
      </trkpt>
      <trkpt lat="45.95256" lon="4.86578">
        <ele>268</ele>
        <time>2018-01-31T10:14:23Z</time>
      </trkpt>
      <trkpt lat="45.95253" lon="4.8658">
        <ele>268</ele>
        <time>2018-01-31T10:14:24Z</time>
      </trkpt>
      <trkpt lat="45.95245" lon="4.86582">
        <ele>268</ele>
        <time>2018-01-31T10:14:26Z</time>
      </trkpt>
      <trkpt lat="45.9524" lon="4.86583">
        <ele>268</ele>
        <time>2018-01-31T10:14:27Z</time>
      </trkpt>
      <trkpt lat="45.95234" lon="4.86581">
        <ele>268</ele>
        <time>2018-01-31T10:14:29Z</time>
      </trkpt>
      <trkpt lat="45.95231" lon="4.86581">
        <ele>268</ele>
        <time>2018-01-31T10:14:30Z</time>
      </trkpt>
      <trkpt lat="45.95223" lon="4.86582">
        <ele>268</ele>
        <time>2018-01-31T10:14:33Z</time>
      </trkpt>
      <trkpt lat="45.95221" lon="4.86581">
        <ele>268</ele>
        <time>2018-01-31T10:14:34Z</time>
      </trkpt>
      <trkpt lat="45.95213" lon="4.86579">
        <ele>268</ele>
        <time>2018-01-31T10:14:38Z</time>
      </trkpt>
      <trkpt lat="45.95211" lon="4.86578">
        <ele>268</ele>
        <time>2018-01-31T10:14:39Z</time>
      </trkpt>
      <trkpt lat="45.95203" lon="4.86579">
        <ele>268</ele>
        <time>2018-01-31T10:14:44Z</time>
      </trkpt>
      <trkpt lat="45.95201" lon="4.86579">
        <ele>268</ele>
        <time>2018-01-31T10:14:45Z</time>
      </trkpt>
      <trkpt lat="45.95192" lon="4.86579">
        <ele>269</ele>
        <time>2018-01-31T10:14:49Z</time>
      </trkpt>
      <trkpt lat="45.9519" lon="4.86579">
        <ele>269</ele>
        <time>2018-01-31T10:14:50Z</time>
      </trkpt>
      <trkpt lat="45.95182" lon="4.86578">
        <ele>269</ele>
        <time>2018-01-31T10:14:53Z</time>
      </trkpt>
      <trkpt lat="45.9518" lon="4.86578">
        <ele>269</ele>
        <time>2018-01-31T10:14:54Z</time>
      </trkpt>
      <trkpt lat="45.95172" lon="4.86579">
        <ele>269</ele>
        <time>2018-01-31T10:14:57Z</time>
      </trkpt>
      <trkpt lat="45.95169" lon="4.86578">
        <ele>269</ele>
        <time>2018-01-31T10:14:58Z</time>
      </trkpt>
      <trkpt lat="45.95162" lon="4.86578">
        <ele>269</ele>
        <time>2018-01-31T10:15:01Z</time>
      </trkpt>
      <trkpt lat="45.95159" lon="4.86579">
        <ele>269</ele>
        <time>2018-01-31T10:15:02Z</time>
      </trkpt>
      <trkpt lat="45.9515" lon="4.86581">
        <ele>270</ele>
        <time>2018-01-31T10:15:05Z</time>
      </trkpt>
      <trkpt lat="45.95148" lon="4.86581">
        <ele>270</ele>
        <time>2018-01-31T10:15:06Z</time>
      </trkpt>
      <trkpt lat="45.95139" lon="4.86582">
        <ele>270</ele>
        <time>2018-01-31T10:15:09Z</time>
      </trkpt>
      <trkpt lat="45.95136" lon="4.86583">
        <ele>270</ele>
        <time>2018-01-31T10:15:10Z</time>
      </trkpt>
      <trkpt lat="45.95128" lon="4.86584">
        <ele>270</ele>
        <time>2018-01-31T10:15:13Z</time>
      </trkpt>
      <trkpt lat="45.95125" lon="4.86584">
        <ele>270</ele>
        <time>2018-01-31T10:15:14Z</time>
      </trkpt>
      <trkpt lat="45.95117" lon="4.86587">
        <ele>270</ele>
        <time>2018-01-31T10:15:17Z</time>
      </trkpt>
      <trkpt lat="45.95114" lon="4.86587">
        <ele>270</ele>
        <time>2018-01-31T10:15:18Z</time>
      </trkpt>
      <trkpt lat="45.95105" lon="4.86588">
        <ele>271</ele>
        <time>2018-01-31T10:15:21Z</time>
      </trkpt>
      <trkpt lat="45.95102" lon="4.86588">
        <ele>271</ele>
        <time>2018-01-31T10:15:22Z</time>
      </trkpt>
      <trkpt lat="45.95094" lon="4.8659">
        <ele>271</ele>
        <time>2018-01-31T10:15:25Z</time>
      </trkpt>
      <trkpt lat="45.95091" lon="4.8659">
        <ele>271</ele>
        <time>2018-01-31T10:15:26Z</time>
      </trkpt>
      <trkpt lat="45.95083" lon="4.86592">
        <ele>271</ele>
        <time>2018-01-31T10:15:29Z</time>
      </trkpt>
      <trkpt lat="45.9508" lon="4.86593">
        <ele>271</ele>
        <time>2018-01-31T10:15:30Z</time>
      </trkpt>
      <trkpt lat="45.95072" lon="4.86596">
        <ele>272</ele>
        <time>2018-01-31T10:15:33Z</time>
      </trkpt>
      <trkpt lat="45.95069" lon="4.86597">
        <ele>272</ele>
        <time>2018-01-31T10:15:34Z</time>
      </trkpt>
      <trkpt lat="45.95061" lon="4.86599">
        <ele>272</ele>
        <time>2018-01-31T10:15:37Z</time>
      </trkpt>
      <trkpt lat="45.95059" lon="4.866">
        <ele>272</ele>
        <time>2018-01-31T10:15:38Z</time>
      </trkpt>
      <trkpt lat="45.95051" lon="4.86603">
        <ele>272</ele>
        <time>2018-01-31T10:15:41Z</time>
      </trkpt>
      <trkpt lat="45.95049" lon="4.86604">
        <ele>272</ele>
        <time>2018-01-31T10:15:42Z</time>
      </trkpt>
      <trkpt lat="45.95041" lon="4.86606">
        <ele>273</ele>
        <time>2018-01-31T10:15:45Z</time>
      </trkpt>
      <trkpt lat="45.95039" lon="4.86607">
        <ele>273</ele>
        <time>2018-01-31T10:15:46Z</time>
      </trkpt>
      <trkpt lat="45.95033" lon="4.86609">
        <ele>273</ele>
        <time>2018-01-31T10:15:49Z</time>
      </trkpt>
      <trkpt lat="45.9503" lon="4.86609">
        <ele>273</ele>
        <time>2018-01-31T10:15:50Z</time>
      </trkpt>
      <trkpt lat="45.95022" lon="4.8661">
        <ele>273</ele>
        <time>2018-01-31T10:15:53Z</time>
      </trkpt>
      <trkpt lat="45.9502" lon="4.8661">
        <ele>273</ele>
        <time>2018-01-31T10:15:54Z</time>
      </trkpt>
      <trkpt lat="45.95012" lon="4.86612">
        <ele>273</ele>
        <time>2018-01-31T10:15:57Z</time>
      </trkpt>
      <trkpt lat="45.95009" lon="4.86613">
        <ele>273</ele>
        <time>2018-01-31T10:15:58Z</time>
      </trkpt>
      <trkpt lat="45.95001" lon="4.86614">
        <ele>273</ele>
        <time>2018-01-31T10:16:01Z</time>
      </trkpt>
      <trkpt lat="45.94999" lon="4.86614">
        <ele>275</ele>
        <time>2018-01-31T10:16:02Z</time>
      </trkpt>
      <trkpt lat="45.94991" lon="4.86615">
        <ele>275</ele>
        <time>2018-01-31T10:16:05Z</time>
      </trkpt>
      <trkpt lat="45.94988" lon="4.86615">
        <ele>275</ele>
        <time>2018-01-31T10:16:06Z</time>
      </trkpt>
      <trkpt lat="45.9498" lon="4.86616">
        <ele>275</ele>
        <time>2018-01-31T10:16:09Z</time>
      </trkpt>
      <trkpt lat="45.94978" lon="4.86616">
        <ele>275</ele>
        <time>2018-01-31T10:16:10Z</time>
      </trkpt>
      <trkpt lat="45.9497" lon="4.86618">
        <ele>275</ele>
        <time>2018-01-31T10:16:13Z</time>
      </trkpt>
      <trkpt lat="45.94967" lon="4.86618">
        <ele>275</ele>
        <time>2018-01-31T10:16:14Z</time>
      </trkpt>
      <trkpt lat="45.9496" lon="4.86623">
        <ele>275</ele>
        <time>2018-01-31T10:16:17Z</time>
      </trkpt>
      <trkpt lat="45.94957" lon="4.86625">
        <ele>276</ele>
        <time>2018-01-31T10:16:18Z</time>
      </trkpt>
      <trkpt lat="45.94952" lon="4.8663">
        <ele>276</ele>
        <time>2018-01-31T10:16:20Z</time>
      </trkpt>
      <trkpt lat="45.9495" lon="4.86633">
        <ele>276</ele>
        <time>2018-01-31T10:16:21Z</time>
      </trkpt>
      <trkpt lat="45.94946" lon="4.8664">
        <ele>276</ele>
        <time>2018-01-31T10:16:23Z</time>
      </trkpt>
      <trkpt lat="45.94944" lon="4.86645">
        <ele>276</ele>
        <time>2018-01-31T10:16:24Z</time>
      </trkpt>
      <trkpt lat="45.94941" lon="4.86654">
        <ele>276</ele>
        <time>2018-01-31T10:16:26Z</time>
      </trkpt>
      <trkpt lat="45.9494" lon="4.86659">
        <ele>276</ele>
        <time>2018-01-31T10:16:27Z</time>
      </trkpt>
      <trkpt lat="45.94939" lon="4.86671">
        <ele>276</ele>
        <time>2018-01-31T10:16:29Z</time>
      </trkpt>
      <trkpt lat="45.9494" lon="4.86677">
        <ele>276</ele>
        <time>2018-01-31T10:16:30Z</time>
      </trkpt>
      <trkpt lat="45.94941" lon="4.86689">
        <ele>276</ele>
        <time>2018-01-31T10:16:32Z</time>
      </trkpt>
      <trkpt lat="45.94942" lon="4.86695">
        <ele>276</ele>
        <time>2018-01-31T10:16:33Z</time>
      </trkpt>
      <trkpt lat="45.94944" lon="4.86706">
        <ele>275</ele>
        <time>2018-01-31T10:16:35Z</time>
      </trkpt>
      <trkpt lat="45.94946" lon="4.86711">
        <ele>275</ele>
        <time>2018-01-31T10:16:36Z</time>
      </trkpt>
      <trkpt lat="45.94949" lon="4.86721">
        <ele>275</ele>
        <time>2018-01-31T10:16:38Z</time>
      </trkpt>
      <trkpt lat="45.9495" lon="4.86726">
        <ele>275</ele>
        <time>2018-01-31T10:16:39Z</time>
      </trkpt>
      <trkpt lat="45.94954" lon="4.86735">
        <ele>275</ele>
        <time>2018-01-31T10:16:41Z</time>
      </trkpt>
      <trkpt lat="45.94955" lon="4.8674">
        <ele>275</ele>
        <time>2018-01-31T10:16:42Z</time>
      </trkpt>
      <trkpt lat="45.9496" lon="4.8675">
        <ele>275</ele>
        <time>2018-01-31T10:16:44Z</time>
      </trkpt>
      <trkpt lat="45.94962" lon="4.86755">
        <ele>275</ele>
        <time>2018-01-31T10:16:45Z</time>
      </trkpt>
      <trkpt lat="45.94968" lon="4.86765">
        <ele>275</ele>
        <time>2018-01-31T10:16:47Z</time>
      </trkpt>
      <trkpt lat="45.94971" lon="4.86769">
        <ele>275</ele>
        <time>2018-01-31T10:16:48Z</time>
      </trkpt>
      <trkpt lat="45.94976" lon="4.86778">
        <ele>275</ele>
        <time>2018-01-31T10:16:50Z</time>
      </trkpt>
      <trkpt lat="45.94979" lon="4.86782">
        <ele>275</ele>
        <time>2018-01-31T10:16:51Z</time>
      </trkpt>
      <trkpt lat="45.94985" lon="4.86791">
        <ele>276</ele>
        <time>2018-01-31T10:16:53Z</time>
      </trkpt>
      <trkpt lat="45.94987" lon="4.86796">
        <ele>276</ele>
        <time>2018-01-31T10:16:54Z</time>
      </trkpt>
      <trkpt lat="45.9499" lon="4.86802">
        <ele>276</ele>
        <time>2018-01-31T10:16:55Z</time>
      </trkpt>
      <trkpt lat="45.94994" lon="4.86808">
        <ele>276</ele>
        <time>2018-01-31T10:16:56Z</time>
      </trkpt>
      <trkpt lat="45.94996" lon="4.86814">
        <ele>276</ele>
        <time>2018-01-31T10:16:57Z</time>
      </trkpt>
      <trkpt lat="45.94999" lon="4.8682">
        <ele>276</ele>
        <time>2018-01-31T10:16:58Z</time>
      </trkpt>
      <trkpt lat="45.95002" lon="4.86827">
        <ele>276</ele>
        <time>2018-01-31T10:16:59Z</time>
      </trkpt>
      <trkpt lat="45.95004" lon="4.86833">
        <ele>276</ele>
        <time>2018-01-31T10:17:00Z</time>
      </trkpt>
      <trkpt lat="45.95007" lon="4.8684">
        <ele>276</ele>
        <time>2018-01-31T10:17:01Z</time>
      </trkpt>
      <trkpt lat="45.95009" lon="4.86848">
        <ele>275</ele>
        <time>2018-01-31T10:17:02Z</time>
      </trkpt>
      <trkpt lat="45.95012" lon="4.86855">
        <ele>275</ele>
        <time>2018-01-31T10:17:03Z</time>
      </trkpt>
      <trkpt lat="45.95014" lon="4.86862">
        <ele>275</ele>
        <time>2018-01-31T10:17:04Z</time>
      </trkpt>
      <trkpt lat="45.95017" lon="4.86868">
        <ele>275</ele>
        <time>2018-01-31T10:17:05Z</time>
      </trkpt>
      <trkpt lat="45.9502" lon="4.86877">
        <ele>275</ele>
        <time>2018-01-31T10:17:06Z</time>
      </trkpt>
      <trkpt lat="45.95022" lon="4.86884">
        <ele>275</ele>
        <time>2018-01-31T10:17:07Z</time>
      </trkpt>
      <trkpt lat="45.95024" lon="4.86891">
        <ele>275</ele>
        <time>2018-01-31T10:17:08Z</time>
      </trkpt>
      <trkpt lat="45.95026" lon="4.86898">
        <ele>275</ele>
        <time>2018-01-31T10:17:09Z</time>
      </trkpt>
      <trkpt lat="45.95027" lon="4.86905">
        <ele>275</ele>
        <time>2018-01-31T10:17:10Z</time>
      </trkpt>
      <trkpt lat="45.95029" lon="4.86912">
        <ele>275</ele>
        <time>2018-01-31T10:17:11Z</time>
      </trkpt>
      <trkpt lat="45.95031" lon="4.86918">
        <ele>276</ele>
        <time>2018-01-31T10:17:12Z</time>
      </trkpt>
      <trkpt lat="45.95033" lon="4.86925">
        <ele>276</ele>
        <time>2018-01-31T10:17:13Z</time>
      </trkpt>
      <trkpt lat="45.95035" lon="4.86932">
        <ele>276</ele>
        <time>2018-01-31T10:17:14Z</time>
      </trkpt>
      <trkpt lat="45.95038" lon="4.86938">
        <ele>276</ele>
        <time>2018-01-31T10:17:15Z</time>
      </trkpt>
      <trkpt lat="45.9504" lon="4.86945">
        <ele>276</ele>
        <time>2018-01-31T10:17:16Z</time>
      </trkpt>
      <trkpt lat="45.95041" lon="4.86953">
        <ele>276</ele>
        <time>2018-01-31T10:17:17Z</time>
      </trkpt>
      <trkpt lat="45.95043" lon="4.8696">
        <ele>276</ele>
        <time>2018-01-31T10:17:18Z</time>
      </trkpt>
      <trkpt lat="45.95046" lon="4.86971">
        <ele>276</ele>
        <time>2018-01-31T10:17:20Z</time>
      </trkpt>
      <trkpt lat="45.95048" lon="4.86977">
        <ele>276</ele>
        <time>2018-01-31T10:17:21Z</time>
      </trkpt>
      <trkpt lat="45.95051" lon="4.86982">
        <ele>276</ele>
        <time>2018-01-31T10:17:22Z</time>
      </trkpt>
      <trkpt lat="45.95053" lon="4.86989">
        <ele>276</ele>
        <time>2018-01-31T10:17:23Z</time>
      </trkpt>
      <trkpt lat="45.95056" lon="4.86994">
        <ele>276</ele>
        <time>2018-01-31T10:17:24Z</time>
      </trkpt>
      <trkpt lat="45.95058" lon="4.86999">
        <ele>276</ele>
        <time>2018-01-31T10:17:25Z</time>
      </trkpt>
      <trkpt lat="45.95061" lon="4.87005">
        <ele>277</ele>
        <time>2018-01-31T10:17:26Z</time>
      </trkpt>
      <trkpt lat="45.95064" lon="4.87011">
        <ele>277</ele>
        <time>2018-01-31T10:17:27Z</time>
      </trkpt>
      <trkpt lat="45.95067" lon="4.87015">
        <ele>277</ele>
        <time>2018-01-31T10:17:28Z</time>
      </trkpt>
      <trkpt lat="45.9507" lon="4.8702">
        <ele>277</ele>
        <time>2018-01-31T10:17:29Z</time>
      </trkpt>
      <trkpt lat="45.95073" lon="4.87026">
        <ele>277</ele>
        <time>2018-01-31T10:17:30Z</time>
      </trkpt>
      <trkpt lat="45.95076" lon="4.87032">
        <ele>277</ele>
        <time>2018-01-31T10:17:31Z</time>
      </trkpt>
      <trkpt lat="45.95079" lon="4.87039">
        <ele>277</ele>
        <time>2018-01-31T10:17:32Z</time>
      </trkpt>
      <trkpt lat="45.95082" lon="4.87044">
        <ele>277</ele>
        <time>2018-01-31T10:17:33Z</time>
      </trkpt>
      <trkpt lat="45.95084" lon="4.87049">
        <ele>277</ele>
        <time>2018-01-31T10:17:34Z</time>
      </trkpt>
      <trkpt lat="45.95087" lon="4.87054">
        <ele>277</ele>
        <time>2018-01-31T10:17:35Z</time>
      </trkpt>
      <trkpt lat="45.95094" lon="4.87063">
        <ele>277</ele>
        <time>2018-01-31T10:17:37Z</time>
      </trkpt>
      <trkpt lat="45.95096" lon="4.87068">
        <ele>277</ele>
        <time>2018-01-31T10:17:38Z</time>
      </trkpt>
      <trkpt lat="45.951" lon="4.87079">
        <ele>277</ele>
        <time>2018-01-31T10:17:40Z</time>
      </trkpt>
      <trkpt lat="45.95102" lon="4.87086">
        <ele>277</ele>
        <time>2018-01-31T10:17:41Z</time>
      </trkpt>
      <trkpt lat="45.95105" lon="4.87097">
        <ele>277</ele>
        <time>2018-01-31T10:17:43Z</time>
      </trkpt>
      <trkpt lat="45.95106" lon="4.87103">
        <ele>277</ele>
        <time>2018-01-31T10:17:44Z</time>
      </trkpt>
      <trkpt lat="45.95108" lon="4.87114">
        <ele>277</ele>
        <time>2018-01-31T10:17:46Z</time>
      </trkpt>
      <trkpt lat="45.9511" lon="4.8712">
        <ele>277</ele>
        <time>2018-01-31T10:17:47Z</time>
      </trkpt>
      <trkpt lat="45.95112" lon="4.8713">
        <ele>277</ele>
        <time>2018-01-31T10:17:49Z</time>
      </trkpt>
      <trkpt lat="45.95113" lon="4.87136">
        <ele>277</ele>
        <time>2018-01-31T10:17:50Z</time>
      </trkpt>
      <trkpt lat="45.95116" lon="4.87148">
        <ele>277</ele>
        <time>2018-01-31T10:17:52Z</time>
      </trkpt>
      <trkpt lat="45.95117" lon="4.87153">
        <ele>277</ele>
        <time>2018-01-31T10:17:53Z</time>
      </trkpt>
      <trkpt lat="45.95119" lon="4.87165">
        <ele>277</ele>
        <time>2018-01-31T10:17:55Z</time>
      </trkpt>
      <trkpt lat="45.95121" lon="4.87171">
        <ele>277</ele>
        <time>2018-01-31T10:17:56Z</time>
      </trkpt>
      <trkpt lat="45.95122" lon="4.87178">
        <ele>276</ele>
        <time>2018-01-31T10:17:57Z</time>
      </trkpt>
      <trkpt lat="45.95122" lon="4.87186">
        <ele>276</ele>
        <time>2018-01-31T10:17:58Z</time>
      </trkpt>
      <trkpt lat="45.95123" lon="4.87194">
        <ele>276</ele>
        <time>2018-01-31T10:17:59Z</time>
      </trkpt>
      <trkpt lat="45.95125" lon="4.87201">
        <ele>276</ele>
        <time>2018-01-31T10:18:00Z</time>
      </trkpt>
      <trkpt lat="45.95127" lon="4.87212">
        <ele>276</ele>
        <time>2018-01-31T10:18:01Z</time>
      </trkpt>
      <trkpt lat="45.95129" lon="4.8722">
        <ele>276</ele>
        <time>2018-01-31T10:18:02Z</time>
      </trkpt>
      <trkpt lat="45.95131" lon="4.87228">
        <ele>276</ele>
        <time>2018-01-31T10:18:03Z</time>
      </trkpt>
      <trkpt lat="45.95133" lon="4.87237">
        <ele>276</ele>
        <time>2018-01-31T10:18:04Z</time>
      </trkpt>
      <trkpt lat="45.95135" lon="4.87244">
        <ele>276</ele>
        <time>2018-01-31T10:18:05Z</time>
      </trkpt>
      <trkpt lat="45.95138" lon="4.87253">
        <ele>275</ele>
        <time>2018-01-31T10:18:06Z</time>
      </trkpt>
      <trkpt lat="45.95141" lon="4.87261">
        <ele>274</ele>
        <time>2018-01-31T10:18:07Z</time>
      </trkpt>
      <trkpt lat="45.95143" lon="4.8727">
        <ele>274</ele>
        <time>2018-01-31T10:18:08Z</time>
      </trkpt>
      <trkpt lat="45.95144" lon="4.87279">
        <ele>274</ele>
        <time>2018-01-31T10:18:09Z</time>
      </trkpt>
      <trkpt lat="45.95147" lon="4.87288">
        <ele>274</ele>
        <time>2018-01-31T10:18:10Z</time>
      </trkpt>
      <trkpt lat="45.95149" lon="4.87298">
        <ele>274</ele>
        <time>2018-01-31T10:18:11Z</time>
      </trkpt>
      <trkpt lat="45.95151" lon="4.87309">
        <ele>274</ele>
        <time>2018-01-31T10:18:12Z</time>
      </trkpt>
      <trkpt lat="45.95153" lon="4.87319">
        <ele>273</ele>
        <time>2018-01-31T10:18:13Z</time>
      </trkpt>
      <trkpt lat="45.95157" lon="4.87327">
        <ele>272</ele>
        <time>2018-01-31T10:18:14Z</time>
      </trkpt>
      <trkpt lat="45.95159" lon="4.87336">
        <ele>272</ele>
        <time>2018-01-31T10:18:15Z</time>
      </trkpt>
      <trkpt lat="45.95161" lon="4.87346">
        <ele>272</ele>
        <time>2018-01-31T10:18:16Z</time>
      </trkpt>
      <trkpt lat="45.95163" lon="4.87355">
        <ele>272</ele>
        <time>2018-01-31T10:18:17Z</time>
      </trkpt>
      <trkpt lat="45.95164" lon="4.87363">
        <ele>272</ele>
        <time>2018-01-31T10:18:18Z</time>
      </trkpt>
      <trkpt lat="45.95166" lon="4.87372">
        <ele>272</ele>
        <time>2018-01-31T10:18:19Z</time>
      </trkpt>
      <trkpt lat="45.95167" lon="4.8738">
        <ele>271</ele>
        <time>2018-01-31T10:18:20Z</time>
      </trkpt>
      <trkpt lat="45.95169" lon="4.87388">
        <ele>271</ele>
        <time>2018-01-31T10:18:21Z</time>
      </trkpt>
      <trkpt lat="45.9517" lon="4.87396">
        <ele>271</ele>
        <time>2018-01-31T10:18:22Z</time>
      </trkpt>
      <trkpt lat="45.95171" lon="4.87403">
        <ele>271</ele>
        <time>2018-01-31T10:18:23Z</time>
      </trkpt>
      <trkpt lat="45.95173" lon="4.8741">
        <ele>271</ele>
        <time>2018-01-31T10:18:24Z</time>
      </trkpt>
      <trkpt lat="45.95175" lon="4.87417">
        <ele>271</ele>
        <time>2018-01-31T10:18:25Z</time>
      </trkpt>
      <trkpt lat="45.95178" lon="4.87423">
        <ele>271</ele>
        <time>2018-01-31T10:18:26Z</time>
      </trkpt>
      <trkpt lat="45.95179" lon="4.87431">
        <ele>271</ele>
        <time>2018-01-31T10:18:27Z</time>
      </trkpt>
      <trkpt lat="45.95181" lon="4.87439">
        <ele>272</ele>
        <time>2018-01-31T10:18:28Z</time>
      </trkpt>
      <trkpt lat="45.95182" lon="4.87445">
        <ele>272</ele>
        <time>2018-01-31T10:18:29Z</time>
      </trkpt>
      <trkpt lat="45.95184" lon="4.87453">
        <ele>272</ele>
        <time>2018-01-31T10:18:30Z</time>
      </trkpt>
      <trkpt lat="45.95186" lon="4.87461">
        <ele>272</ele>
        <time>2018-01-31T10:18:31Z</time>
      </trkpt>
      <trkpt lat="45.95187" lon="4.87468">
        <ele>272</ele>
        <time>2018-01-31T10:18:32Z</time>
      </trkpt>
      <trkpt lat="45.95188" lon="4.87475">
        <ele>272</ele>
        <time>2018-01-31T10:18:33Z</time>
      </trkpt>
      <trkpt lat="45.9519" lon="4.87482">
        <ele>272</ele>
        <time>2018-01-31T10:18:34Z</time>
      </trkpt>
      <trkpt lat="45.95192" lon="4.87489">
        <ele>272</ele>
        <time>2018-01-31T10:18:35Z</time>
      </trkpt>
      <trkpt lat="45.95193" lon="4.87495">
        <ele>272</ele>
        <time>2018-01-31T10:18:36Z</time>
      </trkpt>
      <trkpt lat="45.95195" lon="4.87504">
        <ele>273</ele>
        <time>2018-01-31T10:18:37Z</time>
      </trkpt>
      <trkpt lat="45.95197" lon="4.87511">
        <ele>273</ele>
        <time>2018-01-31T10:18:38Z</time>
      </trkpt>
      <trkpt lat="45.952" lon="4.87517">
        <ele>273</ele>
        <time>2018-01-31T10:18:39Z</time>
      </trkpt>
      <trkpt lat="45.95202" lon="4.87524">
        <ele>274</ele>
        <time>2018-01-31T10:18:40Z</time>
      </trkpt>
      <trkpt lat="45.95203" lon="4.87531">
        <ele>274</ele>
        <time>2018-01-31T10:18:41Z</time>
      </trkpt>
      <trkpt lat="45.95204" lon="4.87539">
        <ele>274</ele>
        <time>2018-01-31T10:18:42Z</time>
      </trkpt>
      <trkpt lat="45.95204" lon="4.87546">
        <ele>274</ele>
        <time>2018-01-31T10:18:43Z</time>
      </trkpt>
      <trkpt lat="45.95205" lon="4.87554">
        <ele>274</ele>
        <time>2018-01-31T10:18:44Z</time>
      </trkpt>
      <trkpt lat="45.95207" lon="4.8756">
        <ele>274</ele>
        <time>2018-01-31T10:18:45Z</time>
      </trkpt>
      <trkpt lat="45.95208" lon="4.87567">
        <ele>274</ele>
        <time>2018-01-31T10:18:46Z</time>
      </trkpt>
      <trkpt lat="45.95209" lon="4.8758">
        <ele>274</ele>
        <time>2018-01-31T10:18:48Z</time>
      </trkpt>
      <trkpt lat="45.95208" lon="4.87586">
        <ele>276</ele>
        <time>2018-01-31T10:18:49Z</time>
      </trkpt>
      <trkpt lat="45.95209" lon="4.87591">
        <ele>276</ele>
        <time>2018-01-31T10:18:50Z</time>
      </trkpt>
      <trkpt lat="45.9521" lon="4.876">
        <ele>276</ele>
        <time>2018-01-31T10:18:51Z</time>
      </trkpt>
      <trkpt lat="45.95211" lon="4.87612">
        <ele>276</ele>
        <time>2018-01-31T10:18:53Z</time>
      </trkpt>
      <trkpt lat="45.95212" lon="4.87617">
        <ele>276</ele>
        <time>2018-01-31T10:18:54Z</time>
      </trkpt>
      <trkpt lat="45.95214" lon="4.87628">
        <ele>276</ele>
        <time>2018-01-31T10:18:56Z</time>
      </trkpt>
      <trkpt lat="45.95215" lon="4.87633">
        <ele>276</ele>
        <time>2018-01-31T10:18:57Z</time>
      </trkpt>
      <trkpt lat="45.95217" lon="4.87644">
        <ele>276</ele>
        <time>2018-01-31T10:18:59Z</time>
      </trkpt>
      <trkpt lat="45.95217" lon="4.87649">
        <ele>276</ele>
        <time>2018-01-31T10:19:00Z</time>
      </trkpt>
      <trkpt lat="45.95219" lon="4.87659">
        <ele>276</ele>
        <time>2018-01-31T10:19:02Z</time>
      </trkpt>
      <trkpt lat="45.95219" lon="4.87663">
        <ele>276</ele>
        <time>2018-01-31T10:19:03Z</time>
      </trkpt>
      <trkpt lat="45.9522" lon="4.87671">
        <ele>278</ele>
        <time>2018-01-31T10:19:05Z</time>
      </trkpt>
      <trkpt lat="45.95221" lon="4.87677">
        <ele>278</ele>
        <time>2018-01-31T10:19:06Z</time>
      </trkpt>
      <trkpt lat="45.95221" lon="4.87687">
        <ele>279</ele>
        <time>2018-01-31T10:19:08Z</time>
      </trkpt>
      <trkpt lat="45.95222" lon="4.87692">
        <ele>279</ele>
        <time>2018-01-31T10:19:09Z</time>
      </trkpt>
      <trkpt lat="45.95224" lon="4.87702">
        <ele>279</ele>
        <time>2018-01-31T10:19:11Z</time>
      </trkpt>
      <trkpt lat="45.95225" lon="4.87706">
        <ele>279</ele>
        <time>2018-01-31T10:19:12Z</time>
      </trkpt>
      <trkpt lat="45.95227" lon="4.87717">
        <ele>279</ele>
        <time>2018-01-31T10:19:15Z</time>
      </trkpt>
      <trkpt lat="45.95228" lon="4.87722">
        <ele>280</ele>
        <time>2018-01-31T10:19:16Z</time>
      </trkpt>
      <trkpt lat="45.9523" lon="4.8773">
        <ele>280</ele>
        <time>2018-01-31T10:19:18Z</time>
      </trkpt>
      <trkpt lat="45.95231" lon="4.87735">
        <ele>280</ele>
        <time>2018-01-31T10:19:19Z</time>
      </trkpt>
      <trkpt lat="45.95234" lon="4.87747">
        <ele>280</ele>
        <time>2018-01-31T10:19:22Z</time>
      </trkpt>
      <trkpt lat="45.95234" lon="4.87752">
        <ele>281</ele>
        <time>2018-01-31T10:19:23Z</time>
      </trkpt>
      <trkpt lat="45.95236" lon="4.87761">
        <ele>281</ele>
        <time>2018-01-31T10:19:25Z</time>
      </trkpt>
      <trkpt lat="45.95236" lon="4.87766">
        <ele>282</ele>
        <time>2018-01-31T10:19:26Z</time>
      </trkpt>
      <trkpt lat="45.95238" lon="4.87775">
        <ele>282</ele>
        <time>2018-01-31T10:19:28Z</time>
      </trkpt>
      <trkpt lat="45.95239" lon="4.8778">
        <ele>282</ele>
        <time>2018-01-31T10:19:29Z</time>
      </trkpt>
      <trkpt lat="45.95241" lon="4.87791">
        <ele>282</ele>
        <time>2018-01-31T10:19:31Z</time>
      </trkpt>
      <trkpt lat="45.95242" lon="4.87797">
        <ele>282</ele>
        <time>2018-01-31T10:19:32Z</time>
      </trkpt>
      <trkpt lat="45.95244" lon="4.87807">
        <ele>282</ele>
        <time>2018-01-31T10:19:34Z</time>
      </trkpt>
      <trkpt lat="45.95245" lon="4.87812">
        <ele>282</ele>
        <time>2018-01-31T10:19:35Z</time>
      </trkpt>
      <trkpt lat="45.95247" lon="4.87821">
        <ele>282</ele>
        <time>2018-01-31T10:19:37Z</time>
      </trkpt>
      <trkpt lat="45.95248" lon="4.87826">
        <ele>282</ele>
        <time>2018-01-31T10:19:38Z</time>
      </trkpt>
      <trkpt lat="45.95249" lon="4.87836">
        <ele>282</ele>
        <time>2018-01-31T10:19:40Z</time>
      </trkpt>
      <trkpt lat="45.9525" lon="4.87841">
        <ele>283</ele>
        <time>2018-01-31T10:19:41Z</time>
      </trkpt>
      <trkpt lat="45.95252" lon="4.87852">
        <ele>281</ele>
        <time>2018-01-31T10:19:43Z</time>
      </trkpt>
      <trkpt lat="45.95253" lon="4.87857">
        <ele>281</ele>
        <time>2018-01-31T10:19:44Z</time>
      </trkpt>
      <trkpt lat="45.95255" lon="4.87867">
        <ele>281</ele>
        <time>2018-01-31T10:19:46Z</time>
      </trkpt>
      <trkpt lat="45.95256" lon="4.87872">
        <ele>281</ele>
        <time>2018-01-31T10:19:47Z</time>
      </trkpt>
      <trkpt lat="45.95259" lon="4.87883">
        <ele>281</ele>
        <time>2018-01-31T10:19:49Z</time>
      </trkpt>
      <trkpt lat="45.9526" lon="4.87888">
        <ele>281</ele>
        <time>2018-01-31T10:19:50Z</time>
      </trkpt>
      <trkpt lat="45.95262" lon="4.87899">
        <ele>281</ele>
        <time>2018-01-31T10:19:52Z</time>
      </trkpt>
      <trkpt lat="45.95263" lon="4.87905">
        <ele>281</ele>
        <time>2018-01-31T10:19:53Z</time>
      </trkpt>
      <trkpt lat="45.95264" lon="4.87917">
        <ele>281</ele>
        <time>2018-01-31T10:19:55Z</time>
      </trkpt>
      <trkpt lat="45.95264" lon="4.87923">
        <ele>281</ele>
        <time>2018-01-31T10:19:56Z</time>
      </trkpt>
      <trkpt lat="45.95263" lon="4.87934">
        <ele>281</ele>
        <time>2018-01-31T10:19:58Z</time>
      </trkpt>
      <trkpt lat="45.95263" lon="4.87939">
        <ele>280</ele>
        <time>2018-01-31T10:19:59Z</time>
      </trkpt>
      <trkpt lat="45.95261" lon="4.87949">
        <ele>280</ele>
        <time>2018-01-31T10:20:01Z</time>
      </trkpt>
      <trkpt lat="45.9526" lon="4.87954">
        <ele>280</ele>
        <time>2018-01-31T10:20:02Z</time>
      </trkpt>
      <trkpt lat="45.95257" lon="4.87963">
        <ele>280</ele>
        <time>2018-01-31T10:20:04Z</time>
      </trkpt>
      <trkpt lat="45.95254" lon="4.87967">
        <ele>280</ele>
        <time>2018-01-31T10:20:05Z</time>
      </trkpt>
      <trkpt lat="45.95249" lon="4.87975">
        <ele>282</ele>
        <time>2018-01-31T10:20:07Z</time>
      </trkpt>
      <trkpt lat="45.95246" lon="4.87978">
        <ele>281</ele>
        <time>2018-01-31T10:20:08Z</time>
      </trkpt>
      <trkpt lat="45.9524" lon="4.87986">
        <ele>281</ele>
        <time>2018-01-31T10:20:10Z</time>
      </trkpt>
      <trkpt lat="45.95237" lon="4.8799">
        <ele>281</ele>
        <time>2018-01-31T10:20:11Z</time>
      </trkpt>
      <trkpt lat="45.95231" lon="4.87998">
        <ele>281</ele>
        <time>2018-01-31T10:20:13Z</time>
      </trkpt>
      <trkpt lat="45.95229" lon="4.88002">
        <ele>280</ele>
        <time>2018-01-31T10:20:14Z</time>
      </trkpt>
      <trkpt lat="45.95223" lon="4.88009">
        <ele>281</ele>
        <time>2018-01-31T10:20:16Z</time>
      </trkpt>
      <trkpt lat="45.9522" lon="4.88012">
        <ele>281</ele>
        <time>2018-01-31T10:20:17Z</time>
      </trkpt>
      <trkpt lat="45.95213" lon="4.88019">
        <ele>281</ele>
        <time>2018-01-31T10:20:19Z</time>
      </trkpt>
      <trkpt lat="45.95211" lon="4.88022">
        <ele>281</ele>
        <time>2018-01-31T10:20:20Z</time>
      </trkpt>
      <trkpt lat="45.95205" lon="4.88031">
        <ele>281</ele>
        <time>2018-01-31T10:20:22Z</time>
      </trkpt>
      <trkpt lat="45.95202" lon="4.88036">
        <ele>281</ele>
        <time>2018-01-31T10:20:23Z</time>
      </trkpt>
      <trkpt lat="45.95197" lon="4.88044">
        <ele>281</ele>
        <time>2018-01-31T10:20:25Z</time>
      </trkpt>
      <trkpt lat="45.95194" lon="4.8805">
        <ele>281</ele>
        <time>2018-01-31T10:20:26Z</time>
      </trkpt>
      <trkpt lat="45.9519" lon="4.88061">
        <ele>281</ele>
        <time>2018-01-31T10:20:28Z</time>
      </trkpt>
      <trkpt lat="45.95189" lon="4.88067">
        <ele>281</ele>
        <time>2018-01-31T10:20:29Z</time>
      </trkpt>
      <trkpt lat="45.95186" lon="4.88079">
        <ele>281</ele>
        <time>2018-01-31T10:20:31Z</time>
      </trkpt>
      <trkpt lat="45.95185" lon="4.88085">
        <ele>282</ele>
        <time>2018-01-31T10:20:32Z</time>
      </trkpt>
      <trkpt lat="45.95183" lon="4.88091">
        <ele>282</ele>
        <time>2018-01-31T10:20:33Z</time>
      </trkpt>
      <trkpt lat="45.95182" lon="4.88097">
        <ele>282</ele>
        <time>2018-01-31T10:20:34Z</time>
      </trkpt>
      <trkpt lat="45.9518" lon="4.88109">
        <ele>282</ele>
        <time>2018-01-31T10:20:36Z</time>
      </trkpt>
      <trkpt lat="45.9518" lon="4.88115">
        <ele>282</ele>
        <time>2018-01-31T10:20:37Z</time>
      </trkpt>
      <trkpt lat="45.95177" lon="4.88125">
        <ele>282</ele>
        <time>2018-01-31T10:20:39Z</time>
      </trkpt>
      <trkpt lat="45.95176" lon="4.8813">
        <ele>282</ele>
        <time>2018-01-31T10:20:40Z</time>
      </trkpt>
      <trkpt lat="45.95173" lon="4.8814">
        <ele>283</ele>
        <time>2018-01-31T10:20:42Z</time>
      </trkpt>
      <trkpt lat="45.95172" lon="4.88145">
        <ele>283</ele>
        <time>2018-01-31T10:20:43Z</time>
      </trkpt>
      <trkpt lat="45.95169" lon="4.88154">
        <ele>284</ele>
        <time>2018-01-31T10:20:45Z</time>
      </trkpt>
      <trkpt lat="45.95168" lon="4.88158">
        <ele>284</ele>
        <time>2018-01-31T10:20:46Z</time>
      </trkpt>
      <trkpt lat="45.95169" lon="4.88167">
        <ele>285</ele>
        <time>2018-01-31T10:20:48Z</time>
      </trkpt>
      <trkpt lat="45.9517" lon="4.88171">
        <ele>285</ele>
        <time>2018-01-31T10:20:49Z</time>
      </trkpt>
      <trkpt lat="45.95175" lon="4.88176">
        <ele>285</ele>
        <time>2018-01-31T10:20:51Z</time>
      </trkpt>
      <trkpt lat="45.95179" lon="4.88176">
        <ele>285</ele>
        <time>2018-01-31T10:20:52Z</time>
      </trkpt>
      <trkpt lat="45.95186" lon="4.88173">
        <ele>285</ele>
        <time>2018-01-31T10:20:54Z</time>
      </trkpt>
      <trkpt lat="45.9519" lon="4.88172">
        <ele>285</ele>
        <time>2018-01-31T10:20:55Z</time>
      </trkpt>
      <trkpt lat="45.95196" lon="4.8817">
        <ele>285</ele>
        <time>2018-01-31T10:20:56Z</time>
      </trkpt>
      <trkpt lat="45.952" lon="4.88169">
        <ele>285</ele>
        <time>2018-01-31T10:20:57Z</time>
      </trkpt>
      <trkpt lat="45.95205" lon="4.88168">
        <ele>285</ele>
        <time>2018-01-31T10:20:58Z</time>
      </trkpt>
      <trkpt lat="45.9521" lon="4.88167">
        <ele>284</ele>
        <time>2018-01-31T10:20:59Z</time>
      </trkpt>
      <trkpt lat="45.95216" lon="4.88166">
        <ele>282</ele>
        <time>2018-01-31T10:21:00Z</time>
      </trkpt>
      <trkpt lat="45.95222" lon="4.88165">
        <ele>282</ele>
        <time>2018-01-31T10:21:01Z</time>
      </trkpt>
      <trkpt lat="45.95228" lon="4.88165">
        <ele>282</ele>
        <time>2018-01-31T10:21:02Z</time>
      </trkpt>
      <trkpt lat="45.95235" lon="4.88164">
        <ele>281</ele>
        <time>2018-01-31T10:21:03Z</time>
      </trkpt>
      <trkpt lat="45.95242" lon="4.88164">
        <ele>281</ele>
        <time>2018-01-31T10:21:04Z</time>
      </trkpt>
      <trkpt lat="45.95249" lon="4.88166">
        <ele>281</ele>
        <time>2018-01-31T10:21:05Z</time>
      </trkpt>
      <trkpt lat="45.95255" lon="4.88166">
        <ele>280</ele>
        <time>2018-01-31T10:21:06Z</time>
      </trkpt>
      <trkpt lat="45.95263" lon="4.88167">
        <ele>281</ele>
        <time>2018-01-31T10:21:07Z</time>
      </trkpt>
      <trkpt lat="45.95271" lon="4.88167">
        <ele>281</ele>
        <time>2018-01-31T10:21:08Z</time>
      </trkpt>
      <trkpt lat="45.95277" lon="4.88169">
        <ele>281</ele>
        <time>2018-01-31T10:21:09Z</time>
      </trkpt>
      <trkpt lat="45.95285" lon="4.88171">
        <ele>281</ele>
        <time>2018-01-31T10:21:10Z</time>
      </trkpt>
      <trkpt lat="45.95294" lon="4.8817">
        <ele>281</ele>
        <time>2018-01-31T10:21:11Z</time>
      </trkpt>
      <trkpt lat="45.95301" lon="4.88172">
        <ele>281</ele>
        <time>2018-01-31T10:21:12Z</time>
      </trkpt>
      <trkpt lat="45.95309" lon="4.88173">
        <ele>280</ele>
        <time>2018-01-31T10:21:13Z</time>
      </trkpt>
      <trkpt lat="45.95318" lon="4.88173">
        <ele>280</ele>
        <time>2018-01-31T10:21:14Z</time>
      </trkpt>
      <trkpt lat="45.95327" lon="4.88174">
        <ele>279</ele>
        <time>2018-01-31T10:21:15Z</time>
      </trkpt>
      <trkpt lat="45.95335" lon="4.88174">
        <ele>278</ele>
        <time>2018-01-31T10:21:16Z</time>
      </trkpt>
      <trkpt lat="45.95343" lon="4.88173">
        <ele>278</ele>
        <time>2018-01-31T10:21:17Z</time>
      </trkpt>
      <trkpt lat="45.95351" lon="4.88173">
        <ele>278</ele>
        <time>2018-01-31T10:21:18Z</time>
      </trkpt>
      <trkpt lat="45.95359" lon="4.88172">
        <ele>278</ele>
        <time>2018-01-31T10:21:19Z</time>
      </trkpt>
      <trkpt lat="45.95368" lon="4.8817">
        <ele>278</ele>
        <time>2018-01-31T10:21:20Z</time>
      </trkpt>
      <trkpt lat="45.95376" lon="4.88168">
        <ele>278</ele>
        <time>2018-01-31T10:21:21Z</time>
      </trkpt>
      <trkpt lat="45.95384" lon="4.88165">
        <ele>276</ele>
        <time>2018-01-31T10:21:22Z</time>
      </trkpt>
      <trkpt lat="45.95392" lon="4.88163">
        <ele>276</ele>
        <time>2018-01-31T10:21:23Z</time>
      </trkpt>
      <trkpt lat="45.95399" lon="4.8816">
        <ele>276</ele>
        <time>2018-01-31T10:21:24Z</time>
      </trkpt>
      <trkpt lat="45.95405" lon="4.88157">
        <ele>276</ele>
        <time>2018-01-31T10:21:25Z</time>
      </trkpt>
      <trkpt lat="45.95411" lon="4.88155">
        <ele>276</ele>
        <time>2018-01-31T10:21:26Z</time>
      </trkpt>
      <trkpt lat="45.95418" lon="4.88152">
        <ele>276</ele>
        <time>2018-01-31T10:21:27Z</time>
      </trkpt>
      <trkpt lat="45.95424" lon="4.88148">
        <ele>276</ele>
        <time>2018-01-31T10:21:28Z</time>
      </trkpt>
      <trkpt lat="45.9543" lon="4.88145">
        <ele>276</ele>
        <time>2018-01-31T10:21:29Z</time>
      </trkpt>
      <trkpt lat="45.95436" lon="4.88142">
        <ele>276</ele>
        <time>2018-01-31T10:21:30Z</time>
      </trkpt>
      <trkpt lat="45.95442" lon="4.8814">
        <ele>276</ele>
        <time>2018-01-31T10:21:31Z</time>
      </trkpt>
      <trkpt lat="45.95448" lon="4.88137">
        <ele>276</ele>
        <time>2018-01-31T10:21:32Z</time>
      </trkpt>
      <trkpt lat="45.95454" lon="4.88133">
        <ele>276</ele>
        <time>2018-01-31T10:21:33Z</time>
      </trkpt>
      <trkpt lat="45.95459" lon="4.8813">
        <ele>276</ele>
        <time>2018-01-31T10:21:34Z</time>
      </trkpt>
      <trkpt lat="45.95464" lon="4.88128">
        <ele>276</ele>
        <time>2018-01-31T10:21:35Z</time>
      </trkpt>
      <trkpt lat="45.95469" lon="4.88125">
        <ele>276</ele>
        <time>2018-01-31T10:21:36Z</time>
      </trkpt>
      <trkpt lat="45.95474" lon="4.88124">
        <ele>276</ele>
        <time>2018-01-31T10:21:37Z</time>
      </trkpt>
      <trkpt lat="45.9548" lon="4.88122">
        <ele>276</ele>
        <time>2018-01-31T10:21:38Z</time>
      </trkpt>
      <trkpt lat="45.95486" lon="4.88117">
        <ele>276</ele>
        <time>2018-01-31T10:21:39Z</time>
      </trkpt>
      <trkpt lat="45.95492" lon="4.88115">
        <ele>276</ele>
        <time>2018-01-31T10:21:40Z</time>
      </trkpt>
      <trkpt lat="45.95498" lon="4.88111">
        <ele>276</ele>
        <time>2018-01-31T10:21:41Z</time>
      </trkpt>
      <trkpt lat="45.95503" lon="4.88108">
        <ele>276</ele>
        <time>2018-01-31T10:21:42Z</time>
      </trkpt>
      <trkpt lat="45.95508" lon="4.88107">
        <ele>276</ele>
        <time>2018-01-31T10:21:43Z</time>
      </trkpt>
      <trkpt lat="45.95514" lon="4.88105">
        <ele>276</ele>
        <time>2018-01-31T10:21:44Z</time>
      </trkpt>
      <trkpt lat="45.95521" lon="4.88102">
        <ele>276</ele>
        <time>2018-01-31T10:21:45Z</time>
      </trkpt>
      <trkpt lat="45.95526" lon="4.881">
        <ele>277</ele>
        <time>2018-01-31T10:21:46Z</time>
      </trkpt>
      <trkpt lat="45.95532" lon="4.88096">
        <ele>277</ele>
        <time>2018-01-31T10:21:47Z</time>
      </trkpt>
      <trkpt lat="45.95537" lon="4.88094">
        <ele>277</ele>
        <time>2018-01-31T10:21:48Z</time>
      </trkpt>
      <trkpt lat="45.95542" lon="4.88093">
        <ele>277</ele>
        <time>2018-01-31T10:21:49Z</time>
      </trkpt>
      <trkpt lat="45.95546" lon="4.88091">
        <ele>277</ele>
        <time>2018-01-31T10:21:50Z</time>
      </trkpt>
      <trkpt lat="45.95551" lon="4.88089">
        <ele>277</ele>
        <time>2018-01-31T10:21:51Z</time>
      </trkpt>
      <trkpt lat="45.95556" lon="4.88086">
        <ele>277</ele>
        <time>2018-01-31T10:21:52Z</time>
      </trkpt>
      <trkpt lat="45.9556" lon="4.88083">
        <ele>277</ele>
        <time>2018-01-31T10:21:53Z</time>
      </trkpt>
      <trkpt lat="45.95565" lon="4.8808">
        <ele>276</ele>
        <time>2018-01-31T10:21:54Z</time>
      </trkpt>
      <trkpt lat="45.95569" lon="4.88078">
        <ele>276</ele>
        <time>2018-01-31T10:21:55Z</time>
      </trkpt>
      <trkpt lat="45.95574" lon="4.88075">
        <ele>277</ele>
        <time>2018-01-31T10:21:56Z</time>
      </trkpt>
      <trkpt lat="45.95579" lon="4.88072">
        <ele>277</ele>
        <time>2018-01-31T10:21:57Z</time>
      </trkpt>
      <trkpt lat="45.95583" lon="4.88069">
        <ele>276</ele>
        <time>2018-01-31T10:21:58Z</time>
      </trkpt>
      <trkpt lat="45.95588" lon="4.88066">
        <ele>278</ele>
        <time>2018-01-31T10:21:59Z</time>
      </trkpt>
      <trkpt lat="45.95592" lon="4.88063">
        <ele>278</ele>
        <time>2018-01-31T10:22:00Z</time>
      </trkpt>
      <trkpt lat="45.95596" lon="4.8806">
        <ele>278</ele>
        <time>2018-01-31T10:22:01Z</time>
      </trkpt>
      <trkpt lat="45.95601" lon="4.88056">
        <ele>278</ele>
        <time>2018-01-31T10:22:02Z</time>
      </trkpt>
      <trkpt lat="45.95605" lon="4.88052">
        <ele>278</ele>
        <time>2018-01-31T10:22:03Z</time>
      </trkpt>
      <trkpt lat="45.95609" lon="4.88049">
        <ele>278</ele>
        <time>2018-01-31T10:22:04Z</time>
      </trkpt>
      <trkpt lat="45.95614" lon="4.88043">
        <ele>278</ele>
        <time>2018-01-31T10:22:05Z</time>
      </trkpt>
      <trkpt lat="45.95619" lon="4.88039">
        <ele>278</ele>
        <time>2018-01-31T10:22:06Z</time>
      </trkpt>
      <trkpt lat="45.95626" lon="4.88032">
        <ele>279</ele>
        <time>2018-01-31T10:22:08Z</time>
      </trkpt>
      <trkpt lat="45.95631" lon="4.88028">
        <ele>279</ele>
        <time>2018-01-31T10:22:09Z</time>
      </trkpt>
      <trkpt lat="45.95638" lon="4.88022">
        <ele>279</ele>
        <time>2018-01-31T10:22:11Z</time>
      </trkpt>
      <trkpt lat="45.95641" lon="4.88018">
        <ele>279</ele>
        <time>2018-01-31T10:22:12Z</time>
      </trkpt>
      <trkpt lat="45.95645" lon="4.88015">
        <ele>279</ele>
        <time>2018-01-31T10:22:13Z</time>
      </trkpt>
      <trkpt lat="45.95649" lon="4.88011">
        <ele>280</ele>
        <time>2018-01-31T10:22:14Z</time>
      </trkpt>
      <trkpt lat="45.95653" lon="4.88008">
        <ele>280</ele>
        <time>2018-01-31T10:22:15Z</time>
      </trkpt>
      <trkpt lat="45.95658" lon="4.88004">
        <ele>280</ele>
        <time>2018-01-31T10:22:16Z</time>
      </trkpt>
      <trkpt lat="45.95664" lon="4.87998">
        <ele>281</ele>
        <time>2018-01-31T10:22:18Z</time>
      </trkpt>
      <trkpt lat="45.95668" lon="4.87995">
        <ele>281</ele>
        <time>2018-01-31T10:22:19Z</time>
      </trkpt>
      <trkpt lat="45.95672" lon="4.87991">
        <ele>282</ele>
        <time>2018-01-31T10:22:20Z</time>
      </trkpt>
      <trkpt lat="45.95676" lon="4.87987">
        <ele>282</ele>
        <time>2018-01-31T10:22:21Z</time>
      </trkpt>
      <trkpt lat="45.95679" lon="4.87983">
        <ele>282</ele>
        <time>2018-01-31T10:22:22Z</time>
      </trkpt>
      <trkpt lat="45.95683" lon="4.87979">
        <ele>282</ele>
        <time>2018-01-31T10:22:23Z</time>
      </trkpt>
      <trkpt lat="45.9569" lon="4.87973">
        <ele>282</ele>
        <time>2018-01-31T10:22:25Z</time>
      </trkpt>
      <trkpt lat="45.95694" lon="4.8797">
        <ele>282</ele>
        <time>2018-01-31T10:22:26Z</time>
      </trkpt>
      <trkpt lat="45.957" lon="4.87965">
        <ele>283</ele>
        <time>2018-01-31T10:22:28Z</time>
      </trkpt>
      <trkpt lat="45.95702" lon="4.87962">
        <ele>283</ele>
        <time>2018-01-31T10:22:29Z</time>
      </trkpt>
      <trkpt lat="45.95707" lon="4.87957">
        <ele>283</ele>
        <time>2018-01-31T10:22:31Z</time>
      </trkpt>
      <trkpt lat="45.9571" lon="4.87955">
        <ele>283</ele>
        <time>2018-01-31T10:22:32Z</time>
      </trkpt>
      <trkpt lat="45.95715" lon="4.8795">
        <ele>283</ele>
        <time>2018-01-31T10:22:34Z</time>
      </trkpt>
      <trkpt lat="45.95719" lon="4.87947">
        <ele>283</ele>
        <time>2018-01-31T10:22:35Z</time>
      </trkpt>
      <trkpt lat="45.95725" lon="4.87941">
        <ele>283</ele>
        <time>2018-01-31T10:22:37Z</time>
      </trkpt>
      <trkpt lat="45.95728" lon="4.87938">
        <ele>283</ele>
        <time>2018-01-31T10:22:38Z</time>
      </trkpt>
      <trkpt lat="45.95734" lon="4.87932">
        <ele>284</ele>
        <time>2018-01-31T10:22:40Z</time>
      </trkpt>
      <trkpt lat="45.95737" lon="4.87929">
        <ele>284</ele>
        <time>2018-01-31T10:22:41Z</time>
      </trkpt>
      <trkpt lat="45.95743" lon="4.87925">
        <ele>284</ele>
        <time>2018-01-31T10:22:43Z</time>
      </trkpt>
      <trkpt lat="45.95746" lon="4.87923">
        <ele>284</ele>
        <time>2018-01-31T10:22:44Z</time>
      </trkpt>
      <trkpt lat="45.95751" lon="4.87919">
        <ele>285</ele>
        <time>2018-01-31T10:22:46Z</time>
      </trkpt>
      <trkpt lat="45.95754" lon="4.87917">
        <ele>285</ele>
        <time>2018-01-31T10:22:47Z</time>
      </trkpt>
      <trkpt lat="45.9576" lon="4.87912">
        <ele>285</ele>
        <time>2018-01-31T10:22:49Z</time>
      </trkpt>
      <trkpt lat="45.95764" lon="4.87909">
        <ele>286</ele>
        <time>2018-01-31T10:22:50Z</time>
      </trkpt>
      <trkpt lat="45.95771" lon="4.87904">
        <ele>286</ele>
        <time>2018-01-31T10:22:52Z</time>
      </trkpt>
      <trkpt lat="45.95774" lon="4.87902">
        <ele>286</ele>
        <time>2018-01-31T10:22:53Z</time>
      </trkpt>
      <trkpt lat="45.9578" lon="4.87898">
        <ele>286</ele>
        <time>2018-01-31T10:22:55Z</time>
      </trkpt>
      <trkpt lat="45.95783" lon="4.87896">
        <ele>286</ele>
        <time>2018-01-31T10:22:56Z</time>
      </trkpt>
      <trkpt lat="45.95789" lon="4.87892">
        <ele>286</ele>
        <time>2018-01-31T10:22:58Z</time>
      </trkpt>
      <trkpt lat="45.95791" lon="4.8789">
        <ele>286</ele>
        <time>2018-01-31T10:22:59Z</time>
      </trkpt>
      <trkpt lat="45.95799" lon="4.87885">
        <ele>287</ele>
        <time>2018-01-31T10:23:02Z</time>
      </trkpt>
      <trkpt lat="45.95802" lon="4.87884">
        <ele>287</ele>
        <time>2018-01-31T10:23:03Z</time>
      </trkpt>
      <trkpt lat="45.95809" lon="4.8788">
        <ele>287</ele>
        <time>2018-01-31T10:23:06Z</time>
      </trkpt>
      <trkpt lat="45.95812" lon="4.87879">
        <ele>287</ele>
        <time>2018-01-31T10:23:07Z</time>
      </trkpt>
      <trkpt lat="45.95819" lon="4.87878">
        <ele>287</ele>
        <time>2018-01-31T10:23:09Z</time>
      </trkpt>
      <trkpt lat="45.95822" lon="4.87877">
        <ele>287</ele>
        <time>2018-01-31T10:23:10Z</time>
      </trkpt>
      <trkpt lat="45.95829" lon="4.87877">
        <ele>287</ele>
        <time>2018-01-31T10:23:13Z</time>
      </trkpt>
      <trkpt lat="45.95831" lon="4.87877">
        <ele>287</ele>
        <time>2018-01-31T10:23:14Z</time>
      </trkpt>
      <trkpt lat="45.95837" lon="4.87886">
        <ele>289</ele>
        <time>2018-01-31T10:23:19Z</time>
      </trkpt>
      <trkpt lat="45.9584" lon="4.87886">
        <ele>289</ele>
        <time>2018-01-31T10:23:20Z</time>
      </trkpt>
      <trkpt lat="45.95843" lon="4.87878">
        <ele>289</ele>
        <time>2018-01-31T10:23:22Z</time>
      </trkpt>
      <trkpt lat="45.95844" lon="4.87872">
        <ele>289</ele>
        <time>2018-01-31T10:23:23Z</time>
      </trkpt>
      <trkpt lat="45.95845" lon="4.87866">
        <ele>289</ele>
        <time>2018-01-31T10:23:24Z</time>
      </trkpt>
      <trkpt lat="45.95847" lon="4.8786">
        <ele>289</ele>
        <time>2018-01-31T10:23:25Z</time>
      </trkpt>
      <trkpt lat="45.95851" lon="4.87855">
        <ele>289</ele>
        <time>2018-01-31T10:23:26Z</time>
      </trkpt>
      <trkpt lat="45.95856" lon="4.8785">
        <ele>289</ele>
        <time>2018-01-31T10:23:27Z</time>
      </trkpt>
      <trkpt lat="45.9586" lon="4.87847">
        <ele>289</ele>
        <time>2018-01-31T10:23:28Z</time>
      </trkpt>
      <trkpt lat="45.95864" lon="4.87842">
        <ele>289</ele>
        <time>2018-01-31T10:23:29Z</time>
      </trkpt>
      <trkpt lat="45.95871" lon="4.87835">
        <ele>289</ele>
        <time>2018-01-31T10:23:31Z</time>
      </trkpt>
      <trkpt lat="45.95874" lon="4.87832">
        <ele>288</ele>
        <time>2018-01-31T10:23:32Z</time>
      </trkpt>
      <trkpt lat="45.95878" lon="4.87828">
        <ele>288</ele>
        <time>2018-01-31T10:23:33Z</time>
      </trkpt>
      <trkpt lat="45.95883" lon="4.87825">
        <ele>288</ele>
        <time>2018-01-31T10:23:34Z</time>
      </trkpt>
      <trkpt lat="45.95886" lon="4.87821">
        <ele>288</ele>
        <time>2018-01-31T10:23:35Z</time>
      </trkpt>
      <trkpt lat="45.9589" lon="4.87816">
        <ele>288</ele>
        <time>2018-01-31T10:23:36Z</time>
      </trkpt>
      <trkpt lat="45.95893" lon="4.87811">
        <ele>288</ele>
        <time>2018-01-31T10:23:37Z</time>
      </trkpt>
      <trkpt lat="45.95897" lon="4.87806">
        <ele>288</ele>
        <time>2018-01-31T10:23:38Z</time>
      </trkpt>
      <trkpt lat="45.95902" lon="4.87798">
        <ele>288</ele>
        <time>2018-01-31T10:23:40Z</time>
      </trkpt>
      <trkpt lat="45.95905" lon="4.87793">
        <ele>288</ele>
        <time>2018-01-31T10:23:41Z</time>
      </trkpt>
      <trkpt lat="45.95908" lon="4.87788">
        <ele>288</ele>
        <time>2018-01-31T10:23:42Z</time>
      </trkpt>
      <trkpt lat="45.95911" lon="4.87783">
        <ele>288</ele>
        <time>2018-01-31T10:23:43Z</time>
      </trkpt>
      <trkpt lat="45.95916" lon="4.87775">
        <ele>288</ele>
        <time>2018-01-31T10:23:45Z</time>
      </trkpt>
      <trkpt lat="45.95919" lon="4.8777">
        <ele>289</ele>
        <time>2018-01-31T10:23:46Z</time>
      </trkpt>
      <trkpt lat="45.95924" lon="4.87761">
        <ele>288</ele>
        <time>2018-01-31T10:23:48Z</time>
      </trkpt>
      <trkpt lat="45.95927" lon="4.87756">
        <ele>288</ele>
        <time>2018-01-31T10:23:49Z</time>
      </trkpt>
      <trkpt lat="45.9593" lon="4.87751">
        <ele>288</ele>
        <time>2018-01-31T10:23:50Z</time>
      </trkpt>
      <trkpt lat="45.95933" lon="4.87747">
        <ele>288</ele>
        <time>2018-01-31T10:23:51Z</time>
      </trkpt>
      <trkpt lat="45.95937" lon="4.87742">
        <ele>288</ele>
        <time>2018-01-31T10:23:52Z</time>
      </trkpt>
      <trkpt lat="45.9594" lon="4.87737">
        <ele>288</ele>
        <time>2018-01-31T10:23:53Z</time>
      </trkpt>
      <trkpt lat="45.95947" lon="4.87729">
        <ele>289</ele>
        <time>2018-01-31T10:23:55Z</time>
      </trkpt>
      <trkpt lat="45.9595" lon="4.87723">
        <ele>289</ele>
        <time>2018-01-31T10:23:56Z</time>
      </trkpt>
      <trkpt lat="45.95954" lon="4.87718">
        <ele>289</ele>
        <time>2018-01-31T10:23:57Z</time>
      </trkpt>
      <trkpt lat="45.95958" lon="4.87713">
        <ele>289</ele>
        <time>2018-01-31T10:23:58Z</time>
      </trkpt>
      <trkpt lat="45.95962" lon="4.87708">
        <ele>289</ele>
        <time>2018-01-31T10:23:59Z</time>
      </trkpt>
      <trkpt lat="45.95967" lon="4.87702">
        <ele>289</ele>
        <time>2018-01-31T10:24:00Z</time>
      </trkpt>
      <trkpt lat="45.95971" lon="4.87697">
        <ele>289</ele>
        <time>2018-01-31T10:24:01Z</time>
      </trkpt>
      <trkpt lat="45.95975" lon="4.87692">
        <ele>289</ele>
        <time>2018-01-31T10:24:02Z</time>
      </trkpt>
      <trkpt lat="45.9598" lon="4.87687">
        <ele>289</ele>
        <time>2018-01-31T10:24:03Z</time>
      </trkpt>
      <trkpt lat="45.95985" lon="4.87681">
        <ele>289</ele>
        <time>2018-01-31T10:24:04Z</time>
      </trkpt>
      <trkpt lat="45.95989" lon="4.87677">
        <ele>289</ele>
        <time>2018-01-31T10:24:05Z</time>
      </trkpt>
      <trkpt lat="45.95994" lon="4.87671">
        <ele>290</ele>
        <time>2018-01-31T10:24:06Z</time>
      </trkpt>
      <trkpt lat="45.95999" lon="4.87665">
        <ele>290</ele>
        <time>2018-01-31T10:24:07Z</time>
      </trkpt>
      <trkpt lat="45.96004" lon="4.87661">
        <ele>290</ele>
        <time>2018-01-31T10:24:08Z</time>
      </trkpt>
      <trkpt lat="45.96008" lon="4.87656">
        <ele>289</ele>
        <time>2018-01-31T10:24:09Z</time>
      </trkpt>
      <trkpt lat="45.96012" lon="4.87652">
        <ele>289</ele>
        <time>2018-01-31T10:24:10Z</time>
      </trkpt>
      <trkpt lat="45.96016" lon="4.87645">
        <ele>289</ele>
        <time>2018-01-31T10:24:11Z</time>
      </trkpt>
      <trkpt lat="45.96019" lon="4.87642">
        <ele>289</ele>
        <time>2018-01-31T10:24:12Z</time>
      </trkpt>
      <trkpt lat="45.96023" lon="4.87637">
        <ele>289</ele>
        <time>2018-01-31T10:24:13Z</time>
      </trkpt>
      <trkpt lat="45.96027" lon="4.87632">
        <ele>289</ele>
        <time>2018-01-31T10:24:14Z</time>
      </trkpt>
      <trkpt lat="45.96031" lon="4.87628">
        <ele>289</ele>
        <time>2018-01-31T10:24:15Z</time>
      </trkpt>
      <trkpt lat="45.96035" lon="4.87624">
        <ele>289</ele>
        <time>2018-01-31T10:24:16Z</time>
      </trkpt>
      <trkpt lat="45.96039" lon="4.87619">
        <ele>289</ele>
        <time>2018-01-31T10:24:17Z</time>
      </trkpt>
      <trkpt lat="45.96043" lon="4.87615">
        <ele>289</ele>
        <time>2018-01-31T10:24:18Z</time>
      </trkpt>
      <trkpt lat="45.96047" lon="4.87609">
        <ele>289</ele>
        <time>2018-01-31T10:24:19Z</time>
      </trkpt>
      <trkpt lat="45.96051" lon="4.87606">
        <ele>289</ele>
        <time>2018-01-31T10:24:20Z</time>
      </trkpt>
      <trkpt lat="45.96054" lon="4.87602">
        <ele>289</ele>
        <time>2018-01-31T10:24:21Z</time>
      </trkpt>
      <trkpt lat="45.96058" lon="4.87597">
        <ele>288</ele>
        <time>2018-01-31T10:24:22Z</time>
      </trkpt>
      <trkpt lat="45.96062" lon="4.87592">
        <ele>288</ele>
        <time>2018-01-31T10:24:23Z</time>
      </trkpt>
      <trkpt lat="45.96066" lon="4.87588">
        <ele>288</ele>
        <time>2018-01-31T10:24:24Z</time>
      </trkpt>
      <trkpt lat="45.9607" lon="4.87582">
        <ele>288</ele>
        <time>2018-01-31T10:24:25Z</time>
      </trkpt>
      <trkpt lat="45.96074" lon="4.87578">
        <ele>288</ele>
        <time>2018-01-31T10:24:26Z</time>
      </trkpt>
      <trkpt lat="45.96078" lon="4.87573">
        <ele>288</ele>
        <time>2018-01-31T10:24:27Z</time>
      </trkpt>
      <trkpt lat="45.96082" lon="4.8757">
        <ele>288</ele>
        <time>2018-01-31T10:24:28Z</time>
      </trkpt>
      <trkpt lat="45.96087" lon="4.87565">
        <ele>287</ele>
        <time>2018-01-31T10:24:29Z</time>
      </trkpt>
      <trkpt lat="45.96092" lon="4.87559">
        <ele>287</ele>
        <time>2018-01-31T10:24:30Z</time>
      </trkpt>
      <trkpt lat="45.96097" lon="4.87553">
        <ele>287</ele>
        <time>2018-01-31T10:24:31Z</time>
      </trkpt>
      <trkpt lat="45.96101" lon="4.87547">
        <ele>287</ele>
        <time>2018-01-31T10:24:32Z</time>
      </trkpt>
      <trkpt lat="45.96106" lon="4.87543">
        <ele>287</ele>
        <time>2018-01-31T10:24:33Z</time>
      </trkpt>
      <trkpt lat="45.96111" lon="4.87538">
        <ele>287</ele>
        <time>2018-01-31T10:24:34Z</time>
      </trkpt>
      <trkpt lat="45.96115" lon="4.87533">
        <ele>287</ele>
        <time>2018-01-31T10:24:35Z</time>
      </trkpt>
      <trkpt lat="45.96119" lon="4.87528">
        <ele>286</ele>
        <time>2018-01-31T10:24:36Z</time>
      </trkpt>
      <trkpt lat="45.96125" lon="4.87522">
        <ele>286</ele>
        <time>2018-01-31T10:24:37Z</time>
      </trkpt>
      <trkpt lat="45.96129" lon="4.87518">
        <ele>286</ele>
        <time>2018-01-31T10:24:38Z</time>
      </trkpt>
      <trkpt lat="45.96134" lon="4.87511">
        <ele>286</ele>
        <time>2018-01-31T10:24:39Z</time>
      </trkpt>
      <trkpt lat="45.96139" lon="4.87505">
        <ele>286</ele>
        <time>2018-01-31T10:24:40Z</time>
      </trkpt>
      <trkpt lat="45.96144" lon="4.87499">
        <ele>285</ele>
        <time>2018-01-31T10:24:41Z</time>
      </trkpt>
      <trkpt lat="45.9615" lon="4.87491">
        <ele>285</ele>
        <time>2018-01-31T10:24:42Z</time>
      </trkpt>
      <trkpt lat="45.96155" lon="4.87485">
        <ele>285</ele>
        <time>2018-01-31T10:24:43Z</time>
      </trkpt>
      <trkpt lat="45.96161" lon="4.87479">
        <ele>285</ele>
        <time>2018-01-31T10:24:44Z</time>
      </trkpt>
      <trkpt lat="45.96166" lon="4.87472">
        <ele>285</ele>
        <time>2018-01-31T10:24:45Z</time>
      </trkpt>
      <trkpt lat="45.96172" lon="4.87466">
        <ele>284</ele>
        <time>2018-01-31T10:24:46Z</time>
      </trkpt>
      <trkpt lat="45.96178" lon="4.87458">
        <ele>284</ele>
        <time>2018-01-31T10:24:47Z</time>
      </trkpt>
      <trkpt lat="45.96183" lon="4.87452">
        <ele>284</ele>
        <time>2018-01-31T10:24:48Z</time>
      </trkpt>
      <trkpt lat="45.96189" lon="4.87446">
        <ele>284</ele>
        <time>2018-01-31T10:24:49Z</time>
      </trkpt>
      <trkpt lat="45.96195" lon="4.87438">
        <ele>284</ele>
        <time>2018-01-31T10:24:50Z</time>
      </trkpt>
      <trkpt lat="45.96201" lon="4.87431">
        <ele>284</ele>
        <time>2018-01-31T10:24:51Z</time>
      </trkpt>
      <trkpt lat="45.96206" lon="4.87425">
        <ele>284</ele>
        <time>2018-01-31T10:24:52Z</time>
      </trkpt>
      <trkpt lat="45.96212" lon="4.87419">
        <ele>284</ele>
        <time>2018-01-31T10:24:53Z</time>
      </trkpt>
      <trkpt lat="45.96218" lon="4.87413">
        <ele>283</ele>
        <time>2018-01-31T10:24:54Z</time>
      </trkpt>
      <trkpt lat="45.96223" lon="4.87406">
        <ele>283</ele>
        <time>2018-01-31T10:24:55Z</time>
      </trkpt>
      <trkpt lat="45.96229" lon="4.87399">
        <ele>283</ele>
        <time>2018-01-31T10:24:56Z</time>
      </trkpt>
      <trkpt lat="45.96234" lon="4.87393">
        <ele>283</ele>
        <time>2018-01-31T10:24:57Z</time>
      </trkpt>
      <trkpt lat="45.9624" lon="4.87387">
        <ele>283</ele>
        <time>2018-01-31T10:24:58Z</time>
      </trkpt>
      <trkpt lat="45.96245" lon="4.87381">
        <ele>283</ele>
        <time>2018-01-31T10:24:59Z</time>
      </trkpt>
      <trkpt lat="45.9625" lon="4.87375">
        <ele>283</ele>
        <time>2018-01-31T10:25:00Z</time>
      </trkpt>
      <trkpt lat="45.96255" lon="4.87369">
        <ele>283</ele>
        <time>2018-01-31T10:25:01Z</time>
      </trkpt>
      <trkpt lat="45.96261" lon="4.87362">
        <ele>283</ele>
        <time>2018-01-31T10:25:02Z</time>
      </trkpt>
      <trkpt lat="45.96265" lon="4.87357">
        <ele>283</ele>
        <time>2018-01-31T10:25:03Z</time>
      </trkpt>
      <trkpt lat="45.9627" lon="4.87351">
        <ele>283</ele>
        <time>2018-01-31T10:25:04Z</time>
      </trkpt>
      <trkpt lat="45.96276" lon="4.87344">
        <ele>284</ele>
        <time>2018-01-31T10:25:05Z</time>
      </trkpt>
      <trkpt lat="45.9628" lon="4.87338">
        <ele>284</ele>
        <time>2018-01-31T10:25:06Z</time>
      </trkpt>
      <trkpt lat="45.96285" lon="4.87333">
        <ele>283</ele>
        <time>2018-01-31T10:25:07Z</time>
      </trkpt>
      <trkpt lat="45.96289" lon="4.87327">
        <ele>283</ele>
        <time>2018-01-31T10:25:08Z</time>
      </trkpt>
      <trkpt lat="45.96294" lon="4.87321">
        <ele>283</ele>
        <time>2018-01-31T10:25:09Z</time>
      </trkpt>
      <trkpt lat="45.96299" lon="4.87316">
        <ele>283</ele>
        <time>2018-01-31T10:25:10Z</time>
      </trkpt>
      <trkpt lat="45.96303" lon="4.87311">
        <ele>283</ele>
        <time>2018-01-31T10:25:11Z</time>
      </trkpt>
      <trkpt lat="45.96308" lon="4.87303">
        <ele>283</ele>
        <time>2018-01-31T10:25:12Z</time>
      </trkpt>
      <trkpt lat="45.96312" lon="4.87296">
        <ele>283</ele>
        <time>2018-01-31T10:25:13Z</time>
      </trkpt>
      <trkpt lat="45.96318" lon="4.8729">
        <ele>283</ele>
        <time>2018-01-31T10:25:14Z</time>
      </trkpt>
      <trkpt lat="45.96322" lon="4.87284">
        <ele>283</ele>
        <time>2018-01-31T10:25:15Z</time>
      </trkpt>
      <trkpt lat="45.96327" lon="4.87277">
        <ele>283</ele>
        <time>2018-01-31T10:25:16Z</time>
      </trkpt>
      <trkpt lat="45.96332" lon="4.87269">
        <ele>283</ele>
        <time>2018-01-31T10:25:17Z</time>
      </trkpt>
      <trkpt lat="45.96337" lon="4.87263">
        <ele>283</ele>
        <time>2018-01-31T10:25:18Z</time>
      </trkpt>
      <trkpt lat="45.96343" lon="4.87256">
        <ele>283</ele>
        <time>2018-01-31T10:25:19Z</time>
      </trkpt>
      <trkpt lat="45.96347" lon="4.87249">
        <ele>283</ele>
        <time>2018-01-31T10:25:20Z</time>
      </trkpt>
      <trkpt lat="45.96352" lon="4.87243">
        <ele>282</ele>
        <time>2018-01-31T10:25:21Z</time>
      </trkpt>
      <trkpt lat="45.96358" lon="4.87237">
        <ele>282</ele>
        <time>2018-01-31T10:25:22Z</time>
      </trkpt>
      <trkpt lat="45.96363" lon="4.87231">
        <ele>282</ele>
        <time>2018-01-31T10:25:23Z</time>
      </trkpt>
      <trkpt lat="45.96369" lon="4.87223">
        <ele>282</ele>
        <time>2018-01-31T10:25:24Z</time>
      </trkpt>
      <trkpt lat="45.96374" lon="4.87216">
        <ele>282</ele>
        <time>2018-01-31T10:25:25Z</time>
      </trkpt>
      <trkpt lat="45.96379" lon="4.8721">
        <ele>282</ele>
        <time>2018-01-31T10:25:26Z</time>
      </trkpt>
      <trkpt lat="45.96384" lon="4.87202">
        <ele>282</ele>
        <time>2018-01-31T10:25:27Z</time>
      </trkpt>
      <trkpt lat="45.96389" lon="4.87195">
        <ele>282</ele>
        <time>2018-01-31T10:25:28Z</time>
      </trkpt>
      <trkpt lat="45.96393" lon="4.87189">
        <ele>282</ele>
        <time>2018-01-31T10:25:29Z</time>
      </trkpt>
      <trkpt lat="45.96398" lon="4.87183">
        <ele>282</ele>
        <time>2018-01-31T10:25:30Z</time>
      </trkpt>
      <trkpt lat="45.96403" lon="4.87176">
        <ele>281</ele>
        <time>2018-01-31T10:25:31Z</time>
      </trkpt>
      <trkpt lat="45.96408" lon="4.8717">
        <ele>281</ele>
        <time>2018-01-31T10:25:32Z</time>
      </trkpt>
      <trkpt lat="45.96413" lon="4.87164">
        <ele>281</ele>
        <time>2018-01-31T10:25:33Z</time>
      </trkpt>
      <trkpt lat="45.96419" lon="4.87157">
        <ele>281</ele>
        <time>2018-01-31T10:25:34Z</time>
      </trkpt>
      <trkpt lat="45.96423" lon="4.8715">
        <ele>281</ele>
        <time>2018-01-31T10:25:35Z</time>
      </trkpt>
      <trkpt lat="45.96428" lon="4.87144">
        <ele>281</ele>
        <time>2018-01-31T10:25:36Z</time>
      </trkpt>
      <trkpt lat="45.96433" lon="4.87138">
        <ele>281</ele>
        <time>2018-01-31T10:25:37Z</time>
      </trkpt>
      <trkpt lat="45.96438" lon="4.87132">
        <ele>281</ele>
        <time>2018-01-31T10:25:38Z</time>
      </trkpt>
      <trkpt lat="45.96442" lon="4.87126">
        <ele>281</ele>
        <time>2018-01-31T10:25:39Z</time>
      </trkpt>
      <trkpt lat="45.96446" lon="4.87121">
        <ele>281</ele>
        <time>2018-01-31T10:25:40Z</time>
      </trkpt>
      <trkpt lat="45.9645" lon="4.87115">
        <ele>281</ele>
        <time>2018-01-31T10:25:41Z</time>
      </trkpt>
      <trkpt lat="45.96454" lon="4.87108">
        <ele>281</ele>
        <time>2018-01-31T10:25:42Z</time>
      </trkpt>
      <trkpt lat="45.96458" lon="4.87102">
        <ele>281</ele>
        <time>2018-01-31T10:25:43Z</time>
      </trkpt>
      <trkpt lat="45.96462" lon="4.87097">
        <ele>282</ele>
        <time>2018-01-31T10:25:44Z</time>
      </trkpt>
      <trkpt lat="45.96466" lon="4.87093">
        <ele>282</ele>
        <time>2018-01-31T10:25:45Z</time>
      </trkpt>
      <trkpt lat="45.96472" lon="4.87087">
        <ele>282</ele>
        <time>2018-01-31T10:25:46Z</time>
      </trkpt>
      <trkpt lat="45.96479" lon="4.87079">
        <ele>282</ele>
        <time>2018-01-31T10:25:48Z</time>
      </trkpt>
      <trkpt lat="45.96482" lon="4.87073">
        <ele>282</ele>
        <time>2018-01-31T10:25:49Z</time>
      </trkpt>
      <trkpt lat="45.96486" lon="4.87068">
        <ele>282</ele>
        <time>2018-01-31T10:25:50Z</time>
      </trkpt>
      <trkpt lat="45.96489" lon="4.87063">
        <ele>282</ele>
        <time>2018-01-31T10:25:51Z</time>
      </trkpt>
      <trkpt lat="45.96495" lon="4.87054">
        <ele>281</ele>
        <time>2018-01-31T10:25:53Z</time>
      </trkpt>
      <trkpt lat="45.96498" lon="4.8705">
        <ele>281</ele>
        <time>2018-01-31T10:25:54Z</time>
      </trkpt>
      <trkpt lat="45.96505" lon="4.87047">
        <ele>282</ele>
        <time>2018-01-31T10:25:56Z</time>
      </trkpt>
      <trkpt lat="45.9651" lon="4.87047">
        <ele>283</ele>
        <time>2018-01-31T10:25:57Z</time>
      </trkpt>
      <trkpt lat="45.96513" lon="4.87054">
        <ele>283</ele>
        <time>2018-01-31T10:25:59Z</time>
      </trkpt>
      <trkpt lat="45.96516" lon="4.87058">
        <ele>283</ele>
        <time>2018-01-31T10:26:00Z</time>
      </trkpt>
      <trkpt lat="45.9652" lon="4.87064">
        <ele>283</ele>
        <time>2018-01-31T10:26:02Z</time>
      </trkpt>
      <trkpt lat="45.96523" lon="4.87066">
        <ele>283</ele>
        <time>2018-01-31T10:26:03Z</time>
      </trkpt>
      <trkpt lat="45.96531" lon="4.87066">
        <ele>283</ele>
        <time>2018-01-31T10:26:06Z</time>
      </trkpt>
      <trkpt lat="45.96533" lon="4.87064">
        <ele>283</ele>
        <time>2018-01-31T10:26:07Z</time>
      </trkpt>
      <trkpt lat="45.96542" lon="4.87064">
        <ele>283</ele>
        <time>2018-01-31T10:26:13Z</time>
      </trkpt>
      <trkpt lat="45.96543" lon="4.87066">
        <ele>283</ele>
        <time>2018-01-31T10:26:14Z</time>
      </trkpt>
      <trkpt lat="45.9655" lon="4.87068">
        <ele>283</ele>
        <time>2018-01-31T10:26:18Z</time>
      </trkpt>
      <trkpt lat="45.96552" lon="4.87068">
        <ele>283</ele>
        <time>2018-01-31T10:26:19Z</time>
      </trkpt>
      <trkpt lat="45.96559" lon="4.87066">
        <ele>283</ele>
        <time>2018-01-31T10:26:23Z</time>
      </trkpt>
      <trkpt lat="45.96561" lon="4.87064">
        <ele>283</ele>
        <time>2018-01-31T10:26:24Z</time>
      </trkpt>
      <trkpt lat="45.96561" lon="4.87053">
        <ele>283</ele>
        <time>2018-01-31T10:26:27Z</time>
      </trkpt>
      <trkpt lat="45.9656" lon="4.8705">
        <ele>283</ele>
        <time>2018-01-31T10:26:28Z</time>
      </trkpt>
      <trkpt lat="45.96558" lon="4.87038">
        <ele>283</ele>
        <time>2018-01-31T10:26:31Z</time>
      </trkpt>
      <trkpt lat="45.96557" lon="4.87035">
        <ele>283</ele>
        <time>2018-01-31T10:26:32Z</time>
      </trkpt>
      <trkpt lat="45.96552" lon="4.87026">
        <ele>283</ele>
        <time>2018-01-31T10:26:35Z</time>
      </trkpt>
      <trkpt lat="45.96551" lon="4.87023">
        <ele>283</ele>
        <time>2018-01-31T10:26:36Z</time>
      </trkpt>
      <trkpt lat="45.96548" lon="4.87015">
        <ele>283</ele>
        <time>2018-01-31T10:35:59Z</time>
      </trkpt>
      <trkpt lat="45.96547" lon="4.87011">
        <ele>283</ele>
        <time>2018-01-31T10:36:00Z</time>
      </trkpt>
      <trkpt lat="45.96543" lon="4.87">
        <ele>283</ele>
        <time>2018-01-31T10:36:03Z</time>
      </trkpt>
      <trkpt lat="45.96543" lon="4.86997">
        <ele>283</ele>
        <time>2018-01-31T10:36:04Z</time>
      </trkpt>
      <trkpt lat="45.96548" lon="4.8699">
        <ele>283</ele>
        <time>2018-01-31T10:36:07Z</time>
      </trkpt>
      <trkpt lat="45.9655" lon="4.86989">
        <ele>283</ele>
        <time>2018-01-31T10:36:08Z</time>
      </trkpt>
      <trkpt lat="45.96558" lon="4.86985">
        <ele>284</ele>
        <time>2018-01-31T10:36:11Z</time>
      </trkpt>
      <trkpt lat="45.9656" lon="4.86982">
        <ele>284</ele>
        <time>2018-01-31T10:36:12Z</time>
      </trkpt>
      <trkpt lat="45.96564" lon="4.86975">
        <ele>284</ele>
        <time>2018-01-31T10:36:14Z</time>
      </trkpt>
      <trkpt lat="45.96566" lon="4.86972">
        <ele>284</ele>
        <time>2018-01-31T10:36:15Z</time>
      </trkpt>
      <trkpt lat="45.9657" lon="4.86964">
        <ele>284</ele>
        <time>2018-01-31T10:36:17Z</time>
      </trkpt>
      <trkpt lat="45.96572" lon="4.8696">
        <ele>284</ele>
        <time>2018-01-31T10:36:18Z</time>
      </trkpt>
      <trkpt lat="45.96576" lon="4.86952">
        <ele>284</ele>
        <time>2018-01-31T10:36:20Z</time>
      </trkpt>
      <trkpt lat="45.96578" lon="4.86948">
        <ele>284</ele>
        <time>2018-01-31T10:36:21Z</time>
      </trkpt>
      <trkpt lat="45.96583" lon="4.86941">
        <ele>284</ele>
        <time>2018-01-31T10:36:23Z</time>
      </trkpt>
      <trkpt lat="45.96585" lon="4.86937">
        <ele>286</ele>
        <time>2018-01-31T10:36:24Z</time>
      </trkpt>
      <trkpt lat="45.96589" lon="4.8693">
        <ele>286</ele>
        <time>2018-01-31T10:36:26Z</time>
      </trkpt>
      <trkpt lat="45.96591" lon="4.86926">
        <ele>285</ele>
        <time>2018-01-31T10:36:27Z</time>
      </trkpt>
      <trkpt lat="45.96596" lon="4.86918">
        <ele>286</ele>
        <time>2018-01-31T10:36:29Z</time>
      </trkpt>
      <trkpt lat="45.96598" lon="4.86914">
        <ele>286</ele>
        <time>2018-01-31T10:36:30Z</time>
      </trkpt>
      <trkpt lat="45.96603" lon="4.86906">
        <ele>286</ele>
        <time>2018-01-31T10:36:32Z</time>
      </trkpt>
      <trkpt lat="45.96606" lon="4.86903">
        <ele>286</ele>
        <time>2018-01-31T10:36:33Z</time>
      </trkpt>
      <trkpt lat="45.9661" lon="4.86896">
        <ele>287</ele>
        <time>2018-01-31T10:36:36Z</time>
      </trkpt>
      <trkpt lat="45.96613" lon="4.86893">
        <ele>287</ele>
        <time>2018-01-31T10:36:37Z</time>
      </trkpt>
      <trkpt lat="45.96618" lon="4.86883">
        <ele>287</ele>
        <time>2018-01-31T10:36:40Z</time>
      </trkpt>
      <trkpt lat="45.96621" lon="4.86879">
        <ele>287</ele>
        <time>2018-01-31T10:36:41Z</time>
      </trkpt>
      <trkpt lat="45.96626" lon="4.86869">
        <ele>287</ele>
        <time>2018-01-31T10:36:43Z</time>
      </trkpt>
      <trkpt lat="45.96629" lon="4.86864">
        <ele>287</ele>
        <time>2018-01-31T10:36:44Z</time>
      </trkpt>
      <trkpt lat="45.96634" lon="4.86856">
        <ele>287</ele>
        <time>2018-01-31T10:36:46Z</time>
      </trkpt>
      <trkpt lat="45.96637" lon="4.86853">
        <ele>287</ele>
        <time>2018-01-31T10:36:47Z</time>
      </trkpt>
      <trkpt lat="45.96639" lon="4.86849">
        <ele>287</ele>
        <time>2018-01-31T10:36:48Z</time>
      </trkpt>
      <trkpt lat="45.96644" lon="4.86841">
        <ele>287</ele>
        <time>2018-01-31T10:36:49Z</time>
      </trkpt>
      <trkpt lat="45.96648" lon="4.86835">
        <ele>288</ele>
        <time>2018-01-31T10:36:50Z</time>
      </trkpt>
      <trkpt lat="45.96651" lon="4.8683">
        <ele>288</ele>
        <time>2018-01-31T10:36:51Z</time>
      </trkpt>
      <trkpt lat="45.96657" lon="4.86822">
        <ele>288</ele>
        <time>2018-01-31T10:36:53Z</time>
      </trkpt>
      <trkpt lat="45.9666" lon="4.86818">
        <ele>288</ele>
        <time>2018-01-31T10:36:54Z</time>
      </trkpt>
      <trkpt lat="45.96666" lon="4.86808">
        <ele>288</ele>
        <time>2018-01-31T10:36:56Z</time>
      </trkpt>
      <trkpt lat="45.96669" lon="4.86803">
        <ele>289</ele>
        <time>2018-01-31T10:36:57Z</time>
      </trkpt>
      <trkpt lat="45.96674" lon="4.86793">
        <ele>289</ele>
        <time>2018-01-31T10:36:59Z</time>
      </trkpt>
      <trkpt lat="45.96678" lon="4.86787">
        <ele>289</ele>
        <time>2018-01-31T10:37:00Z</time>
      </trkpt>
      <trkpt lat="45.96682" lon="4.86778">
        <ele>289</ele>
        <time>2018-01-31T10:37:02Z</time>
      </trkpt>
      <trkpt lat="45.96685" lon="4.86773">
        <ele>289</ele>
        <time>2018-01-31T10:37:03Z</time>
      </trkpt>
      <trkpt lat="45.96689" lon="4.86767">
        <ele>289</ele>
        <time>2018-01-31T10:37:04Z</time>
      </trkpt>
      <trkpt lat="45.96691" lon="4.86762">
        <ele>289</ele>
        <time>2018-01-31T10:37:05Z</time>
      </trkpt>
      <trkpt lat="45.96693" lon="4.86757">
        <ele>289</ele>
        <time>2018-01-31T10:37:06Z</time>
      </trkpt>
      <trkpt lat="45.96697" lon="4.86751">
        <ele>289</ele>
        <time>2018-01-31T10:37:07Z</time>
      </trkpt>
      <trkpt lat="45.967" lon="4.86747">
        <ele>289</ele>
        <time>2018-01-31T10:37:08Z</time>
      </trkpt>
      <trkpt lat="45.96704" lon="4.86742">
        <ele>289</ele>
        <time>2018-01-31T10:37:09Z</time>
      </trkpt>
      <trkpt lat="45.96707" lon="4.86737">
        <ele>289</ele>
        <time>2018-01-31T10:37:10Z</time>
      </trkpt>
      <trkpt lat="45.9671" lon="4.86731">
        <ele>289</ele>
        <time>2018-01-31T10:37:11Z</time>
      </trkpt>
      <trkpt lat="45.96714" lon="4.86721">
        <ele>289</ele>
        <time>2018-01-31T10:37:13Z</time>
      </trkpt>
      <trkpt lat="45.96718" lon="4.86716">
        <ele>289</ele>
        <time>2018-01-31T10:37:14Z</time>
      </trkpt>
      <trkpt lat="45.96721" lon="4.8671">
        <ele>289</ele>
        <time>2018-01-31T10:37:15Z</time>
      </trkpt>
      <trkpt lat="45.96723" lon="4.86703">
        <ele>289</ele>
        <time>2018-01-31T10:37:16Z</time>
      </trkpt>
      <trkpt lat="45.96726" lon="4.86699">
        <ele>289</ele>
        <time>2018-01-31T10:37:17Z</time>
      </trkpt>
      <trkpt lat="45.96729" lon="4.86692">
        <ele>289</ele>
        <time>2018-01-31T10:37:18Z</time>
      </trkpt>
      <trkpt lat="45.96735" lon="4.86684">
        <ele>290</ele>
        <time>2018-01-31T10:37:20Z</time>
      </trkpt>
      <trkpt lat="45.96738" lon="4.86679">
        <ele>290</ele>
        <time>2018-01-31T10:37:21Z</time>
      </trkpt>
      <trkpt lat="45.96741" lon="4.86674">
        <ele>290</ele>
        <time>2018-01-31T10:37:22Z</time>
      </trkpt>
      <trkpt lat="45.96744" lon="4.86669">
        <ele>290</ele>
        <time>2018-01-31T10:37:23Z</time>
      </trkpt>
      <trkpt lat="45.9675" lon="4.8666">
        <ele>290</ele>
        <time>2018-01-31T10:37:25Z</time>
      </trkpt>
      <trkpt lat="45.96752" lon="4.86655">
        <ele>290</ele>
        <time>2018-01-31T10:37:26Z</time>
      </trkpt>
      <trkpt lat="45.96758" lon="4.86645">
        <ele>290</ele>
        <time>2018-01-31T10:37:28Z</time>
      </trkpt>
      <trkpt lat="45.9676" lon="4.86641">
        <ele>290</ele>
        <time>2018-01-31T10:37:29Z</time>
      </trkpt>
      <trkpt lat="45.96766" lon="4.86631">
        <ele>289</ele>
        <time>2018-01-31T10:37:31Z</time>
      </trkpt>
      <trkpt lat="45.9677" lon="4.86625">
        <ele>289</ele>
        <time>2018-01-31T10:37:32Z</time>
      </trkpt>
      <trkpt lat="45.96773" lon="4.8662">
        <ele>289</ele>
        <time>2018-01-31T10:37:33Z</time>
      </trkpt>
      <trkpt lat="45.96777" lon="4.86614">
        <ele>289</ele>
        <time>2018-01-31T10:37:34Z</time>
      </trkpt>
      <trkpt lat="45.9678" lon="4.8661">
        <ele>289</ele>
        <time>2018-01-31T10:37:35Z</time>
      </trkpt>
      <trkpt lat="45.96783" lon="4.86604">
        <ele>289</ele>
        <time>2018-01-31T10:37:36Z</time>
      </trkpt>
      <trkpt lat="45.96787" lon="4.86599">
        <ele>289</ele>
        <time>2018-01-31T10:37:37Z</time>
      </trkpt>
      <trkpt lat="45.9679" lon="4.86593">
        <ele>289</ele>
        <time>2018-01-31T10:37:38Z</time>
      </trkpt>
      <trkpt lat="45.96793" lon="4.86587">
        <ele>289</ele>
        <time>2018-01-31T10:37:39Z</time>
      </trkpt>
      <trkpt lat="45.96796" lon="4.86581">
        <ele>290</ele>
        <time>2018-01-31T10:37:40Z</time>
      </trkpt>
      <trkpt lat="45.968" lon="4.86576">
        <ele>290</ele>
        <time>2018-01-31T10:37:41Z</time>
      </trkpt>
      <trkpt lat="45.96803" lon="4.86571">
        <ele>290</ele>
        <time>2018-01-31T10:37:42Z</time>
      </trkpt>
      <trkpt lat="45.96806" lon="4.86565">
        <ele>290</ele>
        <time>2018-01-31T10:37:43Z</time>
      </trkpt>
      <trkpt lat="45.96809" lon="4.86561">
        <ele>290</ele>
        <time>2018-01-31T10:37:44Z</time>
      </trkpt>
      <trkpt lat="45.96813" lon="4.86555">
        <ele>290</ele>
        <time>2018-01-31T10:37:45Z</time>
      </trkpt>
      <trkpt lat="45.96817" lon="4.86551">
        <ele>290</ele>
        <time>2018-01-31T10:37:46Z</time>
      </trkpt>
      <trkpt lat="45.9682" lon="4.86545">
        <ele>290</ele>
        <time>2018-01-31T10:37:47Z</time>
      </trkpt>
      <trkpt lat="45.96823" lon="4.8654">
        <ele>290</ele>
        <time>2018-01-31T10:37:48Z</time>
      </trkpt>
      <trkpt lat="45.96826" lon="4.86535">
        <ele>289</ele>
        <time>2018-01-31T10:37:49Z</time>
      </trkpt>
      <trkpt lat="45.96829" lon="4.8653">
        <ele>289</ele>
        <time>2018-01-31T10:37:50Z</time>
      </trkpt>
      <trkpt lat="45.96832" lon="4.86524">
        <ele>289</ele>
        <time>2018-01-31T10:37:51Z</time>
      </trkpt>
      <trkpt lat="45.96834" lon="4.86519">
        <ele>288</ele>
        <time>2018-01-31T10:37:52Z</time>
      </trkpt>
      <trkpt lat="45.96839" lon="4.86509">
        <ele>288</ele>
        <time>2018-01-31T10:37:54Z</time>
      </trkpt>
      <trkpt lat="45.96842" lon="4.86503">
        <ele>289</ele>
        <time>2018-01-31T10:37:55Z</time>
      </trkpt>
      <trkpt lat="45.96844" lon="4.86497">
        <ele>289</ele>
        <time>2018-01-31T10:37:56Z</time>
      </trkpt>
      <trkpt lat="45.96847" lon="4.86492">
        <ele>289</ele>
        <time>2018-01-31T10:37:57Z</time>
      </trkpt>
      <trkpt lat="45.96849" lon="4.86485">
        <ele>289</ele>
        <time>2018-01-31T10:37:58Z</time>
      </trkpt>
      <trkpt lat="45.96851" lon="4.86479">
        <ele>289</ele>
        <time>2018-01-31T10:37:59Z</time>
      </trkpt>
      <trkpt lat="45.96853" lon="4.86472">
        <ele>289</ele>
        <time>2018-01-31T10:38:00Z</time>
      </trkpt>
      <trkpt lat="45.96855" lon="4.86466">
        <ele>289</ele>
        <time>2018-01-31T10:38:01Z</time>
      </trkpt>
      <trkpt lat="45.96858" lon="4.86457">
        <ele>289</ele>
        <time>2018-01-31T10:38:02Z</time>
      </trkpt>
      <trkpt lat="45.96859" lon="4.8645">
        <ele>289</ele>
        <time>2018-01-31T10:38:03Z</time>
      </trkpt>
      <trkpt lat="45.9686" lon="4.86443">
        <ele>289</ele>
        <time>2018-01-31T10:38:04Z</time>
      </trkpt>
      <trkpt lat="45.96861" lon="4.86437">
        <ele>290</ele>
        <time>2018-01-31T10:38:05Z</time>
      </trkpt>
      <trkpt lat="45.96862" lon="4.8643">
        <ele>290</ele>
        <time>2018-01-31T10:38:06Z</time>
      </trkpt>
      <trkpt lat="45.96863" lon="4.86422">
        <ele>290</ele>
        <time>2018-01-31T10:38:07Z</time>
      </trkpt>
      <trkpt lat="45.96864" lon="4.86416">
        <ele>290</ele>
        <time>2018-01-31T10:38:08Z</time>
      </trkpt>
      <trkpt lat="45.96865" lon="4.86409">
        <ele>290</ele>
        <time>2018-01-31T10:38:09Z</time>
      </trkpt>
      <trkpt lat="45.96866" lon="4.86402">
        <ele>290</ele>
        <time>2018-01-31T10:38:10Z</time>
      </trkpt>
      <trkpt lat="45.96867" lon="4.86395">
        <ele>290</ele>
        <time>2018-01-31T10:38:11Z</time>
      </trkpt>
      <trkpt lat="45.96868" lon="4.86389">
        <ele>290</ele>
        <time>2018-01-31T10:38:12Z</time>
      </trkpt>
      <trkpt lat="45.96869" lon="4.86382">
        <ele>290</ele>
        <time>2018-01-31T10:38:13Z</time>
      </trkpt>
      <trkpt lat="45.96869" lon="4.86376">
        <ele>290</ele>
        <time>2018-01-31T10:38:14Z</time>
      </trkpt>
      <trkpt lat="45.9687" lon="4.86368">
        <ele>290</ele>
        <time>2018-01-31T10:38:15Z</time>
      </trkpt>
      <trkpt lat="45.96872" lon="4.86356">
        <ele>290</ele>
        <time>2018-01-31T10:38:17Z</time>
      </trkpt>
      <trkpt lat="45.96872" lon="4.8635">
        <ele>290</ele>
        <time>2018-01-31T10:38:18Z</time>
      </trkpt>
      <trkpt lat="45.96874" lon="4.86337">
        <ele>290</ele>
        <time>2018-01-31T10:38:20Z</time>
      </trkpt>
      <trkpt lat="45.96875" lon="4.86332">
        <ele>289</ele>
        <time>2018-01-31T10:38:21Z</time>
      </trkpt>
      <trkpt lat="45.96876" lon="4.8632">
        <ele>289</ele>
        <time>2018-01-31T10:38:23Z</time>
      </trkpt>
      <trkpt lat="45.96877" lon="4.86314">
        <ele>289</ele>
        <time>2018-01-31T10:38:24Z</time>
      </trkpt>
      <trkpt lat="45.96878" lon="4.86301">
        <ele>289</ele>
        <time>2018-01-31T10:38:26Z</time>
      </trkpt>
      <trkpt lat="45.96879" lon="4.86295">
        <ele>289</ele>
        <time>2018-01-31T10:38:27Z</time>
      </trkpt>
      <trkpt lat="45.96881" lon="4.86283">
        <ele>289</ele>
        <time>2018-01-31T10:38:29Z</time>
      </trkpt>
      <trkpt lat="45.96882" lon="4.86277">
        <ele>289</ele>
        <time>2018-01-31T10:38:30Z</time>
      </trkpt>
      <trkpt lat="45.96882" lon="4.86271">
        <ele>288</ele>
        <time>2018-01-31T10:38:31Z</time>
      </trkpt>
      <trkpt lat="45.96884" lon="4.86264">
        <ele>288</ele>
        <time>2018-01-31T10:38:32Z</time>
      </trkpt>
      <trkpt lat="45.96885" lon="4.86257">
        <ele>288</ele>
        <time>2018-01-31T10:38:33Z</time>
      </trkpt>
      <trkpt lat="45.96887" lon="4.8625">
        <ele>288</ele>
        <time>2018-01-31T10:38:34Z</time>
      </trkpt>
      <trkpt lat="45.96888" lon="4.86243">
        <ele>288</ele>
        <time>2018-01-31T10:38:35Z</time>
      </trkpt>
      <trkpt lat="45.96888" lon="4.86236">
        <ele>288</ele>
        <time>2018-01-31T10:38:36Z</time>
      </trkpt>
      <trkpt lat="45.96889" lon="4.86229">
        <ele>288</ele>
        <time>2018-01-31T10:38:37Z</time>
      </trkpt>
      <trkpt lat="45.96891" lon="4.86222">
        <ele>289</ele>
        <time>2018-01-31T10:38:38Z</time>
      </trkpt>
      <trkpt lat="45.96892" lon="4.86215">
        <ele>289</ele>
        <time>2018-01-31T10:38:39Z</time>
      </trkpt>
      <trkpt lat="45.96893" lon="4.86208">
        <ele>289</ele>
        <time>2018-01-31T10:38:40Z</time>
      </trkpt>
      <trkpt lat="45.96893" lon="4.86202">
        <ele>289</ele>
        <time>2018-01-31T10:38:41Z</time>
      </trkpt>
      <trkpt lat="45.96893" lon="4.86193">
        <ele>289</ele>
        <time>2018-01-31T10:38:42Z</time>
      </trkpt>
      <trkpt lat="45.96892" lon="4.86185">
        <ele>289</ele>
        <time>2018-01-31T10:38:43Z</time>
      </trkpt>
      <trkpt lat="45.96893" lon="4.86177">
        <ele>289</ele>
        <time>2018-01-31T10:38:44Z</time>
      </trkpt>
      <trkpt lat="45.96894" lon="4.86169">
        <ele>288</ele>
        <time>2018-01-31T10:38:45Z</time>
      </trkpt>
      <trkpt lat="45.96894" lon="4.86161">
        <ele>289</ele>
        <time>2018-01-31T10:38:46Z</time>
      </trkpt>
      <trkpt lat="45.96895" lon="4.86153">
        <ele>289</ele>
        <time>2018-01-31T10:38:47Z</time>
      </trkpt>
      <trkpt lat="45.96896" lon="4.86146">
        <ele>289</ele>
        <time>2018-01-31T10:38:48Z</time>
      </trkpt>
      <trkpt lat="45.96898" lon="4.86138">
        <ele>289</ele>
        <time>2018-01-31T10:38:49Z</time>
      </trkpt>
      <trkpt lat="45.96898" lon="4.86129">
        <ele>289</ele>
        <time>2018-01-31T10:38:50Z</time>
      </trkpt>
      <trkpt lat="45.96899" lon="4.8612">
        <ele>289</ele>
        <time>2018-01-31T10:38:51Z</time>
      </trkpt>
      <trkpt lat="45.96899" lon="4.86111">
        <ele>289</ele>
        <time>2018-01-31T10:38:52Z</time>
      </trkpt>
      <trkpt lat="45.969" lon="4.86103">
        <ele>289</ele>
        <time>2018-01-31T10:38:53Z</time>
      </trkpt>
      <trkpt lat="45.96901" lon="4.86094">
        <ele>288</ele>
        <time>2018-01-31T10:38:54Z</time>
      </trkpt>
      <trkpt lat="45.96901" lon="4.86085">
        <ele>288</ele>
        <time>2018-01-31T10:38:55Z</time>
      </trkpt>
      <trkpt lat="45.96902" lon="4.86076">
        <ele>288</ele>
        <time>2018-01-31T10:38:56Z</time>
      </trkpt>
      <trkpt lat="45.96904" lon="4.86067">
        <ele>288</ele>
        <time>2018-01-31T10:38:57Z</time>
      </trkpt>
      <trkpt lat="45.96904" lon="4.86058">
        <ele>288</ele>
        <time>2018-01-31T10:38:58Z</time>
      </trkpt>
      <trkpt lat="45.96904" lon="4.86049">
        <ele>289</ele>
        <time>2018-01-31T10:38:59Z</time>
      </trkpt>
      <trkpt lat="45.96906" lon="4.86039">
        <ele>289</ele>
        <time>2018-01-31T10:39:00Z</time>
      </trkpt>
      <trkpt lat="45.96907" lon="4.8603">
        <ele>289</ele>
        <time>2018-01-31T10:39:01Z</time>
      </trkpt>
      <trkpt lat="45.9691" lon="4.86021">
        <ele>289</ele>
        <time>2018-01-31T10:39:02Z</time>
      </trkpt>
      <trkpt lat="45.96911" lon="4.86012">
        <ele>288</ele>
        <time>2018-01-31T10:39:03Z</time>
      </trkpt>
      <trkpt lat="45.96912" lon="4.86002">
        <ele>288</ele>
        <time>2018-01-31T10:39:04Z</time>
      </trkpt>
      <trkpt lat="45.96915" lon="4.85994">
        <ele>288</ele>
        <time>2018-01-31T10:39:05Z</time>
      </trkpt>
      <trkpt lat="45.96918" lon="4.85983">
        <ele>287</ele>
        <time>2018-01-31T10:39:06Z</time>
      </trkpt>
      <trkpt lat="45.9692" lon="4.85972">
        <ele>287</ele>
        <time>2018-01-31T10:39:07Z</time>
      </trkpt>
      <trkpt lat="45.96923" lon="4.85962">
        <ele>287</ele>
        <time>2018-01-31T10:39:08Z</time>
      </trkpt>
      <trkpt lat="45.96925" lon="4.85953">
        <ele>287</ele>
        <time>2018-01-31T10:39:09Z</time>
      </trkpt>
      <trkpt lat="45.96928" lon="4.85944">
        <ele>286</ele>
        <time>2018-01-31T10:39:10Z</time>
      </trkpt>
      <trkpt lat="45.9693" lon="4.85934">
        <ele>286</ele>
        <time>2018-01-31T10:39:11Z</time>
      </trkpt>
      <trkpt lat="45.96932" lon="4.85925">
        <ele>286</ele>
        <time>2018-01-31T10:39:12Z</time>
      </trkpt>
      <trkpt lat="45.96934" lon="4.85916">
        <ele>286</ele>
        <time>2018-01-31T10:39:13Z</time>
      </trkpt>
      <trkpt lat="45.96936" lon="4.85907">
        <ele>286</ele>
        <time>2018-01-31T10:39:14Z</time>
      </trkpt>
      <trkpt lat="45.96938" lon="4.85897">
        <ele>285</ele>
        <time>2018-01-31T10:39:15Z</time>
      </trkpt>
      <trkpt lat="45.9694" lon="4.85889">
        <ele>285</ele>
        <time>2018-01-31T10:39:16Z</time>
      </trkpt>
      <trkpt lat="45.96942" lon="4.85879">
        <ele>285</ele>
        <time>2018-01-31T10:39:17Z</time>
      </trkpt>
      <trkpt lat="45.96944" lon="4.8587">
        <ele>285</ele>
        <time>2018-01-31T10:39:18Z</time>
      </trkpt>
      <trkpt lat="45.96947" lon="4.85859">
        <ele>285</ele>
        <time>2018-01-31T10:39:19Z</time>
      </trkpt>
      <trkpt lat="45.9695" lon="4.8585">
        <ele>285</ele>
        <time>2018-01-31T10:39:20Z</time>
      </trkpt>
      <trkpt lat="45.96952" lon="4.85842">
        <ele>285</ele>
        <time>2018-01-31T10:39:21Z</time>
      </trkpt>
      <trkpt lat="45.96954" lon="4.85835">
        <ele>285</ele>
        <time>2018-01-31T10:39:22Z</time>
      </trkpt>
      <trkpt lat="45.96957" lon="4.85827">
        <ele>285</ele>
        <time>2018-01-31T10:39:23Z</time>
      </trkpt>
      <trkpt lat="45.96958" lon="4.85819">
        <ele>285</ele>
        <time>2018-01-31T10:39:24Z</time>
      </trkpt>
      <trkpt lat="45.9696" lon="4.8581">
        <ele>285</ele>
        <time>2018-01-31T10:39:25Z</time>
      </trkpt>
      <trkpt lat="45.96963" lon="4.85801">
        <ele>285</ele>
        <time>2018-01-31T10:39:26Z</time>
      </trkpt>
      <trkpt lat="45.96966" lon="4.85792">
        <ele>285</ele>
        <time>2018-01-31T10:39:27Z</time>
      </trkpt>
      <trkpt lat="45.96968" lon="4.85784">
        <ele>285</ele>
        <time>2018-01-31T10:39:28Z</time>
      </trkpt>
      <trkpt lat="45.96971" lon="4.85776">
        <ele>285</ele>
        <time>2018-01-31T10:39:29Z</time>
      </trkpt>
      <trkpt lat="45.96973" lon="4.85767">
        <ele>285</ele>
        <time>2018-01-31T10:39:30Z</time>
      </trkpt>
      <trkpt lat="45.96975" lon="4.85759">
        <ele>285</ele>
        <time>2018-01-31T10:39:31Z</time>
      </trkpt>
      <trkpt lat="45.96977" lon="4.85751">
        <ele>285</ele>
        <time>2018-01-31T10:39:32Z</time>
      </trkpt>
      <trkpt lat="45.9698" lon="4.85743">
        <ele>285</ele>
        <time>2018-01-31T10:39:33Z</time>
      </trkpt>
      <trkpt lat="45.96982" lon="4.85735">
        <ele>285</ele>
        <time>2018-01-31T10:39:34Z</time>
      </trkpt>
      <trkpt lat="45.96985" lon="4.85728">
        <ele>285</ele>
        <time>2018-01-31T10:39:35Z</time>
      </trkpt>
      <trkpt lat="45.96988" lon="4.85719">
        <ele>285</ele>
        <time>2018-01-31T10:39:36Z</time>
      </trkpt>
      <trkpt lat="45.9699" lon="4.8571">
        <ele>285</ele>
        <time>2018-01-31T10:39:37Z</time>
      </trkpt>
      <trkpt lat="45.96992" lon="4.85702">
        <ele>285</ele>
        <time>2018-01-31T10:39:38Z</time>
      </trkpt>
      <trkpt lat="45.96994" lon="4.85694">
        <ele>285</ele>
        <time>2018-01-31T10:39:39Z</time>
      </trkpt>
      <trkpt lat="45.96995" lon="4.85685">
        <ele>285</ele>
        <time>2018-01-31T10:39:40Z</time>
      </trkpt>
      <trkpt lat="45.96997" lon="4.85678">
        <ele>286</ele>
        <time>2018-01-31T10:39:41Z</time>
      </trkpt>
      <trkpt lat="45.96999" lon="4.8567">
        <ele>286</ele>
        <time>2018-01-31T10:39:42Z</time>
      </trkpt>
      <trkpt lat="45.97001" lon="4.8566">
        <ele>285</ele>
        <time>2018-01-31T10:39:43Z</time>
      </trkpt>
      <trkpt lat="45.97003" lon="4.85653">
        <ele>285</ele>
        <time>2018-01-31T10:39:44Z</time>
      </trkpt>
      <trkpt lat="45.97005" lon="4.85647">
        <ele>285</ele>
        <time>2018-01-31T10:39:45Z</time>
      </trkpt>
      <trkpt lat="45.97007" lon="4.8564">
        <ele>284</ele>
        <time>2018-01-31T10:39:46Z</time>
      </trkpt>
      <trkpt lat="45.97009" lon="4.85633">
        <ele>284</ele>
        <time>2018-01-31T10:39:47Z</time>
      </trkpt>
      <trkpt lat="45.97011" lon="4.85625">
        <ele>284</ele>
        <time>2018-01-31T10:39:48Z</time>
      </trkpt>
      <trkpt lat="45.97014" lon="4.85617">
        <ele>284</ele>
        <time>2018-01-31T10:39:49Z</time>
      </trkpt>
      <trkpt lat="45.97016" lon="4.85608">
        <ele>284</ele>
        <time>2018-01-31T10:39:50Z</time>
      </trkpt>
      <trkpt lat="45.97018" lon="4.85599">
        <ele>284</ele>
        <time>2018-01-31T10:39:51Z</time>
      </trkpt>
      <trkpt lat="45.97021" lon="4.85589">
        <ele>284</ele>
        <time>2018-01-31T10:39:52Z</time>
      </trkpt>
      <trkpt lat="45.97024" lon="4.8558">
        <ele>283</ele>
        <time>2018-01-31T10:39:53Z</time>
      </trkpt>
      <trkpt lat="45.97027" lon="4.8557">
        <ele>283</ele>
        <time>2018-01-31T10:39:54Z</time>
      </trkpt>
      <trkpt lat="45.9703" lon="4.85561">
        <ele>283</ele>
        <time>2018-01-31T10:39:55Z</time>
      </trkpt>
      <trkpt lat="45.97033" lon="4.85551">
        <ele>283</ele>
        <time>2018-01-31T10:39:56Z</time>
      </trkpt>
      <trkpt lat="45.97035" lon="4.85541">
        <ele>282</ele>
        <time>2018-01-31T10:39:57Z</time>
      </trkpt>
      <trkpt lat="45.97038" lon="4.85531">
        <ele>282</ele>
        <time>2018-01-31T10:39:58Z</time>
      </trkpt>
      <trkpt lat="45.97041" lon="4.8552">
        <ele>282</ele>
        <time>2018-01-31T10:39:59Z</time>
      </trkpt>
      <trkpt lat="45.97045" lon="4.85511">
        <ele>282</ele>
        <time>2018-01-31T10:40:00Z</time>
      </trkpt>
      <trkpt lat="45.97047" lon="4.85501">
        <ele>282</ele>
        <time>2018-01-31T10:40:01Z</time>
      </trkpt>
      <trkpt lat="45.9705" lon="4.85491">
        <ele>281</ele>
        <time>2018-01-31T10:40:02Z</time>
      </trkpt>
      <trkpt lat="45.97053" lon="4.8548">
        <ele>281</ele>
        <time>2018-01-31T10:40:03Z</time>
      </trkpt>
      <trkpt lat="45.97056" lon="4.8547">
        <ele>281</ele>
        <time>2018-01-31T10:40:04Z</time>
      </trkpt>
      <trkpt lat="45.97058" lon="4.85462">
        <ele>281</ele>
        <time>2018-01-31T10:40:05Z</time>
      </trkpt>
      <trkpt lat="45.97061" lon="4.85451">
        <ele>281</ele>
        <time>2018-01-31T10:40:06Z</time>
      </trkpt>
      <trkpt lat="45.97065" lon="4.85443">
        <ele>281</ele>
        <time>2018-01-31T10:40:07Z</time>
      </trkpt>
      <trkpt lat="45.97068" lon="4.85434">
        <ele>281</ele>
        <time>2018-01-31T10:40:08Z</time>
      </trkpt>
      <trkpt lat="45.97071" lon="4.85426">
        <ele>281</ele>
        <time>2018-01-31T10:40:09Z</time>
      </trkpt>
      <trkpt lat="45.97073" lon="4.85418">
        <ele>280</ele>
        <time>2018-01-31T10:40:10Z</time>
      </trkpt>
      <trkpt lat="45.97076" lon="4.85408">
        <ele>281</ele>
        <time>2018-01-31T10:40:11Z</time>
      </trkpt>
      <trkpt lat="45.97079" lon="4.854">
        <ele>281</ele>
        <time>2018-01-31T10:40:12Z</time>
      </trkpt>
      <trkpt lat="45.97082" lon="4.85391">
        <ele>281</ele>
        <time>2018-01-31T10:40:13Z</time>
      </trkpt>
      <trkpt lat="45.97082" lon="4.85381">
        <ele>281</ele>
        <time>2018-01-31T10:40:14Z</time>
      </trkpt>
      <trkpt lat="45.97085" lon="4.85371">
        <ele>280</ele>
        <time>2018-01-31T10:40:15Z</time>
      </trkpt>
      <trkpt lat="45.97088" lon="4.85363">
        <ele>280</ele>
        <time>2018-01-31T10:40:16Z</time>
      </trkpt>
      <trkpt lat="45.97091" lon="4.85355">
        <ele>280</ele>
        <time>2018-01-31T10:40:17Z</time>
      </trkpt>
      <trkpt lat="45.97093" lon="4.85346">
        <ele>280</ele>
        <time>2018-01-31T10:40:18Z</time>
      </trkpt>
      <trkpt lat="45.97096" lon="4.85338">
        <ele>280</ele>
        <time>2018-01-31T10:40:19Z</time>
      </trkpt>
      <trkpt lat="45.97099" lon="4.85331">
        <ele>280</ele>
        <time>2018-01-31T10:40:20Z</time>
      </trkpt>
      <trkpt lat="45.97103" lon="4.85323">
        <ele>280</ele>
        <time>2018-01-31T10:40:21Z</time>
      </trkpt>
      <trkpt lat="45.97107" lon="4.85315">
        <ele>280</ele>
        <time>2018-01-31T10:40:22Z</time>
      </trkpt>
      <trkpt lat="45.9711" lon="4.85307">
        <ele>280</ele>
        <time>2018-01-31T10:40:23Z</time>
      </trkpt>
      <trkpt lat="45.97114" lon="4.853">
        <ele>280</ele>
        <time>2018-01-31T10:40:24Z</time>
      </trkpt>
      <trkpt lat="45.97118" lon="4.85292">
        <ele>280</ele>
        <time>2018-01-31T10:40:25Z</time>
      </trkpt>
      <trkpt lat="45.97122" lon="4.85284">
        <ele>280</ele>
        <time>2018-01-31T10:40:26Z</time>
      </trkpt>
      <trkpt lat="45.97125" lon="4.85277">
        <ele>279</ele>
        <time>2018-01-31T10:40:27Z</time>
      </trkpt>
      <trkpt lat="45.97129" lon="4.8527">
        <ele>279</ele>
        <time>2018-01-31T10:40:28Z</time>
      </trkpt>
      <trkpt lat="45.97133" lon="4.85262">
        <ele>279</ele>
        <time>2018-01-31T10:40:29Z</time>
      </trkpt>
      <trkpt lat="45.97136" lon="4.85256">
        <ele>279</ele>
        <time>2018-01-31T10:40:30Z</time>
      </trkpt>
      <trkpt lat="45.9714" lon="4.85249">
        <ele>279</ele>
        <time>2018-01-31T10:40:31Z</time>
      </trkpt>
      <trkpt lat="45.97144" lon="4.85242">
        <ele>279</ele>
        <time>2018-01-31T10:40:32Z</time>
      </trkpt>
      <trkpt lat="45.97148" lon="4.85233">
        <ele>279</ele>
        <time>2018-01-31T10:40:33Z</time>
      </trkpt>
      <trkpt lat="45.97153" lon="4.85225">
        <ele>279</ele>
        <time>2018-01-31T10:40:34Z</time>
      </trkpt>
      <trkpt lat="45.97157" lon="4.85217">
        <ele>279</ele>
        <time>2018-01-31T10:40:35Z</time>
      </trkpt>
      <trkpt lat="45.9716" lon="4.85209">
        <ele>279</ele>
        <time>2018-01-31T10:40:36Z</time>
      </trkpt>
      <trkpt lat="45.97164" lon="4.85201">
        <ele>279</ele>
        <time>2018-01-31T10:40:37Z</time>
      </trkpt>
      <trkpt lat="45.97168" lon="4.85194">
        <ele>278</ele>
        <time>2018-01-31T10:40:38Z</time>
      </trkpt>
      <trkpt lat="45.97173" lon="4.85186">
        <ele>278</ele>
        <time>2018-01-31T10:40:39Z</time>
      </trkpt>
      <trkpt lat="45.97177" lon="4.85179">
        <ele>278</ele>
        <time>2018-01-31T10:40:40Z</time>
      </trkpt>
      <trkpt lat="45.97181" lon="4.85171">
        <ele>278</ele>
        <time>2018-01-31T10:40:41Z</time>
      </trkpt>
      <trkpt lat="45.97185" lon="4.85162">
        <ele>278</ele>
        <time>2018-01-31T10:40:42Z</time>
      </trkpt>
      <trkpt lat="45.97189" lon="4.85154">
        <ele>278</ele>
        <time>2018-01-31T10:40:43Z</time>
      </trkpt>
      <trkpt lat="45.97193" lon="4.85145">
        <ele>278</ele>
        <time>2018-01-31T10:40:44Z</time>
      </trkpt>
      <trkpt lat="45.97197" lon="4.85136">
        <ele>278</ele>
        <time>2018-01-31T10:40:45Z</time>
      </trkpt>
      <trkpt lat="45.97201" lon="4.85128">
        <ele>278</ele>
        <time>2018-01-31T10:40:46Z</time>
      </trkpt>
      <trkpt lat="45.97205" lon="4.8512">
        <ele>278</ele>
        <time>2018-01-31T10:40:47Z</time>
      </trkpt>
      <trkpt lat="45.97209" lon="4.85112">
        <ele>278</ele>
        <time>2018-01-31T10:40:48Z</time>
      </trkpt>
      <trkpt lat="45.97212" lon="4.85104">
        <ele>278</ele>
        <time>2018-01-31T10:40:49Z</time>
      </trkpt>
      <trkpt lat="45.97215" lon="4.85097">
        <ele>278</ele>
        <time>2018-01-31T10:40:50Z</time>
      </trkpt>
      <trkpt lat="45.97219" lon="4.8509">
        <ele>278</ele>
        <time>2018-01-31T10:40:51Z</time>
      </trkpt>
      <trkpt lat="45.97223" lon="4.85084">
        <ele>278</ele>
        <time>2018-01-31T10:40:52Z</time>
      </trkpt>
      <trkpt lat="45.97226" lon="4.85076">
        <ele>278</ele>
        <time>2018-01-31T10:40:53Z</time>
      </trkpt>
      <trkpt lat="45.97229" lon="4.8507">
        <ele>278</ele>
        <time>2018-01-31T10:40:54Z</time>
      </trkpt>
      <trkpt lat="45.97232" lon="4.85062">
        <ele>278</ele>
        <time>2018-01-31T10:40:55Z</time>
      </trkpt>
      <trkpt lat="45.97235" lon="4.85056">
        <ele>279</ele>
        <time>2018-01-31T10:40:56Z</time>
      </trkpt>
      <trkpt lat="45.97239" lon="4.85049">
        <ele>279</ele>
        <time>2018-01-31T10:40:57Z</time>
      </trkpt>
      <trkpt lat="45.97243" lon="4.85041">
        <ele>279</ele>
        <time>2018-01-31T10:40:58Z</time>
      </trkpt>
      <trkpt lat="45.97246" lon="4.85034">
        <ele>279</ele>
        <time>2018-01-31T10:40:59Z</time>
      </trkpt>
      <trkpt lat="45.97249" lon="4.85027">
        <ele>279</ele>
        <time>2018-01-31T10:41:00Z</time>
      </trkpt>
      <trkpt lat="45.97253" lon="4.85019">
        <ele>279</ele>
        <time>2018-01-31T10:41:01Z</time>
      </trkpt>
      <trkpt lat="45.97257" lon="4.85012">
        <ele>279</ele>
        <time>2018-01-31T10:41:02Z</time>
      </trkpt>
      <trkpt lat="45.97259" lon="4.85004">
        <ele>279</ele>
        <time>2018-01-31T10:41:03Z</time>
      </trkpt>
      <trkpt lat="45.97263" lon="4.84997">
        <ele>279</ele>
        <time>2018-01-31T10:41:04Z</time>
      </trkpt>
      <trkpt lat="45.97266" lon="4.8499">
        <ele>279</ele>
        <time>2018-01-31T10:41:05Z</time>
      </trkpt>
      <trkpt lat="45.9727" lon="4.84982">
        <ele>279</ele>
        <time>2018-01-31T10:41:06Z</time>
      </trkpt>
      <trkpt lat="45.97273" lon="4.84975">
        <ele>278</ele>
        <time>2018-01-31T10:41:07Z</time>
      </trkpt>
      <trkpt lat="45.97277" lon="4.84968">
        <ele>278</ele>
        <time>2018-01-31T10:41:08Z</time>
      </trkpt>
      <trkpt lat="45.97281" lon="4.8496">
        <ele>278</ele>
        <time>2018-01-31T10:41:09Z</time>
      </trkpt>
      <trkpt lat="45.97285" lon="4.84953">
        <ele>278</ele>
        <time>2018-01-31T10:41:10Z</time>
      </trkpt>
      <trkpt lat="45.97289" lon="4.84947">
        <ele>278</ele>
        <time>2018-01-31T10:41:11Z</time>
      </trkpt>
      <trkpt lat="45.97293" lon="4.8494">
        <ele>278</ele>
        <time>2018-01-31T10:41:12Z</time>
      </trkpt>
      <trkpt lat="45.97297" lon="4.84934">
        <ele>278</ele>
        <time>2018-01-31T10:41:13Z</time>
      </trkpt>
      <trkpt lat="45.973" lon="4.84928">
        <ele>278</ele>
        <time>2018-01-31T10:41:14Z</time>
      </trkpt>
      <trkpt lat="45.97305" lon="4.84921">
        <ele>278</ele>
        <time>2018-01-31T10:41:15Z</time>
      </trkpt>
      <trkpt lat="45.97309" lon="4.84915">
        <ele>278</ele>
        <time>2018-01-31T10:41:16Z</time>
      </trkpt>
      <trkpt lat="45.97313" lon="4.84908">
        <ele>278</ele>
        <time>2018-01-31T10:41:17Z</time>
      </trkpt>
      <trkpt lat="45.97318" lon="4.84901">
        <ele>278</ele>
        <time>2018-01-31T10:41:18Z</time>
      </trkpt>
      <trkpt lat="45.97322" lon="4.84895">
        <ele>278</ele>
        <time>2018-01-31T10:41:19Z</time>
      </trkpt>
      <trkpt lat="45.97327" lon="4.84888">
        <ele>278</ele>
        <time>2018-01-31T10:41:20Z</time>
      </trkpt>
      <trkpt lat="45.97332" lon="4.84881">
        <ele>278</ele>
        <time>2018-01-31T10:41:21Z</time>
      </trkpt>
      <trkpt lat="45.97333" lon="4.84873">
        <ele>278</ele>
        <time>2018-01-31T10:41:22Z</time>
      </trkpt>
      <trkpt lat="45.97337" lon="4.84866">
        <ele>277</ele>
        <time>2018-01-31T10:41:23Z</time>
      </trkpt>
      <trkpt lat="45.97339" lon="4.84858">
        <ele>277</ele>
        <time>2018-01-31T10:41:24Z</time>
      </trkpt>
      <trkpt lat="45.97343" lon="4.8485">
        <ele>277</ele>
        <time>2018-01-31T10:41:25Z</time>
      </trkpt>
      <trkpt lat="45.97345" lon="4.84841">
        <ele>277</ele>
        <time>2018-01-31T10:41:26Z</time>
      </trkpt>
      <trkpt lat="45.97349" lon="4.84832">
        <ele>278</ele>
        <time>2018-01-31T10:41:27Z</time>
      </trkpt>
      <trkpt lat="45.97352" lon="4.84825">
        <ele>278</ele>
        <time>2018-01-31T10:41:28Z</time>
      </trkpt>
      <trkpt lat="45.97355" lon="4.84815">
        <ele>278</ele>
        <time>2018-01-31T10:41:29Z</time>
      </trkpt>
      <trkpt lat="45.97359" lon="4.84808">
        <ele>278</ele>
        <time>2018-01-31T10:41:30Z</time>
      </trkpt>
      <trkpt lat="45.97362" lon="4.84799">
        <ele>278</ele>
        <time>2018-01-31T10:41:31Z</time>
      </trkpt>
      <trkpt lat="45.97365" lon="4.84792">
        <ele>278</ele>
        <time>2018-01-31T10:41:32Z</time>
      </trkpt>
      <trkpt lat="45.97367" lon="4.84784">
        <ele>278</ele>
        <time>2018-01-31T10:41:33Z</time>
      </trkpt>
      <trkpt lat="45.9737" lon="4.84775">
        <ele>278</ele>
        <time>2018-01-31T10:41:34Z</time>
      </trkpt>
      <trkpt lat="45.97373" lon="4.84768">
        <ele>278</ele>
        <time>2018-01-31T10:41:35Z</time>
      </trkpt>
      <trkpt lat="45.97376" lon="4.84761">
        <ele>278</ele>
        <time>2018-01-31T10:41:36Z</time>
      </trkpt>
      <trkpt lat="45.97379" lon="4.84754">
        <ele>278</ele>
        <time>2018-01-31T10:41:37Z</time>
      </trkpt>
      <trkpt lat="45.97382" lon="4.84747">
        <ele>278</ele>
        <time>2018-01-31T10:41:38Z</time>
      </trkpt>
      <trkpt lat="45.97385" lon="4.8474">
        <ele>278</ele>
        <time>2018-01-31T10:41:39Z</time>
      </trkpt>
      <trkpt lat="45.9739" lon="4.84735">
        <ele>278</ele>
        <time>2018-01-31T10:41:40Z</time>
      </trkpt>
      <trkpt lat="45.97394" lon="4.8473">
        <ele>278</ele>
        <time>2018-01-31T10:41:41Z</time>
      </trkpt>
      <trkpt lat="45.97399" lon="4.84727">
        <ele>278</ele>
        <time>2018-01-31T10:41:42Z</time>
      </trkpt>
      <trkpt lat="45.97405" lon="4.84722">
        <ele>278</ele>
        <time>2018-01-31T10:41:43Z</time>
      </trkpt>
      <trkpt lat="45.9741" lon="4.84718">
        <ele>278</ele>
        <time>2018-01-31T10:41:44Z</time>
      </trkpt>
      <trkpt lat="45.97417" lon="4.84713">
        <ele>276</ele>
        <time>2018-01-31T10:41:45Z</time>
      </trkpt>
      <trkpt lat="45.97423" lon="4.84709">
        <ele>276</ele>
        <time>2018-01-31T10:41:46Z</time>
      </trkpt>
      <trkpt lat="45.97429" lon="4.84705">
        <ele>276</ele>
        <time>2018-01-31T10:41:47Z</time>
      </trkpt>
      <trkpt lat="45.97435" lon="4.84701">
        <ele>276</ele>
        <time>2018-01-31T10:41:48Z</time>
      </trkpt>
      <trkpt lat="45.97441" lon="4.84697">
        <ele>276</ele>
        <time>2018-01-31T10:41:49Z</time>
      </trkpt>
      <trkpt lat="45.97448" lon="4.84692">
        <ele>276</ele>
        <time>2018-01-31T10:41:50Z</time>
      </trkpt>
      <trkpt lat="45.97454" lon="4.84688">
        <ele>276</ele>
        <time>2018-01-31T10:41:51Z</time>
      </trkpt>
      <trkpt lat="45.97461" lon="4.84684">
        <ele>276</ele>
        <time>2018-01-31T10:41:52Z</time>
      </trkpt>
      <trkpt lat="45.97467" lon="4.8468">
        <ele>276</ele>
        <time>2018-01-31T10:41:53Z</time>
      </trkpt>
      <trkpt lat="45.97473" lon="4.84676">
        <ele>276</ele>
        <time>2018-01-31T10:41:54Z</time>
      </trkpt>
      <trkpt lat="45.9748" lon="4.84671">
        <ele>276</ele>
        <time>2018-01-31T10:41:55Z</time>
      </trkpt>
      <trkpt lat="45.97486" lon="4.84667">
        <ele>275</ele>
        <time>2018-01-31T10:41:56Z</time>
      </trkpt>
      <trkpt lat="45.97491" lon="4.84663">
        <ele>275</ele>
        <time>2018-01-31T10:41:57Z</time>
      </trkpt>
      <trkpt lat="45.97497" lon="4.84658">
        <ele>275</ele>
        <time>2018-01-31T10:41:58Z</time>
      </trkpt>
      <trkpt lat="45.97503" lon="4.84654">
        <ele>275</ele>
        <time>2018-01-31T10:41:59Z</time>
      </trkpt>
      <trkpt lat="45.97509" lon="4.8465">
        <ele>275</ele>
        <time>2018-01-31T10:42:00Z</time>
      </trkpt>
      <trkpt lat="45.97515" lon="4.84646">
        <ele>275</ele>
        <time>2018-01-31T10:42:01Z</time>
      </trkpt>
      <trkpt lat="45.97522" lon="4.84642">
        <ele>275</ele>
        <time>2018-01-31T10:42:02Z</time>
      </trkpt>
      <trkpt lat="45.97527" lon="4.84638">
        <ele>275</ele>
        <time>2018-01-31T10:42:03Z</time>
      </trkpt>
      <trkpt lat="45.97534" lon="4.84632">
        <ele>275</ele>
        <time>2018-01-31T10:42:04Z</time>
      </trkpt>
      <trkpt lat="45.9754" lon="4.84626">
        <ele>275</ele>
        <time>2018-01-31T10:42:05Z</time>
      </trkpt>
      <trkpt lat="45.97546" lon="4.8462">
        <ele>274</ele>
        <time>2018-01-31T10:42:06Z</time>
      </trkpt>
      <trkpt lat="45.97552" lon="4.84614">
        <ele>274</ele>
        <time>2018-01-31T10:42:07Z</time>
      </trkpt>
      <trkpt lat="45.97558" lon="4.84608">
        <ele>274</ele>
        <time>2018-01-31T10:42:08Z</time>
      </trkpt>
      <trkpt lat="45.97564" lon="4.84602">
        <ele>274</ele>
        <time>2018-01-31T10:42:09Z</time>
      </trkpt>
      <trkpt lat="45.97568" lon="4.84596">
        <ele>274</ele>
        <time>2018-01-31T10:42:10Z</time>
      </trkpt>
      <trkpt lat="45.97573" lon="4.8459">
        <ele>274</ele>
        <time>2018-01-31T10:42:11Z</time>
      </trkpt>
      <trkpt lat="45.97578" lon="4.84584">
        <ele>274</ele>
        <time>2018-01-31T10:42:12Z</time>
      </trkpt>
      <trkpt lat="45.97584" lon="4.84578">
        <ele>274</ele>
        <time>2018-01-31T10:42:13Z</time>
      </trkpt>
      <trkpt lat="45.97589" lon="4.84572">
        <ele>274</ele>
        <time>2018-01-31T10:42:14Z</time>
      </trkpt>
      <trkpt lat="45.97593" lon="4.84567">
        <ele>274</ele>
        <time>2018-01-31T10:42:15Z</time>
      </trkpt>
      <trkpt lat="45.97598" lon="4.84561">
        <ele>275</ele>
        <time>2018-01-31T10:42:16Z</time>
      </trkpt>
      <trkpt lat="45.97603" lon="4.84554">
        <ele>275</ele>
        <time>2018-01-31T10:42:17Z</time>
      </trkpt>
      <trkpt lat="45.97607" lon="4.84548">
        <ele>275</ele>
        <time>2018-01-31T10:42:18Z</time>
      </trkpt>
      <trkpt lat="45.97612" lon="4.84542">
        <ele>275</ele>
        <time>2018-01-31T10:42:19Z</time>
      </trkpt>
      <trkpt lat="45.97617" lon="4.84534">
        <ele>275</ele>
        <time>2018-01-31T10:42:20Z</time>
      </trkpt>
      <trkpt lat="45.97622" lon="4.84528">
        <ele>275</ele>
        <time>2018-01-31T10:42:21Z</time>
      </trkpt>
      <trkpt lat="45.97627" lon="4.84521">
        <ele>275</ele>
        <time>2018-01-31T10:42:22Z</time>
      </trkpt>
      <trkpt lat="45.97632" lon="4.84515">
        <ele>275</ele>
        <time>2018-01-31T10:42:23Z</time>
      </trkpt>
      <trkpt lat="45.97638" lon="4.84508">
        <ele>275</ele>
        <time>2018-01-31T10:42:24Z</time>
      </trkpt>
      <trkpt lat="45.97644" lon="4.84501">
        <ele>275</ele>
        <time>2018-01-31T10:42:25Z</time>
      </trkpt>
      <trkpt lat="45.97649" lon="4.84495">
        <ele>275</ele>
        <time>2018-01-31T10:42:26Z</time>
      </trkpt>
      <trkpt lat="45.97656" lon="4.84489">
        <ele>275</ele>
        <time>2018-01-31T10:42:27Z</time>
      </trkpt>
      <trkpt lat="45.97662" lon="4.84484">
        <ele>275</ele>
        <time>2018-01-31T10:42:28Z</time>
      </trkpt>
      <trkpt lat="45.97668" lon="4.84479">
        <ele>276</ele>
        <time>2018-01-31T10:42:29Z</time>
      </trkpt>
      <trkpt lat="45.97673" lon="4.84475">
        <ele>276</ele>
        <time>2018-01-31T10:42:30Z</time>
      </trkpt>
      <trkpt lat="45.97679" lon="4.84472">
        <ele>277</ele>
        <time>2018-01-31T10:42:31Z</time>
      </trkpt>
      <trkpt lat="45.97684" lon="4.84469">
        <ele>277</ele>
        <time>2018-01-31T10:42:32Z</time>
      </trkpt>
      <trkpt lat="45.97689" lon="4.84465">
        <ele>277</ele>
        <time>2018-01-31T10:42:33Z</time>
      </trkpt>
      <trkpt lat="45.97694" lon="4.84462">
        <ele>277</ele>
        <time>2018-01-31T10:42:34Z</time>
      </trkpt>
      <trkpt lat="45.977" lon="4.84459">
        <ele>277</ele>
        <time>2018-01-31T10:42:35Z</time>
      </trkpt>
      <trkpt lat="45.97705" lon="4.84456">
        <ele>277</ele>
        <time>2018-01-31T10:42:36Z</time>
      </trkpt>
      <trkpt lat="45.97712" lon="4.84453">
        <ele>277</ele>
        <time>2018-01-31T10:42:37Z</time>
      </trkpt>
      <trkpt lat="45.97718" lon="4.84451">
        <ele>277</ele>
        <time>2018-01-31T10:42:38Z</time>
      </trkpt>
      <trkpt lat="45.97725" lon="4.84448">
        <ele>277</ele>
        <time>2018-01-31T10:42:39Z</time>
      </trkpt>
      <trkpt lat="45.97731" lon="4.84446">
        <ele>277</ele>
        <time>2018-01-31T10:42:40Z</time>
      </trkpt>
      <trkpt lat="45.97738" lon="4.84445">
        <ele>277</ele>
        <time>2018-01-31T10:42:41Z</time>
      </trkpt>
      <trkpt lat="45.97744" lon="4.84442">
        <ele>277</ele>
        <time>2018-01-31T10:42:42Z</time>
      </trkpt>
      <trkpt lat="45.9775" lon="4.8444">
        <ele>277</ele>
        <time>2018-01-31T10:42:43Z</time>
      </trkpt>
      <trkpt lat="45.97756" lon="4.84437">
        <ele>277</ele>
        <time>2018-01-31T10:42:44Z</time>
      </trkpt>
      <trkpt lat="45.97762" lon="4.84435">
        <ele>277</ele>
        <time>2018-01-31T10:42:45Z</time>
      </trkpt>
      <trkpt lat="45.97768" lon="4.84433">
        <ele>277</ele>
        <time>2018-01-31T10:42:46Z</time>
      </trkpt>
      <trkpt lat="45.97774" lon="4.8443">
        <ele>277</ele>
        <time>2018-01-31T10:42:47Z</time>
      </trkpt>
      <trkpt lat="45.97781" lon="4.84427">
        <ele>277</ele>
        <time>2018-01-31T10:42:48Z</time>
      </trkpt>
      <trkpt lat="45.97788" lon="4.84424">
        <ele>277</ele>
        <time>2018-01-31T10:42:49Z</time>
      </trkpt>
      <trkpt lat="45.97795" lon="4.8442">
        <ele>277</ele>
        <time>2018-01-31T10:42:50Z</time>
      </trkpt>
      <trkpt lat="45.97801" lon="4.84418">
        <ele>277</ele>
        <time>2018-01-31T10:42:51Z</time>
      </trkpt>
      <trkpt lat="45.97808" lon="4.84414">
        <ele>277</ele>
        <time>2018-01-31T10:42:52Z</time>
      </trkpt>
      <trkpt lat="45.97815" lon="4.8441">
        <ele>276</ele>
        <time>2018-01-31T10:42:53Z</time>
      </trkpt>
      <trkpt lat="45.97822" lon="4.84404">
        <ele>276</ele>
        <time>2018-01-31T10:42:54Z</time>
      </trkpt>
      <trkpt lat="45.97828" lon="4.84399">
        <ele>276</ele>
        <time>2018-01-31T10:42:55Z</time>
      </trkpt>
      <trkpt lat="45.97834" lon="4.84393">
        <ele>276</ele>
        <time>2018-01-31T10:42:56Z</time>
      </trkpt>
      <trkpt lat="45.97839" lon="4.84389">
        <ele>276</ele>
        <time>2018-01-31T10:42:57Z</time>
      </trkpt>
      <trkpt lat="45.97845" lon="4.84382">
        <ele>276</ele>
        <time>2018-01-31T10:42:58Z</time>
      </trkpt>
      <trkpt lat="45.97852" lon="4.84375">
        <ele>276</ele>
        <time>2018-01-31T10:42:59Z</time>
      </trkpt>
      <trkpt lat="45.97858" lon="4.84368">
        <ele>276</ele>
        <time>2018-01-31T10:43:00Z</time>
      </trkpt>
      <trkpt lat="45.97862" lon="4.84361">
        <ele>276</ele>
        <time>2018-01-31T10:43:01Z</time>
      </trkpt>
      <trkpt lat="45.97867" lon="4.84353">
        <ele>276</ele>
        <time>2018-01-31T10:43:02Z</time>
      </trkpt>
      <trkpt lat="45.97871" lon="4.84346">
        <ele>276</ele>
        <time>2018-01-31T10:43:03Z</time>
      </trkpt>
      <trkpt lat="45.97875" lon="4.84339">
        <ele>275</ele>
        <time>2018-01-31T10:43:04Z</time>
      </trkpt>
      <trkpt lat="45.9788" lon="4.84332">
        <ele>275</ele>
        <time>2018-01-31T10:43:05Z</time>
      </trkpt>
      <trkpt lat="45.97885" lon="4.84326">
        <ele>275</ele>
        <time>2018-01-31T10:43:06Z</time>
      </trkpt>
      <trkpt lat="45.97889" lon="4.84319">
        <ele>275</ele>
        <time>2018-01-31T10:43:07Z</time>
      </trkpt>
      <trkpt lat="45.97893" lon="4.84313">
        <ele>275</ele>
        <time>2018-01-31T10:43:08Z</time>
      </trkpt>
      <trkpt lat="45.97898" lon="4.84307">
        <ele>275</ele>
        <time>2018-01-31T10:43:09Z</time>
      </trkpt>
      <trkpt lat="45.97902" lon="4.843">
        <ele>275</ele>
        <time>2018-01-31T10:43:10Z</time>
      </trkpt>
      <trkpt lat="45.97907" lon="4.84293">
        <ele>275</ele>
        <time>2018-01-31T10:43:11Z</time>
      </trkpt>
      <trkpt lat="45.97911" lon="4.84287">
        <ele>275</ele>
        <time>2018-01-31T10:43:12Z</time>
      </trkpt>
      <trkpt lat="45.97916" lon="4.84281">
        <ele>275</ele>
        <time>2018-01-31T10:43:13Z</time>
      </trkpt>
      <trkpt lat="45.97921" lon="4.84275">
        <ele>275</ele>
        <time>2018-01-31T10:43:14Z</time>
      </trkpt>
      <trkpt lat="45.97926" lon="4.84269">
        <ele>275</ele>
        <time>2018-01-31T10:43:15Z</time>
      </trkpt>
      <trkpt lat="45.97931" lon="4.84263">
        <ele>275</ele>
        <time>2018-01-31T10:43:16Z</time>
      </trkpt>
      <trkpt lat="45.97937" lon="4.84258">
        <ele>275</ele>
        <time>2018-01-31T10:43:17Z</time>
      </trkpt>
      <trkpt lat="45.97941" lon="4.84253">
        <ele>275</ele>
        <time>2018-01-31T10:43:18Z</time>
      </trkpt>
      <trkpt lat="45.97947" lon="4.84248">
        <ele>275</ele>
        <time>2018-01-31T10:43:19Z</time>
      </trkpt>
      <trkpt lat="45.97953" lon="4.84243">
        <ele>275</ele>
        <time>2018-01-31T10:43:20Z</time>
      </trkpt>
      <trkpt lat="45.97958" lon="4.84238">
        <ele>275</ele>
        <time>2018-01-31T10:43:21Z</time>
      </trkpt>
      <trkpt lat="45.97964" lon="4.84233">
        <ele>274</ele>
        <time>2018-01-31T10:43:22Z</time>
      </trkpt>
      <trkpt lat="45.97969" lon="4.84228">
        <ele>274</ele>
        <time>2018-01-31T10:43:23Z</time>
      </trkpt>
      <trkpt lat="45.97975" lon="4.84223">
        <ele>274</ele>
        <time>2018-01-31T10:43:24Z</time>
      </trkpt>
      <trkpt lat="45.9798" lon="4.84217">
        <ele>274</ele>
        <time>2018-01-31T10:43:25Z</time>
      </trkpt>
      <trkpt lat="45.97985" lon="4.84212">
        <ele>274</ele>
        <time>2018-01-31T10:43:26Z</time>
      </trkpt>
      <trkpt lat="45.9799" lon="4.84208">
        <ele>274</ele>
        <time>2018-01-31T10:43:27Z</time>
      </trkpt>
      <trkpt lat="45.97996" lon="4.84202">
        <ele>274</ele>
        <time>2018-01-31T10:43:28Z</time>
      </trkpt>
      <trkpt lat="45.98002" lon="4.84196">
        <ele>274</ele>
        <time>2018-01-31T10:43:29Z</time>
      </trkpt>
      <trkpt lat="45.98008" lon="4.8419">
        <ele>274</ele>
        <time>2018-01-31T10:43:30Z</time>
      </trkpt>
      <trkpt lat="45.98014" lon="4.84184">
        <ele>274</ele>
        <time>2018-01-31T10:43:31Z</time>
      </trkpt>
      <trkpt lat="45.98018" lon="4.8418">
        <ele>274</ele>
        <time>2018-01-31T10:43:32Z</time>
      </trkpt>
      <trkpt lat="45.98023" lon="4.84176">
        <ele>274</ele>
        <time>2018-01-31T10:43:33Z</time>
      </trkpt>
      <trkpt lat="45.98029" lon="4.8417">
        <ele>274</ele>
        <time>2018-01-31T10:43:34Z</time>
      </trkpt>
      <trkpt lat="45.98035" lon="4.84165">
        <ele>273</ele>
        <time>2018-01-31T10:43:35Z</time>
      </trkpt>
      <trkpt lat="45.9804" lon="4.8416">
        <ele>273</ele>
        <time>2018-01-31T10:43:36Z</time>
      </trkpt>
      <trkpt lat="45.98046" lon="4.84156">
        <ele>273</ele>
        <time>2018-01-31T10:43:37Z</time>
      </trkpt>
      <trkpt lat="45.9805" lon="4.84151">
        <ele>273</ele>
        <time>2018-01-31T10:43:38Z</time>
      </trkpt>
      <trkpt lat="45.98054" lon="4.84146">
        <ele>273</ele>
        <time>2018-01-31T10:43:39Z</time>
      </trkpt>
      <trkpt lat="45.98059" lon="4.84141">
        <ele>273</ele>
        <time>2018-01-31T10:43:40Z</time>
      </trkpt>
      <trkpt lat="45.98064" lon="4.84135">
        <ele>273</ele>
        <time>2018-01-31T10:43:41Z</time>
      </trkpt>
      <trkpt lat="45.98069" lon="4.84131">
        <ele>273</ele>
        <time>2018-01-31T10:43:42Z</time>
      </trkpt>
      <trkpt lat="45.98073" lon="4.84126">
        <ele>273</ele>
        <time>2018-01-31T10:43:43Z</time>
      </trkpt>
      <trkpt lat="45.98078" lon="4.84121">
        <ele>273</ele>
        <time>2018-01-31T10:43:44Z</time>
      </trkpt>
      <trkpt lat="45.98084" lon="4.84115">
        <ele>273</ele>
        <time>2018-01-31T10:43:45Z</time>
      </trkpt>
      <trkpt lat="45.98089" lon="4.8411">
        <ele>273</ele>
        <time>2018-01-31T10:43:46Z</time>
      </trkpt>
      <trkpt lat="45.98095" lon="4.84104">
        <ele>273</ele>
        <time>2018-01-31T10:43:47Z</time>
      </trkpt>
      <trkpt lat="45.98102" lon="4.84099">
        <ele>273</ele>
        <time>2018-01-31T10:43:48Z</time>
      </trkpt>
      <trkpt lat="45.98108" lon="4.84093">
        <ele>273</ele>
        <time>2018-01-31T10:43:49Z</time>
      </trkpt>
      <trkpt lat="45.98115" lon="4.84086">
        <ele>273</ele>
        <time>2018-01-31T10:43:50Z</time>
      </trkpt>
      <trkpt lat="45.98121" lon="4.84079">
        <ele>273</ele>
        <time>2018-01-31T10:43:51Z</time>
      </trkpt>
      <trkpt lat="45.98127" lon="4.84072">
        <ele>273</ele>
        <time>2018-01-31T10:43:52Z</time>
      </trkpt>
      <trkpt lat="45.98132" lon="4.84066">
        <ele>273</ele>
        <time>2018-01-31T10:43:53Z</time>
      </trkpt>
      <trkpt lat="45.98138" lon="4.8406">
        <ele>273</ele>
        <time>2018-01-31T10:43:54Z</time>
      </trkpt>
      <trkpt lat="45.98144" lon="4.84054">
        <ele>273</ele>
        <time>2018-01-31T10:43:55Z</time>
      </trkpt>
      <trkpt lat="45.98149" lon="4.84047">
        <ele>273</ele>
        <time>2018-01-31T10:43:56Z</time>
      </trkpt>
      <trkpt lat="45.98154" lon="4.8404">
        <ele>273</ele>
        <time>2018-01-31T10:43:57Z</time>
      </trkpt>
      <trkpt lat="45.98158" lon="4.84032">
        <ele>273</ele>
        <time>2018-01-31T10:43:58Z</time>
      </trkpt>
      <trkpt lat="45.98162" lon="4.84024">
        <ele>273</ele>
        <time>2018-01-31T10:43:59Z</time>
      </trkpt>
      <trkpt lat="45.98167" lon="4.84016">
        <ele>273</ele>
        <time>2018-01-31T10:44:00Z</time>
      </trkpt>
      <trkpt lat="45.9817" lon="4.84008">
        <ele>273</ele>
        <time>2018-01-31T10:44:01Z</time>
      </trkpt>
      <trkpt lat="45.98175" lon="4.84">
        <ele>273</ele>
        <time>2018-01-31T10:44:02Z</time>
      </trkpt>
      <trkpt lat="45.98178" lon="4.83992">
        <ele>273</ele>
        <time>2018-01-31T10:44:03Z</time>
      </trkpt>
      <trkpt lat="45.98181" lon="4.83984">
        <ele>273</ele>
        <time>2018-01-31T10:44:04Z</time>
      </trkpt>
      <trkpt lat="45.98184" lon="4.83975">
        <ele>273</ele>
        <time>2018-01-31T10:44:05Z</time>
      </trkpt>
      <trkpt lat="45.98187" lon="4.83967">
        <ele>273</ele>
        <time>2018-01-31T10:44:06Z</time>
      </trkpt>
      <trkpt lat="45.9819" lon="4.83959">
        <ele>273</ele>
        <time>2018-01-31T10:44:07Z</time>
      </trkpt>
      <trkpt lat="45.98193" lon="4.83951">
        <ele>273</ele>
        <time>2018-01-31T10:44:08Z</time>
      </trkpt>
      <trkpt lat="45.98196" lon="4.83943">
        <ele>273</ele>
        <time>2018-01-31T10:44:09Z</time>
      </trkpt>
      <trkpt lat="45.98199" lon="4.83933">
        <ele>273</ele>
        <time>2018-01-31T10:44:10Z</time>
      </trkpt>
      <trkpt lat="45.98201" lon="4.83924">
        <ele>273</ele>
        <time>2018-01-31T10:44:11Z</time>
      </trkpt>
      <trkpt lat="45.98204" lon="4.83916">
        <ele>273</ele>
        <time>2018-01-31T10:44:12Z</time>
      </trkpt>
      <trkpt lat="45.98207" lon="4.83908">
        <ele>273</ele>
        <time>2018-01-31T10:44:13Z</time>
      </trkpt>
      <trkpt lat="45.9821" lon="4.839">
        <ele>273</ele>
        <time>2018-01-31T10:44:14Z</time>
      </trkpt>
      <trkpt lat="45.98212" lon="4.83892">
        <ele>273</ele>
        <time>2018-01-31T10:44:15Z</time>
      </trkpt>
      <trkpt lat="45.98214" lon="4.83883">
        <ele>273</ele>
        <time>2018-01-31T10:44:16Z</time>
      </trkpt>
      <trkpt lat="45.98218" lon="4.83875">
        <ele>272</ele>
        <time>2018-01-31T10:44:17Z</time>
      </trkpt>
      <trkpt lat="45.98221" lon="4.83866">
        <ele>272</ele>
        <time>2018-01-31T10:44:18Z</time>
      </trkpt>
      <trkpt lat="45.98223" lon="4.83858">
        <ele>272</ele>
        <time>2018-01-31T10:44:19Z</time>
      </trkpt>
      <trkpt lat="45.98227" lon="4.8385">
        <ele>272</ele>
        <time>2018-01-31T10:44:20Z</time>
      </trkpt>
      <trkpt lat="45.98229" lon="4.83842">
        <ele>272</ele>
        <time>2018-01-31T10:44:21Z</time>
      </trkpt>
      <trkpt lat="45.98232" lon="4.83834">
        <ele>272</ele>
        <time>2018-01-31T10:44:22Z</time>
      </trkpt>
      <trkpt lat="45.98235" lon="4.83825">
        <ele>272</ele>
        <time>2018-01-31T10:44:23Z</time>
      </trkpt>
      <trkpt lat="45.98238" lon="4.83817">
        <ele>272</ele>
        <time>2018-01-31T10:44:24Z</time>
      </trkpt>
      <trkpt lat="45.9824" lon="4.83809">
        <ele>272</ele>
        <time>2018-01-31T10:44:25Z</time>
      </trkpt>
      <trkpt lat="45.98243" lon="4.83801">
        <ele>272</ele>
        <time>2018-01-31T10:44:26Z</time>
      </trkpt>
      <trkpt lat="45.98246" lon="4.83793">
        <ele>272</ele>
        <time>2018-01-31T10:44:27Z</time>
      </trkpt>
      <trkpt lat="45.98249" lon="4.83785">
        <ele>272</ele>
        <time>2018-01-31T10:44:28Z</time>
      </trkpt>
      <trkpt lat="45.98252" lon="4.83776">
        <ele>272</ele>
        <time>2018-01-31T10:44:29Z</time>
      </trkpt>
      <trkpt lat="45.98255" lon="4.83767">
        <ele>272</ele>
        <time>2018-01-31T10:44:30Z</time>
      </trkpt>
      <trkpt lat="45.98259" lon="4.83758">
        <ele>272</ele>
        <time>2018-01-31T10:44:31Z</time>
      </trkpt>
      <trkpt lat="45.98262" lon="4.83749">
        <ele>272</ele>
        <time>2018-01-31T10:44:32Z</time>
      </trkpt>
      <trkpt lat="45.98265" lon="4.8374">
        <ele>272</ele>
        <time>2018-01-31T10:44:33Z</time>
      </trkpt>
      <trkpt lat="45.98268" lon="4.83731">
        <ele>272</ele>
        <time>2018-01-31T10:44:34Z</time>
      </trkpt>
      <trkpt lat="45.98272" lon="4.83723">
        <ele>272</ele>
        <time>2018-01-31T10:44:35Z</time>
      </trkpt>
      <trkpt lat="45.98274" lon="4.83712">
        <ele>272</ele>
        <time>2018-01-31T10:44:36Z</time>
      </trkpt>
      <trkpt lat="45.98277" lon="4.83704">
        <ele>272</ele>
        <time>2018-01-31T10:44:37Z</time>
      </trkpt>
      <trkpt lat="45.9828" lon="4.83695">
        <ele>272</ele>
        <time>2018-01-31T10:44:38Z</time>
      </trkpt>
      <trkpt lat="45.98283" lon="4.83686">
        <ele>272</ele>
        <time>2018-01-31T10:44:39Z</time>
      </trkpt>
      <trkpt lat="45.98286" lon="4.83678">
        <ele>272</ele>
        <time>2018-01-31T10:44:40Z</time>
      </trkpt>
      <trkpt lat="45.98289" lon="4.8367">
        <ele>272</ele>
        <time>2018-01-31T10:44:41Z</time>
      </trkpt>
      <trkpt lat="45.98292" lon="4.83662">
        <ele>272</ele>
        <time>2018-01-31T10:44:42Z</time>
      </trkpt>
      <trkpt lat="45.98295" lon="4.83655">
        <ele>271</ele>
        <time>2018-01-31T10:44:43Z</time>
      </trkpt>
      <trkpt lat="45.98299" lon="4.83648">
        <ele>271</ele>
        <time>2018-01-31T10:44:44Z</time>
      </trkpt>
      <trkpt lat="45.98303" lon="4.8364">
        <ele>271</ele>
        <time>2018-01-31T10:44:45Z</time>
      </trkpt>
      <trkpt lat="45.98307" lon="4.83632">
        <ele>271</ele>
        <time>2018-01-31T10:44:46Z</time>
      </trkpt>
      <trkpt lat="45.9831" lon="4.83625">
        <ele>271</ele>
        <time>2018-01-31T10:44:47Z</time>
      </trkpt>
      <trkpt lat="45.98315" lon="4.83618">
        <ele>271</ele>
        <time>2018-01-31T10:44:48Z</time>
      </trkpt>
      <trkpt lat="45.98319" lon="4.8361">
        <ele>271</ele>
        <time>2018-01-31T10:44:49Z</time>
      </trkpt>
      <trkpt lat="45.98324" lon="4.83602">
        <ele>271</ele>
        <time>2018-01-31T10:44:50Z</time>
      </trkpt>
      <trkpt lat="45.98329" lon="4.83595">
        <ele>270</ele>
        <time>2018-01-31T10:44:51Z</time>
      </trkpt>
      <trkpt lat="45.98334" lon="4.83587">
        <ele>270</ele>
        <time>2018-01-31T10:44:52Z</time>
      </trkpt>
      <trkpt lat="45.98339" lon="4.83581">
        <ele>270</ele>
        <time>2018-01-31T10:44:53Z</time>
      </trkpt>
      <trkpt lat="45.98345" lon="4.83573">
        <ele>270</ele>
        <time>2018-01-31T10:44:54Z</time>
      </trkpt>
      <trkpt lat="45.98351" lon="4.83567">
        <ele>269</ele>
        <time>2018-01-31T10:44:55Z</time>
      </trkpt>
      <trkpt lat="45.98356" lon="4.83559">
        <ele>269</ele>
        <time>2018-01-31T10:44:56Z</time>
      </trkpt>
      <trkpt lat="45.98361" lon="4.83552">
        <ele>269</ele>
        <time>2018-01-31T10:44:57Z</time>
      </trkpt>
      <trkpt lat="45.98365" lon="4.83545">
        <ele>269</ele>
        <time>2018-01-31T10:44:58Z</time>
      </trkpt>
      <trkpt lat="45.98371" lon="4.83538">
        <ele>269</ele>
        <time>2018-01-31T10:44:59Z</time>
      </trkpt>
      <trkpt lat="45.98375" lon="4.83532">
        <ele>269</ele>
        <time>2018-01-31T10:45:00Z</time>
      </trkpt>
      <trkpt lat="45.9838" lon="4.83525">
        <ele>269</ele>
        <time>2018-01-31T10:45:01Z</time>
      </trkpt>
      <trkpt lat="45.98386" lon="4.83518">
        <ele>269</ele>
        <time>2018-01-31T10:45:02Z</time>
      </trkpt>
      <trkpt lat="45.98392" lon="4.83511">
        <ele>269</ele>
        <time>2018-01-31T10:45:03Z</time>
      </trkpt>
      <trkpt lat="45.98397" lon="4.83503">
        <ele>269</ele>
        <time>2018-01-31T10:45:04Z</time>
      </trkpt>
      <trkpt lat="45.98402" lon="4.83498">
        <ele>269</ele>
        <time>2018-01-31T10:45:05Z</time>
      </trkpt>
      <trkpt lat="45.98407" lon="4.83492">
        <ele>269</ele>
        <time>2018-01-31T10:45:06Z</time>
      </trkpt>
      <trkpt lat="45.98412" lon="4.83485">
        <ele>269</ele>
        <time>2018-01-31T10:45:07Z</time>
      </trkpt>
      <trkpt lat="45.98416" lon="4.83478">
        <ele>269</ele>
        <time>2018-01-31T10:45:08Z</time>
      </trkpt>
      <trkpt lat="45.98421" lon="4.83472">
        <ele>268</ele>
        <time>2018-01-31T10:45:09Z</time>
      </trkpt>
      <trkpt lat="45.98427" lon="4.83464">
        <ele>268</ele>
        <time>2018-01-31T10:45:10Z</time>
      </trkpt>
      <trkpt lat="45.98432" lon="4.83458">
        <ele>268</ele>
        <time>2018-01-31T10:45:11Z</time>
      </trkpt>
      <trkpt lat="45.98437" lon="4.83452">
        <ele>268</ele>
        <time>2018-01-31T10:45:12Z</time>
      </trkpt>
      <trkpt lat="45.98442" lon="4.83446">
        <ele>268</ele>
        <time>2018-01-31T10:45:13Z</time>
      </trkpt>
      <trkpt lat="45.98446" lon="4.83439">
        <ele>268</ele>
        <time>2018-01-31T10:45:14Z</time>
      </trkpt>
      <trkpt lat="45.98451" lon="4.83433">
        <ele>268</ele>
        <time>2018-01-31T10:45:15Z</time>
      </trkpt>
      <trkpt lat="45.98456" lon="4.83427">
        <ele>268</ele>
        <time>2018-01-31T10:45:16Z</time>
      </trkpt>
      <trkpt lat="45.9846" lon="4.83421">
        <ele>269</ele>
        <time>2018-01-31T10:45:17Z</time>
      </trkpt>
      <trkpt lat="45.98466" lon="4.83415">
        <ele>269</ele>
        <time>2018-01-31T10:45:18Z</time>
      </trkpt>
      <trkpt lat="45.9847" lon="4.8341">
        <ele>269</ele>
        <time>2018-01-31T10:45:19Z</time>
      </trkpt>
      <trkpt lat="45.98475" lon="4.83403">
        <ele>269</ele>
        <time>2018-01-31T10:45:20Z</time>
      </trkpt>
      <trkpt lat="45.98479" lon="4.83397">
        <ele>269</ele>
        <time>2018-01-31T10:45:21Z</time>
      </trkpt>
      <trkpt lat="45.98484" lon="4.8339">
        <ele>269</ele>
        <time>2018-01-31T10:45:22Z</time>
      </trkpt>
      <trkpt lat="45.98488" lon="4.83383">
        <ele>269</ele>
        <time>2018-01-31T10:45:23Z</time>
      </trkpt>
      <trkpt lat="45.98493" lon="4.83376">
        <ele>269</ele>
        <time>2018-01-31T10:45:24Z</time>
      </trkpt>
      <trkpt lat="45.98497" lon="4.8337">
        <ele>270</ele>
        <time>2018-01-31T10:45:25Z</time>
      </trkpt>
      <trkpt lat="45.98501" lon="4.83365">
        <ele>269</ele>
        <time>2018-01-31T10:45:26Z</time>
      </trkpt>
      <trkpt lat="45.98506" lon="4.8336">
        <ele>269</ele>
        <time>2018-01-31T10:45:27Z</time>
      </trkpt>
      <trkpt lat="45.9851" lon="4.83355">
        <ele>270</ele>
        <time>2018-01-31T10:45:28Z</time>
      </trkpt>
      <trkpt lat="45.98515" lon="4.83349">
        <ele>270</ele>
        <time>2018-01-31T10:45:29Z</time>
      </trkpt>
      <trkpt lat="45.98518" lon="4.83344">
        <ele>270</ele>
        <time>2018-01-31T10:45:30Z</time>
      </trkpt>
      <trkpt lat="45.98522" lon="4.83339">
        <ele>270</ele>
        <time>2018-01-31T10:45:31Z</time>
      </trkpt>
      <trkpt lat="45.98526" lon="4.83333">
        <ele>270</ele>
        <time>2018-01-31T10:45:32Z</time>
      </trkpt>
      <trkpt lat="45.9853" lon="4.83328">
        <ele>269</ele>
        <time>2018-01-31T10:45:33Z</time>
      </trkpt>
      <trkpt lat="45.98535" lon="4.83322">
        <ele>269</ele>
        <time>2018-01-31T10:45:34Z</time>
      </trkpt>
      <trkpt lat="45.98539" lon="4.83316">
        <ele>269</ele>
        <time>2018-01-31T10:45:35Z</time>
      </trkpt>
      <trkpt lat="45.98544" lon="4.8331">
        <ele>269</ele>
        <time>2018-01-31T10:45:36Z</time>
      </trkpt>
      <trkpt lat="45.98548" lon="4.83303">
        <ele>269</ele>
        <time>2018-01-31T10:45:37Z</time>
      </trkpt>
      <trkpt lat="45.98553" lon="4.83297">
        <ele>269</ele>
        <time>2018-01-31T10:45:38Z</time>
      </trkpt>
      <trkpt lat="45.98557" lon="4.8329">
        <ele>269</ele>
        <time>2018-01-31T10:45:39Z</time>
      </trkpt>
      <trkpt lat="45.98563" lon="4.83284">
        <ele>269</ele>
        <time>2018-01-31T10:45:40Z</time>
      </trkpt>
      <trkpt lat="45.98568" lon="4.83278">
        <ele>269</ele>
        <time>2018-01-31T10:45:41Z</time>
      </trkpt>
      <trkpt lat="45.98573" lon="4.83271">
        <ele>269</ele>
        <time>2018-01-31T10:45:42Z</time>
      </trkpt>
      <trkpt lat="45.98578" lon="4.83265">
        <ele>269</ele>
        <time>2018-01-31T10:45:43Z</time>
      </trkpt>
      <trkpt lat="45.98582" lon="4.83258">
        <ele>268</ele>
        <time>2018-01-31T10:45:44Z</time>
      </trkpt>
      <trkpt lat="45.98586" lon="4.83252">
        <ele>268</ele>
        <time>2018-01-31T10:45:45Z</time>
      </trkpt>
      <trkpt lat="45.9859" lon="4.83246">
        <ele>268</ele>
        <time>2018-01-31T10:45:46Z</time>
      </trkpt>
      <trkpt lat="45.98595" lon="4.8324">
        <ele>268</ele>
        <time>2018-01-31T10:45:47Z</time>
      </trkpt>
      <trkpt lat="45.98599" lon="4.83234">
        <ele>268</ele>
        <time>2018-01-31T10:45:48Z</time>
      </trkpt>
      <trkpt lat="45.98604" lon="4.83226">
        <ele>267</ele>
        <time>2018-01-31T10:45:49Z</time>
      </trkpt>
      <trkpt lat="45.98609" lon="4.8322">
        <ele>267</ele>
        <time>2018-01-31T10:45:50Z</time>
      </trkpt>
      <trkpt lat="45.98613" lon="4.83213">
        <ele>267</ele>
        <time>2018-01-31T10:45:51Z</time>
      </trkpt>
      <trkpt lat="45.98618" lon="4.83207">
        <ele>267</ele>
        <time>2018-01-31T10:45:52Z</time>
      </trkpt>
      <trkpt lat="45.98623" lon="4.83201">
        <ele>267</ele>
        <time>2018-01-31T10:45:53Z</time>
      </trkpt>
      <trkpt lat="45.98628" lon="4.83194">
        <ele>267</ele>
        <time>2018-01-31T10:45:54Z</time>
      </trkpt>
      <trkpt lat="45.98633" lon="4.83188">
        <ele>267</ele>
        <time>2018-01-31T10:45:55Z</time>
      </trkpt>
      <trkpt lat="45.98638" lon="4.83182">
        <ele>267</ele>
        <time>2018-01-31T10:45:56Z</time>
      </trkpt>
      <trkpt lat="45.98645" lon="4.83177">
        <ele>267</ele>
        <time>2018-01-31T10:45:57Z</time>
      </trkpt>
      <trkpt lat="45.9865" lon="4.83172">
        <ele>267</ele>
        <time>2018-01-31T10:45:58Z</time>
      </trkpt>
      <trkpt lat="45.98656" lon="4.83166">
        <ele>267</ele>
        <time>2018-01-31T10:45:59Z</time>
      </trkpt>
      <trkpt lat="45.98663" lon="4.83162">
        <ele>266</ele>
        <time>2018-01-31T10:46:00Z</time>
      </trkpt>
      <trkpt lat="45.98669" lon="4.83157">
        <ele>266</ele>
        <time>2018-01-31T10:46:01Z</time>
      </trkpt>
      <trkpt lat="45.98674" lon="4.83153">
        <ele>266</ele>
        <time>2018-01-31T10:46:02Z</time>
      </trkpt>
      <trkpt lat="45.9868" lon="4.83148">
        <ele>266</ele>
        <time>2018-01-31T10:46:03Z</time>
      </trkpt>
      <trkpt lat="45.98686" lon="4.83144">
        <ele>266</ele>
        <time>2018-01-31T10:46:04Z</time>
      </trkpt>
      <trkpt lat="45.98691" lon="4.8314">
        <ele>266</ele>
        <time>2018-01-31T10:46:05Z</time>
      </trkpt>
      <trkpt lat="45.98697" lon="4.83136">
        <ele>266</ele>
        <time>2018-01-31T10:46:06Z</time>
      </trkpt>
      <trkpt lat="45.98703" lon="4.83132">
        <ele>266</ele>
        <time>2018-01-31T10:46:07Z</time>
      </trkpt>
      <trkpt lat="45.98709" lon="4.83127">
        <ele>266</ele>
        <time>2018-01-31T10:46:08Z</time>
      </trkpt>
      <trkpt lat="45.98714" lon="4.83122">
        <ele>266</ele>
        <time>2018-01-31T10:46:09Z</time>
      </trkpt>
      <trkpt lat="45.98719" lon="4.83117">
        <ele>267</ele>
        <time>2018-01-31T10:46:10Z</time>
      </trkpt>
      <trkpt lat="45.98725" lon="4.83111">
        <ele>267</ele>
        <time>2018-01-31T10:46:11Z</time>
      </trkpt>
      <trkpt lat="45.9873" lon="4.83107">
        <ele>267</ele>
        <time>2018-01-31T10:46:12Z</time>
      </trkpt>
      <trkpt lat="45.98735" lon="4.83103">
        <ele>267</ele>
        <time>2018-01-31T10:46:13Z</time>
      </trkpt>
      <trkpt lat="45.9874" lon="4.83099">
        <ele>267</ele>
        <time>2018-01-31T10:46:14Z</time>
      </trkpt>
      <trkpt lat="45.98747" lon="4.83095">
        <ele>267</ele>
        <time>2018-01-31T10:46:15Z</time>
      </trkpt>
      <trkpt lat="45.98752" lon="4.83089">
        <ele>266</ele>
        <time>2018-01-31T10:46:16Z</time>
      </trkpt>
      <trkpt lat="45.98758" lon="4.83084">
        <ele>266</ele>
        <time>2018-01-31T10:46:17Z</time>
      </trkpt>
      <trkpt lat="45.98763" lon="4.83079">
        <ele>266</ele>
        <time>2018-01-31T10:46:18Z</time>
      </trkpt>
      <trkpt lat="45.9877" lon="4.83073">
        <ele>266</ele>
        <time>2018-01-31T10:46:19Z</time>
      </trkpt>
      <trkpt lat="45.98776" lon="4.83068">
        <ele>265</ele>
        <time>2018-01-31T10:46:20Z</time>
      </trkpt>
      <trkpt lat="45.98782" lon="4.83062">
        <ele>265</ele>
        <time>2018-01-31T10:46:21Z</time>
      </trkpt>
      <trkpt lat="45.98789" lon="4.83056">
        <ele>265</ele>
        <time>2018-01-31T10:46:22Z</time>
      </trkpt>
      <trkpt lat="45.98796" lon="4.83049">
        <ele>265</ele>
        <time>2018-01-31T10:46:23Z</time>
      </trkpt>
      <trkpt lat="45.98803" lon="4.83044">
        <ele>264</ele>
        <time>2018-01-31T10:46:24Z</time>
      </trkpt>
      <trkpt lat="45.9881" lon="4.83038">
        <ele>264</ele>
        <time>2018-01-31T10:46:25Z</time>
      </trkpt>
      <trkpt lat="45.98819" lon="4.83032">
        <ele>264</ele>
        <time>2018-01-31T10:46:26Z</time>
      </trkpt>
      <trkpt lat="45.98826" lon="4.83026">
        <ele>264</ele>
        <time>2018-01-31T10:46:27Z</time>
      </trkpt>
      <trkpt lat="45.98835" lon="4.8302">
        <ele>261</ele>
        <time>2018-01-31T10:46:28Z</time>
      </trkpt>
      <trkpt lat="45.98844" lon="4.83014">
        <ele>261</ele>
        <time>2018-01-31T10:46:29Z</time>
      </trkpt>
      <trkpt lat="45.98852" lon="4.83008">
        <ele>261</ele>
        <time>2018-01-31T10:46:30Z</time>
      </trkpt>
      <trkpt lat="45.9886" lon="4.83002">
        <ele>261</ele>
        <time>2018-01-31T10:46:31Z</time>
      </trkpt>
      <trkpt lat="45.98869" lon="4.82996">
        <ele>260</ele>
        <time>2018-01-31T10:46:32Z</time>
      </trkpt>
      <trkpt lat="45.9888" lon="4.82989">
        <ele>260</ele>
        <time>2018-01-31T10:46:33Z</time>
      </trkpt>
      <trkpt lat="45.98889" lon="4.82982">
        <ele>259</ele>
        <time>2018-01-31T10:46:34Z</time>
      </trkpt>
      <trkpt lat="45.98897" lon="4.82976">
        <ele>259</ele>
        <time>2018-01-31T10:46:35Z</time>
      </trkpt>
      <trkpt lat="45.98906" lon="4.82969">
        <ele>259</ele>
        <time>2018-01-31T10:46:36Z</time>
      </trkpt>
      <trkpt lat="45.98914" lon="4.82958">
        <ele>258</ele>
        <time>2018-01-31T10:46:37Z</time>
      </trkpt>
      <trkpt lat="45.9892" lon="4.82947">
        <ele>255</ele>
        <time>2018-01-31T10:46:38Z</time>
      </trkpt>
      <trkpt lat="45.98927" lon="4.82934">
        <ele>255</ele>
        <time>2018-01-31T10:46:39Z</time>
      </trkpt>
      <trkpt lat="45.98934" lon="4.8292">
        <ele>255</ele>
        <time>2018-01-31T10:46:40Z</time>
      </trkpt>
      <trkpt lat="45.98941" lon="4.82905">
        <ele>253</ele>
        <time>2018-01-31T10:46:41Z</time>
      </trkpt>
      <trkpt lat="45.98946" lon="4.82891">
        <ele>253</ele>
        <time>2018-01-31T10:46:42Z</time>
      </trkpt>
      <trkpt lat="45.98952" lon="4.82873">
        <ele>253</ele>
        <time>2018-01-31T10:46:43Z</time>
      </trkpt>
      <trkpt lat="45.9896" lon="4.82858">
        <ele>252</ele>
        <time>2018-01-31T10:46:44Z</time>
      </trkpt>
      <trkpt lat="45.98967" lon="4.82841">
        <ele>252</ele>
        <time>2018-01-31T10:46:45Z</time>
      </trkpt>
      <trkpt lat="45.98973" lon="4.82825">
        <ele>249</ele>
        <time>2018-01-31T10:46:46Z</time>
      </trkpt>
      <trkpt lat="45.98982" lon="4.82809">
        <ele>248</ele>
        <time>2018-01-31T10:46:47Z</time>
      </trkpt>
      <trkpt lat="45.98989" lon="4.82793">
        <ele>247</ele>
        <time>2018-01-31T10:46:48Z</time>
      </trkpt>
      <trkpt lat="45.98996" lon="4.82779">
        <ele>246</ele>
        <time>2018-01-31T10:46:49Z</time>
      </trkpt>
      <trkpt lat="45.99003" lon="4.82763">
        <ele>241</ele>
        <time>2018-01-31T10:46:50Z</time>
      </trkpt>
      <trkpt lat="45.9901" lon="4.82747">
        <ele>240</ele>
        <time>2018-01-31T10:46:51Z</time>
      </trkpt>
      <trkpt lat="45.99017" lon="4.82732">
        <ele>239</ele>
        <time>2018-01-31T10:46:52Z</time>
      </trkpt>
      <trkpt lat="45.99023" lon="4.82717">
        <ele>239</ele>
        <time>2018-01-31T10:46:53Z</time>
      </trkpt>
      <trkpt lat="45.9903" lon="4.82702">
        <ele>238</ele>
        <time>2018-01-31T10:46:54Z</time>
      </trkpt>
      <trkpt lat="45.99036" lon="4.82687">
        <ele>238</ele>
        <time>2018-01-31T10:46:55Z</time>
      </trkpt>
      <trkpt lat="45.99043" lon="4.82673">
        <ele>238</ele>
        <time>2018-01-31T10:46:56Z</time>
      </trkpt>
      <trkpt lat="45.99048" lon="4.82659">
        <ele>236</ele>
        <time>2018-01-31T10:46:57Z</time>
      </trkpt>
      <trkpt lat="45.99054" lon="4.82645">
        <ele>236</ele>
        <time>2018-01-31T10:46:58Z</time>
      </trkpt>
      <trkpt lat="45.99058" lon="4.82634">
        <ele>236</ele>
        <time>2018-01-31T10:46:59Z</time>
      </trkpt>
      <trkpt lat="45.99063" lon="4.82621">
        <ele>236</ele>
        <time>2018-01-31T10:47:00Z</time>
      </trkpt>
      <trkpt lat="45.99067" lon="4.82611">
        <ele>236</ele>
        <time>2018-01-31T10:47:01Z</time>
      </trkpt>
      <trkpt lat="45.99071" lon="4.82603">
        <ele>236</ele>
        <time>2018-01-31T10:47:02Z</time>
      </trkpt>
      <trkpt lat="45.99074" lon="4.82595">
        <ele>235</ele>
        <time>2018-01-31T10:47:03Z</time>
      </trkpt>
      <trkpt lat="45.99075" lon="4.82588">
        <ele>235</ele>
        <time>2018-01-31T10:47:04Z</time>
      </trkpt>
      <trkpt lat="45.99071" lon="4.82577">
        <ele>235</ele>
        <time>2018-01-31T10:47:06Z</time>
      </trkpt>
      <trkpt lat="45.99068" lon="4.82575">
        <ele>235</ele>
        <time>2018-01-31T10:47:07Z</time>
      </trkpt>
      <trkpt lat="45.99062" lon="4.82573">
        <ele>235</ele>
        <time>2018-01-31T10:47:08Z</time>
      </trkpt>
      <trkpt lat="45.99058" lon="4.82568">
        <ele>235</ele>
        <time>2018-01-31T10:47:09Z</time>
      </trkpt>
      <trkpt lat="45.99052" lon="4.82568">
        <ele>235</ele>
        <time>2018-01-31T10:47:10Z</time>
      </trkpt>
      <trkpt lat="45.99049" lon="4.82564">
        <ele>235</ele>
        <time>2018-01-31T10:47:11Z</time>
      </trkpt>
      <trkpt lat="45.99044" lon="4.8256">
        <ele>235</ele>
        <time>2018-01-31T10:47:12Z</time>
      </trkpt>
      <trkpt lat="45.9904" lon="4.82557">
        <ele>235</ele>
        <time>2018-01-31T10:47:13Z</time>
      </trkpt>
      <trkpt lat="45.99033" lon="4.82551">
        <ele>235</ele>
        <time>2018-01-31T10:47:15Z</time>
      </trkpt>
      <trkpt lat="45.99029" lon="4.82548">
        <ele>235</ele>
        <time>2018-01-31T10:47:16Z</time>
      </trkpt>
      <trkpt lat="45.99025" lon="4.82545">
        <ele>235</ele>
        <time>2018-01-31T10:47:17Z</time>
      </trkpt>
      <trkpt lat="45.99021" lon="4.8254">
        <ele>235</ele>
        <time>2018-01-31T10:47:18Z</time>
      </trkpt>
      <trkpt lat="45.99016" lon="4.82532">
        <ele>235</ele>
        <time>2018-01-31T10:47:20Z</time>
      </trkpt>
      <trkpt lat="45.99013" lon="4.82529">
        <ele>235</ele>
        <time>2018-01-31T10:47:21Z</time>
      </trkpt>
      <trkpt lat="45.99009" lon="4.82519">
        <ele>235</ele>
        <time>2018-01-31T10:47:23Z</time>
      </trkpt>
      <trkpt lat="45.99006" lon="4.82514">
        <ele>235</ele>
        <time>2018-01-31T10:47:24Z</time>
      </trkpt>
      <trkpt lat="45.99001" lon="4.82505">
        <ele>235</ele>
        <time>2018-01-31T10:47:26Z</time>
      </trkpt>
      <trkpt lat="45.98999" lon="4.82501">
        <ele>235</ele>
        <time>2018-01-31T10:47:27Z</time>
      </trkpt>
      <trkpt lat="45.98995" lon="4.82493">
        <ele>236</ele>
        <time>2018-01-31T10:47:29Z</time>
      </trkpt>
      <trkpt lat="45.98993" lon="4.82487">
        <ele>236</ele>
        <time>2018-01-31T10:47:30Z</time>
      </trkpt>
      <trkpt lat="45.98989" lon="4.82476">
        <ele>236</ele>
        <time>2018-01-31T10:47:32Z</time>
      </trkpt>
      <trkpt lat="45.98987" lon="4.8247">
        <ele>236</ele>
        <time>2018-01-31T10:47:33Z</time>
      </trkpt>
      <trkpt lat="45.98985" lon="4.82465">
        <ele>236</ele>
        <time>2018-01-31T10:47:34Z</time>
      </trkpt>
      <trkpt lat="45.98983" lon="4.82458">
        <ele>236</ele>
        <time>2018-01-31T10:47:35Z</time>
      </trkpt>
      <trkpt lat="45.9898" lon="4.82448">
        <ele>236</ele>
        <time>2018-01-31T10:47:37Z</time>
      </trkpt>
      <trkpt lat="45.98978" lon="4.82441">
        <ele>236</ele>
        <time>2018-01-31T10:47:38Z</time>
      </trkpt>
      <trkpt lat="45.98976" lon="4.82434">
        <ele>236</ele>
        <time>2018-01-31T10:47:39Z</time>
      </trkpt>
      <trkpt lat="45.98976" lon="4.82428">
        <ele>236</ele>
        <time>2018-01-31T10:47:40Z</time>
      </trkpt>
      <trkpt lat="45.98974" lon="4.82421">
        <ele>236</ele>
        <time>2018-01-31T10:47:41Z</time>
      </trkpt>
      <trkpt lat="45.98972" lon="4.82414">
        <ele>235</ele>
        <time>2018-01-31T10:47:42Z</time>
      </trkpt>
      <trkpt lat="45.98969" lon="4.82407">
        <ele>235</ele>
        <time>2018-01-31T10:47:43Z</time>
      </trkpt>
      <trkpt lat="45.98968" lon="4.82401">
        <ele>235</ele>
        <time>2018-01-31T10:47:44Z</time>
      </trkpt>
      <trkpt lat="45.98966" lon="4.82389">
        <ele>235</ele>
        <time>2018-01-31T10:47:46Z</time>
      </trkpt>
      <trkpt lat="45.98962" lon="4.82382">
        <ele>235</ele>
        <time>2018-01-31T10:47:47Z</time>
      </trkpt>
      <trkpt lat="45.98959" lon="4.8237">
        <ele>235</ele>
        <time>2018-01-31T10:47:49Z</time>
      </trkpt>
      <trkpt lat="45.98957" lon="4.82363">
        <ele>235</ele>
        <time>2018-01-31T10:47:50Z</time>
      </trkpt>
      <trkpt lat="45.98955" lon="4.82357">
        <ele>235</ele>
        <time>2018-01-31T10:47:51Z</time>
      </trkpt>
      <trkpt lat="45.98954" lon="4.82351">
        <ele>235</ele>
        <time>2018-01-31T10:47:52Z</time>
      </trkpt>
      <trkpt lat="45.98949" lon="4.82341">
        <ele>235</ele>
        <time>2018-01-31T10:47:54Z</time>
      </trkpt>
      <trkpt lat="45.98946" lon="4.82335">
        <ele>235</ele>
        <time>2018-01-31T10:47:55Z</time>
      </trkpt>
      <trkpt lat="45.98943" lon="4.8233">
        <ele>234</ele>
        <time>2018-01-31T10:47:56Z</time>
      </trkpt>
      <trkpt lat="45.9894" lon="4.82324">
        <ele>234</ele>
        <time>2018-01-31T10:47:57Z</time>
      </trkpt>
      <trkpt lat="45.98937" lon="4.8232">
        <ele>235</ele>
        <time>2018-01-31T10:47:58Z</time>
      </trkpt>
      <trkpt lat="45.98933" lon="4.82314">
        <ele>235</ele>
        <time>2018-01-31T10:47:59Z</time>
      </trkpt>
      <trkpt lat="45.98926" lon="4.82306">
        <ele>234</ele>
        <time>2018-01-31T10:48:01Z</time>
      </trkpt>
      <trkpt lat="45.98924" lon="4.82302">
        <ele>234</ele>
        <time>2018-01-31T10:48:02Z</time>
      </trkpt>
      <trkpt lat="45.9892" lon="4.82298">
        <ele>234</ele>
        <time>2018-01-31T10:48:03Z</time>
      </trkpt>
      <trkpt lat="45.98916" lon="4.82293">
        <ele>236</ele>
        <time>2018-01-31T10:48:04Z</time>
      </trkpt>
      <trkpt lat="45.98913" lon="4.82288">
        <ele>236</ele>
        <time>2018-01-31T10:48:05Z</time>
      </trkpt>
      <trkpt lat="45.98909" lon="4.82284">
        <ele>236</ele>
        <time>2018-01-31T10:48:06Z</time>
      </trkpt>
      <trkpt lat="45.98904" lon="4.82279">
        <ele>236</ele>
        <time>2018-01-31T10:48:07Z</time>
      </trkpt>
      <trkpt lat="45.989" lon="4.82274">
        <ele>236</ele>
        <time>2018-01-31T10:48:08Z</time>
      </trkpt>
      <trkpt lat="45.98894" lon="4.82265">
        <ele>236</ele>
        <time>2018-01-31T10:48:10Z</time>
      </trkpt>
      <trkpt lat="45.98892" lon="4.8226">
        <ele>236</ele>
        <time>2018-01-31T10:48:11Z</time>
      </trkpt>
      <trkpt lat="45.98887" lon="4.8225">
        <ele>235</ele>
        <time>2018-01-31T10:48:13Z</time>
      </trkpt>
      <trkpt lat="45.98886" lon="4.82245">
        <ele>235</ele>
        <time>2018-01-31T10:48:14Z</time>
      </trkpt>
      <trkpt lat="45.98884" lon="4.82239">
        <ele>236</ele>
        <time>2018-01-31T10:48:15Z</time>
      </trkpt>
      <trkpt lat="45.9888" lon="4.82231">
        <ele>236</ele>
        <time>2018-01-31T10:48:16Z</time>
      </trkpt>
      <trkpt lat="45.98878" lon="4.82225">
        <ele>236</ele>
        <time>2018-01-31T10:48:17Z</time>
      </trkpt>
      <trkpt lat="45.98875" lon="4.82219">
        <ele>236</ele>
        <time>2018-01-31T10:48:18Z</time>
      </trkpt>
      <trkpt lat="45.98872" lon="4.82214">
        <ele>236</ele>
        <time>2018-01-31T10:48:19Z</time>
      </trkpt>
      <trkpt lat="45.9887" lon="4.82208">
        <ele>236</ele>
        <time>2018-01-31T10:48:20Z</time>
      </trkpt>
      <trkpt lat="45.98867" lon="4.82202">
        <ele>236</ele>
        <time>2018-01-31T10:48:21Z</time>
      </trkpt>
      <trkpt lat="45.98865" lon="4.82196">
        <ele>236</ele>
        <time>2018-01-31T10:48:22Z</time>
      </trkpt>
      <trkpt lat="45.98861" lon="4.82191">
        <ele>236</ele>
        <time>2018-01-31T10:48:23Z</time>
      </trkpt>
      <trkpt lat="45.98859" lon="4.82185">
        <ele>236</ele>
        <time>2018-01-31T10:48:24Z</time>
      </trkpt>
      <trkpt lat="45.98854" lon="4.82174">
        <ele>236</ele>
        <time>2018-01-31T10:48:26Z</time>
      </trkpt>
      <trkpt lat="45.98852" lon="4.82169">
        <ele>236</ele>
        <time>2018-01-31T10:48:27Z</time>
      </trkpt>
      <trkpt lat="45.9885" lon="4.82161">
        <ele>236</ele>
        <time>2018-01-31T10:48:28Z</time>
      </trkpt>
      <trkpt lat="45.98849" lon="4.82154">
        <ele>236</ele>
        <time>2018-01-31T10:48:29Z</time>
      </trkpt>
      <trkpt lat="45.98846" lon="4.82144">
        <ele>236</ele>
        <time>2018-01-31T10:48:31Z</time>
      </trkpt>
      <trkpt lat="45.98844" lon="4.82137">
        <ele>236</ele>
        <time>2018-01-31T10:48:32Z</time>
      </trkpt>
      <trkpt lat="45.98841" lon="4.82126">
        <ele>236</ele>
        <time>2018-01-31T10:48:34Z</time>
      </trkpt>
      <trkpt lat="45.9884" lon="4.82119">
        <ele>235</ele>
        <time>2018-01-31T10:48:35Z</time>
      </trkpt>
      <trkpt lat="45.98838" lon="4.82108">
        <ele>235</ele>
        <time>2018-01-31T10:48:37Z</time>
      </trkpt>
      <trkpt lat="45.98837" lon="4.82102">
        <ele>236</ele>
        <time>2018-01-31T10:48:38Z</time>
      </trkpt>
      <trkpt lat="45.98836" lon="4.82091">
        <ele>236</ele>
        <time>2018-01-31T10:48:40Z</time>
      </trkpt>
      <trkpt lat="45.98835" lon="4.82085">
        <ele>236</ele>
        <time>2018-01-31T10:48:41Z</time>
      </trkpt>
      <trkpt lat="45.98833" lon="4.82073">
        <ele>237</ele>
        <time>2018-01-31T10:48:43Z</time>
      </trkpt>
      <trkpt lat="45.98831" lon="4.82068">
        <ele>237</ele>
        <time>2018-01-31T10:48:44Z</time>
      </trkpt>
      <trkpt lat="45.98829" lon="4.82055">
        <ele>237</ele>
        <time>2018-01-31T10:48:46Z</time>
      </trkpt>
      <trkpt lat="45.98828" lon="4.82049">
        <ele>238</ele>
        <time>2018-01-31T10:48:47Z</time>
      </trkpt>
      <trkpt lat="45.98828" lon="4.82038">
        <ele>238</ele>
        <time>2018-01-31T10:48:49Z</time>
      </trkpt>
      <trkpt lat="45.98827" lon="4.82031">
        <ele>238</ele>
        <time>2018-01-31T10:48:50Z</time>
      </trkpt>
      <trkpt lat="45.98827" lon="4.82019">
        <ele>238</ele>
        <time>2018-01-31T10:48:52Z</time>
      </trkpt>
      <trkpt lat="45.98826" lon="4.82013">
        <ele>238</ele>
        <time>2018-01-31T10:48:53Z</time>
      </trkpt>
      <trkpt lat="45.98824" lon="4.82007">
        <ele>238</ele>
        <time>2018-01-31T10:48:54Z</time>
      </trkpt>
      <trkpt lat="45.98822" lon="4.81999">
        <ele>238</ele>
        <time>2018-01-31T10:48:55Z</time>
      </trkpt>
      <trkpt lat="45.9882" lon="4.81993">
        <ele>238</ele>
        <time>2018-01-31T10:48:56Z</time>
      </trkpt>
      <trkpt lat="45.98818" lon="4.81986">
        <ele>238</ele>
        <time>2018-01-31T10:48:57Z</time>
      </trkpt>
      <trkpt lat="45.98816" lon="4.81975">
        <ele>239</ele>
        <time>2018-01-31T10:48:59Z</time>
      </trkpt>
      <trkpt lat="45.98815" lon="4.81968">
        <ele>239</ele>
        <time>2018-01-31T10:49:00Z</time>
      </trkpt>
      <trkpt lat="45.98813" lon="4.81956">
        <ele>239</ele>
        <time>2018-01-31T10:49:02Z</time>
      </trkpt>
      <trkpt lat="45.98813" lon="4.81949">
        <ele>239</ele>
        <time>2018-01-31T10:49:03Z</time>
      </trkpt>
      <trkpt lat="45.98812" lon="4.81937">
        <ele>239</ele>
        <time>2018-01-31T10:49:05Z</time>
      </trkpt>
      <trkpt lat="45.9881" lon="4.81931">
        <ele>239</ele>
        <time>2018-01-31T10:49:06Z</time>
      </trkpt>
      <trkpt lat="45.9881" lon="4.81924">
        <ele>239</ele>
        <time>2018-01-31T10:49:07Z</time>
      </trkpt>
      <trkpt lat="45.98809" lon="4.81917">
        <ele>239</ele>
        <time>2018-01-31T10:49:08Z</time>
      </trkpt>
      <trkpt lat="45.98808" lon="4.8191">
        <ele>239</ele>
        <time>2018-01-31T10:49:09Z</time>
      </trkpt>
      <trkpt lat="45.98806" lon="4.81903">
        <ele>239</ele>
        <time>2018-01-31T10:49:10Z</time>
      </trkpt>
      <trkpt lat="45.98803" lon="4.81892">
        <ele>239</ele>
        <time>2018-01-31T10:49:12Z</time>
      </trkpt>
      <trkpt lat="45.98802" lon="4.81886">
        <ele>239</ele>
        <time>2018-01-31T10:49:13Z</time>
      </trkpt>
      <trkpt lat="45.98799" lon="4.81876">
        <ele>239</ele>
        <time>2018-01-31T10:49:15Z</time>
      </trkpt>
      <trkpt lat="45.98798" lon="4.81871">
        <ele>239</ele>
        <time>2018-01-31T10:49:16Z</time>
      </trkpt>
      <trkpt lat="45.98793" lon="4.81861">
        <ele>239</ele>
        <time>2018-01-31T10:49:18Z</time>
      </trkpt>
      <trkpt lat="45.98791" lon="4.81856">
        <ele>239</ele>
        <time>2018-01-31T10:49:19Z</time>
      </trkpt>
      <trkpt lat="45.98788" lon="4.81846">
        <ele>239</ele>
        <time>2018-01-31T10:49:21Z</time>
      </trkpt>
      <trkpt lat="45.98786" lon="4.81842">
        <ele>239</ele>
        <time>2018-01-31T10:49:22Z</time>
      </trkpt>
      <trkpt lat="45.98782" lon="4.81832">
        <ele>240</ele>
        <time>2018-01-31T10:49:24Z</time>
      </trkpt>
      <trkpt lat="45.98781" lon="4.81825">
        <ele>240</ele>
        <time>2018-01-31T10:49:25Z</time>
      </trkpt>
      <trkpt lat="45.98777" lon="4.81815">
        <ele>240</ele>
        <time>2018-01-31T10:49:27Z</time>
      </trkpt>
      <trkpt lat="45.98775" lon="4.8181">
        <ele>240</ele>
        <time>2018-01-31T10:49:28Z</time>
      </trkpt>
      <trkpt lat="45.98771" lon="4.81802">
        <ele>240</ele>
        <time>2018-01-31T10:49:30Z</time>
      </trkpt>
      <trkpt lat="45.98769" lon="4.81798">
        <ele>240</ele>
        <time>2018-01-31T10:49:31Z</time>
      </trkpt>
      <trkpt lat="45.98764" lon="4.81791">
        <ele>241</ele>
        <time>2018-01-31T10:49:33Z</time>
      </trkpt>
      <trkpt lat="45.98762" lon="4.81786">
        <ele>241</ele>
        <time>2018-01-31T10:49:34Z</time>
      </trkpt>
      <trkpt lat="45.98757" lon="4.81778">
        <ele>241</ele>
        <time>2018-01-31T10:49:36Z</time>
      </trkpt>
      <trkpt lat="45.98755" lon="4.81774">
        <ele>241</ele>
        <time>2018-01-31T10:49:37Z</time>
      </trkpt>
      <trkpt lat="45.98749" lon="4.81766">
        <ele>240</ele>
        <time>2018-01-31T10:49:39Z</time>
      </trkpt>
      <trkpt lat="45.98747" lon="4.81763">
        <ele>240</ele>
        <time>2018-01-31T10:49:40Z</time>
      </trkpt>
      <trkpt lat="45.98743" lon="4.81756">
        <ele>240</ele>
        <time>2018-01-31T10:49:42Z</time>
      </trkpt>
      <trkpt lat="45.98741" lon="4.81752">
        <ele>240</ele>
        <time>2018-01-31T10:49:43Z</time>
      </trkpt>
      <trkpt lat="45.98737" lon="4.81744">
        <ele>240</ele>
        <time>2018-01-31T10:49:45Z</time>
      </trkpt>
      <trkpt lat="45.98733" lon="4.81738">
        <ele>240</ele>
        <time>2018-01-31T10:49:46Z</time>
      </trkpt>
      <trkpt lat="45.9873" lon="4.81734">
        <ele>239</ele>
        <time>2018-01-31T10:49:47Z</time>
      </trkpt>
      <trkpt lat="45.98726" lon="4.8173">
        <ele>239</ele>
        <time>2018-01-31T10:49:48Z</time>
      </trkpt>
      <trkpt lat="45.9872" lon="4.81728">
        <ele>239</ele>
        <time>2018-01-31T10:49:49Z</time>
      </trkpt>
      <trkpt lat="45.98715" lon="4.81727">
        <ele>239</ele>
        <time>2018-01-31T10:49:50Z</time>
      </trkpt>
      <trkpt lat="45.98709" lon="4.81728">
        <ele>239</ele>
        <time>2018-01-31T10:49:51Z</time>
      </trkpt>
      <trkpt lat="45.98704" lon="4.81728">
        <ele>239</ele>
        <time>2018-01-31T10:49:52Z</time>
      </trkpt>
      <trkpt lat="45.98697" lon="4.81731">
        <ele>239</ele>
        <time>2018-01-31T10:49:54Z</time>
      </trkpt>
      <trkpt lat="45.98693" lon="4.81731">
        <ele>238</ele>
        <time>2018-01-31T10:49:55Z</time>
      </trkpt>
      <trkpt lat="45.98685" lon="4.81732">
        <ele>238</ele>
        <time>2018-01-31T10:49:57Z</time>
      </trkpt>
      <trkpt lat="45.98682" lon="4.81733">
        <ele>238</ele>
        <time>2018-01-31T10:49:58Z</time>
      </trkpt>
      <trkpt lat="45.98674" lon="4.81733">
        <ele>238</ele>
        <time>2018-01-31T10:50:00Z</time>
      </trkpt>
      <trkpt lat="45.98671" lon="4.81736">
        <ele>238</ele>
        <time>2018-01-31T10:50:01Z</time>
      </trkpt>
      <trkpt lat="45.98664" lon="4.81738">
        <ele>237</ele>
        <time>2018-01-31T10:50:03Z</time>
      </trkpt>
      <trkpt lat="45.9866" lon="4.81739">
        <ele>237</ele>
        <time>2018-01-31T10:50:04Z</time>
      </trkpt>
      <trkpt lat="45.98654" lon="4.81741">
        <ele>237</ele>
        <time>2018-01-31T10:50:05Z</time>
      </trkpt>
      <trkpt lat="45.9865" lon="4.81743">
        <ele>237</ele>
        <time>2018-01-31T10:50:06Z</time>
      </trkpt>
      <trkpt lat="45.98645" lon="4.81744">
        <ele>237</ele>
        <time>2018-01-31T10:50:07Z</time>
      </trkpt>
      <trkpt lat="45.9864" lon="4.81746">
        <ele>237</ele>
        <time>2018-01-31T10:50:08Z</time>
      </trkpt>
      <trkpt lat="45.98635" lon="4.81748">
        <ele>237</ele>
        <time>2018-01-31T10:50:09Z</time>
      </trkpt>
      <trkpt lat="45.9863" lon="4.8175">
        <ele>237</ele>
        <time>2018-01-31T10:50:10Z</time>
      </trkpt>
      <trkpt lat="45.98625" lon="4.81751">
        <ele>238</ele>
        <time>2018-01-31T10:50:11Z</time>
      </trkpt>
      <trkpt lat="45.9862" lon="4.81752">
        <ele>238</ele>
        <time>2018-01-31T10:50:12Z</time>
      </trkpt>
      <trkpt lat="45.98615" lon="4.81754">
        <ele>238</ele>
        <time>2018-01-31T10:50:13Z</time>
      </trkpt>
      <trkpt lat="45.9861" lon="4.81756">
        <ele>238</ele>
        <time>2018-01-31T10:50:14Z</time>
      </trkpt>
      <trkpt lat="45.98605" lon="4.81758">
        <ele>238</ele>
        <time>2018-01-31T10:50:15Z</time>
      </trkpt>
      <trkpt lat="45.986" lon="4.8176">
        <ele>238</ele>
        <time>2018-01-31T10:50:16Z</time>
      </trkpt>
      <trkpt lat="45.98596" lon="4.81763">
        <ele>238</ele>
        <time>2018-01-31T10:50:17Z</time>
      </trkpt>
      <trkpt lat="45.98591" lon="4.81766">
        <ele>238</ele>
        <time>2018-01-31T10:50:18Z</time>
      </trkpt>
      <trkpt lat="45.98586" lon="4.8177">
        <ele>238</ele>
        <time>2018-01-31T10:50:19Z</time>
      </trkpt>
      <trkpt lat="45.98581" lon="4.81773">
        <ele>237</ele>
        <time>2018-01-31T10:50:20Z</time>
      </trkpt>
      <trkpt lat="45.98574" lon="4.81781">
        <ele>238</ele>
        <time>2018-01-31T10:50:22Z</time>
      </trkpt>
      <trkpt lat="45.98572" lon="4.81786">
        <ele>238</ele>
        <time>2018-01-31T10:50:23Z</time>
      </trkpt>
      <trkpt lat="45.98565" lon="4.81794">
        <ele>238</ele>
        <time>2018-01-31T10:50:25Z</time>
      </trkpt>
      <trkpt lat="45.98562" lon="4.81798">
        <ele>238</ele>
        <time>2018-01-31T10:50:26Z</time>
      </trkpt>
      <trkpt lat="45.98555" lon="4.81804">
        <ele>238</ele>
        <time>2018-01-31T10:50:28Z</time>
      </trkpt>
      <trkpt lat="45.98551" lon="4.81804">
        <ele>238</ele>
        <time>2018-01-31T10:50:29Z</time>
      </trkpt>
      <trkpt lat="45.98542" lon="4.81803">
        <ele>238</ele>
        <time>2018-01-31T10:50:31Z</time>
      </trkpt>
      <trkpt lat="45.98538" lon="4.81799">
        <ele>238</ele>
        <time>2018-01-31T10:50:32Z</time>
      </trkpt>
      <trkpt lat="45.98531" lon="4.81791">
        <ele>238</ele>
        <time>2018-01-31T10:50:34Z</time>
      </trkpt>
      <trkpt lat="45.98529" lon="4.81787">
        <ele>238</ele>
        <time>2018-01-31T10:50:35Z</time>
      </trkpt>
      <trkpt lat="45.98522" lon="4.81779">
        <ele>238</ele>
        <time>2018-01-31T10:50:37Z</time>
      </trkpt>
      <trkpt lat="45.9852" lon="4.81775">
        <ele>238</ele>
        <time>2018-01-31T10:50:38Z</time>
      </trkpt>
      <trkpt lat="45.98515" lon="4.81767">
        <ele>237</ele>
        <time>2018-01-31T10:50:40Z</time>
      </trkpt>
      <trkpt lat="45.98512" lon="4.81764">
        <ele>237</ele>
        <time>2018-01-31T10:50:41Z</time>
      </trkpt>
      <trkpt lat="45.98506" lon="4.81757">
        <ele>237</ele>
        <time>2018-01-31T10:50:43Z</time>
      </trkpt>
      <trkpt lat="45.98504" lon="4.81754">
        <ele>237</ele>
        <time>2018-01-31T10:50:44Z</time>
      </trkpt>
      <trkpt lat="45.98499" lon="4.81747">
        <ele>237</ele>
        <time>2018-01-31T10:50:46Z</time>
      </trkpt>
      <trkpt lat="45.98497" lon="4.81744">
        <ele>237</ele>
        <time>2018-01-31T10:50:47Z</time>
      </trkpt>
      <trkpt lat="45.98491" lon="4.81739">
        <ele>238</ele>
        <time>2018-01-31T10:50:49Z</time>
      </trkpt>
      <trkpt lat="45.98488" lon="4.81737">
        <ele>238</ele>
        <time>2018-01-31T10:50:50Z</time>
      </trkpt>
      <trkpt lat="45.98482" lon="4.81732">
        <ele>238</ele>
        <time>2018-01-31T10:50:52Z</time>
      </trkpt>
      <trkpt lat="45.98479" lon="4.8173">
        <ele>238</ele>
        <time>2018-01-31T10:50:53Z</time>
      </trkpt>
      <trkpt lat="45.98473" lon="4.81724">
        <ele>239</ele>
        <time>2018-01-31T10:50:55Z</time>
      </trkpt>
      <trkpt lat="45.98471" lon="4.81721">
        <ele>239</ele>
        <time>2018-01-31T10:50:56Z</time>
      </trkpt>
      <trkpt lat="45.98464" lon="4.81715">
        <ele>239</ele>
        <time>2018-01-31T10:50:59Z</time>
      </trkpt>
      <trkpt lat="45.98462" lon="4.81713">
        <ele>239</ele>
        <time>2018-01-31T10:51:00Z</time>
      </trkpt>
      <trkpt lat="45.98457" lon="4.81703">
        <ele>239</ele>
        <time>2018-01-31T10:51:03Z</time>
      </trkpt>
      <trkpt lat="45.98456" lon="4.817">
        <ele>239</ele>
        <time>2018-01-31T10:51:04Z</time>
      </trkpt>
      <trkpt lat="45.98451" lon="4.81689">
        <ele>239</ele>
        <time>2018-01-31T10:51:07Z</time>
      </trkpt>
      <trkpt lat="45.98449" lon="4.81685">
        <ele>239</ele>
        <time>2018-01-31T10:51:08Z</time>
      </trkpt>
      <trkpt lat="45.98445" lon="4.81677">
        <ele>239</ele>
        <time>2018-01-31T10:51:10Z</time>
      </trkpt>
      <trkpt lat="45.98443" lon="4.81674">
        <ele>239</ele>
        <time>2018-01-31T10:51:11Z</time>
      </trkpt>
      <trkpt lat="45.98438" lon="4.81667">
        <ele>240</ele>
        <time>2018-01-31T10:51:13Z</time>
      </trkpt>
      <trkpt lat="45.98435" lon="4.81665">
        <ele>239</ele>
        <time>2018-01-31T10:51:14Z</time>
      </trkpt>
      <trkpt lat="45.98429" lon="4.81661">
        <ele>239</ele>
        <time>2018-01-31T10:51:16Z</time>
      </trkpt>
      <trkpt lat="45.98425" lon="4.8166">
        <ele>240</ele>
        <time>2018-01-31T10:51:17Z</time>
      </trkpt>
      <trkpt lat="45.98416" lon="4.8166">
        <ele>241</ele>
        <time>2018-01-31T10:51:19Z</time>
      </trkpt>
      <trkpt lat="45.98412" lon="4.81661">
        <ele>241</ele>
        <time>2018-01-31T10:51:20Z</time>
      </trkpt>
      <trkpt lat="45.98404" lon="4.81663">
        <ele>241</ele>
        <time>2018-01-31T10:51:22Z</time>
      </trkpt>
      <trkpt lat="45.984" lon="4.81665">
        <ele>242</ele>
        <time>2018-01-31T10:51:23Z</time>
      </trkpt>
      <trkpt lat="45.98391" lon="4.81667">
        <ele>243</ele>
        <time>2018-01-31T10:51:25Z</time>
      </trkpt>
      <trkpt lat="45.98387" lon="4.81669">
        <ele>243</ele>
        <time>2018-01-31T10:51:26Z</time>
      </trkpt>
      <trkpt lat="45.98379" lon="4.81671">
        <ele>244</ele>
        <time>2018-01-31T10:51:28Z</time>
      </trkpt>
      <trkpt lat="45.98374" lon="4.81672">
        <ele>244</ele>
        <time>2018-01-31T10:51:29Z</time>
      </trkpt>
      <trkpt lat="45.98366" lon="4.81673">
        <ele>244</ele>
        <time>2018-01-31T10:51:31Z</time>
      </trkpt>
      <trkpt lat="45.98362" lon="4.81674">
        <ele>244</ele>
        <time>2018-01-31T10:51:32Z</time>
      </trkpt>
      <trkpt lat="45.98355" lon="4.81673">
        <ele>245</ele>
        <time>2018-01-31T10:51:34Z</time>
      </trkpt>
      <trkpt lat="45.98351" lon="4.81673">
        <ele>245</ele>
        <time>2018-01-31T10:51:35Z</time>
      </trkpt>
      <trkpt lat="45.98344" lon="4.81671">
        <ele>245</ele>
        <time>2018-01-31T10:51:37Z</time>
      </trkpt>
      <trkpt lat="45.98341" lon="4.8167">
        <ele>245</ele>
        <time>2018-01-31T10:51:38Z</time>
      </trkpt>
      <trkpt lat="45.98334" lon="4.81666">
        <ele>246</ele>
        <time>2018-01-31T10:51:40Z</time>
      </trkpt>
      <trkpt lat="45.98331" lon="4.81665">
        <ele>246</ele>
        <time>2018-01-31T10:51:41Z</time>
      </trkpt>
      <trkpt lat="45.98325" lon="4.8166">
        <ele>246</ele>
        <time>2018-01-31T10:51:43Z</time>
      </trkpt>
      <trkpt lat="45.98321" lon="4.81658">
        <ele>246</ele>
        <time>2018-01-31T10:51:44Z</time>
      </trkpt>
      <trkpt lat="45.98315" lon="4.81652">
        <ele>246</ele>
        <time>2018-01-31T10:51:46Z</time>
      </trkpt>
      <trkpt lat="45.98312" lon="4.8165">
        <ele>246</ele>
        <time>2018-01-31T10:51:47Z</time>
      </trkpt>
      <trkpt lat="45.98305" lon="4.81644">
        <ele>246</ele>
        <time>2018-01-31T10:51:49Z</time>
      </trkpt>
      <trkpt lat="45.98302" lon="4.81641">
        <ele>246</ele>
        <time>2018-01-31T10:51:50Z</time>
      </trkpt>
      <trkpt lat="45.98296" lon="4.81635">
        <ele>247</ele>
        <time>2018-01-31T10:51:52Z</time>
      </trkpt>
      <trkpt lat="45.98293" lon="4.81631">
        <ele>247</ele>
        <time>2018-01-31T10:51:53Z</time>
      </trkpt>
      <trkpt lat="45.98287" lon="4.81623">
        <ele>247</ele>
        <time>2018-01-31T10:51:55Z</time>
      </trkpt>
      <trkpt lat="45.98285" lon="4.81618">
        <ele>247</ele>
        <time>2018-01-31T10:51:56Z</time>
      </trkpt>
      <trkpt lat="45.9828" lon="4.81608">
        <ele>247</ele>
        <time>2018-01-31T10:51:58Z</time>
      </trkpt>
      <trkpt lat="45.98278" lon="4.81603">
        <ele>247</ele>
        <time>2018-01-31T10:51:59Z</time>
      </trkpt>
      <trkpt lat="45.98275" lon="4.81592">
        <ele>247</ele>
        <time>2018-01-31T10:52:01Z</time>
      </trkpt>
      <trkpt lat="45.98273" lon="4.81587">
        <ele>247</ele>
        <time>2018-01-31T10:52:02Z</time>
      </trkpt>
      <trkpt lat="45.9827" lon="4.81577">
        <ele>247</ele>
        <time>2018-01-31T10:52:04Z</time>
      </trkpt>
      <trkpt lat="45.98268" lon="4.81572">
        <ele>247</ele>
        <time>2018-01-31T10:52:05Z</time>
      </trkpt>
      <trkpt lat="45.98264" lon="4.81562">
        <ele>247</ele>
        <time>2018-01-31T10:52:07Z</time>
      </trkpt>
      <trkpt lat="45.98263" lon="4.81557">
        <ele>247</ele>
        <time>2018-01-31T10:52:08Z</time>
      </trkpt>
      <trkpt lat="45.98259" lon="4.81547">
        <ele>247</ele>
        <time>2018-01-31T10:52:10Z</time>
      </trkpt>
      <trkpt lat="45.98258" lon="4.81542">
        <ele>247</ele>
        <time>2018-01-31T10:52:11Z</time>
      </trkpt>
      <trkpt lat="45.98255" lon="4.81532">
        <ele>247</ele>
        <time>2018-01-31T10:52:13Z</time>
      </trkpt>
      <trkpt lat="45.98253" lon="4.81526">
        <ele>247</ele>
        <time>2018-01-31T10:52:14Z</time>
      </trkpt>
      <trkpt lat="45.98249" lon="4.81516">
        <ele>249</ele>
        <time>2018-01-31T10:52:16Z</time>
      </trkpt>
      <trkpt lat="45.98248" lon="4.81511">
        <ele>249</ele>
        <time>2018-01-31T10:52:17Z</time>
      </trkpt>
      <trkpt lat="45.98244" lon="4.815">
        <ele>249</ele>
        <time>2018-01-31T10:52:19Z</time>
      </trkpt>
      <trkpt lat="45.98242" lon="4.81495">
        <ele>249</ele>
        <time>2018-01-31T10:52:20Z</time>
      </trkpt>
      <trkpt lat="45.98239" lon="4.81484">
        <ele>249</ele>
        <time>2018-01-31T10:52:22Z</time>
      </trkpt>
      <trkpt lat="45.98237" lon="4.81479">
        <ele>249</ele>
        <time>2018-01-31T10:52:23Z</time>
      </trkpt>
      <trkpt lat="45.98234" lon="4.81468">
        <ele>249</ele>
        <time>2018-01-31T10:52:25Z</time>
      </trkpt>
      <trkpt lat="45.98233" lon="4.81463">
        <ele>249</ele>
        <time>2018-01-31T10:52:26Z</time>
      </trkpt>
      <trkpt lat="45.98229" lon="4.81453">
        <ele>249</ele>
        <time>2018-01-31T10:52:28Z</time>
      </trkpt>
      <trkpt lat="45.98227" lon="4.81448">
        <ele>249</ele>
        <time>2018-01-31T10:52:29Z</time>
      </trkpt>
      <trkpt lat="45.98223" lon="4.81438">
        <ele>249</ele>
        <time>2018-01-31T10:52:31Z</time>
      </trkpt>
      <trkpt lat="45.98222" lon="4.81433">
        <ele>249</ele>
        <time>2018-01-31T10:52:32Z</time>
      </trkpt>
      <trkpt lat="45.98219" lon="4.81423">
        <ele>249</ele>
        <time>2018-01-31T10:52:34Z</time>
      </trkpt>
      <trkpt lat="45.98217" lon="4.81419">
        <ele>249</ele>
        <time>2018-01-31T10:52:35Z</time>
      </trkpt>
      <trkpt lat="45.98214" lon="4.8141">
        <ele>248</ele>
        <time>2018-01-31T10:52:37Z</time>
      </trkpt>
      <trkpt lat="45.98212" lon="4.81405">
        <ele>248</ele>
        <time>2018-01-31T10:52:38Z</time>
      </trkpt>
      <trkpt lat="45.98208" lon="4.81394">
        <ele>248</ele>
        <time>2018-01-31T10:52:40Z</time>
      </trkpt>
      <trkpt lat="45.98206" lon="4.81389">
        <ele>248</ele>
        <time>2018-01-31T10:52:41Z</time>
      </trkpt>
      <trkpt lat="45.98203" lon="4.81377">
        <ele>248</ele>
        <time>2018-01-31T10:52:43Z</time>
      </trkpt>
      <trkpt lat="45.98201" lon="4.8137">
        <ele>248</ele>
        <time>2018-01-31T10:52:44Z</time>
      </trkpt>
      <trkpt lat="45.98199" lon="4.81358">
        <ele>248</ele>
        <time>2018-01-31T10:52:46Z</time>
      </trkpt>
      <trkpt lat="45.98198" lon="4.8135">
        <ele>248</ele>
        <time>2018-01-31T10:52:47Z</time>
      </trkpt>
      <trkpt lat="45.98197" lon="4.81343">
        <ele>248</ele>
        <time>2018-01-31T10:52:48Z</time>
      </trkpt>
      <trkpt lat="45.98197" lon="4.81336">
        <ele>248</ele>
        <time>2018-01-31T10:52:49Z</time>
      </trkpt>
      <trkpt lat="45.98195" lon="4.81329">
        <ele>247</ele>
        <time>2018-01-31T10:52:50Z</time>
      </trkpt>
      <trkpt lat="45.98193" lon="4.81321">
        <ele>247</ele>
        <time>2018-01-31T10:52:51Z</time>
      </trkpt>
      <trkpt lat="45.98192" lon="4.81314">
        <ele>247</ele>
        <time>2018-01-31T10:52:52Z</time>
      </trkpt>
      <trkpt lat="45.98189" lon="4.81307">
        <ele>247</ele>
        <time>2018-01-31T10:52:53Z</time>
      </trkpt>
      <trkpt lat="45.98187" lon="4.81299">
        <ele>247</ele>
        <time>2018-01-31T10:52:54Z</time>
      </trkpt>
      <trkpt lat="45.98186" lon="4.81292">
        <ele>247</ele>
        <time>2018-01-31T10:52:55Z</time>
      </trkpt>
      <trkpt lat="45.98184" lon="4.81284">
        <ele>247</ele>
        <time>2018-01-31T10:52:56Z</time>
      </trkpt>
      <trkpt lat="45.98182" lon="4.81276">
        <ele>247</ele>
        <time>2018-01-31T10:52:57Z</time>
      </trkpt>
      <trkpt lat="45.98181" lon="4.81269">
        <ele>247</ele>
        <time>2018-01-31T10:52:58Z</time>
      </trkpt>
      <trkpt lat="45.98179" lon="4.81261">
        <ele>247</ele>
        <time>2018-01-31T10:52:59Z</time>
      </trkpt>
      <trkpt lat="45.98179" lon="4.81255">
        <ele>247</ele>
        <time>2018-01-31T10:53:00Z</time>
      </trkpt>
      <trkpt lat="45.98178" lon="4.81247">
        <ele>247</ele>
        <time>2018-01-31T10:53:01Z</time>
      </trkpt>
      <trkpt lat="45.98177" lon="4.8124">
        <ele>247</ele>
        <time>2018-01-31T10:53:02Z</time>
      </trkpt>
      <trkpt lat="45.98176" lon="4.81233">
        <ele>246</ele>
        <time>2018-01-31T10:53:03Z</time>
      </trkpt>
      <trkpt lat="45.98175" lon="4.81225">
        <ele>246</ele>
        <time>2018-01-31T10:53:04Z</time>
      </trkpt>
      <trkpt lat="45.98175" lon="4.81218">
        <ele>246</ele>
        <time>2018-01-31T10:53:05Z</time>
      </trkpt>
      <trkpt lat="45.98175" lon="4.81211">
        <ele>246</ele>
        <time>2018-01-31T10:53:06Z</time>
      </trkpt>
      <trkpt lat="45.98176" lon="4.81204">
        <ele>245</ele>
        <time>2018-01-31T10:53:07Z</time>
      </trkpt>
      <trkpt lat="45.98176" lon="4.81198">
        <ele>245</ele>
        <time>2018-01-31T10:53:08Z</time>
      </trkpt>
      <trkpt lat="45.98174" lon="4.81191">
        <ele>245</ele>
        <time>2018-01-31T10:53:09Z</time>
      </trkpt>
      <trkpt lat="45.98171" lon="4.81183">
        <ele>245</ele>
        <time>2018-01-31T10:53:10Z</time>
      </trkpt>
      <trkpt lat="45.98169" lon="4.81176">
        <ele>245</ele>
        <time>2018-01-31T10:53:11Z</time>
      </trkpt>
      <trkpt lat="45.98167" lon="4.81169">
        <ele>245</ele>
        <time>2018-01-31T10:53:12Z</time>
      </trkpt>
      <trkpt lat="45.98164" lon="4.81161">
        <ele>245</ele>
        <time>2018-01-31T10:53:13Z</time>
      </trkpt>
      <trkpt lat="45.98163" lon="4.81155">
        <ele>245</ele>
        <time>2018-01-31T10:53:14Z</time>
      </trkpt>
      <trkpt lat="45.9816" lon="4.81148">
        <ele>245</ele>
        <time>2018-01-31T10:53:15Z</time>
      </trkpt>
      <trkpt lat="45.98158" lon="4.8114">
        <ele>245</ele>
        <time>2018-01-31T10:53:16Z</time>
      </trkpt>
      <trkpt lat="45.98156" lon="4.81133">
        <ele>245</ele>
        <time>2018-01-31T10:53:17Z</time>
      </trkpt>
      <trkpt lat="45.98152" lon="4.81121">
        <ele>245</ele>
        <time>2018-01-31T10:53:19Z</time>
      </trkpt>
      <trkpt lat="45.98149" lon="4.81116">
        <ele>245</ele>
        <time>2018-01-31T10:53:20Z</time>
      </trkpt>
      <trkpt lat="45.98146" lon="4.8111">
        <ele>245</ele>
        <time>2018-01-31T10:53:21Z</time>
      </trkpt>
      <trkpt lat="45.98142" lon="4.81102">
        <ele>245</ele>
        <time>2018-01-31T10:53:22Z</time>
      </trkpt>
      <trkpt lat="45.98139" lon="4.81096">
        <ele>245</ele>
        <time>2018-01-31T10:53:23Z</time>
      </trkpt>
      <trkpt lat="45.98137" lon="4.81088">
        <ele>245</ele>
        <time>2018-01-31T10:53:24Z</time>
      </trkpt>
      <trkpt lat="45.98134" lon="4.81081">
        <ele>243</ele>
        <time>2018-01-31T10:53:25Z</time>
      </trkpt>
      <trkpt lat="45.98131" lon="4.81073">
        <ele>243</ele>
        <time>2018-01-31T10:53:26Z</time>
      </trkpt>
      <trkpt lat="45.98128" lon="4.81066">
        <ele>243</ele>
        <time>2018-01-31T10:53:27Z</time>
      </trkpt>
      <trkpt lat="45.98125" lon="4.81059">
        <ele>243</ele>
        <time>2018-01-31T10:53:28Z</time>
      </trkpt>
      <trkpt lat="45.9812" lon="4.81053">
        <ele>243</ele>
        <time>2018-01-31T10:53:29Z</time>
      </trkpt>
      <trkpt lat="45.98119" lon="4.81046">
        <ele>242</ele>
        <time>2018-01-31T10:53:30Z</time>
      </trkpt>
      <trkpt lat="45.98117" lon="4.81039">
        <ele>242</ele>
        <time>2018-01-31T10:53:31Z</time>
      </trkpt>
      <trkpt lat="45.98115" lon="4.81032">
        <ele>242</ele>
        <time>2018-01-31T10:53:32Z</time>
      </trkpt>
      <trkpt lat="45.98111" lon="4.81023">
        <ele>242</ele>
        <time>2018-01-31T10:53:33Z</time>
      </trkpt>
      <trkpt lat="45.9811" lon="4.81015">
        <ele>242</ele>
        <time>2018-01-31T10:53:34Z</time>
      </trkpt>
      <trkpt lat="45.98107" lon="4.81009">
        <ele>242</ele>
        <time>2018-01-31T10:53:35Z</time>
      </trkpt>
      <trkpt lat="45.98104" lon="4.81002">
        <ele>242</ele>
        <time>2018-01-31T10:53:36Z</time>
      </trkpt>
      <trkpt lat="45.981" lon="4.80992">
        <ele>240</ele>
        <time>2018-01-31T10:53:38Z</time>
      </trkpt>
      <trkpt lat="45.98099" lon="4.80986">
        <ele>240</ele>
        <time>2018-01-31T10:53:39Z</time>
      </trkpt>
      <trkpt lat="45.98096" lon="4.80976">
        <ele>239</ele>
        <time>2018-01-31T10:53:41Z</time>
      </trkpt>
      <trkpt lat="45.98092" lon="4.80968">
        <ele>239</ele>
        <time>2018-01-31T10:53:42Z</time>
      </trkpt>
      <trkpt lat="45.98091" lon="4.8096">
        <ele>239</ele>
        <time>2018-01-31T10:53:43Z</time>
      </trkpt>
      <trkpt lat="45.98089" lon="4.80951">
        <ele>238</ele>
        <time>2018-01-31T10:53:44Z</time>
      </trkpt>
      <trkpt lat="45.98086" lon="4.80941">
        <ele>238</ele>
        <time>2018-01-31T10:53:45Z</time>
      </trkpt>
      <trkpt lat="45.98083" lon="4.80931">
        <ele>240</ele>
        <time>2018-01-31T10:53:46Z</time>
      </trkpt>
      <trkpt lat="45.98081" lon="4.8092">
        <ele>239</ele>
        <time>2018-01-31T10:53:47Z</time>
      </trkpt>
      <trkpt lat="45.98078" lon="4.8091">
        <ele>238</ele>
        <time>2018-01-31T10:53:48Z</time>
      </trkpt>
      <trkpt lat="45.98075" lon="4.80899">
        <ele>238</ele>
        <time>2018-01-31T10:53:49Z</time>
      </trkpt>
      <trkpt lat="45.98073" lon="4.80888">
        <ele>238</ele>
        <time>2018-01-31T10:53:50Z</time>
      </trkpt>
      <trkpt lat="45.9807" lon="4.80876">
        <ele>237</ele>
        <time>2018-01-31T10:53:51Z</time>
      </trkpt>
      <trkpt lat="45.98068" lon="4.80865">
        <ele>237</ele>
        <time>2018-01-31T10:53:52Z</time>
      </trkpt>
      <trkpt lat="45.98065" lon="4.80853">
        <ele>236</ele>
        <time>2018-01-31T10:53:53Z</time>
      </trkpt>
      <trkpt lat="45.98062" lon="4.80842">
        <ele>236</ele>
        <time>2018-01-31T10:53:54Z</time>
      </trkpt>
      <trkpt lat="45.98061" lon="4.80828">
        <ele>234</ele>
        <time>2018-01-31T10:53:55Z</time>
      </trkpt>
      <trkpt lat="45.98059" lon="4.80818">
        <ele>234</ele>
        <time>2018-01-31T10:53:56Z</time>
      </trkpt>
      <trkpt lat="45.98057" lon="4.80808">
        <ele>234</ele>
        <time>2018-01-31T10:53:57Z</time>
      </trkpt>
      <trkpt lat="45.98054" lon="4.80797">
        <ele>233</ele>
        <time>2018-01-31T10:53:58Z</time>
      </trkpt>
      <trkpt lat="45.98052" lon="4.80788">
        <ele>233</ele>
        <time>2018-01-31T10:53:59Z</time>
      </trkpt>
      <trkpt lat="45.9805" lon="4.80778">
        <ele>233</ele>
        <time>2018-01-31T10:54:00Z</time>
      </trkpt>
      <trkpt lat="45.98048" lon="4.80768">
        <ele>233</ele>
        <time>2018-01-31T10:54:01Z</time>
      </trkpt>
      <trkpt lat="45.98044" lon="4.80759">
        <ele>233</ele>
        <time>2018-01-31T10:54:02Z</time>
      </trkpt>
      <trkpt lat="45.98043" lon="4.80752">
        <ele>233</ele>
        <time>2018-01-31T10:54:03Z</time>
      </trkpt>
      <trkpt lat="45.98041" lon="4.80745">
        <ele>231</ele>
        <time>2018-01-31T10:54:04Z</time>
      </trkpt>
      <trkpt lat="45.98039" lon="4.80738">
        <ele>231</ele>
        <time>2018-01-31T10:54:05Z</time>
      </trkpt>
      <trkpt lat="45.98036" lon="4.80726">
        <ele>231</ele>
        <time>2018-01-31T10:54:07Z</time>
      </trkpt>
      <trkpt lat="45.98036" lon="4.80722">
        <ele>231</ele>
        <time>2018-01-31T10:54:08Z</time>
      </trkpt>
      <trkpt lat="45.98036" lon="4.80711">
        <ele>231</ele>
        <time>2018-01-31T10:54:10Z</time>
      </trkpt>
      <trkpt lat="45.98036" lon="4.80708">
        <ele>231</ele>
        <time>2018-01-31T10:54:11Z</time>
      </trkpt>
      <trkpt lat="45.9804" lon="4.80699">
        <ele>230</ele>
        <time>2018-01-31T10:54:13Z</time>
      </trkpt>
      <trkpt lat="45.98042" lon="4.80697">
        <ele>230</ele>
        <time>2018-01-31T10:54:14Z</time>
      </trkpt>
      <trkpt lat="45.98049" lon="4.80696">
        <ele>230</ele>
        <time>2018-01-31T10:54:16Z</time>
      </trkpt>
      <trkpt lat="45.98053" lon="4.80695">
        <ele>230</ele>
        <time>2018-01-31T10:54:17Z</time>
      </trkpt>
      <trkpt lat="45.98059" lon="4.80695">
        <ele>230</ele>
        <time>2018-01-31T10:54:18Z</time>
      </trkpt>
      <trkpt lat="45.98063" lon="4.80695">
        <ele>230</ele>
        <time>2018-01-31T10:54:19Z</time>
      </trkpt>
      <trkpt lat="45.98069" lon="4.80695">
        <ele>230</ele>
        <time>2018-01-31T10:54:20Z</time>
      </trkpt>
      <trkpt lat="45.98074" lon="4.80694">
        <ele>230</ele>
        <time>2018-01-31T10:54:21Z</time>
      </trkpt>
      <trkpt lat="45.98079" lon="4.80695">
        <ele>230</ele>
        <time>2018-01-31T10:54:22Z</time>
      </trkpt>
      <trkpt lat="45.98084" lon="4.80695">
        <ele>228</ele>
        <time>2018-01-31T10:54:23Z</time>
      </trkpt>
      <trkpt lat="45.98089" lon="4.80695">
        <ele>228</ele>
        <time>2018-01-31T10:54:24Z</time>
      </trkpt>
      <trkpt lat="45.98095" lon="4.80693">
        <ele>228</ele>
        <time>2018-01-31T10:54:25Z</time>
      </trkpt>
      <trkpt lat="45.98101" lon="4.80694">
        <ele>228</ele>
        <time>2018-01-31T10:54:26Z</time>
      </trkpt>
      <trkpt lat="45.98106" lon="4.80693">
        <ele>228</ele>
        <time>2018-01-31T10:54:27Z</time>
      </trkpt>
      <trkpt lat="45.98111" lon="4.80693">
        <ele>228</ele>
        <time>2018-01-31T10:54:28Z</time>
      </trkpt>
      <trkpt lat="45.98116" lon="4.80693">
        <ele>228</ele>
        <time>2018-01-31T10:54:29Z</time>
      </trkpt>
      <trkpt lat="45.98121" lon="4.80693">
        <ele>228</ele>
        <time>2018-01-31T10:54:30Z</time>
      </trkpt>
      <trkpt lat="45.98125" lon="4.80692">
        <ele>228</ele>
        <time>2018-01-31T10:54:31Z</time>
      </trkpt>
      <trkpt lat="45.98132" lon="4.80692">
        <ele>228</ele>
        <time>2018-01-31T10:54:33Z</time>
      </trkpt>
      <trkpt lat="45.98137" lon="4.80692">
        <ele>228</ele>
        <time>2018-01-31T10:54:34Z</time>
      </trkpt>
      <trkpt lat="45.98144" lon="4.80691">
        <ele>228</ele>
        <time>2018-01-31T10:54:36Z</time>
      </trkpt>
      <trkpt lat="45.98147" lon="4.80691">
        <ele>228</ele>
        <time>2018-01-31T10:54:37Z</time>
      </trkpt>
      <trkpt lat="45.98155" lon="4.80691">
        <ele>227</ele>
        <time>2018-01-31T10:54:41Z</time>
      </trkpt>
      <trkpt lat="45.98157" lon="4.8069">
        <ele>227</ele>
        <time>2018-01-31T10:54:42Z</time>
      </trkpt>
      <trkpt lat="45.98164" lon="4.80693">
        <ele>227</ele>
        <time>2018-01-31T10:55:03Z</time>
      </trkpt>
      <trkpt lat="45.98165" lon="4.80694">
        <ele>227</ele>
        <time>2018-01-31T10:55:04Z</time>
      </trkpt>
      <trkpt lat="45.98174" lon="4.80694">
        <ele>225</ele>
        <time>2018-01-31T10:55:14Z</time>
      </trkpt>
      <trkpt lat="45.98175" lon="4.80694">
        <ele>225</ele>
        <time>2018-01-31T10:55:15Z</time>
      </trkpt>
      <trkpt lat="45.98183" lon="4.80693">
        <ele>225</ele>
        <time>2018-01-31T10:55:22Z</time>
      </trkpt>
      <trkpt lat="45.98184" lon="4.80693">
        <ele>225</ele>
        <time>2018-01-31T10:55:23Z</time>
      </trkpt>
      <trkpt lat="45.98192" lon="4.8069">
        <ele>225</ele>
        <time>2018-01-31T10:55:28Z</time>
      </trkpt>
      <trkpt lat="45.98194" lon="4.8069">
        <ele>225</ele>
        <time>2018-01-31T10:55:29Z</time>
      </trkpt>
      <trkpt lat="45.98202" lon="4.80689">
        <ele>225</ele>
        <time>2018-01-31T10:55:35Z</time>
      </trkpt>
      <trkpt lat="45.98203" lon="4.80689">
        <ele>225</ele>
        <time>2018-01-31T10:55:36Z</time>
      </trkpt>
      <trkpt lat="45.98212" lon="4.80686">
        <ele>224</ele>
        <time>2018-01-31T10:55:47Z</time>
      </trkpt>
      <trkpt lat="45.98213" lon="4.80685">
        <ele>224</ele>
        <time>2018-01-31T10:55:48Z</time>
      </trkpt>
      <trkpt lat="45.98218" lon="4.80677">
        <ele>224</ele>
        <time>2018-01-31T10:55:54Z</time>
      </trkpt>
      <trkpt lat="45.98219" lon="4.80674">
        <ele>224</ele>
        <time>2018-01-31T10:55:55Z</time>
      </trkpt>
      <trkpt lat="45.98222" lon="4.80666">
        <ele>224</ele>
        <time>2018-01-31T10:56:31Z</time>
      </trkpt>
      <trkpt lat="45.98223" lon="4.80662">
        <ele>223</ele>
        <time>2018-01-31T10:56:32Z</time>
      </trkpt>
      <trkpt lat="45.98227" lon="4.80652">
        <ele>223</ele>
        <time>2018-01-31T10:56:34Z</time>
      </trkpt>
      <trkpt lat="45.98229" lon="4.80647">
        <ele>223</ele>
        <time>2018-01-31T10:56:35Z</time>
      </trkpt>
      <trkpt lat="45.98233" lon="4.80637">
        <ele>224</ele>
        <time>2018-01-31T10:56:37Z</time>
      </trkpt>
      <trkpt lat="45.98235" lon="4.80631">
        <ele>224</ele>
        <time>2018-01-31T10:56:38Z</time>
      </trkpt>
      <trkpt lat="45.98237" lon="4.80625">
        <ele>224</ele>
        <time>2018-01-31T10:56:39Z</time>
      </trkpt>
      <trkpt lat="45.98239" lon="4.80619">
        <ele>224</ele>
        <time>2018-01-31T10:56:40Z</time>
      </trkpt>
      <trkpt lat="45.98243" lon="4.80611">
        <ele>224</ele>
        <time>2018-01-31T10:56:41Z</time>
      </trkpt>
      <trkpt lat="45.98245" lon="4.80606">
        <ele>224</ele>
        <time>2018-01-31T10:56:42Z</time>
      </trkpt>
      <trkpt lat="45.98248" lon="4.806">
        <ele>224</ele>
        <time>2018-01-31T10:56:43Z</time>
      </trkpt>
      <trkpt lat="45.98249" lon="4.80594">
        <ele>224</ele>
        <time>2018-01-31T10:56:44Z</time>
      </trkpt>
      <trkpt lat="45.98251" lon="4.80588">
        <ele>224</ele>
        <time>2018-01-31T10:56:45Z</time>
      </trkpt>
      <trkpt lat="45.98253" lon="4.80582">
        <ele>224</ele>
        <time>2018-01-31T10:56:46Z</time>
      </trkpt>
      <trkpt lat="45.98257" lon="4.80571">
        <ele>224</ele>
        <time>2018-01-31T10:56:48Z</time>
      </trkpt>
      <trkpt lat="45.98261" lon="4.80564">
        <ele>224</ele>
        <time>2018-01-31T10:56:49Z</time>
      </trkpt>
      <trkpt lat="45.98263" lon="4.80554">
        <ele>224</ele>
        <time>2018-01-31T10:56:51Z</time>
      </trkpt>
      <trkpt lat="45.98265" lon="4.8055">
        <ele>224</ele>
        <time>2018-01-31T10:56:52Z</time>
      </trkpt>
      <trkpt lat="45.98267" lon="4.80537">
        <ele>224</ele>
        <time>2018-01-31T10:56:57Z</time>
      </trkpt>
      <trkpt lat="45.98267" lon="4.80535">
        <ele>224</ele>
        <time>2018-01-31T10:56:58Z</time>
      </trkpt>
      <trkpt lat="45.98269" lon="4.80524">
        <ele>224</ele>
        <time>2018-01-31T10:57:03Z</time>
      </trkpt>
      <trkpt lat="45.98269" lon="4.80522">
        <ele>224</ele>
        <time>2018-01-31T10:57:04Z</time>
      </trkpt>
      <trkpt lat="45.98271" lon="4.80513">
        <ele>223</ele>
        <time>2018-01-31T10:57:06Z</time>
      </trkpt>
      <trkpt lat="45.98273" lon="4.80509">
        <ele>223</ele>
        <time>2018-01-31T10:57:07Z</time>
      </trkpt>
      <trkpt lat="45.98277" lon="4.805">
        <ele>224</ele>
        <time>2018-01-31T10:57:09Z</time>
      </trkpt>
      <trkpt lat="45.98278" lon="4.80495">
        <ele>223</ele>
        <time>2018-01-31T10:57:10Z</time>
      </trkpt>
      <trkpt lat="45.98282" lon="4.80484">
        <ele>223</ele>
        <time>2018-01-31T10:57:12Z</time>
      </trkpt>
      <trkpt lat="45.98285" lon="4.80478">
        <ele>223</ele>
        <time>2018-01-31T10:57:13Z</time>
      </trkpt>
      <trkpt lat="45.98286" lon="4.80467">
        <ele>224</ele>
        <time>2018-01-31T10:57:15Z</time>
      </trkpt>
      <trkpt lat="45.98287" lon="4.80463">
        <ele>224</ele>
        <time>2018-01-31T10:57:16Z</time>
      </trkpt>
      <trkpt lat="45.98291" lon="4.80451">
        <ele>224</ele>
        <time>2018-01-31T10:57:18Z</time>
      </trkpt>
      <trkpt lat="45.98294" lon="4.80446">
        <ele>224</ele>
        <time>2018-01-31T10:57:19Z</time>
      </trkpt>
      <trkpt lat="45.98297" lon="4.80436">
        <ele>224</ele>
        <time>2018-01-31T10:57:21Z</time>
      </trkpt>
      <trkpt lat="45.98297" lon="4.80431">
        <ele>224</ele>
        <time>2018-01-31T10:57:22Z</time>
      </trkpt>
      <trkpt lat="45.98299" lon="4.8042">
        <ele>224</ele>
        <time>2018-01-31T10:57:24Z</time>
      </trkpt>
      <trkpt lat="45.98301" lon="4.80414">
        <ele>225</ele>
        <time>2018-01-31T10:57:25Z</time>
      </trkpt>
      <trkpt lat="45.98302" lon="4.80403">
        <ele>225</ele>
        <time>2018-01-31T10:57:27Z</time>
      </trkpt>
      <trkpt lat="45.98303" lon="4.80398">
        <ele>225</ele>
        <time>2018-01-31T10:57:28Z</time>
      </trkpt>
      <trkpt lat="45.98306" lon="4.80388">
        <ele>225</ele>
        <time>2018-01-31T10:57:30Z</time>
      </trkpt>
      <trkpt lat="45.98307" lon="4.80384">
        <ele>225</ele>
        <time>2018-01-31T10:57:31Z</time>
      </trkpt>
      <trkpt lat="45.98309" lon="4.80374">
        <ele>225</ele>
        <time>2018-01-31T10:57:33Z</time>
      </trkpt>
      <trkpt lat="45.9831" lon="4.80369">
        <ele>225</ele>
        <time>2018-01-31T10:57:34Z</time>
      </trkpt>
      <trkpt lat="45.9831" lon="4.8036">
        <ele>226</ele>
        <time>2018-01-31T10:57:36Z</time>
      </trkpt>
      <trkpt lat="45.98311" lon="4.80355">
        <ele>226</ele>
        <time>2018-01-31T10:57:37Z</time>
      </trkpt>
      <trkpt lat="45.98311" lon="4.80347">
        <ele>226</ele>
        <time>2018-01-31T10:57:39Z</time>
      </trkpt>
      <trkpt lat="45.98312" lon="4.80342">
        <ele>226</ele>
        <time>2018-01-31T10:57:40Z</time>
      </trkpt>
      <trkpt lat="45.98313" lon="4.80332">
        <ele>227</ele>
        <time>2018-01-31T10:57:42Z</time>
      </trkpt>
      <trkpt lat="45.98314" lon="4.80326">
        <ele>227</ele>
        <time>2018-01-31T10:57:43Z</time>
      </trkpt>
      <trkpt lat="45.98317" lon="4.80316">
        <ele>227</ele>
        <time>2018-01-31T10:57:45Z</time>
      </trkpt>
      <trkpt lat="45.98319" lon="4.80311">
        <ele>227</ele>
        <time>2018-01-31T10:57:46Z</time>
      </trkpt>
      <trkpt lat="45.98321" lon="4.803">
        <ele>227</ele>
        <time>2018-01-31T10:57:48Z</time>
      </trkpt>
      <trkpt lat="45.98322" lon="4.80295">
        <ele>227</ele>
        <time>2018-01-31T10:57:49Z</time>
      </trkpt>
      <trkpt lat="45.98324" lon="4.80285">
        <ele>227</ele>
        <time>2018-01-31T10:57:51Z</time>
      </trkpt>
      <trkpt lat="45.98325" lon="4.8028">
        <ele>227</ele>
        <time>2018-01-31T10:57:52Z</time>
      </trkpt>
      <trkpt lat="45.98326" lon="4.80271">
        <ele>227</ele>
        <time>2018-01-31T10:57:54Z</time>
      </trkpt>
      <trkpt lat="45.98327" lon="4.80266">
        <ele>228</ele>
        <time>2018-01-31T10:57:55Z</time>
      </trkpt>
      <trkpt lat="45.98329" lon="4.80258">
        <ele>229</ele>
        <time>2018-01-31T10:57:57Z</time>
      </trkpt>
      <trkpt lat="45.9833" lon="4.80254">
        <ele>229</ele>
        <time>2018-01-31T10:57:58Z</time>
      </trkpt>
      <trkpt lat="45.98331" lon="4.80245">
        <ele>229</ele>
        <time>2018-01-31T10:58:00Z</time>
      </trkpt>
      <trkpt lat="45.98332" lon="4.80241">
        <ele>229</ele>
        <time>2018-01-31T10:58:01Z</time>
      </trkpt>
      <trkpt lat="45.98333" lon="4.80231">
        <ele>230</ele>
        <time>2018-01-31T10:58:03Z</time>
      </trkpt>
      <trkpt lat="45.98334" lon="4.80227">
        <ele>230</ele>
        <time>2018-01-31T10:58:04Z</time>
      </trkpt>
      <trkpt lat="45.98334" lon="4.80218">
        <ele>230</ele>
        <time>2018-01-31T10:58:06Z</time>
      </trkpt>
      <trkpt lat="45.98334" lon="4.80213">
        <ele>230</ele>
        <time>2018-01-31T10:58:07Z</time>
      </trkpt>
      <trkpt lat="45.98331" lon="4.80203">
        <ele>227</ele>
        <time>2018-01-31T10:58:09Z</time>
      </trkpt>
      <trkpt lat="45.98329" lon="4.80199">
        <ele>227</ele>
        <time>2018-01-31T10:58:10Z</time>
      </trkpt>
      <trkpt lat="45.98324" lon="4.8019">
        <ele>227</ele>
        <time>2018-01-31T10:58:12Z</time>
      </trkpt>
      <trkpt lat="45.98322" lon="4.80185">
        <ele>227</ele>
        <time>2018-01-31T10:58:13Z</time>
      </trkpt>
      <trkpt lat="45.9832" lon="4.80179">
        <ele>227</ele>
        <time>2018-01-31T10:58:14Z</time>
      </trkpt>
      <trkpt lat="45.98317" lon="4.80174">
        <ele>227</ele>
        <time>2018-01-31T10:58:15Z</time>
      </trkpt>
      <trkpt lat="45.98315" lon="4.80166">
        <ele>228</ele>
        <time>2018-01-31T10:58:16Z</time>
      </trkpt>
      <trkpt lat="45.98313" lon="4.8016">
        <ele>228</ele>
        <time>2018-01-31T10:58:17Z</time>
      </trkpt>
      <trkpt lat="45.98311" lon="4.80154">
        <ele>228</ele>
        <time>2018-01-31T10:58:18Z</time>
      </trkpt>
      <trkpt lat="45.98309" lon="4.80148">
        <ele>228</ele>
        <time>2018-01-31T10:58:19Z</time>
      </trkpt>
      <trkpt lat="45.98305" lon="4.80138">
        <ele>228</ele>
        <time>2018-01-31T10:58:21Z</time>
      </trkpt>
      <trkpt lat="45.98303" lon="4.80132">
        <ele>228</ele>
        <time>2018-01-31T10:58:22Z</time>
      </trkpt>
      <trkpt lat="45.98301" lon="4.80126">
        <ele>228</ele>
        <time>2018-01-31T10:58:23Z</time>
      </trkpt>
      <trkpt lat="45.98298" lon="4.80119">
        <ele>228</ele>
        <time>2018-01-31T10:58:24Z</time>
      </trkpt>
      <trkpt lat="45.98294" lon="4.80112">
        <ele>228</ele>
        <time>2018-01-31T10:58:25Z</time>
      </trkpt>
      <trkpt lat="45.98292" lon="4.80106">
        <ele>228</ele>
        <time>2018-01-31T10:58:26Z</time>
      </trkpt>
      <trkpt lat="45.9829" lon="4.80098">
        <ele>228</ele>
        <time>2018-01-31T10:58:27Z</time>
      </trkpt>
      <trkpt lat="45.98288" lon="4.80093">
        <ele>228</ele>
        <time>2018-01-31T10:58:28Z</time>
      </trkpt>
      <trkpt lat="45.98284" lon="4.80082">
        <ele>229</ele>
        <time>2018-01-31T10:58:30Z</time>
      </trkpt>
      <trkpt lat="45.98283" lon="4.80078">
        <ele>229</ele>
        <time>2018-01-31T10:58:31Z</time>
      </trkpt>
      <trkpt lat="45.98281" lon="4.80067">
        <ele>229</ele>
        <time>2018-01-31T10:58:33Z</time>
      </trkpt>
      <trkpt lat="45.98279" lon="4.80062">
        <ele>229</ele>
        <time>2018-01-31T10:58:34Z</time>
      </trkpt>
      <trkpt lat="45.98275" lon="4.80057">
        <ele>229</ele>
        <time>2018-01-31T10:58:35Z</time>
      </trkpt>
      <trkpt lat="45.98273" lon="4.80051">
        <ele>229</ele>
        <time>2018-01-31T10:58:36Z</time>
      </trkpt>
      <trkpt lat="45.9827" lon="4.80044">
        <ele>229</ele>
        <time>2018-01-31T10:58:37Z</time>
      </trkpt>
      <trkpt lat="45.98267" lon="4.80037">
        <ele>229</ele>
        <time>2018-01-31T10:58:38Z</time>
      </trkpt>
      <trkpt lat="45.98264" lon="4.8003">
        <ele>228</ele>
        <time>2018-01-31T10:58:39Z</time>
      </trkpt>
      <trkpt lat="45.98262" lon="4.80023">
        <ele>228</ele>
        <time>2018-01-31T10:58:40Z</time>
      </trkpt>
      <trkpt lat="45.9826" lon="4.80017">
        <ele>228</ele>
        <time>2018-01-31T10:58:41Z</time>
      </trkpt>
      <trkpt lat="45.98258" lon="4.8001">
        <ele>227</ele>
        <time>2018-01-31T10:58:42Z</time>
      </trkpt>
      <trkpt lat="45.98255" lon="4.80002">
        <ele>227</ele>
        <time>2018-01-31T10:58:43Z</time>
      </trkpt>
      <trkpt lat="45.98252" lon="4.79994">
        <ele>227</ele>
        <time>2018-01-31T10:58:44Z</time>
      </trkpt>
      <trkpt lat="45.9825" lon="4.79986">
        <ele>227</ele>
        <time>2018-01-31T10:58:45Z</time>
      </trkpt>
      <trkpt lat="45.98249" lon="4.79979">
        <ele>225</ele>
        <time>2018-01-31T10:58:46Z</time>
      </trkpt>
      <trkpt lat="45.98246" lon="4.79972">
        <ele>225</ele>
        <time>2018-01-31T10:58:47Z</time>
      </trkpt>
      <trkpt lat="45.98244" lon="4.79966">
        <ele>225</ele>
        <time>2018-01-31T10:58:48Z</time>
      </trkpt>
      <trkpt lat="45.9824" lon="4.79954">
        <ele>225</ele>
        <time>2018-01-31T10:58:50Z</time>
      </trkpt>
      <trkpt lat="45.98239" lon="4.79948">
        <ele>225</ele>
        <time>2018-01-31T10:58:51Z</time>
      </trkpt>
      <trkpt lat="45.98236" lon="4.79936">
        <ele>225</ele>
        <time>2018-01-31T10:58:53Z</time>
      </trkpt>
      <trkpt lat="45.98233" lon="4.79929">
        <ele>225</ele>
        <time>2018-01-31T10:58:54Z</time>
      </trkpt>
      <trkpt lat="45.98231" lon="4.79923">
        <ele>225</ele>
        <time>2018-01-31T10:58:55Z</time>
      </trkpt>
      <trkpt lat="45.98229" lon="4.79917">
        <ele>225</ele>
        <time>2018-01-31T10:58:56Z</time>
      </trkpt>
      <trkpt lat="45.98227" lon="4.7991">
        <ele>225</ele>
        <time>2018-01-31T10:58:57Z</time>
      </trkpt>
      <trkpt lat="45.98225" lon="4.79904">
        <ele>225</ele>
        <time>2018-01-31T10:58:58Z</time>
      </trkpt>
      <trkpt lat="45.98221" lon="4.79892">
        <ele>225</ele>
        <time>2018-01-31T10:59:00Z</time>
      </trkpt>
      <trkpt lat="45.9822" lon="4.79883">
        <ele>225</ele>
        <time>2018-01-31T10:59:01Z</time>
      </trkpt>
      <trkpt lat="45.98216" lon="4.79875">
        <ele>225</ele>
        <time>2018-01-31T10:59:03Z</time>
      </trkpt>
      <trkpt lat="45.98211" lon="4.79869">
        <ele>225</ele>
        <time>2018-01-31T10:59:04Z</time>
      </trkpt>
      <trkpt lat="45.98208" lon="4.79864">
        <ele>225</ele>
        <time>2018-01-31T10:59:05Z</time>
      </trkpt>
      <trkpt lat="45.98205" lon="4.79859">
        <ele>225</ele>
        <time>2018-01-31T10:59:06Z</time>
      </trkpt>
      <trkpt lat="45.98202" lon="4.79848">
        <ele>225</ele>
        <time>2018-01-31T10:59:08Z</time>
      </trkpt>
      <trkpt lat="45.98199" lon="4.79842">
        <ele>225</ele>
        <time>2018-01-31T10:59:09Z</time>
      </trkpt>
      <trkpt lat="45.98195" lon="4.79831">
        <ele>225</ele>
        <time>2018-01-31T10:59:11Z</time>
      </trkpt>
      <trkpt lat="45.98194" lon="4.79826">
        <ele>225</ele>
        <time>2018-01-31T10:59:12Z</time>
      </trkpt>
      <trkpt lat="45.9819" lon="4.79816">
        <ele>225</ele>
        <time>2018-01-31T10:59:14Z</time>
      </trkpt>
      <trkpt lat="45.98189" lon="4.79812">
        <ele>225</ele>
        <time>2018-01-31T10:59:15Z</time>
      </trkpt>
      <trkpt lat="45.98186" lon="4.79804">
        <ele>226</ele>
        <time>2018-01-31T10:59:17Z</time>
      </trkpt>
      <trkpt lat="45.98185" lon="4.798">
        <ele>226</ele>
        <time>2018-01-31T10:59:18Z</time>
      </trkpt>
      <trkpt lat="45.98183" lon="4.79792">
        <ele>226</ele>
        <time>2018-01-31T10:59:20Z</time>
      </trkpt>
      <trkpt lat="45.98182" lon="4.79787">
        <ele>226</ele>
        <time>2018-01-31T10:59:21Z</time>
      </trkpt>
      <trkpt lat="45.98182" lon="4.79774">
        <ele>226</ele>
        <time>2018-01-31T10:59:24Z</time>
      </trkpt>
      <trkpt lat="45.98183" lon="4.7977">
        <ele>226</ele>
        <time>2018-01-31T10:59:25Z</time>
      </trkpt>
      <trkpt lat="45.98188" lon="4.79761">
        <ele>226</ele>
        <time>2018-01-31T10:59:28Z</time>
      </trkpt>
      <trkpt lat="45.98191" lon="4.79758">
        <ele>226</ele>
        <time>2018-01-31T10:59:29Z</time>
      </trkpt>
      <trkpt lat="45.98198" lon="4.79754">
        <ele>226</ele>
        <time>2018-01-31T10:59:31Z</time>
      </trkpt>
      <trkpt lat="45.98201" lon="4.79753">
        <ele>226</ele>
        <time>2018-01-31T10:59:32Z</time>
      </trkpt>
      <trkpt lat="45.98208" lon="4.79752">
        <ele>226</ele>
        <time>2018-01-31T10:59:34Z</time>
      </trkpt>
      <trkpt lat="45.98212" lon="4.79752">
        <ele>226</ele>
        <time>2018-01-31T10:59:35Z</time>
      </trkpt>
      <trkpt lat="45.98219" lon="4.79751">
        <ele>227</ele>
        <time>2018-01-31T10:59:37Z</time>
      </trkpt>
      <trkpt lat="45.98222" lon="4.7975">
        <ele>227</ele>
        <time>2018-01-31T10:59:38Z</time>
      </trkpt>
      <trkpt lat="45.98229" lon="4.79749">
        <ele>228</ele>
        <time>2018-01-31T10:59:40Z</time>
      </trkpt>
      <trkpt lat="45.98232" lon="4.79749">
        <ele>228</ele>
        <time>2018-01-31T10:59:41Z</time>
      </trkpt>
      <trkpt lat="45.98239" lon="4.79748">
        <ele>228</ele>
        <time>2018-01-31T10:59:43Z</time>
      </trkpt>
      <trkpt lat="45.98242" lon="4.79748">
        <ele>228</ele>
        <time>2018-01-31T10:59:44Z</time>
      </trkpt>
      <trkpt lat="45.98248" lon="4.79748">
        <ele>228</ele>
        <time>2018-01-31T10:59:46Z</time>
      </trkpt>
      <trkpt lat="45.98251" lon="4.79748">
        <ele>229</ele>
        <time>2018-01-31T10:59:47Z</time>
      </trkpt>
      <trkpt lat="45.98257" lon="4.79747">
        <ele>230</ele>
        <time>2018-01-31T10:59:49Z</time>
      </trkpt>
      <trkpt lat="45.9826" lon="4.79747">
        <ele>231</ele>
        <time>2018-01-31T10:59:50Z</time>
      </trkpt>
      <trkpt lat="45.98267" lon="4.79745">
        <ele>232</ele>
        <time>2018-01-31T10:59:52Z</time>
      </trkpt>
      <trkpt lat="45.98271" lon="4.79745">
        <ele>232</ele>
        <time>2018-01-31T10:59:53Z</time>
      </trkpt>
      <trkpt lat="45.98277" lon="4.79745">
        <ele>233</ele>
        <time>2018-01-31T10:59:55Z</time>
      </trkpt>
      <trkpt lat="45.9828" lon="4.79745">
        <ele>233</ele>
        <time>2018-01-31T10:59:56Z</time>
      </trkpt>
      <trkpt lat="45.9829" lon="4.79744">
        <ele>234</ele>
        <time>2018-01-31T10:59:59Z</time>
      </trkpt>
      <trkpt lat="45.98297" lon="4.79744">
        <ele>235</ele>
        <time>2018-01-31T11:00:01Z</time>
      </trkpt>
      <trkpt lat="45.98301" lon="4.79743">
        <ele>235</ele>
        <time>2018-01-31T11:00:02Z</time>
      </trkpt>
      <trkpt lat="45.98308" lon="4.79742">
        <ele>235</ele>
        <time>2018-01-31T11:00:04Z</time>
      </trkpt>
      <trkpt lat="45.98311" lon="4.79742">
        <ele>236</ele>
        <time>2018-01-31T11:00:05Z</time>
      </trkpt>
      <trkpt lat="45.98319" lon="4.7974">
        <ele>236</ele>
        <time>2018-01-31T11:00:07Z</time>
      </trkpt>
      <trkpt lat="45.98322" lon="4.7974">
        <ele>236</ele>
        <time>2018-01-31T11:00:08Z</time>
      </trkpt>
      <trkpt lat="45.98328" lon="4.79738">
        <ele>236</ele>
        <time>2018-01-31T11:00:10Z</time>
      </trkpt>
      <trkpt lat="45.98331" lon="4.79738">
        <ele>236</ele>
        <time>2018-01-31T11:00:11Z</time>
      </trkpt>
      <trkpt lat="45.98338" lon="4.79737">
        <ele>239</ele>
        <time>2018-01-31T11:00:13Z</time>
      </trkpt>
      <trkpt lat="45.98341" lon="4.79737">
        <ele>239</ele>
        <time>2018-01-31T11:00:14Z</time>
      </trkpt>
      <trkpt lat="45.98347" lon="4.79735">
        <ele>239</ele>
        <time>2018-01-31T11:00:16Z</time>
      </trkpt>
      <trkpt lat="45.9835" lon="4.79735">
        <ele>239</ele>
        <time>2018-01-31T11:00:17Z</time>
      </trkpt>
      <trkpt lat="45.98359" lon="4.79734">
        <ele>240</ele>
        <time>2018-01-31T11:00:20Z</time>
      </trkpt>
      <trkpt lat="45.98362" lon="4.79733">
        <ele>240</ele>
        <time>2018-01-31T11:00:21Z</time>
      </trkpt>
      <trkpt lat="45.98368" lon="4.79732">
        <ele>240</ele>
        <time>2018-01-31T11:00:23Z</time>
      </trkpt>
      <trkpt lat="45.98371" lon="4.79731">
        <ele>240</ele>
        <time>2018-01-31T11:00:24Z</time>
      </trkpt>
      <trkpt lat="45.98377" lon="4.7973">
        <ele>241</ele>
        <time>2018-01-31T11:00:26Z</time>
      </trkpt>
      <trkpt lat="45.9838" lon="4.7973">
        <ele>241</ele>
        <time>2018-01-31T11:00:27Z</time>
      </trkpt>
      <trkpt lat="45.98387" lon="4.79729">
        <ele>241</ele>
        <time>2018-01-31T11:00:29Z</time>
      </trkpt>
      <trkpt lat="45.9839" lon="4.79729">
        <ele>241</ele>
        <time>2018-01-31T11:00:30Z</time>
      </trkpt>
      <trkpt lat="45.98396" lon="4.79728">
        <ele>241</ele>
        <time>2018-01-31T11:00:32Z</time>
      </trkpt>
      <trkpt lat="45.984" lon="4.79728">
        <ele>241</ele>
        <time>2018-01-31T11:00:33Z</time>
      </trkpt>
      <trkpt lat="45.98406" lon="4.79727">
        <ele>241</ele>
        <time>2018-01-31T11:00:35Z</time>
      </trkpt>
      <trkpt lat="45.98409" lon="4.79727">
        <ele>241</ele>
        <time>2018-01-31T11:00:36Z</time>
      </trkpt>
      <trkpt lat="45.98416" lon="4.79727">
        <ele>241</ele>
        <time>2018-01-31T11:00:38Z</time>
      </trkpt>
      <trkpt lat="45.98419" lon="4.79727">
        <ele>242</ele>
        <time>2018-01-31T11:00:39Z</time>
      </trkpt>
      <trkpt lat="45.98426" lon="4.79728">
        <ele>242</ele>
        <time>2018-01-31T11:00:41Z</time>
      </trkpt>
      <trkpt lat="45.98429" lon="4.79728">
        <ele>242</ele>
        <time>2018-01-31T11:00:42Z</time>
      </trkpt>
      <trkpt lat="45.98436" lon="4.79728">
        <ele>242</ele>
        <time>2018-01-31T11:00:44Z</time>
      </trkpt>
      <trkpt lat="45.98439" lon="4.79728">
        <ele>242</ele>
        <time>2018-01-31T11:00:45Z</time>
      </trkpt>
      <trkpt lat="45.98446" lon="4.79727">
        <ele>242</ele>
        <time>2018-01-31T11:00:47Z</time>
      </trkpt>
      <trkpt lat="45.9845" lon="4.79727">
        <ele>242</ele>
        <time>2018-01-31T11:00:48Z</time>
      </trkpt>
      <trkpt lat="45.98458" lon="4.79727">
        <ele>243</ele>
        <time>2018-01-31T11:00:50Z</time>
      </trkpt>
      <trkpt lat="45.98462" lon="4.79727">
        <ele>243</ele>
        <time>2018-01-31T11:00:51Z</time>
      </trkpt>
      <trkpt lat="45.98469" lon="4.79727">
        <ele>243</ele>
        <time>2018-01-31T11:00:53Z</time>
      </trkpt>
      <trkpt lat="45.98472" lon="4.79727">
        <ele>243</ele>
        <time>2018-01-31T11:00:54Z</time>
      </trkpt>
      <trkpt lat="45.9848" lon="4.79727">
        <ele>243</ele>
        <time>2018-01-31T11:00:56Z</time>
      </trkpt>
      <trkpt lat="45.98483" lon="4.79727">
        <ele>243</ele>
        <time>2018-01-31T11:00:57Z</time>
      </trkpt>
      <trkpt lat="45.9849" lon="4.79728">
        <ele>243</ele>
        <time>2018-01-31T11:00:59Z</time>
      </trkpt>
      <trkpt lat="45.98494" lon="4.79728">
        <ele>243</ele>
        <time>2018-01-31T11:01:00Z</time>
      </trkpt>
      <trkpt lat="45.98501" lon="4.79728">
        <ele>244</ele>
        <time>2018-01-31T11:01:02Z</time>
      </trkpt>
      <trkpt lat="45.98505" lon="4.79728">
        <ele>244</ele>
        <time>2018-01-31T11:01:03Z</time>
      </trkpt>
      <trkpt lat="45.98512" lon="4.79727">
        <ele>244</ele>
        <time>2018-01-31T11:01:05Z</time>
      </trkpt>
      <trkpt lat="45.98516" lon="4.79726">
        <ele>244</ele>
        <time>2018-01-31T11:01:06Z</time>
      </trkpt>
      <trkpt lat="45.98523" lon="4.79724">
        <ele>244</ele>
        <time>2018-01-31T11:01:08Z</time>
      </trkpt>
      <trkpt lat="45.98527" lon="4.79723">
        <ele>244</ele>
        <time>2018-01-31T11:01:09Z</time>
      </trkpt>
      <trkpt lat="45.98534" lon="4.7972">
        <ele>244</ele>
        <time>2018-01-31T11:01:11Z</time>
      </trkpt>
      <trkpt lat="45.98537" lon="4.79718">
        <ele>244</ele>
        <time>2018-01-31T11:01:12Z</time>
      </trkpt>
      <trkpt lat="45.98544" lon="4.79713">
        <ele>244</ele>
        <time>2018-01-31T11:01:14Z</time>
      </trkpt>
      <trkpt lat="45.98547" lon="4.79711">
        <ele>244</ele>
        <time>2018-01-31T11:01:15Z</time>
      </trkpt>
      <trkpt lat="45.98553" lon="4.79705">
        <ele>244</ele>
        <time>2018-01-31T11:01:17Z</time>
      </trkpt>
      <trkpt lat="45.98556" lon="4.79702">
        <ele>244</ele>
        <time>2018-01-31T11:01:18Z</time>
      </trkpt>
      <trkpt lat="45.98562" lon="4.79696">
        <ele>244</ele>
        <time>2018-01-31T11:01:20Z</time>
      </trkpt>
      <trkpt lat="45.98565" lon="4.79692">
        <ele>244</ele>
        <time>2018-01-31T11:01:21Z</time>
      </trkpt>
      <trkpt lat="45.98571" lon="4.79685">
        <ele>244</ele>
        <time>2018-01-31T11:01:23Z</time>
      </trkpt>
      <trkpt lat="45.98573" lon="4.7968">
        <ele>245</ele>
        <time>2018-01-31T11:01:24Z</time>
      </trkpt>
      <trkpt lat="45.98578" lon="4.79671">
        <ele>245</ele>
        <time>2018-01-31T11:01:26Z</time>
      </trkpt>
      <trkpt lat="45.9858" lon="4.79667">
        <ele>245</ele>
        <time>2018-01-31T11:01:27Z</time>
      </trkpt>
      <trkpt lat="45.98585" lon="4.79658">
        <ele>245</ele>
        <time>2018-01-31T11:01:29Z</time>
      </trkpt>
      <trkpt lat="45.98588" lon="4.79655">
        <ele>245</ele>
        <time>2018-01-31T11:01:30Z</time>
      </trkpt>
      <trkpt lat="45.98593" lon="4.79647">
        <ele>245</ele>
        <time>2018-01-31T11:01:32Z</time>
      </trkpt>
      <trkpt lat="45.98596" lon="4.79643">
        <ele>245</ele>
        <time>2018-01-31T11:01:33Z</time>
      </trkpt>
      <trkpt lat="45.98602" lon="4.79636">
        <ele>245</ele>
        <time>2018-01-31T11:01:35Z</time>
      </trkpt>
      <trkpt lat="45.98606" lon="4.79633">
        <ele>245</ele>
        <time>2018-01-31T11:01:36Z</time>
      </trkpt>
      <trkpt lat="45.98614" lon="4.7963">
        <ele>245</ele>
        <time>2018-01-31T11:01:38Z</time>
      </trkpt>
      <trkpt lat="45.98618" lon="4.79628">
        <ele>245</ele>
        <time>2018-01-31T11:01:39Z</time>
      </trkpt>
      <trkpt lat="45.98625" lon="4.79623">
        <ele>245</ele>
        <time>2018-01-31T11:01:41Z</time>
      </trkpt>
      <trkpt lat="45.98628" lon="4.79619">
        <ele>245</ele>
        <time>2018-01-31T11:01:42Z</time>
      </trkpt>
      <trkpt lat="45.98628" lon="4.79612">
        <ele>245</ele>
        <time>2018-01-31T11:01:43Z</time>
      </trkpt>
      <trkpt lat="45.98629" lon="4.79606">
        <ele>245</ele>
        <time>2018-01-31T11:01:44Z</time>
      </trkpt>
      <trkpt lat="45.98628" lon="4.79599">
        <ele>245</ele>
        <time>2018-01-31T11:01:45Z</time>
      </trkpt>
      <trkpt lat="45.98627" lon="4.79593">
        <ele>245</ele>
        <time>2018-01-31T11:01:46Z</time>
      </trkpt>
      <trkpt lat="45.98624" lon="4.79587">
        <ele>245</ele>
        <time>2018-01-31T11:01:47Z</time>
      </trkpt>
      <trkpt lat="45.98621" lon="4.79583">
        <ele>245</ele>
        <time>2018-01-31T11:01:48Z</time>
      </trkpt>
      <trkpt lat="45.98616" lon="4.79581">
        <ele>245</ele>
        <time>2018-01-31T11:01:49Z</time>
      </trkpt>
      <trkpt lat="45.98612" lon="4.79579">
        <ele>245</ele>
        <time>2018-01-31T11:01:50Z</time>
      </trkpt>
      <trkpt lat="45.98606" lon="4.7958">
        <ele>245</ele>
        <time>2018-01-31T11:01:51Z</time>
      </trkpt>
      <trkpt lat="45.986" lon="4.79583">
        <ele>245</ele>
        <time>2018-01-31T11:01:52Z</time>
      </trkpt>
      <trkpt lat="45.98595" lon="4.79584">
        <ele>245</ele>
        <time>2018-01-31T11:01:53Z</time>
      </trkpt>
      <trkpt lat="45.9859" lon="4.79584">
        <ele>245</ele>
        <time>2018-01-31T11:01:54Z</time>
      </trkpt>
      <trkpt lat="45.98585" lon="4.79583">
        <ele>245</ele>
        <time>2018-01-31T11:01:55Z</time>
      </trkpt>
      <trkpt lat="45.98579" lon="4.79582">
        <ele>245</ele>
        <time>2018-01-31T11:01:56Z</time>
      </trkpt>
      <trkpt lat="45.98571" lon="4.79576">
        <ele>245</ele>
        <time>2018-01-31T11:01:58Z</time>
      </trkpt>
      <trkpt lat="45.98568" lon="4.79574">
        <ele>244</ele>
        <time>2018-01-31T11:01:59Z</time>
      </trkpt>
      <trkpt lat="45.98564" lon="4.7957">
        <ele>244</ele>
        <time>2018-01-31T11:02:00Z</time>
      </trkpt>
      <trkpt lat="45.98561" lon="4.79566">
        <ele>244</ele>
        <time>2018-01-31T11:02:01Z</time>
      </trkpt>
      <trkpt lat="45.98554" lon="4.79558">
        <ele>244</ele>
        <time>2018-01-31T11:02:03Z</time>
      </trkpt>
      <trkpt lat="45.98551" lon="4.79554">
        <ele>244</ele>
        <time>2018-01-31T11:02:04Z</time>
      </trkpt>
      <trkpt lat="45.98548" lon="4.79549">
        <ele>244</ele>
        <time>2018-01-31T11:02:05Z</time>
      </trkpt>
      <trkpt lat="45.98545" lon="4.79544">
        <ele>244</ele>
        <time>2018-01-31T11:02:06Z</time>
      </trkpt>
      <trkpt lat="45.98541" lon="4.79538">
        <ele>244</ele>
        <time>2018-01-31T11:02:07Z</time>
      </trkpt>
      <trkpt lat="45.98539" lon="4.79531">
        <ele>244</ele>
        <time>2018-01-31T11:02:08Z</time>
      </trkpt>
      <trkpt lat="45.98536" lon="4.79519">
        <ele>244</ele>
        <time>2018-01-31T11:02:10Z</time>
      </trkpt>
      <trkpt lat="45.98534" lon="4.79514">
        <ele>244</ele>
        <time>2018-01-31T11:02:11Z</time>
      </trkpt>
      <trkpt lat="45.98532" lon="4.79507">
        <ele>244</ele>
        <time>2018-01-31T11:02:12Z</time>
      </trkpt>
      <trkpt lat="45.98531" lon="4.79501">
        <ele>244</ele>
        <time>2018-01-31T11:02:13Z</time>
      </trkpt>
      <trkpt lat="45.9853" lon="4.79493">
        <ele>244</ele>
        <time>2018-01-31T11:02:14Z</time>
      </trkpt>
      <trkpt lat="45.98529" lon="4.79486">
        <ele>244</ele>
        <time>2018-01-31T11:02:15Z</time>
      </trkpt>
      <trkpt lat="45.98528" lon="4.79476">
        <ele>244</ele>
        <time>2018-01-31T11:02:16Z</time>
      </trkpt>
      <trkpt lat="45.98528" lon="4.7947">
        <ele>244</ele>
        <time>2018-01-31T11:02:17Z</time>
      </trkpt>
      <trkpt lat="45.98527" lon="4.79461">
        <ele>244</ele>
        <time>2018-01-31T11:02:18Z</time>
      </trkpt>
      <trkpt lat="45.98527" lon="4.79453">
        <ele>244</ele>
        <time>2018-01-31T11:02:19Z</time>
      </trkpt>
      <trkpt lat="45.98527" lon="4.79445">
        <ele>244</ele>
        <time>2018-01-31T11:02:20Z</time>
      </trkpt>
      <trkpt lat="45.98527" lon="4.79438">
        <ele>244</ele>
        <time>2018-01-31T11:02:21Z</time>
      </trkpt>
      <trkpt lat="45.98527" lon="4.79431">
        <ele>244</ele>
        <time>2018-01-31T11:02:22Z</time>
      </trkpt>
      <trkpt lat="45.98526" lon="4.79424">
        <ele>244</ele>
        <time>2018-01-31T11:02:23Z</time>
      </trkpt>
      <trkpt lat="45.98526" lon="4.79411">
        <ele>244</ele>
        <time>2018-01-31T11:02:25Z</time>
      </trkpt>
      <trkpt lat="45.98525" lon="4.79403">
        <ele>244</ele>
        <time>2018-01-31T11:02:26Z</time>
      </trkpt>
      <trkpt lat="45.98523" lon="4.79391">
        <ele>244</ele>
        <time>2018-01-31T11:02:28Z</time>
      </trkpt>
      <trkpt lat="45.98522" lon="4.79384">
        <ele>244</ele>
        <time>2018-01-31T11:02:29Z</time>
      </trkpt>
      <trkpt lat="45.98521" lon="4.79378">
        <ele>244</ele>
        <time>2018-01-31T11:02:30Z</time>
      </trkpt>
      <trkpt lat="45.98519" lon="4.79372">
        <ele>243</ele>
        <time>2018-01-31T11:02:31Z</time>
      </trkpt>
      <trkpt lat="45.98517" lon="4.79366">
        <ele>243</ele>
        <time>2018-01-31T11:02:32Z</time>
      </trkpt>
      <trkpt lat="45.98516" lon="4.7936">
        <ele>243</ele>
        <time>2018-01-31T11:02:33Z</time>
      </trkpt>
      <trkpt lat="45.98514" lon="4.79353">
        <ele>243</ele>
        <time>2018-01-31T11:02:34Z</time>
      </trkpt>
      <trkpt lat="45.98513" lon="4.79346">
        <ele>243</ele>
        <time>2018-01-31T11:02:35Z</time>
      </trkpt>
      <trkpt lat="45.98511" lon="4.79339">
        <ele>243</ele>
        <time>2018-01-31T11:02:36Z</time>
      </trkpt>
      <trkpt lat="45.98509" lon="4.79331">
        <ele>243</ele>
        <time>2018-01-31T11:02:37Z</time>
      </trkpt>
      <trkpt lat="45.98507" lon="4.79323">
        <ele>243</ele>
        <time>2018-01-31T11:02:38Z</time>
      </trkpt>
      <trkpt lat="45.98504" lon="4.79317">
        <ele>243</ele>
        <time>2018-01-31T11:02:39Z</time>
      </trkpt>
      <trkpt lat="45.98502" lon="4.79311">
        <ele>243</ele>
        <time>2018-01-31T11:02:40Z</time>
      </trkpt>
      <trkpt lat="45.985" lon="4.79303">
        <ele>243</ele>
        <time>2018-01-31T11:02:41Z</time>
      </trkpt>
      <trkpt lat="45.98497" lon="4.79297">
        <ele>243</ele>
        <time>2018-01-31T11:02:42Z</time>
      </trkpt>
      <trkpt lat="45.98494" lon="4.7929">
        <ele>243</ele>
        <time>2018-01-31T11:02:43Z</time>
      </trkpt>
      <trkpt lat="45.98492" lon="4.79284">
        <ele>243</ele>
        <time>2018-01-31T11:02:44Z</time>
      </trkpt>
      <trkpt lat="45.98489" lon="4.79277">
        <ele>243</ele>
        <time>2018-01-31T11:02:45Z</time>
      </trkpt>
      <trkpt lat="45.98486" lon="4.79271">
        <ele>243</ele>
        <time>2018-01-31T11:02:46Z</time>
      </trkpt>
      <trkpt lat="45.98484" lon="4.79266">
        <ele>243</ele>
        <time>2018-01-31T11:02:47Z</time>
      </trkpt>
      <trkpt lat="45.98481" lon="4.79261">
        <ele>243</ele>
        <time>2018-01-31T11:02:48Z</time>
      </trkpt>
      <trkpt lat="45.98477" lon="4.79255">
        <ele>243</ele>
        <time>2018-01-31T11:02:49Z</time>
      </trkpt>
      <trkpt lat="45.98472" lon="4.79245">
        <ele>243</ele>
        <time>2018-01-31T11:02:51Z</time>
      </trkpt>
      <trkpt lat="45.98468" lon="4.79239">
        <ele>243</ele>
        <time>2018-01-31T11:02:52Z</time>
      </trkpt>
      <trkpt lat="45.98465" lon="4.79234">
        <ele>243</ele>
        <time>2018-01-31T11:02:53Z</time>
      </trkpt>
      <trkpt lat="45.98462" lon="4.79229">
        <ele>243</ele>
        <time>2018-01-31T11:02:54Z</time>
      </trkpt>
      <trkpt lat="45.98459" lon="4.79222">
        <ele>243</ele>
        <time>2018-01-31T11:02:55Z</time>
      </trkpt>
      <trkpt lat="45.98455" lon="4.79217">
        <ele>243</ele>
        <time>2018-01-31T11:02:56Z</time>
      </trkpt>
      <trkpt lat="45.98452" lon="4.79211">
        <ele>242</ele>
        <time>2018-01-31T11:02:57Z</time>
      </trkpt>
      <trkpt lat="45.98448" lon="4.79205">
        <ele>242</ele>
        <time>2018-01-31T11:02:58Z</time>
      </trkpt>
      <trkpt lat="45.98445" lon="4.792">
        <ele>242</ele>
        <time>2018-01-31T11:02:59Z</time>
      </trkpt>
      <trkpt lat="45.98442" lon="4.79193">
        <ele>242</ele>
        <time>2018-01-31T11:03:00Z</time>
      </trkpt>
      <trkpt lat="45.98439" lon="4.79186">
        <ele>242</ele>
        <time>2018-01-31T11:03:01Z</time>
      </trkpt>
      <trkpt lat="45.98437" lon="4.79181">
        <ele>242</ele>
        <time>2018-01-31T11:03:02Z</time>
      </trkpt>
      <trkpt lat="45.98432" lon="4.79175">
        <ele>242</ele>
        <time>2018-01-31T11:03:03Z</time>
      </trkpt>
      <trkpt lat="45.98429" lon="4.79168">
        <ele>242</ele>
        <time>2018-01-31T11:03:04Z</time>
      </trkpt>
      <trkpt lat="45.98426" lon="4.79162">
        <ele>242</ele>
        <time>2018-01-31T11:03:05Z</time>
      </trkpt>
      <trkpt lat="45.98423" lon="4.79156">
        <ele>242</ele>
        <time>2018-01-31T11:03:06Z</time>
      </trkpt>
      <trkpt lat="45.9842" lon="4.79151">
        <ele>242</ele>
        <time>2018-01-31T11:03:07Z</time>
      </trkpt>
      <trkpt lat="45.98417" lon="4.79146">
        <ele>242</ele>
        <time>2018-01-31T11:03:08Z</time>
      </trkpt>
      <trkpt lat="45.98414" lon="4.7914">
        <ele>242</ele>
        <time>2018-01-31T11:03:09Z</time>
      </trkpt>
      <trkpt lat="45.98411" lon="4.79134">
        <ele>242</ele>
        <time>2018-01-31T11:03:10Z</time>
      </trkpt>
      <trkpt lat="45.98408" lon="4.79129">
        <ele>242</ele>
        <time>2018-01-31T11:03:11Z</time>
      </trkpt>
      <trkpt lat="45.98406" lon="4.79123">
        <ele>242</ele>
        <time>2018-01-31T11:03:12Z</time>
      </trkpt>
      <trkpt lat="45.98403" lon="4.79117">
        <ele>242</ele>
        <time>2018-01-31T11:03:13Z</time>
      </trkpt>
      <trkpt lat="45.984" lon="4.79111">
        <ele>242</ele>
        <time>2018-01-31T11:03:14Z</time>
      </trkpt>
      <trkpt lat="45.98397" lon="4.79105">
        <ele>242</ele>
        <time>2018-01-31T11:03:15Z</time>
      </trkpt>
      <trkpt lat="45.98393" lon="4.79098">
        <ele>242</ele>
        <time>2018-01-31T11:03:16Z</time>
      </trkpt>
      <trkpt lat="45.9839" lon="4.79092">
        <ele>242</ele>
        <time>2018-01-31T11:03:17Z</time>
      </trkpt>
      <trkpt lat="45.98386" lon="4.79085">
        <ele>242</ele>
        <time>2018-01-31T11:03:18Z</time>
      </trkpt>
      <trkpt lat="45.98383" lon="4.79079">
        <ele>242</ele>
        <time>2018-01-31T11:03:19Z</time>
      </trkpt>
      <trkpt lat="45.9838" lon="4.79072">
        <ele>242</ele>
        <time>2018-01-31T11:03:20Z</time>
      </trkpt>
      <trkpt lat="45.98376" lon="4.79065">
        <ele>242</ele>
        <time>2018-01-31T11:03:21Z</time>
      </trkpt>
      <trkpt lat="45.98372" lon="4.79057">
        <ele>242</ele>
        <time>2018-01-31T11:03:22Z</time>
      </trkpt>
      <trkpt lat="45.98368" lon="4.7905">
        <ele>242</ele>
        <time>2018-01-31T11:03:23Z</time>
      </trkpt>
      <trkpt lat="45.98365" lon="4.79044">
        <ele>242</ele>
        <time>2018-01-31T11:03:24Z</time>
      </trkpt>
      <trkpt lat="45.98359" lon="4.79038">
        <ele>242</ele>
        <time>2018-01-31T11:03:25Z</time>
      </trkpt>
      <trkpt lat="45.98355" lon="4.79032">
        <ele>242</ele>
        <time>2018-01-31T11:03:26Z</time>
      </trkpt>
      <trkpt lat="45.98351" lon="4.79027">
        <ele>242</ele>
        <time>2018-01-31T11:03:27Z</time>
      </trkpt>
      <trkpt lat="45.98348" lon="4.79021">
        <ele>242</ele>
        <time>2018-01-31T11:03:28Z</time>
      </trkpt>
      <trkpt lat="45.98341" lon="4.79015">
        <ele>242</ele>
        <time>2018-01-31T11:03:30Z</time>
      </trkpt>
      <trkpt lat="45.98335" lon="4.79013">
        <ele>242</ele>
        <time>2018-01-31T11:03:31Z</time>
      </trkpt>
      <trkpt lat="45.9833" lon="4.79011">
        <ele>242</ele>
        <time>2018-01-31T11:03:32Z</time>
      </trkpt>
      <trkpt lat="45.98325" lon="4.79007">
        <ele>242</ele>
        <time>2018-01-31T11:03:33Z</time>
      </trkpt>
      <trkpt lat="45.9832" lon="4.79004">
        <ele>242</ele>
        <time>2018-01-31T11:03:34Z</time>
      </trkpt>
      <trkpt lat="45.98314" lon="4.79001">
        <ele>242</ele>
        <time>2018-01-31T11:03:35Z</time>
      </trkpt>
      <trkpt lat="45.98309" lon="4.78998">
        <ele>241</ele>
        <time>2018-01-31T11:03:36Z</time>
      </trkpt>
      <trkpt lat="45.98305" lon="4.78994">
        <ele>241</ele>
        <time>2018-01-31T11:03:37Z</time>
      </trkpt>
      <trkpt lat="45.98299" lon="4.7899">
        <ele>241</ele>
        <time>2018-01-31T11:03:38Z</time>
      </trkpt>
      <trkpt lat="45.98293" lon="4.78987">
        <ele>241</ele>
        <time>2018-01-31T11:03:39Z</time>
      </trkpt>
      <trkpt lat="45.98287" lon="4.78984">
        <ele>241</ele>
        <time>2018-01-31T11:03:40Z</time>
      </trkpt>
      <trkpt lat="45.98282" lon="4.7898">
        <ele>241</ele>
        <time>2018-01-31T11:03:41Z</time>
      </trkpt>
      <trkpt lat="45.98276" lon="4.78976">
        <ele>241</ele>
        <time>2018-01-31T11:03:42Z</time>
      </trkpt>
      <trkpt lat="45.98269" lon="4.78973">
        <ele>241</ele>
        <time>2018-01-31T11:03:43Z</time>
      </trkpt>
      <trkpt lat="45.98263" lon="4.7897">
        <ele>241</ele>
        <time>2018-01-31T11:03:44Z</time>
      </trkpt>
      <trkpt lat="45.98258" lon="4.78965">
        <ele>241</ele>
        <time>2018-01-31T11:03:45Z</time>
      </trkpt>
      <trkpt lat="45.98251" lon="4.78962">
        <ele>241</ele>
        <time>2018-01-31T11:03:46Z</time>
      </trkpt>
      <trkpt lat="45.98246" lon="4.78958">
        <ele>241</ele>
        <time>2018-01-31T11:03:47Z</time>
      </trkpt>
      <trkpt lat="45.9824" lon="4.78955">
        <ele>241</ele>
        <time>2018-01-31T11:03:48Z</time>
      </trkpt>
      <trkpt lat="45.98234" lon="4.78952">
        <ele>241</ele>
        <time>2018-01-31T11:03:49Z</time>
      </trkpt>
      <trkpt lat="45.98229" lon="4.7895">
        <ele>241</ele>
        <time>2018-01-31T11:03:50Z</time>
      </trkpt>
      <trkpt lat="45.98224" lon="4.78945">
        <ele>241</ele>
        <time>2018-01-31T11:03:51Z</time>
      </trkpt>
      <trkpt lat="45.98218" lon="4.78942">
        <ele>241</ele>
        <time>2018-01-31T11:03:52Z</time>
      </trkpt>
      <trkpt lat="45.98213" lon="4.78938">
        <ele>241</ele>
        <time>2018-01-31T11:03:53Z</time>
      </trkpt>
      <trkpt lat="45.98207" lon="4.78935">
        <ele>241</ele>
        <time>2018-01-31T11:03:54Z</time>
      </trkpt>
      <trkpt lat="45.98202" lon="4.78932">
        <ele>241</ele>
        <time>2018-01-31T11:03:55Z</time>
      </trkpt>
      <trkpt lat="45.98196" lon="4.78928">
        <ele>241</ele>
        <time>2018-01-31T11:03:56Z</time>
      </trkpt>
      <trkpt lat="45.9819" lon="4.78924">
        <ele>241</ele>
        <time>2018-01-31T11:03:57Z</time>
      </trkpt>
      <trkpt lat="45.98183" lon="4.78921">
        <ele>240</ele>
        <time>2018-01-31T11:03:58Z</time>
      </trkpt>
      <trkpt lat="45.98178" lon="4.78917">
        <ele>240</ele>
        <time>2018-01-31T11:03:59Z</time>
      </trkpt>
      <trkpt lat="45.98172" lon="4.78914">
        <ele>240</ele>
        <time>2018-01-31T11:04:00Z</time>
      </trkpt>
      <trkpt lat="45.98167" lon="4.7891">
        <ele>240</ele>
        <time>2018-01-31T11:04:01Z</time>
      </trkpt>
      <trkpt lat="45.98162" lon="4.78907">
        <ele>240</ele>
        <time>2018-01-31T11:04:02Z</time>
      </trkpt>
      <trkpt lat="45.98156" lon="4.78904">
        <ele>240</ele>
        <time>2018-01-31T11:04:03Z</time>
      </trkpt>
      <trkpt lat="45.9815" lon="4.789">
        <ele>240</ele>
        <time>2018-01-31T11:04:04Z</time>
      </trkpt>
      <trkpt lat="45.98145" lon="4.78897">
        <ele>240</ele>
        <time>2018-01-31T11:04:05Z</time>
      </trkpt>
      <trkpt lat="45.98139" lon="4.78895">
        <ele>240</ele>
        <time>2018-01-31T11:04:06Z</time>
      </trkpt>
      <trkpt lat="45.98133" lon="4.78892">
        <ele>240</ele>
        <time>2018-01-31T11:04:07Z</time>
      </trkpt>
      <trkpt lat="45.98128" lon="4.78888">
        <ele>240</ele>
        <time>2018-01-31T11:04:08Z</time>
      </trkpt>
      <trkpt lat="45.98122" lon="4.78885">
        <ele>240</ele>
        <time>2018-01-31T11:04:09Z</time>
      </trkpt>
      <trkpt lat="45.98118" lon="4.78882">
        <ele>240</ele>
        <time>2018-01-31T11:04:10Z</time>
      </trkpt>
      <trkpt lat="45.98113" lon="4.78879">
        <ele>240</ele>
        <time>2018-01-31T11:04:11Z</time>
      </trkpt>
      <trkpt lat="45.98108" lon="4.78875">
        <ele>239</ele>
        <time>2018-01-31T11:04:12Z</time>
      </trkpt>
      <trkpt lat="45.98102" lon="4.78871">
        <ele>239</ele>
        <time>2018-01-31T11:04:13Z</time>
      </trkpt>
      <trkpt lat="45.98097" lon="4.78867">
        <ele>239</ele>
        <time>2018-01-31T11:04:14Z</time>
      </trkpt>
      <trkpt lat="45.98093" lon="4.78864">
        <ele>239</ele>
        <time>2018-01-31T11:04:15Z</time>
      </trkpt>
      <trkpt lat="45.98089" lon="4.78861">
        <ele>239</ele>
        <time>2018-01-31T11:04:16Z</time>
      </trkpt>
      <trkpt lat="45.98084" lon="4.78856">
        <ele>239</ele>
        <time>2018-01-31T11:04:17Z</time>
      </trkpt>
      <trkpt lat="45.98079" lon="4.78853">
        <ele>239</ele>
        <time>2018-01-31T11:04:18Z</time>
      </trkpt>
      <trkpt lat="45.98074" lon="4.78849">
        <ele>238</ele>
        <time>2018-01-31T11:04:19Z</time>
      </trkpt>
      <trkpt lat="45.9807" lon="4.78846">
        <ele>238</ele>
        <time>2018-01-31T11:04:20Z</time>
      </trkpt>
      <trkpt lat="45.98064" lon="4.78841">
        <ele>238</ele>
        <time>2018-01-31T11:04:21Z</time>
      </trkpt>
      <trkpt lat="45.98059" lon="4.78838">
        <ele>238</ele>
        <time>2018-01-31T11:04:22Z</time>
      </trkpt>
      <trkpt lat="45.98055" lon="4.78834">
        <ele>238</ele>
        <time>2018-01-31T11:04:23Z</time>
      </trkpt>
      <trkpt lat="45.9805" lon="4.7883">
        <ele>238</ele>
        <time>2018-01-31T11:04:24Z</time>
      </trkpt>
      <trkpt lat="45.98045" lon="4.78826">
        <ele>238</ele>
        <time>2018-01-31T11:04:25Z</time>
      </trkpt>
      <trkpt lat="45.98039" lon="4.78823">
        <ele>238</ele>
        <time>2018-01-31T11:04:26Z</time>
      </trkpt>
      <trkpt lat="45.98034" lon="4.7882">
        <ele>238</ele>
        <time>2018-01-31T11:04:27Z</time>
      </trkpt>
      <trkpt lat="45.98029" lon="4.78817">
        <ele>238</ele>
        <time>2018-01-31T11:04:28Z</time>
      </trkpt>
      <trkpt lat="45.98024" lon="4.78814">
        <ele>238</ele>
        <time>2018-01-31T11:04:29Z</time>
      </trkpt>
      <trkpt lat="45.9802" lon="4.78811">
        <ele>238</ele>
        <time>2018-01-31T11:04:30Z</time>
      </trkpt>
      <trkpt lat="45.98015" lon="4.78808">
        <ele>238</ele>
        <time>2018-01-31T11:04:31Z</time>
      </trkpt>
      <trkpt lat="45.9801" lon="4.78804">
        <ele>238</ele>
        <time>2018-01-31T11:04:32Z</time>
      </trkpt>
      <trkpt lat="45.98006" lon="4.788">
        <ele>238</ele>
        <time>2018-01-31T11:04:33Z</time>
      </trkpt>
      <trkpt lat="45.98" lon="4.78797">
        <ele>238</ele>
        <time>2018-01-31T11:04:34Z</time>
      </trkpt>
      <trkpt lat="45.97995" lon="4.78793">
        <ele>238</ele>
        <time>2018-01-31T11:04:35Z</time>
      </trkpt>
      <trkpt lat="45.97991" lon="4.7879">
        <ele>238</ele>
        <time>2018-01-31T11:04:36Z</time>
      </trkpt>
      <trkpt lat="45.97985" lon="4.78787">
        <ele>238</ele>
        <time>2018-01-31T11:04:37Z</time>
      </trkpt>
      <trkpt lat="45.97981" lon="4.78784">
        <ele>238</ele>
        <time>2018-01-31T11:04:38Z</time>
      </trkpt>
      <trkpt lat="45.97977" lon="4.7878">
        <ele>238</ele>
        <time>2018-01-31T11:04:39Z</time>
      </trkpt>
      <trkpt lat="45.97972" lon="4.78777">
        <ele>238</ele>
        <time>2018-01-31T11:04:40Z</time>
      </trkpt>
      <trkpt lat="45.97968" lon="4.78774">
        <ele>238</ele>
        <time>2018-01-31T11:04:41Z</time>
      </trkpt>
      <trkpt lat="45.97964" lon="4.7877">
        <ele>238</ele>
        <time>2018-01-31T11:04:42Z</time>
      </trkpt>
      <trkpt lat="45.97959" lon="4.78767">
        <ele>238</ele>
        <time>2018-01-31T11:04:43Z</time>
      </trkpt>
      <trkpt lat="45.97954" lon="4.78763">
        <ele>238</ele>
        <time>2018-01-31T11:04:44Z</time>
      </trkpt>
      <trkpt lat="45.97949" lon="4.78759">
        <ele>238</ele>
        <time>2018-01-31T11:04:45Z</time>
      </trkpt>
      <trkpt lat="45.97945" lon="4.78755">
        <ele>238</ele>
        <time>2018-01-31T11:04:46Z</time>
      </trkpt>
      <trkpt lat="45.9794" lon="4.78752">
        <ele>238</ele>
        <time>2018-01-31T11:04:47Z</time>
      </trkpt>
      <trkpt lat="45.97935" lon="4.7875">
        <ele>237</ele>
        <time>2018-01-31T11:04:48Z</time>
      </trkpt>
      <trkpt lat="45.9793" lon="4.78747">
        <ele>237</ele>
        <time>2018-01-31T11:04:49Z</time>
      </trkpt>
      <trkpt lat="45.97925" lon="4.78744">
        <ele>237</ele>
        <time>2018-01-31T11:04:50Z</time>
      </trkpt>
      <trkpt lat="45.9792" lon="4.7874">
        <ele>237</ele>
        <time>2018-01-31T11:04:51Z</time>
      </trkpt>
      <trkpt lat="45.97916" lon="4.78736">
        <ele>237</ele>
        <time>2018-01-31T11:04:52Z</time>
      </trkpt>
      <trkpt lat="45.97911" lon="4.78732">
        <ele>237</ele>
        <time>2018-01-31T11:04:53Z</time>
      </trkpt>
      <trkpt lat="45.97906" lon="4.78728">
        <ele>237</ele>
        <time>2018-01-31T11:04:54Z</time>
      </trkpt>
      <trkpt lat="45.97901" lon="4.78725">
        <ele>237</ele>
        <time>2018-01-31T11:04:55Z</time>
      </trkpt>
      <trkpt lat="45.97896" lon="4.78723">
        <ele>236</ele>
        <time>2018-01-31T11:04:56Z</time>
      </trkpt>
      <trkpt lat="45.97891" lon="4.78718">
        <ele>236</ele>
        <time>2018-01-31T11:04:57Z</time>
      </trkpt>
      <trkpt lat="45.97886" lon="4.78714">
        <ele>236</ele>
        <time>2018-01-31T11:04:58Z</time>
      </trkpt>
      <trkpt lat="45.97881" lon="4.78711">
        <ele>236</ele>
        <time>2018-01-31T11:04:59Z</time>
      </trkpt>
      <trkpt lat="45.97875" lon="4.78707">
        <ele>236</ele>
        <time>2018-01-31T11:05:00Z</time>
      </trkpt>
      <trkpt lat="45.9787" lon="4.78703">
        <ele>236</ele>
        <time>2018-01-31T11:05:01Z</time>
      </trkpt>
      <trkpt lat="45.97865" lon="4.78699">
        <ele>236</ele>
        <time>2018-01-31T11:05:02Z</time>
      </trkpt>
      <trkpt lat="45.9786" lon="4.78696">
        <ele>236</ele>
        <time>2018-01-31T11:05:03Z</time>
      </trkpt>
      <trkpt lat="45.97855" lon="4.78693">
        <ele>236</ele>
        <time>2018-01-31T11:05:04Z</time>
      </trkpt>
      <trkpt lat="45.9785" lon="4.78689">
        <ele>236</ele>
        <time>2018-01-31T11:05:05Z</time>
      </trkpt>
      <trkpt lat="45.97844" lon="4.78686">
        <ele>236</ele>
        <time>2018-01-31T11:05:06Z</time>
      </trkpt>
      <trkpt lat="45.97838" lon="4.78683">
        <ele>236</ele>
        <time>2018-01-31T11:05:07Z</time>
      </trkpt>
      <trkpt lat="45.97833" lon="4.78681">
        <ele>235</ele>
        <time>2018-01-31T11:05:08Z</time>
      </trkpt>
      <trkpt lat="45.97827" lon="4.78678">
        <ele>235</ele>
        <time>2018-01-31T11:05:09Z</time>
      </trkpt>
      <trkpt lat="45.97821" lon="4.78676">
        <ele>235</ele>
        <time>2018-01-31T11:05:10Z</time>
      </trkpt>
      <trkpt lat="45.97816" lon="4.78674">
        <ele>235</ele>
        <time>2018-01-31T11:05:11Z</time>
      </trkpt>
      <trkpt lat="45.9781" lon="4.7867">
        <ele>235</ele>
        <time>2018-01-31T11:05:12Z</time>
      </trkpt>
      <trkpt lat="45.97804" lon="4.78668">
        <ele>235</ele>
        <time>2018-01-31T11:05:13Z</time>
      </trkpt>
      <trkpt lat="45.97798" lon="4.78666">
        <ele>235</ele>
        <time>2018-01-31T11:05:14Z</time>
      </trkpt>
      <trkpt lat="45.97792" lon="4.78663">
        <ele>235</ele>
        <time>2018-01-31T11:05:15Z</time>
      </trkpt>
      <trkpt lat="45.97786" lon="4.78662">
        <ele>235</ele>
        <time>2018-01-31T11:05:16Z</time>
      </trkpt>
      <trkpt lat="45.9778" lon="4.7866">
        <ele>235</ele>
        <time>2018-01-31T11:05:17Z</time>
      </trkpt>
      <trkpt lat="45.97775" lon="4.78658">
        <ele>235</ele>
        <time>2018-01-31T11:05:18Z</time>
      </trkpt>
      <trkpt lat="45.9777" lon="4.78656">
        <ele>235</ele>
        <time>2018-01-31T11:05:19Z</time>
      </trkpt>
      <trkpt lat="45.97766" lon="4.78653">
        <ele>235</ele>
        <time>2018-01-31T11:05:20Z</time>
      </trkpt>
      <trkpt lat="45.97761" lon="4.78651">
        <ele>235</ele>
        <time>2018-01-31T11:05:21Z</time>
      </trkpt>
      <trkpt lat="45.97756" lon="4.7865">
        <ele>235</ele>
        <time>2018-01-31T11:05:22Z</time>
      </trkpt>
      <trkpt lat="45.97751" lon="4.78648">
        <ele>235</ele>
        <time>2018-01-31T11:05:23Z</time>
      </trkpt>
      <trkpt lat="45.97746" lon="4.78647">
        <ele>234</ele>
        <time>2018-01-31T11:05:24Z</time>
      </trkpt>
      <trkpt lat="45.97742" lon="4.78645">
        <ele>234</ele>
        <time>2018-01-31T11:05:25Z</time>
      </trkpt>
      <trkpt lat="45.97737" lon="4.78642">
        <ele>234</ele>
        <time>2018-01-31T11:05:26Z</time>
      </trkpt>
      <trkpt lat="45.97731" lon="4.7864">
        <ele>234</ele>
        <time>2018-01-31T11:05:27Z</time>
      </trkpt>
      <trkpt lat="45.97726" lon="4.78637">
        <ele>234</ele>
        <time>2018-01-31T11:05:28Z</time>
      </trkpt>
      <trkpt lat="45.97721" lon="4.78635">
        <ele>234</ele>
        <time>2018-01-31T11:05:29Z</time>
      </trkpt>
      <trkpt lat="45.97715" lon="4.78632">
        <ele>234</ele>
        <time>2018-01-31T11:05:30Z</time>
      </trkpt>
      <trkpt lat="45.9771" lon="4.78629">
        <ele>234</ele>
        <time>2018-01-31T11:05:31Z</time>
      </trkpt>
      <trkpt lat="45.97704" lon="4.78627">
        <ele>234</ele>
        <time>2018-01-31T11:05:32Z</time>
      </trkpt>
      <trkpt lat="45.97699" lon="4.78624">
        <ele>234</ele>
        <time>2018-01-31T11:05:33Z</time>
      </trkpt>
      <trkpt lat="45.97694" lon="4.78622">
        <ele>234</ele>
        <time>2018-01-31T11:05:34Z</time>
      </trkpt>
      <trkpt lat="45.97689" lon="4.7862">
        <ele>234</ele>
        <time>2018-01-31T11:05:35Z</time>
      </trkpt>
      <trkpt lat="45.97683" lon="4.78618">
        <ele>234</ele>
        <time>2018-01-31T11:05:36Z</time>
      </trkpt>
      <trkpt lat="45.97678" lon="4.78615">
        <ele>234</ele>
        <time>2018-01-31T11:05:37Z</time>
      </trkpt>
      <trkpt lat="45.97673" lon="4.78612">
        <ele>234</ele>
        <time>2018-01-31T11:05:38Z</time>
      </trkpt>
      <trkpt lat="45.97668" lon="4.78609">
        <ele>234</ele>
        <time>2018-01-31T11:05:39Z</time>
      </trkpt>
      <trkpt lat="45.97662" lon="4.78607">
        <ele>233</ele>
        <time>2018-01-31T11:05:40Z</time>
      </trkpt>
      <trkpt lat="45.97657" lon="4.78605">
        <ele>233</ele>
        <time>2018-01-31T11:05:41Z</time>
      </trkpt>
      <trkpt lat="45.97653" lon="4.78603">
        <ele>233</ele>
        <time>2018-01-31T11:05:42Z</time>
      </trkpt>
      <trkpt lat="45.97647" lon="4.78601">
        <ele>233</ele>
        <time>2018-01-31T11:05:43Z</time>
      </trkpt>
      <trkpt lat="45.97642" lon="4.78598">
        <ele>233</ele>
        <time>2018-01-31T11:05:44Z</time>
      </trkpt>
      <trkpt lat="45.97637" lon="4.78596">
        <ele>233</ele>
        <time>2018-01-31T11:05:45Z</time>
      </trkpt>
      <trkpt lat="45.97632" lon="4.78594">
        <ele>233</ele>
        <time>2018-01-31T11:05:46Z</time>
      </trkpt>
      <trkpt lat="45.97627" lon="4.78592">
        <ele>233</ele>
        <time>2018-01-31T11:05:47Z</time>
      </trkpt>
      <trkpt lat="45.97622" lon="4.7859">
        <ele>233</ele>
        <time>2018-01-31T11:05:48Z</time>
      </trkpt>
      <trkpt lat="45.97616" lon="4.78588">
        <ele>233</ele>
        <time>2018-01-31T11:05:49Z</time>
      </trkpt>
      <trkpt lat="45.97611" lon="4.78587">
        <ele>233</ele>
        <time>2018-01-31T11:05:50Z</time>
      </trkpt>
      <trkpt lat="45.97606" lon="4.78586">
        <ele>233</ele>
        <time>2018-01-31T11:05:51Z</time>
      </trkpt>
      <trkpt lat="45.97601" lon="4.78583">
        <ele>234</ele>
        <time>2018-01-31T11:05:52Z</time>
      </trkpt>
      <trkpt lat="45.97596" lon="4.78581">
        <ele>234</ele>
        <time>2018-01-31T11:05:53Z</time>
      </trkpt>
      <trkpt lat="45.97591" lon="4.78579">
        <ele>233</ele>
        <time>2018-01-31T11:05:54Z</time>
      </trkpt>
      <trkpt lat="45.97586" lon="4.78577">
        <ele>233</ele>
        <time>2018-01-31T11:05:55Z</time>
      </trkpt>
      <trkpt lat="45.97581" lon="4.78576">
        <ele>233</ele>
        <time>2018-01-31T11:05:56Z</time>
      </trkpt>
      <trkpt lat="45.97577" lon="4.78574">
        <ele>233</ele>
        <time>2018-01-31T11:05:57Z</time>
      </trkpt>
      <trkpt lat="45.97573" lon="4.78572">
        <ele>233</ele>
        <time>2018-01-31T11:05:58Z</time>
      </trkpt>
      <trkpt lat="45.97568" lon="4.7857">
        <ele>233</ele>
        <time>2018-01-31T11:05:59Z</time>
      </trkpt>
      <trkpt lat="45.97563" lon="4.78569">
        <ele>233</ele>
        <time>2018-01-31T11:06:00Z</time>
      </trkpt>
      <trkpt lat="45.97558" lon="4.78567">
        <ele>234</ele>
        <time>2018-01-31T11:06:01Z</time>
      </trkpt>
      <trkpt lat="45.97553" lon="4.78564">
        <ele>234</ele>
        <time>2018-01-31T11:06:02Z</time>
      </trkpt>
      <trkpt lat="45.97549" lon="4.78562">
        <ele>234</ele>
        <time>2018-01-31T11:06:03Z</time>
      </trkpt>
      <trkpt lat="45.9754" lon="4.78558">
        <ele>234</ele>
        <time>2018-01-31T11:06:05Z</time>
      </trkpt>
      <trkpt lat="45.97535" lon="4.78556">
        <ele>234</ele>
        <time>2018-01-31T11:06:06Z</time>
      </trkpt>
      <trkpt lat="45.97531" lon="4.78553">
        <ele>234</ele>
        <time>2018-01-31T11:06:07Z</time>
      </trkpt>
      <trkpt lat="45.97526" lon="4.78551">
        <ele>234</ele>
        <time>2018-01-31T11:06:08Z</time>
      </trkpt>
      <trkpt lat="45.97521" lon="4.78548">
        <ele>234</ele>
        <time>2018-01-31T11:06:09Z</time>
      </trkpt>
      <trkpt lat="45.97516" lon="4.78546">
        <ele>234</ele>
        <time>2018-01-31T11:06:10Z</time>
      </trkpt>
      <trkpt lat="45.97509" lon="4.7854">
        <ele>234</ele>
        <time>2018-01-31T11:06:12Z</time>
      </trkpt>
      <trkpt lat="45.97504" lon="4.78538">
        <ele>234</ele>
        <time>2018-01-31T11:06:13Z</time>
      </trkpt>
      <trkpt lat="45.975" lon="4.78535">
        <ele>233</ele>
        <time>2018-01-31T11:06:14Z</time>
      </trkpt>
      <trkpt lat="45.97495" lon="4.78532">
        <ele>233</ele>
        <time>2018-01-31T11:06:15Z</time>
      </trkpt>
      <trkpt lat="45.97491" lon="4.78529">
        <ele>233</ele>
        <time>2018-01-31T11:06:16Z</time>
      </trkpt>
      <trkpt lat="45.97487" lon="4.78526">
        <ele>233</ele>
        <time>2018-01-31T11:06:17Z</time>
      </trkpt>
      <trkpt lat="45.97479" lon="4.78519">
        <ele>234</ele>
        <time>2018-01-31T11:06:19Z</time>
      </trkpt>
      <trkpt lat="45.97476" lon="4.78516">
        <ele>234</ele>
        <time>2018-01-31T11:06:20Z</time>
      </trkpt>
      <trkpt lat="45.97472" lon="4.78513">
        <ele>234</ele>
        <time>2018-01-31T11:06:21Z</time>
      </trkpt>
      <trkpt lat="45.97467" lon="4.78509">
        <ele>234</ele>
        <time>2018-01-31T11:06:22Z</time>
      </trkpt>
      <trkpt lat="45.9746" lon="4.78502">
        <ele>234</ele>
        <time>2018-01-31T11:06:24Z</time>
      </trkpt>
      <trkpt lat="45.97455" lon="4.78499">
        <ele>234</ele>
        <time>2018-01-31T11:06:25Z</time>
      </trkpt>
      <trkpt lat="45.97451" lon="4.78494">
        <ele>234</ele>
        <time>2018-01-31T11:06:26Z</time>
      </trkpt>
      <trkpt lat="45.97446" lon="4.7849">
        <ele>234</ele>
        <time>2018-01-31T11:06:27Z</time>
      </trkpt>
      <trkpt lat="45.97442" lon="4.78486">
        <ele>234</ele>
        <time>2018-01-31T11:06:28Z</time>
      </trkpt>
      <trkpt lat="45.97437" lon="4.78482">
        <ele>234</ele>
        <time>2018-01-31T11:06:29Z</time>
      </trkpt>
      <trkpt lat="45.97432" lon="4.78478">
        <ele>234</ele>
        <time>2018-01-31T11:06:30Z</time>
      </trkpt>
      <trkpt lat="45.97427" lon="4.78475">
        <ele>234</ele>
        <time>2018-01-31T11:06:31Z</time>
      </trkpt>
      <trkpt lat="45.97423" lon="4.78471">
        <ele>234</ele>
        <time>2018-01-31T11:06:32Z</time>
      </trkpt>
      <trkpt lat="45.9742" lon="4.78467">
        <ele>234</ele>
        <time>2018-01-31T11:06:33Z</time>
      </trkpt>
      <trkpt lat="45.97417" lon="4.78463">
        <ele>233</ele>
        <time>2018-01-31T11:06:34Z</time>
      </trkpt>
      <trkpt lat="45.97412" lon="4.78459">
        <ele>233</ele>
        <time>2018-01-31T11:06:35Z</time>
      </trkpt>
      <trkpt lat="45.97408" lon="4.78455">
        <ele>233</ele>
        <time>2018-01-31T11:06:36Z</time>
      </trkpt>
      <trkpt lat="45.97404" lon="4.78451">
        <ele>233</ele>
        <time>2018-01-31T11:06:37Z</time>
      </trkpt>
      <trkpt lat="45.974" lon="4.78447">
        <ele>233</ele>
        <time>2018-01-31T11:06:38Z</time>
      </trkpt>
      <trkpt lat="45.97396" lon="4.78443">
        <ele>233</ele>
        <time>2018-01-31T11:06:39Z</time>
      </trkpt>
      <trkpt lat="45.97391" lon="4.78439">
        <ele>233</ele>
        <time>2018-01-31T11:06:40Z</time>
      </trkpt>
      <trkpt lat="45.97387" lon="4.78435">
        <ele>233</ele>
        <time>2018-01-31T11:06:41Z</time>
      </trkpt>
      <trkpt lat="45.97381" lon="4.7843">
        <ele>233</ele>
        <time>2018-01-31T11:06:42Z</time>
      </trkpt>
      <trkpt lat="45.97377" lon="4.78424">
        <ele>233</ele>
        <time>2018-01-31T11:06:43Z</time>
      </trkpt>
      <trkpt lat="45.97372" lon="4.78419">
        <ele>233</ele>
        <time>2018-01-31T11:06:44Z</time>
      </trkpt>
      <trkpt lat="45.97367" lon="4.78415">
        <ele>233</ele>
        <time>2018-01-31T11:06:45Z</time>
      </trkpt>
      <trkpt lat="45.97362" lon="4.7841">
        <ele>233</ele>
        <time>2018-01-31T11:06:46Z</time>
      </trkpt>
      <trkpt lat="45.97358" lon="4.78405">
        <ele>233</ele>
        <time>2018-01-31T11:06:47Z</time>
      </trkpt>
      <trkpt lat="45.97352" lon="4.78401">
        <ele>232</ele>
        <time>2018-01-31T11:06:48Z</time>
      </trkpt>
      <trkpt lat="45.97348" lon="4.78397">
        <ele>232</ele>
        <time>2018-01-31T11:06:49Z</time>
      </trkpt>
      <trkpt lat="45.97344" lon="4.78393">
        <ele>233</ele>
        <time>2018-01-31T11:06:50Z</time>
      </trkpt>
      <trkpt lat="45.9734" lon="4.78388">
        <ele>233</ele>
        <time>2018-01-31T11:06:51Z</time>
      </trkpt>
      <trkpt lat="45.97336" lon="4.78384">
        <ele>233</ele>
        <time>2018-01-31T11:06:52Z</time>
      </trkpt>
      <trkpt lat="45.97332" lon="4.78379">
        <ele>232</ele>
        <time>2018-01-31T11:06:53Z</time>
      </trkpt>
      <trkpt lat="45.97328" lon="4.78374">
        <ele>232</ele>
        <time>2018-01-31T11:06:54Z</time>
      </trkpt>
      <trkpt lat="45.97324" lon="4.78368">
        <ele>232</ele>
        <time>2018-01-31T11:06:55Z</time>
      </trkpt>
      <trkpt lat="45.9732" lon="4.78362">
        <ele>232</ele>
        <time>2018-01-31T11:06:56Z</time>
      </trkpt>
      <trkpt lat="45.97316" lon="4.78357">
        <ele>232</ele>
        <time>2018-01-31T11:06:57Z</time>
      </trkpt>
      <trkpt lat="45.97312" lon="4.78352">
        <ele>232</ele>
        <time>2018-01-31T11:06:58Z</time>
      </trkpt>
      <trkpt lat="45.97308" lon="4.78347">
        <ele>232</ele>
        <time>2018-01-31T11:06:59Z</time>
      </trkpt>
      <trkpt lat="45.97304" lon="4.78344">
        <ele>232</ele>
        <time>2018-01-31T11:07:00Z</time>
      </trkpt>
      <trkpt lat="45.973" lon="4.78339">
        <ele>232</ele>
        <time>2018-01-31T11:07:01Z</time>
      </trkpt>
      <trkpt lat="45.97296" lon="4.78333">
        <ele>232</ele>
        <time>2018-01-31T11:07:02Z</time>
      </trkpt>
      <trkpt lat="45.97292" lon="4.78328">
        <ele>232</ele>
        <time>2018-01-31T11:07:03Z</time>
      </trkpt>
      <trkpt lat="45.97288" lon="4.78323">
        <ele>232</ele>
        <time>2018-01-31T11:07:04Z</time>
      </trkpt>
      <trkpt lat="45.97285" lon="4.78317">
        <ele>232</ele>
        <time>2018-01-31T11:07:05Z</time>
      </trkpt>
      <trkpt lat="45.97281" lon="4.78312">
        <ele>232</ele>
        <time>2018-01-31T11:07:06Z</time>
      </trkpt>
      <trkpt lat="45.97277" lon="4.78307">
        <ele>232</ele>
        <time>2018-01-31T11:07:07Z</time>
      </trkpt>
      <trkpt lat="45.97273" lon="4.78301">
        <ele>232</ele>
        <time>2018-01-31T11:07:08Z</time>
      </trkpt>
      <trkpt lat="45.97269" lon="4.78296">
        <ele>232</ele>
        <time>2018-01-31T11:07:09Z</time>
      </trkpt>
      <trkpt lat="45.97266" lon="4.7829">
        <ele>232</ele>
        <time>2018-01-31T11:07:10Z</time>
      </trkpt>
      <trkpt lat="45.97262" lon="4.78284">
        <ele>232</ele>
        <time>2018-01-31T11:07:11Z</time>
      </trkpt>
      <trkpt lat="45.97259" lon="4.78279">
        <ele>232</ele>
        <time>2018-01-31T11:07:12Z</time>
      </trkpt>
      <trkpt lat="45.97255" lon="4.78274">
        <ele>232</ele>
        <time>2018-01-31T11:07:13Z</time>
      </trkpt>
      <trkpt lat="45.9725" lon="4.78268">
        <ele>231</ele>
        <time>2018-01-31T11:07:14Z</time>
      </trkpt>
      <trkpt lat="45.97246" lon="4.78263">
        <ele>231</ele>
        <time>2018-01-31T11:07:15Z</time>
      </trkpt>
      <trkpt lat="45.97243" lon="4.78257">
        <ele>231</ele>
        <time>2018-01-31T11:07:16Z</time>
      </trkpt>
      <trkpt lat="45.97239" lon="4.78252">
        <ele>231</ele>
        <time>2018-01-31T11:07:17Z</time>
      </trkpt>
      <trkpt lat="45.97236" lon="4.78246">
        <ele>231</ele>
        <time>2018-01-31T11:07:18Z</time>
      </trkpt>
      <trkpt lat="45.97232" lon="4.78241">
        <ele>231</ele>
        <time>2018-01-31T11:07:19Z</time>
      </trkpt>
      <trkpt lat="45.97229" lon="4.78234">
        <ele>231</ele>
        <time>2018-01-31T11:07:20Z</time>
      </trkpt>
      <trkpt lat="45.97225" lon="4.78229">
        <ele>231</ele>
        <time>2018-01-31T11:07:21Z</time>
      </trkpt>
      <trkpt lat="45.97221" lon="4.78222">
        <ele>231</ele>
        <time>2018-01-31T11:07:22Z</time>
      </trkpt>
      <trkpt lat="45.97218" lon="4.78216">
        <ele>231</ele>
        <time>2018-01-31T11:07:23Z</time>
      </trkpt>
      <trkpt lat="45.97214" lon="4.78211">
        <ele>231</ele>
        <time>2018-01-31T11:07:24Z</time>
      </trkpt>
      <trkpt lat="45.97211" lon="4.78204">
        <ele>231</ele>
        <time>2018-01-31T11:07:25Z</time>
      </trkpt>
      <trkpt lat="45.97209" lon="4.78198">
        <ele>231</ele>
        <time>2018-01-31T11:07:26Z</time>
      </trkpt>
      <trkpt lat="45.97206" lon="4.78192">
        <ele>231</ele>
        <time>2018-01-31T11:07:27Z</time>
      </trkpt>
      <trkpt lat="45.97202" lon="4.78185">
        <ele>231</ele>
        <time>2018-01-31T11:07:28Z</time>
      </trkpt>
      <trkpt lat="45.97199" lon="4.78179">
        <ele>231</ele>
        <time>2018-01-31T11:07:29Z</time>
      </trkpt>
      <trkpt lat="45.97196" lon="4.78174">
        <ele>231</ele>
        <time>2018-01-31T11:07:30Z</time>
      </trkpt>
      <trkpt lat="45.97192" lon="4.78167">
        <ele>231</ele>
        <time>2018-01-31T11:07:31Z</time>
      </trkpt>
      <trkpt lat="45.97188" lon="4.78162">
        <ele>231</ele>
        <time>2018-01-31T11:07:32Z</time>
      </trkpt>
      <trkpt lat="45.97185" lon="4.78155">
        <ele>231</ele>
        <time>2018-01-31T11:07:33Z</time>
      </trkpt>
      <trkpt lat="45.97181" lon="4.7815">
        <ele>231</ele>
        <time>2018-01-31T11:07:34Z</time>
      </trkpt>
      <trkpt lat="45.97178" lon="4.78143">
        <ele>231</ele>
        <time>2018-01-31T11:07:35Z</time>
      </trkpt>
      <trkpt lat="45.97175" lon="4.78137">
        <ele>231</ele>
        <time>2018-01-31T11:07:36Z</time>
      </trkpt>
      <trkpt lat="45.97172" lon="4.78131">
        <ele>231</ele>
        <time>2018-01-31T11:07:37Z</time>
      </trkpt>
      <trkpt lat="45.97168" lon="4.78125">
        <ele>231</ele>
        <time>2018-01-31T11:07:38Z</time>
      </trkpt>
      <trkpt lat="45.97165" lon="4.78119">
        <ele>230</ele>
        <time>2018-01-31T11:07:39Z</time>
      </trkpt>
      <trkpt lat="45.97162" lon="4.78113">
        <ele>230</ele>
        <time>2018-01-31T11:07:40Z</time>
      </trkpt>
      <trkpt lat="45.97158" lon="4.78108">
        <ele>230</ele>
        <time>2018-01-31T11:07:41Z</time>
      </trkpt>
      <trkpt lat="45.97154" lon="4.78102">
        <ele>230</ele>
        <time>2018-01-31T11:07:42Z</time>
      </trkpt>
      <trkpt lat="45.9715" lon="4.78095">
        <ele>230</ele>
        <time>2018-01-31T11:07:43Z</time>
      </trkpt>
      <trkpt lat="45.97147" lon="4.78089">
        <ele>230</ele>
        <time>2018-01-31T11:07:44Z</time>
      </trkpt>
      <trkpt lat="45.97144" lon="4.78083">
        <ele>230</ele>
        <time>2018-01-31T11:07:45Z</time>
      </trkpt>
      <trkpt lat="45.97141" lon="4.78077">
        <ele>230</ele>
        <time>2018-01-31T11:07:46Z</time>
      </trkpt>
      <trkpt lat="45.97137" lon="4.78072">
        <ele>230</ele>
        <time>2018-01-31T11:07:47Z</time>
      </trkpt>
      <trkpt lat="45.97134" lon="4.78067">
        <ele>230</ele>
        <time>2018-01-31T11:07:48Z</time>
      </trkpt>
      <trkpt lat="45.97131" lon="4.78061">
        <ele>230</ele>
        <time>2018-01-31T11:07:49Z</time>
      </trkpt>
      <trkpt lat="45.97126" lon="4.78058">
        <ele>230</ele>
        <time>2018-01-31T11:07:50Z</time>
      </trkpt>
      <trkpt lat="45.97123" lon="4.78053">
        <ele>229</ele>
        <time>2018-01-31T11:07:51Z</time>
      </trkpt>
      <trkpt lat="45.97118" lon="4.78048">
        <ele>229</ele>
        <time>2018-01-31T11:07:52Z</time>
      </trkpt>
      <trkpt lat="45.97112" lon="4.78045">
        <ele>229</ele>
        <time>2018-01-31T11:07:53Z</time>
      </trkpt>
      <trkpt lat="45.97107" lon="4.7804">
        <ele>229</ele>
        <time>2018-01-31T11:07:54Z</time>
      </trkpt>
      <trkpt lat="45.97103" lon="4.78037">
        <ele>229</ele>
        <time>2018-01-31T11:07:55Z</time>
      </trkpt>
      <trkpt lat="45.97099" lon="4.78032">
        <ele>229</ele>
        <time>2018-01-31T11:07:56Z</time>
      </trkpt>
      <trkpt lat="45.97095" lon="4.78028">
        <ele>229</ele>
        <time>2018-01-31T11:07:57Z</time>
      </trkpt>
      <trkpt lat="45.97091" lon="4.78023">
        <ele>229</ele>
        <time>2018-01-31T11:07:58Z</time>
      </trkpt>
      <trkpt lat="45.97086" lon="4.78019">
        <ele>229</ele>
        <time>2018-01-31T11:07:59Z</time>
      </trkpt>
      <trkpt lat="45.97081" lon="4.78014">
        <ele>229</ele>
        <time>2018-01-31T11:08:00Z</time>
      </trkpt>
      <trkpt lat="45.97077" lon="4.78009">
        <ele>229</ele>
        <time>2018-01-31T11:08:01Z</time>
      </trkpt>
      <trkpt lat="45.97074" lon="4.78004">
        <ele>229</ele>
        <time>2018-01-31T11:08:02Z</time>
      </trkpt>
      <trkpt lat="45.97069" lon="4.78">
        <ele>229</ele>
        <time>2018-01-31T11:08:03Z</time>
      </trkpt>
      <trkpt lat="45.97065" lon="4.77995">
        <ele>229</ele>
        <time>2018-01-31T11:08:04Z</time>
      </trkpt>
      <trkpt lat="45.97061" lon="4.77991">
        <ele>229</ele>
        <time>2018-01-31T11:08:05Z</time>
      </trkpt>
      <trkpt lat="45.97057" lon="4.77987">
        <ele>229</ele>
        <time>2018-01-31T11:08:06Z</time>
      </trkpt>
      <trkpt lat="45.97053" lon="4.77982">
        <ele>229</ele>
        <time>2018-01-31T11:08:07Z</time>
      </trkpt>
      <trkpt lat="45.97049" lon="4.77978">
        <ele>229</ele>
        <time>2018-01-31T11:08:08Z</time>
      </trkpt>
      <trkpt lat="45.97044" lon="4.77973">
        <ele>229</ele>
        <time>2018-01-31T11:08:09Z</time>
      </trkpt>
      <trkpt lat="45.9704" lon="4.77969">
        <ele>229</ele>
        <time>2018-01-31T11:08:10Z</time>
      </trkpt>
      <trkpt lat="45.97036" lon="4.77964">
        <ele>229</ele>
        <time>2018-01-31T11:08:11Z</time>
      </trkpt>
      <trkpt lat="45.97032" lon="4.7796">
        <ele>228</ele>
        <time>2018-01-31T11:08:12Z</time>
      </trkpt>
      <trkpt lat="45.97027" lon="4.77955">
        <ele>228</ele>
        <time>2018-01-31T11:08:13Z</time>
      </trkpt>
      <trkpt lat="45.97023" lon="4.77949">
        <ele>228</ele>
        <time>2018-01-31T11:08:14Z</time>
      </trkpt>
      <trkpt lat="45.97019" lon="4.77944">
        <ele>228</ele>
        <time>2018-01-31T11:08:15Z</time>
      </trkpt>
      <trkpt lat="45.97015" lon="4.77939">
        <ele>228</ele>
        <time>2018-01-31T11:08:16Z</time>
      </trkpt>
      <trkpt lat="45.9701" lon="4.77934">
        <ele>228</ele>
        <time>2018-01-31T11:08:17Z</time>
      </trkpt>
      <trkpt lat="45.97007" lon="4.77929">
        <ele>228</ele>
        <time>2018-01-31T11:08:18Z</time>
      </trkpt>
      <trkpt lat="45.97003" lon="4.77924">
        <ele>227</ele>
        <time>2018-01-31T11:08:19Z</time>
      </trkpt>
      <trkpt lat="45.96999" lon="4.77919">
        <ele>227</ele>
        <time>2018-01-31T11:08:20Z</time>
      </trkpt>
      <trkpt lat="45.96996" lon="4.77915">
        <ele>227</ele>
        <time>2018-01-31T11:08:21Z</time>
      </trkpt>
      <trkpt lat="45.96992" lon="4.77911">
        <ele>227</ele>
        <time>2018-01-31T11:08:22Z</time>
      </trkpt>
      <trkpt lat="45.96988" lon="4.77907">
        <ele>227</ele>
        <time>2018-01-31T11:08:23Z</time>
      </trkpt>
      <trkpt lat="45.96984" lon="4.77903">
        <ele>227</ele>
        <time>2018-01-31T11:08:24Z</time>
      </trkpt>
      <trkpt lat="45.9698" lon="4.77897">
        <ele>228</ele>
        <time>2018-01-31T11:08:25Z</time>
      </trkpt>
      <trkpt lat="45.96977" lon="4.77892">
        <ele>228</ele>
        <time>2018-01-31T11:08:26Z</time>
      </trkpt>
      <trkpt lat="45.96973" lon="4.77888">
        <ele>228</ele>
        <time>2018-01-31T11:08:27Z</time>
      </trkpt>
      <trkpt lat="45.96969" lon="4.77883">
        <ele>228</ele>
        <time>2018-01-31T11:08:28Z</time>
      </trkpt>
      <trkpt lat="45.96964" lon="4.77879">
        <ele>228</ele>
        <time>2018-01-31T11:08:29Z</time>
      </trkpt>
      <trkpt lat="45.9696" lon="4.77873">
        <ele>228</ele>
        <time>2018-01-31T11:08:30Z</time>
      </trkpt>
      <trkpt lat="45.96956" lon="4.77869">
        <ele>228</ele>
        <time>2018-01-31T11:08:31Z</time>
      </trkpt>
      <trkpt lat="45.96952" lon="4.77864">
        <ele>228</ele>
        <time>2018-01-31T11:08:32Z</time>
      </trkpt>
      <trkpt lat="45.96948" lon="4.7786">
        <ele>228</ele>
        <time>2018-01-31T11:08:33Z</time>
      </trkpt>
      <trkpt lat="45.96943" lon="4.77855">
        <ele>228</ele>
        <time>2018-01-31T11:08:34Z</time>
      </trkpt>
      <trkpt lat="45.96939" lon="4.7785">
        <ele>228</ele>
        <time>2018-01-31T11:08:35Z</time>
      </trkpt>
      <trkpt lat="45.96935" lon="4.77844">
        <ele>228</ele>
        <time>2018-01-31T11:08:36Z</time>
      </trkpt>
      <trkpt lat="45.96931" lon="4.7784">
        <ele>228</ele>
        <time>2018-01-31T11:08:37Z</time>
      </trkpt>
      <trkpt lat="45.96927" lon="4.77836">
        <ele>228</ele>
        <time>2018-01-31T11:08:38Z</time>
      </trkpt>
      <trkpt lat="45.96923" lon="4.77831">
        <ele>228</ele>
        <time>2018-01-31T11:08:39Z</time>
      </trkpt>
      <trkpt lat="45.96918" lon="4.77827">
        <ele>228</ele>
        <time>2018-01-31T11:08:40Z</time>
      </trkpt>
      <trkpt lat="45.96914" lon="4.77823">
        <ele>228</ele>
        <time>2018-01-31T11:08:41Z</time>
      </trkpt>
      <trkpt lat="45.9691" lon="4.77818">
        <ele>228</ele>
        <time>2018-01-31T11:08:42Z</time>
      </trkpt>
      <trkpt lat="45.96905" lon="4.77814">
        <ele>228</ele>
        <time>2018-01-31T11:08:43Z</time>
      </trkpt>
      <trkpt lat="45.96902" lon="4.77809">
        <ele>228</ele>
        <time>2018-01-31T11:08:44Z</time>
      </trkpt>
      <trkpt lat="45.96897" lon="4.77806">
        <ele>228</ele>
        <time>2018-01-31T11:08:45Z</time>
      </trkpt>
      <trkpt lat="45.9689" lon="4.77798">
        <ele>228</ele>
        <time>2018-01-31T11:08:47Z</time>
      </trkpt>
      <trkpt lat="45.96886" lon="4.77792">
        <ele>228</ele>
        <time>2018-01-31T11:08:48Z</time>
      </trkpt>
      <trkpt lat="45.96882" lon="4.77788">
        <ele>228</ele>
        <time>2018-01-31T11:08:49Z</time>
      </trkpt>
      <trkpt lat="45.96878" lon="4.77782">
        <ele>228</ele>
        <time>2018-01-31T11:08:50Z</time>
      </trkpt>
      <trkpt lat="45.96874" lon="4.77778">
        <ele>228</ele>
        <time>2018-01-31T11:08:51Z</time>
      </trkpt>
      <trkpt lat="45.9687" lon="4.77772">
        <ele>228</ele>
        <time>2018-01-31T11:08:52Z</time>
      </trkpt>
      <trkpt lat="45.96865" lon="4.77768">
        <ele>228</ele>
        <time>2018-01-31T11:08:53Z</time>
      </trkpt>
      <trkpt lat="45.9686" lon="4.77764">
        <ele>228</ele>
        <time>2018-01-31T11:08:54Z</time>
      </trkpt>
      <trkpt lat="45.96856" lon="4.77761">
        <ele>228</ele>
        <time>2018-01-31T11:08:55Z</time>
      </trkpt>
      <trkpt lat="45.96852" lon="4.77756">
        <ele>228</ele>
        <time>2018-01-31T11:08:56Z</time>
      </trkpt>
      <trkpt lat="45.96848" lon="4.77751">
        <ele>228</ele>
        <time>2018-01-31T11:08:57Z</time>
      </trkpt>
      <trkpt lat="45.96844" lon="4.77748">
        <ele>228</ele>
        <time>2018-01-31T11:08:58Z</time>
      </trkpt>
      <trkpt lat="45.9684" lon="4.77744">
        <ele>228</ele>
        <time>2018-01-31T11:08:59Z</time>
      </trkpt>
      <trkpt lat="45.96835" lon="4.77741">
        <ele>228</ele>
        <time>2018-01-31T11:09:00Z</time>
      </trkpt>
      <trkpt lat="45.96831" lon="4.77738">
        <ele>228</ele>
        <time>2018-01-31T11:09:01Z</time>
      </trkpt>
      <trkpt lat="45.96828" lon="4.77733">
        <ele>228</ele>
        <time>2018-01-31T11:09:02Z</time>
      </trkpt>
      <trkpt lat="45.96823" lon="4.77729">
        <ele>228</ele>
        <time>2018-01-31T11:09:03Z</time>
      </trkpt>
      <trkpt lat="45.9682" lon="4.77723">
        <ele>228</ele>
        <time>2018-01-31T11:09:04Z</time>
      </trkpt>
      <trkpt lat="45.96816" lon="4.77718">
        <ele>228</ele>
        <time>2018-01-31T11:09:05Z</time>
      </trkpt>
      <trkpt lat="45.96811" lon="4.77713">
        <ele>228</ele>
        <time>2018-01-31T11:09:06Z</time>
      </trkpt>
      <trkpt lat="45.96807" lon="4.77708">
        <ele>228</ele>
        <time>2018-01-31T11:09:07Z</time>
      </trkpt>
      <trkpt lat="45.96802" lon="4.77704">
        <ele>228</ele>
        <time>2018-01-31T11:09:08Z</time>
      </trkpt>
      <trkpt lat="45.96798" lon="4.77699">
        <ele>228</ele>
        <time>2018-01-31T11:09:09Z</time>
      </trkpt>
      <trkpt lat="45.96794" lon="4.77694">
        <ele>228</ele>
        <time>2018-01-31T11:09:10Z</time>
      </trkpt>
      <trkpt lat="45.96789" lon="4.7769">
        <ele>227</ele>
        <time>2018-01-31T11:09:11Z</time>
      </trkpt>
      <trkpt lat="45.96785" lon="4.77684">
        <ele>227</ele>
        <time>2018-01-31T11:09:12Z</time>
      </trkpt>
      <trkpt lat="45.9678" lon="4.7768">
        <ele>227</ele>
        <time>2018-01-31T11:09:13Z</time>
      </trkpt>
      <trkpt lat="45.96777" lon="4.77673">
        <ele>227</ele>
        <time>2018-01-31T11:09:14Z</time>
      </trkpt>
      <trkpt lat="45.96772" lon="4.77668">
        <ele>227</ele>
        <time>2018-01-31T11:09:15Z</time>
      </trkpt>
      <trkpt lat="45.96766" lon="4.77664">
        <ele>227</ele>
        <time>2018-01-31T11:09:16Z</time>
      </trkpt>
      <trkpt lat="45.96762" lon="4.77659">
        <ele>227</ele>
        <time>2018-01-31T11:09:17Z</time>
      </trkpt>
      <trkpt lat="45.96758" lon="4.77653">
        <ele>227</ele>
        <time>2018-01-31T11:09:18Z</time>
      </trkpt>
      <trkpt lat="45.96753" lon="4.77649">
        <ele>227</ele>
        <time>2018-01-31T11:09:19Z</time>
      </trkpt>
      <trkpt lat="45.96749" lon="4.77645">
        <ele>227</ele>
        <time>2018-01-31T11:09:20Z</time>
      </trkpt>
      <trkpt lat="45.96745" lon="4.7764">
        <ele>227</ele>
        <time>2018-01-31T11:09:21Z</time>
      </trkpt>
      <trkpt lat="45.96741" lon="4.77635">
        <ele>227</ele>
        <time>2018-01-31T11:09:22Z</time>
      </trkpt>
      <trkpt lat="45.96738" lon="4.77631">
        <ele>226</ele>
        <time>2018-01-31T11:09:23Z</time>
      </trkpt>
      <trkpt lat="45.96734" lon="4.77626">
        <ele>226</ele>
        <time>2018-01-31T11:09:24Z</time>
      </trkpt>
      <trkpt lat="45.96731" lon="4.77621">
        <ele>226</ele>
        <time>2018-01-31T11:09:25Z</time>
      </trkpt>
      <trkpt lat="45.96726" lon="4.77616">
        <ele>226</ele>
        <time>2018-01-31T11:09:26Z</time>
      </trkpt>
      <trkpt lat="45.96723" lon="4.77611">
        <ele>226</ele>
        <time>2018-01-31T11:09:27Z</time>
      </trkpt>
      <trkpt lat="45.96719" lon="4.77604">
        <ele>226</ele>
        <time>2018-01-31T11:09:28Z</time>
      </trkpt>
      <trkpt lat="45.96714" lon="4.776">
        <ele>226</ele>
        <time>2018-01-31T11:09:29Z</time>
      </trkpt>
      <trkpt lat="45.9671" lon="4.77594">
        <ele>226</ele>
        <time>2018-01-31T11:09:30Z</time>
      </trkpt>
      <trkpt lat="45.96706" lon="4.77588">
        <ele>226</ele>
        <time>2018-01-31T11:09:31Z</time>
      </trkpt>
      <trkpt lat="45.96702" lon="4.77584">
        <ele>226</ele>
        <time>2018-01-31T11:09:32Z</time>
      </trkpt>
      <trkpt lat="45.96697" lon="4.77579">
        <ele>225</ele>
        <time>2018-01-31T11:09:33Z</time>
      </trkpt>
      <trkpt lat="45.96692" lon="4.77575">
        <ele>225</ele>
        <time>2018-01-31T11:09:34Z</time>
      </trkpt>
      <trkpt lat="45.96687" lon="4.77571">
        <ele>225</ele>
        <time>2018-01-31T11:09:35Z</time>
      </trkpt>
      <trkpt lat="45.96682" lon="4.77567">
        <ele>225</ele>
        <time>2018-01-31T11:09:36Z</time>
      </trkpt>
      <trkpt lat="45.96678" lon="4.77563">
        <ele>225</ele>
        <time>2018-01-31T11:09:37Z</time>
      </trkpt>
      <trkpt lat="45.96673" lon="4.77559">
        <ele>225</ele>
        <time>2018-01-31T11:09:38Z</time>
      </trkpt>
      <trkpt lat="45.9667" lon="4.77554">
        <ele>225</ele>
        <time>2018-01-31T11:09:39Z</time>
      </trkpt>
      <trkpt lat="45.96664" lon="4.77551">
        <ele>224</ele>
        <time>2018-01-31T11:09:40Z</time>
      </trkpt>
      <trkpt lat="45.9666" lon="4.77548">
        <ele>224</ele>
        <time>2018-01-31T11:09:41Z</time>
      </trkpt>
      <trkpt lat="45.96655" lon="4.77544">
        <ele>224</ele>
        <time>2018-01-31T11:09:42Z</time>
      </trkpt>
      <trkpt lat="45.9665" lon="4.77541">
        <ele>224</ele>
        <time>2018-01-31T11:09:43Z</time>
      </trkpt>
      <trkpt lat="45.96646" lon="4.77538">
        <ele>224</ele>
        <time>2018-01-31T11:09:44Z</time>
      </trkpt>
      <trkpt lat="45.96642" lon="4.77535">
        <ele>224</ele>
        <time>2018-01-31T11:09:45Z</time>
      </trkpt>
      <trkpt lat="45.96636" lon="4.77532">
        <ele>224</ele>
        <time>2018-01-31T11:09:46Z</time>
      </trkpt>
      <trkpt lat="45.96628" lon="4.77528">
        <ele>224</ele>
        <time>2018-01-31T11:09:48Z</time>
      </trkpt>
      <trkpt lat="45.96624" lon="4.77525">
        <ele>224</ele>
        <time>2018-01-31T11:09:49Z</time>
      </trkpt>
      <trkpt lat="45.96619" lon="4.77522">
        <ele>224</ele>
        <time>2018-01-31T11:09:50Z</time>
      </trkpt>
      <trkpt lat="45.96613" lon="4.77519">
        <ele>224</ele>
        <time>2018-01-31T11:09:51Z</time>
      </trkpt>
      <trkpt lat="45.96609" lon="4.77517">
        <ele>224</ele>
        <time>2018-01-31T11:09:52Z</time>
      </trkpt>
      <trkpt lat="45.96604" lon="4.77514">
        <ele>224</ele>
        <time>2018-01-31T11:09:53Z</time>
      </trkpt>
      <trkpt lat="45.966" lon="4.77511">
        <ele>224</ele>
        <time>2018-01-31T11:09:54Z</time>
      </trkpt>
      <trkpt lat="45.96595" lon="4.77508">
        <ele>224</ele>
        <time>2018-01-31T11:09:55Z</time>
      </trkpt>
      <trkpt lat="45.9659" lon="4.77505">
        <ele>224</ele>
        <time>2018-01-31T11:09:56Z</time>
      </trkpt>
      <trkpt lat="45.96585" lon="4.77502">
        <ele>224</ele>
        <time>2018-01-31T11:09:57Z</time>
      </trkpt>
      <trkpt lat="45.96578" lon="4.77497">
        <ele>224</ele>
        <time>2018-01-31T11:09:58Z</time>
      </trkpt>
      <trkpt lat="45.96574" lon="4.77494">
        <ele>224</ele>
        <time>2018-01-31T11:09:59Z</time>
      </trkpt>
      <trkpt lat="45.96569" lon="4.77491">
        <ele>224</ele>
        <time>2018-01-31T11:10:00Z</time>
      </trkpt>
      <trkpt lat="45.96564" lon="4.77488">
        <ele>224</ele>
        <time>2018-01-31T11:10:01Z</time>
      </trkpt>
      <trkpt lat="45.96556" lon="4.77483">
        <ele>224</ele>
        <time>2018-01-31T11:10:03Z</time>
      </trkpt>
      <trkpt lat="45.96552" lon="4.7748">
        <ele>223</ele>
        <time>2018-01-31T11:10:04Z</time>
      </trkpt>
      <trkpt lat="45.96547" lon="4.77476">
        <ele>223</ele>
        <time>2018-01-31T11:10:05Z</time>
      </trkpt>
      <trkpt lat="45.96542" lon="4.77472">
        <ele>223</ele>
        <time>2018-01-31T11:10:06Z</time>
      </trkpt>
      <trkpt lat="45.96537" lon="4.77468">
        <ele>223</ele>
        <time>2018-01-31T11:10:07Z</time>
      </trkpt>
      <trkpt lat="45.96531" lon="4.77465">
        <ele>223</ele>
        <time>2018-01-31T11:10:08Z</time>
      </trkpt>
      <trkpt lat="45.96527" lon="4.77461">
        <ele>223</ele>
        <time>2018-01-31T11:10:09Z</time>
      </trkpt>
      <trkpt lat="45.96521" lon="4.77457">
        <ele>223</ele>
        <time>2018-01-31T11:10:10Z</time>
      </trkpt>
      <trkpt lat="45.96515" lon="4.77454">
        <ele>223</ele>
        <time>2018-01-31T11:10:11Z</time>
      </trkpt>
      <trkpt lat="45.9651" lon="4.77451">
        <ele>223</ele>
        <time>2018-01-31T11:10:12Z</time>
      </trkpt>
      <trkpt lat="45.96505" lon="4.77448">
        <ele>223</ele>
        <time>2018-01-31T11:10:13Z</time>
      </trkpt>
      <trkpt lat="45.965" lon="4.77444">
        <ele>223</ele>
        <time>2018-01-31T11:10:14Z</time>
      </trkpt>
      <trkpt lat="45.96495" lon="4.7744">
        <ele>222</ele>
        <time>2018-01-31T11:10:15Z</time>
      </trkpt>
      <trkpt lat="45.96489" lon="4.77436">
        <ele>222</ele>
        <time>2018-01-31T11:10:16Z</time>
      </trkpt>
      <trkpt lat="45.96485" lon="4.77433">
        <ele>222</ele>
        <time>2018-01-31T11:10:17Z</time>
      </trkpt>
      <trkpt lat="45.96479" lon="4.77429">
        <ele>222</ele>
        <time>2018-01-31T11:10:18Z</time>
      </trkpt>
      <trkpt lat="45.96475" lon="4.77426">
        <ele>222</ele>
        <time>2018-01-31T11:10:19Z</time>
      </trkpt>
      <trkpt lat="45.9647" lon="4.77423">
        <ele>221</ele>
        <time>2018-01-31T11:10:20Z</time>
      </trkpt>
      <trkpt lat="45.96465" lon="4.77421">
        <ele>221</ele>
        <time>2018-01-31T11:10:21Z</time>
      </trkpt>
      <trkpt lat="45.96461" lon="4.77418">
        <ele>221</ele>
        <time>2018-01-31T11:10:22Z</time>
      </trkpt>
      <trkpt lat="45.96456" lon="4.77414">
        <ele>222</ele>
        <time>2018-01-31T11:10:23Z</time>
      </trkpt>
      <trkpt lat="45.96452" lon="4.77412">
        <ele>222</ele>
        <time>2018-01-31T11:10:24Z</time>
      </trkpt>
      <trkpt lat="45.96447" lon="4.77409">
        <ele>222</ele>
        <time>2018-01-31T11:10:25Z</time>
      </trkpt>
      <trkpt lat="45.96441" lon="4.77407">
        <ele>222</ele>
        <time>2018-01-31T11:10:26Z</time>
      </trkpt>
      <trkpt lat="45.96436" lon="4.77404">
        <ele>222</ele>
        <time>2018-01-31T11:10:27Z</time>
      </trkpt>
      <trkpt lat="45.96431" lon="4.77401">
        <ele>222</ele>
        <time>2018-01-31T11:10:28Z</time>
      </trkpt>
      <trkpt lat="45.96426" lon="4.77398">
        <ele>222</ele>
        <time>2018-01-31T11:10:29Z</time>
      </trkpt>
      <trkpt lat="45.9642" lon="4.77394">
        <ele>222</ele>
        <time>2018-01-31T11:10:30Z</time>
      </trkpt>
      <trkpt lat="45.96415" lon="4.77391">
        <ele>220</ele>
        <time>2018-01-31T11:10:31Z</time>
      </trkpt>
      <trkpt lat="45.96409" lon="4.77387">
        <ele>220</ele>
        <time>2018-01-31T11:10:32Z</time>
      </trkpt>
      <trkpt lat="45.96404" lon="4.77385">
        <ele>220</ele>
        <time>2018-01-31T11:10:33Z</time>
      </trkpt>
      <trkpt lat="45.96399" lon="4.77383">
        <ele>220</ele>
        <time>2018-01-31T11:10:34Z</time>
      </trkpt>
      <trkpt lat="45.96394" lon="4.77381">
        <ele>220</ele>
        <time>2018-01-31T11:10:35Z</time>
      </trkpt>
      <trkpt lat="45.96389" lon="4.77379">
        <ele>220</ele>
        <time>2018-01-31T11:10:36Z</time>
      </trkpt>
      <trkpt lat="45.96385" lon="4.77376">
        <ele>220</ele>
        <time>2018-01-31T11:10:37Z</time>
      </trkpt>
      <trkpt lat="45.9638" lon="4.77373">
        <ele>220</ele>
        <time>2018-01-31T11:10:38Z</time>
      </trkpt>
      <trkpt lat="45.96375" lon="4.7737">
        <ele>220</ele>
        <time>2018-01-31T11:10:39Z</time>
      </trkpt>
      <trkpt lat="45.96371" lon="4.77367">
        <ele>220</ele>
        <time>2018-01-31T11:10:40Z</time>
      </trkpt>
      <trkpt lat="45.96366" lon="4.77364">
        <ele>220</ele>
        <time>2018-01-31T11:10:41Z</time>
      </trkpt>
      <trkpt lat="45.96361" lon="4.77361">
        <ele>219</ele>
        <time>2018-01-31T11:10:42Z</time>
      </trkpt>
      <trkpt lat="45.96357" lon="4.7736">
        <ele>219</ele>
        <time>2018-01-31T11:10:43Z</time>
      </trkpt>
      <trkpt lat="45.96352" lon="4.77356">
        <ele>219</ele>
        <time>2018-01-31T11:10:44Z</time>
      </trkpt>
      <trkpt lat="45.96347" lon="4.77352">
        <ele>220</ele>
        <time>2018-01-31T11:10:45Z</time>
      </trkpt>
      <trkpt lat="45.96341" lon="4.77349">
        <ele>220</ele>
        <time>2018-01-31T11:10:46Z</time>
      </trkpt>
      <trkpt lat="45.96334" lon="4.77347">
        <ele>220</ele>
        <time>2018-01-31T11:10:47Z</time>
      </trkpt>
      <trkpt lat="45.96329" lon="4.77343">
        <ele>218</ele>
        <time>2018-01-31T11:10:48Z</time>
      </trkpt>
      <trkpt lat="45.96323" lon="4.7734">
        <ele>218</ele>
        <time>2018-01-31T11:10:49Z</time>
      </trkpt>
      <trkpt lat="45.96318" lon="4.77337">
        <ele>218</ele>
        <time>2018-01-31T11:10:50Z</time>
      </trkpt>
      <trkpt lat="45.96313" lon="4.77334">
        <ele>218</ele>
        <time>2018-01-31T11:10:51Z</time>
      </trkpt>
      <trkpt lat="45.96308" lon="4.77331">
        <ele>219</ele>
        <time>2018-01-31T11:10:52Z</time>
      </trkpt>
      <trkpt lat="45.96301" lon="4.77327">
        <ele>219</ele>
        <time>2018-01-31T11:10:53Z</time>
      </trkpt>
      <trkpt lat="45.96297" lon="4.77324">
        <ele>219</ele>
        <time>2018-01-31T11:10:54Z</time>
      </trkpt>
      <trkpt lat="45.96292" lon="4.77321">
        <ele>219</ele>
        <time>2018-01-31T11:10:55Z</time>
      </trkpt>
      <trkpt lat="45.96287" lon="4.77319">
        <ele>219</ele>
        <time>2018-01-31T11:10:56Z</time>
      </trkpt>
      <trkpt lat="45.96282" lon="4.77316">
        <ele>219</ele>
        <time>2018-01-31T11:10:57Z</time>
      </trkpt>
      <trkpt lat="45.96277" lon="4.77314">
        <ele>219</ele>
        <time>2018-01-31T11:10:58Z</time>
      </trkpt>
      <trkpt lat="45.96272" lon="4.77312">
        <ele>219</ele>
        <time>2018-01-31T11:10:59Z</time>
      </trkpt>
      <trkpt lat="45.96267" lon="4.7731">
        <ele>219</ele>
        <time>2018-01-31T11:11:00Z</time>
      </trkpt>
      <trkpt lat="45.96262" lon="4.77306">
        <ele>219</ele>
        <time>2018-01-31T11:11:01Z</time>
      </trkpt>
      <trkpt lat="45.96258" lon="4.77303">
        <ele>219</ele>
        <time>2018-01-31T11:11:02Z</time>
      </trkpt>
      <trkpt lat="45.96252" lon="4.773">
        <ele>219</ele>
        <time>2018-01-31T11:11:03Z</time>
      </trkpt>
      <trkpt lat="45.96246" lon="4.77298">
        <ele>217</ele>
        <time>2018-01-31T11:11:04Z</time>
      </trkpt>
      <trkpt lat="45.96241" lon="4.77294">
        <ele>217</ele>
        <time>2018-01-31T11:11:05Z</time>
      </trkpt>
      <trkpt lat="45.96235" lon="4.77291">
        <ele>217</ele>
        <time>2018-01-31T11:11:06Z</time>
      </trkpt>
      <trkpt lat="45.96229" lon="4.77288">
        <ele>217</ele>
        <time>2018-01-31T11:11:07Z</time>
      </trkpt>
      <trkpt lat="45.96224" lon="4.77286">
        <ele>217</ele>
        <time>2018-01-31T11:11:08Z</time>
      </trkpt>
      <trkpt lat="45.96219" lon="4.77283">
        <ele>217</ele>
        <time>2018-01-31T11:11:09Z</time>
      </trkpt>
      <trkpt lat="45.96213" lon="4.7728">
        <ele>217</ele>
        <time>2018-01-31T11:11:10Z</time>
      </trkpt>
      <trkpt lat="45.96208" lon="4.77277">
        <ele>217</ele>
        <time>2018-01-31T11:11:11Z</time>
      </trkpt>
      <trkpt lat="45.96203" lon="4.77273">
        <ele>217</ele>
        <time>2018-01-31T11:11:12Z</time>
      </trkpt>
      <trkpt lat="45.96199" lon="4.77269">
        <ele>216</ele>
        <time>2018-01-31T11:11:13Z</time>
      </trkpt>
      <trkpt lat="45.96193" lon="4.77266">
        <ele>216</ele>
        <time>2018-01-31T11:11:14Z</time>
      </trkpt>
      <trkpt lat="45.96188" lon="4.77263">
        <ele>216</ele>
        <time>2018-01-31T11:11:15Z</time>
      </trkpt>
      <trkpt lat="45.96184" lon="4.77261">
        <ele>216</ele>
        <time>2018-01-31T11:11:16Z</time>
      </trkpt>
      <trkpt lat="45.96179" lon="4.77258">
        <ele>216</ele>
        <time>2018-01-31T11:11:17Z</time>
      </trkpt>
      <trkpt lat="45.96174" lon="4.77254">
        <ele>216</ele>
        <time>2018-01-31T11:11:18Z</time>
      </trkpt>
      <trkpt lat="45.96168" lon="4.77252">
        <ele>216</ele>
        <time>2018-01-31T11:11:19Z</time>
      </trkpt>
      <trkpt lat="45.96163" lon="4.77249">
        <ele>216</ele>
        <time>2018-01-31T11:11:20Z</time>
      </trkpt>
      <trkpt lat="45.96158" lon="4.77245">
        <ele>216</ele>
        <time>2018-01-31T11:11:21Z</time>
      </trkpt>
      <trkpt lat="45.96153" lon="4.77243">
        <ele>215</ele>
        <time>2018-01-31T11:11:22Z</time>
      </trkpt>
      <trkpt lat="45.96148" lon="4.77242">
        <ele>215</ele>
        <time>2018-01-31T11:11:23Z</time>
      </trkpt>
      <trkpt lat="45.96143" lon="4.77241">
        <ele>215</ele>
        <time>2018-01-31T11:11:24Z</time>
      </trkpt>
      <trkpt lat="45.96138" lon="4.77238">
        <ele>215</ele>
        <time>2018-01-31T11:11:25Z</time>
      </trkpt>
      <trkpt lat="45.96132" lon="4.77237">
        <ele>215</ele>
        <time>2018-01-31T11:11:26Z</time>
      </trkpt>
      <trkpt lat="45.96126" lon="4.77237">
        <ele>214</ele>
        <time>2018-01-31T11:11:27Z</time>
      </trkpt>
      <trkpt lat="45.96122" lon="4.77236">
        <ele>214</ele>
        <time>2018-01-31T11:11:28Z</time>
      </trkpt>
      <trkpt lat="45.96115" lon="4.77236">
        <ele>214</ele>
        <time>2018-01-31T11:11:29Z</time>
      </trkpt>
      <trkpt lat="45.96109" lon="4.77237">
        <ele>214</ele>
        <time>2018-01-31T11:11:30Z</time>
      </trkpt>
      <trkpt lat="45.96103" lon="4.77237">
        <ele>213</ele>
        <time>2018-01-31T11:11:31Z</time>
      </trkpt>
      <trkpt lat="45.96096" lon="4.77238">
        <ele>213</ele>
        <time>2018-01-31T11:11:32Z</time>
      </trkpt>
      <trkpt lat="45.96089" lon="4.77239">
        <ele>212</ele>
        <time>2018-01-31T11:11:33Z</time>
      </trkpt>
      <trkpt lat="45.96082" lon="4.7724">
        <ele>210</ele>
        <time>2018-01-31T11:11:34Z</time>
      </trkpt>
      <trkpt lat="45.96077" lon="4.7724">
        <ele>210</ele>
        <time>2018-01-31T11:11:35Z</time>
      </trkpt>
      <trkpt lat="45.9607" lon="4.77241">
        <ele>210</ele>
        <time>2018-01-31T11:11:36Z</time>
      </trkpt>
      <trkpt lat="45.96062" lon="4.7724">
        <ele>209</ele>
        <time>2018-01-31T11:11:37Z</time>
      </trkpt>
      <trkpt lat="45.96054" lon="4.7724">
        <ele>209</ele>
        <time>2018-01-31T11:11:38Z</time>
      </trkpt>
      <trkpt lat="45.96045" lon="4.7724">
        <ele>209</ele>
        <time>2018-01-31T11:11:39Z</time>
      </trkpt>
      <trkpt lat="45.96038" lon="4.77243">
        <ele>208</ele>
        <time>2018-01-31T11:11:40Z</time>
      </trkpt>
      <trkpt lat="45.96031" lon="4.77244">
        <ele>208</ele>
        <time>2018-01-31T11:11:41Z</time>
      </trkpt>
      <trkpt lat="45.96023" lon="4.77245">
        <ele>207</ele>
        <time>2018-01-31T11:11:42Z</time>
      </trkpt>
      <trkpt lat="45.96015" lon="4.77244">
        <ele>206</ele>
        <time>2018-01-31T11:11:43Z</time>
      </trkpt>
      <trkpt lat="45.96008" lon="4.77244">
        <ele>205</ele>
        <time>2018-01-31T11:11:44Z</time>
      </trkpt>
      <trkpt lat="45.96" lon="4.77243">
        <ele>203</ele>
        <time>2018-01-31T11:11:45Z</time>
      </trkpt>
      <trkpt lat="45.95992" lon="4.77239">
        <ele>202</ele>
        <time>2018-01-31T11:11:46Z</time>
      </trkpt>
      <trkpt lat="45.95985" lon="4.77234">
        <ele>202</ele>
        <time>2018-01-31T11:11:47Z</time>
      </trkpt>
      <trkpt lat="45.95978" lon="4.77227">
        <ele>202</ele>
        <time>2018-01-31T11:11:48Z</time>
      </trkpt>
      <trkpt lat="45.95971" lon="4.7722">
        <ele>202</ele>
        <time>2018-01-31T11:11:49Z</time>
      </trkpt>
      <trkpt lat="45.95964" lon="4.77212">
        <ele>202</ele>
        <time>2018-01-31T11:11:50Z</time>
      </trkpt>
      <trkpt lat="45.95958" lon="4.77203">
        <ele>201</ele>
        <time>2018-01-31T11:11:51Z</time>
      </trkpt>
      <trkpt lat="45.95954" lon="4.77193">
        <ele>201</ele>
        <time>2018-01-31T11:11:52Z</time>
      </trkpt>
      <trkpt lat="45.9595" lon="4.77183">
        <ele>201</ele>
        <time>2018-01-31T11:11:53Z</time>
      </trkpt>
      <trkpt lat="45.95947" lon="4.77171">
        <ele>200</ele>
        <time>2018-01-31T11:11:54Z</time>
      </trkpt>
      <trkpt lat="45.95945" lon="4.77159">
        <ele>201</ele>
        <time>2018-01-31T11:11:55Z</time>
      </trkpt>
      <trkpt lat="45.95943" lon="4.77148">
        <ele>201</ele>
        <time>2018-01-31T11:11:56Z</time>
      </trkpt>
      <trkpt lat="45.95942" lon="4.77136">
        <ele>201</ele>
        <time>2018-01-31T11:11:57Z</time>
      </trkpt>
      <trkpt lat="45.95941" lon="4.77124">
        <ele>201</ele>
        <time>2018-01-31T11:11:58Z</time>
      </trkpt>
      <trkpt lat="45.95942" lon="4.77112">
        <ele>201</ele>
        <time>2018-01-31T11:11:59Z</time>
      </trkpt>
      <trkpt lat="45.95945" lon="4.77099">
        <ele>201</ele>
        <time>2018-01-31T11:12:00Z</time>
      </trkpt>
      <trkpt lat="45.95947" lon="4.77087">
        <ele>201</ele>
        <time>2018-01-31T11:12:01Z</time>
      </trkpt>
      <trkpt lat="45.95952" lon="4.77074">
        <ele>200</ele>
        <time>2018-01-31T11:12:02Z</time>
      </trkpt>
      <trkpt lat="45.95956" lon="4.77063">
        <ele>200</ele>
        <time>2018-01-31T11:12:03Z</time>
      </trkpt>
      <trkpt lat="45.95961" lon="4.7705">
        <ele>200</ele>
        <time>2018-01-31T11:12:04Z</time>
      </trkpt>
      <trkpt lat="45.95965" lon="4.77039">
        <ele>200</ele>
        <time>2018-01-31T11:12:05Z</time>
      </trkpt>
      <trkpt lat="45.9597" lon="4.77029">
        <ele>200</ele>
        <time>2018-01-31T11:12:06Z</time>
      </trkpt>
      <trkpt lat="45.95973" lon="4.77019">
        <ele>200</ele>
        <time>2018-01-31T11:12:07Z</time>
      </trkpt>
      <trkpt lat="45.95978" lon="4.77007">
        <ele>200</ele>
        <time>2018-01-31T11:12:08Z</time>
      </trkpt>
      <trkpt lat="45.95981" lon="4.76994">
        <ele>198</ele>
        <time>2018-01-31T11:12:09Z</time>
      </trkpt>
      <trkpt lat="45.95983" lon="4.76982">
        <ele>197</ele>
        <time>2018-01-31T11:12:10Z</time>
      </trkpt>
      <trkpt lat="45.95984" lon="4.76969">
        <ele>197</ele>
        <time>2018-01-31T11:12:11Z</time>
      </trkpt>
      <trkpt lat="45.9598" lon="4.76956">
        <ele>196</ele>
        <time>2018-01-31T11:12:12Z</time>
      </trkpt>
      <trkpt lat="45.95976" lon="4.76944">
        <ele>196</ele>
        <time>2018-01-31T11:12:13Z</time>
      </trkpt>
      <trkpt lat="45.95971" lon="4.76933">
        <ele>195</ele>
        <time>2018-01-31T11:12:14Z</time>
      </trkpt>
      <trkpt lat="45.95963" lon="4.76924">
        <ele>195</ele>
        <time>2018-01-31T11:12:15Z</time>
      </trkpt>
      <trkpt lat="45.95955" lon="4.76916">
        <ele>193</ele>
        <time>2018-01-31T11:12:16Z</time>
      </trkpt>
      <trkpt lat="45.95948" lon="4.76907">
        <ele>193</ele>
        <time>2018-01-31T11:12:17Z</time>
      </trkpt>
      <trkpt lat="45.9594" lon="4.76898">
        <ele>192</ele>
        <time>2018-01-31T11:12:18Z</time>
      </trkpt>
      <trkpt lat="45.95934" lon="4.7689">
        <ele>192</ele>
        <time>2018-01-31T11:12:19Z</time>
      </trkpt>
      <trkpt lat="45.95926" lon="4.76881">
        <ele>192</ele>
        <time>2018-01-31T11:12:20Z</time>
      </trkpt>
      <trkpt lat="45.95918" lon="4.76873">
        <ele>192</ele>
        <time>2018-01-31T11:12:21Z</time>
      </trkpt>
      <trkpt lat="45.95911" lon="4.76865">
        <ele>191</ele>
        <time>2018-01-31T11:12:22Z</time>
      </trkpt>
      <trkpt lat="45.95904" lon="4.76857">
        <ele>191</ele>
        <time>2018-01-31T11:12:23Z</time>
      </trkpt>
      <trkpt lat="45.95896" lon="4.76849">
        <ele>191</ele>
        <time>2018-01-31T11:12:24Z</time>
      </trkpt>
      <trkpt lat="45.9589" lon="4.76841">
        <ele>191</ele>
        <time>2018-01-31T11:12:25Z</time>
      </trkpt>
      <trkpt lat="45.95883" lon="4.76834">
        <ele>191</ele>
        <time>2018-01-31T11:12:26Z</time>
      </trkpt>
      <trkpt lat="45.95877" lon="4.76827">
        <ele>191</ele>
        <time>2018-01-31T11:12:27Z</time>
      </trkpt>
      <trkpt lat="45.95871" lon="4.7682">
        <ele>191</ele>
        <time>2018-01-31T11:12:28Z</time>
      </trkpt>
      <trkpt lat="45.95865" lon="4.76812">
        <ele>191</ele>
        <time>2018-01-31T11:12:29Z</time>
      </trkpt>
      <trkpt lat="45.95858" lon="4.76806">
        <ele>191</ele>
        <time>2018-01-31T11:12:30Z</time>
      </trkpt>
      <trkpt lat="45.95852" lon="4.768">
        <ele>191</ele>
        <time>2018-01-31T11:12:31Z</time>
      </trkpt>
      <trkpt lat="45.95847" lon="4.76793">
        <ele>191</ele>
        <time>2018-01-31T11:12:32Z</time>
      </trkpt>
      <trkpt lat="45.95842" lon="4.76786">
        <ele>191</ele>
        <time>2018-01-31T11:12:33Z</time>
      </trkpt>
      <trkpt lat="45.95838" lon="4.76778">
        <ele>191</ele>
        <time>2018-01-31T11:12:34Z</time>
      </trkpt>
      <trkpt lat="45.95834" lon="4.7677">
        <ele>191</ele>
        <time>2018-01-31T11:12:35Z</time>
      </trkpt>
      <trkpt lat="45.95832" lon="4.76762">
        <ele>191</ele>
        <time>2018-01-31T11:12:36Z</time>
      </trkpt>
      <trkpt lat="45.95831" lon="4.76752">
        <ele>191</ele>
        <time>2018-01-31T11:12:37Z</time>
      </trkpt>
      <trkpt lat="45.95828" lon="4.76743">
        <ele>190</ele>
        <time>2018-01-31T11:12:38Z</time>
      </trkpt>
      <trkpt lat="45.95826" lon="4.76733">
        <ele>190</ele>
        <time>2018-01-31T11:12:39Z</time>
      </trkpt>
      <trkpt lat="45.95825" lon="4.76723">
        <ele>190</ele>
        <time>2018-01-31T11:12:40Z</time>
      </trkpt>
      <trkpt lat="45.95823" lon="4.76713">
        <ele>189</ele>
        <time>2018-01-31T11:12:41Z</time>
      </trkpt>
      <trkpt lat="45.95821" lon="4.76704">
        <ele>189</ele>
        <time>2018-01-31T11:12:42Z</time>
      </trkpt>
      <trkpt lat="45.9582" lon="4.76695">
        <ele>189</ele>
        <time>2018-01-31T11:12:43Z</time>
      </trkpt>
      <trkpt lat="45.95818" lon="4.76686">
        <ele>189</ele>
        <time>2018-01-31T11:12:44Z</time>
      </trkpt>
      <trkpt lat="45.95817" lon="4.76678">
        <ele>189</ele>
        <time>2018-01-31T11:12:45Z</time>
      </trkpt>
      <trkpt lat="45.95815" lon="4.76669">
        <ele>188</ele>
        <time>2018-01-31T11:12:46Z</time>
      </trkpt>
      <trkpt lat="45.95814" lon="4.76661">
        <ele>188</ele>
        <time>2018-01-31T11:12:47Z</time>
      </trkpt>
      <trkpt lat="45.95812" lon="4.76651">
        <ele>188</ele>
        <time>2018-01-31T11:12:48Z</time>
      </trkpt>
      <trkpt lat="45.95811" lon="4.76642">
        <ele>188</ele>
        <time>2018-01-31T11:12:49Z</time>
      </trkpt>
      <trkpt lat="45.95809" lon="4.76634">
        <ele>188</ele>
        <time>2018-01-31T11:12:50Z</time>
      </trkpt>
      <trkpt lat="45.95808" lon="4.76624">
        <ele>188</ele>
        <time>2018-01-31T11:12:51Z</time>
      </trkpt>
      <trkpt lat="45.95806" lon="4.76616">
        <ele>188</ele>
        <time>2018-01-31T11:12:52Z</time>
      </trkpt>
      <trkpt lat="45.95805" lon="4.76608">
        <ele>188</ele>
        <time>2018-01-31T11:12:53Z</time>
      </trkpt>
      <trkpt lat="45.95805" lon="4.76599">
        <ele>188</ele>
        <time>2018-01-31T11:12:54Z</time>
      </trkpt>
      <trkpt lat="45.95803" lon="4.76592">
        <ele>187</ele>
        <time>2018-01-31T11:12:55Z</time>
      </trkpt>
      <trkpt lat="45.95802" lon="4.76583">
        <ele>187</ele>
        <time>2018-01-31T11:12:56Z</time>
      </trkpt>
      <trkpt lat="45.95801" lon="4.76574">
        <ele>187</ele>
        <time>2018-01-31T11:12:57Z</time>
      </trkpt>
      <trkpt lat="45.95799" lon="4.76566">
        <ele>187</ele>
        <time>2018-01-31T11:12:58Z</time>
      </trkpt>
      <trkpt lat="45.95799" lon="4.76559">
        <ele>187</ele>
        <time>2018-01-31T11:12:59Z</time>
      </trkpt>
      <trkpt lat="45.95797" lon="4.7655">
        <ele>187</ele>
        <time>2018-01-31T11:13:00Z</time>
      </trkpt>
      <trkpt lat="45.95796" lon="4.76542">
        <ele>187</ele>
        <time>2018-01-31T11:13:01Z</time>
      </trkpt>
      <trkpt lat="45.95794" lon="4.76535">
        <ele>187</ele>
        <time>2018-01-31T11:13:02Z</time>
      </trkpt>
      <trkpt lat="45.95792" lon="4.76528">
        <ele>187</ele>
        <time>2018-01-31T11:13:03Z</time>
      </trkpt>
      <trkpt lat="45.95791" lon="4.7652">
        <ele>187</ele>
        <time>2018-01-31T11:13:04Z</time>
      </trkpt>
      <trkpt lat="45.9579" lon="4.76512">
        <ele>187</ele>
        <time>2018-01-31T11:13:05Z</time>
      </trkpt>
      <trkpt lat="45.95788" lon="4.76503">
        <ele>187</ele>
        <time>2018-01-31T11:13:06Z</time>
      </trkpt>
      <trkpt lat="45.95786" lon="4.76496">
        <ele>186</ele>
        <time>2018-01-31T11:13:07Z</time>
      </trkpt>
      <trkpt lat="45.95785" lon="4.76488">
        <ele>186</ele>
        <time>2018-01-31T11:13:08Z</time>
      </trkpt>
      <trkpt lat="45.95783" lon="4.76481">
        <ele>186</ele>
        <time>2018-01-31T11:13:09Z</time>
      </trkpt>
      <trkpt lat="45.95782" lon="4.76473">
        <ele>186</ele>
        <time>2018-01-31T11:13:10Z</time>
      </trkpt>
      <trkpt lat="45.95781" lon="4.76465">
        <ele>186</ele>
        <time>2018-01-31T11:13:11Z</time>
      </trkpt>
      <trkpt lat="45.95781" lon="4.76457">
        <ele>186</ele>
        <time>2018-01-31T11:13:12Z</time>
      </trkpt>
      <trkpt lat="45.95781" lon="4.7645">
        <ele>186</ele>
        <time>2018-01-31T11:13:13Z</time>
      </trkpt>
      <trkpt lat="45.9578" lon="4.76443">
        <ele>186</ele>
        <time>2018-01-31T11:13:14Z</time>
      </trkpt>
      <trkpt lat="45.95779" lon="4.76436">
        <ele>186</ele>
        <time>2018-01-31T11:13:15Z</time>
      </trkpt>
      <trkpt lat="45.95777" lon="4.76427">
        <ele>186</ele>
        <time>2018-01-31T11:13:16Z</time>
      </trkpt>
      <trkpt lat="45.95776" lon="4.7642">
        <ele>186</ele>
        <time>2018-01-31T11:13:17Z</time>
      </trkpt>
      <trkpt lat="45.95775" lon="4.76413">
        <ele>186</ele>
        <time>2018-01-31T11:13:18Z</time>
      </trkpt>
      <trkpt lat="45.95775" lon="4.76406">
        <ele>186</ele>
        <time>2018-01-31T11:13:19Z</time>
      </trkpt>
      <trkpt lat="45.95774" lon="4.76399">
        <ele>186</ele>
        <time>2018-01-31T11:13:20Z</time>
      </trkpt>
      <trkpt lat="45.95773" lon="4.76391">
        <ele>186</ele>
        <time>2018-01-31T11:13:21Z</time>
      </trkpt>
      <trkpt lat="45.95774" lon="4.76383">
        <ele>186</ele>
        <time>2018-01-31T11:13:22Z</time>
      </trkpt>
      <trkpt lat="45.95774" lon="4.76376">
        <ele>186</ele>
        <time>2018-01-31T11:13:23Z</time>
      </trkpt>
      <trkpt lat="45.95774" lon="4.76368">
        <ele>186</ele>
        <time>2018-01-31T11:13:24Z</time>
      </trkpt>
      <trkpt lat="45.95774" lon="4.7636">
        <ele>186</ele>
        <time>2018-01-31T11:13:25Z</time>
      </trkpt>
      <trkpt lat="45.95773" lon="4.76352">
        <ele>186</ele>
        <time>2018-01-31T11:13:26Z</time>
      </trkpt>
      <trkpt lat="45.95773" lon="4.76345">
        <ele>186</ele>
        <time>2018-01-31T11:13:27Z</time>
      </trkpt>
      <trkpt lat="45.95773" lon="4.76338">
        <ele>186</ele>
        <time>2018-01-31T11:13:28Z</time>
      </trkpt>
      <trkpt lat="45.95772" lon="4.76331">
        <ele>185</ele>
        <time>2018-01-31T11:13:29Z</time>
      </trkpt>
      <trkpt lat="45.9577" lon="4.76319">
        <ele>185</ele>
        <time>2018-01-31T11:13:31Z</time>
      </trkpt>
      <trkpt lat="45.9577" lon="4.76312">
        <ele>185</ele>
        <time>2018-01-31T11:13:32Z</time>
      </trkpt>
      <trkpt lat="45.95767" lon="4.76301">
        <ele>186</ele>
        <time>2018-01-31T11:13:34Z</time>
      </trkpt>
      <trkpt lat="45.95768" lon="4.76295">
        <ele>186</ele>
        <time>2018-01-31T11:13:35Z</time>
      </trkpt>
      <trkpt lat="45.95768" lon="4.76284">
        <ele>186</ele>
        <time>2018-01-31T11:13:37Z</time>
      </trkpt>
      <trkpt lat="45.95768" lon="4.76279">
        <ele>186</ele>
        <time>2018-01-31T11:13:38Z</time>
      </trkpt>
      <trkpt lat="45.95768" lon="4.76269">
        <ele>186</ele>
        <time>2018-01-31T11:13:40Z</time>
      </trkpt>
      <trkpt lat="45.95769" lon="4.76265">
        <ele>186</ele>
        <time>2018-01-31T11:13:41Z</time>
      </trkpt>
      <trkpt lat="45.9577" lon="4.76254">
        <ele>185</ele>
        <time>2018-01-31T11:14:26Z</time>
      </trkpt>
      <trkpt lat="45.9577" lon="4.76252">
        <ele>185</ele>
        <time>2018-01-31T11:14:27Z</time>
      </trkpt>
      <trkpt lat="45.9577" lon="4.76239">
        <ele>186</ele>
        <time>2018-01-31T11:14:31Z</time>
      </trkpt>
      <trkpt lat="45.9577" lon="4.76235">
        <ele>186</ele>
        <time>2018-01-31T11:14:32Z</time>
      </trkpt>
      <trkpt lat="45.95769" lon="4.76226">
        <ele>186</ele>
        <time>2018-01-31T11:14:34Z</time>
      </trkpt>
      <trkpt lat="45.95769" lon="4.76221">
        <ele>186</ele>
        <time>2018-01-31T11:14:35Z</time>
      </trkpt>
      <trkpt lat="45.95768" lon="4.7621">
        <ele>186</ele>
        <time>2018-01-31T11:14:37Z</time>
      </trkpt>
      <trkpt lat="45.95768" lon="4.76205">
        <ele>186</ele>
        <time>2018-01-31T11:14:38Z</time>
      </trkpt>
      <trkpt lat="45.95766" lon="4.76193">
        <ele>186</ele>
        <time>2018-01-31T11:14:40Z</time>
      </trkpt>
      <trkpt lat="45.95766" lon="4.76187">
        <ele>186</ele>
        <time>2018-01-31T11:14:41Z</time>
      </trkpt>
      <trkpt lat="45.95765" lon="4.76175">
        <ele>186</ele>
        <time>2018-01-31T11:14:43Z</time>
      </trkpt>
      <trkpt lat="45.95763" lon="4.76169">
        <ele>185</ele>
        <time>2018-01-31T11:14:44Z</time>
      </trkpt>
      <trkpt lat="45.95762" lon="4.76156">
        <ele>186</ele>
        <time>2018-01-31T11:14:46Z</time>
      </trkpt>
      <trkpt lat="45.95762" lon="4.76149">
        <ele>186</ele>
        <time>2018-01-31T11:14:47Z</time>
      </trkpt>
      <trkpt lat="45.95761" lon="4.76141">
        <ele>186</ele>
        <time>2018-01-31T11:14:48Z</time>
      </trkpt>
      <trkpt lat="45.95761" lon="4.76134">
        <ele>186</ele>
        <time>2018-01-31T11:14:49Z</time>
      </trkpt>
      <trkpt lat="45.9576" lon="4.76127">
        <ele>186</ele>
        <time>2018-01-31T11:14:50Z</time>
      </trkpt>
      <trkpt lat="45.95758" lon="4.7612">
        <ele>186</ele>
        <time>2018-01-31T11:14:51Z</time>
      </trkpt>
      <trkpt lat="45.95758" lon="4.76114">
        <ele>186</ele>
        <time>2018-01-31T11:14:52Z</time>
      </trkpt>
      <trkpt lat="45.95758" lon="4.76106">
        <ele>186</ele>
        <time>2018-01-31T11:14:53Z</time>
      </trkpt>
      <trkpt lat="45.95756" lon="4.76099">
        <ele>186</ele>
        <time>2018-01-31T11:14:54Z</time>
      </trkpt>
      <trkpt lat="45.95754" lon="4.76092">
        <ele>185</ele>
        <time>2018-01-31T11:14:55Z</time>
      </trkpt>
      <trkpt lat="45.95752" lon="4.76085">
        <ele>185</ele>
        <time>2018-01-31T11:14:56Z</time>
      </trkpt>
      <trkpt lat="45.9575" lon="4.76079">
        <ele>185</ele>
        <time>2018-01-31T11:14:57Z</time>
      </trkpt>
      <trkpt lat="45.95748" lon="4.76072">
        <ele>185</ele>
        <time>2018-01-31T11:14:58Z</time>
      </trkpt>
      <trkpt lat="45.95746" lon="4.76066">
        <ele>185</ele>
        <time>2018-01-31T11:14:59Z</time>
      </trkpt>
      <trkpt lat="45.95743" lon="4.76058">
        <ele>184</ele>
        <time>2018-01-31T11:15:00Z</time>
      </trkpt>
      <trkpt lat="45.95739" lon="4.76051">
        <ele>184</ele>
        <time>2018-01-31T11:15:01Z</time>
      </trkpt>
      <trkpt lat="45.95735" lon="4.76046">
        <ele>184</ele>
        <time>2018-01-31T11:15:02Z</time>
      </trkpt>
      <trkpt lat="45.95731" lon="4.76039">
        <ele>184</ele>
        <time>2018-01-31T11:15:03Z</time>
      </trkpt>
      <trkpt lat="45.95729" lon="4.76032">
        <ele>184</ele>
        <time>2018-01-31T11:15:04Z</time>
      </trkpt>
      <trkpt lat="45.95726" lon="4.76024">
        <ele>184</ele>
        <time>2018-01-31T11:15:05Z</time>
      </trkpt>
      <trkpt lat="45.95723" lon="4.76018">
        <ele>184</ele>
        <time>2018-01-31T11:15:06Z</time>
      </trkpt>
      <trkpt lat="45.95719" lon="4.76011">
        <ele>184</ele>
        <time>2018-01-31T11:15:07Z</time>
      </trkpt>
      <trkpt lat="45.95716" lon="4.76004">
        <ele>184</ele>
        <time>2018-01-31T11:15:08Z</time>
      </trkpt>
      <trkpt lat="45.95714" lon="4.75999">
        <ele>185</ele>
        <time>2018-01-31T11:15:09Z</time>
      </trkpt>
      <trkpt lat="45.9571" lon="4.75993">
        <ele>185</ele>
        <time>2018-01-31T11:15:10Z</time>
      </trkpt>
      <trkpt lat="45.95707" lon="4.75987">
        <ele>185</ele>
        <time>2018-01-31T11:15:11Z</time>
      </trkpt>
      <trkpt lat="45.95704" lon="4.75981">
        <ele>185</ele>
        <time>2018-01-31T11:15:12Z</time>
      </trkpt>
      <trkpt lat="45.95702" lon="4.75975">
        <ele>185</ele>
        <time>2018-01-31T11:15:13Z</time>
      </trkpt>
      <trkpt lat="45.95697" lon="4.75969">
        <ele>185</ele>
        <time>2018-01-31T11:15:14Z</time>
      </trkpt>
      <trkpt lat="45.95695" lon="4.75963">
        <ele>185</ele>
        <time>2018-01-31T11:15:15Z</time>
      </trkpt>
      <trkpt lat="45.95691" lon="4.75958">
        <ele>185</ele>
        <time>2018-01-31T11:15:16Z</time>
      </trkpt>
      <trkpt lat="45.9569" lon="4.75952">
        <ele>185</ele>
        <time>2018-01-31T11:15:17Z</time>
      </trkpt>
      <trkpt lat="45.95687" lon="4.75945">
        <ele>185</ele>
        <time>2018-01-31T11:15:18Z</time>
      </trkpt>
      <trkpt lat="45.95684" lon="4.75938">
        <ele>185</ele>
        <time>2018-01-31T11:15:19Z</time>
      </trkpt>
      <trkpt lat="45.95682" lon="4.75931">
        <ele>185</ele>
        <time>2018-01-31T11:15:20Z</time>
      </trkpt>
      <trkpt lat="45.95679" lon="4.75925">
        <ele>185</ele>
        <time>2018-01-31T11:15:21Z</time>
      </trkpt>
      <trkpt lat="45.95676" lon="4.75918">
        <ele>184</ele>
        <time>2018-01-31T11:15:22Z</time>
      </trkpt>
      <trkpt lat="45.95673" lon="4.75911">
        <ele>185</ele>
        <time>2018-01-31T11:15:23Z</time>
      </trkpt>
      <trkpt lat="45.9567" lon="4.75905">
        <ele>185</ele>
        <time>2018-01-31T11:15:24Z</time>
      </trkpt>
      <trkpt lat="45.95669" lon="4.75897">
        <ele>185</ele>
        <time>2018-01-31T11:15:25Z</time>
      </trkpt>
      <trkpt lat="45.95666" lon="4.75886">
        <ele>184</ele>
        <time>2018-01-31T11:15:27Z</time>
      </trkpt>
      <trkpt lat="45.95665" lon="4.75878">
        <ele>184</ele>
        <time>2018-01-31T11:15:28Z</time>
      </trkpt>
      <trkpt lat="45.95664" lon="4.75871">
        <ele>184</ele>
        <time>2018-01-31T11:15:29Z</time>
      </trkpt>
      <trkpt lat="45.9566" lon="4.75866">
        <ele>184</ele>
        <time>2018-01-31T11:15:30Z</time>
      </trkpt>
      <trkpt lat="45.95658" lon="4.75859">
        <ele>184</ele>
        <time>2018-01-31T11:15:31Z</time>
      </trkpt>
      <trkpt lat="45.95656" lon="4.75853">
        <ele>185</ele>
        <time>2018-01-31T11:15:32Z</time>
      </trkpt>
      <trkpt lat="45.95654" lon="4.75846">
        <ele>185</ele>
        <time>2018-01-31T11:15:33Z</time>
      </trkpt>
      <trkpt lat="45.95653" lon="4.7584">
        <ele>185</ele>
        <time>2018-01-31T11:15:34Z</time>
      </trkpt>
      <trkpt lat="45.95651" lon="4.75833">
        <ele>185</ele>
        <time>2018-01-31T11:15:35Z</time>
      </trkpt>
      <trkpt lat="45.95651" lon="4.75826">
        <ele>185</ele>
        <time>2018-01-31T11:15:36Z</time>
      </trkpt>
      <trkpt lat="45.9565" lon="4.7582">
        <ele>185</ele>
        <time>2018-01-31T11:15:37Z</time>
      </trkpt>
      <trkpt lat="45.95648" lon="4.75814">
        <ele>185</ele>
        <time>2018-01-31T11:15:38Z</time>
      </trkpt>
      <trkpt lat="45.95647" lon="4.75807">
        <ele>185</ele>
        <time>2018-01-31T11:15:39Z</time>
      </trkpt>
      <trkpt lat="45.95645" lon="4.75801">
        <ele>185</ele>
        <time>2018-01-31T11:15:40Z</time>
      </trkpt>
      <trkpt lat="45.95643" lon="4.75789">
        <ele>185</ele>
        <time>2018-01-31T11:15:42Z</time>
      </trkpt>
      <trkpt lat="45.95642" lon="4.75782">
        <ele>186</ele>
        <time>2018-01-31T11:15:43Z</time>
      </trkpt>
      <trkpt lat="45.9564" lon="4.75771">
        <ele>186</ele>
        <time>2018-01-31T11:15:45Z</time>
      </trkpt>
      <trkpt lat="45.95639" lon="4.75766">
        <ele>186</ele>
        <time>2018-01-31T11:15:46Z</time>
      </trkpt>
      <trkpt lat="45.95637" lon="4.75754">
        <ele>186</ele>
        <time>2018-01-31T11:15:48Z</time>
      </trkpt>
      <trkpt lat="45.95636" lon="4.75746">
        <ele>187</ele>
        <time>2018-01-31T11:15:49Z</time>
      </trkpt>
      <trkpt lat="45.95634" lon="4.75735">
        <ele>187</ele>
        <time>2018-01-31T11:15:51Z</time>
      </trkpt>
      <trkpt lat="45.95634" lon="4.75728">
        <ele>187</ele>
        <time>2018-01-31T11:15:52Z</time>
      </trkpt>
      <trkpt lat="45.95632" lon="4.75716">
        <ele>187</ele>
        <time>2018-01-31T11:15:54Z</time>
      </trkpt>
      <trkpt lat="45.95631" lon="4.7571">
        <ele>187</ele>
        <time>2018-01-31T11:15:55Z</time>
      </trkpt>
      <trkpt lat="45.95629" lon="4.75697">
        <ele>187</ele>
        <time>2018-01-31T11:15:57Z</time>
      </trkpt>
      <trkpt lat="45.95628" lon="4.7569">
        <ele>187</ele>
        <time>2018-01-31T11:15:58Z</time>
      </trkpt>
      <trkpt lat="45.95627" lon="4.75683">
        <ele>187</ele>
        <time>2018-01-31T11:15:59Z</time>
      </trkpt>
      <trkpt lat="45.95625" lon="4.75675">
        <ele>187</ele>
        <time>2018-01-31T11:16:00Z</time>
      </trkpt>
      <trkpt lat="45.95624" lon="4.75668">
        <ele>187</ele>
        <time>2018-01-31T11:16:01Z</time>
      </trkpt>
      <trkpt lat="45.95622" lon="4.75661">
        <ele>188</ele>
        <time>2018-01-31T11:16:02Z</time>
      </trkpt>
      <trkpt lat="45.95621" lon="4.75654">
        <ele>188</ele>
        <time>2018-01-31T11:16:03Z</time>
      </trkpt>
      <trkpt lat="45.9562" lon="4.75647">
        <ele>188</ele>
        <time>2018-01-31T11:16:04Z</time>
      </trkpt>
      <trkpt lat="45.95618" lon="4.7564">
        <ele>188</ele>
        <time>2018-01-31T11:16:05Z</time>
      </trkpt>
      <trkpt lat="45.95616" lon="4.75633">
        <ele>188</ele>
        <time>2018-01-31T11:16:06Z</time>
      </trkpt>
      <trkpt lat="45.95614" lon="4.75627">
        <ele>188</ele>
        <time>2018-01-31T11:16:07Z</time>
      </trkpt>
      <trkpt lat="45.95612" lon="4.75621">
        <ele>188</ele>
        <time>2018-01-31T11:16:08Z</time>
      </trkpt>
      <trkpt lat="45.9561" lon="4.75615">
        <ele>188</ele>
        <time>2018-01-31T11:16:09Z</time>
      </trkpt>
      <trkpt lat="45.95608" lon="4.75609">
        <ele>188</ele>
        <time>2018-01-31T11:16:10Z</time>
      </trkpt>
      <trkpt lat="45.95605" lon="4.75603">
        <ele>187</ele>
        <time>2018-01-31T11:16:11Z</time>
      </trkpt>
      <trkpt lat="45.95604" lon="4.75597">
        <ele>187</ele>
        <time>2018-01-31T11:16:12Z</time>
      </trkpt>
      <trkpt lat="45.95602" lon="4.75591">
        <ele>187</ele>
        <time>2018-01-31T11:16:13Z</time>
      </trkpt>
      <trkpt lat="45.95599" lon="4.75585">
        <ele>187</ele>
        <time>2018-01-31T11:16:14Z</time>
      </trkpt>
      <trkpt lat="45.95597" lon="4.75579">
        <ele>188</ele>
        <time>2018-01-31T11:16:15Z</time>
      </trkpt>
      <trkpt lat="45.95593" lon="4.75573">
        <ele>187</ele>
        <time>2018-01-31T11:16:16Z</time>
      </trkpt>
      <trkpt lat="45.95589" lon="4.75568">
        <ele>188</ele>
        <time>2018-01-31T11:16:17Z</time>
      </trkpt>
      <trkpt lat="45.95586" lon="4.75561">
        <ele>188</ele>
        <time>2018-01-31T11:16:18Z</time>
      </trkpt>
      <trkpt lat="45.95583" lon="4.75556">
        <ele>186</ele>
        <time>2018-01-31T11:16:19Z</time>
      </trkpt>
      <trkpt lat="45.95579" lon="4.7555">
        <ele>186</ele>
        <time>2018-01-31T11:16:20Z</time>
      </trkpt>
      <trkpt lat="45.95574" lon="4.75545">
        <ele>186</ele>
        <time>2018-01-31T11:16:21Z</time>
      </trkpt>
      <trkpt lat="45.9557" lon="4.75539">
        <ele>186</ele>
        <time>2018-01-31T11:16:22Z</time>
      </trkpt>
      <trkpt lat="45.95565" lon="4.75535">
        <ele>186</ele>
        <time>2018-01-31T11:16:23Z</time>
      </trkpt>
      <trkpt lat="45.95562" lon="4.7553">
        <ele>186</ele>
        <time>2018-01-31T11:16:24Z</time>
      </trkpt>
      <trkpt lat="45.95558" lon="4.75524">
        <ele>186</ele>
        <time>2018-01-31T11:16:25Z</time>
      </trkpt>
      <trkpt lat="45.95553" lon="4.7552">
        <ele>186</ele>
        <time>2018-01-31T11:16:26Z</time>
      </trkpt>
      <trkpt lat="45.95549" lon="4.75514">
        <ele>186</ele>
        <time>2018-01-31T11:16:27Z</time>
      </trkpt>
      <trkpt lat="45.95545" lon="4.75509">
        <ele>186</ele>
        <time>2018-01-31T11:16:28Z</time>
      </trkpt>
      <trkpt lat="45.95543" lon="4.75503">
        <ele>186</ele>
        <time>2018-01-31T11:16:29Z</time>
      </trkpt>
      <trkpt lat="45.95541" lon="4.75496">
        <ele>187</ele>
        <time>2018-01-31T11:16:30Z</time>
      </trkpt>
      <trkpt lat="45.95541" lon="4.75489">
        <ele>187</ele>
        <time>2018-01-31T11:16:31Z</time>
      </trkpt>
      <trkpt lat="45.9554" lon="4.75483">
        <ele>187</ele>
        <time>2018-01-31T11:16:32Z</time>
      </trkpt>
      <trkpt lat="45.9554" lon="4.75475">
        <ele>187</ele>
        <time>2018-01-31T11:16:33Z</time>
      </trkpt>
      <trkpt lat="45.9554" lon="4.75469">
        <ele>187</ele>
        <time>2018-01-31T11:16:34Z</time>
      </trkpt>
      <trkpt lat="45.95538" lon="4.75463">
        <ele>187</ele>
        <time>2018-01-31T11:16:35Z</time>
      </trkpt>
      <trkpt lat="45.95535" lon="4.75457">
        <ele>187</ele>
        <time>2018-01-31T11:16:36Z</time>
      </trkpt>
      <trkpt lat="45.95531" lon="4.75452">
        <ele>187</ele>
        <time>2018-01-31T11:16:37Z</time>
      </trkpt>
      <trkpt lat="45.95527" lon="4.75447">
        <ele>187</ele>
        <time>2018-01-31T11:16:38Z</time>
      </trkpt>
      <trkpt lat="45.95523" lon="4.75441">
        <ele>187</ele>
        <time>2018-01-31T11:16:39Z</time>
      </trkpt>
      <trkpt lat="45.9552" lon="4.75434">
        <ele>187</ele>
        <time>2018-01-31T11:16:40Z</time>
      </trkpt>
      <trkpt lat="45.95518" lon="4.75428">
        <ele>187</ele>
        <time>2018-01-31T11:16:41Z</time>
      </trkpt>
      <trkpt lat="45.95515" lon="4.7542">
        <ele>186</ele>
        <time>2018-01-31T11:16:42Z</time>
      </trkpt>
      <trkpt lat="45.95513" lon="4.75414">
        <ele>187</ele>
        <time>2018-01-31T11:16:43Z</time>
      </trkpt>
      <trkpt lat="45.95511" lon="4.75408">
        <ele>187</ele>
        <time>2018-01-31T11:16:44Z</time>
      </trkpt>
      <trkpt lat="45.95508" lon="4.75402">
        <ele>187</ele>
        <time>2018-01-31T11:16:45Z</time>
      </trkpt>
      <trkpt lat="45.95506" lon="4.75396">
        <ele>188</ele>
        <time>2018-01-31T11:16:46Z</time>
      </trkpt>
      <trkpt lat="45.95504" lon="4.7539">
        <ele>188</ele>
        <time>2018-01-31T11:16:47Z</time>
      </trkpt>
      <trkpt lat="45.95501" lon="4.75384">
        <ele>188</ele>
        <time>2018-01-31T11:16:48Z</time>
      </trkpt>
      <trkpt lat="45.95499" lon="4.75379">
        <ele>185</ele>
        <time>2018-01-31T11:16:49Z</time>
      </trkpt>
      <trkpt lat="45.95496" lon="4.75373">
        <ele>185</ele>
        <time>2018-01-31T11:16:50Z</time>
      </trkpt>
      <trkpt lat="45.95492" lon="4.75367">
        <ele>186</ele>
        <time>2018-01-31T11:16:51Z</time>
      </trkpt>
      <trkpt lat="45.95489" lon="4.75362">
        <ele>186</ele>
        <time>2018-01-31T11:16:52Z</time>
      </trkpt>
      <trkpt lat="45.95486" lon="4.75356">
        <ele>186</ele>
        <time>2018-01-31T11:16:53Z</time>
      </trkpt>
      <trkpt lat="45.95483" lon="4.75351">
        <ele>186</ele>
        <time>2018-01-31T11:16:54Z</time>
      </trkpt>
      <trkpt lat="45.95479" lon="4.75346">
        <ele>186</ele>
        <time>2018-01-31T11:16:55Z</time>
      </trkpt>
      <trkpt lat="45.95477" lon="4.75341">
        <ele>186</ele>
        <time>2018-01-31T11:16:56Z</time>
      </trkpt>
      <trkpt lat="45.95473" lon="4.7533">
        <ele>188</ele>
        <time>2018-01-31T11:16:58Z</time>
      </trkpt>
      <trkpt lat="45.9547" lon="4.75325">
        <ele>188</ele>
        <time>2018-01-31T11:16:59Z</time>
      </trkpt>
      <trkpt lat="45.95468" lon="4.7532">
        <ele>188</ele>
        <time>2018-01-31T11:17:00Z</time>
      </trkpt>
      <trkpt lat="45.95466" lon="4.75314">
        <ele>188</ele>
        <time>2018-01-31T11:17:01Z</time>
      </trkpt>
      <trkpt lat="45.95464" lon="4.75309">
        <ele>188</ele>
        <time>2018-01-31T11:17:02Z</time>
      </trkpt>
      <trkpt lat="45.9546" lon="4.75303">
        <ele>188</ele>
        <time>2018-01-31T11:17:03Z</time>
      </trkpt>
      <trkpt lat="45.95455" lon="4.75293">
        <ele>188</ele>
        <time>2018-01-31T11:17:05Z</time>
      </trkpt>
      <trkpt lat="45.95452" lon="4.75287">
        <ele>188</ele>
        <time>2018-01-31T11:17:06Z</time>
      </trkpt>
      <trkpt lat="45.95449" lon="4.75282">
        <ele>189</ele>
        <time>2018-01-31T11:17:07Z</time>
      </trkpt>
      <trkpt lat="45.95446" lon="4.75277">
        <ele>189</ele>
        <time>2018-01-31T11:17:08Z</time>
      </trkpt>
      <trkpt lat="45.95441" lon="4.75267">
        <ele>189</ele>
        <time>2018-01-31T11:17:10Z</time>
      </trkpt>
      <trkpt lat="45.95438" lon="4.75262">
        <ele>189</ele>
        <time>2018-01-31T11:17:11Z</time>
      </trkpt>
      <trkpt lat="45.95435" lon="4.75257">
        <ele>189</ele>
        <time>2018-01-31T11:17:12Z</time>
      </trkpt>
      <trkpt lat="45.95432" lon="4.75252">
        <ele>189</ele>
        <time>2018-01-31T11:17:13Z</time>
      </trkpt>
      <trkpt lat="45.95427" lon="4.75242">
        <ele>190</ele>
        <time>2018-01-31T11:17:15Z</time>
      </trkpt>
      <trkpt lat="45.95425" lon="4.75238">
        <ele>190</ele>
        <time>2018-01-31T11:17:16Z</time>
      </trkpt>
      <trkpt lat="45.95422" lon="4.75233">
        <ele>190</ele>
        <time>2018-01-31T11:17:17Z</time>
      </trkpt>
      <trkpt lat="45.95416" lon="4.75229">
        <ele>189</ele>
        <time>2018-01-31T11:17:18Z</time>
      </trkpt>
      <trkpt lat="45.95413" lon="4.75219">
        <ele>189</ele>
        <time>2018-01-31T11:17:20Z</time>
      </trkpt>
      <trkpt lat="45.9541" lon="4.75213">
        <ele>189</ele>
        <time>2018-01-31T11:17:21Z</time>
      </trkpt>
      <trkpt lat="45.95408" lon="4.75208">
        <ele>189</ele>
        <time>2018-01-31T11:17:22Z</time>
      </trkpt>
      <trkpt lat="45.95404" lon="4.75203">
        <ele>189</ele>
        <time>2018-01-31T11:17:23Z</time>
      </trkpt>
      <trkpt lat="45.95401" lon="4.75198">
        <ele>189</ele>
        <time>2018-01-31T11:17:24Z</time>
      </trkpt>
      <trkpt lat="45.95399" lon="4.75193">
        <ele>189</ele>
        <time>2018-01-31T11:17:25Z</time>
      </trkpt>
      <trkpt lat="45.95393" lon="4.75183">
        <ele>189</ele>
        <time>2018-01-31T11:17:27Z</time>
      </trkpt>
      <trkpt lat="45.9539" lon="4.75179">
        <ele>189</ele>
        <time>2018-01-31T11:17:28Z</time>
      </trkpt>
      <trkpt lat="45.95385" lon="4.7517">
        <ele>189</ele>
        <time>2018-01-31T11:17:30Z</time>
      </trkpt>
      <trkpt lat="45.95382" lon="4.75166">
        <ele>191</ele>
        <time>2018-01-31T11:17:31Z</time>
      </trkpt>
      <trkpt lat="45.95377" lon="4.75157">
        <ele>191</ele>
        <time>2018-01-31T11:17:33Z</time>
      </trkpt>
      <trkpt lat="45.95374" lon="4.75153">
        <ele>191</ele>
        <time>2018-01-31T11:17:34Z</time>
      </trkpt>
      <trkpt lat="45.95368" lon="4.75144">
        <ele>191</ele>
        <time>2018-01-31T11:17:36Z</time>
      </trkpt>
      <trkpt lat="45.95366" lon="4.7514">
        <ele>191</ele>
        <time>2018-01-31T11:17:37Z</time>
      </trkpt>
      <trkpt lat="45.9536" lon="4.75131">
        <ele>191</ele>
        <time>2018-01-31T11:17:39Z</time>
      </trkpt>
      <trkpt lat="45.95358" lon="4.75126">
        <ele>191</ele>
        <time>2018-01-31T11:17:40Z</time>
      </trkpt>
      <trkpt lat="45.95351" lon="4.75118">
        <ele>191</ele>
        <time>2018-01-31T11:17:42Z</time>
      </trkpt>
      <trkpt lat="45.95349" lon="4.75113">
        <ele>192</ele>
        <time>2018-01-31T11:17:43Z</time>
      </trkpt>
      <trkpt lat="45.95343" lon="4.75104">
        <ele>192</ele>
        <time>2018-01-31T11:17:45Z</time>
      </trkpt>
      <trkpt lat="45.9534" lon="4.75099">
        <ele>192</ele>
        <time>2018-01-31T11:17:46Z</time>
      </trkpt>
      <trkpt lat="45.95337" lon="4.75094">
        <ele>192</ele>
        <time>2018-01-31T11:17:47Z</time>
      </trkpt>
      <trkpt lat="45.95334" lon="4.75089">
        <ele>193</ele>
        <time>2018-01-31T11:17:48Z</time>
      </trkpt>
      <trkpt lat="45.95331" lon="4.75083">
        <ele>193</ele>
        <time>2018-01-31T11:17:49Z</time>
      </trkpt>
      <trkpt lat="45.95328" lon="4.75078">
        <ele>192</ele>
        <time>2018-01-31T11:17:50Z</time>
      </trkpt>
      <trkpt lat="45.95325" lon="4.75072">
        <ele>192</ele>
        <time>2018-01-31T11:17:51Z</time>
      </trkpt>
      <trkpt lat="45.95322" lon="4.75067">
        <ele>192</ele>
        <time>2018-01-31T11:17:52Z</time>
      </trkpt>
      <trkpt lat="45.95318" lon="4.75062">
        <ele>192</ele>
        <time>2018-01-31T11:17:53Z</time>
      </trkpt>
      <trkpt lat="45.95316" lon="4.75057">
        <ele>192</ele>
        <time>2018-01-31T11:17:54Z</time>
      </trkpt>
      <trkpt lat="45.9531" lon="4.75048">
        <ele>192</ele>
        <time>2018-01-31T11:17:56Z</time>
      </trkpt>
      <trkpt lat="45.95307" lon="4.75043">
        <ele>192</ele>
        <time>2018-01-31T11:17:57Z</time>
      </trkpt>
      <trkpt lat="45.95301" lon="4.75034">
        <ele>191</ele>
        <time>2018-01-31T11:17:59Z</time>
      </trkpt>
      <trkpt lat="45.95298" lon="4.75029">
        <ele>191</ele>
        <time>2018-01-31T11:18:00Z</time>
      </trkpt>
      <trkpt lat="45.95294" lon="4.75023">
        <ele>191</ele>
        <time>2018-01-31T11:18:01Z</time>
      </trkpt>
      <trkpt lat="45.95291" lon="4.75018">
        <ele>191</ele>
        <time>2018-01-31T11:18:02Z</time>
      </trkpt>
      <trkpt lat="45.95287" lon="4.75014">
        <ele>191</ele>
        <time>2018-01-31T11:18:03Z</time>
      </trkpt>
      <trkpt lat="45.95283" lon="4.75008">
        <ele>191</ele>
        <time>2018-01-31T11:18:04Z</time>
      </trkpt>
      <trkpt lat="45.9528" lon="4.75002">
        <ele>191</ele>
        <time>2018-01-31T11:18:05Z</time>
      </trkpt>
      <trkpt lat="45.95276" lon="4.74997">
        <ele>192</ele>
        <time>2018-01-31T11:18:06Z</time>
      </trkpt>
      <trkpt lat="45.95273" lon="4.74991">
        <ele>192</ele>
        <time>2018-01-31T11:18:07Z</time>
      </trkpt>
      <trkpt lat="45.95269" lon="4.74985">
        <ele>192</ele>
        <time>2018-01-31T11:18:08Z</time>
      </trkpt>
      <trkpt lat="45.95265" lon="4.7498">
        <ele>192</ele>
        <time>2018-01-31T11:18:09Z</time>
      </trkpt>
      <trkpt lat="45.95262" lon="4.74974">
        <ele>192</ele>
        <time>2018-01-31T11:18:10Z</time>
      </trkpt>
      <trkpt lat="45.95259" lon="4.74968">
        <ele>192</ele>
        <time>2018-01-31T11:18:11Z</time>
      </trkpt>
      <trkpt lat="45.95256" lon="4.74964">
        <ele>192</ele>
        <time>2018-01-31T11:18:12Z</time>
      </trkpt>
      <trkpt lat="45.95252" lon="4.74958">
        <ele>192</ele>
        <time>2018-01-31T11:18:13Z</time>
      </trkpt>
      <trkpt lat="45.95248" lon="4.74952">
        <ele>192</ele>
        <time>2018-01-31T11:18:14Z</time>
      </trkpt>
      <trkpt lat="45.95245" lon="4.74945">
        <ele>192</ele>
        <time>2018-01-31T11:18:15Z</time>
      </trkpt>
      <trkpt lat="45.95241" lon="4.74939">
        <ele>192</ele>
        <time>2018-01-31T11:18:16Z</time>
      </trkpt>
      <trkpt lat="45.95238" lon="4.74933">
        <ele>192</ele>
        <time>2018-01-31T11:18:17Z</time>
      </trkpt>
      <trkpt lat="45.95235" lon="4.74929">
        <ele>192</ele>
        <time>2018-01-31T11:18:18Z</time>
      </trkpt>
      <trkpt lat="45.95231" lon="4.74923">
        <ele>192</ele>
        <time>2018-01-31T11:18:19Z</time>
      </trkpt>
      <trkpt lat="45.95227" lon="4.74918">
        <ele>192</ele>
        <time>2018-01-31T11:18:20Z</time>
      </trkpt>
      <trkpt lat="45.95224" lon="4.74912">
        <ele>193</ele>
        <time>2018-01-31T11:18:21Z</time>
      </trkpt>
      <trkpt lat="45.95221" lon="4.74907">
        <ele>193</ele>
        <time>2018-01-31T11:18:22Z</time>
      </trkpt>
      <trkpt lat="45.95218" lon="4.74902">
        <ele>193</ele>
        <time>2018-01-31T11:18:23Z</time>
      </trkpt>
      <trkpt lat="45.95214" lon="4.74897">
        <ele>193</ele>
        <time>2018-01-31T11:18:24Z</time>
      </trkpt>
      <trkpt lat="45.95211" lon="4.74892">
        <ele>193</ele>
        <time>2018-01-31T11:18:25Z</time>
      </trkpt>
      <trkpt lat="45.95207" lon="4.74887">
        <ele>194</ele>
        <time>2018-01-31T11:18:26Z</time>
      </trkpt>
      <trkpt lat="45.95202" lon="4.74878">
        <ele>194</ele>
        <time>2018-01-31T11:18:28Z</time>
      </trkpt>
      <trkpt lat="45.95198" lon="4.74871">
        <ele>194</ele>
        <time>2018-01-31T11:18:29Z</time>
      </trkpt>
      <trkpt lat="45.95194" lon="4.74864">
        <ele>194</ele>
        <time>2018-01-31T11:18:30Z</time>
      </trkpt>
      <trkpt lat="45.9519" lon="4.7486">
        <ele>194</ele>
        <time>2018-01-31T11:18:31Z</time>
      </trkpt>
      <trkpt lat="45.95187" lon="4.74855">
        <ele>194</ele>
        <time>2018-01-31T11:18:32Z</time>
      </trkpt>
      <trkpt lat="45.95183" lon="4.74849">
        <ele>194</ele>
        <time>2018-01-31T11:18:33Z</time>
      </trkpt>
      <trkpt lat="45.95179" lon="4.74843">
        <ele>194</ele>
        <time>2018-01-31T11:18:34Z</time>
      </trkpt>
      <trkpt lat="45.95175" lon="4.74837">
        <ele>194</ele>
        <time>2018-01-31T11:18:35Z</time>
      </trkpt>
      <trkpt lat="45.95171" lon="4.7483">
        <ele>194</ele>
        <time>2018-01-31T11:18:36Z</time>
      </trkpt>
      <trkpt lat="45.95168" lon="4.74824">
        <ele>194</ele>
        <time>2018-01-31T11:18:37Z</time>
      </trkpt>
      <trkpt lat="45.95165" lon="4.74819">
        <ele>194</ele>
        <time>2018-01-31T11:18:38Z</time>
      </trkpt>
      <trkpt lat="45.95161" lon="4.74814">
        <ele>194</ele>
        <time>2018-01-31T11:18:39Z</time>
      </trkpt>
      <trkpt lat="45.95158" lon="4.74808">
        <ele>194</ele>
        <time>2018-01-31T11:18:40Z</time>
      </trkpt>
      <trkpt lat="45.95155" lon="4.74803">
        <ele>194</ele>
        <time>2018-01-31T11:18:41Z</time>
      </trkpt>
      <trkpt lat="45.95151" lon="4.74797">
        <ele>194</ele>
        <time>2018-01-31T11:18:42Z</time>
      </trkpt>
      <trkpt lat="45.95147" lon="4.74791">
        <ele>194</ele>
        <time>2018-01-31T11:18:43Z</time>
      </trkpt>
      <trkpt lat="45.95144" lon="4.74786">
        <ele>194</ele>
        <time>2018-01-31T11:18:44Z</time>
      </trkpt>
      <trkpt lat="45.9514" lon="4.7478">
        <ele>194</ele>
        <time>2018-01-31T11:18:45Z</time>
      </trkpt>
      <trkpt lat="45.95135" lon="4.74774">
        <ele>194</ele>
        <time>2018-01-31T11:18:46Z</time>
      </trkpt>
      <trkpt lat="45.9513" lon="4.74767">
        <ele>194</ele>
        <time>2018-01-31T11:18:47Z</time>
      </trkpt>
      <trkpt lat="45.95127" lon="4.74761">
        <ele>194</ele>
        <time>2018-01-31T11:18:48Z</time>
      </trkpt>
      <trkpt lat="45.95124" lon="4.74754">
        <ele>194</ele>
        <time>2018-01-31T11:18:49Z</time>
      </trkpt>
      <trkpt lat="45.9512" lon="4.74747">
        <ele>194</ele>
        <time>2018-01-31T11:18:50Z</time>
      </trkpt>
      <trkpt lat="45.95116" lon="4.74741">
        <ele>194</ele>
        <time>2018-01-31T11:18:51Z</time>
      </trkpt>
      <trkpt lat="45.95114" lon="4.74734">
        <ele>194</ele>
        <time>2018-01-31T11:18:52Z</time>
      </trkpt>
      <trkpt lat="45.95111" lon="4.74728">
        <ele>194</ele>
        <time>2018-01-31T11:18:53Z</time>
      </trkpt>
      <trkpt lat="45.95108" lon="4.74721">
        <ele>194</ele>
        <time>2018-01-31T11:18:54Z</time>
      </trkpt>
      <trkpt lat="45.95103" lon="4.74714">
        <ele>194</ele>
        <time>2018-01-31T11:18:55Z</time>
      </trkpt>
      <trkpt lat="45.95099" lon="4.74708">
        <ele>194</ele>
        <time>2018-01-31T11:18:56Z</time>
      </trkpt>
      <trkpt lat="45.95095" lon="4.74703">
        <ele>194</ele>
        <time>2018-01-31T11:18:57Z</time>
      </trkpt>
      <trkpt lat="45.95092" lon="4.74698">
        <ele>194</ele>
        <time>2018-01-31T11:18:58Z</time>
      </trkpt>
      <trkpt lat="45.95088" lon="4.74693">
        <ele>194</ele>
        <time>2018-01-31T11:18:59Z</time>
      </trkpt>
      <trkpt lat="45.95083" lon="4.74683">
        <ele>194</ele>
        <time>2018-01-31T11:19:01Z</time>
      </trkpt>
      <trkpt lat="45.9508" lon="4.74677">
        <ele>194</ele>
        <time>2018-01-31T11:19:02Z</time>
      </trkpt>
      <trkpt lat="45.95076" lon="4.74671">
        <ele>195</ele>
        <time>2018-01-31T11:19:03Z</time>
      </trkpt>
      <trkpt lat="45.95073" lon="4.74665">
        <ele>195</ele>
        <time>2018-01-31T11:19:04Z</time>
      </trkpt>
      <trkpt lat="45.95068" lon="4.74658">
        <ele>195</ele>
        <time>2018-01-31T11:19:05Z</time>
      </trkpt>
      <trkpt lat="45.95065" lon="4.74652">
        <ele>195</ele>
        <time>2018-01-31T11:19:06Z</time>
      </trkpt>
      <trkpt lat="45.95061" lon="4.74645">
        <ele>194</ele>
        <time>2018-01-31T11:19:07Z</time>
      </trkpt>
      <trkpt lat="45.95058" lon="4.74639">
        <ele>194</ele>
        <time>2018-01-31T11:19:08Z</time>
      </trkpt>
      <trkpt lat="45.95054" lon="4.74631">
        <ele>194</ele>
        <time>2018-01-31T11:19:09Z</time>
      </trkpt>
      <trkpt lat="45.9505" lon="4.74625">
        <ele>194</ele>
        <time>2018-01-31T11:19:10Z</time>
      </trkpt>
      <trkpt lat="45.95046" lon="4.74618">
        <ele>194</ele>
        <time>2018-01-31T11:19:11Z</time>
      </trkpt>
      <trkpt lat="45.95043" lon="4.74611">
        <ele>194</ele>
        <time>2018-01-31T11:19:12Z</time>
      </trkpt>
      <trkpt lat="45.95039" lon="4.74604">
        <ele>194</ele>
        <time>2018-01-31T11:19:13Z</time>
      </trkpt>
      <trkpt lat="45.95036" lon="4.74598">
        <ele>194</ele>
        <time>2018-01-31T11:19:14Z</time>
      </trkpt>
      <trkpt lat="45.95032" lon="4.74591">
        <ele>194</ele>
        <time>2018-01-31T11:19:15Z</time>
      </trkpt>
      <trkpt lat="45.95029" lon="4.74584">
        <ele>194</ele>
        <time>2018-01-31T11:19:16Z</time>
      </trkpt>
      <trkpt lat="45.95025" lon="4.74578">
        <ele>194</ele>
        <time>2018-01-31T11:19:17Z</time>
      </trkpt>
      <trkpt lat="45.95023" lon="4.74572">
        <ele>194</ele>
        <time>2018-01-31T11:19:18Z</time>
      </trkpt>
      <trkpt lat="45.9502" lon="4.74565">
        <ele>194</ele>
        <time>2018-01-31T11:19:19Z</time>
      </trkpt>
      <trkpt lat="45.95017" lon="4.74559">
        <ele>194</ele>
        <time>2018-01-31T11:19:20Z</time>
      </trkpt>
      <trkpt lat="45.95012" lon="4.74551">
        <ele>194</ele>
        <time>2018-01-31T11:19:21Z</time>
      </trkpt>
      <trkpt lat="45.95009" lon="4.74544">
        <ele>194</ele>
        <time>2018-01-31T11:19:22Z</time>
      </trkpt>
      <trkpt lat="45.95005" lon="4.74537">
        <ele>194</ele>
        <time>2018-01-31T11:19:23Z</time>
      </trkpt>
      <trkpt lat="45.95" lon="4.7453">
        <ele>193</ele>
        <time>2018-01-31T11:19:24Z</time>
      </trkpt>
      <trkpt lat="45.94997" lon="4.74523">
        <ele>193</ele>
        <time>2018-01-31T11:19:25Z</time>
      </trkpt>
      <trkpt lat="45.94992" lon="4.74516">
        <ele>193</ele>
        <time>2018-01-31T11:19:26Z</time>
      </trkpt>
      <trkpt lat="45.94989" lon="4.74508">
        <ele>193</ele>
        <time>2018-01-31T11:19:27Z</time>
      </trkpt>
      <trkpt lat="45.94985" lon="4.74502">
        <ele>193</ele>
        <time>2018-01-31T11:19:28Z</time>
      </trkpt>
      <trkpt lat="45.94981" lon="4.74494">
        <ele>193</ele>
        <time>2018-01-31T11:19:29Z</time>
      </trkpt>
      <trkpt lat="45.94977" lon="4.74487">
        <ele>193</ele>
        <time>2018-01-31T11:19:30Z</time>
      </trkpt>
      <trkpt lat="45.94974" lon="4.7448">
        <ele>193</ele>
        <time>2018-01-31T11:19:31Z</time>
      </trkpt>
      <trkpt lat="45.94969" lon="4.74473">
        <ele>193</ele>
        <time>2018-01-31T11:19:32Z</time>
      </trkpt>
      <trkpt lat="45.94966" lon="4.74465">
        <ele>193</ele>
        <time>2018-01-31T11:19:33Z</time>
      </trkpt>
      <trkpt lat="45.94961" lon="4.74457">
        <ele>192</ele>
        <time>2018-01-31T11:19:34Z</time>
      </trkpt>
      <trkpt lat="45.94957" lon="4.74449">
        <ele>192</ele>
        <time>2018-01-31T11:19:35Z</time>
      </trkpt>
      <trkpt lat="45.94953" lon="4.74442">
        <ele>192</ele>
        <time>2018-01-31T11:19:36Z</time>
      </trkpt>
      <trkpt lat="45.94949" lon="4.74433">
        <ele>192</ele>
        <time>2018-01-31T11:19:37Z</time>
      </trkpt>
      <trkpt lat="45.94945" lon="4.74425">
        <ele>192</ele>
        <time>2018-01-31T11:19:38Z</time>
      </trkpt>
      <trkpt lat="45.9494" lon="4.74417">
        <ele>192</ele>
        <time>2018-01-31T11:19:39Z</time>
      </trkpt>
      <trkpt lat="45.94936" lon="4.74409">
        <ele>192</ele>
        <time>2018-01-31T11:19:40Z</time>
      </trkpt>
      <trkpt lat="45.94932" lon="4.74402">
        <ele>192</ele>
        <time>2018-01-31T11:19:41Z</time>
      </trkpt>
      <trkpt lat="45.94928" lon="4.74393">
        <ele>192</ele>
        <time>2018-01-31T11:19:42Z</time>
      </trkpt>
      <trkpt lat="45.94924" lon="4.74385">
        <ele>192</ele>
        <time>2018-01-31T11:19:43Z</time>
      </trkpt>
      <trkpt lat="45.9492" lon="4.74378">
        <ele>192</ele>
        <time>2018-01-31T11:19:44Z</time>
      </trkpt>
      <trkpt lat="45.94917" lon="4.7437">
        <ele>192</ele>
        <time>2018-01-31T11:19:45Z</time>
      </trkpt>
      <trkpt lat="45.94914" lon="4.74363">
        <ele>191</ele>
        <time>2018-01-31T11:19:46Z</time>
      </trkpt>
      <trkpt lat="45.9491" lon="4.74355">
        <ele>191</ele>
        <time>2018-01-31T11:19:47Z</time>
      </trkpt>
      <trkpt lat="45.94907" lon="4.74347">
        <ele>191</ele>
        <time>2018-01-31T11:19:48Z</time>
      </trkpt>
      <trkpt lat="45.94904" lon="4.74341">
        <ele>191</ele>
        <time>2018-01-31T11:19:49Z</time>
      </trkpt>
      <trkpt lat="45.949" lon="4.74335">
        <ele>191</ele>
        <time>2018-01-31T11:19:50Z</time>
      </trkpt>
      <trkpt lat="45.94897" lon="4.74326">
        <ele>191</ele>
        <time>2018-01-31T11:19:51Z</time>
      </trkpt>
      <trkpt lat="45.94893" lon="4.74319">
        <ele>191</ele>
        <time>2018-01-31T11:19:52Z</time>
      </trkpt>
      <trkpt lat="45.94888" lon="4.74312">
        <ele>191</ele>
        <time>2018-01-31T11:19:53Z</time>
      </trkpt>
      <trkpt lat="45.94883" lon="4.74304">
        <ele>191</ele>
        <time>2018-01-31T11:19:54Z</time>
      </trkpt>
      <trkpt lat="45.94878" lon="4.74296">
        <ele>191</ele>
        <time>2018-01-31T11:19:55Z</time>
      </trkpt>
      <trkpt lat="45.94874" lon="4.74289">
        <ele>191</ele>
        <time>2018-01-31T11:19:56Z</time>
      </trkpt>
      <trkpt lat="45.9487" lon="4.74281">
        <ele>191</ele>
        <time>2018-01-31T11:19:57Z</time>
      </trkpt>
      <trkpt lat="45.94866" lon="4.74273">
        <ele>191</ele>
        <time>2018-01-31T11:19:58Z</time>
      </trkpt>
      <trkpt lat="45.94862" lon="4.74266">
        <ele>190</ele>
        <time>2018-01-31T11:19:59Z</time>
      </trkpt>
      <trkpt lat="45.94858" lon="4.74258">
        <ele>190</ele>
        <time>2018-01-31T11:20:00Z</time>
      </trkpt>
      <trkpt lat="45.94854" lon="4.7425">
        <ele>190</ele>
        <time>2018-01-31T11:20:01Z</time>
      </trkpt>
      <trkpt lat="45.94851" lon="4.74244">
        <ele>190</ele>
        <time>2018-01-31T11:20:02Z</time>
      </trkpt>
      <trkpt lat="45.94848" lon="4.74237">
        <ele>190</ele>
        <time>2018-01-31T11:20:03Z</time>
      </trkpt>
      <trkpt lat="45.94845" lon="4.74231">
        <ele>190</ele>
        <time>2018-01-31T11:20:04Z</time>
      </trkpt>
      <trkpt lat="45.94842" lon="4.74224">
        <ele>190</ele>
        <time>2018-01-31T11:20:05Z</time>
      </trkpt>
      <trkpt lat="45.94838" lon="4.74218">
        <ele>190</ele>
        <time>2018-01-31T11:20:06Z</time>
      </trkpt>
      <trkpt lat="45.94834" lon="4.74211">
        <ele>190</ele>
        <time>2018-01-31T11:20:07Z</time>
      </trkpt>
      <trkpt lat="45.9483" lon="4.74205">
        <ele>189</ele>
        <time>2018-01-31T11:20:08Z</time>
      </trkpt>
      <trkpt lat="45.94827" lon="4.74199">
        <ele>189</ele>
        <time>2018-01-31T11:20:09Z</time>
      </trkpt>
      <trkpt lat="45.94823" lon="4.74193">
        <ele>189</ele>
        <time>2018-01-31T11:20:10Z</time>
      </trkpt>
      <trkpt lat="45.9482" lon="4.74187">
        <ele>189</ele>
        <time>2018-01-31T11:20:11Z</time>
      </trkpt>
      <trkpt lat="45.94816" lon="4.74181">
        <ele>189</ele>
        <time>2018-01-31T11:20:12Z</time>
      </trkpt>
      <trkpt lat="45.94813" lon="4.74175">
        <ele>189</ele>
        <time>2018-01-31T11:20:13Z</time>
      </trkpt>
      <trkpt lat="45.9481" lon="4.74169">
        <ele>189</ele>
        <time>2018-01-31T11:20:14Z</time>
      </trkpt>
      <trkpt lat="45.94807" lon="4.74164">
        <ele>189</ele>
        <time>2018-01-31T11:20:15Z</time>
      </trkpt>
      <trkpt lat="45.94803" lon="4.74158">
        <ele>189</ele>
        <time>2018-01-31T11:20:16Z</time>
      </trkpt>
      <trkpt lat="45.94799" lon="4.74151">
        <ele>189</ele>
        <time>2018-01-31T11:20:17Z</time>
      </trkpt>
      <trkpt lat="45.94795" lon="4.74144">
        <ele>189</ele>
        <time>2018-01-31T11:20:18Z</time>
      </trkpt>
      <trkpt lat="45.9479" lon="4.74138">
        <ele>189</ele>
        <time>2018-01-31T11:20:19Z</time>
      </trkpt>
      <trkpt lat="45.94787" lon="4.74131">
        <ele>189</ele>
        <time>2018-01-31T11:20:20Z</time>
      </trkpt>
      <trkpt lat="45.94783" lon="4.74125">
        <ele>189</ele>
        <time>2018-01-31T11:20:21Z</time>
      </trkpt>
      <trkpt lat="45.94779" lon="4.74117">
        <ele>189</ele>
        <time>2018-01-31T11:20:22Z</time>
      </trkpt>
      <trkpt lat="45.94775" lon="4.74111">
        <ele>189</ele>
        <time>2018-01-31T11:20:23Z</time>
      </trkpt>
      <trkpt lat="45.9477" lon="4.74104">
        <ele>189</ele>
        <time>2018-01-31T11:20:24Z</time>
      </trkpt>
      <trkpt lat="45.94765" lon="4.74098">
        <ele>189</ele>
        <time>2018-01-31T11:20:25Z</time>
      </trkpt>
      <trkpt lat="45.94762" lon="4.74092">
        <ele>189</ele>
        <time>2018-01-31T11:20:26Z</time>
      </trkpt>
      <trkpt lat="45.94757" lon="4.74085">
        <ele>189</ele>
        <time>2018-01-31T11:20:27Z</time>
      </trkpt>
      <trkpt lat="45.94752" lon="4.74079">
        <ele>189</ele>
        <time>2018-01-31T11:20:28Z</time>
      </trkpt>
      <trkpt lat="45.94748" lon="4.74072">
        <ele>188</ele>
        <time>2018-01-31T11:20:29Z</time>
      </trkpt>
      <trkpt lat="45.94742" lon="4.74066">
        <ele>188</ele>
        <time>2018-01-31T11:20:30Z</time>
      </trkpt>
      <trkpt lat="45.94738" lon="4.7406">
        <ele>188</ele>
        <time>2018-01-31T11:20:31Z</time>
      </trkpt>
      <trkpt lat="45.94734" lon="4.74053">
        <ele>188</ele>
        <time>2018-01-31T11:20:32Z</time>
      </trkpt>
      <trkpt lat="45.9473" lon="4.74047">
        <ele>188</ele>
        <time>2018-01-31T11:20:33Z</time>
      </trkpt>
      <trkpt lat="45.94725" lon="4.74041">
        <ele>187</ele>
        <time>2018-01-31T11:20:34Z</time>
      </trkpt>
      <trkpt lat="45.94722" lon="4.74036">
        <ele>187</ele>
        <time>2018-01-31T11:20:35Z</time>
      </trkpt>
      <trkpt lat="45.94718" lon="4.7403">
        <ele>187</ele>
        <time>2018-01-31T11:20:36Z</time>
      </trkpt>
      <trkpt lat="45.94714" lon="4.74026">
        <ele>187</ele>
        <time>2018-01-31T11:20:37Z</time>
      </trkpt>
      <trkpt lat="45.94709" lon="4.7402">
        <ele>187</ele>
        <time>2018-01-31T11:20:38Z</time>
      </trkpt>
      <trkpt lat="45.94706" lon="4.74016">
        <ele>187</ele>
        <time>2018-01-31T11:20:39Z</time>
      </trkpt>
      <trkpt lat="45.94702" lon="4.74011">
        <ele>187</ele>
        <time>2018-01-31T11:20:40Z</time>
      </trkpt>
      <trkpt lat="45.94698" lon="4.74006">
        <ele>187</ele>
        <time>2018-01-31T11:20:41Z</time>
      </trkpt>
      <trkpt lat="45.94694" lon="4.74">
        <ele>187</ele>
        <time>2018-01-31T11:20:42Z</time>
      </trkpt>
      <trkpt lat="45.94691" lon="4.73994">
        <ele>187</ele>
        <time>2018-01-31T11:20:43Z</time>
      </trkpt>
      <trkpt lat="45.94686" lon="4.73989">
        <ele>187</ele>
        <time>2018-01-31T11:20:44Z</time>
      </trkpt>
      <trkpt lat="45.94682" lon="4.73983">
        <ele>187</ele>
        <time>2018-01-31T11:20:45Z</time>
      </trkpt>
      <trkpt lat="45.94676" lon="4.73978">
        <ele>187</ele>
        <time>2018-01-31T11:20:46Z</time>
      </trkpt>
      <trkpt lat="45.94672" lon="4.73973">
        <ele>187</ele>
        <time>2018-01-31T11:20:47Z</time>
      </trkpt>
      <trkpt lat="45.94668" lon="4.73967">
        <ele>187</ele>
        <time>2018-01-31T11:20:48Z</time>
      </trkpt>
      <trkpt lat="45.94663" lon="4.73962">
        <ele>187</ele>
        <time>2018-01-31T11:20:49Z</time>
      </trkpt>
      <trkpt lat="45.94659" lon="4.73957">
        <ele>187</ele>
        <time>2018-01-31T11:20:50Z</time>
      </trkpt>
      <trkpt lat="45.94653" lon="4.73952">
        <ele>187</ele>
        <time>2018-01-31T11:20:51Z</time>
      </trkpt>
      <trkpt lat="45.94649" lon="4.73946">
        <ele>187</ele>
        <time>2018-01-31T11:20:52Z</time>
      </trkpt>
      <trkpt lat="45.94645" lon="4.73941">
        <ele>187</ele>
        <time>2018-01-31T11:20:53Z</time>
      </trkpt>
      <trkpt lat="45.94641" lon="4.73935">
        <ele>187</ele>
        <time>2018-01-31T11:20:54Z</time>
      </trkpt>
      <trkpt lat="45.94637" lon="4.7393">
        <ele>187</ele>
        <time>2018-01-31T11:20:55Z</time>
      </trkpt>
      <trkpt lat="45.94633" lon="4.73924">
        <ele>187</ele>
        <time>2018-01-31T11:20:56Z</time>
      </trkpt>
      <trkpt lat="45.94631" lon="4.73919">
        <ele>187</ele>
        <time>2018-01-31T11:20:57Z</time>
      </trkpt>
      <trkpt lat="45.94627" lon="4.73914">
        <ele>187</ele>
        <time>2018-01-31T11:20:58Z</time>
      </trkpt>
      <trkpt lat="45.94623" lon="4.73909">
        <ele>187</ele>
        <time>2018-01-31T11:20:59Z</time>
      </trkpt>
      <trkpt lat="45.94619" lon="4.73903">
        <ele>187</ele>
        <time>2018-01-31T11:21:00Z</time>
      </trkpt>
      <trkpt lat="45.94615" lon="4.73898">
        <ele>187</ele>
        <time>2018-01-31T11:21:01Z</time>
      </trkpt>
      <trkpt lat="45.94611" lon="4.73893">
        <ele>187</ele>
        <time>2018-01-31T11:21:02Z</time>
      </trkpt>
      <trkpt lat="45.94607" lon="4.73888">
        <ele>187</ele>
        <time>2018-01-31T11:21:03Z</time>
      </trkpt>
      <trkpt lat="45.94602" lon="4.73884">
        <ele>187</ele>
        <time>2018-01-31T11:21:04Z</time>
      </trkpt>
      <trkpt lat="45.94597" lon="4.73878">
        <ele>187</ele>
        <time>2018-01-31T11:21:05Z</time>
      </trkpt>
      <trkpt lat="45.94592" lon="4.73872">
        <ele>187</ele>
        <time>2018-01-31T11:21:06Z</time>
      </trkpt>
      <trkpt lat="45.94586" lon="4.73866">
        <ele>187</ele>
        <time>2018-01-31T11:21:07Z</time>
      </trkpt>
      <trkpt lat="45.94581" lon="4.7386">
        <ele>186</ele>
        <time>2018-01-31T11:21:08Z</time>
      </trkpt>
      <trkpt lat="45.94576" lon="4.73855">
        <ele>186</ele>
        <time>2018-01-31T11:21:09Z</time>
      </trkpt>
      <trkpt lat="45.94571" lon="4.73851">
        <ele>186</ele>
        <time>2018-01-31T11:21:10Z</time>
      </trkpt>
      <trkpt lat="45.94566" lon="4.73846">
        <ele>186</ele>
        <time>2018-01-31T11:21:11Z</time>
      </trkpt>
      <trkpt lat="45.94563" lon="4.73841">
        <ele>186</ele>
        <time>2018-01-31T11:21:12Z</time>
      </trkpt>
      <trkpt lat="45.94559" lon="4.73836">
        <ele>186</ele>
        <time>2018-01-31T11:21:13Z</time>
      </trkpt>
      <trkpt lat="45.94554" lon="4.73831">
        <ele>186</ele>
        <time>2018-01-31T11:21:14Z</time>
      </trkpt>
      <trkpt lat="45.94547" lon="4.73823">
        <ele>186</ele>
        <time>2018-01-31T11:21:16Z</time>
      </trkpt>
      <trkpt lat="45.94542" lon="4.73818">
        <ele>186</ele>
        <time>2018-01-31T11:21:17Z</time>
      </trkpt>
      <trkpt lat="45.94539" lon="4.73814">
        <ele>186</ele>
        <time>2018-01-31T11:21:18Z</time>
      </trkpt>
      <trkpt lat="45.94533" lon="4.73809">
        <ele>186</ele>
        <time>2018-01-31T11:21:19Z</time>
      </trkpt>
      <trkpt lat="45.94528" lon="4.73805">
        <ele>186</ele>
        <time>2018-01-31T11:21:20Z</time>
      </trkpt>
      <trkpt lat="45.94523" lon="4.73801">
        <ele>186</ele>
        <time>2018-01-31T11:21:21Z</time>
      </trkpt>
      <trkpt lat="45.94518" lon="4.73796">
        <ele>186</ele>
        <time>2018-01-31T11:21:22Z</time>
      </trkpt>
      <trkpt lat="45.94514" lon="4.73791">
        <ele>186</ele>
        <time>2018-01-31T11:21:23Z</time>
      </trkpt>
      <trkpt lat="45.94509" lon="4.73786">
        <ele>186</ele>
        <time>2018-01-31T11:21:24Z</time>
      </trkpt>
      <trkpt lat="45.94505" lon="4.7378">
        <ele>186</ele>
        <time>2018-01-31T11:21:25Z</time>
      </trkpt>
      <trkpt lat="45.94501" lon="4.73775">
        <ele>186</ele>
        <time>2018-01-31T11:21:26Z</time>
      </trkpt>
      <trkpt lat="45.94498" lon="4.73769">
        <ele>186</ele>
        <time>2018-01-31T11:21:27Z</time>
      </trkpt>
      <trkpt lat="45.94495" lon="4.73764">
        <ele>186</ele>
        <time>2018-01-31T11:21:28Z</time>
      </trkpt>
      <trkpt lat="45.94491" lon="4.73759">
        <ele>186</ele>
        <time>2018-01-31T11:21:29Z</time>
      </trkpt>
      <trkpt lat="45.94488" lon="4.73754">
        <ele>186</ele>
        <time>2018-01-31T11:21:30Z</time>
      </trkpt>
      <trkpt lat="45.94486" lon="4.73748">
        <ele>186</ele>
        <time>2018-01-31T11:21:31Z</time>
      </trkpt>
      <trkpt lat="45.94483" lon="4.73741">
        <ele>186</ele>
        <time>2018-01-31T11:21:32Z</time>
      </trkpt>
      <trkpt lat="45.94484" lon="4.73735">
        <ele>186</ele>
        <time>2018-01-31T11:21:33Z</time>
      </trkpt>
      <trkpt lat="45.94485" lon="4.73727">
        <ele>186</ele>
        <time>2018-01-31T11:21:34Z</time>
      </trkpt>
      <trkpt lat="45.94487" lon="4.7372">
        <ele>186</ele>
        <time>2018-01-31T11:21:35Z</time>
      </trkpt>
      <trkpt lat="45.94487" lon="4.73713">
        <ele>186</ele>
        <time>2018-01-31T11:21:36Z</time>
      </trkpt>
      <trkpt lat="45.94487" lon="4.73706">
        <ele>186</ele>
        <time>2018-01-31T11:21:37Z</time>
      </trkpt>
      <trkpt lat="45.94488" lon="4.73697">
        <ele>186</ele>
        <time>2018-01-31T11:21:38Z</time>
      </trkpt>
      <trkpt lat="45.94491" lon="4.73689">
        <ele>186</ele>
        <time>2018-01-31T11:21:39Z</time>
      </trkpt>
      <trkpt lat="45.94492" lon="4.73681">
        <ele>186</ele>
        <time>2018-01-31T11:21:40Z</time>
      </trkpt>
      <trkpt lat="45.94494" lon="4.73673">
        <ele>185</ele>
        <time>2018-01-31T11:21:41Z</time>
      </trkpt>
      <trkpt lat="45.94496" lon="4.73664">
        <ele>185</ele>
        <time>2018-01-31T11:21:42Z</time>
      </trkpt>
      <trkpt lat="45.94497" lon="4.73655">
        <ele>185</ele>
        <time>2018-01-31T11:21:43Z</time>
      </trkpt>
      <trkpt lat="45.94499" lon="4.73647">
        <ele>185</ele>
        <time>2018-01-31T11:21:44Z</time>
      </trkpt>
      <trkpt lat="45.945" lon="4.73638">
        <ele>184</ele>
        <time>2018-01-31T11:21:45Z</time>
      </trkpt>
      <trkpt lat="45.94501" lon="4.73629">
        <ele>184</ele>
        <time>2018-01-31T11:21:46Z</time>
      </trkpt>
      <trkpt lat="45.94503" lon="4.7362">
        <ele>184</ele>
        <time>2018-01-31T11:21:47Z</time>
      </trkpt>
      <trkpt lat="45.94504" lon="4.73612">
        <ele>184</ele>
        <time>2018-01-31T11:21:48Z</time>
      </trkpt>
      <trkpt lat="45.94505" lon="4.73604">
        <ele>184</ele>
        <time>2018-01-31T11:21:49Z</time>
      </trkpt>
      <trkpt lat="45.94507" lon="4.73595">
        <ele>184</ele>
        <time>2018-01-31T11:21:50Z</time>
      </trkpt>
      <trkpt lat="45.94508" lon="4.73586">
        <ele>185</ele>
        <time>2018-01-31T11:21:51Z</time>
      </trkpt>
      <trkpt lat="45.94508" lon="4.73576">
        <ele>184</ele>
        <time>2018-01-31T11:21:52Z</time>
      </trkpt>
      <trkpt lat="45.94509" lon="4.73566">
        <ele>184</ele>
        <time>2018-01-31T11:21:53Z</time>
      </trkpt>
      <trkpt lat="45.94508" lon="4.73557">
        <ele>183</ele>
        <time>2018-01-31T11:21:54Z</time>
      </trkpt>
      <trkpt lat="45.94507" lon="4.73547">
        <ele>183</ele>
        <time>2018-01-31T11:21:55Z</time>
      </trkpt>
      <trkpt lat="45.94506" lon="4.73539">
        <ele>183</ele>
        <time>2018-01-31T11:21:56Z</time>
      </trkpt>
      <trkpt lat="45.94508" lon="4.73529">
        <ele>183</ele>
        <time>2018-01-31T11:21:57Z</time>
      </trkpt>
      <trkpt lat="45.94509" lon="4.7352">
        <ele>183</ele>
        <time>2018-01-31T11:21:58Z</time>
      </trkpt>
      <trkpt lat="45.94508" lon="4.7351">
        <ele>183</ele>
        <time>2018-01-31T11:21:59Z</time>
      </trkpt>
      <trkpt lat="45.94509" lon="4.73498">
        <ele>182</ele>
        <time>2018-01-31T11:22:00Z</time>
      </trkpt>
      <trkpt lat="45.94509" lon="4.73488">
        <ele>182</ele>
        <time>2018-01-31T11:22:01Z</time>
      </trkpt>
      <trkpt lat="45.94508" lon="4.73478">
        <ele>182</ele>
        <time>2018-01-31T11:22:02Z</time>
      </trkpt>
      <trkpt lat="45.94508" lon="4.73468">
        <ele>181</ele>
        <time>2018-01-31T11:22:03Z</time>
      </trkpt>
      <trkpt lat="45.94508" lon="4.73459">
        <ele>181</ele>
        <time>2018-01-31T11:22:04Z</time>
      </trkpt>
      <trkpt lat="45.94509" lon="4.7345">
        <ele>181</ele>
        <time>2018-01-31T11:22:05Z</time>
      </trkpt>
      <trkpt lat="45.94508" lon="4.73441">
        <ele>181</ele>
        <time>2018-01-31T11:22:06Z</time>
      </trkpt>
      <trkpt lat="45.94508" lon="4.73433">
        <ele>181</ele>
        <time>2018-01-31T11:22:07Z</time>
      </trkpt>
      <trkpt lat="45.94507" lon="4.73424">
        <ele>180</ele>
        <time>2018-01-31T11:22:08Z</time>
      </trkpt>
      <trkpt lat="45.94507" lon="4.73413">
        <ele>180</ele>
        <time>2018-01-31T11:22:09Z</time>
      </trkpt>
      <trkpt lat="45.94504" lon="4.73404">
        <ele>179</ele>
        <time>2018-01-31T11:22:10Z</time>
      </trkpt>
      <trkpt lat="45.94503" lon="4.73395">
        <ele>179</ele>
        <time>2018-01-31T11:22:11Z</time>
      </trkpt>
      <trkpt lat="45.94502" lon="4.73385">
        <ele>179</ele>
        <time>2018-01-31T11:22:12Z</time>
      </trkpt>
      <trkpt lat="45.94502" lon="4.73375">
        <ele>178</ele>
        <time>2018-01-31T11:22:13Z</time>
      </trkpt>
      <trkpt lat="45.94502" lon="4.73366">
        <ele>178</ele>
        <time>2018-01-31T11:22:14Z</time>
      </trkpt>
      <trkpt lat="45.94501" lon="4.73357">
        <ele>178</ele>
        <time>2018-01-31T11:22:15Z</time>
      </trkpt>
      <trkpt lat="45.94498" lon="4.73347">
        <ele>178</ele>
        <time>2018-01-31T11:22:16Z</time>
      </trkpt>
      <trkpt lat="45.94498" lon="4.73337">
        <ele>177</ele>
        <time>2018-01-31T11:22:17Z</time>
      </trkpt>
      <trkpt lat="45.94496" lon="4.73327">
        <ele>177</ele>
        <time>2018-01-31T11:22:18Z</time>
      </trkpt>
      <trkpt lat="45.94495" lon="4.73317">
        <ele>177</ele>
        <time>2018-01-31T11:22:19Z</time>
      </trkpt>
      <trkpt lat="45.94494" lon="4.73307">
        <ele>177</ele>
        <time>2018-01-31T11:22:20Z</time>
      </trkpt>
      <trkpt lat="45.94493" lon="4.73296">
        <ele>177</ele>
        <time>2018-01-31T11:22:21Z</time>
      </trkpt>
      <trkpt lat="45.94492" lon="4.73286">
        <ele>177</ele>
        <time>2018-01-31T11:22:22Z</time>
      </trkpt>
      <trkpt lat="45.94491" lon="4.73275">
        <ele>177</ele>
        <time>2018-01-31T11:22:23Z</time>
      </trkpt>
      <trkpt lat="45.9449" lon="4.73265">
        <ele>176</ele>
        <time>2018-01-31T11:22:24Z</time>
      </trkpt>
      <trkpt lat="45.94489" lon="4.73255">
        <ele>176</ele>
        <time>2018-01-31T11:22:25Z</time>
      </trkpt>
      <trkpt lat="45.94487" lon="4.73244">
        <ele>175</ele>
        <time>2018-01-31T11:22:26Z</time>
      </trkpt>
      <trkpt lat="45.94486" lon="4.73234">
        <ele>175</ele>
        <time>2018-01-31T11:22:27Z</time>
      </trkpt>
      <trkpt lat="45.94483" lon="4.73223">
        <ele>175</ele>
        <time>2018-01-31T11:22:28Z</time>
      </trkpt>
      <trkpt lat="45.94481" lon="4.73212">
        <ele>175</ele>
        <time>2018-01-31T11:22:29Z</time>
      </trkpt>
      <trkpt lat="45.94479" lon="4.73201">
        <ele>174</ele>
        <time>2018-01-31T11:22:30Z</time>
      </trkpt>
      <trkpt lat="45.94477" lon="4.73191">
        <ele>174</ele>
        <time>2018-01-31T11:22:31Z</time>
      </trkpt>
      <trkpt lat="45.94477" lon="4.73182">
        <ele>174</ele>
        <time>2018-01-31T11:22:32Z</time>
      </trkpt>
      <trkpt lat="45.94475" lon="4.73171">
        <ele>174</ele>
        <time>2018-01-31T11:22:33Z</time>
      </trkpt>
      <trkpt lat="45.94473" lon="4.73162">
        <ele>173</ele>
        <time>2018-01-31T11:22:34Z</time>
      </trkpt>
      <trkpt lat="45.94474" lon="4.73153">
        <ele>172</ele>
        <time>2018-01-31T11:22:35Z</time>
      </trkpt>
      <trkpt lat="45.94472" lon="4.73144">
        <ele>172</ele>
        <time>2018-01-31T11:22:36Z</time>
      </trkpt>
      <trkpt lat="45.94472" lon="4.73135">
        <ele>172</ele>
        <time>2018-01-31T11:22:37Z</time>
      </trkpt>
      <trkpt lat="45.94471" lon="4.73125">
        <ele>172</ele>
        <time>2018-01-31T11:22:38Z</time>
      </trkpt>
      <trkpt lat="45.9447" lon="4.73116">
        <ele>172</ele>
        <time>2018-01-31T11:22:39Z</time>
      </trkpt>
      <trkpt lat="45.94469" lon="4.73106">
        <ele>172</ele>
        <time>2018-01-31T11:22:40Z</time>
      </trkpt>
      <trkpt lat="45.94468" lon="4.73097">
        <ele>172</ele>
        <time>2018-01-31T11:22:41Z</time>
      </trkpt>
      <trkpt lat="45.94466" lon="4.73089">
        <ele>171</ele>
        <time>2018-01-31T11:22:42Z</time>
      </trkpt>
      <trkpt lat="45.94465" lon="4.73082">
        <ele>170</ele>
        <time>2018-01-31T11:22:43Z</time>
      </trkpt>
      <trkpt lat="45.94464" lon="4.73073">
        <ele>170</ele>
        <time>2018-01-31T11:22:44Z</time>
      </trkpt>
      <trkpt lat="45.94462" lon="4.73065">
        <ele>170</ele>
        <time>2018-01-31T11:22:45Z</time>
      </trkpt>
      <trkpt lat="45.9446" lon="4.73057">
        <ele>170</ele>
        <time>2018-01-31T11:22:46Z</time>
      </trkpt>
      <trkpt lat="45.94459" lon="4.73049">
        <ele>170</ele>
        <time>2018-01-31T11:22:47Z</time>
      </trkpt>
      <trkpt lat="45.94459" lon="4.73042">
        <ele>170</ele>
        <time>2018-01-31T11:22:48Z</time>
      </trkpt>
      <trkpt lat="45.94458" lon="4.73034">
        <ele>169</ele>
        <time>2018-01-31T11:22:49Z</time>
      </trkpt>
      <trkpt lat="45.94457" lon="4.73027">
        <ele>169</ele>
        <time>2018-01-31T11:22:50Z</time>
      </trkpt>
      <trkpt lat="45.94456" lon="4.73021">
        <ele>169</ele>
        <time>2018-01-31T11:22:51Z</time>
      </trkpt>
      <trkpt lat="45.94456" lon="4.73014">
        <ele>169</ele>
        <time>2018-01-31T11:22:52Z</time>
      </trkpt>
      <trkpt lat="45.94455" lon="4.73008">
        <ele>169</ele>
        <time>2018-01-31T11:22:53Z</time>
      </trkpt>
      <trkpt lat="45.94455" lon="4.73001">
        <ele>169</ele>
        <time>2018-01-31T11:22:54Z</time>
      </trkpt>
      <trkpt lat="45.94454" lon="4.72995">
        <ele>168</ele>
        <time>2018-01-31T11:22:55Z</time>
      </trkpt>
      <trkpt lat="45.94454" lon="4.72988">
        <ele>167</ele>
        <time>2018-01-31T11:22:56Z</time>
      </trkpt>
      <trkpt lat="45.94452" lon="4.72982">
        <ele>167</ele>
        <time>2018-01-31T11:22:57Z</time>
      </trkpt>
      <trkpt lat="45.94449" lon="4.7297">
        <ele>167</ele>
        <time>2018-01-31T11:22:59Z</time>
      </trkpt>
      <trkpt lat="45.94447" lon="4.72964">
        <ele>167</ele>
        <time>2018-01-31T11:23:00Z</time>
      </trkpt>
      <trkpt lat="45.94447" lon="4.72957">
        <ele>167</ele>
        <time>2018-01-31T11:23:01Z</time>
      </trkpt>
      <trkpt lat="45.94445" lon="4.7295">
        <ele>167</ele>
        <time>2018-01-31T11:23:02Z</time>
      </trkpt>
      <trkpt lat="45.94444" lon="4.72944">
        <ele>167</ele>
        <time>2018-01-31T11:23:03Z</time>
      </trkpt>
      <trkpt lat="45.94444" lon="4.72937">
        <ele>167</ele>
        <time>2018-01-31T11:23:04Z</time>
      </trkpt>
      <trkpt lat="45.94443" lon="4.72925">
        <ele>167</ele>
        <time>2018-01-31T11:23:06Z</time>
      </trkpt>
      <trkpt lat="45.94442" lon="4.72919">
        <ele>167</ele>
        <time>2018-01-31T11:23:07Z</time>
      </trkpt>
      <trkpt lat="45.9444" lon="4.72907">
        <ele>166</ele>
        <time>2018-01-31T11:23:09Z</time>
      </trkpt>
      <trkpt lat="45.94439" lon="4.72902">
        <ele>166</ele>
        <time>2018-01-31T11:23:10Z</time>
      </trkpt>
      <trkpt lat="45.94438" lon="4.7289">
        <ele>166</ele>
        <time>2018-01-31T11:23:12Z</time>
      </trkpt>
      <trkpt lat="45.94437" lon="4.72885">
        <ele>166</ele>
        <time>2018-01-31T11:23:13Z</time>
      </trkpt>
      <trkpt lat="45.94436" lon="4.72875">
        <ele>166</ele>
        <time>2018-01-31T11:23:15Z</time>
      </trkpt>
      <trkpt lat="45.94435" lon="4.72869">
        <ele>166</ele>
        <time>2018-01-31T11:23:16Z</time>
      </trkpt>
      <trkpt lat="45.94433" lon="4.72858">
        <ele>166</ele>
        <time>2018-01-31T11:23:18Z</time>
      </trkpt>
      <trkpt lat="45.94432" lon="4.72853">
        <ele>166</ele>
        <time>2018-01-31T11:23:19Z</time>
      </trkpt>
      <trkpt lat="45.9443" lon="4.7284">
        <ele>166</ele>
        <time>2018-01-31T11:23:21Z</time>
      </trkpt>
      <trkpt lat="45.94428" lon="4.72834">
        <ele>166</ele>
        <time>2018-01-31T11:23:22Z</time>
      </trkpt>
      <trkpt lat="45.94426" lon="4.72827">
        <ele>167</ele>
        <time>2018-01-31T11:23:23Z</time>
      </trkpt>
      <trkpt lat="45.94424" lon="4.7282">
        <ele>167</ele>
        <time>2018-01-31T11:23:24Z</time>
      </trkpt>
      <trkpt lat="45.94423" lon="4.72813">
        <ele>167</ele>
        <time>2018-01-31T11:23:25Z</time>
      </trkpt>
      <trkpt lat="45.94422" lon="4.72805">
        <ele>167</ele>
        <time>2018-01-31T11:23:26Z</time>
      </trkpt>
      <trkpt lat="45.94421" lon="4.72798">
        <ele>167</ele>
        <time>2018-01-31T11:23:27Z</time>
      </trkpt>
      <trkpt lat="45.9442" lon="4.7279">
        <ele>168</ele>
        <time>2018-01-31T11:23:28Z</time>
      </trkpt>
      <trkpt lat="45.94419" lon="4.72783">
        <ele>168</ele>
        <time>2018-01-31T11:23:29Z</time>
      </trkpt>
      <trkpt lat="45.94419" lon="4.72775">
        <ele>169</ele>
        <time>2018-01-31T11:23:30Z</time>
      </trkpt>
      <trkpt lat="45.94419" lon="4.72768">
        <ele>169</ele>
        <time>2018-01-31T11:23:31Z</time>
      </trkpt>
      <trkpt lat="45.94417" lon="4.72759">
        <ele>170</ele>
        <time>2018-01-31T11:23:32Z</time>
      </trkpt>
      <trkpt lat="45.94416" lon="4.72751">
        <ele>171</ele>
        <time>2018-01-31T11:23:33Z</time>
      </trkpt>
      <trkpt lat="45.94415" lon="4.72742">
        <ele>171</ele>
        <time>2018-01-31T11:23:34Z</time>
      </trkpt>
      <trkpt lat="45.94414" lon="4.72733">
        <ele>172</ele>
        <time>2018-01-31T11:23:35Z</time>
      </trkpt>
      <trkpt lat="45.94413" lon="4.72724">
        <ele>172</ele>
        <time>2018-01-31T11:23:36Z</time>
      </trkpt>
      <trkpt lat="45.94411" lon="4.72715">
        <ele>172</ele>
        <time>2018-01-31T11:23:37Z</time>
      </trkpt>
      <trkpt lat="45.9441" lon="4.72708">
        <ele>172</ele>
        <time>2018-01-31T11:23:38Z</time>
      </trkpt>
      <trkpt lat="45.9441" lon="4.72699">
        <ele>172</ele>
        <time>2018-01-31T11:23:39Z</time>
      </trkpt>
      <trkpt lat="45.94409" lon="4.72691">
        <ele>173</ele>
        <time>2018-01-31T11:23:40Z</time>
      </trkpt>
      <trkpt lat="45.94407" lon="4.72683">
        <ele>173</ele>
        <time>2018-01-31T11:23:41Z</time>
      </trkpt>
      <trkpt lat="45.94406" lon="4.72676">
        <ele>173</ele>
        <time>2018-01-31T11:23:42Z</time>
      </trkpt>
      <trkpt lat="45.94405" lon="4.72669">
        <ele>173</ele>
        <time>2018-01-31T11:23:43Z</time>
      </trkpt>
      <trkpt lat="45.94404" lon="4.7266">
        <ele>174</ele>
        <time>2018-01-31T11:23:44Z</time>
      </trkpt>
      <trkpt lat="45.94403" lon="4.7265">
        <ele>174</ele>
        <time>2018-01-31T11:23:45Z</time>
      </trkpt>
      <trkpt lat="45.94402" lon="4.72643">
        <ele>174</ele>
        <time>2018-01-31T11:23:46Z</time>
      </trkpt>
      <trkpt lat="45.94401" lon="4.72635">
        <ele>174</ele>
        <time>2018-01-31T11:23:47Z</time>
      </trkpt>
      <trkpt lat="45.944" lon="4.72627">
        <ele>174</ele>
        <time>2018-01-31T11:23:48Z</time>
      </trkpt>
      <trkpt lat="45.94399" lon="4.72618">
        <ele>173</ele>
        <time>2018-01-31T11:23:49Z</time>
      </trkpt>
      <trkpt lat="45.944" lon="4.7261">
        <ele>173</ele>
        <time>2018-01-31T11:23:50Z</time>
      </trkpt>
      <trkpt lat="45.94399" lon="4.72601">
        <ele>173</ele>
        <time>2018-01-31T11:23:51Z</time>
      </trkpt>
      <trkpt lat="45.94399" lon="4.72591">
        <ele>173</ele>
        <time>2018-01-31T11:23:52Z</time>
      </trkpt>
      <trkpt lat="45.94397" lon="4.72582">
        <ele>173</ele>
        <time>2018-01-31T11:23:53Z</time>
      </trkpt>
      <trkpt lat="45.94396" lon="4.72573">
        <ele>173</ele>
        <time>2018-01-31T11:23:54Z</time>
      </trkpt>
      <trkpt lat="45.94395" lon="4.72565">
        <ele>173</ele>
        <time>2018-01-31T11:23:55Z</time>
      </trkpt>
      <trkpt lat="45.94394" lon="4.72556">
        <ele>173</ele>
        <time>2018-01-31T11:23:56Z</time>
      </trkpt>
      <trkpt lat="45.94392" lon="4.72547">
        <ele>173</ele>
        <time>2018-01-31T11:23:57Z</time>
      </trkpt>
      <trkpt lat="45.9439" lon="4.72537">
        <ele>174</ele>
        <time>2018-01-31T11:23:58Z</time>
      </trkpt>
      <trkpt lat="45.94389" lon="4.72529">
        <ele>174</ele>
        <time>2018-01-31T11:23:59Z</time>
      </trkpt>
      <trkpt lat="45.94388" lon="4.72522">
        <ele>174</ele>
        <time>2018-01-31T11:24:00Z</time>
      </trkpt>
      <trkpt lat="45.94387" lon="4.72514">
        <ele>174</ele>
        <time>2018-01-31T11:24:01Z</time>
      </trkpt>
      <trkpt lat="45.94386" lon="4.72507">
        <ele>174</ele>
        <time>2018-01-31T11:24:02Z</time>
      </trkpt>
      <trkpt lat="45.94383" lon="4.725">
        <ele>174</ele>
        <time>2018-01-31T11:24:03Z</time>
      </trkpt>
      <trkpt lat="45.9438" lon="4.72493">
        <ele>173</ele>
        <time>2018-01-31T11:24:04Z</time>
      </trkpt>
      <trkpt lat="45.94378" lon="4.72486">
        <ele>173</ele>
        <time>2018-01-31T11:24:05Z</time>
      </trkpt>
      <trkpt lat="45.94375" lon="4.72478">
        <ele>173</ele>
        <time>2018-01-31T11:24:06Z</time>
      </trkpt>
      <trkpt lat="45.94372" lon="4.72471">
        <ele>173</ele>
        <time>2018-01-31T11:24:07Z</time>
      </trkpt>
      <trkpt lat="45.94369" lon="4.72464">
        <ele>173</ele>
        <time>2018-01-31T11:24:08Z</time>
      </trkpt>
      <trkpt lat="45.94367" lon="4.72458">
        <ele>173</ele>
        <time>2018-01-31T11:24:09Z</time>
      </trkpt>
      <trkpt lat="45.94365" lon="4.72453">
        <ele>173</ele>
        <time>2018-01-31T11:24:10Z</time>
      </trkpt>
      <trkpt lat="45.94362" lon="4.72446">
        <ele>173</ele>
        <time>2018-01-31T11:24:11Z</time>
      </trkpt>
      <trkpt lat="45.94358" lon="4.7244">
        <ele>173</ele>
        <time>2018-01-31T11:24:12Z</time>
      </trkpt>
      <trkpt lat="45.94355" lon="4.72435">
        <ele>173</ele>
        <time>2018-01-31T11:24:13Z</time>
      </trkpt>
      <trkpt lat="45.94353" lon="4.72429">
        <ele>173</ele>
        <time>2018-01-31T11:24:14Z</time>
      </trkpt>
      <trkpt lat="45.94351" lon="4.72423">
        <ele>173</ele>
        <time>2018-01-31T11:24:15Z</time>
      </trkpt>
      <trkpt lat="45.94347" lon="4.72416">
        <ele>173</ele>
        <time>2018-01-31T11:24:16Z</time>
      </trkpt>
      <trkpt lat="45.94343" lon="4.72405">
        <ele>173</ele>
        <time>2018-01-31T11:24:18Z</time>
      </trkpt>
      <trkpt lat="45.9434" lon="4.72399">
        <ele>172</ele>
        <time>2018-01-31T11:24:19Z</time>
      </trkpt>
      <trkpt lat="45.94338" lon="4.72393">
        <ele>172</ele>
        <time>2018-01-31T11:24:20Z</time>
      </trkpt>
      <trkpt lat="45.94334" lon="4.72387">
        <ele>172</ele>
        <time>2018-01-31T11:24:21Z</time>
      </trkpt>
      <trkpt lat="45.94332" lon="4.72381">
        <ele>172</ele>
        <time>2018-01-31T11:24:22Z</time>
      </trkpt>
      <trkpt lat="45.94329" lon="4.72375">
        <ele>172</ele>
        <time>2018-01-31T11:24:23Z</time>
      </trkpt>
      <trkpt lat="45.94327" lon="4.72369">
        <ele>172</ele>
        <time>2018-01-31T11:24:24Z</time>
      </trkpt>
      <trkpt lat="45.94324" lon="4.72363">
        <ele>172</ele>
        <time>2018-01-31T11:24:25Z</time>
      </trkpt>
      <trkpt lat="45.94322" lon="4.72357">
        <ele>172</ele>
        <time>2018-01-31T11:24:26Z</time>
      </trkpt>
      <trkpt lat="45.94319" lon="4.72351">
        <ele>172</ele>
        <time>2018-01-31T11:24:27Z</time>
      </trkpt>
      <trkpt lat="45.94316" lon="4.72345">
        <ele>172</ele>
        <time>2018-01-31T11:24:28Z</time>
      </trkpt>
      <trkpt lat="45.94314" lon="4.72339">
        <ele>172</ele>
        <time>2018-01-31T11:24:29Z</time>
      </trkpt>
      <trkpt lat="45.94313" lon="4.72333">
        <ele>172</ele>
        <time>2018-01-31T11:24:30Z</time>
      </trkpt>
      <trkpt lat="45.94309" lon="4.72327">
        <ele>172</ele>
        <time>2018-01-31T11:24:31Z</time>
      </trkpt>
      <trkpt lat="45.94306" lon="4.72321">
        <ele>171</ele>
        <time>2018-01-31T11:24:32Z</time>
      </trkpt>
      <trkpt lat="45.94304" lon="4.72314">
        <ele>171</ele>
        <time>2018-01-31T11:24:33Z</time>
      </trkpt>
      <trkpt lat="45.94301" lon="4.72308">
        <ele>171</ele>
        <time>2018-01-31T11:24:34Z</time>
      </trkpt>
      <trkpt lat="45.94298" lon="4.72301">
        <ele>171</ele>
        <time>2018-01-31T11:24:35Z</time>
      </trkpt>
      <trkpt lat="45.94295" lon="4.72295">
        <ele>171</ele>
        <time>2018-01-31T11:24:36Z</time>
      </trkpt>
      <trkpt lat="45.94292" lon="4.72288">
        <ele>171</ele>
        <time>2018-01-31T11:24:37Z</time>
      </trkpt>
      <trkpt lat="45.94288" lon="4.72282">
        <ele>171</ele>
        <time>2018-01-31T11:24:38Z</time>
      </trkpt>
      <trkpt lat="45.94285" lon="4.72276">
        <ele>171</ele>
        <time>2018-01-31T11:24:39Z</time>
      </trkpt>
      <trkpt lat="45.94281" lon="4.72267">
        <ele>171</ele>
        <time>2018-01-31T11:24:41Z</time>
      </trkpt>
      <trkpt lat="45.94279" lon="4.72264">
        <ele>171</ele>
        <time>2018-01-31T11:24:42Z</time>
      </trkpt>
      <trkpt lat="45.94272" lon="4.72261">
        <ele>171</ele>
        <time>2018-01-31T11:24:44Z</time>
      </trkpt>
      <trkpt lat="45.94269" lon="4.72263">
        <ele>171</ele>
        <time>2018-01-31T11:24:45Z</time>
      </trkpt>
      <trkpt lat="45.94261" lon="4.7227">
        <ele>171</ele>
        <time>2018-01-31T11:24:47Z</time>
      </trkpt>
      <trkpt lat="45.94256" lon="4.72271">
        <ele>171</ele>
        <time>2018-01-31T11:24:48Z</time>
      </trkpt>
      <trkpt lat="45.94253" lon="4.72274">
        <ele>171</ele>
        <time>2018-01-31T11:24:49Z</time>
      </trkpt>
      <trkpt lat="45.94248" lon="4.72276">
        <ele>171</ele>
        <time>2018-01-31T11:24:50Z</time>
      </trkpt>
      <trkpt lat="45.94244" lon="4.7228">
        <ele>171</ele>
        <time>2018-01-31T11:24:51Z</time>
      </trkpt>
      <trkpt lat="45.9424" lon="4.72282">
        <ele>171</ele>
        <time>2018-01-31T11:24:52Z</time>
      </trkpt>
      <trkpt lat="45.94235" lon="4.72283">
        <ele>171</ele>
        <time>2018-01-31T11:24:53Z</time>
      </trkpt>
      <trkpt lat="45.9423" lon="4.72285">
        <ele>171</ele>
        <time>2018-01-31T11:24:54Z</time>
      </trkpt>
      <trkpt lat="45.94224" lon="4.72286">
        <ele>171</ele>
        <time>2018-01-31T11:24:55Z</time>
      </trkpt>
      <trkpt lat="45.94219" lon="4.72285">
        <ele>171</ele>
        <time>2018-01-31T11:24:56Z</time>
      </trkpt>
      <trkpt lat="45.94214" lon="4.72286">
        <ele>171</ele>
        <time>2018-01-31T11:24:57Z</time>
      </trkpt>
      <trkpt lat="45.94209" lon="4.72286">
        <ele>171</ele>
        <time>2018-01-31T11:24:58Z</time>
      </trkpt>
      <trkpt lat="45.94203" lon="4.72287">
        <ele>171</ele>
        <time>2018-01-31T11:24:59Z</time>
      </trkpt>
      <trkpt lat="45.94198" lon="4.72286">
        <ele>171</ele>
        <time>2018-01-31T11:25:00Z</time>
      </trkpt>
      <trkpt lat="45.94194" lon="4.72286">
        <ele>171</ele>
        <time>2018-01-31T11:25:01Z</time>
      </trkpt>
      <trkpt lat="45.94189" lon="4.72286">
        <ele>171</ele>
        <time>2018-01-31T11:25:02Z</time>
      </trkpt>
      <trkpt lat="45.94183" lon="4.72285">
        <ele>171</ele>
        <time>2018-01-31T11:25:03Z</time>
      </trkpt>
      <trkpt lat="45.94177" lon="4.72285">
        <ele>171</ele>
        <time>2018-01-31T11:25:04Z</time>
      </trkpt>
      <trkpt lat="45.94171" lon="4.72284">
        <ele>171</ele>
        <time>2018-01-31T11:25:05Z</time>
      </trkpt>
      <trkpt lat="45.94166" lon="4.72283">
        <ele>171</ele>
        <time>2018-01-31T11:25:06Z</time>
      </trkpt>
      <trkpt lat="45.94161" lon="4.72282">
        <ele>171</ele>
        <time>2018-01-31T11:25:07Z</time>
      </trkpt>
      <trkpt lat="45.94156" lon="4.72281">
        <ele>171</ele>
        <time>2018-01-31T11:25:08Z</time>
      </trkpt>
      <trkpt lat="45.94151" lon="4.72279">
        <ele>171</ele>
        <time>2018-01-31T11:25:09Z</time>
      </trkpt>
      <trkpt lat="45.94146" lon="4.72278">
        <ele>171</ele>
        <time>2018-01-31T11:25:10Z</time>
      </trkpt>
      <trkpt lat="45.94138" lon="4.72273">
        <ele>171</ele>
        <time>2018-01-31T11:25:12Z</time>
      </trkpt>
      <trkpt lat="45.94133" lon="4.7227">
        <ele>171</ele>
        <time>2018-01-31T11:25:13Z</time>
      </trkpt>
      <trkpt lat="45.94128" lon="4.72267">
        <ele>171</ele>
        <time>2018-01-31T11:25:14Z</time>
      </trkpt>
      <trkpt lat="45.94123" lon="4.72265">
        <ele>171</ele>
        <time>2018-01-31T11:25:15Z</time>
      </trkpt>
      <trkpt lat="45.94117" lon="4.72264">
        <ele>171</ele>
        <time>2018-01-31T11:25:16Z</time>
      </trkpt>
      <trkpt lat="45.94111" lon="4.72263">
        <ele>171</ele>
        <time>2018-01-31T11:25:17Z</time>
      </trkpt>
      <trkpt lat="45.94107" lon="4.72262">
        <ele>171</ele>
        <time>2018-01-31T11:25:18Z</time>
      </trkpt>
      <trkpt lat="45.94101" lon="4.72262">
        <ele>171</ele>
        <time>2018-01-31T11:25:19Z</time>
      </trkpt>
      <trkpt lat="45.94096" lon="4.72263">
        <ele>171</ele>
        <time>2018-01-31T11:25:20Z</time>
      </trkpt>
      <trkpt lat="45.94091" lon="4.72264">
        <ele>171</ele>
        <time>2018-01-31T11:25:21Z</time>
      </trkpt>
      <trkpt lat="45.94085" lon="4.72267">
        <ele>171</ele>
        <time>2018-01-31T11:25:22Z</time>
      </trkpt>
      <trkpt lat="45.94079" lon="4.7227">
        <ele>171</ele>
        <time>2018-01-31T11:25:23Z</time>
      </trkpt>
      <trkpt lat="45.94074" lon="4.72274">
        <ele>171</ele>
        <time>2018-01-31T11:25:24Z</time>
      </trkpt>
      <trkpt lat="45.94069" lon="4.72278">
        <ele>171</ele>
        <time>2018-01-31T11:25:25Z</time>
      </trkpt>
      <trkpt lat="45.94064" lon="4.72284">
        <ele>171</ele>
        <time>2018-01-31T11:25:26Z</time>
      </trkpt>
      <trkpt lat="45.94059" lon="4.72291">
        <ele>171</ele>
        <time>2018-01-31T11:25:27Z</time>
      </trkpt>
      <trkpt lat="45.94054" lon="4.72295">
        <ele>171</ele>
        <time>2018-01-31T11:25:28Z</time>
      </trkpt>
      <trkpt lat="45.9405" lon="4.723">
        <ele>171</ele>
        <time>2018-01-31T11:25:29Z</time>
      </trkpt>
      <trkpt lat="45.94046" lon="4.72305">
        <ele>171</ele>
        <time>2018-01-31T11:25:30Z</time>
      </trkpt>
      <trkpt lat="45.94042" lon="4.7231">
        <ele>171</ele>
        <time>2018-01-31T11:25:31Z</time>
      </trkpt>
      <trkpt lat="45.94038" lon="4.72315">
        <ele>171</ele>
        <time>2018-01-31T11:25:32Z</time>
      </trkpt>
      <trkpt lat="45.94034" lon="4.72321">
        <ele>171</ele>
        <time>2018-01-31T11:25:33Z</time>
      </trkpt>
      <trkpt lat="45.94029" lon="4.72326">
        <ele>171</ele>
        <time>2018-01-31T11:25:34Z</time>
      </trkpt>
      <trkpt lat="45.94026" lon="4.72331">
        <ele>171</ele>
        <time>2018-01-31T11:25:35Z</time>
      </trkpt>
      <trkpt lat="45.94022" lon="4.72336">
        <ele>171</ele>
        <time>2018-01-31T11:25:36Z</time>
      </trkpt>
      <trkpt lat="45.94018" lon="4.7234">
        <ele>171</ele>
        <time>2018-01-31T11:25:37Z</time>
      </trkpt>
      <trkpt lat="45.94015" lon="4.72346">
        <ele>171</ele>
        <time>2018-01-31T11:25:38Z</time>
      </trkpt>
      <trkpt lat="45.9401" lon="4.72351">
        <ele>171</ele>
        <time>2018-01-31T11:25:39Z</time>
      </trkpt>
      <trkpt lat="45.94006" lon="4.72357">
        <ele>171</ele>
        <time>2018-01-31T11:25:40Z</time>
      </trkpt>
      <trkpt lat="45.94001" lon="4.72362">
        <ele>171</ele>
        <time>2018-01-31T11:25:41Z</time>
      </trkpt>
      <trkpt lat="45.93997" lon="4.72368">
        <ele>171</ele>
        <time>2018-01-31T11:25:42Z</time>
      </trkpt>
      <trkpt lat="45.93993" lon="4.72374">
        <ele>171</ele>
        <time>2018-01-31T11:25:43Z</time>
      </trkpt>
      <trkpt lat="45.93988" lon="4.72379">
        <ele>171</ele>
        <time>2018-01-31T11:25:44Z</time>
      </trkpt>
      <trkpt lat="45.93984" lon="4.72384">
        <ele>171</ele>
        <time>2018-01-31T11:25:45Z</time>
      </trkpt>
      <trkpt lat="45.9398" lon="4.72387">
        <ele>171</ele>
        <time>2018-01-31T11:25:46Z</time>
      </trkpt>
      <trkpt lat="45.93976" lon="4.72392">
        <ele>171</ele>
        <time>2018-01-31T11:25:47Z</time>
      </trkpt>
      <trkpt lat="45.93972" lon="4.72398">
        <ele>171</ele>
        <time>2018-01-31T11:25:48Z</time>
      </trkpt>
      <trkpt lat="45.93968" lon="4.72403">
        <ele>171</ele>
        <time>2018-01-31T11:25:49Z</time>
      </trkpt>
      <trkpt lat="45.93964" lon="4.72408">
        <ele>171</ele>
        <time>2018-01-31T11:25:50Z</time>
      </trkpt>
      <trkpt lat="45.93961" lon="4.72414">
        <ele>171</ele>
        <time>2018-01-31T11:25:51Z</time>
      </trkpt>
      <trkpt lat="45.93956" lon="4.72418">
        <ele>171</ele>
        <time>2018-01-31T11:25:52Z</time>
      </trkpt>
      <trkpt lat="45.93952" lon="4.72423">
        <ele>171</ele>
        <time>2018-01-31T11:25:53Z</time>
      </trkpt>
      <trkpt lat="45.93948" lon="4.72428">
        <ele>171</ele>
        <time>2018-01-31T11:25:54Z</time>
      </trkpt>
      <trkpt lat="45.93945" lon="4.72434">
        <ele>171</ele>
        <time>2018-01-31T11:25:55Z</time>
      </trkpt>
      <trkpt lat="45.93941" lon="4.72439">
        <ele>171</ele>
        <time>2018-01-31T11:25:56Z</time>
      </trkpt>
      <trkpt lat="45.93937" lon="4.72444">
        <ele>171</ele>
        <time>2018-01-31T11:25:57Z</time>
      </trkpt>
      <trkpt lat="45.93933" lon="4.72449">
        <ele>171</ele>
        <time>2018-01-31T11:25:58Z</time>
      </trkpt>
      <trkpt lat="45.93929" lon="4.72454">
        <ele>171</ele>
        <time>2018-01-31T11:25:59Z</time>
      </trkpt>
      <trkpt lat="45.93925" lon="4.72459">
        <ele>171</ele>
        <time>2018-01-31T11:26:00Z</time>
      </trkpt>
      <trkpt lat="45.93921" lon="4.72464">
        <ele>171</ele>
        <time>2018-01-31T11:26:01Z</time>
      </trkpt>
      <trkpt lat="45.93917" lon="4.72468">
        <ele>171</ele>
        <time>2018-01-31T11:26:02Z</time>
      </trkpt>
      <trkpt lat="45.93913" lon="4.72472">
        <ele>172</ele>
        <time>2018-01-31T11:26:03Z</time>
      </trkpt>
      <trkpt lat="45.93909" lon="4.72476">
        <ele>172</ele>
        <time>2018-01-31T11:26:04Z</time>
      </trkpt>
      <trkpt lat="45.93906" lon="4.72481">
        <ele>172</ele>
        <time>2018-01-31T11:26:05Z</time>
      </trkpt>
      <trkpt lat="45.93899" lon="4.72488">
        <ele>172</ele>
        <time>2018-01-31T11:26:07Z</time>
      </trkpt>
      <trkpt lat="45.93896" lon="4.72493">
        <ele>172</ele>
        <time>2018-01-31T11:26:08Z</time>
      </trkpt>
      <trkpt lat="45.93892" lon="4.72498">
        <ele>172</ele>
        <time>2018-01-31T11:26:09Z</time>
      </trkpt>
      <trkpt lat="45.93889" lon="4.72504">
        <ele>173</ele>
        <time>2018-01-31T11:26:10Z</time>
      </trkpt>
      <trkpt lat="45.93886" lon="4.72508">
        <ele>173</ele>
        <time>2018-01-31T11:26:11Z</time>
      </trkpt>
      <trkpt lat="45.93882" lon="4.72513">
        <ele>173</ele>
        <time>2018-01-31T11:26:12Z</time>
      </trkpt>
      <trkpt lat="45.93877" lon="4.72515">
        <ele>173</ele>
        <time>2018-01-31T11:26:13Z</time>
      </trkpt>
      <trkpt lat="45.93873" lon="4.72513">
        <ele>173</ele>
        <time>2018-01-31T11:26:14Z</time>
      </trkpt>
      <trkpt lat="45.93868" lon="4.72509">
        <ele>173</ele>
        <time>2018-01-31T11:26:15Z</time>
      </trkpt>
      <trkpt lat="45.93864" lon="4.72505">
        <ele>173</ele>
        <time>2018-01-31T11:26:16Z</time>
      </trkpt>
      <trkpt lat="45.93828" lon="4.72471">
        <ele>172</ele>
        <time>2018-01-31T11:26:24Z</time>
      </trkpt>
      <trkpt lat="45.93823" lon="4.72468">
        <ele>172</ele>
        <time>2018-01-31T11:26:25Z</time>
      </trkpt>
      <trkpt lat="45.93818" lon="4.72464">
        <ele>172</ele>
        <time>2018-01-31T11:26:26Z</time>
      </trkpt>
      <trkpt lat="45.93813" lon="4.72454">
        <ele>172</ele>
        <time>2018-01-31T11:26:29Z</time>
      </trkpt>
      <trkpt lat="45.93807" lon="4.72451">
        <ele>172</ele>
        <time>2018-01-31T11:26:30Z</time>
      </trkpt>
      <trkpt lat="45.93804" lon="4.72448">
        <ele>172</ele>
        <time>2018-01-31T11:26:31Z</time>
      </trkpt>
      <trkpt lat="45.93799" lon="4.72443">
        <ele>172</ele>
        <time>2018-01-31T11:26:32Z</time>
      </trkpt>
      <trkpt lat="45.93795" lon="4.72439">
        <ele>172</ele>
        <time>2018-01-31T11:26:33Z</time>
      </trkpt>
      <trkpt lat="45.9379" lon="4.72434">
        <ele>172</ele>
        <time>2018-01-31T11:26:34Z</time>
      </trkpt>
      <trkpt lat="45.93786" lon="4.72431">
        <ele>172</ele>
        <time>2018-01-31T11:26:35Z</time>
      </trkpt>
      <trkpt lat="45.93781" lon="4.72427">
        <ele>172</ele>
        <time>2018-01-31T11:26:36Z</time>
      </trkpt>
      <trkpt lat="45.93777" lon="4.72422">
        <ele>171</ele>
        <time>2018-01-31T11:26:37Z</time>
      </trkpt>
      <trkpt lat="45.93773" lon="4.72417">
        <ele>171</ele>
        <time>2018-01-31T11:26:38Z</time>
      </trkpt>
      <trkpt lat="45.93768" lon="4.72413">
        <ele>171</ele>
        <time>2018-01-31T11:26:39Z</time>
      </trkpt>
      <trkpt lat="45.93764" lon="4.72409">
        <ele>171</ele>
        <time>2018-01-31T11:26:40Z</time>
      </trkpt>
      <trkpt lat="45.9376" lon="4.72405">
        <ele>171</ele>
        <time>2018-01-31T11:26:41Z</time>
      </trkpt>
      <trkpt lat="45.93752" lon="4.72401">
        <ele>171</ele>
        <time>2018-01-31T11:26:42Z</time>
      </trkpt>
      <trkpt lat="45.93748" lon="4.72398">
        <ele>171</ele>
        <time>2018-01-31T11:26:43Z</time>
      </trkpt>
      <trkpt lat="45.93743" lon="4.72393">
        <ele>171</ele>
        <time>2018-01-31T11:26:44Z</time>
      </trkpt>
      <trkpt lat="45.93739" lon="4.72389">
        <ele>171</ele>
        <time>2018-01-31T11:26:45Z</time>
      </trkpt>
      <trkpt lat="45.93735" lon="4.72386">
        <ele>171</ele>
        <time>2018-01-31T11:26:46Z</time>
      </trkpt>
      <trkpt lat="45.93731" lon="4.72381">
        <ele>171</ele>
        <time>2018-01-31T11:26:47Z</time>
      </trkpt>
      <trkpt lat="45.93726" lon="4.72377">
        <ele>171</ele>
        <time>2018-01-31T11:26:48Z</time>
      </trkpt>
      <trkpt lat="45.9372" lon="4.72373">
        <ele>172</ele>
        <time>2018-01-31T11:26:49Z</time>
      </trkpt>
      <trkpt lat="45.93716" lon="4.72368">
        <ele>172</ele>
        <time>2018-01-31T11:26:50Z</time>
      </trkpt>
      <trkpt lat="45.93713" lon="4.72365">
        <ele>172</ele>
        <time>2018-01-31T11:26:51Z</time>
      </trkpt>
      <trkpt lat="45.93707" lon="4.72361">
        <ele>171</ele>
        <time>2018-01-31T11:26:52Z</time>
      </trkpt>
      <trkpt lat="45.93704" lon="4.72356">
        <ele>171</ele>
        <time>2018-01-31T11:26:53Z</time>
      </trkpt>
      <trkpt lat="45.937" lon="4.7235">
        <ele>171</ele>
        <time>2018-01-31T11:26:54Z</time>
      </trkpt>
      <trkpt lat="45.93692" lon="4.72347">
        <ele>171</ele>
        <time>2018-01-31T11:26:56Z</time>
      </trkpt>
      <trkpt lat="45.93688" lon="4.72343">
        <ele>171</ele>
        <time>2018-01-31T11:26:57Z</time>
      </trkpt>
      <trkpt lat="45.93682" lon="4.72338">
        <ele>171</ele>
        <time>2018-01-31T11:26:58Z</time>
      </trkpt>
      <trkpt lat="45.93677" lon="4.72336">
        <ele>171</ele>
        <time>2018-01-31T11:26:59Z</time>
      </trkpt>
      <trkpt lat="45.93673" lon="4.72331">
        <ele>171</ele>
        <time>2018-01-31T11:27:00Z</time>
      </trkpt>
      <trkpt lat="45.93669" lon="4.72327">
        <ele>171</ele>
        <time>2018-01-31T11:27:01Z</time>
      </trkpt>
      <trkpt lat="45.93663" lon="4.72318">
        <ele>172</ele>
        <time>2018-01-31T11:27:03Z</time>
      </trkpt>
      <trkpt lat="45.93658" lon="4.72313">
        <ele>172</ele>
        <time>2018-01-31T11:27:04Z</time>
      </trkpt>
      <trkpt lat="45.93651" lon="4.72305">
        <ele>172</ele>
        <time>2018-01-31T11:27:06Z</time>
      </trkpt>
      <trkpt lat="45.93647" lon="4.72301">
        <ele>172</ele>
        <time>2018-01-31T11:27:07Z</time>
      </trkpt>
      <trkpt lat="45.93641" lon="4.72293">
        <ele>172</ele>
        <time>2018-01-31T11:27:09Z</time>
      </trkpt>
      <trkpt lat="45.93638" lon="4.72289">
        <ele>172</ele>
        <time>2018-01-31T11:27:10Z</time>
      </trkpt>
      <trkpt lat="45.93634" lon="4.72285">
        <ele>172</ele>
        <time>2018-01-31T11:27:11Z</time>
      </trkpt>
      <trkpt lat="45.93628" lon="4.72281">
        <ele>172</ele>
        <time>2018-01-31T11:27:12Z</time>
      </trkpt>
      <trkpt lat="45.9362" lon="4.72275">
        <ele>172</ele>
        <time>2018-01-31T11:27:14Z</time>
      </trkpt>
      <trkpt lat="45.93618" lon="4.72271">
        <ele>172</ele>
        <time>2018-01-31T11:27:15Z</time>
      </trkpt>
      <trkpt lat="45.93613" lon="4.72268">
        <ele>172</ele>
        <time>2018-01-31T11:27:16Z</time>
      </trkpt>
      <trkpt lat="45.93609" lon="4.72264">
        <ele>172</ele>
        <time>2018-01-31T11:27:17Z</time>
      </trkpt>
      <trkpt lat="45.93602" lon="4.72261">
        <ele>173</ele>
        <time>2018-01-31T11:27:18Z</time>
      </trkpt>
      <trkpt lat="45.936" lon="4.72257">
        <ele>173</ele>
        <time>2018-01-31T11:27:19Z</time>
      </trkpt>
      <trkpt lat="45.93596" lon="4.72251">
        <ele>173</ele>
        <time>2018-01-31T11:27:21Z</time>
      </trkpt>
      <trkpt lat="45.93593" lon="4.72246">
        <ele>173</ele>
        <time>2018-01-31T11:27:22Z</time>
      </trkpt>
      <trkpt lat="45.93589" lon="4.72243">
        <ele>173</ele>
        <time>2018-01-31T11:27:23Z</time>
      </trkpt>
      <trkpt lat="45.93585" lon="4.72238">
        <ele>173</ele>
        <time>2018-01-31T11:27:24Z</time>
      </trkpt>
      <trkpt lat="45.93577" lon="4.72233">
        <ele>173</ele>
        <time>2018-01-31T11:27:26Z</time>
      </trkpt>
      <trkpt lat="45.93574" lon="4.72229">
        <ele>173</ele>
        <time>2018-01-31T11:27:27Z</time>
      </trkpt>
      <trkpt lat="45.93569" lon="4.72223">
        <ele>173</ele>
        <time>2018-01-31T11:27:29Z</time>
      </trkpt>
      <trkpt lat="45.93564" lon="4.72222">
        <ele>173</ele>
        <time>2018-01-31T11:27:30Z</time>
      </trkpt>
      <trkpt lat="45.93558" lon="4.72217">
        <ele>173</ele>
        <time>2018-01-31T11:27:34Z</time>
      </trkpt>
      <trkpt lat="45.93555" lon="4.72216">
        <ele>173</ele>
        <time>2018-01-31T11:27:35Z</time>
      </trkpt>
      <trkpt lat="45.93549" lon="4.7222">
        <ele>172</ele>
        <time>2018-01-31T11:27:37Z</time>
      </trkpt>
      <trkpt lat="45.93546" lon="4.72224">
        <ele>172</ele>
        <time>2018-01-31T11:27:38Z</time>
      </trkpt>
      <trkpt lat="45.93544" lon="4.72232">
        <ele>172</ele>
        <time>2018-01-31T11:27:40Z</time>
      </trkpt>
      <trkpt lat="45.93542" lon="4.72238">
        <ele>172</ele>
        <time>2018-01-31T11:27:41Z</time>
      </trkpt>
      <trkpt lat="45.9354" lon="4.72249">
        <ele>172</ele>
        <time>2018-01-31T11:27:43Z</time>
      </trkpt>
      <trkpt lat="45.93538" lon="4.72255">
        <ele>172</ele>
        <time>2018-01-31T11:27:44Z</time>
      </trkpt>
      <trkpt lat="45.93536" lon="4.72261">
        <ele>172</ele>
        <time>2018-01-31T11:27:45Z</time>
      </trkpt>
      <trkpt lat="45.93537" lon="4.72268">
        <ele>172</ele>
        <time>2018-01-31T11:27:46Z</time>
      </trkpt>
      <trkpt lat="45.93535" lon="4.72274">
        <ele>172</ele>
        <time>2018-01-31T11:27:47Z</time>
      </trkpt>
      <trkpt lat="45.93533" lon="4.72281">
        <ele>172</ele>
        <time>2018-01-31T11:27:48Z</time>
      </trkpt>
      <trkpt lat="45.93531" lon="4.72287">
        <ele>172</ele>
        <time>2018-01-31T11:27:49Z</time>
      </trkpt>
      <trkpt lat="45.93528" lon="4.72293">
        <ele>172</ele>
        <time>2018-01-31T11:27:50Z</time>
      </trkpt>
      <trkpt lat="45.93525" lon="4.72299">
        <ele>172</ele>
        <time>2018-01-31T11:27:51Z</time>
      </trkpt>
      <trkpt lat="45.93522" lon="4.72304">
        <ele>173</ele>
        <time>2018-01-31T11:27:52Z</time>
      </trkpt>
      <trkpt lat="45.93518" lon="4.7231">
        <ele>173</ele>
        <time>2018-01-31T11:27:53Z</time>
      </trkpt>
      <trkpt lat="45.93514" lon="4.72316">
        <ele>173</ele>
        <time>2018-01-31T11:27:54Z</time>
      </trkpt>
      <trkpt lat="45.9351" lon="4.72322">
        <ele>173</ele>
        <time>2018-01-31T11:27:55Z</time>
      </trkpt>
      <trkpt lat="45.93507" lon="4.72327">
        <ele>173</ele>
        <time>2018-01-31T11:27:56Z</time>
      </trkpt>
      <trkpt lat="45.93502" lon="4.72332">
        <ele>173</ele>
        <time>2018-01-31T11:27:57Z</time>
      </trkpt>
      <trkpt lat="45.93498" lon="4.72337">
        <ele>173</ele>
        <time>2018-01-31T11:27:58Z</time>
      </trkpt>
      <trkpt lat="45.93494" lon="4.72342">
        <ele>173</ele>
        <time>2018-01-31T11:27:59Z</time>
      </trkpt>
      <trkpt lat="45.9349" lon="4.72348">
        <ele>173</ele>
        <time>2018-01-31T11:28:00Z</time>
      </trkpt>
      <trkpt lat="45.93485" lon="4.72353">
        <ele>173</ele>
        <time>2018-01-31T11:28:01Z</time>
      </trkpt>
      <trkpt lat="45.93481" lon="4.72358">
        <ele>173</ele>
        <time>2018-01-31T11:28:02Z</time>
      </trkpt>
      <trkpt lat="45.93478" lon="4.72363">
        <ele>173</ele>
        <time>2018-01-31T11:28:03Z</time>
      </trkpt>
      <trkpt lat="45.93474" lon="4.72367">
        <ele>173</ele>
        <time>2018-01-31T11:28:04Z</time>
      </trkpt>
      <trkpt lat="45.93471" lon="4.72371">
        <ele>173</ele>
        <time>2018-01-31T11:28:05Z</time>
      </trkpt>
      <trkpt lat="45.93467" lon="4.72376">
        <ele>173</ele>
        <time>2018-01-31T11:28:06Z</time>
      </trkpt>
      <trkpt lat="45.93462" lon="4.72381">
        <ele>173</ele>
        <time>2018-01-31T11:28:07Z</time>
      </trkpt>
      <trkpt lat="45.93458" lon="4.72386">
        <ele>173</ele>
        <time>2018-01-31T11:28:08Z</time>
      </trkpt>
      <trkpt lat="45.93453" lon="4.7239">
        <ele>173</ele>
        <time>2018-01-31T11:28:09Z</time>
      </trkpt>
      <trkpt lat="45.93448" lon="4.72394">
        <ele>173</ele>
        <time>2018-01-31T11:28:10Z</time>
      </trkpt>
      <trkpt lat="45.93443" lon="4.72396">
        <ele>173</ele>
        <time>2018-01-31T11:28:11Z</time>
      </trkpt>
      <trkpt lat="45.93439" lon="4.72398">
        <ele>173</ele>
        <time>2018-01-31T11:28:12Z</time>
      </trkpt>
      <trkpt lat="45.93431" lon="4.72402">
        <ele>174</ele>
        <time>2018-01-31T11:28:14Z</time>
      </trkpt>
      <trkpt lat="45.93427" lon="4.72402">
        <ele>174</ele>
        <time>2018-01-31T11:28:15Z</time>
      </trkpt>
      <trkpt lat="45.93422" lon="4.72405">
        <ele>174</ele>
        <time>2018-01-31T11:28:16Z</time>
      </trkpt>
      <trkpt lat="45.93416" lon="4.72404">
        <ele>174</ele>
        <time>2018-01-31T11:28:17Z</time>
      </trkpt>
      <trkpt lat="45.9341" lon="4.72404">
        <ele>174</ele>
        <time>2018-01-31T11:28:18Z</time>
      </trkpt>
      <trkpt lat="45.93403" lon="4.72405">
        <ele>174</ele>
        <time>2018-01-31T11:28:19Z</time>
      </trkpt>
      <trkpt lat="45.93398" lon="4.72406">
        <ele>174</ele>
        <time>2018-01-31T11:28:20Z</time>
      </trkpt>
      <trkpt lat="45.93394" lon="4.72408">
        <ele>174</ele>
        <time>2018-01-31T11:28:21Z</time>
      </trkpt>
      <trkpt lat="45.93391" lon="4.72414">
        <ele>174</ele>
        <time>2018-01-31T11:28:22Z</time>
      </trkpt>
      <trkpt lat="45.93388" lon="4.72419">
        <ele>173</ele>
        <time>2018-01-31T11:28:23Z</time>
      </trkpt>
      <trkpt lat="45.93387" lon="4.72427">
        <ele>173</ele>
        <time>2018-01-31T11:28:24Z</time>
      </trkpt>
      <trkpt lat="45.93389" lon="4.72434">
        <ele>173</ele>
        <time>2018-01-31T11:28:25Z</time>
      </trkpt>
      <trkpt lat="45.93391" lon="4.72442">
        <ele>173</ele>
        <time>2018-01-31T11:28:26Z</time>
      </trkpt>
      <trkpt lat="45.93391" lon="4.7245">
        <ele>173</ele>
        <time>2018-01-31T11:28:27Z</time>
      </trkpt>
      <trkpt lat="45.93391" lon="4.72457">
        <ele>173</ele>
        <time>2018-01-31T11:28:28Z</time>
      </trkpt>
      <trkpt lat="45.9339" lon="4.72465">
        <ele>173</ele>
        <time>2018-01-31T11:28:29Z</time>
      </trkpt>
      <trkpt lat="45.93386" lon="4.7247">
        <ele>173</ele>
        <time>2018-01-31T11:28:30Z</time>
      </trkpt>
      <trkpt lat="45.93382" lon="4.72475">
        <ele>173</ele>
        <time>2018-01-31T11:28:31Z</time>
      </trkpt>
      <trkpt lat="45.93379" lon="4.7248">
        <ele>173</ele>
        <time>2018-01-31T11:28:32Z</time>
      </trkpt>
      <trkpt lat="45.93375" lon="4.72484">
        <ele>173</ele>
        <time>2018-01-31T11:28:33Z</time>
      </trkpt>
      <trkpt lat="45.93371" lon="4.72488">
        <ele>173</ele>
        <time>2018-01-31T11:28:34Z</time>
      </trkpt>
      <trkpt lat="45.93367" lon="4.72492">
        <ele>173</ele>
        <time>2018-01-31T11:28:35Z</time>
      </trkpt>
      <trkpt lat="45.93363" lon="4.72497">
        <ele>173</ele>
        <time>2018-01-31T11:28:36Z</time>
      </trkpt>
      <trkpt lat="45.93359" lon="4.72501">
        <ele>172</ele>
        <time>2018-01-31T11:28:37Z</time>
      </trkpt>
      <trkpt lat="45.93355" lon="4.72505">
        <ele>172</ele>
        <time>2018-01-31T11:28:38Z</time>
      </trkpt>
      <trkpt lat="45.9335" lon="4.72511">
        <ele>172</ele>
        <time>2018-01-31T11:28:39Z</time>
      </trkpt>
      <trkpt lat="45.93346" lon="4.72515">
        <ele>172</ele>
        <time>2018-01-31T11:28:40Z</time>
      </trkpt>
      <trkpt lat="45.93342" lon="4.7252">
        <ele>172</ele>
        <time>2018-01-31T11:28:41Z</time>
      </trkpt>
      <trkpt lat="45.93339" lon="4.72524">
        <ele>172</ele>
        <time>2018-01-31T11:28:42Z</time>
      </trkpt>
      <trkpt lat="45.93335" lon="4.72528">
        <ele>172</ele>
        <time>2018-01-31T11:28:43Z</time>
      </trkpt>
      <trkpt lat="45.93331" lon="4.72533">
        <ele>172</ele>
        <time>2018-01-31T11:28:44Z</time>
      </trkpt>
      <trkpt lat="45.93327" lon="4.72537">
        <ele>172</ele>
        <time>2018-01-31T11:28:45Z</time>
      </trkpt>
      <trkpt lat="45.93323" lon="4.72541">
        <ele>172</ele>
        <time>2018-01-31T11:28:46Z</time>
      </trkpt>
      <trkpt lat="45.93319" lon="4.72545">
        <ele>172</ele>
        <time>2018-01-31T11:28:47Z</time>
      </trkpt>
      <trkpt lat="45.93313" lon="4.72553">
        <ele>172</ele>
        <time>2018-01-31T11:28:49Z</time>
      </trkpt>
      <trkpt lat="45.93309" lon="4.72558">
        <ele>172</ele>
        <time>2018-01-31T11:28:50Z</time>
      </trkpt>
      <trkpt lat="45.93305" lon="4.72562">
        <ele>172</ele>
        <time>2018-01-31T11:28:51Z</time>
      </trkpt>
      <trkpt lat="45.93301" lon="4.72567">
        <ele>171</ele>
        <time>2018-01-31T11:28:52Z</time>
      </trkpt>
      <trkpt lat="45.93297" lon="4.72573">
        <ele>171</ele>
        <time>2018-01-31T11:28:53Z</time>
      </trkpt>
      <trkpt lat="45.93293" lon="4.72578">
        <ele>171</ele>
        <time>2018-01-31T11:28:54Z</time>
      </trkpt>
      <trkpt lat="45.93288" lon="4.72583">
        <ele>171</ele>
        <time>2018-01-31T11:28:55Z</time>
      </trkpt>
      <trkpt lat="45.93282" lon="4.72588">
        <ele>170</ele>
        <time>2018-01-31T11:28:56Z</time>
      </trkpt>
      <trkpt lat="45.93278" lon="4.72593">
        <ele>170</ele>
        <time>2018-01-31T11:28:57Z</time>
      </trkpt>
      <trkpt lat="45.93276" lon="4.72597">
        <ele>170</ele>
        <time>2018-01-31T11:28:58Z</time>
      </trkpt>
      <trkpt lat="45.93271" lon="4.72601">
        <ele>170</ele>
        <time>2018-01-31T11:28:59Z</time>
      </trkpt>
      <trkpt lat="45.93267" lon="4.72605">
        <ele>170</ele>
        <time>2018-01-31T11:29:00Z</time>
      </trkpt>
      <trkpt lat="45.93263" lon="4.72611">
        <ele>170</ele>
        <time>2018-01-31T11:29:01Z</time>
      </trkpt>
      <trkpt lat="45.93258" lon="4.72617">
        <ele>170</ele>
        <time>2018-01-31T11:29:02Z</time>
      </trkpt>
      <trkpt lat="45.93255" lon="4.72621">
        <ele>170</ele>
        <time>2018-01-31T11:29:03Z</time>
      </trkpt>
      <trkpt lat="45.93251" lon="4.72626">
        <ele>170</ele>
        <time>2018-01-31T11:29:04Z</time>
      </trkpt>
      <trkpt lat="45.93248" lon="4.7263">
        <ele>170</ele>
        <time>2018-01-31T11:29:05Z</time>
      </trkpt>
      <trkpt lat="45.93244" lon="4.72635">
        <ele>170</ele>
        <time>2018-01-31T11:29:06Z</time>
      </trkpt>
      <trkpt lat="45.93239" lon="4.72639">
        <ele>170</ele>
        <time>2018-01-31T11:29:07Z</time>
      </trkpt>
      <trkpt lat="45.93235" lon="4.72643">
        <ele>170</ele>
        <time>2018-01-31T11:29:08Z</time>
      </trkpt>
      <trkpt lat="45.93232" lon="4.72647">
        <ele>170</ele>
        <time>2018-01-31T11:29:09Z</time>
      </trkpt>
      <trkpt lat="45.93228" lon="4.72652">
        <ele>170</ele>
        <time>2018-01-31T11:29:10Z</time>
      </trkpt>
      <trkpt lat="45.93224" lon="4.72655">
        <ele>170</ele>
        <time>2018-01-31T11:29:11Z</time>
      </trkpt>
      <trkpt lat="45.93221" lon="4.72661">
        <ele>170</ele>
        <time>2018-01-31T11:29:12Z</time>
      </trkpt>
      <trkpt lat="45.93217" lon="4.72665">
        <ele>170</ele>
        <time>2018-01-31T11:29:13Z</time>
      </trkpt>
      <trkpt lat="45.93215" lon="4.72671">
        <ele>169</ele>
        <time>2018-01-31T11:29:14Z</time>
      </trkpt>
      <trkpt lat="45.93211" lon="4.72675">
        <ele>169</ele>
        <time>2018-01-31T11:29:15Z</time>
      </trkpt>
      <trkpt lat="45.93207" lon="4.72681">
        <ele>169</ele>
        <time>2018-01-31T11:29:16Z</time>
      </trkpt>
      <trkpt lat="45.93202" lon="4.72685">
        <ele>169</ele>
        <time>2018-01-31T11:29:17Z</time>
      </trkpt>
      <trkpt lat="45.93199" lon="4.7269">
        <ele>169</ele>
        <time>2018-01-31T11:29:18Z</time>
      </trkpt>
      <trkpt lat="45.93195" lon="4.72694">
        <ele>169</ele>
        <time>2018-01-31T11:29:19Z</time>
      </trkpt>
      <trkpt lat="45.9319" lon="4.72698">
        <ele>169</ele>
        <time>2018-01-31T11:29:20Z</time>
      </trkpt>
      <trkpt lat="45.93187" lon="4.72703">
        <ele>169</ele>
        <time>2018-01-31T11:29:21Z</time>
      </trkpt>
      <trkpt lat="45.93183" lon="4.72708">
        <ele>169</ele>
        <time>2018-01-31T11:29:22Z</time>
      </trkpt>
      <trkpt lat="45.93179" lon="4.72713">
        <ele>169</ele>
        <time>2018-01-31T11:29:23Z</time>
      </trkpt>
      <trkpt lat="45.93174" lon="4.72718">
        <ele>170</ele>
        <time>2018-01-31T11:29:24Z</time>
      </trkpt>
      <trkpt lat="45.93169" lon="4.72722">
        <ele>170</ele>
        <time>2018-01-31T11:29:25Z</time>
      </trkpt>
      <trkpt lat="45.93165" lon="4.72728">
        <ele>170</ele>
        <time>2018-01-31T11:29:26Z</time>
      </trkpt>
      <trkpt lat="45.93161" lon="4.72732">
        <ele>170</ele>
        <time>2018-01-31T11:29:27Z</time>
      </trkpt>
      <trkpt lat="45.93156" lon="4.72736">
        <ele>170</ele>
        <time>2018-01-31T11:29:28Z</time>
      </trkpt>
      <trkpt lat="45.93151" lon="4.72741">
        <ele>170</ele>
        <time>2018-01-31T11:29:29Z</time>
      </trkpt>
      <trkpt lat="45.93147" lon="4.72746">
        <ele>170</ele>
        <time>2018-01-31T11:29:30Z</time>
      </trkpt>
      <trkpt lat="45.93142" lon="4.72751">
        <ele>171</ele>
        <time>2018-01-31T11:29:31Z</time>
      </trkpt>
      <trkpt lat="45.93137" lon="4.72756">
        <ele>171</ele>
        <time>2018-01-31T11:29:32Z</time>
      </trkpt>
      <trkpt lat="45.93133" lon="4.72761">
        <ele>171</ele>
        <time>2018-01-31T11:29:33Z</time>
      </trkpt>
      <trkpt lat="45.93128" lon="4.72767">
        <ele>171</ele>
        <time>2018-01-31T11:29:34Z</time>
      </trkpt>
      <trkpt lat="45.93124" lon="4.72773">
        <ele>171</ele>
        <time>2018-01-31T11:29:35Z</time>
      </trkpt>
      <trkpt lat="45.93119" lon="4.72778">
        <ele>171</ele>
        <time>2018-01-31T11:29:36Z</time>
      </trkpt>
      <trkpt lat="45.93115" lon="4.72784">
        <ele>171</ele>
        <time>2018-01-31T11:29:37Z</time>
      </trkpt>
      <trkpt lat="45.9311" lon="4.7279">
        <ele>171</ele>
        <time>2018-01-31T11:29:38Z</time>
      </trkpt>
      <trkpt lat="45.93105" lon="4.72795">
        <ele>171</ele>
        <time>2018-01-31T11:29:39Z</time>
      </trkpt>
      <trkpt lat="45.93101" lon="4.728">
        <ele>171</ele>
        <time>2018-01-31T11:29:40Z</time>
      </trkpt>
      <trkpt lat="45.93097" lon="4.72805">
        <ele>171</ele>
        <time>2018-01-31T11:29:41Z</time>
      </trkpt>
      <trkpt lat="45.93093" lon="4.7281">
        <ele>172</ele>
        <time>2018-01-31T11:29:42Z</time>
      </trkpt>
      <trkpt lat="45.93089" lon="4.72815">
        <ele>172</ele>
        <time>2018-01-31T11:29:43Z</time>
      </trkpt>
      <trkpt lat="45.93085" lon="4.72819">
        <ele>172</ele>
        <time>2018-01-31T11:29:44Z</time>
      </trkpt>
      <trkpt lat="45.9307" lon="4.7283">
        <ele>173</ele>
        <time>2018-01-31T11:29:48Z</time>
      </trkpt>
      <trkpt lat="45.93066" lon="4.72831">
        <ele>173</ele>
        <time>2018-01-31T11:29:49Z</time>
      </trkpt>
      <trkpt lat="45.93058" lon="4.72841">
        <ele>172</ele>
        <time>2018-01-31T11:29:50Z</time>
      </trkpt>
      <trkpt lat="45.93055" lon="4.72849">
        <ele>172</ele>
        <time>2018-01-31T11:29:52Z</time>
      </trkpt>
      <trkpt lat="45.93055" lon="4.72855">
        <ele>172</ele>
        <time>2018-01-31T11:29:53Z</time>
      </trkpt>
      <trkpt lat="45.93052" lon="4.72861">
        <ele>172</ele>
        <time>2018-01-31T11:29:54Z</time>
      </trkpt>
      <trkpt lat="45.93049" lon="4.72866">
        <ele>172</ele>
        <time>2018-01-31T11:29:55Z</time>
      </trkpt>
      <trkpt lat="45.93043" lon="4.72872">
        <ele>172</ele>
        <time>2018-01-31T11:29:56Z</time>
      </trkpt>
      <trkpt lat="45.93038" lon="4.72878">
        <ele>172</ele>
        <time>2018-01-31T11:29:57Z</time>
      </trkpt>
      <trkpt lat="45.93034" lon="4.72883">
        <ele>172</ele>
        <time>2018-01-31T11:29:58Z</time>
      </trkpt>
      <trkpt lat="45.93029" lon="4.72888">
        <ele>172</ele>
        <time>2018-01-31T11:29:59Z</time>
      </trkpt>
      <trkpt lat="45.93023" lon="4.72894">
        <ele>172</ele>
        <time>2018-01-31T11:30:00Z</time>
      </trkpt>
      <trkpt lat="45.93019" lon="4.72898">
        <ele>172</ele>
        <time>2018-01-31T11:30:01Z</time>
      </trkpt>
      <trkpt lat="45.93015" lon="4.72902">
        <ele>172</ele>
        <time>2018-01-31T11:30:02Z</time>
      </trkpt>
      <trkpt lat="45.93011" lon="4.72907">
        <ele>171</ele>
        <time>2018-01-31T11:30:03Z</time>
      </trkpt>
      <trkpt lat="45.93006" lon="4.72911">
        <ele>171</ele>
        <time>2018-01-31T11:30:04Z</time>
      </trkpt>
      <trkpt lat="45.93003" lon="4.72916">
        <ele>171</ele>
        <time>2018-01-31T11:30:05Z</time>
      </trkpt>
      <trkpt lat="45.92999" lon="4.7292">
        <ele>171</ele>
        <time>2018-01-31T11:30:06Z</time>
      </trkpt>
      <trkpt lat="45.92996" lon="4.72924">
        <ele>171</ele>
        <time>2018-01-31T11:30:07Z</time>
      </trkpt>
      <trkpt lat="45.92992" lon="4.72928">
        <ele>171</ele>
        <time>2018-01-31T11:30:08Z</time>
      </trkpt>
      <trkpt lat="45.92988" lon="4.72933">
        <ele>171</ele>
        <time>2018-01-31T11:30:09Z</time>
      </trkpt>
      <trkpt lat="45.92983" lon="4.72941">
        <ele>171</ele>
        <time>2018-01-31T11:30:11Z</time>
      </trkpt>
      <trkpt lat="45.92979" lon="4.72946">
        <ele>171</ele>
        <time>2018-01-31T11:30:12Z</time>
      </trkpt>
      <trkpt lat="45.92975" lon="4.72951">
        <ele>171</ele>
        <time>2018-01-31T11:30:13Z</time>
      </trkpt>
      <trkpt lat="45.92971" lon="4.72955">
        <ele>171</ele>
        <time>2018-01-31T11:30:14Z</time>
      </trkpt>
      <trkpt lat="45.92967" lon="4.7296">
        <ele>171</ele>
        <time>2018-01-31T11:30:15Z</time>
      </trkpt>
      <trkpt lat="45.92962" lon="4.72965">
        <ele>171</ele>
        <time>2018-01-31T11:30:16Z</time>
      </trkpt>
      <trkpt lat="45.92957" lon="4.7297">
        <ele>171</ele>
        <time>2018-01-31T11:30:17Z</time>
      </trkpt>
      <trkpt lat="45.92953" lon="4.72976">
        <ele>171</ele>
        <time>2018-01-31T11:30:18Z</time>
      </trkpt>
      <trkpt lat="45.92949" lon="4.72981">
        <ele>171</ele>
        <time>2018-01-31T11:30:19Z</time>
      </trkpt>
      <trkpt lat="45.92944" lon="4.72986">
        <ele>171</ele>
        <time>2018-01-31T11:30:20Z</time>
      </trkpt>
      <trkpt lat="45.9294" lon="4.72991">
        <ele>171</ele>
        <time>2018-01-31T11:30:21Z</time>
      </trkpt>
      <trkpt lat="45.92936" lon="4.72997">
        <ele>172</ele>
        <time>2018-01-31T11:30:22Z</time>
      </trkpt>
      <trkpt lat="45.92932" lon="4.73003">
        <ele>172</ele>
        <time>2018-01-31T11:30:23Z</time>
      </trkpt>
      <trkpt lat="45.92929" lon="4.73008">
        <ele>172</ele>
        <time>2018-01-31T11:30:24Z</time>
      </trkpt>
      <trkpt lat="45.92925" lon="4.73012">
        <ele>172</ele>
        <time>2018-01-31T11:30:25Z</time>
      </trkpt>
      <trkpt lat="45.9292" lon="4.73017">
        <ele>172</ele>
        <time>2018-01-31T11:30:26Z</time>
      </trkpt>
      <trkpt lat="45.92916" lon="4.73023">
        <ele>172</ele>
        <time>2018-01-31T11:30:27Z</time>
      </trkpt>
      <trkpt lat="45.92913" lon="4.73027">
        <ele>172</ele>
        <time>2018-01-31T11:30:28Z</time>
      </trkpt>
      <trkpt lat="45.92909" lon="4.73032">
        <ele>172</ele>
        <time>2018-01-31T11:30:29Z</time>
      </trkpt>
      <trkpt lat="45.92905" lon="4.73038">
        <ele>172</ele>
        <time>2018-01-31T11:30:30Z</time>
      </trkpt>
      <trkpt lat="45.92902" lon="4.73043">
        <ele>172</ele>
        <time>2018-01-31T11:30:31Z</time>
      </trkpt>
      <trkpt lat="45.92899" lon="4.7305">
        <ele>172</ele>
        <time>2018-01-31T11:30:32Z</time>
      </trkpt>
      <trkpt lat="45.92896" lon="4.73055">
        <ele>172</ele>
        <time>2018-01-31T11:30:33Z</time>
      </trkpt>
      <trkpt lat="45.92892" lon="4.73061">
        <ele>172</ele>
        <time>2018-01-31T11:30:34Z</time>
      </trkpt>
      <trkpt lat="45.92889" lon="4.73066">
        <ele>172</ele>
        <time>2018-01-31T11:30:35Z</time>
      </trkpt>
      <trkpt lat="45.92886" lon="4.73072">
        <ele>172</ele>
        <time>2018-01-31T11:30:36Z</time>
      </trkpt>
      <trkpt lat="45.92882" lon="4.73076">
        <ele>172</ele>
        <time>2018-01-31T11:30:37Z</time>
      </trkpt>
      <trkpt lat="45.92878" lon="4.73079">
        <ele>172</ele>
        <time>2018-01-31T11:30:38Z</time>
      </trkpt>
      <trkpt lat="45.92875" lon="4.73084">
        <ele>172</ele>
        <time>2018-01-31T11:30:39Z</time>
      </trkpt>
      <trkpt lat="45.92871" lon="4.73088">
        <ele>172</ele>
        <time>2018-01-31T11:30:40Z</time>
      </trkpt>
      <trkpt lat="45.92865" lon="4.73098">
        <ele>171</ele>
        <time>2018-01-31T11:30:42Z</time>
      </trkpt>
      <trkpt lat="45.92861" lon="4.731">
        <ele>171</ele>
        <time>2018-01-31T11:30:43Z</time>
      </trkpt>
      <trkpt lat="45.92856" lon="4.73099">
        <ele>171</ele>
        <time>2018-01-31T11:30:44Z</time>
      </trkpt>
      <trkpt lat="45.92853" lon="4.73095">
        <ele>171</ele>
        <time>2018-01-31T11:30:45Z</time>
      </trkpt>
      <trkpt lat="45.9285" lon="4.73083">
        <ele>171</ele>
        <time>2018-01-31T11:30:47Z</time>
      </trkpt>
      <trkpt lat="45.92849" lon="4.73076">
        <ele>171</ele>
        <time>2018-01-31T11:30:48Z</time>
      </trkpt>
      <trkpt lat="45.92847" lon="4.7307">
        <ele>171</ele>
        <time>2018-01-31T11:30:49Z</time>
      </trkpt>
      <trkpt lat="45.92846" lon="4.73062">
        <ele>171</ele>
        <time>2018-01-31T11:30:50Z</time>
      </trkpt>
      <trkpt lat="45.92844" lon="4.73055">
        <ele>171</ele>
        <time>2018-01-31T11:30:51Z</time>
      </trkpt>
      <trkpt lat="45.92842" lon="4.73048">
        <ele>171</ele>
        <time>2018-01-31T11:30:52Z</time>
      </trkpt>
      <trkpt lat="45.9284" lon="4.73041">
        <ele>171</ele>
        <time>2018-01-31T11:30:53Z</time>
      </trkpt>
      <trkpt lat="45.92839" lon="4.73033">
        <ele>171</ele>
        <time>2018-01-31T11:30:54Z</time>
      </trkpt>
      <trkpt lat="45.92837" lon="4.73025">
        <ele>171</ele>
        <time>2018-01-31T11:30:55Z</time>
      </trkpt>
      <trkpt lat="45.92835" lon="4.73017">
        <ele>171</ele>
        <time>2018-01-31T11:30:56Z</time>
      </trkpt>
      <trkpt lat="45.92834" lon="4.73009">
        <ele>170</ele>
        <time>2018-01-31T11:30:57Z</time>
      </trkpt>
      <trkpt lat="45.92833" lon="4.73003">
        <ele>170</ele>
        <time>2018-01-31T11:30:58Z</time>
      </trkpt>
      <trkpt lat="45.92832" lon="4.72995">
        <ele>170</ele>
        <time>2018-01-31T11:30:59Z</time>
      </trkpt>
      <trkpt lat="45.92831" lon="4.72988">
        <ele>170</ele>
        <time>2018-01-31T11:31:00Z</time>
      </trkpt>
      <trkpt lat="45.92831" lon="4.7298">
        <ele>170</ele>
        <time>2018-01-31T11:31:01Z</time>
      </trkpt>
      <trkpt lat="45.9283" lon="4.72975">
        <ele>170</ele>
        <time>2018-01-31T11:31:02Z</time>
      </trkpt>
      <trkpt lat="45.9283" lon="4.72968">
        <ele>170</ele>
        <time>2018-01-31T11:31:03Z</time>
      </trkpt>
      <trkpt lat="45.92829" lon="4.7296">
        <ele>170</ele>
        <time>2018-01-31T11:31:04Z</time>
      </trkpt>
      <trkpt lat="45.92828" lon="4.72953">
        <ele>170</ele>
        <time>2018-01-31T11:31:05Z</time>
      </trkpt>
      <trkpt lat="45.92826" lon="4.72945">
        <ele>170</ele>
        <time>2018-01-31T11:31:06Z</time>
      </trkpt>
      <trkpt lat="45.92824" lon="4.72939">
        <ele>170</ele>
        <time>2018-01-31T11:31:07Z</time>
      </trkpt>
      <trkpt lat="45.92823" lon="4.72931">
        <ele>170</ele>
        <time>2018-01-31T11:31:08Z</time>
      </trkpt>
      <trkpt lat="45.92822" lon="4.72923">
        <ele>170</ele>
        <time>2018-01-31T11:31:09Z</time>
      </trkpt>
      <trkpt lat="45.92821" lon="4.72915">
        <ele>170</ele>
        <time>2018-01-31T11:31:10Z</time>
      </trkpt>
      <trkpt lat="45.9282" lon="4.72907">
        <ele>170</ele>
        <time>2018-01-31T11:31:11Z</time>
      </trkpt>
      <trkpt lat="45.92819" lon="4.72901">
        <ele>170</ele>
        <time>2018-01-31T11:31:12Z</time>
      </trkpt>
      <trkpt lat="45.92819" lon="4.72894">
        <ele>170</ele>
        <time>2018-01-31T11:31:13Z</time>
      </trkpt>
      <trkpt lat="45.92818" lon="4.72887">
        <ele>170</ele>
        <time>2018-01-31T11:31:14Z</time>
      </trkpt>
      <trkpt lat="45.92818" lon="4.7288">
        <ele>170</ele>
        <time>2018-01-31T11:31:15Z</time>
      </trkpt>
      <trkpt lat="45.92817" lon="4.72874">
        <ele>170</ele>
        <time>2018-01-31T11:31:16Z</time>
      </trkpt>
      <trkpt lat="45.92816" lon="4.72867">
        <ele>170</ele>
        <time>2018-01-31T11:31:17Z</time>
      </trkpt>
      <trkpt lat="45.92814" lon="4.72859">
        <ele>170</ele>
        <time>2018-01-31T11:31:18Z</time>
      </trkpt>
      <trkpt lat="45.92812" lon="4.72853">
        <ele>170</ele>
        <time>2018-01-31T11:31:19Z</time>
      </trkpt>
      <trkpt lat="45.92811" lon="4.72846">
        <ele>170</ele>
        <time>2018-01-31T11:31:20Z</time>
      </trkpt>
      <trkpt lat="45.9281" lon="4.7284">
        <ele>170</ele>
        <time>2018-01-31T11:31:21Z</time>
      </trkpt>
      <trkpt lat="45.92809" lon="4.72833">
        <ele>171</ele>
        <time>2018-01-31T11:31:22Z</time>
      </trkpt>
      <trkpt lat="45.92806" lon="4.72821">
        <ele>171</ele>
        <time>2018-01-31T11:31:24Z</time>
      </trkpt>
      <trkpt lat="45.92805" lon="4.72814">
        <ele>171</ele>
        <time>2018-01-31T11:31:25Z</time>
      </trkpt>
      <trkpt lat="45.92804" lon="4.72808">
        <ele>171</ele>
        <time>2018-01-31T11:31:26Z</time>
      </trkpt>
      <trkpt lat="45.92803" lon="4.72801">
        <ele>171</ele>
        <time>2018-01-31T11:31:27Z</time>
      </trkpt>
      <trkpt lat="45.92801" lon="4.72789">
        <ele>171</ele>
        <time>2018-01-31T11:31:29Z</time>
      </trkpt>
      <trkpt lat="45.92797" lon="4.72786">
        <ele>171</ele>
        <time>2018-01-31T11:31:30Z</time>
      </trkpt>
      <trkpt lat="45.9279" lon="4.72786">
        <ele>171</ele>
        <time>2018-01-31T11:31:32Z</time>
      </trkpt>
      <trkpt lat="45.92787" lon="4.72789">
        <ele>170</ele>
        <time>2018-01-31T11:31:33Z</time>
      </trkpt>
      <trkpt lat="45.9278" lon="4.72796">
        <ele>170</ele>
        <time>2018-01-31T11:31:35Z</time>
      </trkpt>
      <trkpt lat="45.92775" lon="4.728">
        <ele>170</ele>
        <time>2018-01-31T11:31:36Z</time>
      </trkpt>
      <trkpt lat="45.92771" lon="4.72804">
        <ele>170</ele>
        <time>2018-01-31T11:31:37Z</time>
      </trkpt>
      <trkpt lat="45.92766" lon="4.72806">
        <ele>170</ele>
        <time>2018-01-31T11:31:38Z</time>
      </trkpt>
      <trkpt lat="45.92759" lon="4.72812">
        <ele>170</ele>
        <time>2018-01-31T11:31:40Z</time>
      </trkpt>
      <trkpt lat="45.92755" lon="4.72816">
        <ele>170</ele>
        <time>2018-01-31T11:31:41Z</time>
      </trkpt>
      <trkpt lat="45.9275" lon="4.72818">
        <ele>170</ele>
        <time>2018-01-31T11:31:42Z</time>
      </trkpt>
      <trkpt lat="45.92746" lon="4.72822">
        <ele>169</ele>
        <time>2018-01-31T11:31:43Z</time>
      </trkpt>
      <trkpt lat="45.92741" lon="4.72825">
        <ele>169</ele>
        <time>2018-01-31T11:31:44Z</time>
      </trkpt>
      <trkpt lat="45.92737" lon="4.72829">
        <ele>169</ele>
        <time>2018-01-31T11:31:45Z</time>
      </trkpt>
      <trkpt lat="45.92732" lon="4.72831">
        <ele>169</ele>
        <time>2018-01-31T11:31:46Z</time>
      </trkpt>
      <trkpt lat="45.92727" lon="4.72835">
        <ele>169</ele>
        <time>2018-01-31T11:31:47Z</time>
      </trkpt>
      <trkpt lat="45.92723" lon="4.72838">
        <ele>169</ele>
        <time>2018-01-31T11:31:48Z</time>
      </trkpt>
      <trkpt lat="45.92719" lon="4.72842">
        <ele>169</ele>
        <time>2018-01-31T11:31:49Z</time>
      </trkpt>
      <trkpt lat="45.92714" lon="4.72845">
        <ele>169</ele>
        <time>2018-01-31T11:31:50Z</time>
      </trkpt>
      <trkpt lat="45.92709" lon="4.72848">
        <ele>169</ele>
        <time>2018-01-31T11:31:51Z</time>
      </trkpt>
      <trkpt lat="45.92705" lon="4.72852">
        <ele>169</ele>
        <time>2018-01-31T11:31:52Z</time>
      </trkpt>
      <trkpt lat="45.927" lon="4.72855">
        <ele>169</ele>
        <time>2018-01-31T11:31:53Z</time>
      </trkpt>
      <trkpt lat="45.92695" lon="4.72859">
        <ele>169</ele>
        <time>2018-01-31T11:31:54Z</time>
      </trkpt>
      <trkpt lat="45.92691" lon="4.72862">
        <ele>169</ele>
        <time>2018-01-31T11:31:55Z</time>
      </trkpt>
      <trkpt lat="45.92686" lon="4.72866">
        <ele>169</ele>
        <time>2018-01-31T11:31:56Z</time>
      </trkpt>
      <trkpt lat="45.92681" lon="4.7287">
        <ele>169</ele>
        <time>2018-01-31T11:31:57Z</time>
      </trkpt>
      <trkpt lat="45.92677" lon="4.72874">
        <ele>169</ele>
        <time>2018-01-31T11:31:58Z</time>
      </trkpt>
      <trkpt lat="45.92672" lon="4.72878">
        <ele>170</ele>
        <time>2018-01-31T11:31:59Z</time>
      </trkpt>
      <trkpt lat="45.92667" lon="4.72882">
        <ele>170</ele>
        <time>2018-01-31T11:32:00Z</time>
      </trkpt>
      <trkpt lat="45.92663" lon="4.72886">
        <ele>169</ele>
        <time>2018-01-31T11:32:01Z</time>
      </trkpt>
      <trkpt lat="45.92658" lon="4.7289">
        <ele>169</ele>
        <time>2018-01-31T11:32:02Z</time>
      </trkpt>
      <trkpt lat="45.92654" lon="4.72893">
        <ele>169</ele>
        <time>2018-01-31T11:32:03Z</time>
      </trkpt>
      <trkpt lat="45.92649" lon="4.72896">
        <ele>169</ele>
        <time>2018-01-31T11:32:04Z</time>
      </trkpt>
      <trkpt lat="45.92645" lon="4.72899">
        <ele>169</ele>
        <time>2018-01-31T11:32:05Z</time>
      </trkpt>
      <trkpt lat="45.9264" lon="4.72902">
        <ele>169</ele>
        <time>2018-01-31T11:32:06Z</time>
      </trkpt>
      <trkpt lat="45.92636" lon="4.72906">
        <ele>169</ele>
        <time>2018-01-31T11:32:07Z</time>
      </trkpt>
      <trkpt lat="45.92631" lon="4.7291">
        <ele>169</ele>
        <time>2018-01-31T11:32:08Z</time>
      </trkpt>
      <trkpt lat="45.92627" lon="4.72914">
        <ele>169</ele>
        <time>2018-01-31T11:32:09Z</time>
      </trkpt>
      <trkpt lat="45.92623" lon="4.72919">
        <ele>169</ele>
        <time>2018-01-31T11:32:10Z</time>
      </trkpt>
      <trkpt lat="45.92618" lon="4.72923">
        <ele>169</ele>
        <time>2018-01-31T11:32:11Z</time>
      </trkpt>
      <trkpt lat="45.92613" lon="4.72927">
        <ele>169</ele>
        <time>2018-01-31T11:32:12Z</time>
      </trkpt>
      <trkpt lat="45.92608" lon="4.72932">
        <ele>169</ele>
        <time>2018-01-31T11:32:13Z</time>
      </trkpt>
      <trkpt lat="45.92603" lon="4.72937">
        <ele>169</ele>
        <time>2018-01-31T11:32:14Z</time>
      </trkpt>
      <trkpt lat="45.92599" lon="4.72943">
        <ele>169</ele>
        <time>2018-01-31T11:32:15Z</time>
      </trkpt>
      <trkpt lat="45.92593" lon="4.72949">
        <ele>169</ele>
        <time>2018-01-31T11:32:16Z</time>
      </trkpt>
      <trkpt lat="45.92589" lon="4.72955">
        <ele>169</ele>
        <time>2018-01-31T11:32:17Z</time>
      </trkpt>
      <trkpt lat="45.92584" lon="4.7296">
        <ele>169</ele>
        <time>2018-01-31T11:32:18Z</time>
      </trkpt>
      <trkpt lat="45.92579" lon="4.72966">
        <ele>169</ele>
        <time>2018-01-31T11:32:19Z</time>
      </trkpt>
      <trkpt lat="45.92574" lon="4.72971">
        <ele>169</ele>
        <time>2018-01-31T11:32:20Z</time>
      </trkpt>
      <trkpt lat="45.9257" lon="4.72978">
        <ele>169</ele>
        <time>2018-01-31T11:32:21Z</time>
      </trkpt>
      <trkpt lat="45.92565" lon="4.72983">
        <ele>169</ele>
        <time>2018-01-31T11:32:22Z</time>
      </trkpt>
      <trkpt lat="45.9256" lon="4.72988">
        <ele>169</ele>
        <time>2018-01-31T11:32:23Z</time>
      </trkpt>
      <trkpt lat="45.92554" lon="4.72993">
        <ele>169</ele>
        <time>2018-01-31T11:32:24Z</time>
      </trkpt>
      <trkpt lat="45.9255" lon="4.72997">
        <ele>169</ele>
        <time>2018-01-31T11:32:25Z</time>
      </trkpt>
      <trkpt lat="45.92545" lon="4.73001">
        <ele>169</ele>
        <time>2018-01-31T11:32:26Z</time>
      </trkpt>
      <trkpt lat="45.9254" lon="4.73004">
        <ele>169</ele>
        <time>2018-01-31T11:32:27Z</time>
      </trkpt>
      <trkpt lat="45.92535" lon="4.73008">
        <ele>169</ele>
        <time>2018-01-31T11:32:28Z</time>
      </trkpt>
      <trkpt lat="45.9253" lon="4.73013">
        <ele>169</ele>
        <time>2018-01-31T11:32:29Z</time>
      </trkpt>
      <trkpt lat="45.92525" lon="4.73018">
        <ele>169</ele>
        <time>2018-01-31T11:32:30Z</time>
      </trkpt>
      <trkpt lat="45.92521" lon="4.73023">
        <ele>169</ele>
        <time>2018-01-31T11:32:31Z</time>
      </trkpt>
      <trkpt lat="45.92517" lon="4.73029">
        <ele>169</ele>
        <time>2018-01-31T11:32:32Z</time>
      </trkpt>
      <trkpt lat="45.92513" lon="4.73034">
        <ele>169</ele>
        <time>2018-01-31T11:32:33Z</time>
      </trkpt>
      <trkpt lat="45.9251" lon="4.73038">
        <ele>169</ele>
        <time>2018-01-31T11:32:34Z</time>
      </trkpt>
      <trkpt lat="45.92504" lon="4.73042">
        <ele>170</ele>
        <time>2018-01-31T11:32:35Z</time>
      </trkpt>
      <trkpt lat="45.925" lon="4.73046">
        <ele>170</ele>
        <time>2018-01-31T11:32:36Z</time>
      </trkpt>
      <trkpt lat="45.92495" lon="4.7305">
        <ele>170</ele>
        <time>2018-01-31T11:32:37Z</time>
      </trkpt>
      <trkpt lat="45.92491" lon="4.73054">
        <ele>170</ele>
        <time>2018-01-31T11:32:38Z</time>
      </trkpt>
      <trkpt lat="45.92487" lon="4.73057">
        <ele>170</ele>
        <time>2018-01-31T11:32:39Z</time>
      </trkpt>
      <trkpt lat="45.92479" lon="4.73064">
        <ele>170</ele>
        <time>2018-01-31T11:32:41Z</time>
      </trkpt>
      <trkpt lat="45.92474" lon="4.73069">
        <ele>170</ele>
        <time>2018-01-31T11:32:42Z</time>
      </trkpt>
      <trkpt lat="45.9247" lon="4.73073">
        <ele>170</ele>
        <time>2018-01-31T11:32:43Z</time>
      </trkpt>
      <trkpt lat="45.92465" lon="4.73077">
        <ele>170</ele>
        <time>2018-01-31T11:32:44Z</time>
      </trkpt>
      <trkpt lat="45.92462" lon="4.73082">
        <ele>170</ele>
        <time>2018-01-31T11:32:45Z</time>
      </trkpt>
      <trkpt lat="45.92457" lon="4.73086">
        <ele>170</ele>
        <time>2018-01-31T11:32:46Z</time>
      </trkpt>
      <trkpt lat="45.92453" lon="4.7309">
        <ele>170</ele>
        <time>2018-01-31T11:32:47Z</time>
      </trkpt>
      <trkpt lat="45.92449" lon="4.73095">
        <ele>170</ele>
        <time>2018-01-31T11:32:48Z</time>
      </trkpt>
      <trkpt lat="45.92441" lon="4.73101">
        <ele>170</ele>
        <time>2018-01-31T11:32:50Z</time>
      </trkpt>
      <trkpt lat="45.92437" lon="4.73104">
        <ele>170</ele>
        <time>2018-01-31T11:32:51Z</time>
      </trkpt>
      <trkpt lat="45.9243" lon="4.7311">
        <ele>170</ele>
        <time>2018-01-31T11:32:53Z</time>
      </trkpt>
      <trkpt lat="45.92426" lon="4.73113">
        <ele>170</ele>
        <time>2018-01-31T11:32:54Z</time>
      </trkpt>
      <trkpt lat="45.92419" lon="4.73119">
        <ele>170</ele>
        <time>2018-01-31T11:32:56Z</time>
      </trkpt>
      <trkpt lat="45.92415" lon="4.73123">
        <ele>171</ele>
        <time>2018-01-31T11:32:57Z</time>
      </trkpt>
      <trkpt lat="45.92412" lon="4.73129">
        <ele>171</ele>
        <time>2018-01-31T11:32:58Z</time>
      </trkpt>
      <trkpt lat="45.9241" lon="4.73135">
        <ele>171</ele>
        <time>2018-01-31T11:32:59Z</time>
      </trkpt>
      <trkpt lat="45.9241" lon="4.73143">
        <ele>171</ele>
        <time>2018-01-31T11:33:00Z</time>
      </trkpt>
      <trkpt lat="45.92409" lon="4.7315">
        <ele>171</ele>
        <time>2018-01-31T11:33:01Z</time>
      </trkpt>
      <trkpt lat="45.92409" lon="4.73157">
        <ele>170</ele>
        <time>2018-01-31T11:33:02Z</time>
      </trkpt>
      <trkpt lat="45.92409" lon="4.73163">
        <ele>170</ele>
        <time>2018-01-31T11:33:03Z</time>
      </trkpt>
      <trkpt lat="45.92408" lon="4.73176">
        <ele>170</ele>
        <time>2018-01-31T11:33:05Z</time>
      </trkpt>
      <trkpt lat="45.92408" lon="4.73182">
        <ele>171</ele>
        <time>2018-01-31T11:33:06Z</time>
      </trkpt>
      <trkpt lat="45.92407" lon="4.73195">
        <ele>171</ele>
        <time>2018-01-31T11:33:08Z</time>
      </trkpt>
      <trkpt lat="45.92408" lon="4.73201">
        <ele>171</ele>
        <time>2018-01-31T11:33:09Z</time>
      </trkpt>
      <trkpt lat="45.92409" lon="4.73213">
        <ele>171</ele>
        <time>2018-01-31T11:33:11Z</time>
      </trkpt>
      <trkpt lat="45.92409" lon="4.73221">
        <ele>171</ele>
        <time>2018-01-31T11:33:12Z</time>
      </trkpt>
      <trkpt lat="45.92409" lon="4.73228">
        <ele>171</ele>
        <time>2018-01-31T11:33:13Z</time>
      </trkpt>
      <trkpt lat="45.92409" lon="4.73235">
        <ele>171</ele>
        <time>2018-01-31T11:33:14Z</time>
      </trkpt>
      <trkpt lat="45.92409" lon="4.73241">
        <ele>171</ele>
        <time>2018-01-31T11:33:15Z</time>
      </trkpt>
      <trkpt lat="45.9241" lon="4.73248">
        <ele>171</ele>
        <time>2018-01-31T11:33:16Z</time>
      </trkpt>
      <trkpt lat="45.9241" lon="4.73255">
        <ele>171</ele>
        <time>2018-01-31T11:33:17Z</time>
      </trkpt>
      <trkpt lat="45.9241" lon="4.73261">
        <ele>171</ele>
        <time>2018-01-31T11:33:18Z</time>
      </trkpt>
      <trkpt lat="45.9241" lon="4.73268">
        <ele>171</ele>
        <time>2018-01-31T11:33:19Z</time>
      </trkpt>
      <trkpt lat="45.9241" lon="4.73274">
        <ele>171</ele>
        <time>2018-01-31T11:33:20Z</time>
      </trkpt>
      <trkpt lat="45.92411" lon="4.73281">
        <ele>171</ele>
        <time>2018-01-31T11:33:21Z</time>
      </trkpt>
      <trkpt lat="45.92412" lon="4.73288">
        <ele>171</ele>
        <time>2018-01-31T11:33:22Z</time>
      </trkpt>
      <trkpt lat="45.92413" lon="4.733">
        <ele>171</ele>
        <time>2018-01-31T11:33:24Z</time>
      </trkpt>
      <trkpt lat="45.92413" lon="4.73308">
        <ele>171</ele>
        <time>2018-01-31T11:33:25Z</time>
      </trkpt>
      <trkpt lat="45.92414" lon="4.73319">
        <ele>171</ele>
        <time>2018-01-31T11:33:27Z</time>
      </trkpt>
      <trkpt lat="45.92415" lon="4.73325">
        <ele>171</ele>
        <time>2018-01-31T11:33:28Z</time>
      </trkpt>
      <trkpt lat="45.92415" lon="4.73338">
        <ele>171</ele>
        <time>2018-01-31T11:33:30Z</time>
      </trkpt>
      <trkpt lat="45.92416" lon="4.73345">
        <ele>171</ele>
        <time>2018-01-31T11:33:31Z</time>
      </trkpt>
      <trkpt lat="45.92416" lon="4.73352">
        <ele>171</ele>
        <time>2018-01-31T11:33:32Z</time>
      </trkpt>
      <trkpt lat="45.92417" lon="4.73358">
        <ele>171</ele>
        <time>2018-01-31T11:33:33Z</time>
      </trkpt>
      <trkpt lat="45.92418" lon="4.73365">
        <ele>172</ele>
        <time>2018-01-31T11:33:34Z</time>
      </trkpt>
      <trkpt lat="45.9242" lon="4.73371">
        <ele>172</ele>
        <time>2018-01-31T11:33:35Z</time>
      </trkpt>
      <trkpt lat="45.92421" lon="4.73378">
        <ele>172</ele>
        <time>2018-01-31T11:33:36Z</time>
      </trkpt>
      <trkpt lat="45.92422" lon="4.73385">
        <ele>172</ele>
        <time>2018-01-31T11:33:37Z</time>
      </trkpt>
      <trkpt lat="45.92423" lon="4.73392">
        <ele>172</ele>
        <time>2018-01-31T11:33:38Z</time>
      </trkpt>
      <trkpt lat="45.92425" lon="4.734">
        <ele>172</ele>
        <time>2018-01-31T11:33:39Z</time>
      </trkpt>
      <trkpt lat="45.92427" lon="4.73406">
        <ele>172</ele>
        <time>2018-01-31T11:33:40Z</time>
      </trkpt>
      <trkpt lat="45.92429" lon="4.73412">
        <ele>172</ele>
        <time>2018-01-31T11:33:41Z</time>
      </trkpt>
      <trkpt lat="45.92433" lon="4.73418">
        <ele>172</ele>
        <time>2018-01-31T11:33:42Z</time>
      </trkpt>
      <trkpt lat="45.92437" lon="4.73421">
        <ele>173</ele>
        <time>2018-01-31T11:33:43Z</time>
      </trkpt>
      <trkpt lat="45.92444" lon="4.73426">
        <ele>173</ele>
        <time>2018-01-31T11:33:45Z</time>
      </trkpt>
      <trkpt lat="45.92447" lon="4.73429">
        <ele>173</ele>
        <time>2018-01-31T11:33:46Z</time>
      </trkpt>
      <trkpt lat="45.92453" lon="4.73436">
        <ele>173</ele>
        <time>2018-01-31T11:33:48Z</time>
      </trkpt>
      <trkpt lat="45.92457" lon="4.7344">
        <ele>173</ele>
        <time>2018-01-31T11:33:49Z</time>
      </trkpt>
      <trkpt lat="45.92459" lon="4.73446">
        <ele>173</ele>
        <time>2018-01-31T11:33:50Z</time>
      </trkpt>
      <trkpt lat="45.92461" lon="4.73452">
        <ele>173</ele>
        <time>2018-01-31T11:33:51Z</time>
      </trkpt>
      <trkpt lat="45.92463" lon="4.73459">
        <ele>173</ele>
        <time>2018-01-31T11:33:52Z</time>
      </trkpt>
      <trkpt lat="45.92464" lon="4.73467">
        <ele>173</ele>
        <time>2018-01-31T11:33:53Z</time>
      </trkpt>
      <trkpt lat="45.92464" lon="4.73474">
        <ele>173</ele>
        <time>2018-01-31T11:33:54Z</time>
      </trkpt>
      <trkpt lat="45.92463" lon="4.73482">
        <ele>173</ele>
        <time>2018-01-31T11:33:55Z</time>
      </trkpt>
      <trkpt lat="45.92464" lon="4.7349">
        <ele>173</ele>
        <time>2018-01-31T11:33:56Z</time>
      </trkpt>
      <trkpt lat="45.92464" lon="4.73497">
        <ele>173</ele>
        <time>2018-01-31T11:33:57Z</time>
      </trkpt>
      <trkpt lat="45.92465" lon="4.73504">
        <ele>174</ele>
        <time>2018-01-31T11:33:58Z</time>
      </trkpt>
      <trkpt lat="45.92465" lon="4.73513">
        <ele>174</ele>
        <time>2018-01-31T11:33:59Z</time>
      </trkpt>
      <trkpt lat="45.92465" lon="4.73521">
        <ele>174</ele>
        <time>2018-01-31T11:34:00Z</time>
      </trkpt>
      <trkpt lat="45.92466" lon="4.73528">
        <ele>174</ele>
        <time>2018-01-31T11:34:01Z</time>
      </trkpt>
      <trkpt lat="45.92465" lon="4.73536">
        <ele>174</ele>
        <time>2018-01-31T11:34:02Z</time>
      </trkpt>
      <trkpt lat="45.92465" lon="4.73542">
        <ele>173</ele>
        <time>2018-01-31T11:34:03Z</time>
      </trkpt>
      <trkpt lat="45.92466" lon="4.73549">
        <ele>173</ele>
        <time>2018-01-31T11:34:04Z</time>
      </trkpt>
      <trkpt lat="45.92466" lon="4.73556">
        <ele>173</ele>
        <time>2018-01-31T11:34:05Z</time>
      </trkpt>
      <trkpt lat="45.92465" lon="4.73563">
        <ele>173</ele>
        <time>2018-01-31T11:34:06Z</time>
      </trkpt>
      <trkpt lat="45.92465" lon="4.73571">
        <ele>173</ele>
        <time>2018-01-31T11:34:07Z</time>
      </trkpt>
      <trkpt lat="45.92465" lon="4.73579">
        <ele>173</ele>
        <time>2018-01-31T11:34:08Z</time>
      </trkpt>
      <trkpt lat="45.92465" lon="4.73586">
        <ele>174</ele>
        <time>2018-01-31T11:34:09Z</time>
      </trkpt>
      <trkpt lat="45.92466" lon="4.73595">
        <ele>174</ele>
        <time>2018-01-31T11:34:10Z</time>
      </trkpt>
      <trkpt lat="45.92467" lon="4.73602">
        <ele>174</ele>
        <time>2018-01-31T11:34:11Z</time>
      </trkpt>
      <trkpt lat="45.92467" lon="4.7361">
        <ele>174</ele>
        <time>2018-01-31T11:34:12Z</time>
      </trkpt>
      <trkpt lat="45.92468" lon="4.73617">
        <ele>174</ele>
        <time>2018-01-31T11:34:13Z</time>
      </trkpt>
      <trkpt lat="45.92468" lon="4.73626">
        <ele>174</ele>
        <time>2018-01-31T11:34:14Z</time>
      </trkpt>
      <trkpt lat="45.92469" lon="4.73633">
        <ele>174</ele>
        <time>2018-01-31T11:34:15Z</time>
      </trkpt>
      <trkpt lat="45.92469" lon="4.7364">
        <ele>174</ele>
        <time>2018-01-31T11:34:16Z</time>
      </trkpt>
      <trkpt lat="45.92468" lon="4.73647">
        <ele>174</ele>
        <time>2018-01-31T11:34:17Z</time>
      </trkpt>
      <trkpt lat="45.92468" lon="4.73654">
        <ele>174</ele>
        <time>2018-01-31T11:34:18Z</time>
      </trkpt>
      <trkpt lat="45.92468" lon="4.7366">
        <ele>174</ele>
        <time>2018-01-31T11:34:19Z</time>
      </trkpt>
      <trkpt lat="45.92468" lon="4.73672">
        <ele>174</ele>
        <time>2018-01-31T11:34:21Z</time>
      </trkpt>
      <trkpt lat="45.92468" lon="4.73679">
        <ele>174</ele>
        <time>2018-01-31T11:34:22Z</time>
      </trkpt>
      <trkpt lat="45.92466" lon="4.7369">
        <ele>174</ele>
        <time>2018-01-31T11:34:24Z</time>
      </trkpt>
      <trkpt lat="45.92465" lon="4.73695">
        <ele>174</ele>
        <time>2018-01-31T11:34:25Z</time>
      </trkpt>
      <trkpt lat="45.92462" lon="4.73705">
        <ele>174</ele>
        <time>2018-01-31T11:34:27Z</time>
      </trkpt>
      <trkpt lat="45.9246" lon="4.73709">
        <ele>174</ele>
        <time>2018-01-31T11:34:28Z</time>
      </trkpt>
      <trkpt lat="45.92465" lon="4.73712">
        <ele>174</ele>
        <time>2018-01-31T11:35:20.13Z</time>
      </trkpt>
    </trkseg>
  </trk>
</gpx>